<?xml version="1.0" encoding="UTF-8" standalone="no" ?>
<gpx xmlns="http://www.topografix.com/GPX/1/1" xmlns:xsi="http://www.w3.org/2001/XMLSchema-instance" xsi:schemaLocation="http://www.topografix.com/GPX/1/1 http://www.topografix.com/GPX/1/1/gpx.xsd" version="1.1" creator="VisuGPX - https://www.visugpx.com">
  <metadata>
    <name>Parcours VTT Aglo 2021</name>
  </metadata>
  <trk>
    <name><![CDATA[Vert Cornillon St Gely]]></name>
    <extensions>
      <line xmlns="http://www.topografix.com/GPX/gpx_style/0/2">
        <color>00ff00</color>
        <width>4</width>
      </line>
    </extensions>
    <trkseg>
      <trkpt lat="44.21863" lon="4.48573">
        <ele>87</ele>
        <time>2021-07-04T12:59:42Z</time>
      </trkpt>
      <trkpt lat="44.21863" lon="4.48573">
        <ele>87</ele>
        <time>2021-07-04T12:59:42Z</time>
      </trkpt>
      <trkpt lat="44.21864" lon="4.48571">
        <ele>87</ele>
        <time>2021-07-04T12:59:42Z</time>
      </trkpt>
      <trkpt lat="44.21861" lon="4.48566">
        <ele>87</ele>
        <time>2021-07-04T12:59:43Z</time>
      </trkpt>
      <trkpt lat="44.21855" lon="4.48558">
        <ele>86</ele>
        <time>2021-07-04T12:59:45Z</time>
      </trkpt>
      <trkpt lat="44.21853" lon="4.48557">
        <ele>86</ele>
        <time>2021-07-04T12:59:46Z</time>
      </trkpt>
      <trkpt lat="44.21846" lon="4.48547">
        <ele>86</ele>
        <time>2021-07-04T12:59:48Z</time>
      </trkpt>
      <trkpt lat="44.21837" lon="4.48528">
        <ele>85</ele>
        <time>2021-07-04T12:59:52Z</time>
      </trkpt>
      <trkpt lat="44.21832" lon="4.4852">
        <ele>84</ele>
        <time>2021-07-04T12:59:54Z</time>
      </trkpt>
      <trkpt lat="44.21828" lon="4.48524">
        <ele>85</ele>
        <time>2021-07-04T12:59:55Z</time>
      </trkpt>
      <trkpt lat="44.21801" lon="4.48546">
        <ele>87</ele>
        <time>2021-07-04T13:00:02Z</time>
      </trkpt>
      <trkpt lat="44.21731" lon="4.48476">
        <ele>86</ele>
        <time>2021-07-04T13:00:22Z</time>
      </trkpt>
      <trkpt lat="44.21697" lon="4.4844">
        <ele>84</ele>
        <time>2021-07-04T13:00:32Z</time>
      </trkpt>
      <trkpt lat="44.21586" lon="4.48329">
        <ele>76</ele>
        <time>2021-07-04T13:01:04Z</time>
      </trkpt>
      <trkpt lat="44.21549" lon="4.48296">
        <ele>76</ele>
        <time>2021-07-04T13:01:15Z</time>
      </trkpt>
      <trkpt lat="44.21479" lon="4.4825">
        <ele>77</ele>
        <time>2021-07-04T13:01:33Z</time>
      </trkpt>
      <trkpt lat="44.21443" lon="4.48231">
        <ele>76</ele>
        <time>2021-07-04T13:01:42Z</time>
      </trkpt>
      <trkpt lat="44.21258" lon="4.48162">
        <ele>79</ele>
        <time>2021-07-04T13:02:26Z</time>
      </trkpt>
      <trkpt lat="44.21254" lon="4.48161">
        <ele>79</ele>
        <time>2021-07-04T13:02:27Z</time>
      </trkpt>
      <trkpt lat="44.21238" lon="4.48237">
        <ele>77</ele>
        <time>2021-07-04T13:02:41Z</time>
      </trkpt>
      <trkpt lat="44.21227" lon="4.48276">
        <ele>77</ele>
        <time>2021-07-04T13:02:48Z</time>
      </trkpt>
      <trkpt lat="44.21221" lon="4.48291">
        <ele>77</ele>
        <time>2021-07-04T13:02:50Z</time>
      </trkpt>
      <trkpt lat="44.21214" lon="4.48307">
        <ele>78</ele>
        <time>2021-07-04T13:02:54Z</time>
      </trkpt>
      <trkpt lat="44.21198" lon="4.48323">
        <ele>78</ele>
        <time>2021-07-04T13:02:58Z</time>
      </trkpt>
      <trkpt lat="44.21191" lon="4.48328">
        <ele>79</ele>
        <time>2021-07-04T13:03:00Z</time>
      </trkpt>
      <trkpt lat="44.21184" lon="4.48338">
        <ele>79</ele>
        <time>2021-07-04T13:03:02Z</time>
      </trkpt>
      <trkpt lat="44.21175" lon="4.4836">
        <ele>79</ele>
        <time>2021-07-04T13:03:07Z</time>
      </trkpt>
      <trkpt lat="44.2117" lon="4.48367">
        <ele>80</ele>
        <time>2021-07-04T13:03:08Z</time>
      </trkpt>
      <trkpt lat="44.21169" lon="4.48367">
        <ele>80</ele>
        <time>2021-07-04T13:03:08Z</time>
      </trkpt>
      <trkpt lat="44.21171" lon="4.48378">
        <ele>79</ele>
        <time>2021-07-04T13:03:10Z</time>
      </trkpt>
      <trkpt lat="44.21169" lon="4.48367">
        <ele>80</ele>
        <time>2021-07-04T13:03:12Z</time>
      </trkpt>
      <trkpt lat="44.21163" lon="4.4837">
        <ele>80</ele>
        <time>2021-07-04T13:03:14Z</time>
      </trkpt>
      <trkpt lat="44.21151" lon="4.48366">
        <ele>80</ele>
        <time>2021-07-04T13:03:17Z</time>
      </trkpt>
      <trkpt lat="44.21124" lon="4.48352">
        <ele>80</ele>
        <time>2021-07-04T13:03:23Z</time>
      </trkpt>
      <trkpt lat="44.21097" lon="4.48338">
        <ele>80</ele>
        <time>2021-07-04T13:03:30Z</time>
      </trkpt>
      <trkpt lat="44.21091" lon="4.48339">
        <ele>80</ele>
        <time>2021-07-04T13:03:31Z</time>
      </trkpt>
      <trkpt lat="44.21078" lon="4.48368">
        <ele>80</ele>
        <time>2021-07-04T13:03:37Z</time>
      </trkpt>
      <trkpt lat="44.21063" lon="4.48419">
        <ele>79</ele>
        <time>2021-07-04T13:03:46Z</time>
      </trkpt>
      <trkpt lat="44.21048" lon="4.48468">
        <ele>79</ele>
        <time>2021-07-04T13:03:55Z</time>
      </trkpt>
      <trkpt lat="44.21032" lon="4.48508">
        <ele>79</ele>
        <time>2021-07-04T13:04:03Z</time>
      </trkpt>
      <trkpt lat="44.21026" lon="4.48524">
        <ele>79</ele>
        <time>2021-07-04T13:04:06Z</time>
      </trkpt>
      <trkpt lat="44.21017" lon="4.48542">
        <ele>79</ele>
        <time>2021-07-04T13:04:10Z</time>
      </trkpt>
      <trkpt lat="44.21002" lon="4.48576">
        <ele>79</ele>
        <time>2021-07-04T13:04:16Z</time>
      </trkpt>
      <trkpt lat="44.20988" lon="4.48612">
        <ele>80</ele>
        <time>2021-07-04T13:04:23Z</time>
      </trkpt>
      <trkpt lat="44.20974" lon="4.48648">
        <ele>81</ele>
        <time>2021-07-04T13:04:30Z</time>
      </trkpt>
      <trkpt lat="44.20973" lon="4.48654">
        <ele>81</ele>
        <time>2021-07-04T13:04:31Z</time>
      </trkpt>
      <trkpt lat="44.20946" lon="4.48745">
        <ele>80</ele>
        <time>2021-07-04T13:04:48Z</time>
      </trkpt>
      <trkpt lat="44.20933" lon="4.48789">
        <ele>80</ele>
        <time>2021-07-04T13:04:56Z</time>
      </trkpt>
      <trkpt lat="44.20922" lon="4.4884">
        <ele>80</ele>
        <time>2021-07-04T13:05:05Z</time>
      </trkpt>
      <trkpt lat="44.20911" lon="4.48891">
        <ele>82</ele>
        <time>2021-07-04T13:05:13Z</time>
      </trkpt>
      <trkpt lat="44.20899" lon="4.48978">
        <ele>82</ele>
        <time>2021-07-04T13:05:28Z</time>
      </trkpt>
      <trkpt lat="44.20888" lon="4.49039">
        <ele>83</ele>
        <time>2021-07-04T13:05:39Z</time>
      </trkpt>
      <trkpt lat="44.2085" lon="4.49027">
        <ele>83</ele>
        <time>2021-07-04T13:05:48Z</time>
      </trkpt>
      <trkpt lat="44.20837" lon="4.49025">
        <ele>83</ele>
        <time>2021-07-04T13:05:51Z</time>
      </trkpt>
      <trkpt lat="44.20836" lon="4.49023">
        <ele>83</ele>
        <time>2021-07-04T13:05:51Z</time>
      </trkpt>
      <trkpt lat="44.20819" lon="4.49015">
        <ele>84</ele>
        <time>2021-07-04T13:05:56Z</time>
      </trkpt>
      <trkpt lat="44.20788" lon="4.49002">
        <ele>86</ele>
        <time>2021-07-04T13:06:03Z</time>
      </trkpt>
      <trkpt lat="44.20762" lon="4.48993">
        <ele>88</ele>
        <time>2021-07-04T13:06:09Z</time>
      </trkpt>
      <trkpt lat="44.20736" lon="4.48982">
        <ele>91</ele>
        <time>2021-07-04T13:06:16Z</time>
      </trkpt>
      <trkpt lat="44.20702" lon="4.48981">
        <ele>97</ele>
        <time>2021-07-04T13:06:24Z</time>
      </trkpt>
      <trkpt lat="44.20691" lon="4.48976">
        <ele>99</ele>
        <time>2021-07-04T13:06:26Z</time>
      </trkpt>
      <trkpt lat="44.20692" lon="4.48979">
        <ele>99</ele>
        <time>2021-07-04T13:06:27Z</time>
      </trkpt>
      <trkpt lat="44.20692" lon="4.49011">
        <ele>98</ele>
        <time>2021-07-04T13:06:32Z</time>
      </trkpt>
      <trkpt lat="44.20693" lon="4.49046">
        <ele>98</ele>
        <time>2021-07-04T13:06:38Z</time>
      </trkpt>
      <trkpt lat="44.20701" lon="4.49142">
        <ele>96</ele>
        <time>2021-07-04T13:06:54Z</time>
      </trkpt>
      <trkpt lat="44.20704" lon="4.49176">
        <ele>95</ele>
        <time>2021-07-04T13:07:00Z</time>
      </trkpt>
      <trkpt lat="44.20719" lon="4.49223">
        <ele>94</ele>
        <time>2021-07-04T13:07:09Z</time>
      </trkpt>
      <trkpt lat="44.20733" lon="4.49268">
        <ele>93</ele>
        <time>2021-07-04T13:07:17Z</time>
      </trkpt>
      <trkpt lat="44.20759" lon="4.49324">
        <ele>91</ele>
        <time>2021-07-04T13:07:28Z</time>
      </trkpt>
      <trkpt lat="44.20767" lon="4.49342">
        <ele>90</ele>
        <time>2021-07-04T13:07:32Z</time>
      </trkpt>
      <trkpt lat="44.20773" lon="4.4936">
        <ele>90</ele>
        <time>2021-07-04T13:07:35Z</time>
      </trkpt>
      <trkpt lat="44.20778" lon="4.49379">
        <ele>89</ele>
        <time>2021-07-04T13:07:38Z</time>
      </trkpt>
      <trkpt lat="44.20782" lon="4.49395">
        <ele>89</ele>
        <time>2021-07-04T13:07:41Z</time>
      </trkpt>
      <trkpt lat="44.20787" lon="4.49408">
        <ele>89</ele>
        <time>2021-07-04T13:07:44Z</time>
      </trkpt>
      <trkpt lat="44.20789" lon="4.49409">
        <ele>89</ele>
        <time>2021-07-04T13:07:44Z</time>
      </trkpt>
      <trkpt lat="44.20774" lon="4.49405">
        <ele>89</ele>
        <time>2021-07-04T13:07:48Z</time>
      </trkpt>
      <trkpt lat="44.20754" lon="4.49408">
        <ele>90</ele>
        <time>2021-07-04T13:07:52Z</time>
      </trkpt>
      <trkpt lat="44.20713" lon="4.49424">
        <ele>91</ele>
        <time>2021-07-04T13:08:02Z</time>
      </trkpt>
      <trkpt lat="44.20661" lon="4.49447">
        <ele>93</ele>
        <time>2021-07-04T13:08:15Z</time>
      </trkpt>
      <trkpt lat="44.20653" lon="4.4945">
        <ele>93</ele>
        <time>2021-07-04T13:08:17Z</time>
      </trkpt>
      <trkpt lat="44.20638" lon="4.49464">
        <ele>94</ele>
        <time>2021-07-04T13:08:21Z</time>
      </trkpt>
      <trkpt lat="44.20632" lon="4.49467">
        <ele>94</ele>
        <time>2021-07-04T13:08:23Z</time>
      </trkpt>
      <trkpt lat="44.20624" lon="4.49468">
        <ele>95</ele>
        <time>2021-07-04T13:08:25Z</time>
      </trkpt>
      <trkpt lat="44.2062" lon="4.49468">
        <ele>95</ele>
        <time>2021-07-04T13:08:25Z</time>
      </trkpt>
      <trkpt lat="44.20615" lon="4.49464">
        <ele>96</ele>
        <time>2021-07-04T13:08:27Z</time>
      </trkpt>
      <trkpt lat="44.20611" lon="4.49462">
        <ele>96</ele>
        <time>2021-07-04T13:08:28Z</time>
      </trkpt>
      <trkpt lat="44.20579" lon="4.49412">
        <ele>100</ele>
        <time>2021-07-04T13:08:39Z</time>
      </trkpt>
      <trkpt lat="44.20572" lon="4.49399">
        <ele>101</ele>
        <time>2021-07-04T13:08:42Z</time>
      </trkpt>
      <trkpt lat="44.20568" lon="4.49385">
        <ele>102</ele>
        <time>2021-07-04T13:08:44Z</time>
      </trkpt>
      <trkpt lat="44.20572" lon="4.49341">
        <ele>103</ele>
        <time>2021-07-04T13:08:52Z</time>
      </trkpt>
      <trkpt lat="44.20573" lon="4.49329">
        <ele>103</ele>
        <time>2021-07-04T13:08:54Z</time>
      </trkpt>
      <trkpt lat="44.20571" lon="4.49316">
        <ele>104</ele>
        <time>2021-07-04T13:08:56Z</time>
      </trkpt>
      <trkpt lat="44.20568" lon="4.49305">
        <ele>104</ele>
        <time>2021-07-04T13:08:58Z</time>
      </trkpt>
      <trkpt lat="44.20528" lon="4.49273">
        <ele>108</ele>
        <time>2021-07-04T13:09:09Z</time>
      </trkpt>
      <trkpt lat="44.20521" lon="4.49267">
        <ele>109</ele>
        <time>2021-07-04T13:09:11Z</time>
      </trkpt>
      <trkpt lat="44.20482" lon="4.49243">
        <ele>112</ele>
        <time>2021-07-04T13:09:21Z</time>
      </trkpt>
      <trkpt lat="44.2047" lon="4.49234">
        <ele>113</ele>
        <time>2021-07-04T13:09:24Z</time>
      </trkpt>
      <trkpt lat="44.20468" lon="4.49231">
        <ele>113</ele>
        <time>2021-07-04T13:09:24Z</time>
      </trkpt>
      <trkpt lat="44.20457" lon="4.49225">
        <ele>113</ele>
        <time>2021-07-04T13:09:27Z</time>
      </trkpt>
      <trkpt lat="44.20445" lon="4.4922">
        <ele>114</ele>
        <time>2021-07-04T13:09:30Z</time>
      </trkpt>
      <trkpt lat="44.20434" lon="4.49211">
        <ele>114</ele>
        <time>2021-07-04T13:09:33Z</time>
      </trkpt>
      <trkpt lat="44.20432" lon="4.49203">
        <ele>114</ele>
        <time>2021-07-04T13:09:35Z</time>
      </trkpt>
      <trkpt lat="44.20431" lon="4.49188">
        <ele>114</ele>
        <time>2021-07-04T13:09:37Z</time>
      </trkpt>
      <trkpt lat="44.2043" lon="4.49142">
        <ele>111</ele>
        <time>2021-07-04T13:09:45Z</time>
      </trkpt>
      <trkpt lat="44.20428" lon="4.4913">
        <ele>111</ele>
        <time>2021-07-04T13:09:47Z</time>
      </trkpt>
      <trkpt lat="44.20425" lon="4.49119">
        <ele>110</ele>
        <time>2021-07-04T13:09:49Z</time>
      </trkpt>
      <trkpt lat="44.20416" lon="4.49095">
        <ele>109</ele>
        <time>2021-07-04T13:09:53Z</time>
      </trkpt>
      <trkpt lat="44.20404" lon="4.49073">
        <ele>108</ele>
        <time>2021-07-04T13:09:58Z</time>
      </trkpt>
      <trkpt lat="44.20398" lon="4.49054">
        <ele>107</ele>
        <time>2021-07-04T13:10:01Z</time>
      </trkpt>
      <trkpt lat="44.20399" lon="4.49048">
        <ele>107</ele>
        <time>2021-07-04T13:10:02Z</time>
      </trkpt>
      <trkpt lat="44.20391" lon="4.49038">
        <ele>107</ele>
        <time>2021-07-04T13:10:05Z</time>
      </trkpt>
      <trkpt lat="44.20346" lon="4.48996">
        <ele>105</ele>
        <time>2021-07-04T13:10:18Z</time>
      </trkpt>
      <trkpt lat="44.20339" lon="4.4899">
        <ele>105</ele>
        <time>2021-07-04T13:10:20Z</time>
      </trkpt>
      <trkpt lat="44.20304" lon="4.48981">
        <ele>104</ele>
        <time>2021-07-04T13:10:28Z</time>
      </trkpt>
      <trkpt lat="44.20281" lon="4.48975">
        <ele>104</ele>
        <time>2021-07-04T13:10:33Z</time>
      </trkpt>
      <trkpt lat="44.20273" lon="4.48971">
        <ele>103</ele>
        <time>2021-07-04T13:10:35Z</time>
      </trkpt>
      <trkpt lat="44.20265" lon="4.48966">
        <ele>103</ele>
        <time>2021-07-04T13:10:37Z</time>
      </trkpt>
      <trkpt lat="44.20257" lon="4.48958">
        <ele>103</ele>
        <time>2021-07-04T13:10:40Z</time>
      </trkpt>
      <trkpt lat="44.20249" lon="4.48949">
        <ele>102</ele>
        <time>2021-07-04T13:10:42Z</time>
      </trkpt>
      <trkpt lat="44.20242" lon="4.48939">
        <ele>101</ele>
        <time>2021-07-04T13:10:44Z</time>
      </trkpt>
      <trkpt lat="44.20237" lon="4.48928">
        <ele>100</ele>
        <time>2021-07-04T13:10:47Z</time>
      </trkpt>
      <trkpt lat="44.2023" lon="4.48906">
        <ele>98</ele>
        <time>2021-07-04T13:10:51Z</time>
      </trkpt>
      <trkpt lat="44.20221" lon="4.48863">
        <ele>96</ele>
        <time>2021-07-04T13:10:58Z</time>
      </trkpt>
      <trkpt lat="44.20214" lon="4.48846">
        <ele>95</ele>
        <time>2021-07-04T13:11:01Z</time>
      </trkpt>
      <trkpt lat="44.20194" lon="4.48834">
        <ele>94</ele>
        <time>2021-07-04T13:11:06Z</time>
      </trkpt>
      <trkpt lat="44.20175" lon="4.4882">
        <ele>94</ele>
        <time>2021-07-04T13:11:11Z</time>
      </trkpt>
      <trkpt lat="44.20164" lon="4.48813">
        <ele>93</ele>
        <time>2021-07-04T13:11:14Z</time>
      </trkpt>
      <trkpt lat="44.20157" lon="4.4881">
        <ele>93</ele>
        <time>2021-07-04T13:11:16Z</time>
      </trkpt>
      <trkpt lat="44.2015" lon="4.48805">
        <ele>92</ele>
        <time>2021-07-04T13:11:18Z</time>
      </trkpt>
      <trkpt lat="44.20146" lon="4.488">
        <ele>92</ele>
        <time>2021-07-04T13:11:19Z</time>
      </trkpt>
      <trkpt lat="44.20145" lon="4.488">
        <ele>92</ele>
        <time>2021-07-04T13:11:19Z</time>
      </trkpt>
      <trkpt lat="44.20137" lon="4.48789">
        <ele>92</ele>
        <time>2021-07-04T13:11:22Z</time>
      </trkpt>
      <trkpt lat="44.20134" lon="4.48777">
        <ele>92</ele>
        <time>2021-07-04T13:11:24Z</time>
      </trkpt>
      <trkpt lat="44.2013" lon="4.48765">
        <ele>92</ele>
        <time>2021-07-04T13:11:26Z</time>
      </trkpt>
      <trkpt lat="44.20138" lon="4.48702">
        <ele>95</ele>
        <time>2021-07-04T13:11:37Z</time>
      </trkpt>
      <trkpt lat="44.20139" lon="4.48684">
        <ele>96</ele>
        <time>2021-07-04T13:11:40Z</time>
      </trkpt>
      <trkpt lat="44.20138" lon="4.48671">
        <ele>96</ele>
        <time>2021-07-04T13:11:42Z</time>
      </trkpt>
      <trkpt lat="44.20132" lon="4.48641">
        <ele>97</ele>
        <time>2021-07-04T13:11:47Z</time>
      </trkpt>
      <trkpt lat="44.20122" lon="4.48613">
        <ele>98</ele>
        <time>2021-07-04T13:11:53Z</time>
      </trkpt>
      <trkpt lat="44.20121" lon="4.48603">
        <ele>99</ele>
        <time>2021-07-04T13:11:54Z</time>
      </trkpt>
      <trkpt lat="44.20119" lon="4.4859">
        <ele>99</ele>
        <time>2021-07-04T13:11:57Z</time>
      </trkpt>
      <trkpt lat="44.2012" lon="4.48579">
        <ele>100</ele>
        <time>2021-07-04T13:11:58Z</time>
      </trkpt>
      <trkpt lat="44.20122" lon="4.48572">
        <ele>100</ele>
        <time>2021-07-04T13:12:00Z</time>
      </trkpt>
      <trkpt lat="44.20122" lon="4.48564">
        <ele>101</ele>
        <time>2021-07-04T13:12:01Z</time>
      </trkpt>
      <trkpt lat="44.2011" lon="4.48539">
        <ele>101</ele>
        <time>2021-07-04T13:12:06Z</time>
      </trkpt>
      <trkpt lat="44.20105" lon="4.48509">
        <ele>102</ele>
        <time>2021-07-04T13:12:11Z</time>
      </trkpt>
      <trkpt lat="44.20085" lon="4.48476">
        <ele>103</ele>
        <time>2021-07-04T13:12:18Z</time>
      </trkpt>
      <trkpt lat="44.20063" lon="4.48444">
        <ele>104</ele>
        <time>2021-07-04T13:12:26Z</time>
      </trkpt>
      <trkpt lat="44.20044" lon="4.48413">
        <ele>105</ele>
        <time>2021-07-04T13:12:33Z</time>
      </trkpt>
      <trkpt lat="44.2003" lon="4.48387">
        <ele>106</ele>
        <time>2021-07-04T13:12:38Z</time>
      </trkpt>
      <trkpt lat="44.2001" lon="4.48364">
        <ele>107</ele>
        <time>2021-07-04T13:12:44Z</time>
      </trkpt>
      <trkpt lat="44.19997" lon="4.48336">
        <ele>109</ele>
        <time>2021-07-04T13:12:50Z</time>
      </trkpt>
      <trkpt lat="44.19987" lon="4.48312">
        <ele>109</ele>
        <time>2021-07-04T13:12:54Z</time>
      </trkpt>
      <trkpt lat="44.19977" lon="4.48266">
        <ele>109</ele>
        <time>2021-07-04T13:13:02Z</time>
      </trkpt>
      <trkpt lat="44.19974" lon="4.48237">
        <ele>109</ele>
        <time>2021-07-04T13:13:07Z</time>
      </trkpt>
      <trkpt lat="44.19973" lon="4.48214">
        <ele>107</ele>
        <time>2021-07-04T13:13:11Z</time>
      </trkpt>
      <trkpt lat="44.19964" lon="4.48202">
        <ele>106</ele>
        <time>2021-07-04T13:13:14Z</time>
      </trkpt>
      <trkpt lat="44.19964" lon="4.48194">
        <ele>105</ele>
        <time>2021-07-04T13:13:15Z</time>
      </trkpt>
      <trkpt lat="44.19964" lon="4.48189">
        <ele>105</ele>
        <time>2021-07-04T13:13:16Z</time>
      </trkpt>
      <trkpt lat="44.19969" lon="4.4818">
        <ele>105</ele>
        <time>2021-07-04T13:13:18Z</time>
      </trkpt>
      <trkpt lat="44.19979" lon="4.48165">
        <ele>106</ele>
        <time>2021-07-04T13:13:22Z</time>
      </trkpt>
      <trkpt lat="44.19991" lon="4.48146">
        <ele>106</ele>
        <time>2021-07-04T13:13:26Z</time>
      </trkpt>
      <trkpt lat="44.1999" lon="4.4812">
        <ele>104</ele>
        <time>2021-07-04T13:13:30Z</time>
      </trkpt>
      <trkpt lat="44.19995" lon="4.48096">
        <ele>103</ele>
        <time>2021-07-04T13:13:34Z</time>
      </trkpt>
      <trkpt lat="44.20028" lon="4.48035">
        <ele>102</ele>
        <time>2021-07-04T13:13:47Z</time>
      </trkpt>
      <trkpt lat="44.20047" lon="4.48028">
        <ele>103</ele>
        <time>2021-07-04T13:13:52Z</time>
      </trkpt>
      <trkpt lat="44.20057" lon="4.48002">
        <ele>101</ele>
        <time>2021-07-04T13:13:57Z</time>
      </trkpt>
      <trkpt lat="44.20072" lon="4.47959">
        <ele>101</ele>
        <time>2021-07-04T13:14:05Z</time>
      </trkpt>
      <trkpt lat="44.20069" lon="4.47906">
        <ele>100</ele>
        <time>2021-07-04T13:14:14Z</time>
      </trkpt>
      <trkpt lat="44.20107" lon="4.47894">
        <ele>100</ele>
        <time>2021-07-04T13:14:23Z</time>
      </trkpt>
      <trkpt lat="44.20143" lon="4.47895">
        <ele>99</ele>
        <time>2021-07-04T13:14:31Z</time>
      </trkpt>
      <trkpt lat="44.2018" lon="4.47895">
        <ele>99</ele>
        <time>2021-07-04T13:14:40Z</time>
      </trkpt>
      <trkpt lat="44.20216" lon="4.47896">
        <ele>99</ele>
        <time>2021-07-04T13:14:48Z</time>
      </trkpt>
      <trkpt lat="44.20232" lon="4.47895">
        <ele>99</ele>
        <time>2021-07-04T13:14:52Z</time>
      </trkpt>
      <trkpt lat="44.20262" lon="4.47912">
        <ele>100</ele>
        <time>2021-07-04T13:15:00Z</time>
      </trkpt>
      <trkpt lat="44.20292" lon="4.47907">
        <ele>99</ele>
        <time>2021-07-04T13:15:07Z</time>
      </trkpt>
      <trkpt lat="44.20316" lon="4.47902">
        <ele>99</ele>
        <time>2021-07-04T13:15:12Z</time>
      </trkpt>
      <trkpt lat="44.20374" lon="4.4788">
        <ele>99</ele>
        <time>2021-07-04T13:15:26Z</time>
      </trkpt>
      <trkpt lat="44.20385" lon="4.47848">
        <ele>99</ele>
        <time>2021-07-04T13:15:32Z</time>
      </trkpt>
      <trkpt lat="44.2042" lon="4.47847">
        <ele>99</ele>
        <time>2021-07-04T13:15:40Z</time>
      </trkpt>
      <trkpt lat="44.20448" lon="4.47851">
        <ele>100</ele>
        <time>2021-07-04T13:15:47Z</time>
      </trkpt>
      <trkpt lat="44.20476" lon="4.47852">
        <ele>100</ele>
        <time>2021-07-04T13:15:54Z</time>
      </trkpt>
      <trkpt lat="44.20477" lon="4.47855">
        <ele>101</ele>
        <time>2021-07-04T13:15:54Z</time>
      </trkpt>
      <trkpt lat="44.20515" lon="4.47856">
        <ele>101</ele>
        <time>2021-07-04T13:16:03Z</time>
      </trkpt>
      <trkpt lat="44.20553" lon="4.47856">
        <ele>100</ele>
        <time>2021-07-04T13:16:12Z</time>
      </trkpt>
      <trkpt lat="44.20579" lon="4.47859">
        <ele>99</ele>
        <time>2021-07-04T13:16:18Z</time>
      </trkpt>
      <trkpt lat="44.20604" lon="4.47865">
        <ele>100</ele>
        <time>2021-07-04T13:16:24Z</time>
      </trkpt>
      <trkpt lat="44.20639" lon="4.47874">
        <ele>100</ele>
        <time>2021-07-04T13:16:32Z</time>
      </trkpt>
      <trkpt lat="44.20664" lon="4.47884">
        <ele>100</ele>
        <time>2021-07-04T13:16:38Z</time>
      </trkpt>
      <trkpt lat="44.20682" lon="4.47895">
        <ele>99</ele>
        <time>2021-07-04T13:16:43Z</time>
      </trkpt>
      <trkpt lat="44.20702" lon="4.47906">
        <ele>99</ele>
        <time>2021-07-04T13:16:48Z</time>
      </trkpt>
      <trkpt lat="44.20731" lon="4.47919">
        <ele>98</ele>
        <time>2021-07-04T13:16:55Z</time>
      </trkpt>
      <trkpt lat="44.20749" lon="4.47925">
        <ele>97</ele>
        <time>2021-07-04T13:16:59Z</time>
      </trkpt>
      <trkpt lat="44.20764" lon="4.47933">
        <ele>96</ele>
        <time>2021-07-04T13:17:03Z</time>
      </trkpt>
      <trkpt lat="44.20767" lon="4.47934">
        <ele>96</ele>
        <time>2021-07-04T13:17:04Z</time>
      </trkpt>
      <trkpt lat="44.20774" lon="4.47942">
        <ele>95</ele>
        <time>2021-07-04T13:17:06Z</time>
      </trkpt>
      <trkpt lat="44.20792" lon="4.47953">
        <ele>94</ele>
        <time>2021-07-04T13:17:10Z</time>
      </trkpt>
      <trkpt lat="44.20807" lon="4.4796">
        <ele>93</ele>
        <time>2021-07-04T13:17:14Z</time>
      </trkpt>
      <trkpt lat="44.20825" lon="4.47967">
        <ele>92</ele>
        <time>2021-07-04T13:17:19Z</time>
      </trkpt>
      <trkpt lat="44.20842" lon="4.47977">
        <ele>91</ele>
        <time>2021-07-04T13:17:23Z</time>
      </trkpt>
      <trkpt lat="44.20859" lon="4.47985">
        <ele>90</ele>
        <time>2021-07-04T13:17:27Z</time>
      </trkpt>
      <trkpt lat="44.20882" lon="4.47992">
        <ele>89</ele>
        <time>2021-07-04T13:17:33Z</time>
      </trkpt>
      <trkpt lat="44.20907" lon="4.48001">
        <ele>88</ele>
        <time>2021-07-04T13:17:39Z</time>
      </trkpt>
      <trkpt lat="44.20929" lon="4.48014">
        <ele>88</ele>
        <time>2021-07-04T13:17:44Z</time>
      </trkpt>
      <trkpt lat="44.20933" lon="4.48017">
        <ele>88</ele>
        <time>2021-07-04T13:17:45Z</time>
      </trkpt>
      <trkpt lat="44.2101" lon="4.48048">
        <ele>86</ele>
        <time>2021-07-04T13:18:04Z</time>
      </trkpt>
      <trkpt lat="44.2105" lon="4.48063">
        <ele>85</ele>
        <time>2021-07-04T13:18:14Z</time>
      </trkpt>
      <trkpt lat="44.21085" lon="4.48081">
        <ele>84</ele>
        <time>2021-07-04T13:18:22Z</time>
      </trkpt>
      <trkpt lat="44.21115" lon="4.48096">
        <ele>85</ele>
        <time>2021-07-04T13:18:30Z</time>
      </trkpt>
      <trkpt lat="44.21128" lon="4.48104">
        <ele>85</ele>
        <time>2021-07-04T13:18:33Z</time>
      </trkpt>
      <trkpt lat="44.21153" lon="4.48122">
        <ele>84</ele>
        <time>2021-07-04T13:18:40Z</time>
      </trkpt>
      <trkpt lat="44.21169" lon="4.48132">
        <ele>84</ele>
        <time>2021-07-04T13:18:44Z</time>
      </trkpt>
      <trkpt lat="44.21187" lon="4.48141">
        <ele>83</ele>
        <time>2021-07-04T13:18:48Z</time>
      </trkpt>
      <trkpt lat="44.21211" lon="4.48149">
        <ele>82</ele>
        <time>2021-07-04T13:18:54Z</time>
      </trkpt>
      <trkpt lat="44.21214" lon="4.4815">
        <ele>82</ele>
        <time>2021-07-04T13:18:55Z</time>
      </trkpt>
      <trkpt lat="44.21254" lon="4.48161">
        <ele>79</ele>
        <time>2021-07-04T13:19:04Z</time>
      </trkpt>
      <trkpt lat="44.21417" lon="4.48221">
        <ele>76</ele>
        <time>2021-07-04T13:19:44Z</time>
      </trkpt>
      <trkpt lat="44.21443" lon="4.48231">
        <ele>76</ele>
        <time>2021-07-04T13:19:50Z</time>
      </trkpt>
      <trkpt lat="44.21479" lon="4.4825">
        <ele>77</ele>
        <time>2021-07-04T13:19:59Z</time>
      </trkpt>
      <trkpt lat="44.21568" lon="4.4831">
        <ele>76</ele>
        <time>2021-07-04T13:20:22Z</time>
      </trkpt>
      <trkpt lat="44.21775" lon="4.48518">
        <ele>87</ele>
        <time>2021-07-04T13:21:21Z</time>
      </trkpt>
      <trkpt lat="44.21802" lon="4.48555">
        <ele>88</ele>
        <time>2021-07-04T13:21:30Z</time>
      </trkpt>
      <trkpt lat="44.21824" lon="4.48533">
        <ele>86</ele>
        <time>2021-07-04T13:21:37Z</time>
      </trkpt>
      <trkpt lat="44.21839" lon="4.48554">
        <ele>87</ele>
        <time>2021-07-04T13:21:42Z</time>
      </trkpt>
    </trkseg>
  </trk>
  <trk>
    <name><![CDATA[Bleu Cornillon St Gely]]></name>
    <extensions>
      <line xmlns="http://www.topografix.com/GPX/gpx_style/0/2">
        <color>0000fa</color>
        <width>4</width>
      </line>
    </extensions>
    <trkseg>
      <trkpt lat="44.2182" lon="4.4858">
        <ele>89</ele>
        <time>2021-07-04T13:00:13Z</time>
      </trkpt>
      <trkpt lat="44.2182" lon="4.4858">
        <ele>89</ele>
        <time>2021-07-04T13:00:13Z</time>
      </trkpt>
      <trkpt lat="44.21856" lon="4.48553">
        <ele>86</ele>
        <time>2021-07-04T13:00:23Z</time>
      </trkpt>
      <trkpt lat="44.21841" lon="4.48534">
        <ele>85</ele>
        <time>2021-07-04T13:00:27Z</time>
      </trkpt>
      <trkpt lat="44.21808" lon="4.48553">
        <ele>87</ele>
        <time>2021-07-04T13:00:36Z</time>
      </trkpt>
      <trkpt lat="44.21804" lon="4.48543">
        <ele>87</ele>
        <time>2021-07-04T13:00:38Z</time>
      </trkpt>
      <trkpt lat="44.21801" lon="4.48546">
        <ele>87</ele>
        <time>2021-07-04T13:00:38Z</time>
      </trkpt>
      <trkpt lat="44.21787" lon="4.48533">
        <ele>87</ele>
        <time>2021-07-04T13:00:42Z</time>
      </trkpt>
      <trkpt lat="44.21716" lon="4.48461">
        <ele>85</ele>
        <time>2021-07-04T13:01:03Z</time>
      </trkpt>
      <trkpt lat="44.21697" lon="4.4844">
        <ele>84</ele>
        <time>2021-07-04T13:01:08Z</time>
      </trkpt>
      <trkpt lat="44.21586" lon="4.48329">
        <ele>76</ele>
        <time>2021-07-04T13:01:40Z</time>
      </trkpt>
      <trkpt lat="44.21549" lon="4.48296">
        <ele>76</ele>
        <time>2021-07-04T13:01:51Z</time>
      </trkpt>
      <trkpt lat="44.2154" lon="4.48291">
        <ele>76</ele>
        <time>2021-07-04T13:01:53Z</time>
      </trkpt>
      <trkpt lat="44.21479" lon="4.4825">
        <ele>77</ele>
        <time>2021-07-04T13:02:09Z</time>
      </trkpt>
      <trkpt lat="44.21443" lon="4.48231">
        <ele>76</ele>
        <time>2021-07-04T13:02:18Z</time>
      </trkpt>
      <trkpt lat="44.21287" lon="4.48173">
        <ele>78</ele>
        <time>2021-07-04T13:02:55Z</time>
      </trkpt>
      <trkpt lat="44.2126" lon="4.48162">
        <ele>79</ele>
        <time>2021-07-04T13:03:02Z</time>
      </trkpt>
      <trkpt lat="44.2126" lon="4.48162">
        <ele>79</ele>
        <time>2021-07-04T13:03:02Z</time>
      </trkpt>
      <trkpt lat="44.21254" lon="4.48161">
        <ele>79</ele>
        <time>2021-07-04T13:03:03Z</time>
      </trkpt>
      <trkpt lat="44.21246" lon="4.48198">
        <ele>78</ele>
        <time>2021-07-04T13:03:10Z</time>
      </trkpt>
      <trkpt lat="44.21238" lon="4.48237">
        <ele>77</ele>
        <time>2021-07-04T13:03:17Z</time>
      </trkpt>
      <trkpt lat="44.21227" lon="4.48276">
        <ele>77</ele>
        <time>2021-07-04T13:03:24Z</time>
      </trkpt>
      <trkpt lat="44.21214" lon="4.48307">
        <ele>78</ele>
        <time>2021-07-04T13:03:30Z</time>
      </trkpt>
      <trkpt lat="44.21198" lon="4.48323">
        <ele>78</ele>
        <time>2021-07-04T13:03:34Z</time>
      </trkpt>
      <trkpt lat="44.21191" lon="4.48328">
        <ele>79</ele>
        <time>2021-07-04T13:03:36Z</time>
      </trkpt>
      <trkpt lat="44.21184" lon="4.48338">
        <ele>79</ele>
        <time>2021-07-04T13:03:38Z</time>
      </trkpt>
      <trkpt lat="44.21175" lon="4.4836">
        <ele>79</ele>
        <time>2021-07-04T13:03:43Z</time>
      </trkpt>
      <trkpt lat="44.2117" lon="4.48367">
        <ele>80</ele>
        <time>2021-07-04T13:03:44Z</time>
      </trkpt>
      <trkpt lat="44.21163" lon="4.4837">
        <ele>80</ele>
        <time>2021-07-04T13:03:46Z</time>
      </trkpt>
      <trkpt lat="44.21151" lon="4.48366">
        <ele>80</ele>
        <time>2021-07-04T13:03:49Z</time>
      </trkpt>
      <trkpt lat="44.21124" lon="4.48352">
        <ele>80</ele>
        <time>2021-07-04T13:03:56Z</time>
      </trkpt>
      <trkpt lat="44.21097" lon="4.48338">
        <ele>80</ele>
        <time>2021-07-04T13:04:02Z</time>
      </trkpt>
      <trkpt lat="44.21094" lon="4.48338">
        <ele>80</ele>
        <time>2021-07-04T13:04:03Z</time>
      </trkpt>
      <trkpt lat="44.21091" lon="4.48339">
        <ele>80</ele>
        <time>2021-07-04T13:04:04Z</time>
      </trkpt>
      <trkpt lat="44.21078" lon="4.48368">
        <ele>80</ele>
        <time>2021-07-04T13:04:10Z</time>
      </trkpt>
      <trkpt lat="44.21063" lon="4.48419">
        <ele>79</ele>
        <time>2021-07-04T13:04:19Z</time>
      </trkpt>
      <trkpt lat="44.21048" lon="4.48468">
        <ele>79</ele>
        <time>2021-07-04T13:04:28Z</time>
      </trkpt>
      <trkpt lat="44.21017" lon="4.48542">
        <ele>79</ele>
        <time>2021-07-04T13:04:42Z</time>
      </trkpt>
      <trkpt lat="44.21002" lon="4.48576">
        <ele>79</ele>
        <time>2021-07-04T13:04:49Z</time>
      </trkpt>
      <trkpt lat="44.20988" lon="4.48612">
        <ele>80</ele>
        <time>2021-07-04T13:04:56Z</time>
      </trkpt>
      <trkpt lat="44.20974" lon="4.48648">
        <ele>81</ele>
        <time>2021-07-04T13:05:02Z</time>
      </trkpt>
      <trkpt lat="44.20973" lon="4.48654">
        <ele>81</ele>
        <time>2021-07-04T13:05:03Z</time>
      </trkpt>
      <trkpt lat="44.20946" lon="4.48745">
        <ele>80</ele>
        <time>2021-07-04T13:05:20Z</time>
      </trkpt>
      <trkpt lat="44.20933" lon="4.48789">
        <ele>80</ele>
        <time>2021-07-04T13:05:28Z</time>
      </trkpt>
      <trkpt lat="44.20922" lon="4.4884">
        <ele>80</ele>
        <time>2021-07-04T13:05:37Z</time>
      </trkpt>
      <trkpt lat="44.20911" lon="4.48891">
        <ele>82</ele>
        <time>2021-07-04T13:05:46Z</time>
      </trkpt>
      <trkpt lat="44.20899" lon="4.48978">
        <ele>82</ele>
        <time>2021-07-04T13:06:01Z</time>
      </trkpt>
      <trkpt lat="44.20888" lon="4.49039">
        <ele>83</ele>
        <time>2021-07-04T13:06:11Z</time>
      </trkpt>
      <trkpt lat="44.2085" lon="4.49027">
        <ele>83</ele>
        <time>2021-07-04T13:06:20Z</time>
      </trkpt>
      <trkpt lat="44.20836" lon="4.49023">
        <ele>83</ele>
        <time>2021-07-04T13:06:24Z</time>
      </trkpt>
      <trkpt lat="44.20819" lon="4.49015">
        <ele>84</ele>
        <time>2021-07-04T13:06:28Z</time>
      </trkpt>
      <trkpt lat="44.20788" lon="4.49002">
        <ele>86</ele>
        <time>2021-07-04T13:06:35Z</time>
      </trkpt>
      <trkpt lat="44.20762" lon="4.48993">
        <ele>88</ele>
        <time>2021-07-04T13:06:42Z</time>
      </trkpt>
      <trkpt lat="44.20736" lon="4.48982">
        <ele>91</ele>
        <time>2021-07-04T13:06:48Z</time>
      </trkpt>
      <trkpt lat="44.20702" lon="4.48981">
        <ele>97</ele>
        <time>2021-07-04T13:06:56Z</time>
      </trkpt>
      <trkpt lat="44.20691" lon="4.48976">
        <ele>99</ele>
        <time>2021-07-04T13:06:59Z</time>
      </trkpt>
      <trkpt lat="44.20692" lon="4.49011">
        <ele>98</ele>
        <time>2021-07-04T13:07:04Z</time>
      </trkpt>
      <trkpt lat="44.20693" lon="4.49046">
        <ele>98</ele>
        <time>2021-07-04T13:07:10Z</time>
      </trkpt>
      <trkpt lat="44.20701" lon="4.49142">
        <ele>96</ele>
        <time>2021-07-04T13:07:26Z</time>
      </trkpt>
      <trkpt lat="44.20704" lon="4.49176">
        <ele>95</ele>
        <time>2021-07-04T13:07:32Z</time>
      </trkpt>
      <trkpt lat="44.20719" lon="4.49223">
        <ele>94</ele>
        <time>2021-07-04T13:07:41Z</time>
      </trkpt>
      <trkpt lat="44.20733" lon="4.49268">
        <ele>93</ele>
        <time>2021-07-04T13:07:49Z</time>
      </trkpt>
      <trkpt lat="44.20759" lon="4.49324">
        <ele>91</ele>
        <time>2021-07-04T13:08:00Z</time>
      </trkpt>
      <trkpt lat="44.20767" lon="4.49342">
        <ele>90</ele>
        <time>2021-07-04T13:08:04Z</time>
      </trkpt>
      <trkpt lat="44.20773" lon="4.4936">
        <ele>90</ele>
        <time>2021-07-04T13:08:07Z</time>
      </trkpt>
      <trkpt lat="44.20782" lon="4.49395">
        <ele>89</ele>
        <time>2021-07-04T13:08:13Z</time>
      </trkpt>
      <trkpt lat="44.20787" lon="4.49408">
        <ele>89</ele>
        <time>2021-07-04T13:08:16Z</time>
      </trkpt>
      <trkpt lat="44.20793" lon="4.49451">
        <ele>87</ele>
        <time>2021-07-04T13:08:23Z</time>
      </trkpt>
      <trkpt lat="44.20794" lon="4.49453">
        <ele>87</ele>
        <time>2021-07-04T13:08:23Z</time>
      </trkpt>
      <trkpt lat="44.20803" lon="4.49509">
        <ele>85</ele>
        <time>2021-07-04T13:08:33Z</time>
      </trkpt>
      <trkpt lat="44.20811" lon="4.49541">
        <ele>84</ele>
        <time>2021-07-04T13:08:39Z</time>
      </trkpt>
      <trkpt lat="44.20824" lon="4.49582">
        <ele>83</ele>
        <time>2021-07-04T13:08:46Z</time>
      </trkpt>
      <trkpt lat="44.20838" lon="4.49637">
        <ele>82</ele>
        <time>2021-07-04T13:08:56Z</time>
      </trkpt>
      <trkpt lat="44.2084" lon="4.49647">
        <ele>82</ele>
        <time>2021-07-04T13:08:58Z</time>
      </trkpt>
      <trkpt lat="44.20842" lon="4.49687">
        <ele>81</ele>
        <time>2021-07-04T13:09:04Z</time>
      </trkpt>
      <trkpt lat="44.20842" lon="4.49689">
        <ele>81</ele>
        <time>2021-07-04T13:09:05Z</time>
      </trkpt>
      <trkpt lat="44.20846" lon="4.49731">
        <ele>79</ele>
        <time>2021-07-04T13:09:12Z</time>
      </trkpt>
      <trkpt lat="44.20852" lon="4.49779">
        <ele>77</ele>
        <time>2021-07-04T13:09:20Z</time>
      </trkpt>
      <trkpt lat="44.20855" lon="4.49795">
        <ele>77</ele>
        <time>2021-07-04T13:09:23Z</time>
      </trkpt>
      <trkpt lat="44.20861" lon="4.49806">
        <ele>77</ele>
        <time>2021-07-04T13:09:25Z</time>
      </trkpt>
      <trkpt lat="44.2088" lon="4.49858">
        <ele>76</ele>
        <time>2021-07-04T13:09:35Z</time>
      </trkpt>
      <trkpt lat="44.20895" lon="4.49896">
        <ele>76</ele>
        <time>2021-07-04T13:09:42Z</time>
      </trkpt>
      <trkpt lat="44.20911" lon="4.49934">
        <ele>75</ele>
        <time>2021-07-04T13:09:50Z</time>
      </trkpt>
      <trkpt lat="44.20906" lon="4.49938">
        <ele>75</ele>
        <time>2021-07-04T13:09:51Z</time>
      </trkpt>
      <trkpt lat="44.20901" lon="4.49937">
        <ele>75</ele>
        <time>2021-07-04T13:09:52Z</time>
      </trkpt>
      <trkpt lat="44.20896" lon="4.49937">
        <ele>75</ele>
        <time>2021-07-04T13:09:53Z</time>
      </trkpt>
      <trkpt lat="44.208" lon="4.49923">
        <ele>76</ele>
        <time>2021-07-04T13:10:16Z</time>
      </trkpt>
      <trkpt lat="44.20771" lon="4.49919">
        <ele>77</ele>
        <time>2021-07-04T13:10:23Z</time>
      </trkpt>
      <trkpt lat="44.20764" lon="4.49919">
        <ele>77</ele>
        <time>2021-07-04T13:10:24Z</time>
      </trkpt>
      <trkpt lat="44.20741" lon="4.49916">
        <ele>79</ele>
        <time>2021-07-04T13:10:30Z</time>
      </trkpt>
      <trkpt lat="44.20703" lon="4.49912">
        <ele>83</ele>
        <time>2021-07-04T13:10:38Z</time>
      </trkpt>
      <trkpt lat="44.20683" lon="4.49908">
        <ele>85</ele>
        <time>2021-07-04T13:10:43Z</time>
      </trkpt>
      <trkpt lat="44.20661" lon="4.499">
        <ele>88</ele>
        <time>2021-07-04T13:10:49Z</time>
      </trkpt>
      <trkpt lat="44.20642" lon="4.49894">
        <ele>89</ele>
        <time>2021-07-04T13:10:53Z</time>
      </trkpt>
      <trkpt lat="44.20624" lon="4.49891">
        <ele>91</ele>
        <time>2021-07-04T13:10:57Z</time>
      </trkpt>
      <trkpt lat="44.20615" lon="4.49889">
        <ele>92</ele>
        <time>2021-07-04T13:10:59Z</time>
      </trkpt>
      <trkpt lat="44.20601" lon="4.49889">
        <ele>93</ele>
        <time>2021-07-04T13:11:03Z</time>
      </trkpt>
      <trkpt lat="44.20593" lon="4.49889">
        <ele>93</ele>
        <time>2021-07-04T13:11:05Z</time>
      </trkpt>
      <trkpt lat="44.20592" lon="4.49918">
        <ele>94</ele>
        <time>2021-07-04T13:11:09Z</time>
      </trkpt>
      <trkpt lat="44.20588" lon="4.49938">
        <ele>94</ele>
        <time>2021-07-04T13:11:13Z</time>
      </trkpt>
      <trkpt lat="44.20586" lon="4.49963">
        <ele>93</ele>
        <time>2021-07-04T13:11:17Z</time>
      </trkpt>
      <trkpt lat="44.20585" lon="4.49977">
        <ele>93</ele>
        <time>2021-07-04T13:11:19Z</time>
      </trkpt>
      <trkpt lat="44.20579" lon="4.49994">
        <ele>93</ele>
        <time>2021-07-04T13:11:23Z</time>
      </trkpt>
      <trkpt lat="44.20571" lon="4.50019">
        <ele>92</ele>
        <time>2021-07-04T13:11:27Z</time>
      </trkpt>
      <trkpt lat="44.20552" lon="4.50094">
        <ele>92</ele>
        <time>2021-07-04T13:11:41Z</time>
      </trkpt>
      <trkpt lat="44.20535" lon="4.50167">
        <ele>90</ele>
        <time>2021-07-04T13:11:53Z</time>
      </trkpt>
      <trkpt lat="44.20532" lon="4.50178">
        <ele>90</ele>
        <time>2021-07-04T13:11:55Z</time>
      </trkpt>
      <trkpt lat="44.20531" lon="4.50197">
        <ele>90</ele>
        <time>2021-07-04T13:11:59Z</time>
      </trkpt>
      <trkpt lat="44.20531" lon="4.50226">
        <ele>89</ele>
        <time>2021-07-04T13:12:03Z</time>
      </trkpt>
      <trkpt lat="44.20532" lon="4.50237">
        <ele>89</ele>
        <time>2021-07-04T13:12:05Z</time>
      </trkpt>
      <trkpt lat="44.20529" lon="4.50284">
        <ele>88</ele>
        <time>2021-07-04T13:12:13Z</time>
      </trkpt>
      <trkpt lat="44.20531" lon="4.50309">
        <ele>88</ele>
        <time>2021-07-04T13:12:17Z</time>
      </trkpt>
      <trkpt lat="44.20529" lon="4.50327">
        <ele>88</ele>
        <time>2021-07-04T13:12:20Z</time>
      </trkpt>
      <trkpt lat="44.20522" lon="4.50358">
        <ele>88</ele>
        <time>2021-07-04T13:12:26Z</time>
      </trkpt>
      <trkpt lat="44.20518" lon="4.50403">
        <ele>87</ele>
        <time>2021-07-04T13:12:33Z</time>
      </trkpt>
      <trkpt lat="44.20514" lon="4.50437">
        <ele>86</ele>
        <time>2021-07-04T13:12:39Z</time>
      </trkpt>
      <trkpt lat="44.20505" lon="4.50473">
        <ele>85</ele>
        <time>2021-07-04T13:12:46Z</time>
      </trkpt>
      <trkpt lat="44.20494" lon="4.50531">
        <ele>83</ele>
        <time>2021-07-04T13:12:56Z</time>
      </trkpt>
      <trkpt lat="44.2049" lon="4.50554">
        <ele>82</ele>
        <time>2021-07-04T13:13:00Z</time>
      </trkpt>
      <trkpt lat="44.20487" lon="4.50579">
        <ele>81</ele>
        <time>2021-07-04T13:13:04Z</time>
      </trkpt>
      <trkpt lat="44.20486" lon="4.50616">
        <ele>79</ele>
        <time>2021-07-04T13:13:10Z</time>
      </trkpt>
      <trkpt lat="44.20483" lon="4.50644">
        <ele>77</ele>
        <time>2021-07-04T13:13:15Z</time>
      </trkpt>
      <trkpt lat="44.20481" lon="4.50657">
        <ele>77</ele>
        <time>2021-07-04T13:13:17Z</time>
      </trkpt>
      <trkpt lat="44.20475" lon="4.50671">
        <ele>77</ele>
        <time>2021-07-04T13:13:20Z</time>
      </trkpt>
      <trkpt lat="44.20471" lon="4.50672">
        <ele>78</ele>
        <time>2021-07-04T13:13:21Z</time>
      </trkpt>
      <trkpt lat="44.20466" lon="4.50674">
        <ele>79</ele>
        <time>2021-07-04T13:13:22Z</time>
      </trkpt>
      <trkpt lat="44.20465" lon="4.50676">
        <ele>79</ele>
        <time>2021-07-04T13:13:22Z</time>
      </trkpt>
      <trkpt lat="44.20454" lon="4.50693">
        <ele>80</ele>
        <time>2021-07-04T13:13:26Z</time>
      </trkpt>
      <trkpt lat="44.20439" lon="4.5071">
        <ele>81</ele>
        <time>2021-07-04T13:13:31Z</time>
      </trkpt>
      <trkpt lat="44.20427" lon="4.50723">
        <ele>82</ele>
        <time>2021-07-04T13:13:34Z</time>
      </trkpt>
      <trkpt lat="44.20412" lon="4.50743">
        <ele>82</ele>
        <time>2021-07-04T13:13:39Z</time>
      </trkpt>
      <trkpt lat="44.20396" lon="4.50765">
        <ele>81</ele>
        <time>2021-07-04T13:13:44Z</time>
      </trkpt>
      <trkpt lat="44.20376" lon="4.50781">
        <ele>81</ele>
        <time>2021-07-04T13:13:50Z</time>
      </trkpt>
      <trkpt lat="44.20356" lon="4.50797">
        <ele>81</ele>
        <time>2021-07-04T13:13:55Z</time>
      </trkpt>
      <trkpt lat="44.20341" lon="4.508">
        <ele>82</ele>
        <time>2021-07-04T13:13:59Z</time>
      </trkpt>
      <trkpt lat="44.20309" lon="4.50818">
        <ele>79</ele>
        <time>2021-07-04T13:14:07Z</time>
      </trkpt>
      <trkpt lat="44.20269" lon="4.50844">
        <ele>76</ele>
        <time>2021-07-04T13:14:17Z</time>
      </trkpt>
      <trkpt lat="44.20253" lon="4.50853">
        <ele>76</ele>
        <time>2021-07-04T13:14:21Z</time>
      </trkpt>
      <trkpt lat="44.20244" lon="4.50855">
        <ele>76</ele>
        <time>2021-07-04T13:14:23Z</time>
      </trkpt>
      <trkpt lat="44.20226" lon="4.50866">
        <ele>76</ele>
        <time>2021-07-04T13:14:28Z</time>
      </trkpt>
      <trkpt lat="44.20221" lon="4.50868">
        <ele>76</ele>
        <time>2021-07-04T13:14:29Z</time>
      </trkpt>
      <trkpt lat="44.20207" lon="4.50879">
        <ele>76</ele>
        <time>2021-07-04T13:14:33Z</time>
      </trkpt>
      <trkpt lat="44.20199" lon="4.5089">
        <ele>75</ele>
        <time>2021-07-04T13:14:35Z</time>
      </trkpt>
      <trkpt lat="44.20192" lon="4.5089">
        <ele>76</ele>
        <time>2021-07-04T13:14:37Z</time>
      </trkpt>
      <trkpt lat="44.20161" lon="4.50893">
        <ele>77</ele>
        <time>2021-07-04T13:14:44Z</time>
      </trkpt>
      <trkpt lat="44.20124" lon="4.50888">
        <ele>76</ele>
        <time>2021-07-04T13:14:53Z</time>
      </trkpt>
      <trkpt lat="44.20094" lon="4.50882">
        <ele>76</ele>
        <time>2021-07-04T13:15:00Z</time>
      </trkpt>
      <trkpt lat="44.20065" lon="4.50875">
        <ele>76</ele>
        <time>2021-07-04T13:15:07Z</time>
      </trkpt>
      <trkpt lat="44.20038" lon="4.50866">
        <ele>77</ele>
        <time>2021-07-04T13:15:13Z</time>
      </trkpt>
      <trkpt lat="44.20018" lon="4.50856">
        <ele>78</ele>
        <time>2021-07-04T13:15:18Z</time>
      </trkpt>
      <trkpt lat="44.20014" lon="4.50855">
        <ele>78</ele>
        <time>2021-07-04T13:15:19Z</time>
      </trkpt>
      <trkpt lat="44.19968" lon="4.50824">
        <ele>81</ele>
        <time>2021-07-04T13:15:31Z</time>
      </trkpt>
      <trkpt lat="44.19944" lon="4.50808">
        <ele>83</ele>
        <time>2021-07-04T13:15:37Z</time>
      </trkpt>
      <trkpt lat="44.19913" lon="4.50782">
        <ele>85</ele>
        <time>2021-07-04T13:15:46Z</time>
      </trkpt>
      <trkpt lat="44.19853" lon="4.50728">
        <ele>86</ele>
        <time>2021-07-04T13:16:02Z</time>
      </trkpt>
      <trkpt lat="44.1982" lon="4.50701">
        <ele>85</ele>
        <time>2021-07-04T13:16:11Z</time>
      </trkpt>
      <trkpt lat="44.19768" lon="4.5067">
        <ele>81</ele>
        <time>2021-07-04T13:16:25Z</time>
      </trkpt>
      <trkpt lat="44.19744" lon="4.5066">
        <ele>78</ele>
        <time>2021-07-04T13:16:30Z</time>
      </trkpt>
      <trkpt lat="44.19732" lon="4.5064">
        <ele>80</ele>
        <time>2021-07-04T13:16:35Z</time>
      </trkpt>
      <trkpt lat="44.19723" lon="4.5062">
        <ele>81</ele>
        <time>2021-07-04T13:16:39Z</time>
      </trkpt>
      <trkpt lat="44.19709" lon="4.50604">
        <ele>82</ele>
        <time>2021-07-04T13:16:43Z</time>
      </trkpt>
      <trkpt lat="44.19681" lon="4.50581">
        <ele>80</ele>
        <time>2021-07-04T13:16:51Z</time>
      </trkpt>
      <trkpt lat="44.19665" lon="4.50564">
        <ele>79</ele>
        <time>2021-07-04T13:16:55Z</time>
      </trkpt>
      <trkpt lat="44.19649" lon="4.50554">
        <ele>79</ele>
        <time>2021-07-04T13:16:59Z</time>
      </trkpt>
      <trkpt lat="44.19641" lon="4.50552">
        <ele>79</ele>
        <time>2021-07-04T13:17:01Z</time>
      </trkpt>
      <trkpt lat="44.19629" lon="4.50552">
        <ele>78</ele>
        <time>2021-07-04T13:17:04Z</time>
      </trkpt>
      <trkpt lat="44.19618" lon="4.50551">
        <ele>78</ele>
        <time>2021-07-04T13:17:07Z</time>
      </trkpt>
      <trkpt lat="44.19606" lon="4.50548">
        <ele>77</ele>
        <time>2021-07-04T13:17:10Z</time>
      </trkpt>
      <trkpt lat="44.19594" lon="4.5054">
        <ele>77</ele>
        <time>2021-07-04T13:17:13Z</time>
      </trkpt>
      <trkpt lat="44.19583" lon="4.50528">
        <ele>77</ele>
        <time>2021-07-04T13:17:16Z</time>
      </trkpt>
      <trkpt lat="44.19569" lon="4.50516">
        <ele>77</ele>
        <time>2021-07-04T13:17:20Z</time>
      </trkpt>
      <trkpt lat="44.19531" lon="4.50489">
        <ele>76</ele>
        <time>2021-07-04T13:17:30Z</time>
      </trkpt>
      <trkpt lat="44.19524" lon="4.50481">
        <ele>76</ele>
        <time>2021-07-04T13:17:32Z</time>
      </trkpt>
      <trkpt lat="44.19516" lon="4.50462">
        <ele>76</ele>
        <time>2021-07-04T13:17:36Z</time>
      </trkpt>
      <trkpt lat="44.19514" lon="4.50445">
        <ele>76</ele>
        <time>2021-07-04T13:17:38Z</time>
      </trkpt>
      <trkpt lat="44.19501" lon="4.50447">
        <ele>76</ele>
        <time>2021-07-04T13:17:41Z</time>
      </trkpt>
      <trkpt lat="44.19514" lon="4.50445">
        <ele>76</ele>
        <time>2021-07-04T13:17:44Z</time>
      </trkpt>
      <trkpt lat="44.19511" lon="4.50401">
        <ele>77</ele>
        <time>2021-07-04T13:17:52Z</time>
      </trkpt>
      <trkpt lat="44.19503" lon="4.50364">
        <ele>77</ele>
        <time>2021-07-04T13:17:58Z</time>
      </trkpt>
      <trkpt lat="44.19495" lon="4.50352">
        <ele>77</ele>
        <time>2021-07-04T13:18:01Z</time>
      </trkpt>
      <trkpt lat="44.19487" lon="4.50347">
        <ele>77</ele>
        <time>2021-07-04T13:18:03Z</time>
      </trkpt>
      <trkpt lat="44.19456" lon="4.5033">
        <ele>77</ele>
        <time>2021-07-04T13:18:11Z</time>
      </trkpt>
      <trkpt lat="44.19432" lon="4.5032">
        <ele>77</ele>
        <time>2021-07-04T13:18:17Z</time>
      </trkpt>
      <trkpt lat="44.19423" lon="4.50318">
        <ele>76</ele>
        <time>2021-07-04T13:18:19Z</time>
      </trkpt>
      <trkpt lat="44.19402" lon="4.50308">
        <ele>77</ele>
        <time>2021-07-04T13:18:24Z</time>
      </trkpt>
      <trkpt lat="44.19368" lon="4.50295">
        <ele>77</ele>
        <time>2021-07-04T13:18:32Z</time>
      </trkpt>
      <trkpt lat="44.19359" lon="4.50292">
        <ele>77</ele>
        <time>2021-07-04T13:18:34Z</time>
      </trkpt>
      <trkpt lat="44.19354" lon="4.50287">
        <ele>77</ele>
        <time>2021-07-04T13:18:36Z</time>
      </trkpt>
      <trkpt lat="44.19349" lon="4.50279">
        <ele>77</ele>
        <time>2021-07-04T13:18:38Z</time>
      </trkpt>
      <trkpt lat="44.1934" lon="4.50259">
        <ele>77</ele>
        <time>2021-07-04T13:18:42Z</time>
      </trkpt>
      <trkpt lat="44.19332" lon="4.50244">
        <ele>77</ele>
        <time>2021-07-04T13:18:45Z</time>
      </trkpt>
      <trkpt lat="44.19321" lon="4.50227">
        <ele>77</ele>
        <time>2021-07-04T13:18:49Z</time>
      </trkpt>
      <trkpt lat="44.19298" lon="4.50206">
        <ele>77</ele>
        <time>2021-07-04T13:18:55Z</time>
      </trkpt>
      <trkpt lat="44.19287" lon="4.50199">
        <ele>77</ele>
        <time>2021-07-04T13:18:58Z</time>
      </trkpt>
      <trkpt lat="44.19279" lon="4.50195">
        <ele>77</ele>
        <time>2021-07-04T13:19:00Z</time>
      </trkpt>
      <trkpt lat="44.19258" lon="4.50174">
        <ele>77</ele>
        <time>2021-07-04T13:19:06Z</time>
      </trkpt>
      <trkpt lat="44.19214" lon="4.50135">
        <ele>80</ele>
        <time>2021-07-04T13:19:18Z</time>
      </trkpt>
      <trkpt lat="44.19193" lon="4.50114">
        <ele>81</ele>
        <time>2021-07-04T13:19:24Z</time>
      </trkpt>
      <trkpt lat="44.19177" lon="4.50096">
        <ele>83</ele>
        <time>2021-07-04T13:19:29Z</time>
      </trkpt>
      <trkpt lat="44.19165" lon="4.50089">
        <ele>84</ele>
        <time>2021-07-04T13:19:32Z</time>
      </trkpt>
      <trkpt lat="44.19154" lon="4.50072">
        <ele>84</ele>
        <time>2021-07-04T13:19:36Z</time>
      </trkpt>
      <trkpt lat="44.19142" lon="4.50058">
        <ele>83</ele>
        <time>2021-07-04T13:19:39Z</time>
      </trkpt>
      <trkpt lat="44.19135" lon="4.50045">
        <ele>83</ele>
        <time>2021-07-04T13:19:42Z</time>
      </trkpt>
      <trkpt lat="44.19135" lon="4.50045">
        <ele>83</ele>
        <time>2021-07-04T13:19:42Z</time>
      </trkpt>
      <trkpt lat="44.19135" lon="4.50031">
        <ele>83</ele>
        <time>2021-07-04T13:19:44Z</time>
      </trkpt>
      <trkpt lat="44.19149" lon="4.5001">
        <ele>85</ele>
        <time>2021-07-04T13:19:49Z</time>
      </trkpt>
      <trkpt lat="44.19156" lon="4.49993">
        <ele>86</ele>
        <time>2021-07-04T13:19:53Z</time>
      </trkpt>
      <trkpt lat="44.19161" lon="4.49972">
        <ele>88</ele>
        <time>2021-07-04T13:19:56Z</time>
      </trkpt>
      <trkpt lat="44.19171" lon="4.49958">
        <ele>89</ele>
        <time>2021-07-04T13:20:00Z</time>
      </trkpt>
      <trkpt lat="44.1919" lon="4.49952">
        <ele>90</ele>
        <time>2021-07-04T13:20:04Z</time>
      </trkpt>
      <trkpt lat="44.19216" lon="4.49948">
        <ele>92</ele>
        <time>2021-07-04T13:20:10Z</time>
      </trkpt>
      <trkpt lat="44.19221" lon="4.49938">
        <ele>93</ele>
        <time>2021-07-04T13:20:12Z</time>
      </trkpt>
      <trkpt lat="44.19223" lon="4.49899">
        <ele>97</ele>
        <time>2021-07-04T13:20:19Z</time>
      </trkpt>
      <trkpt lat="44.19222" lon="4.49871">
        <ele>99</ele>
        <time>2021-07-04T13:20:24Z</time>
      </trkpt>
      <trkpt lat="44.1925" lon="4.49823">
        <ele>104</ele>
        <time>2021-07-04T13:20:34Z</time>
      </trkpt>
      <trkpt lat="44.19258" lon="4.49806">
        <ele>103</ele>
        <time>2021-07-04T13:20:37Z</time>
      </trkpt>
      <trkpt lat="44.19277" lon="4.49775">
        <ele>103</ele>
        <time>2021-07-04T13:20:44Z</time>
      </trkpt>
      <trkpt lat="44.19311" lon="4.49772">
        <ele>102</ele>
        <time>2021-07-04T13:20:52Z</time>
      </trkpt>
      <trkpt lat="44.19326" lon="4.49765">
        <ele>102</ele>
        <time>2021-07-04T13:20:56Z</time>
      </trkpt>
      <trkpt lat="44.19335" lon="4.49752">
        <ele>102</ele>
        <time>2021-07-04T13:20:59Z</time>
      </trkpt>
      <trkpt lat="44.19339" lon="4.49739">
        <ele>102</ele>
        <time>2021-07-04T13:21:01Z</time>
      </trkpt>
      <trkpt lat="44.19341" lon="4.49716">
        <ele>102</ele>
        <time>2021-07-04T13:21:05Z</time>
      </trkpt>
      <trkpt lat="44.19348" lon="4.49711">
        <ele>102</ele>
        <time>2021-07-04T13:21:07Z</time>
      </trkpt>
      <trkpt lat="44.19356" lon="4.49712">
        <ele>102</ele>
        <time>2021-07-04T13:21:09Z</time>
      </trkpt>
      <trkpt lat="44.19375" lon="4.49718">
        <ele>102</ele>
        <time>2021-07-04T13:21:13Z</time>
      </trkpt>
      <trkpt lat="44.19393" lon="4.49725">
        <ele>103</ele>
        <time>2021-07-04T13:21:18Z</time>
      </trkpt>
      <trkpt lat="44.19425" lon="4.49718">
        <ele>103</ele>
        <time>2021-07-04T13:21:25Z</time>
      </trkpt>
      <trkpt lat="44.19443" lon="4.49715">
        <ele>104</ele>
        <time>2021-07-04T13:21:29Z</time>
      </trkpt>
      <trkpt lat="44.1948" lon="4.49706">
        <ele>104</ele>
        <time>2021-07-04T13:21:38Z</time>
      </trkpt>
      <trkpt lat="44.19505" lon="4.49685">
        <ele>104</ele>
        <time>2021-07-04T13:21:45Z</time>
      </trkpt>
      <trkpt lat="44.19523" lon="4.49658">
        <ele>106</ele>
        <time>2021-07-04T13:21:51Z</time>
      </trkpt>
      <trkpt lat="44.1954" lon="4.4962">
        <ele>107</ele>
        <time>2021-07-04T13:21:59Z</time>
      </trkpt>
      <trkpt lat="44.19552" lon="4.49592">
        <ele>108</ele>
        <time>2021-07-04T13:22:04Z</time>
      </trkpt>
      <trkpt lat="44.19559" lon="4.49581">
        <ele>109</ele>
        <time>2021-07-04T13:22:07Z</time>
      </trkpt>
      <trkpt lat="44.19566" lon="4.49574">
        <ele>111</ele>
        <time>2021-07-04T13:22:09Z</time>
      </trkpt>
      <trkpt lat="44.19582" lon="4.49569">
        <ele>114</ele>
        <time>2021-07-04T13:22:12Z</time>
      </trkpt>
      <trkpt lat="44.19601" lon="4.49557">
        <ele>119</ele>
        <time>2021-07-04T13:22:17Z</time>
      </trkpt>
      <trkpt lat="44.19625" lon="4.49541">
        <ele>124</ele>
        <time>2021-07-04T13:22:24Z</time>
      </trkpt>
      <trkpt lat="44.19639" lon="4.4954">
        <ele>127</ele>
        <time>2021-07-04T13:22:27Z</time>
      </trkpt>
      <trkpt lat="44.19654" lon="4.49544">
        <ele>131</ele>
        <time>2021-07-04T13:22:30Z</time>
      </trkpt>
      <trkpt lat="44.19662" lon="4.49542">
        <ele>132</ele>
        <time>2021-07-04T13:22:32Z</time>
      </trkpt>
      <trkpt lat="44.19667" lon="4.49537">
        <ele>133</ele>
        <time>2021-07-04T13:22:34Z</time>
      </trkpt>
      <trkpt lat="44.19669" lon="4.49528">
        <ele>133</ele>
        <time>2021-07-04T13:22:35Z</time>
      </trkpt>
      <trkpt lat="44.1967" lon="4.49501">
        <ele>131</ele>
        <time>2021-07-04T13:22:40Z</time>
      </trkpt>
      <trkpt lat="44.19673" lon="4.49472">
        <ele>127</ele>
        <time>2021-07-04T13:22:45Z</time>
      </trkpt>
      <trkpt lat="44.19672" lon="4.4946">
        <ele>125</ele>
        <time>2021-07-04T13:22:47Z</time>
      </trkpt>
      <trkpt lat="44.19673" lon="4.4945">
        <ele>123</ele>
        <time>2021-07-04T13:22:48Z</time>
      </trkpt>
      <trkpt lat="44.19674" lon="4.49438">
        <ele>121</ele>
        <time>2021-07-04T13:22:50Z</time>
      </trkpt>
      <trkpt lat="44.19675" lon="4.49436">
        <ele>121</ele>
        <time>2021-07-04T13:22:51Z</time>
      </trkpt>
      <trkpt lat="44.1968" lon="4.49428">
        <ele>119</ele>
        <time>2021-07-04T13:22:53Z</time>
      </trkpt>
      <trkpt lat="44.19686" lon="4.49427">
        <ele>119</ele>
        <time>2021-07-04T13:22:54Z</time>
      </trkpt>
      <trkpt lat="44.197" lon="4.49429">
        <ele>119</ele>
        <time>2021-07-04T13:22:57Z</time>
      </trkpt>
      <trkpt lat="44.19726" lon="4.49441">
        <ele>121</ele>
        <time>2021-07-04T13:23:04Z</time>
      </trkpt>
      <trkpt lat="44.19752" lon="4.49452">
        <ele>124</ele>
        <time>2021-07-04T13:23:10Z</time>
      </trkpt>
      <trkpt lat="44.1978" lon="4.49455">
        <ele>128</ele>
        <time>2021-07-04T13:23:17Z</time>
      </trkpt>
      <trkpt lat="44.19809" lon="4.49448">
        <ele>129</ele>
        <time>2021-07-04T13:23:24Z</time>
      </trkpt>
      <trkpt lat="44.19832" lon="4.49436">
        <ele>128</ele>
        <time>2021-07-04T13:23:29Z</time>
      </trkpt>
      <trkpt lat="44.19857" lon="4.49408">
        <ele>128</ele>
        <time>2021-07-04T13:23:37Z</time>
      </trkpt>
      <trkpt lat="44.19889" lon="4.49384">
        <ele>130</ele>
        <time>2021-07-04T13:23:45Z</time>
      </trkpt>
      <trkpt lat="44.19902" lon="4.49361">
        <ele>127</ele>
        <time>2021-07-04T13:23:50Z</time>
      </trkpt>
      <trkpt lat="44.19923" lon="4.49342">
        <ele>128</ele>
        <time>2021-07-04T13:23:56Z</time>
      </trkpt>
      <trkpt lat="44.19935" lon="4.49336">
        <ele>129</ele>
        <time>2021-07-04T13:23:59Z</time>
      </trkpt>
      <trkpt lat="44.19942" lon="4.49334">
        <ele>130</ele>
        <time>2021-07-04T13:24:01Z</time>
      </trkpt>
      <trkpt lat="44.19964" lon="4.4933">
        <ele>135</ele>
        <time>2021-07-04T13:24:06Z</time>
      </trkpt>
      <trkpt lat="44.19993" lon="4.49295">
        <ele>132</ele>
        <time>2021-07-04T13:24:15Z</time>
      </trkpt>
      <trkpt lat="44.20021" lon="4.49261">
        <ele>127</ele>
        <time>2021-07-04T13:24:23Z</time>
      </trkpt>
      <trkpt lat="44.20034" lon="4.49253">
        <ele>127</ele>
        <time>2021-07-04T13:24:27Z</time>
      </trkpt>
      <trkpt lat="44.20055" lon="4.49242">
        <ele>127</ele>
        <time>2021-07-04T13:24:32Z</time>
      </trkpt>
      <trkpt lat="44.20078" lon="4.49215">
        <ele>125</ele>
        <time>2021-07-04T13:24:39Z</time>
      </trkpt>
      <trkpt lat="44.20087" lon="4.49208">
        <ele>124</ele>
        <time>2021-07-04T13:24:41Z</time>
      </trkpt>
      <trkpt lat="44.201" lon="4.49204">
        <ele>124</ele>
        <time>2021-07-04T13:24:45Z</time>
      </trkpt>
      <trkpt lat="44.20122" lon="4.49206">
        <ele>124</ele>
        <time>2021-07-04T13:24:50Z</time>
      </trkpt>
      <trkpt lat="44.20159" lon="4.49212">
        <ele>126</ele>
        <time>2021-07-04T13:24:58Z</time>
      </trkpt>
      <trkpt lat="44.20194" lon="4.49222">
        <ele>128</ele>
        <time>2021-07-04T13:25:07Z</time>
      </trkpt>
      <trkpt lat="44.2021" lon="4.49225">
        <ele>128</ele>
        <time>2021-07-04T13:25:11Z</time>
      </trkpt>
      <trkpt lat="44.20228" lon="4.49218">
        <ele>127</ele>
        <time>2021-07-04T13:25:15Z</time>
      </trkpt>
      <trkpt lat="44.20248" lon="4.49203">
        <ele>125</ele>
        <time>2021-07-04T13:25:20Z</time>
      </trkpt>
      <trkpt lat="44.20271" lon="4.49196">
        <ele>123</ele>
        <time>2021-07-04T13:25:26Z</time>
      </trkpt>
      <trkpt lat="44.20301" lon="4.49202">
        <ele>123</ele>
        <time>2021-07-04T13:25:33Z</time>
      </trkpt>
      <trkpt lat="44.20322" lon="4.49204">
        <ele>123</ele>
        <time>2021-07-04T13:25:38Z</time>
      </trkpt>
      <trkpt lat="44.20332" lon="4.49205">
        <ele>122</ele>
        <time>2021-07-04T13:25:40Z</time>
      </trkpt>
      <trkpt lat="44.2035" lon="4.49213">
        <ele>121</ele>
        <time>2021-07-04T13:25:44Z</time>
      </trkpt>
      <trkpt lat="44.20364" lon="4.49221">
        <ele>121</ele>
        <time>2021-07-04T13:25:48Z</time>
      </trkpt>
      <trkpt lat="44.20378" lon="4.49212">
        <ele>119</ele>
        <time>2021-07-04T13:25:52Z</time>
      </trkpt>
      <trkpt lat="44.20386" lon="4.49208">
        <ele>118</ele>
        <time>2021-07-04T13:25:54Z</time>
      </trkpt>
      <trkpt lat="44.20398" lon="4.49207">
        <ele>117</ele>
        <time>2021-07-04T13:25:56Z</time>
      </trkpt>
      <trkpt lat="44.20411" lon="4.49206">
        <ele>116</ele>
        <time>2021-07-04T13:25:59Z</time>
      </trkpt>
      <trkpt lat="44.20424" lon="4.49209">
        <ele>115</ele>
        <time>2021-07-04T13:26:02Z</time>
      </trkpt>
      <trkpt lat="44.20434" lon="4.49211">
        <ele>114</ele>
        <time>2021-07-04T13:26:05Z</time>
      </trkpt>
      <trkpt lat="44.20432" lon="4.49203">
        <ele>114</ele>
        <time>2021-07-04T13:26:06Z</time>
      </trkpt>
      <trkpt lat="44.20431" lon="4.49188">
        <ele>114</ele>
        <time>2021-07-04T13:26:09Z</time>
      </trkpt>
      <trkpt lat="44.2043" lon="4.49142">
        <ele>111</ele>
        <time>2021-07-04T13:26:16Z</time>
      </trkpt>
      <trkpt lat="44.20428" lon="4.4913">
        <ele>111</ele>
        <time>2021-07-04T13:26:19Z</time>
      </trkpt>
      <trkpt lat="44.20421" lon="4.49108">
        <ele>109</ele>
        <time>2021-07-04T13:26:23Z</time>
      </trkpt>
      <trkpt lat="44.20416" lon="4.49095">
        <ele>109</ele>
        <time>2021-07-04T13:26:25Z</time>
      </trkpt>
      <trkpt lat="44.20408" lon="4.49081">
        <ele>108</ele>
        <time>2021-07-04T13:26:28Z</time>
      </trkpt>
      <trkpt lat="44.20404" lon="4.49073">
        <ele>108</ele>
        <time>2021-07-04T13:26:30Z</time>
      </trkpt>
      <trkpt lat="44.20398" lon="4.49054">
        <ele>107</ele>
        <time>2021-07-04T13:26:33Z</time>
      </trkpt>
      <trkpt lat="44.20399" lon="4.49048">
        <ele>107</ele>
        <time>2021-07-04T13:26:34Z</time>
      </trkpt>
      <trkpt lat="44.20391" lon="4.49038">
        <ele>107</ele>
        <time>2021-07-04T13:26:37Z</time>
      </trkpt>
      <trkpt lat="44.2035" lon="4.48999">
        <ele>105</ele>
        <time>2021-07-04T13:26:48Z</time>
      </trkpt>
      <trkpt lat="44.20339" lon="4.4899">
        <ele>105</ele>
        <time>2021-07-04T13:26:51Z</time>
      </trkpt>
      <trkpt lat="44.20283" lon="4.48975">
        <ele>104</ele>
        <time>2021-07-04T13:27:05Z</time>
      </trkpt>
      <trkpt lat="44.20281" lon="4.48975">
        <ele>104</ele>
        <time>2021-07-04T13:27:05Z</time>
      </trkpt>
      <trkpt lat="44.20273" lon="4.48971">
        <ele>103</ele>
        <time>2021-07-04T13:27:07Z</time>
      </trkpt>
      <trkpt lat="44.20265" lon="4.48966">
        <ele>103</ele>
        <time>2021-07-04T13:27:09Z</time>
      </trkpt>
      <trkpt lat="44.20257" lon="4.48958">
        <ele>103</ele>
        <time>2021-07-04T13:27:11Z</time>
      </trkpt>
      <trkpt lat="44.20249" lon="4.48949">
        <ele>102</ele>
        <time>2021-07-04T13:27:14Z</time>
      </trkpt>
      <trkpt lat="44.20242" lon="4.48939">
        <ele>101</ele>
        <time>2021-07-04T13:27:16Z</time>
      </trkpt>
      <trkpt lat="44.20237" lon="4.48928">
        <ele>100</ele>
        <time>2021-07-04T13:27:18Z</time>
      </trkpt>
      <trkpt lat="44.2023" lon="4.48906">
        <ele>98</ele>
        <time>2021-07-04T13:27:22Z</time>
      </trkpt>
      <trkpt lat="44.20221" lon="4.48863">
        <ele>96</ele>
        <time>2021-07-04T13:27:30Z</time>
      </trkpt>
      <trkpt lat="44.20214" lon="4.48846">
        <ele>95</ele>
        <time>2021-07-04T13:27:33Z</time>
      </trkpt>
      <trkpt lat="44.20194" lon="4.48834">
        <ele>94</ele>
        <time>2021-07-04T13:27:38Z</time>
      </trkpt>
      <trkpt lat="44.20188" lon="4.48829">
        <ele>94</ele>
        <time>2021-07-04T13:27:40Z</time>
      </trkpt>
      <trkpt lat="44.20164" lon="4.48813">
        <ele>93</ele>
        <time>2021-07-04T13:27:46Z</time>
      </trkpt>
      <trkpt lat="44.20157" lon="4.4881">
        <ele>93</ele>
        <time>2021-07-04T13:27:48Z</time>
      </trkpt>
      <trkpt lat="44.20145" lon="4.488">
        <ele>92</ele>
        <time>2021-07-04T13:27:51Z</time>
      </trkpt>
      <trkpt lat="44.20137" lon="4.48789">
        <ele>92</ele>
        <time>2021-07-04T13:27:54Z</time>
      </trkpt>
      <trkpt lat="44.20134" lon="4.48777">
        <ele>92</ele>
        <time>2021-07-04T13:27:56Z</time>
      </trkpt>
      <trkpt lat="44.2013" lon="4.48765">
        <ele>92</ele>
        <time>2021-07-04T13:27:58Z</time>
      </trkpt>
      <trkpt lat="44.20138" lon="4.48702">
        <ele>95</ele>
        <time>2021-07-04T13:28:09Z</time>
      </trkpt>
      <trkpt lat="44.20139" lon="4.48684">
        <ele>96</ele>
        <time>2021-07-04T13:28:12Z</time>
      </trkpt>
      <trkpt lat="44.20137" lon="4.48663">
        <ele>96</ele>
        <time>2021-07-04T13:28:15Z</time>
      </trkpt>
      <trkpt lat="44.20132" lon="4.48641">
        <ele>97</ele>
        <time>2021-07-04T13:28:19Z</time>
      </trkpt>
      <trkpt lat="44.20122" lon="4.48613">
        <ele>98</ele>
        <time>2021-07-04T13:28:24Z</time>
      </trkpt>
      <trkpt lat="44.20121" lon="4.48603">
        <ele>99</ele>
        <time>2021-07-04T13:28:26Z</time>
      </trkpt>
      <trkpt lat="44.20119" lon="4.4859">
        <ele>99</ele>
        <time>2021-07-04T13:28:28Z</time>
      </trkpt>
      <trkpt lat="44.2012" lon="4.48579">
        <ele>100</ele>
        <time>2021-07-04T13:28:30Z</time>
      </trkpt>
      <trkpt lat="44.20122" lon="4.48572">
        <ele>100</ele>
        <time>2021-07-04T13:28:31Z</time>
      </trkpt>
      <trkpt lat="44.20122" lon="4.48564">
        <ele>101</ele>
        <time>2021-07-04T13:28:33Z</time>
      </trkpt>
      <trkpt lat="44.2011" lon="4.48539">
        <ele>101</ele>
        <time>2021-07-04T13:28:38Z</time>
      </trkpt>
      <trkpt lat="44.20105" lon="4.48509">
        <ele>102</ele>
        <time>2021-07-04T13:28:43Z</time>
      </trkpt>
      <trkpt lat="44.20085" lon="4.48476">
        <ele>103</ele>
        <time>2021-07-04T13:28:50Z</time>
      </trkpt>
      <trkpt lat="44.20044" lon="4.48413">
        <ele>105</ele>
        <time>2021-07-04T13:29:04Z</time>
      </trkpt>
      <trkpt lat="44.2003" lon="4.48387">
        <ele>106</ele>
        <time>2021-07-04T13:29:10Z</time>
      </trkpt>
      <trkpt lat="44.2002" lon="4.48375">
        <ele>107</ele>
        <time>2021-07-04T13:29:13Z</time>
      </trkpt>
      <trkpt lat="44.2001" lon="4.48364">
        <ele>107</ele>
        <time>2021-07-04T13:29:16Z</time>
      </trkpt>
      <trkpt lat="44.19995" lon="4.48322">
        <ele>110</ele>
        <time>2021-07-04T13:29:24Z</time>
      </trkpt>
      <trkpt lat="44.19979" lon="4.48281">
        <ele>109</ele>
        <time>2021-07-04T13:29:32Z</time>
      </trkpt>
      <trkpt lat="44.19973" lon="4.48227">
        <ele>108</ele>
        <time>2021-07-04T13:29:41Z</time>
      </trkpt>
      <trkpt lat="44.19973" lon="4.48212">
        <ele>107</ele>
        <time>2021-07-04T13:29:43Z</time>
      </trkpt>
      <trkpt lat="44.19961" lon="4.48202">
        <ele>105</ele>
        <time>2021-07-04T13:29:46Z</time>
      </trkpt>
      <trkpt lat="44.19965" lon="4.48183">
        <ele>105</ele>
        <time>2021-07-04T13:29:50Z</time>
      </trkpt>
      <trkpt lat="44.19977" lon="4.48167">
        <ele>106</ele>
        <time>2021-07-04T13:29:54Z</time>
      </trkpt>
      <trkpt lat="44.1999" lon="4.48142">
        <ele>106</ele>
        <time>2021-07-04T13:29:59Z</time>
      </trkpt>
      <trkpt lat="44.19992" lon="4.48101">
        <ele>103</ele>
        <time>2021-07-04T13:30:06Z</time>
      </trkpt>
      <trkpt lat="44.20025" lon="4.48036">
        <ele>102</ele>
        <time>2021-07-04T13:30:19Z</time>
      </trkpt>
      <trkpt lat="44.20049" lon="4.48024">
        <ele>102</ele>
        <time>2021-07-04T13:30:25Z</time>
      </trkpt>
      <trkpt lat="44.2007" lon="4.47957">
        <ele>101</ele>
        <time>2021-07-04T13:30:37Z</time>
      </trkpt>
      <trkpt lat="44.20069" lon="4.47906">
        <ele>100</ele>
        <time>2021-07-04T13:30:46Z</time>
      </trkpt>
      <trkpt lat="44.20107" lon="4.47894">
        <ele>100</ele>
        <time>2021-07-04T13:30:55Z</time>
      </trkpt>
      <trkpt lat="44.20143" lon="4.47895">
        <ele>99</ele>
        <time>2021-07-04T13:31:03Z</time>
      </trkpt>
      <trkpt lat="44.2018" lon="4.47895">
        <ele>99</ele>
        <time>2021-07-04T13:31:12Z</time>
      </trkpt>
      <trkpt lat="44.20216" lon="4.47896">
        <ele>99</ele>
        <time>2021-07-04T13:31:20Z</time>
      </trkpt>
      <trkpt lat="44.20232" lon="4.47895">
        <ele>99</ele>
        <time>2021-07-04T13:31:24Z</time>
      </trkpt>
      <trkpt lat="44.20262" lon="4.47912">
        <ele>100</ele>
        <time>2021-07-04T13:31:32Z</time>
      </trkpt>
      <trkpt lat="44.20292" lon="4.47907">
        <ele>99</ele>
        <time>2021-07-04T13:31:39Z</time>
      </trkpt>
      <trkpt lat="44.20316" lon="4.47902">
        <ele>99</ele>
        <time>2021-07-04T13:31:44Z</time>
      </trkpt>
      <trkpt lat="44.20374" lon="4.4788">
        <ele>99</ele>
        <time>2021-07-04T13:31:58Z</time>
      </trkpt>
      <trkpt lat="44.20385" lon="4.47848">
        <ele>99</ele>
        <time>2021-07-04T13:32:04Z</time>
      </trkpt>
      <trkpt lat="44.2042" lon="4.47847">
        <ele>99</ele>
        <time>2021-07-04T13:32:13Z</time>
      </trkpt>
      <trkpt lat="44.20448" lon="4.47851">
        <ele>100</ele>
        <time>2021-07-04T13:32:19Z</time>
      </trkpt>
      <trkpt lat="44.20476" lon="4.47852">
        <ele>100</ele>
        <time>2021-07-04T13:32:26Z</time>
      </trkpt>
      <trkpt lat="44.20477" lon="4.47855">
        <ele>101</ele>
        <time>2021-07-04T13:32:26Z</time>
      </trkpt>
      <trkpt lat="44.20515" lon="4.47856">
        <ele>101</ele>
        <time>2021-07-04T13:32:35Z</time>
      </trkpt>
      <trkpt lat="44.20553" lon="4.47856">
        <ele>100</ele>
        <time>2021-07-04T13:32:44Z</time>
      </trkpt>
      <trkpt lat="44.20579" lon="4.47859">
        <ele>99</ele>
        <time>2021-07-04T13:32:50Z</time>
      </trkpt>
      <trkpt lat="44.20608" lon="4.47866">
        <ele>100</ele>
        <time>2021-07-04T13:32:57Z</time>
      </trkpt>
      <trkpt lat="44.20639" lon="4.47874">
        <ele>100</ele>
        <time>2021-07-04T13:33:04Z</time>
      </trkpt>
      <trkpt lat="44.20664" lon="4.47884">
        <ele>100</ele>
        <time>2021-07-04T13:33:10Z</time>
      </trkpt>
      <trkpt lat="44.20682" lon="4.47895">
        <ele>99</ele>
        <time>2021-07-04T13:33:15Z</time>
      </trkpt>
      <trkpt lat="44.20702" lon="4.47906">
        <ele>99</ele>
        <time>2021-07-04T13:33:20Z</time>
      </trkpt>
      <trkpt lat="44.20731" lon="4.47919">
        <ele>98</ele>
        <time>2021-07-04T13:33:27Z</time>
      </trkpt>
      <trkpt lat="44.20749" lon="4.47925">
        <ele>97</ele>
        <time>2021-07-04T13:33:31Z</time>
      </trkpt>
      <trkpt lat="44.20764" lon="4.47933">
        <ele>96</ele>
        <time>2021-07-04T13:33:35Z</time>
      </trkpt>
      <trkpt lat="44.20767" lon="4.47934">
        <ele>96</ele>
        <time>2021-07-04T13:33:36Z</time>
      </trkpt>
      <trkpt lat="44.20774" lon="4.47942">
        <ele>95</ele>
        <time>2021-07-04T13:33:38Z</time>
      </trkpt>
      <trkpt lat="44.20792" lon="4.47953">
        <ele>94</ele>
        <time>2021-07-04T13:33:43Z</time>
      </trkpt>
      <trkpt lat="44.20807" lon="4.4796">
        <ele>93</ele>
        <time>2021-07-04T13:33:46Z</time>
      </trkpt>
      <trkpt lat="44.20825" lon="4.47967">
        <ele>92</ele>
        <time>2021-07-04T13:33:51Z</time>
      </trkpt>
      <trkpt lat="44.20842" lon="4.47977">
        <ele>91</ele>
        <time>2021-07-04T13:33:55Z</time>
      </trkpt>
      <trkpt lat="44.20859" lon="4.47985">
        <ele>90</ele>
        <time>2021-07-04T13:33:59Z</time>
      </trkpt>
      <trkpt lat="44.20882" lon="4.47992">
        <ele>89</ele>
        <time>2021-07-04T13:34:05Z</time>
      </trkpt>
      <trkpt lat="44.20905" lon="4.48001">
        <ele>88</ele>
        <time>2021-07-04T13:34:10Z</time>
      </trkpt>
      <trkpt lat="44.20907" lon="4.48001">
        <ele>88</ele>
        <time>2021-07-04T13:34:11Z</time>
      </trkpt>
      <trkpt lat="44.20933" lon="4.48017">
        <ele>88</ele>
        <time>2021-07-04T13:34:17Z</time>
      </trkpt>
      <trkpt lat="44.2101" lon="4.48048">
        <ele>86</ele>
        <time>2021-07-04T13:34:36Z</time>
      </trkpt>
      <trkpt lat="44.2105" lon="4.48063">
        <ele>85</ele>
        <time>2021-07-04T13:34:46Z</time>
      </trkpt>
      <trkpt lat="44.21085" lon="4.48081">
        <ele>84</ele>
        <time>2021-07-04T13:34:54Z</time>
      </trkpt>
      <trkpt lat="44.21115" lon="4.48096">
        <ele>85</ele>
        <time>2021-07-04T13:35:02Z</time>
      </trkpt>
      <trkpt lat="44.21128" lon="4.48104">
        <ele>85</ele>
        <time>2021-07-04T13:35:05Z</time>
      </trkpt>
      <trkpt lat="44.21153" lon="4.48122">
        <ele>84</ele>
        <time>2021-07-04T13:35:12Z</time>
      </trkpt>
      <trkpt lat="44.21169" lon="4.48132">
        <ele>84</ele>
        <time>2021-07-04T13:35:16Z</time>
      </trkpt>
      <trkpt lat="44.21187" lon="4.48141">
        <ele>83</ele>
        <time>2021-07-04T13:35:20Z</time>
      </trkpt>
      <trkpt lat="44.21211" lon="4.48149">
        <ele>82</ele>
        <time>2021-07-04T13:35:26Z</time>
      </trkpt>
      <trkpt lat="44.21245" lon="4.48158">
        <ele>80</ele>
        <time>2021-07-04T13:35:34Z</time>
      </trkpt>
      <trkpt lat="44.21254" lon="4.48161">
        <ele>79</ele>
        <time>2021-07-04T13:35:36Z</time>
      </trkpt>
      <trkpt lat="44.21443" lon="4.48231">
        <ele>76</ele>
        <time>2021-07-04T13:36:22Z</time>
      </trkpt>
      <trkpt lat="44.21479" lon="4.4825">
        <ele>77</ele>
        <time>2021-07-04T13:36:31Z</time>
      </trkpt>
      <trkpt lat="44.21549" lon="4.48296">
        <ele>76</ele>
        <time>2021-07-04T13:36:49Z</time>
      </trkpt>
      <trkpt lat="44.21586" lon="4.48329">
        <ele>76</ele>
        <time>2021-07-04T13:36:59Z</time>
      </trkpt>
      <trkpt lat="44.21766" lon="4.48511">
        <ele>87</ele>
        <time>2021-07-04T13:37:51Z</time>
      </trkpt>
      <trkpt lat="44.21801" lon="4.48546">
        <ele>87</ele>
        <time>2021-07-04T13:38:01Z</time>
      </trkpt>
      <trkpt lat="44.21828" lon="4.48524">
        <ele>85</ele>
        <time>2021-07-04T13:38:09Z</time>
      </trkpt>
      <trkpt lat="44.21832" lon="4.4852">
        <ele>84</ele>
        <time>2021-07-04T13:38:10Z</time>
      </trkpt>
      <trkpt lat="44.21843" lon="4.48539">
        <ele>86</ele>
        <time>2021-07-04T13:38:14Z</time>
      </trkpt>
      <trkpt lat="44.21836" lon="4.48546">
        <ele>86</ele>
        <time>2021-07-04T13:38:16Z</time>
      </trkpt>
      <trkpt lat="44.21843" lon="4.48539">
        <ele>86</ele>
        <time>2021-07-04T13:38:18Z</time>
      </trkpt>
      <trkpt lat="44.21846" lon="4.48547">
        <ele>86</ele>
        <time>2021-07-04T13:38:19Z</time>
      </trkpt>
      <trkpt lat="44.21853" lon="4.48557">
        <ele>86</ele>
        <time>2021-07-04T13:38:22Z</time>
      </trkpt>
      <trkpt lat="44.21823" lon="4.48587">
        <ele>89</ele>
        <time>2021-07-04T13:38:30Z</time>
      </trkpt>
      <trkpt lat="44.21812" lon="4.48597">
        <ele>90</ele>
        <time>2021-07-04T13:38:33Z</time>
      </trkpt>
      <trkpt lat="44.21807" lon="4.48593">
        <ele>90</ele>
        <time>2021-07-04T13:38:35Z</time>
      </trkpt>
      <trkpt lat="44.21805" lon="4.48588">
        <ele>89</ele>
        <time>2021-07-04T13:38:36Z</time>
      </trkpt>
      <trkpt lat="44.21812" lon="4.48582">
        <ele>89</ele>
        <time>2021-07-04T13:38:38Z</time>
      </trkpt>
    </trkseg>
  </trk>
  <trk>
    <name><![CDATA[Rouge Cornillon St Gely]]></name>
    <extensions>
      <line xmlns="http://www.topografix.com/GPX/gpx_style/0/2">
        <color>ff0000</color>
        <width>4</width>
      </line>
    </extensions>
    <trkseg>
      <trkpt lat="44.21827" lon="4.48567">
        <ele>88</ele>
        <time>2021-07-04T13:01:03Z</time>
      </trkpt>
      <trkpt lat="44.21827" lon="4.48567">
        <ele>88</ele>
        <time>2021-07-04T13:01:03Z</time>
      </trkpt>
      <trkpt lat="44.21832" lon="4.48575">
        <ele>88</ele>
        <time>2021-07-04T13:01:05Z</time>
      </trkpt>
      <trkpt lat="44.21851" lon="4.48557">
        <ele>86</ele>
        <time>2021-07-04T13:01:10Z</time>
      </trkpt>
      <trkpt lat="44.21845" lon="4.48548">
        <ele>86</ele>
        <time>2021-07-04T13:01:12Z</time>
      </trkpt>
      <trkpt lat="44.21844" lon="4.48547">
        <ele>86</ele>
        <time>2021-07-04T13:01:12Z</time>
      </trkpt>
      <trkpt lat="44.21838" lon="4.48535">
        <ele>85</ele>
        <time>2021-07-04T13:01:15Z</time>
      </trkpt>
      <trkpt lat="44.2183" lon="4.4852">
        <ele>85</ele>
        <time>2021-07-04T13:01:18Z</time>
      </trkpt>
      <trkpt lat="44.21801" lon="4.48544">
        <ele>87</ele>
        <time>2021-07-04T13:01:26Z</time>
      </trkpt>
      <trkpt lat="44.21798" lon="4.48545">
        <ele>87</ele>
        <time>2021-07-04T13:01:27Z</time>
      </trkpt>
      <trkpt lat="44.21705" lon="4.48452">
        <ele>85</ele>
        <time>2021-07-04T13:01:53Z</time>
      </trkpt>
      <trkpt lat="44.21694" lon="4.4844">
        <ele>84</ele>
        <time>2021-07-04T13:01:57Z</time>
      </trkpt>
      <trkpt lat="44.21583" lon="4.48329">
        <ele>76</ele>
        <time>2021-07-04T13:02:29Z</time>
      </trkpt>
      <trkpt lat="44.21546" lon="4.48296">
        <ele>76</ele>
        <time>2021-07-04T13:02:39Z</time>
      </trkpt>
      <trkpt lat="44.21477" lon="4.4825">
        <ele>77</ele>
        <time>2021-07-04T13:02:57Z</time>
      </trkpt>
      <trkpt lat="44.2144" lon="4.48231">
        <ele>76</ele>
        <time>2021-07-04T13:03:06Z</time>
      </trkpt>
      <trkpt lat="44.21388" lon="4.48212">
        <ele>77</ele>
        <time>2021-07-04T13:03:18Z</time>
      </trkpt>
      <trkpt lat="44.21374" lon="4.48206">
        <ele>77</ele>
        <time>2021-07-04T13:03:22Z</time>
      </trkpt>
      <trkpt lat="44.21261" lon="4.48163">
        <ele>79</ele>
        <time>2021-07-04T13:03:49Z</time>
      </trkpt>
      <trkpt lat="44.21251" lon="4.48161">
        <ele>80</ele>
        <time>2021-07-04T13:03:52Z</time>
      </trkpt>
      <trkpt lat="44.21236" lon="4.48236">
        <ele>77</ele>
        <time>2021-07-04T13:04:05Z</time>
      </trkpt>
      <trkpt lat="44.21224" lon="4.48276">
        <ele>77</ele>
        <time>2021-07-04T13:04:12Z</time>
      </trkpt>
      <trkpt lat="44.21211" lon="4.48307">
        <ele>78</ele>
        <time>2021-07-04T13:04:18Z</time>
      </trkpt>
      <trkpt lat="44.21205" lon="4.48315">
        <ele>78</ele>
        <time>2021-07-04T13:04:20Z</time>
      </trkpt>
      <trkpt lat="44.21195" lon="4.48323">
        <ele>79</ele>
        <time>2021-07-04T13:04:22Z</time>
      </trkpt>
      <trkpt lat="44.21189" lon="4.48328">
        <ele>79</ele>
        <time>2021-07-04T13:04:24Z</time>
      </trkpt>
      <trkpt lat="44.21181" lon="4.48338">
        <ele>79</ele>
        <time>2021-07-04T13:04:27Z</time>
      </trkpt>
      <trkpt lat="44.21172" lon="4.4836">
        <ele>80</ele>
        <time>2021-07-04T13:04:31Z</time>
      </trkpt>
      <trkpt lat="44.21167" lon="4.48367">
        <ele>80</ele>
        <time>2021-07-04T13:04:33Z</time>
      </trkpt>
      <trkpt lat="44.2116" lon="4.4837">
        <ele>80</ele>
        <time>2021-07-04T13:04:34Z</time>
      </trkpt>
      <trkpt lat="44.21148" lon="4.48366">
        <ele>80</ele>
        <time>2021-07-04T13:04:37Z</time>
      </trkpt>
      <trkpt lat="44.21122" lon="4.48352">
        <ele>80</ele>
        <time>2021-07-04T13:04:44Z</time>
      </trkpt>
      <trkpt lat="44.21094" lon="4.48338">
        <ele>80</ele>
        <time>2021-07-04T13:04:51Z</time>
      </trkpt>
      <trkpt lat="44.21091" lon="4.48338">
        <ele>80</ele>
        <time>2021-07-04T13:04:51Z</time>
      </trkpt>
      <trkpt lat="44.21088" lon="4.48339">
        <ele>80</ele>
        <time>2021-07-04T13:04:52Z</time>
      </trkpt>
      <trkpt lat="44.21076" lon="4.48367">
        <ele>80</ele>
        <time>2021-07-04T13:04:57Z</time>
      </trkpt>
      <trkpt lat="44.2106" lon="4.4842">
        <ele>80</ele>
        <time>2021-07-04T13:05:07Z</time>
      </trkpt>
      <trkpt lat="44.21045" lon="4.48468">
        <ele>79</ele>
        <time>2021-07-04T13:05:16Z</time>
      </trkpt>
      <trkpt lat="44.21015" lon="4.48542">
        <ele>79</ele>
        <time>2021-07-04T13:05:30Z</time>
      </trkpt>
      <trkpt lat="44.21" lon="4.48576">
        <ele>79</ele>
        <time>2021-07-04T13:05:37Z</time>
      </trkpt>
      <trkpt lat="44.20986" lon="4.48612">
        <ele>80</ele>
        <time>2021-07-04T13:05:44Z</time>
      </trkpt>
      <trkpt lat="44.20971" lon="4.48648">
        <ele>81</ele>
        <time>2021-07-04T13:05:51Z</time>
      </trkpt>
      <trkpt lat="44.2097" lon="4.48654">
        <ele>82</ele>
        <time>2021-07-04T13:05:52Z</time>
      </trkpt>
      <trkpt lat="44.20943" lon="4.48745">
        <ele>80</ele>
        <time>2021-07-04T13:06:08Z</time>
      </trkpt>
      <trkpt lat="44.2093" lon="4.48789">
        <ele>80</ele>
        <time>2021-07-04T13:06:16Z</time>
      </trkpt>
      <trkpt lat="44.20909" lon="4.48888">
        <ele>82</ele>
        <time>2021-07-04T13:06:33Z</time>
      </trkpt>
      <trkpt lat="44.20908" lon="4.48891">
        <ele>82</ele>
        <time>2021-07-04T13:06:34Z</time>
      </trkpt>
      <trkpt lat="44.20896" lon="4.48977">
        <ele>82</ele>
        <time>2021-07-04T13:06:49Z</time>
      </trkpt>
      <trkpt lat="44.20885" lon="4.49038">
        <ele>83</ele>
        <time>2021-07-04T13:06:59Z</time>
      </trkpt>
      <trkpt lat="44.20848" lon="4.49027">
        <ele>83</ele>
        <time>2021-07-04T13:07:08Z</time>
      </trkpt>
      <trkpt lat="44.20833" lon="4.49023">
        <ele>83</ele>
        <time>2021-07-04T13:07:11Z</time>
      </trkpt>
      <trkpt lat="44.20816" lon="4.49015">
        <ele>84</ele>
        <time>2021-07-04T13:07:16Z</time>
      </trkpt>
      <trkpt lat="44.20785" lon="4.49002">
        <ele>86</ele>
        <time>2021-07-04T13:07:23Z</time>
      </trkpt>
      <trkpt lat="44.20759" lon="4.48993">
        <ele>88</ele>
        <time>2021-07-04T13:07:29Z</time>
      </trkpt>
      <trkpt lat="44.20733" lon="4.48982">
        <ele>92</ele>
        <time>2021-07-04T13:07:36Z</time>
      </trkpt>
      <trkpt lat="44.20699" lon="4.48981">
        <ele>98</ele>
        <time>2021-07-04T13:07:44Z</time>
      </trkpt>
      <trkpt lat="44.20688" lon="4.48976">
        <ele>100</ele>
        <time>2021-07-04T13:07:46Z</time>
      </trkpt>
      <trkpt lat="44.2069" lon="4.49011">
        <ele>98</ele>
        <time>2021-07-04T13:07:52Z</time>
      </trkpt>
      <trkpt lat="44.2069" lon="4.49046">
        <ele>98</ele>
        <time>2021-07-04T13:07:58Z</time>
      </trkpt>
      <trkpt lat="44.20701" lon="4.4917">
        <ele>96</ele>
        <time>2021-07-04T13:08:19Z</time>
      </trkpt>
      <trkpt lat="44.20702" lon="4.49176">
        <ele>95</ele>
        <time>2021-07-04T13:08:20Z</time>
      </trkpt>
      <trkpt lat="44.20716" lon="4.49223">
        <ele>94</ele>
        <time>2021-07-04T13:08:29Z</time>
      </trkpt>
      <trkpt lat="44.2073" lon="4.49268">
        <ele>93</ele>
        <time>2021-07-04T13:08:37Z</time>
      </trkpt>
      <trkpt lat="44.20756" lon="4.49324">
        <ele>91</ele>
        <time>2021-07-04T13:08:48Z</time>
      </trkpt>
      <trkpt lat="44.20764" lon="4.49342">
        <ele>90</ele>
        <time>2021-07-04T13:08:52Z</time>
      </trkpt>
      <trkpt lat="44.2077" lon="4.4936">
        <ele>90</ele>
        <time>2021-07-04T13:08:55Z</time>
      </trkpt>
      <trkpt lat="44.20776" lon="4.49379">
        <ele>90</ele>
        <time>2021-07-04T13:08:58Z</time>
      </trkpt>
      <trkpt lat="44.20779" lon="4.49395">
        <ele>89</ele>
        <time>2021-07-04T13:09:01Z</time>
      </trkpt>
      <trkpt lat="44.20784" lon="4.49408">
        <ele>89</ele>
        <time>2021-07-04T13:09:04Z</time>
      </trkpt>
      <trkpt lat="44.20791" lon="4.49451">
        <ele>87</ele>
        <time>2021-07-04T13:09:11Z</time>
      </trkpt>
      <trkpt lat="44.20801" lon="4.49509">
        <ele>85</ele>
        <time>2021-07-04T13:09:21Z</time>
      </trkpt>
      <trkpt lat="44.20804" lon="4.49526">
        <ele>85</ele>
        <time>2021-07-04T13:09:24Z</time>
      </trkpt>
      <trkpt lat="44.20808" lon="4.49541">
        <ele>84</ele>
        <time>2021-07-04T13:09:27Z</time>
      </trkpt>
      <trkpt lat="44.20821" lon="4.49582">
        <ele>83</ele>
        <time>2021-07-04T13:09:34Z</time>
      </trkpt>
      <trkpt lat="44.20835" lon="4.49637">
        <ele>82</ele>
        <time>2021-07-04T13:09:44Z</time>
      </trkpt>
      <trkpt lat="44.20838" lon="4.49647">
        <ele>82</ele>
        <time>2021-07-04T13:09:46Z</time>
      </trkpt>
      <trkpt lat="44.2084" lon="4.49687">
        <ele>81</ele>
        <time>2021-07-04T13:09:52Z</time>
      </trkpt>
      <trkpt lat="44.2084" lon="4.49689">
        <ele>81</ele>
        <time>2021-07-04T13:09:53Z</time>
      </trkpt>
      <trkpt lat="44.20844" lon="4.49731">
        <ele>79</ele>
        <time>2021-07-04T13:10:00Z</time>
      </trkpt>
      <trkpt lat="44.20847" lon="4.49761">
        <ele>78</ele>
        <time>2021-07-04T13:10:05Z</time>
      </trkpt>
      <trkpt lat="44.20849" lon="4.49778">
        <ele>77</ele>
        <time>2021-07-04T13:10:08Z</time>
      </trkpt>
      <trkpt lat="44.20853" lon="4.49795">
        <ele>77</ele>
        <time>2021-07-04T13:10:11Z</time>
      </trkpt>
      <trkpt lat="44.20858" lon="4.49806">
        <ele>77</ele>
        <time>2021-07-04T13:10:13Z</time>
      </trkpt>
      <trkpt lat="44.20877" lon="4.49858">
        <ele>76</ele>
        <time>2021-07-04T13:10:23Z</time>
      </trkpt>
      <trkpt lat="44.20893" lon="4.49896">
        <ele>76</ele>
        <time>2021-07-04T13:10:30Z</time>
      </trkpt>
      <trkpt lat="44.20908" lon="4.49934">
        <ele>75</ele>
        <time>2021-07-04T13:10:37Z</time>
      </trkpt>
      <trkpt lat="44.20903" lon="4.49937">
        <ele>75</ele>
        <time>2021-07-04T13:10:39Z</time>
      </trkpt>
      <trkpt lat="44.20893" lon="4.49937">
        <ele>75</ele>
        <time>2021-07-04T13:10:41Z</time>
      </trkpt>
      <trkpt lat="44.20831" lon="4.49928">
        <ele>75</ele>
        <time>2021-07-04T13:10:56Z</time>
      </trkpt>
      <trkpt lat="44.20824" lon="4.49927">
        <ele>75</ele>
        <time>2021-07-04T13:10:57Z</time>
      </trkpt>
      <trkpt lat="44.20797" lon="4.49923">
        <ele>76</ele>
        <time>2021-07-04T13:11:04Z</time>
      </trkpt>
      <trkpt lat="44.20768" lon="4.49919">
        <ele>77</ele>
        <time>2021-07-04T13:11:10Z</time>
      </trkpt>
      <trkpt lat="44.20738" lon="4.49916">
        <ele>79</ele>
        <time>2021-07-04T13:11:17Z</time>
      </trkpt>
      <trkpt lat="44.20701" lon="4.49912">
        <ele>83</ele>
        <time>2021-07-04T13:11:26Z</time>
      </trkpt>
      <trkpt lat="44.2068" lon="4.49908">
        <ele>86</ele>
        <time>2021-07-04T13:11:31Z</time>
      </trkpt>
      <trkpt lat="44.20659" lon="4.499">
        <ele>88</ele>
        <time>2021-07-04T13:11:36Z</time>
      </trkpt>
      <trkpt lat="44.20639" lon="4.49894">
        <ele>89</ele>
        <time>2021-07-04T13:11:41Z</time>
      </trkpt>
      <trkpt lat="44.20621" lon="4.49891">
        <ele>91</ele>
        <time>2021-07-04T13:11:45Z</time>
      </trkpt>
      <trkpt lat="44.20612" lon="4.49889">
        <ele>92</ele>
        <time>2021-07-04T13:11:47Z</time>
      </trkpt>
      <trkpt lat="44.20598" lon="4.49889">
        <ele>93</ele>
        <time>2021-07-04T13:11:50Z</time>
      </trkpt>
      <trkpt lat="44.2059" lon="4.49889">
        <ele>94</ele>
        <time>2021-07-04T13:11:52Z</time>
      </trkpt>
      <trkpt lat="44.20585" lon="4.49888">
        <ele>94</ele>
        <time>2021-07-04T13:11:54Z</time>
      </trkpt>
      <trkpt lat="44.20571" lon="4.49885">
        <ele>96</ele>
        <time>2021-07-04T13:11:57Z</time>
      </trkpt>
      <trkpt lat="44.20563" lon="4.49886">
        <ele>97</ele>
        <time>2021-07-04T13:11:59Z</time>
      </trkpt>
      <trkpt lat="44.20555" lon="4.4989">
        <ele>98</ele>
        <time>2021-07-04T13:12:01Z</time>
      </trkpt>
      <trkpt lat="44.20552" lon="4.49889">
        <ele>98</ele>
        <time>2021-07-04T13:12:01Z</time>
      </trkpt>
      <trkpt lat="44.20525" lon="4.49891">
        <ele>102</ele>
        <time>2021-07-04T13:12:08Z</time>
      </trkpt>
      <trkpt lat="44.20519" lon="4.49879">
        <ele>103</ele>
        <time>2021-07-04T13:12:10Z</time>
      </trkpt>
      <trkpt lat="44.20513" lon="4.49867">
        <ele>104</ele>
        <time>2021-07-04T13:12:13Z</time>
      </trkpt>
      <trkpt lat="44.20513" lon="4.49862">
        <ele>104</ele>
        <time>2021-07-04T13:12:13Z</time>
      </trkpt>
      <trkpt lat="44.20512" lon="4.49853">
        <ele>104</ele>
        <time>2021-07-04T13:12:15Z</time>
      </trkpt>
      <trkpt lat="44.20509" lon="4.49831">
        <ele>105</ele>
        <time>2021-07-04T13:12:19Z</time>
      </trkpt>
      <trkpt lat="44.20503" lon="4.49831">
        <ele>106</ele>
        <time>2021-07-04T13:12:20Z</time>
      </trkpt>
      <trkpt lat="44.2048" lon="4.49831">
        <ele>109</ele>
        <time>2021-07-04T13:12:26Z</time>
      </trkpt>
      <trkpt lat="44.20465" lon="4.49826">
        <ele>111</ele>
        <time>2021-07-04T13:12:29Z</time>
      </trkpt>
      <trkpt lat="44.20454" lon="4.49818">
        <ele>113</ele>
        <time>2021-07-04T13:12:32Z</time>
      </trkpt>
      <trkpt lat="44.20445" lon="4.49805">
        <ele>115</ele>
        <time>2021-07-04T13:12:35Z</time>
      </trkpt>
      <trkpt lat="44.20431" lon="4.49784">
        <ele>118</ele>
        <time>2021-07-04T13:12:40Z</time>
      </trkpt>
      <trkpt lat="44.20417" lon="4.4977">
        <ele>121</ele>
        <time>2021-07-04T13:12:44Z</time>
      </trkpt>
      <trkpt lat="44.20409" lon="4.49762">
        <ele>123</ele>
        <time>2021-07-04T13:12:46Z</time>
      </trkpt>
      <trkpt lat="44.20401" lon="4.49758">
        <ele>124</ele>
        <time>2021-07-04T13:12:48Z</time>
      </trkpt>
      <trkpt lat="44.2039" lon="4.49754">
        <ele>126</ele>
        <time>2021-07-04T13:12:51Z</time>
      </trkpt>
      <trkpt lat="44.2038" lon="4.49752">
        <ele>128</ele>
        <time>2021-07-04T13:12:53Z</time>
      </trkpt>
      <trkpt lat="44.2037" lon="4.49748">
        <ele>130</ele>
        <time>2021-07-04T13:12:56Z</time>
      </trkpt>
      <trkpt lat="44.20357" lon="4.49739">
        <ele>133</ele>
        <time>2021-07-04T13:12:59Z</time>
      </trkpt>
      <trkpt lat="44.20348" lon="4.49733">
        <ele>134</ele>
        <time>2021-07-04T13:13:01Z</time>
      </trkpt>
      <trkpt lat="44.20342" lon="4.49726">
        <ele>136</ele>
        <time>2021-07-04T13:13:03Z</time>
      </trkpt>
      <trkpt lat="44.20331" lon="4.49701">
        <ele>139</ele>
        <time>2021-07-04T13:13:08Z</time>
      </trkpt>
      <trkpt lat="44.2033" lon="4.49698">
        <ele>139</ele>
        <time>2021-07-04T13:13:09Z</time>
      </trkpt>
      <trkpt lat="44.20323" lon="4.49699">
        <ele>141</ele>
        <time>2021-07-04T13:13:10Z</time>
      </trkpt>
      <trkpt lat="44.20312" lon="4.49704">
        <ele>144</ele>
        <time>2021-07-04T13:13:13Z</time>
      </trkpt>
      <trkpt lat="44.20296" lon="4.49712">
        <ele>147</ele>
        <time>2021-07-04T13:13:17Z</time>
      </trkpt>
      <trkpt lat="44.20287" lon="4.49719">
        <ele>149</ele>
        <time>2021-07-04T13:13:19Z</time>
      </trkpt>
      <trkpt lat="44.20281" lon="4.49723">
        <ele>150</ele>
        <time>2021-07-04T13:13:21Z</time>
      </trkpt>
      <trkpt lat="44.20273" lon="4.49726">
        <ele>152</ele>
        <time>2021-07-04T13:13:23Z</time>
      </trkpt>
      <trkpt lat="44.20264" lon="4.49729">
        <ele>154</ele>
        <time>2021-07-04T13:13:25Z</time>
      </trkpt>
      <trkpt lat="44.20246" lon="4.49734">
        <ele>158</ele>
        <time>2021-07-04T13:13:29Z</time>
      </trkpt>
      <trkpt lat="44.20231" lon="4.49738">
        <ele>160</ele>
        <time>2021-07-04T13:13:33Z</time>
      </trkpt>
      <trkpt lat="44.20216" lon="4.49743">
        <ele>161</ele>
        <time>2021-07-04T13:13:36Z</time>
      </trkpt>
      <trkpt lat="44.20198" lon="4.49746">
        <ele>164</ele>
        <time>2021-07-04T13:13:41Z</time>
      </trkpt>
      <trkpt lat="44.20177" lon="4.49749">
        <ele>167</ele>
        <time>2021-07-04T13:13:46Z</time>
      </trkpt>
      <trkpt lat="44.20165" lon="4.49757">
        <ele>168</ele>
        <time>2021-07-04T13:13:49Z</time>
      </trkpt>
      <trkpt lat="44.20146" lon="4.49762">
        <ele>170</ele>
        <time>2021-07-04T13:13:53Z</time>
      </trkpt>
      <trkpt lat="44.20139" lon="4.49765">
        <ele>171</ele>
        <time>2021-07-04T13:13:55Z</time>
      </trkpt>
      <trkpt lat="44.20136" lon="4.49765">
        <ele>171</ele>
        <time>2021-07-04T13:13:56Z</time>
      </trkpt>
      <trkpt lat="44.20132" lon="4.49765">
        <ele>172</ele>
        <time>2021-07-04T13:13:57Z</time>
      </trkpt>
      <trkpt lat="44.20122" lon="4.49761">
        <ele>173</ele>
        <time>2021-07-04T13:13:59Z</time>
      </trkpt>
      <trkpt lat="44.20115" lon="4.49758">
        <ele>173</ele>
        <time>2021-07-04T13:14:01Z</time>
      </trkpt>
      <trkpt lat="44.20103" lon="4.49755">
        <ele>174</ele>
        <time>2021-07-04T13:14:04Z</time>
      </trkpt>
      <trkpt lat="44.20096" lon="4.49755">
        <ele>174</ele>
        <time>2021-07-04T13:14:05Z</time>
      </trkpt>
      <trkpt lat="44.20091" lon="4.49763">
        <ele>176</ele>
        <time>2021-07-04T13:14:07Z</time>
      </trkpt>
      <trkpt lat="44.2009" lon="4.49776">
        <ele>177</ele>
        <time>2021-07-04T13:14:09Z</time>
      </trkpt>
      <trkpt lat="44.20099" lon="4.49794">
        <ele>178</ele>
        <time>2021-07-04T13:14:13Z</time>
      </trkpt>
      <trkpt lat="44.20102" lon="4.49799">
        <ele>178</ele>
        <time>2021-07-04T13:14:14Z</time>
      </trkpt>
      <trkpt lat="44.2012" lon="4.49823">
        <ele>177</ele>
        <time>2021-07-04T13:14:20Z</time>
      </trkpt>
      <trkpt lat="44.20131" lon="4.49841">
        <ele>177</ele>
        <time>2021-07-04T13:14:24Z</time>
      </trkpt>
      <trkpt lat="44.20138" lon="4.49857">
        <ele>178</ele>
        <time>2021-07-04T13:14:27Z</time>
      </trkpt>
      <trkpt lat="44.20148" lon="4.49876">
        <ele>178</ele>
        <time>2021-07-04T13:14:31Z</time>
      </trkpt>
      <trkpt lat="44.20151" lon="4.49889">
        <ele>179</ele>
        <time>2021-07-04T13:14:33Z</time>
      </trkpt>
      <trkpt lat="44.20154" lon="4.499">
        <ele>180</ele>
        <time>2021-07-04T13:14:35Z</time>
      </trkpt>
      <trkpt lat="44.20155" lon="4.49908">
        <ele>181</ele>
        <time>2021-07-04T13:14:36Z</time>
      </trkpt>
      <trkpt lat="44.20155" lon="4.49925">
        <ele>183</ele>
        <time>2021-07-04T13:14:39Z</time>
      </trkpt>
      <trkpt lat="44.20154" lon="4.49935">
        <ele>184</ele>
        <time>2021-07-04T13:14:41Z</time>
      </trkpt>
      <trkpt lat="44.20159" lon="4.49953">
        <ele>185</ele>
        <time>2021-07-04T13:14:44Z</time>
      </trkpt>
      <trkpt lat="44.2016" lon="4.49962">
        <ele>186</ele>
        <time>2021-07-04T13:14:46Z</time>
      </trkpt>
      <trkpt lat="44.20159" lon="4.49969">
        <ele>186</ele>
        <time>2021-07-04T13:14:47Z</time>
      </trkpt>
      <trkpt lat="44.20159" lon="4.49977">
        <ele>187</ele>
        <time>2021-07-04T13:14:48Z</time>
      </trkpt>
      <trkpt lat="44.20155" lon="4.49987">
        <ele>188</ele>
        <time>2021-07-04T13:14:50Z</time>
      </trkpt>
      <trkpt lat="44.20156" lon="4.49994">
        <ele>189</ele>
        <time>2021-07-04T13:14:51Z</time>
      </trkpt>
      <trkpt lat="44.20157" lon="4.49998">
        <ele>189</ele>
        <time>2021-07-04T13:14:52Z</time>
      </trkpt>
      <trkpt lat="44.20161" lon="4.49998">
        <ele>189</ele>
        <time>2021-07-04T13:14:53Z</time>
      </trkpt>
      <trkpt lat="44.20166" lon="4.49998">
        <ele>189</ele>
        <time>2021-07-04T13:14:54Z</time>
      </trkpt>
      <trkpt lat="44.20177" lon="4.50007">
        <ele>186</ele>
        <time>2021-07-04T13:14:57Z</time>
      </trkpt>
      <trkpt lat="44.20181" lon="4.50021">
        <ele>184</ele>
        <time>2021-07-04T13:15:00Z</time>
      </trkpt>
      <trkpt lat="44.2018" lon="4.50037">
        <ele>185</ele>
        <time>2021-07-04T13:15:02Z</time>
      </trkpt>
      <trkpt lat="44.20179" lon="4.50049">
        <ele>185</ele>
        <time>2021-07-04T13:15:04Z</time>
      </trkpt>
      <trkpt lat="44.20176" lon="4.50066">
        <ele>186</ele>
        <time>2021-07-04T13:15:07Z</time>
      </trkpt>
      <trkpt lat="44.20172" lon="4.50085">
        <ele>187</ele>
        <time>2021-07-04T13:15:11Z</time>
      </trkpt>
      <trkpt lat="44.20172" lon="4.50095">
        <ele>187</ele>
        <time>2021-07-04T13:15:12Z</time>
      </trkpt>
      <trkpt lat="44.20182" lon="4.50127">
        <ele>184</ele>
        <time>2021-07-04T13:15:18Z</time>
      </trkpt>
      <trkpt lat="44.20203" lon="4.50218">
        <ele>176</ele>
        <time>2021-07-04T13:15:34Z</time>
      </trkpt>
      <trkpt lat="44.20182" lon="4.50127">
        <ele>184</ele>
        <time>2021-07-04T13:15:50Z</time>
      </trkpt>
      <trkpt lat="44.20233" lon="4.50339">
        <ele>169</ele>
        <time>2021-07-04T13:16:28Z</time>
      </trkpt>
      <trkpt lat="44.20228" lon="4.50384">
        <ele>167</ele>
        <time>2021-07-04T13:16:35Z</time>
      </trkpt>
      <trkpt lat="44.20202" lon="4.50412">
        <ele>168</ele>
        <time>2021-07-04T13:16:43Z</time>
      </trkpt>
      <trkpt lat="44.20159" lon="4.50422">
        <ele>168</ele>
        <time>2021-07-04T13:16:53Z</time>
      </trkpt>
      <trkpt lat="44.20125" lon="4.50421">
        <ele>168</ele>
        <time>2021-07-04T13:17:01Z</time>
      </trkpt>
      <trkpt lat="44.20063" lon="4.50425">
        <ele>167</ele>
        <time>2021-07-04T13:17:15Z</time>
      </trkpt>
      <trkpt lat="44.19995" lon="4.50419">
        <ele>165</ele>
        <time>2021-07-04T13:17:31Z</time>
      </trkpt>
      <trkpt lat="44.19934" lon="4.5041">
        <ele>155</ele>
        <time>2021-07-04T13:17:46Z</time>
      </trkpt>
      <trkpt lat="44.19922" lon="4.50408">
        <ele>153</ele>
        <time>2021-07-04T13:17:49Z</time>
      </trkpt>
      <trkpt lat="44.19947" lon="4.50355">
        <ele>157</ele>
        <time>2021-07-04T13:17:59Z</time>
      </trkpt>
      <trkpt lat="44.19958" lon="4.50295">
        <ele>165</ele>
        <time>2021-07-04T13:18:10Z</time>
      </trkpt>
      <trkpt lat="44.19931" lon="4.503">
        <ele>159</ele>
        <time>2021-07-04T13:18:16Z</time>
      </trkpt>
      <trkpt lat="44.19906" lon="4.50284">
        <ele>158</ele>
        <time>2021-07-04T13:18:22Z</time>
      </trkpt>
      <trkpt lat="44.1989" lon="4.50245">
        <ele>162</ele>
        <time>2021-07-04T13:18:30Z</time>
      </trkpt>
      <trkpt lat="44.19866" lon="4.50244">
        <ele>157</ele>
        <time>2021-07-04T13:18:35Z</time>
      </trkpt>
      <trkpt lat="44.19844" lon="4.50241">
        <ele>153</ele>
        <time>2021-07-04T13:18:41Z</time>
      </trkpt>
      <trkpt lat="44.19824" lon="4.50219">
        <ele>149</ele>
        <time>2021-07-04T13:18:47Z</time>
      </trkpt>
      <trkpt lat="44.19835" lon="4.50181">
        <ele>152</ele>
        <time>2021-07-04T13:18:53Z</time>
      </trkpt>
      <trkpt lat="44.19862" lon="4.5012">
        <ele>163</ele>
        <time>2021-07-04T13:19:05Z</time>
      </trkpt>
      <trkpt lat="44.19826" lon="4.50037">
        <ele>161</ele>
        <time>2021-07-04T13:19:22Z</time>
      </trkpt>
      <trkpt lat="44.19799" lon="4.49983">
        <ele>158</ele>
        <time>2021-07-04T13:19:33Z</time>
      </trkpt>
      <trkpt lat="44.19823" lon="4.49943">
        <ele>156</ele>
        <time>2021-07-04T13:19:41Z</time>
      </trkpt>
      <trkpt lat="44.19871" lon="4.49875">
        <ele>158</ele>
        <time>2021-07-04T13:19:57Z</time>
      </trkpt>
      <trkpt lat="44.19904" lon="4.49845">
        <ele>161</ele>
        <time>2021-07-04T13:20:07Z</time>
      </trkpt>
      <trkpt lat="44.19937" lon="4.49836">
        <ele>165</ele>
        <time>2021-07-04T13:20:14Z</time>
      </trkpt>
      <trkpt lat="44.2" lon="4.49827">
        <ele>174</ele>
        <time>2021-07-04T13:20:29Z</time>
      </trkpt>
      <trkpt lat="44.20017" lon="4.49824">
        <ele>175</ele>
        <time>2021-07-04T13:20:33Z</time>
      </trkpt>
      <trkpt lat="44.20033" lon="4.49794">
        <ele>175</ele>
        <time>2021-07-04T13:20:39Z</time>
      </trkpt>
      <trkpt lat="44.20048" lon="4.49757">
        <ele>173</ele>
        <time>2021-07-04T13:20:47Z</time>
      </trkpt>
      <trkpt lat="44.20072" lon="4.49748">
        <ele>174</ele>
        <time>2021-07-04T13:20:52Z</time>
      </trkpt>
      <trkpt lat="44.20066" lon="4.49702">
        <ele>176</ele>
        <time>2021-07-04T13:21:00Z</time>
      </trkpt>
      <trkpt lat="44.20061" lon="4.49645">
        <ele>178</ele>
        <time>2021-07-04T13:21:10Z</time>
      </trkpt>
      <trkpt lat="44.20065" lon="4.49606">
        <ele>181</ele>
        <time>2021-07-04T13:21:16Z</time>
      </trkpt>
      <trkpt lat="44.20026" lon="4.4959">
        <ele>181</ele>
        <time>2021-07-04T13:21:26Z</time>
      </trkpt>
      <trkpt lat="44.19986" lon="4.49567">
        <ele>179</ele>
        <time>2021-07-04T13:21:36Z</time>
      </trkpt>
      <trkpt lat="44.19937" lon="4.49505">
        <ele>169</ele>
        <time>2021-07-04T13:21:51Z</time>
      </trkpt>
      <trkpt lat="44.19904" lon="4.49523">
        <ele>163</ele>
        <time>2021-07-04T13:22:00Z</time>
      </trkpt>
      <trkpt lat="44.19939" lon="4.49638">
        <ele>170</ele>
        <time>2021-07-04T13:22:21Z</time>
      </trkpt>
      <trkpt lat="44.19954" lon="4.49666">
        <ele>170</ele>
        <time>2021-07-04T13:22:27Z</time>
      </trkpt>
      <trkpt lat="44.19939" lon="4.49706">
        <ele>164</ele>
        <time>2021-07-04T13:22:34Z</time>
      </trkpt>
      <trkpt lat="44.19947" lon="4.49788">
        <ele>163</ele>
        <time>2021-07-04T13:22:48Z</time>
      </trkpt>
      <trkpt lat="44.19888" lon="4.49808">
        <ele>155</ele>
        <time>2021-07-04T13:23:02Z</time>
      </trkpt>
      <trkpt lat="44.19831" lon="4.49827">
        <ele>145</ele>
        <time>2021-07-04T13:23:16Z</time>
      </trkpt>
      <trkpt lat="44.19766" lon="4.49874">
        <ele>141</ele>
        <time>2021-07-04T13:23:33Z</time>
      </trkpt>
      <trkpt lat="44.19715" lon="4.49897">
        <ele>135</ele>
        <time>2021-07-04T13:23:45Z</time>
      </trkpt>
      <trkpt lat="44.19694" lon="4.49897">
        <ele>132</ele>
        <time>2021-07-04T13:23:50Z</time>
      </trkpt>
      <trkpt lat="44.19673" lon="4.49878">
        <ele>129</ele>
        <time>2021-07-04T13:23:56Z</time>
      </trkpt>
      <trkpt lat="44.19628" lon="4.4989">
        <ele>120</ele>
        <time>2021-07-04T13:24:07Z</time>
      </trkpt>
      <trkpt lat="44.1957" lon="4.49901">
        <ele>109</ele>
        <time>2021-07-04T13:24:21Z</time>
      </trkpt>
      <trkpt lat="44.19545" lon="4.4997">
        <ele>103</ele>
        <time>2021-07-04T13:24:33Z</time>
      </trkpt>
      <trkpt lat="44.19555" lon="4.50065">
        <ele>100</ele>
        <time>2021-07-04T13:24:50Z</time>
      </trkpt>
      <trkpt lat="44.19559" lon="4.50137">
        <ele>96</ele>
        <time>2021-07-04T13:25:02Z</time>
      </trkpt>
      <trkpt lat="44.19595" lon="4.50238">
        <ele>95</ele>
        <time>2021-07-04T13:25:21Z</time>
      </trkpt>
      <trkpt lat="44.19549" lon="4.50272">
        <ele>86</ele>
        <time>2021-07-04T13:25:33Z</time>
      </trkpt>
      <trkpt lat="44.1952" lon="4.5027">
        <ele>83</ele>
        <time>2021-07-04T13:25:39Z</time>
      </trkpt>
      <trkpt lat="44.19498" lon="4.50282">
        <ele>80</ele>
        <time>2021-07-04T13:25:45Z</time>
      </trkpt>
      <trkpt lat="44.19488" lon="4.50312">
        <ele>78</ele>
        <time>2021-07-04T13:25:51Z</time>
      </trkpt>
      <trkpt lat="44.19479" lon="4.50353">
        <ele>77</ele>
        <time>2021-07-04T13:25:58Z</time>
      </trkpt>
      <trkpt lat="44.19352" lon="4.50287">
        <ele>77</ele>
        <time>2021-07-04T13:26:29Z</time>
      </trkpt>
      <trkpt lat="44.19318" lon="4.5025">
        <ele>77</ele>
        <time>2021-07-04T13:26:39Z</time>
      </trkpt>
      <trkpt lat="44.19267" lon="4.5019">
        <ele>77</ele>
        <time>2021-07-04T13:26:55Z</time>
      </trkpt>
      <trkpt lat="44.19214" lon="4.50154">
        <ele>79</ele>
        <time>2021-07-04T13:27:09Z</time>
      </trkpt>
      <trkpt lat="44.19134" lon="4.50051">
        <ele>83</ele>
        <time>2021-07-04T13:27:34Z</time>
      </trkpt>
      <trkpt lat="44.19135" lon="4.5005">
        <ele>83</ele>
        <time>2021-07-04T13:27:34Z</time>
      </trkpt>
      <trkpt lat="44.19132" lon="4.50045">
        <ele>83</ele>
        <time>2021-07-04T13:27:36Z</time>
      </trkpt>
      <trkpt lat="44.19133" lon="4.50031">
        <ele>83</ele>
        <time>2021-07-04T13:27:38Z</time>
      </trkpt>
      <trkpt lat="44.19146" lon="4.5001">
        <ele>84</ele>
        <time>2021-07-04T13:27:43Z</time>
      </trkpt>
      <trkpt lat="44.19153" lon="4.49993">
        <ele>85</ele>
        <time>2021-07-04T13:27:46Z</time>
      </trkpt>
      <trkpt lat="44.19159" lon="4.49972">
        <ele>87</ele>
        <time>2021-07-04T13:27:50Z</time>
      </trkpt>
      <trkpt lat="44.19168" lon="4.49958">
        <ele>89</ele>
        <time>2021-07-04T13:27:53Z</time>
      </trkpt>
      <trkpt lat="44.19187" lon="4.49952">
        <ele>90</ele>
        <time>2021-07-04T13:27:57Z</time>
      </trkpt>
      <trkpt lat="44.19213" lon="4.49948">
        <ele>92</ele>
        <time>2021-07-04T13:28:03Z</time>
      </trkpt>
      <trkpt lat="44.19219" lon="4.49938">
        <ele>93</ele>
        <time>2021-07-04T13:28:06Z</time>
      </trkpt>
      <trkpt lat="44.1922" lon="4.49899">
        <ele>97</ele>
        <time>2021-07-04T13:28:12Z</time>
      </trkpt>
      <trkpt lat="44.19219" lon="4.49871">
        <ele>99</ele>
        <time>2021-07-04T13:28:17Z</time>
      </trkpt>
      <trkpt lat="44.1927" lon="4.49782">
        <ele>103</ele>
        <time>2021-07-04T13:28:36Z</time>
      </trkpt>
      <trkpt lat="44.19274" lon="4.49774">
        <ele>103</ele>
        <time>2021-07-04T13:28:38Z</time>
      </trkpt>
      <trkpt lat="44.19308" lon="4.49772">
        <ele>102</ele>
        <time>2021-07-04T13:28:46Z</time>
      </trkpt>
      <trkpt lat="44.19324" lon="4.49765">
        <ele>102</ele>
        <time>2021-07-04T13:28:49Z</time>
      </trkpt>
      <trkpt lat="44.19333" lon="4.49752">
        <ele>102</ele>
        <time>2021-07-04T13:28:52Z</time>
      </trkpt>
      <trkpt lat="44.19337" lon="4.49739">
        <ele>102</ele>
        <time>2021-07-04T13:28:55Z</time>
      </trkpt>
      <trkpt lat="44.19339" lon="4.49716">
        <ele>102</ele>
        <time>2021-07-04T13:28:59Z</time>
      </trkpt>
      <trkpt lat="44.19345" lon="4.49711">
        <ele>102</ele>
        <time>2021-07-04T13:29:00Z</time>
      </trkpt>
      <trkpt lat="44.19351" lon="4.49711">
        <ele>102</ele>
        <time>2021-07-04T13:29:02Z</time>
      </trkpt>
      <trkpt lat="44.19353" lon="4.49711">
        <ele>102</ele>
        <time>2021-07-04T13:29:02Z</time>
      </trkpt>
      <trkpt lat="44.19372" lon="4.49718">
        <ele>102</ele>
        <time>2021-07-04T13:29:07Z</time>
      </trkpt>
      <trkpt lat="44.19391" lon="4.49725">
        <ele>103</ele>
        <time>2021-07-04T13:29:11Z</time>
      </trkpt>
      <trkpt lat="44.1941" lon="4.49722">
        <ele>103</ele>
        <time>2021-07-04T13:29:16Z</time>
      </trkpt>
      <trkpt lat="44.1941" lon="4.49722">
        <ele>103</ele>
        <time>2021-07-04T13:29:16Z</time>
      </trkpt>
      <trkpt lat="44.19422" lon="4.49718">
        <ele>103</ele>
        <time>2021-07-04T13:29:19Z</time>
      </trkpt>
      <trkpt lat="44.1945" lon="4.49713">
        <ele>104</ele>
        <time>2021-07-04T13:29:25Z</time>
      </trkpt>
      <trkpt lat="44.19451" lon="4.49713">
        <ele>104</ele>
        <time>2021-07-04T13:29:26Z</time>
      </trkpt>
      <trkpt lat="44.19476" lon="4.49706">
        <ele>104</ele>
        <time>2021-07-04T13:29:32Z</time>
      </trkpt>
      <trkpt lat="44.19477" lon="4.49706">
        <ele>104</ele>
        <time>2021-07-04T13:29:32Z</time>
      </trkpt>
      <trkpt lat="44.19502" lon="4.49685">
        <ele>104</ele>
        <time>2021-07-04T13:29:39Z</time>
      </trkpt>
      <trkpt lat="44.19514" lon="4.49666">
        <ele>105</ele>
        <time>2021-07-04T13:29:43Z</time>
      </trkpt>
      <trkpt lat="44.19499" lon="4.49619">
        <ele>98</ele>
        <time>2021-07-04T13:29:51Z</time>
      </trkpt>
      <trkpt lat="44.19469" lon="4.49512">
        <ele>89</ele>
        <time>2021-07-04T13:30:11Z</time>
      </trkpt>
      <trkpt lat="44.19456" lon="4.49393">
        <ele>78</ele>
        <time>2021-07-04T13:30:31Z</time>
      </trkpt>
      <trkpt lat="44.19521" lon="4.49344">
        <ele>80</ele>
        <time>2021-07-04T13:30:48Z</time>
      </trkpt>
      <trkpt lat="44.1955" lon="4.49324">
        <ele>81</ele>
        <time>2021-07-04T13:30:56Z</time>
      </trkpt>
      <trkpt lat="44.19588" lon="4.49282">
        <ele>77</ele>
        <time>2021-07-04T13:31:07Z</time>
      </trkpt>
      <trkpt lat="44.19658" lon="4.49254">
        <ele>74</ele>
        <time>2021-07-04T13:31:24Z</time>
      </trkpt>
      <trkpt lat="44.19694" lon="4.49195">
        <ele>73</ele>
        <time>2021-07-04T13:31:37Z</time>
      </trkpt>
      <trkpt lat="44.19707" lon="4.49094">
        <ele>71</ele>
        <time>2021-07-04T13:31:54Z</time>
      </trkpt>
      <trkpt lat="44.19733" lon="4.49046">
        <ele>71</ele>
        <time>2021-07-04T13:32:04Z</time>
      </trkpt>
      <trkpt lat="44.1975" lon="4.48911">
        <ele>73</ele>
        <time>2021-07-04T13:32:27Z</time>
      </trkpt>
      <trkpt lat="44.19755" lon="4.48849">
        <ele>72</ele>
        <time>2021-07-04T13:32:38Z</time>
      </trkpt>
      <trkpt lat="44.1976" lon="4.48836">
        <ele>72</ele>
        <time>2021-07-04T13:32:40Z</time>
      </trkpt>
      <trkpt lat="44.19766" lon="4.48828">
        <ele>72</ele>
        <time>2021-07-04T13:32:42Z</time>
      </trkpt>
      <trkpt lat="44.19775" lon="4.48819">
        <ele>73</ele>
        <time>2021-07-04T13:32:45Z</time>
      </trkpt>
      <trkpt lat="44.19789" lon="4.48811">
        <ele>73</ele>
        <time>2021-07-04T13:32:48Z</time>
      </trkpt>
      <trkpt lat="44.19794" lon="4.48806">
        <ele>73</ele>
        <time>2021-07-04T13:32:50Z</time>
      </trkpt>
      <trkpt lat="44.19796" lon="4.48798">
        <ele>73</ele>
        <time>2021-07-04T13:32:51Z</time>
      </trkpt>
      <trkpt lat="44.19797" lon="4.48795">
        <ele>73</ele>
        <time>2021-07-04T13:32:52Z</time>
      </trkpt>
      <trkpt lat="44.19806" lon="4.4868">
        <ele>74</ele>
        <time>2021-07-04T13:33:11Z</time>
      </trkpt>
      <trkpt lat="44.19809" lon="4.48669">
        <ele>75</ele>
        <time>2021-07-04T13:33:13Z</time>
      </trkpt>
      <trkpt lat="44.19804" lon="4.48667">
        <ele>75</ele>
        <time>2021-07-04T13:33:14Z</time>
      </trkpt>
      <trkpt lat="44.19961" lon="4.48671">
        <ele>82</ele>
        <time>2021-07-04T13:33:51Z</time>
      </trkpt>
      <trkpt lat="44.1996" lon="4.48672">
        <ele>82</ele>
        <time>2021-07-04T13:33:51Z</time>
      </trkpt>
      <trkpt lat="44.19959" lon="4.48671">
        <ele>82</ele>
        <time>2021-07-04T13:33:51Z</time>
      </trkpt>
      <trkpt lat="44.19942" lon="4.48631">
        <ele>82</ele>
        <time>2021-07-04T13:33:59Z</time>
      </trkpt>
      <trkpt lat="44.19926" lon="4.48591">
        <ele>82</ele>
        <time>2021-07-04T13:34:07Z</time>
      </trkpt>
      <trkpt lat="44.1991" lon="4.48546">
        <ele>83</ele>
        <time>2021-07-04T13:34:15Z</time>
      </trkpt>
      <trkpt lat="44.19893" lon="4.48499">
        <ele>83</ele>
        <time>2021-07-04T13:34:24Z</time>
      </trkpt>
      <trkpt lat="44.19887" lon="4.48489">
        <ele>83</ele>
        <time>2021-07-04T13:34:26Z</time>
      </trkpt>
      <trkpt lat="44.19887" lon="4.48488">
        <ele>83</ele>
        <time>2021-07-04T13:34:26Z</time>
      </trkpt>
      <trkpt lat="44.19869" lon="4.48481">
        <ele>81</ele>
        <time>2021-07-04T13:34:31Z</time>
      </trkpt>
      <trkpt lat="44.19858" lon="4.4847">
        <ele>80</ele>
        <time>2021-07-04T13:34:34Z</time>
      </trkpt>
      <trkpt lat="44.19847" lon="4.48449">
        <ele>80</ele>
        <time>2021-07-04T13:34:38Z</time>
      </trkpt>
      <trkpt lat="44.19841" lon="4.48438">
        <ele>79</ele>
        <time>2021-07-04T13:34:41Z</time>
      </trkpt>
      <trkpt lat="44.19823" lon="4.48382">
        <ele>81</ele>
        <time>2021-07-04T13:34:51Z</time>
      </trkpt>
      <trkpt lat="44.19806" lon="4.48339">
        <ele>81</ele>
        <time>2021-07-04T13:34:59Z</time>
      </trkpt>
      <trkpt lat="44.19801" lon="4.4828">
        <ele>83</ele>
        <time>2021-07-04T13:35:09Z</time>
      </trkpt>
      <trkpt lat="44.19787" lon="4.48222">
        <ele>82</ele>
        <time>2021-07-04T13:35:19Z</time>
      </trkpt>
      <trkpt lat="44.19775" lon="4.48165">
        <ele>79</ele>
        <time>2021-07-04T13:35:29Z</time>
      </trkpt>
      <trkpt lat="44.19779" lon="4.48096">
        <ele>81</ele>
        <time>2021-07-04T13:35:41Z</time>
      </trkpt>
      <trkpt lat="44.19778" lon="4.48083">
        <ele>81</ele>
        <time>2021-07-04T13:35:43Z</time>
      </trkpt>
      <trkpt lat="44.19811" lon="4.48076">
        <ele>86</ele>
        <time>2021-07-04T13:35:51Z</time>
      </trkpt>
      <trkpt lat="44.19908" lon="4.48062">
        <ele>94</ele>
        <time>2021-07-04T13:36:14Z</time>
      </trkpt>
      <trkpt lat="44.19927" lon="4.48078">
        <ele>97</ele>
        <time>2021-07-04T13:36:19Z</time>
      </trkpt>
      <trkpt lat="44.19938" lon="4.48196">
        <ele>102</ele>
        <time>2021-07-04T13:36:39Z</time>
      </trkpt>
      <trkpt lat="44.1997" lon="4.48213">
        <ele>107</ele>
        <time>2021-07-04T13:36:47Z</time>
      </trkpt>
      <trkpt lat="44.19997" lon="4.48178">
        <ele>108</ele>
        <time>2021-07-04T13:36:55Z</time>
      </trkpt>
      <trkpt lat="44.20031" lon="4.48118">
        <ele>109</ele>
        <time>2021-07-04T13:37:08Z</time>
      </trkpt>
      <trkpt lat="44.20059" lon="4.48032">
        <ele>104</ele>
        <time>2021-07-04T13:37:24Z</time>
      </trkpt>
      <trkpt lat="44.20069" lon="4.47983">
        <ele>101</ele>
        <time>2021-07-04T13:37:32Z</time>
      </trkpt>
      <trkpt lat="44.20068" lon="4.47906">
        <ele>99</ele>
        <time>2021-07-04T13:37:45Z</time>
      </trkpt>
      <trkpt lat="44.20068" lon="4.47906">
        <ele>99</ele>
        <time>2021-07-04T13:37:45Z</time>
      </trkpt>
      <trkpt lat="44.20104" lon="4.47894">
        <ele>100</ele>
        <time>2021-07-04T13:37:54Z</time>
      </trkpt>
      <trkpt lat="44.2014" lon="4.47895">
        <ele>99</ele>
        <time>2021-07-04T13:38:02Z</time>
      </trkpt>
      <trkpt lat="44.20143" lon="4.47895">
        <ele>99</ele>
        <time>2021-07-04T13:38:03Z</time>
      </trkpt>
      <trkpt lat="44.20177" lon="4.47895">
        <ele>99</ele>
        <time>2021-07-04T13:38:11Z</time>
      </trkpt>
      <trkpt lat="44.20213" lon="4.47896">
        <ele>99</ele>
        <time>2021-07-04T13:38:19Z</time>
      </trkpt>
      <trkpt lat="44.20224" lon="4.47895">
        <ele>99</ele>
        <time>2021-07-04T13:38:22Z</time>
      </trkpt>
      <trkpt lat="44.20229" lon="4.47895">
        <ele>99</ele>
        <time>2021-07-04T13:38:23Z</time>
      </trkpt>
      <trkpt lat="44.2026" lon="4.47911">
        <ele>100</ele>
        <time>2021-07-04T13:38:31Z</time>
      </trkpt>
      <trkpt lat="44.2026" lon="4.47912">
        <ele>100</ele>
        <time>2021-07-04T13:38:31Z</time>
      </trkpt>
      <trkpt lat="44.2029" lon="4.47906">
        <ele>99</ele>
        <time>2021-07-04T13:38:38Z</time>
      </trkpt>
      <trkpt lat="44.20313" lon="4.47902">
        <ele>99</ele>
        <time>2021-07-04T13:38:43Z</time>
      </trkpt>
      <trkpt lat="44.20343" lon="4.4789">
        <ele>99</ele>
        <time>2021-07-04T13:38:51Z</time>
      </trkpt>
      <trkpt lat="44.20346" lon="4.4789">
        <ele>99</ele>
        <time>2021-07-04T13:38:51Z</time>
      </trkpt>
      <trkpt lat="44.20372" lon="4.4788">
        <ele>99</ele>
        <time>2021-07-04T13:38:58Z</time>
      </trkpt>
      <trkpt lat="44.20382" lon="4.47848">
        <ele>99</ele>
        <time>2021-07-04T13:39:04Z</time>
      </trkpt>
      <trkpt lat="44.20417" lon="4.47847">
        <ele>99</ele>
        <time>2021-07-04T13:39:12Z</time>
      </trkpt>
      <trkpt lat="44.20443" lon="4.47849">
        <ele>100</ele>
        <time>2021-07-04T13:39:18Z</time>
      </trkpt>
      <trkpt lat="44.20445" lon="4.47851">
        <ele>100</ele>
        <time>2021-07-04T13:39:18Z</time>
      </trkpt>
      <trkpt lat="44.20473" lon="4.47852">
        <ele>100</ele>
        <time>2021-07-04T13:39:25Z</time>
      </trkpt>
      <trkpt lat="44.20474" lon="4.47855">
        <ele>100</ele>
        <time>2021-07-04T13:39:26Z</time>
      </trkpt>
      <trkpt lat="44.20513" lon="4.47856">
        <ele>101</ele>
        <time>2021-07-04T13:39:35Z</time>
      </trkpt>
      <trkpt lat="44.20545" lon="4.47856">
        <ele>100</ele>
        <time>2021-07-04T13:39:42Z</time>
      </trkpt>
      <trkpt lat="44.2055" lon="4.47856">
        <ele>100</ele>
        <time>2021-07-04T13:39:43Z</time>
      </trkpt>
      <trkpt lat="44.20576" lon="4.47859">
        <ele>99</ele>
        <time>2021-07-04T13:39:49Z</time>
      </trkpt>
      <trkpt lat="44.20602" lon="4.47865">
        <ele>100</ele>
        <time>2021-07-04T13:39:56Z</time>
      </trkpt>
      <trkpt lat="44.20637" lon="4.47874">
        <ele>100</ele>
        <time>2021-07-04T13:40:04Z</time>
      </trkpt>
      <trkpt lat="44.20657" lon="4.47882">
        <ele>100</ele>
        <time>2021-07-04T13:40:09Z</time>
      </trkpt>
      <trkpt lat="44.20662" lon="4.47884">
        <ele>100</ele>
        <time>2021-07-04T13:40:10Z</time>
      </trkpt>
      <trkpt lat="44.20679" lon="4.47895">
        <ele>99</ele>
        <time>2021-07-04T13:40:14Z</time>
      </trkpt>
      <trkpt lat="44.20699" lon="4.47906">
        <ele>99</ele>
        <time>2021-07-04T13:40:19Z</time>
      </trkpt>
      <trkpt lat="44.20729" lon="4.47919">
        <ele>98</ele>
        <time>2021-07-04T13:40:27Z</time>
      </trkpt>
      <trkpt lat="44.20747" lon="4.47925">
        <ele>97</ele>
        <time>2021-07-04T13:40:31Z</time>
      </trkpt>
      <trkpt lat="44.20761" lon="4.47933">
        <ele>96</ele>
        <time>2021-07-04T13:40:35Z</time>
      </trkpt>
      <trkpt lat="44.20764" lon="4.47934">
        <ele>96</ele>
        <time>2021-07-04T13:40:35Z</time>
      </trkpt>
      <trkpt lat="44.20772" lon="4.47942">
        <ele>95</ele>
        <time>2021-07-04T13:40:38Z</time>
      </trkpt>
      <trkpt lat="44.20789" lon="4.47953">
        <ele>94</ele>
        <time>2021-07-04T13:40:42Z</time>
      </trkpt>
      <trkpt lat="44.20805" lon="4.4796">
        <ele>93</ele>
        <time>2021-07-04T13:40:46Z</time>
      </trkpt>
      <trkpt lat="44.20823" lon="4.47967">
        <ele>92</ele>
        <time>2021-07-04T13:40:50Z</time>
      </trkpt>
      <trkpt lat="44.2084" lon="4.47977">
        <ele>91</ele>
        <time>2021-07-04T13:40:54Z</time>
      </trkpt>
      <trkpt lat="44.20857" lon="4.47985">
        <ele>90</ele>
        <time>2021-07-04T13:40:59Z</time>
      </trkpt>
      <trkpt lat="44.20879" lon="4.47992">
        <ele>89</ele>
        <time>2021-07-04T13:41:04Z</time>
      </trkpt>
      <trkpt lat="44.20904" lon="4.48001">
        <ele>88</ele>
        <time>2021-07-04T13:41:10Z</time>
      </trkpt>
      <trkpt lat="44.2093" lon="4.48017">
        <ele>88</ele>
        <time>2021-07-04T13:41:17Z</time>
      </trkpt>
      <trkpt lat="44.20968" lon="4.48032">
        <ele>87</ele>
        <time>2021-07-04T13:41:26Z</time>
      </trkpt>
      <trkpt lat="44.21007" lon="4.48048">
        <ele>86</ele>
        <time>2021-07-04T13:41:35Z</time>
      </trkpt>
      <trkpt lat="44.21047" lon="4.48063">
        <ele>85</ele>
        <time>2021-07-04T13:41:45Z</time>
      </trkpt>
      <trkpt lat="44.21082" lon="4.48081">
        <ele>84</ele>
        <time>2021-07-04T13:41:54Z</time>
      </trkpt>
      <trkpt lat="44.21112" lon="4.48096">
        <ele>84</ele>
        <time>2021-07-04T13:42:01Z</time>
      </trkpt>
      <trkpt lat="44.21125" lon="4.48104">
        <ele>85</ele>
        <time>2021-07-04T13:42:04Z</time>
      </trkpt>
      <trkpt lat="44.2115" lon="4.48122">
        <ele>84</ele>
        <time>2021-07-04T13:42:11Z</time>
      </trkpt>
      <trkpt lat="44.21166" lon="4.48132">
        <ele>84</ele>
        <time>2021-07-04T13:42:15Z</time>
      </trkpt>
      <trkpt lat="44.21185" lon="4.48141">
        <ele>83</ele>
        <time>2021-07-04T13:42:20Z</time>
      </trkpt>
      <trkpt lat="44.21208" lon="4.48149">
        <ele>82</ele>
        <time>2021-07-04T13:42:25Z</time>
      </trkpt>
      <trkpt lat="44.21211" lon="4.48149">
        <ele>82</ele>
        <time>2021-07-04T13:42:26Z</time>
      </trkpt>
      <trkpt lat="44.21251" lon="4.48161">
        <ele>80</ele>
        <time>2021-07-04T13:42:36Z</time>
      </trkpt>
      <trkpt lat="44.2144" lon="4.48231">
        <ele>76</ele>
        <time>2021-07-04T13:43:21Z</time>
      </trkpt>
      <trkpt lat="44.21477" lon="4.4825">
        <ele>77</ele>
        <time>2021-07-04T13:43:30Z</time>
      </trkpt>
      <trkpt lat="44.21506" lon="4.4827">
        <ele>77</ele>
        <time>2021-07-04T13:43:38Z</time>
      </trkpt>
      <trkpt lat="44.21546" lon="4.48296">
        <ele>76</ele>
        <time>2021-07-04T13:43:48Z</time>
      </trkpt>
      <trkpt lat="44.21583" lon="4.48329">
        <ele>76</ele>
        <time>2021-07-04T13:43:59Z</time>
      </trkpt>
      <trkpt lat="44.21604" lon="4.4835">
        <ele>77</ele>
        <time>2021-07-04T13:44:05Z</time>
      </trkpt>
      <trkpt lat="44.21763" lon="4.48511">
        <ele>87</ele>
        <time>2021-07-04T13:44:51Z</time>
      </trkpt>
      <trkpt lat="44.21798" lon="4.48545">
        <ele>87</ele>
        <time>2021-07-04T13:45:00Z</time>
      </trkpt>
      <trkpt lat="44.21825" lon="4.48524">
        <ele>85</ele>
        <time>2021-07-04T13:45:08Z</time>
      </trkpt>
      <trkpt lat="44.2183" lon="4.4852">
        <ele>85</ele>
        <time>2021-07-04T13:45:09Z</time>
      </trkpt>
      <trkpt lat="44.21844" lon="4.48547">
        <ele>86</ele>
        <time>2021-07-04T13:45:15Z</time>
      </trkpt>
      <trkpt lat="44.21851" lon="4.48557">
        <ele>86</ele>
        <time>2021-07-04T13:45:17Z</time>
      </trkpt>
      <trkpt lat="44.21826" lon="4.48581">
        <ele>89</ele>
        <time>2021-07-04T13:45:24Z</time>
      </trkpt>
      <trkpt lat="44.21819" lon="4.48567">
        <ele>88</ele>
        <time>2021-07-04T13:45:27Z</time>
      </trkpt>
    </trkseg>
  </trk>
  <trk>
    <name><![CDATA[Vert Cornillon La Bastide]]></name>
    <extensions>
      <line xmlns="http://www.topografix.com/GPX/gpx_style/0/2">
        <color>00ff00</color>
        <width>4</width>
      </line>
    </extensions>
    <trkseg>
      <trkpt lat="44.21814" lon="4.48562">
        <ele>88</ele>
        <time>2021-07-04T13:02:41Z</time>
      </trkpt>
      <trkpt lat="44.21814" lon="4.48562">
        <ele>88</ele>
        <time>2021-07-04T13:02:41Z</time>
      </trkpt>
      <trkpt lat="44.22162" lon="4.48045">
        <ele>84</ele>
        <time>2021-07-04T13:04:40Z</time>
      </trkpt>
      <trkpt lat="44.21869" lon="4.47693">
        <ele>78</ele>
        <time>2021-07-04T13:06:10Z</time>
      </trkpt>
      <trkpt lat="44.21717" lon="4.47425">
        <ele>80</ele>
        <time>2021-07-04T13:07:07Z</time>
      </trkpt>
      <trkpt lat="44.21644" lon="4.47243">
        <ele>79</ele>
        <time>2021-07-04T13:07:42Z</time>
      </trkpt>
      <trkpt lat="44.2165" lon="4.47061">
        <ele>79</ele>
        <time>2021-07-04T13:08:13Z</time>
      </trkpt>
      <trkpt lat="44.2159" lon="4.4694">
        <ele>79</ele>
        <time>2021-07-04T13:08:37Z</time>
      </trkpt>
      <trkpt lat="44.21479" lon="4.47003">
        <ele>79</ele>
        <time>2021-07-04T13:09:05Z</time>
      </trkpt>
      <trkpt lat="44.21406" lon="4.47031">
        <ele>78</ele>
        <time>2021-07-04T13:09:23Z</time>
      </trkpt>
      <trkpt lat="44.21311" lon="4.46983">
        <ele>76</ele>
        <time>2021-07-04T13:09:46Z</time>
      </trkpt>
      <trkpt lat="44.21162" lon="4.46964">
        <ele>80</ele>
        <time>2021-07-04T13:10:21Z</time>
      </trkpt>
      <trkpt lat="44.21034" lon="4.46919">
        <ele>80</ele>
        <time>2021-07-04T13:10:52Z</time>
      </trkpt>
      <trkpt lat="44.21016" lon="4.46871">
        <ele>80</ele>
        <time>2021-07-04T13:11:01Z</time>
      </trkpt>
      <trkpt lat="44.21046" lon="4.46809">
        <ele>79</ele>
        <time>2021-07-04T13:11:14Z</time>
      </trkpt>
      <trkpt lat="44.21018" lon="4.46766">
        <ele>78</ele>
        <time>2021-07-04T13:11:24Z</time>
      </trkpt>
      <trkpt lat="44.20932" lon="4.46737">
        <ele>75</ele>
        <time>2021-07-04T13:11:44Z</time>
      </trkpt>
      <trkpt lat="44.20708" lon="4.46567">
        <ele>78</ele>
        <time>2021-07-04T13:12:44Z</time>
      </trkpt>
      <trkpt lat="44.2066" lon="4.46537">
        <ele>80</ele>
        <time>2021-07-04T13:12:56Z</time>
      </trkpt>
      <trkpt lat="44.20572" lon="4.46528">
        <ele>81</ele>
        <time>2021-07-04T13:13:17Z</time>
      </trkpt>
      <trkpt lat="44.20558" lon="4.46503">
        <ele>82</ele>
        <time>2021-07-04T13:13:22Z</time>
      </trkpt>
      <trkpt lat="44.20497" lon="4.46476">
        <ele>82</ele>
        <time>2021-07-04T13:13:37Z</time>
      </trkpt>
      <trkpt lat="44.20403" lon="4.46365">
        <ele>86</ele>
        <time>2021-07-04T13:14:06Z</time>
      </trkpt>
      <trkpt lat="44.20333" lon="4.463">
        <ele>87</ele>
        <time>2021-07-04T13:14:25Z</time>
      </trkpt>
      <trkpt lat="44.20295" lon="4.46287">
        <ele>90</ele>
        <time>2021-07-04T13:14:34Z</time>
      </trkpt>
      <trkpt lat="44.20223" lon="4.46218">
        <ele>94</ele>
        <time>2021-07-04T13:14:55Z</time>
      </trkpt>
      <trkpt lat="44.20208" lon="4.46153">
        <ele>95</ele>
        <time>2021-07-04T13:15:06Z</time>
      </trkpt>
      <trkpt lat="44.20131" lon="4.46117">
        <ele>99</ele>
        <time>2021-07-04T13:15:25Z</time>
      </trkpt>
      <trkpt lat="44.20048" lon="4.46121">
        <ele>102</ele>
        <time>2021-07-04T13:15:45Z</time>
      </trkpt>
      <trkpt lat="44.20122" lon="4.46279">
        <ele>103</ele>
        <time>2021-07-04T13:16:16Z</time>
      </trkpt>
      <trkpt lat="44.2021" lon="4.46493">
        <ele>103</ele>
        <time>2021-07-04T13:16:58Z</time>
      </trkpt>
      <trkpt lat="44.20134" lon="4.46531">
        <ele>98</ele>
        <time>2021-07-04T13:17:16Z</time>
      </trkpt>
      <trkpt lat="44.20114" lon="4.46611">
        <ele>91</ele>
        <time>2021-07-04T13:17:31Z</time>
      </trkpt>
      <trkpt lat="44.20124" lon="4.46684">
        <ele>88</ele>
        <time>2021-07-04T13:17:43Z</time>
      </trkpt>
      <trkpt lat="44.20174" lon="4.46738">
        <ele>89</ele>
        <time>2021-07-04T13:17:58Z</time>
      </trkpt>
      <trkpt lat="44.20308" lon="4.46809">
        <ele>87</ele>
        <time>2021-07-04T13:18:31Z</time>
      </trkpt>
      <trkpt lat="44.20317" lon="4.4679">
        <ele>89</ele>
        <time>2021-07-04T13:18:35Z</time>
      </trkpt>
      <trkpt lat="44.20316" lon="4.46732">
        <ele>91</ele>
        <time>2021-07-04T13:18:45Z</time>
      </trkpt>
      <trkpt lat="44.20296" lon="4.46665">
        <ele>93</ele>
        <time>2021-07-04T13:18:57Z</time>
      </trkpt>
      <trkpt lat="44.20322" lon="4.46656">
        <ele>93</ele>
        <time>2021-07-04T13:19:03Z</time>
      </trkpt>
      <trkpt lat="44.20331" lon="4.46608">
        <ele>94</ele>
        <time>2021-07-04T13:19:12Z</time>
      </trkpt>
      <trkpt lat="44.20329" lon="4.4657">
        <ele>95</ele>
        <time>2021-07-04T13:19:18Z</time>
      </trkpt>
      <trkpt lat="44.2034" lon="4.46517">
        <ele>94</ele>
        <time>2021-07-04T13:19:27Z</time>
      </trkpt>
      <trkpt lat="44.20348" lon="4.46401">
        <ele>89</ele>
        <time>2021-07-04T13:19:47Z</time>
      </trkpt>
      <trkpt lat="44.20355" lon="4.46421">
        <ele>89</ele>
        <time>2021-07-04T13:19:50Z</time>
      </trkpt>
      <trkpt lat="44.20404" lon="4.4637">
        <ele>86</ele>
        <time>2021-07-04T13:20:05Z</time>
      </trkpt>
      <trkpt lat="44.20507" lon="4.46479">
        <ele>82</ele>
        <time>2021-07-04T13:20:35Z</time>
      </trkpt>
      <trkpt lat="44.20574" lon="4.46533">
        <ele>81</ele>
        <time>2021-07-04T13:20:53Z</time>
      </trkpt>
      <trkpt lat="44.20668" lon="4.46549">
        <ele>80</ele>
        <time>2021-07-04T13:21:15Z</time>
      </trkpt>
      <trkpt lat="44.20829" lon="4.46666">
        <ele>75</ele>
        <time>2021-07-04T13:21:57Z</time>
      </trkpt>
      <trkpt lat="44.21007" lon="4.46774">
        <ele>78</ele>
        <time>2021-07-04T13:22:43Z</time>
      </trkpt>
      <trkpt lat="44.21047" lon="4.46804">
        <ele>79</ele>
        <time>2021-07-04T13:22:53Z</time>
      </trkpt>
      <trkpt lat="44.20953" lon="4.46954">
        <ele>78</ele>
        <time>2021-07-04T13:23:27Z</time>
      </trkpt>
      <trkpt lat="44.20938" lon="4.46986">
        <ele>77</ele>
        <time>2021-07-04T13:23:33Z</time>
      </trkpt>
      <trkpt lat="44.20783" lon="4.46965">
        <ele>75</ele>
        <time>2021-07-04T13:24:09Z</time>
      </trkpt>
      <trkpt lat="44.20699" lon="4.47077">
        <ele>73</ele>
        <time>2021-07-04T13:24:37Z</time>
      </trkpt>
      <trkpt lat="44.20594" lon="4.47131">
        <ele>73</ele>
        <time>2021-07-04T13:25:03Z</time>
      </trkpt>
      <trkpt lat="44.20435" lon="4.47451">
        <ele>82</ele>
        <time>2021-07-04T13:26:08Z</time>
      </trkpt>
      <trkpt lat="44.20405" lon="4.47618">
        <ele>94</ele>
        <time>2021-07-04T13:26:37Z</time>
      </trkpt>
      <trkpt lat="44.20474" lon="4.47851">
        <ele>100</ele>
        <time>2021-07-04T13:27:19Z</time>
      </trkpt>
      <trkpt lat="44.20852" lon="4.47975">
        <ele>91</ele>
        <time>2021-07-04T13:28:50Z</time>
      </trkpt>
      <trkpt lat="44.21171" lon="4.48135">
        <ele>84</ele>
        <time>2021-07-04T13:30:09Z</time>
      </trkpt>
      <trkpt lat="44.21465" lon="4.48241">
        <ele>76</ele>
        <time>2021-07-04T13:31:20Z</time>
      </trkpt>
      <trkpt lat="44.21673" lon="4.48408">
        <ele>83</ele>
        <time>2021-07-04T13:32:16Z</time>
      </trkpt>
      <trkpt lat="44.21793" lon="4.4855">
        <ele>88</ele>
        <time>2021-07-04T13:32:52Z</time>
      </trkpt>
      <trkpt lat="44.21826" lon="4.48525">
        <ele>85</ele>
        <time>2021-07-04T13:33:01Z</time>
      </trkpt>
      <trkpt lat="44.21843" lon="4.48543">
        <ele>86</ele>
        <time>2021-07-04T13:33:06Z</time>
      </trkpt>
      <trkpt lat="44.21822" lon="4.4857">
        <ele>88</ele>
        <time>2021-07-04T13:33:13Z</time>
      </trkpt>
    </trkseg>
  </trk>
  <trk>
    <name><![CDATA[Bleu Cornillon Frigoulet]]></name>
    <extensions>
      <line xmlns="http://www.topografix.com/GPX/gpx_style/0/2">
        <color>0000fa</color>
        <width>4</width>
      </line>
    </extensions>
    <trkseg>
      <trkpt lat="44.21846" lon="4.48561">
        <ele>87</ele>
        <time>2021-07-04T13:04:45Z</time>
      </trkpt>
      <trkpt lat="44.21846" lon="4.48561">
        <ele>87</ele>
        <time>2021-07-04T13:04:45Z</time>
      </trkpt>
      <trkpt lat="44.21835" lon="4.48526">
        <ele>85</ele>
        <time>2021-07-04T13:04:51Z</time>
      </trkpt>
      <trkpt lat="44.22012" lon="4.48288">
        <ele>81</ele>
        <time>2021-07-04T13:05:49Z</time>
      </trkpt>
      <trkpt lat="44.22163" lon="4.48048">
        <ele>84</ele>
        <time>2021-07-04T13:06:42Z</time>
      </trkpt>
      <trkpt lat="44.21912" lon="4.47766">
        <ele>77</ele>
        <time>2021-07-04T13:07:58Z</time>
      </trkpt>
      <trkpt lat="44.21792" lon="4.47607">
        <ele>77</ele>
        <time>2021-07-04T13:08:36Z</time>
      </trkpt>
      <trkpt lat="44.21648" lon="4.47263">
        <ele>79</ele>
        <time>2021-07-04T13:09:43Z</time>
      </trkpt>
      <trkpt lat="44.21642" lon="4.47067">
        <ele>79</ele>
        <time>2021-07-04T13:10:16Z</time>
      </trkpt>
      <trkpt lat="44.2183" lon="4.47">
        <ele>79</ele>
        <time>2021-07-04T13:11:01Z</time>
      </trkpt>
      <trkpt lat="44.22009" lon="4.46782">
        <ele>82</ele>
        <time>2021-07-04T13:11:56Z</time>
      </trkpt>
      <trkpt lat="44.22149" lon="4.4677">
        <ele>95</ele>
        <time>2021-07-04T13:12:29Z</time>
      </trkpt>
      <trkpt lat="44.22108" lon="4.46563">
        <ele>95</ele>
        <time>2021-07-04T13:13:05Z</time>
      </trkpt>
      <trkpt lat="44.22061" lon="4.46339">
        <ele>86</ele>
        <time>2021-07-04T13:13:44Z</time>
      </trkpt>
      <trkpt lat="44.22116" lon="4.46277">
        <ele>84</ele>
        <time>2021-07-04T13:14:01Z</time>
      </trkpt>
      <trkpt lat="44.2221" lon="4.46219">
        <ele>81</ele>
        <time>2021-07-04T13:14:25Z</time>
      </trkpt>
      <trkpt lat="44.22248" lon="4.46157">
        <ele>79</ele>
        <time>2021-07-04T13:14:38Z</time>
      </trkpt>
      <trkpt lat="44.22282" lon="4.4606">
        <ele>80</ele>
        <time>2021-07-04T13:14:56Z</time>
      </trkpt>
      <trkpt lat="44.22294" lon="4.46022">
        <ele>80</ele>
        <time>2021-07-04T13:15:03Z</time>
      </trkpt>
      <trkpt lat="44.22371" lon="4.45951">
        <ele>82</ele>
        <time>2021-07-04T13:15:25Z</time>
      </trkpt>
      <trkpt lat="44.22454" lon="4.45877">
        <ele>81</ele>
        <time>2021-07-04T13:15:48Z</time>
      </trkpt>
      <trkpt lat="44.22547" lon="4.45793">
        <ele>83</ele>
        <time>2021-07-04T13:16:14Z</time>
      </trkpt>
      <trkpt lat="44.22596" lon="4.4571">
        <ele>84</ele>
        <time>2021-07-04T13:16:32Z</time>
      </trkpt>
      <trkpt lat="44.22621" lon="4.45659">
        <ele>83</ele>
        <time>2021-07-04T13:16:42Z</time>
      </trkpt>
      <trkpt lat="44.22629" lon="4.45537">
        <ele>83</ele>
        <time>2021-07-04T13:17:03Z</time>
      </trkpt>
      <trkpt lat="44.22633" lon="4.45418">
        <ele>86</ele>
        <time>2021-07-04T13:17:23Z</time>
      </trkpt>
      <trkpt lat="44.22669" lon="4.45234">
        <ele>87</ele>
        <time>2021-07-04T13:17:55Z</time>
      </trkpt>
      <trkpt lat="44.22685" lon="4.45018">
        <ele>93</ele>
        <time>2021-07-04T13:18:31Z</time>
      </trkpt>
      <trkpt lat="44.22701" lon="4.4497">
        <ele>90</ele>
        <time>2021-07-04T13:18:40Z</time>
      </trkpt>
      <trkpt lat="44.22801" lon="4.44855">
        <ele>84</ele>
        <time>2021-07-04T13:19:10Z</time>
      </trkpt>
      <trkpt lat="44.22923" lon="4.44731">
        <ele>88</ele>
        <time>2021-07-04T13:19:45Z</time>
      </trkpt>
      <trkpt lat="44.23055" lon="4.44591">
        <ele>87</ele>
        <time>2021-07-04T13:20:24Z</time>
      </trkpt>
      <trkpt lat="44.23129" lon="4.44579">
        <ele>83</ele>
        <time>2021-07-04T13:20:41Z</time>
      </trkpt>
      <trkpt lat="44.23158" lon="4.44525">
        <ele>88</ele>
        <time>2021-07-04T13:20:53Z</time>
      </trkpt>
      <trkpt lat="44.23178" lon="4.4441">
        <ele>92</ele>
        <time>2021-07-04T13:21:12Z</time>
      </trkpt>
      <trkpt lat="44.23226" lon="4.44301">
        <ele>92</ele>
        <time>2021-07-04T13:21:34Z</time>
      </trkpt>
      <trkpt lat="44.233" lon="4.44234">
        <ele>89</ele>
        <time>2021-07-04T13:21:54Z</time>
      </trkpt>
      <trkpt lat="44.23427" lon="4.44109">
        <ele>92</ele>
        <time>2021-07-04T13:22:31Z</time>
      </trkpt>
      <trkpt lat="44.23529" lon="4.44017">
        <ele>92</ele>
        <time>2021-07-04T13:22:59Z</time>
      </trkpt>
      <trkpt lat="44.23761" lon="4.43903">
        <ele>92</ele>
        <time>2021-07-04T13:23:57Z</time>
      </trkpt>
      <trkpt lat="44.23886" lon="4.43911">
        <ele>93</ele>
        <time>2021-07-04T13:24:26Z</time>
      </trkpt>
      <trkpt lat="44.23968" lon="4.43867">
        <ele>98</ele>
        <time>2021-07-04T13:24:46Z</time>
      </trkpt>
      <trkpt lat="44.23993" lon="4.43925">
        <ele>96</ele>
        <time>2021-07-04T13:24:58Z</time>
      </trkpt>
      <trkpt lat="44.24119" lon="4.43994">
        <ele>98</ele>
        <time>2021-07-04T13:25:29Z</time>
      </trkpt>
      <trkpt lat="44.24181" lon="4.43984">
        <ele>104</ele>
        <time>2021-07-04T13:25:44Z</time>
      </trkpt>
      <trkpt lat="44.24215" lon="4.44098">
        <ele>99</ele>
        <time>2021-07-04T13:26:04Z</time>
      </trkpt>
      <trkpt lat="44.24303" lon="4.44217">
        <ele>97</ele>
        <time>2021-07-04T13:26:33Z</time>
      </trkpt>
      <trkpt lat="44.24419" lon="4.44396">
        <ele>96</ele>
        <time>2021-07-04T13:27:13Z</time>
      </trkpt>
      <trkpt lat="44.24551" lon="4.44588">
        <ele>95</ele>
        <time>2021-07-04T13:27:58Z</time>
      </trkpt>
      <trkpt lat="44.24687" lon="4.44807">
        <ele>91</ele>
        <time>2021-07-04T13:28:46Z</time>
      </trkpt>
      <trkpt lat="44.2479" lon="4.44831">
        <ele>94</ele>
        <time>2021-07-04T13:29:11Z</time>
      </trkpt>
      <trkpt lat="44.24825" lon="4.44972">
        <ele>96</ele>
        <time>2021-07-04T13:29:36Z</time>
      </trkpt>
      <trkpt lat="44.24625" lon="4.45073">
        <ele>93</ele>
        <time>2021-07-04T13:30:25Z</time>
      </trkpt>
      <trkpt lat="44.24441" lon="4.45098">
        <ele>93</ele>
        <time>2021-07-04T13:31:09Z</time>
      </trkpt>
      <trkpt lat="44.2436" lon="4.45121">
        <ele>92</ele>
        <time>2021-07-04T13:31:28Z</time>
      </trkpt>
      <trkpt lat="44.24226" lon="4.45219">
        <ele>90</ele>
        <time>2021-07-04T13:32:03Z</time>
      </trkpt>
      <trkpt lat="44.2425" lon="4.45289">
        <ele>92</ele>
        <time>2021-07-04T13:32:16Z</time>
      </trkpt>
      <trkpt lat="44.2425" lon="4.45433">
        <ele>94</ele>
        <time>2021-07-04T13:32:40Z</time>
      </trkpt>
      <trkpt lat="44.24222" lon="4.45466">
        <ele>96</ele>
        <time>2021-07-04T13:32:49Z</time>
      </trkpt>
      <trkpt lat="44.24181" lon="4.45489">
        <ele>96</ele>
        <time>2021-07-04T13:32:59Z</time>
      </trkpt>
      <trkpt lat="44.24175" lon="4.45668">
        <ele>98</ele>
        <time>2021-07-04T13:33:29Z</time>
      </trkpt>
      <trkpt lat="44.24185" lon="4.45743">
        <ele>101</ele>
        <time>2021-07-04T13:33:42Z</time>
      </trkpt>
      <trkpt lat="44.24119" lon="4.4579">
        <ele>105</ele>
        <time>2021-07-04T13:33:59Z</time>
      </trkpt>
      <trkpt lat="44.24108" lon="4.45872">
        <ele>102</ele>
        <time>2021-07-04T13:34:13Z</time>
      </trkpt>
      <trkpt lat="44.24035" lon="4.45838">
        <ele>107</ele>
        <time>2021-07-04T13:34:31Z</time>
      </trkpt>
      <trkpt lat="44.24048" lon="4.45796">
        <ele>110</ele>
        <time>2021-07-04T13:34:39Z</time>
      </trkpt>
      <trkpt lat="44.24044" lon="4.45748">
        <ele>114</ele>
        <time>2021-07-04T13:34:47Z</time>
      </trkpt>
      <trkpt lat="44.24043" lon="4.45727">
        <ele>116</ele>
        <time>2021-07-04T13:34:50Z</time>
      </trkpt>
      <trkpt lat="44.24025" lon="4.45716">
        <ele>117</ele>
        <time>2021-07-04T13:34:55Z</time>
      </trkpt>
      <trkpt lat="44.23993" lon="4.45716">
        <ele>119</ele>
        <time>2021-07-04T13:35:03Z</time>
      </trkpt>
      <trkpt lat="44.23941" lon="4.45755">
        <ele>117</ele>
        <time>2021-07-04T13:35:16Z</time>
      </trkpt>
      <trkpt lat="44.23911" lon="4.45787">
        <ele>116</ele>
        <time>2021-07-04T13:35:25Z</time>
      </trkpt>
      <trkpt lat="44.23962" lon="4.45818">
        <ele>113</ele>
        <time>2021-07-04T13:35:38Z</time>
      </trkpt>
      <trkpt lat="44.24004" lon="4.4585">
        <ele>109</ele>
        <time>2021-07-04T13:35:49Z</time>
      </trkpt>
      <trkpt lat="44.24" lon="4.45918">
        <ele>106</ele>
        <time>2021-07-04T13:36:01Z</time>
      </trkpt>
      <trkpt lat="44.24001" lon="4.45933">
        <ele>106</ele>
        <time>2021-07-04T13:36:03Z</time>
      </trkpt>
      <trkpt lat="44.24019" lon="4.45974">
        <ele>106</ele>
        <time>2021-07-04T13:36:11Z</time>
      </trkpt>
      <trkpt lat="44.24017" lon="4.46006">
        <ele>107</ele>
        <time>2021-07-04T13:36:17Z</time>
      </trkpt>
      <trkpt lat="44.23972" lon="4.461">
        <ele>111</ele>
        <time>2021-07-04T13:36:36Z</time>
      </trkpt>
      <trkpt lat="44.23924" lon="4.46168">
        <ele>114</ele>
        <time>2021-07-04T13:36:52Z</time>
      </trkpt>
      <trkpt lat="44.23912" lon="4.4619">
        <ele>114</ele>
        <time>2021-07-04T13:36:56Z</time>
      </trkpt>
      <trkpt lat="44.23952" lon="4.46237">
        <ele>115</ele>
        <time>2021-07-04T13:37:08Z</time>
      </trkpt>
      <trkpt lat="44.23985" lon="4.46271">
        <ele>117</ele>
        <time>2021-07-04T13:37:18Z</time>
      </trkpt>
      <trkpt lat="44.2398" lon="4.46294">
        <ele>118</ele>
        <time>2021-07-04T13:37:22Z</time>
      </trkpt>
      <trkpt lat="44.23993" lon="4.46351">
        <ele>121</ele>
        <time>2021-07-04T13:37:32Z</time>
      </trkpt>
      <trkpt lat="44.23985" lon="4.4644">
        <ele>127</ele>
        <time>2021-07-04T13:37:47Z</time>
      </trkpt>
      <trkpt lat="44.23979" lon="4.46556">
        <ele>131</ele>
        <time>2021-07-04T13:38:06Z</time>
      </trkpt>
      <trkpt lat="44.23969" lon="4.46597">
        <ele>133</ele>
        <time>2021-07-04T13:38:14Z</time>
      </trkpt>
      <trkpt lat="44.23986" lon="4.46631">
        <ele>134</ele>
        <time>2021-07-04T13:38:21Z</time>
      </trkpt>
      <trkpt lat="44.23935" lon="4.47017">
        <ele>131</ele>
        <time>2021-07-04T13:39:26Z</time>
      </trkpt>
      <trkpt lat="44.23925" lon="4.47051">
        <ele>131</ele>
        <time>2021-07-04T13:39:32Z</time>
      </trkpt>
      <trkpt lat="44.23932" lon="4.471">
        <ele>133</ele>
        <time>2021-07-04T13:39:41Z</time>
      </trkpt>
      <trkpt lat="44.23925" lon="4.4717">
        <ele>134</ele>
        <time>2021-07-04T13:39:53Z</time>
      </trkpt>
      <trkpt lat="44.23927" lon="4.47255">
        <ele>138</ele>
        <time>2021-07-04T13:40:07Z</time>
      </trkpt>
      <trkpt lat="44.23967" lon="4.4729">
        <ele>141</ele>
        <time>2021-07-04T13:40:18Z</time>
      </trkpt>
      <trkpt lat="44.23973" lon="4.47344">
        <ele>142</ele>
        <time>2021-07-04T13:40:27Z</time>
      </trkpt>
      <trkpt lat="44.23991" lon="4.4741">
        <ele>144</ele>
        <time>2021-07-04T13:40:39Z</time>
      </trkpt>
      <trkpt lat="44.24001" lon="4.47509">
        <ele>153</ele>
        <time>2021-07-04T13:40:56Z</time>
      </trkpt>
      <trkpt lat="44.24" lon="4.47558">
        <ele>156</ele>
        <time>2021-07-04T13:41:04Z</time>
      </trkpt>
      <trkpt lat="44.23988" lon="4.47636">
        <ele>158</ele>
        <time>2021-07-04T13:41:17Z</time>
      </trkpt>
      <trkpt lat="44.23983" lon="4.4769">
        <ele>159</ele>
        <time>2021-07-04T13:41:26Z</time>
      </trkpt>
      <trkpt lat="44.23977" lon="4.47708">
        <ele>159</ele>
        <time>2021-07-04T13:41:30Z</time>
      </trkpt>
      <trkpt lat="44.23982" lon="4.47886">
        <ele>170</ele>
        <time>2021-07-04T13:41:59Z</time>
      </trkpt>
      <trkpt lat="44.24023" lon="4.47924">
        <ele>178</ele>
        <time>2021-07-04T13:42:11Z</time>
      </trkpt>
      <trkpt lat="44.24012" lon="4.48108">
        <ele>185</ele>
        <time>2021-07-04T13:42:42Z</time>
      </trkpt>
      <trkpt lat="44.24045" lon="4.48222">
        <ele>190</ele>
        <time>2021-07-04T13:43:02Z</time>
      </trkpt>
      <trkpt lat="44.24075" lon="4.48315">
        <ele>189</ele>
        <time>2021-07-04T13:43:19Z</time>
      </trkpt>
      <trkpt lat="44.24055" lon="4.48346">
        <ele>180</ele>
        <time>2021-07-04T13:43:26Z</time>
      </trkpt>
      <trkpt lat="44.24054" lon="4.48373">
        <ele>177</ele>
        <time>2021-07-04T13:43:31Z</time>
      </trkpt>
      <trkpt lat="44.24073" lon="4.48418">
        <ele>176</ele>
        <time>2021-07-04T13:43:40Z</time>
      </trkpt>
      <trkpt lat="44.24093" lon="4.48575">
        <ele>170</ele>
        <time>2021-07-04T13:44:06Z</time>
      </trkpt>
      <trkpt lat="44.241" lon="4.48614">
        <ele>169</ele>
        <time>2021-07-04T13:44:13Z</time>
      </trkpt>
      <trkpt lat="44.24113" lon="4.48632">
        <ele>170</ele>
        <time>2021-07-04T13:44:17Z</time>
      </trkpt>
      <trkpt lat="44.24143" lon="4.4864">
        <ele>175</ele>
        <time>2021-07-04T13:44:24Z</time>
      </trkpt>
      <trkpt lat="44.24174" lon="4.48677">
        <ele>177</ele>
        <time>2021-07-04T13:44:34Z</time>
      </trkpt>
      <trkpt lat="44.24188" lon="4.48704">
        <ele>180</ele>
        <time>2021-07-04T13:44:40Z</time>
      </trkpt>
      <trkpt lat="44.24189" lon="4.48715">
        <ele>179</ele>
        <time>2021-07-04T13:44:41Z</time>
      </trkpt>
      <trkpt lat="44.24183" lon="4.48715">
        <ele>178</ele>
        <time>2021-07-04T13:44:43Z</time>
      </trkpt>
      <trkpt lat="44.24176" lon="4.48707">
        <ele>176</ele>
        <time>2021-07-04T13:44:45Z</time>
      </trkpt>
      <trkpt lat="44.24165" lon="4.48702">
        <ele>174</ele>
        <time>2021-07-04T13:44:48Z</time>
      </trkpt>
      <trkpt lat="44.24152" lon="4.48707">
        <ele>172</ele>
        <time>2021-07-04T13:44:51Z</time>
      </trkpt>
      <trkpt lat="44.24125" lon="4.48706">
        <ele>167</ele>
        <time>2021-07-04T13:44:57Z</time>
      </trkpt>
      <trkpt lat="44.24106" lon="4.48712">
        <ele>163</ele>
        <time>2021-07-04T13:45:02Z</time>
      </trkpt>
      <trkpt lat="44.24099" lon="4.48719">
        <ele>162</ele>
        <time>2021-07-04T13:45:04Z</time>
      </trkpt>
      <trkpt lat="44.24101" lon="4.48761">
        <ele>160</ele>
        <time>2021-07-04T13:45:11Z</time>
      </trkpt>
      <trkpt lat="44.2411" lon="4.48777">
        <ele>162</ele>
        <time>2021-07-04T13:45:14Z</time>
      </trkpt>
      <trkpt lat="44.24125" lon="4.48794">
        <ele>164</ele>
        <time>2021-07-04T13:45:19Z</time>
      </trkpt>
      <trkpt lat="44.24129" lon="4.48818">
        <ele>165</ele>
        <time>2021-07-04T13:45:23Z</time>
      </trkpt>
      <trkpt lat="44.24131" lon="4.48833">
        <ele>165</ele>
        <time>2021-07-04T13:45:25Z</time>
      </trkpt>
      <trkpt lat="44.24147" lon="4.48864">
        <ele>168</ele>
        <time>2021-07-04T13:45:32Z</time>
      </trkpt>
      <trkpt lat="44.24155" lon="4.48883">
        <ele>170</ele>
        <time>2021-07-04T13:45:35Z</time>
      </trkpt>
      <trkpt lat="44.24154" lon="4.48898">
        <ele>171</ele>
        <time>2021-07-04T13:45:38Z</time>
      </trkpt>
      <trkpt lat="44.24146" lon="4.48902">
        <ele>171</ele>
        <time>2021-07-04T13:45:40Z</time>
      </trkpt>
      <trkpt lat="44.24136" lon="4.48895">
        <ele>169</ele>
        <time>2021-07-04T13:45:42Z</time>
      </trkpt>
      <trkpt lat="44.24129" lon="4.48899">
        <ele>169</ele>
        <time>2021-07-04T13:45:44Z</time>
      </trkpt>
      <trkpt lat="44.24129" lon="4.48912">
        <ele>170</ele>
        <time>2021-07-04T13:45:46Z</time>
      </trkpt>
      <trkpt lat="44.24133" lon="4.48945">
        <ele>173</ele>
        <time>2021-07-04T13:45:52Z</time>
      </trkpt>
      <trkpt lat="44.24141" lon="4.48968">
        <ele>175</ele>
        <time>2021-07-04T13:45:56Z</time>
      </trkpt>
      <trkpt lat="44.24159" lon="4.48995">
        <ele>179</ele>
        <time>2021-07-04T13:46:02Z</time>
      </trkpt>
      <trkpt lat="44.24174" lon="4.49021">
        <ele>182</ele>
        <time>2021-07-04T13:46:08Z</time>
      </trkpt>
      <trkpt lat="44.24136" lon="4.49077">
        <ele>183</ele>
        <time>2021-07-04T13:46:21Z</time>
      </trkpt>
      <trkpt lat="44.24129" lon="4.49123">
        <ele>187</ele>
        <time>2021-07-04T13:46:29Z</time>
      </trkpt>
      <trkpt lat="44.24075" lon="4.49136">
        <ele>182</ele>
        <time>2021-07-04T13:46:42Z</time>
      </trkpt>
      <trkpt lat="44.24027" lon="4.49178">
        <ele>182</ele>
        <time>2021-07-04T13:46:55Z</time>
      </trkpt>
      <trkpt lat="44.24005" lon="4.49211">
        <ele>183</ele>
        <time>2021-07-04T13:47:02Z</time>
      </trkpt>
      <trkpt lat="44.23965" lon="4.49237">
        <ele>185</ele>
        <time>2021-07-04T13:47:13Z</time>
      </trkpt>
      <trkpt lat="44.23917" lon="4.49197">
        <ele>182</ele>
        <time>2021-07-04T13:47:26Z</time>
      </trkpt>
      <trkpt lat="44.23896" lon="4.49151">
        <ele>180</ele>
        <time>2021-07-04T13:47:35Z</time>
      </trkpt>
      <trkpt lat="44.23848" lon="4.49125">
        <ele>180</ele>
        <time>2021-07-04T13:47:47Z</time>
      </trkpt>
      <trkpt lat="44.23836" lon="4.49111">
        <ele>180</ele>
        <time>2021-07-04T13:47:51Z</time>
      </trkpt>
      <trkpt lat="44.23823" lon="4.49029">
        <ele>177</ele>
        <time>2021-07-04T13:48:05Z</time>
      </trkpt>
      <trkpt lat="44.23809" lon="4.48932">
        <ele>174</ele>
        <time>2021-07-04T13:48:21Z</time>
      </trkpt>
      <trkpt lat="44.23784" lon="4.48909">
        <ele>174</ele>
        <time>2021-07-04T13:48:28Z</time>
      </trkpt>
      <trkpt lat="44.23751" lon="4.48909">
        <ele>176</ele>
        <time>2021-07-04T13:48:36Z</time>
      </trkpt>
      <trkpt lat="44.23728" lon="4.48909">
        <ele>180</ele>
        <time>2021-07-04T13:48:41Z</time>
      </trkpt>
      <trkpt lat="44.23666" lon="4.48743">
        <ele>176</ele>
        <time>2021-07-04T13:49:13Z</time>
      </trkpt>
      <trkpt lat="44.2364" lon="4.48668">
        <ele>175</ele>
        <time>2021-07-04T13:49:26Z</time>
      </trkpt>
      <trkpt lat="44.23608" lon="4.48613">
        <ele>178</ele>
        <time>2021-07-04T13:49:38Z</time>
      </trkpt>
      <trkpt lat="44.23576" lon="4.48561">
        <ele>178</ele>
        <time>2021-07-04T13:49:50Z</time>
      </trkpt>
      <trkpt lat="44.23533" lon="4.48508">
        <ele>174</ele>
        <time>2021-07-04T13:50:03Z</time>
      </trkpt>
      <trkpt lat="44.23505" lon="4.48479">
        <ele>171</ele>
        <time>2021-07-04T13:50:11Z</time>
      </trkpt>
      <trkpt lat="44.2349" lon="4.48482">
        <ele>171</ele>
        <time>2021-07-04T13:50:15Z</time>
      </trkpt>
      <trkpt lat="44.23442" lon="4.48555">
        <ele>172</ele>
        <time>2021-07-04T13:50:31Z</time>
      </trkpt>
      <trkpt lat="44.23413" lon="4.48595">
        <ele>171</ele>
        <time>2021-07-04T13:50:41Z</time>
      </trkpt>
      <trkpt lat="44.23372" lon="4.4864">
        <ele>167</ele>
        <time>2021-07-04T13:50:53Z</time>
      </trkpt>
      <trkpt lat="44.23366" lon="4.48641">
        <ele>166</ele>
        <time>2021-07-04T13:50:55Z</time>
      </trkpt>
      <trkpt lat="44.23367" lon="4.48632">
        <ele>166</ele>
        <time>2021-07-04T13:50:56Z</time>
      </trkpt>
      <trkpt lat="44.23386" lon="4.48605">
        <ele>167</ele>
        <time>2021-07-04T13:51:02Z</time>
      </trkpt>
      <trkpt lat="44.23395" lon="4.48555">
        <ele>163</ele>
        <time>2021-07-04T13:51:11Z</time>
      </trkpt>
      <trkpt lat="44.23353" lon="4.4854">
        <ele>155</ele>
        <time>2021-07-04T13:51:21Z</time>
      </trkpt>
      <trkpt lat="44.23294" lon="4.48528">
        <ele>150</ele>
        <time>2021-07-04T13:51:35Z</time>
      </trkpt>
      <trkpt lat="44.23248" lon="4.48503">
        <ele>148</ele>
        <time>2021-07-04T13:51:47Z</time>
      </trkpt>
      <trkpt lat="44.23219" lon="4.4847">
        <ele>148</ele>
        <time>2021-07-04T13:51:55Z</time>
      </trkpt>
      <trkpt lat="44.23189" lon="4.48447">
        <ele>149</ele>
        <time>2021-07-04T13:52:03Z</time>
      </trkpt>
      <trkpt lat="44.2317" lon="4.48438">
        <ele>150</ele>
        <time>2021-07-04T13:52:08Z</time>
      </trkpt>
      <trkpt lat="44.23149" lon="4.48444">
        <ele>149</ele>
        <time>2021-07-04T13:52:13Z</time>
      </trkpt>
      <trkpt lat="44.23089" lon="4.48557">
        <ele>146</ele>
        <time>2021-07-04T13:52:37Z</time>
      </trkpt>
      <trkpt lat="44.23014" lon="4.48625">
        <ele>146</ele>
        <time>2021-07-04T13:52:57Z</time>
      </trkpt>
      <trkpt lat="44.2292" lon="4.48655">
        <ele>140</ele>
        <time>2021-07-04T13:53:20Z</time>
      </trkpt>
      <trkpt lat="44.22904" lon="4.48685">
        <ele>140</ele>
        <time>2021-07-04T13:53:26Z</time>
      </trkpt>
      <trkpt lat="44.22911" lon="4.48811">
        <ele>140</ele>
        <time>2021-07-04T13:53:47Z</time>
      </trkpt>
      <trkpt lat="44.22877" lon="4.48919">
        <ele>138</ele>
        <time>2021-07-04T13:54:07Z</time>
      </trkpt>
      <trkpt lat="44.22786" lon="4.48979">
        <ele>139</ele>
        <time>2021-07-04T13:54:31Z</time>
      </trkpt>
      <trkpt lat="44.22704" lon="4.49">
        <ele>141</ele>
        <time>2021-07-04T13:54:50Z</time>
      </trkpt>
      <trkpt lat="44.22658" lon="4.49024">
        <ele>145</ele>
        <time>2021-07-04T13:55:02Z</time>
      </trkpt>
      <trkpt lat="44.2264" lon="4.49017">
        <ele>146</ele>
        <time>2021-07-04T13:55:06Z</time>
      </trkpt>
      <trkpt lat="44.22623" lon="4.48934">
        <ele>144</ele>
        <time>2021-07-04T13:55:20Z</time>
      </trkpt>
      <trkpt lat="44.22529" lon="4.48856">
        <ele>158</ele>
        <time>2021-07-04T13:55:46Z</time>
      </trkpt>
      <trkpt lat="44.22532" lon="4.48768">
        <ele>161</ele>
        <time>2021-07-04T13:56:01Z</time>
      </trkpt>
      <trkpt lat="44.22555" lon="4.48614">
        <ele>150</ele>
        <time>2021-07-04T13:56:27Z</time>
      </trkpt>
      <trkpt lat="44.22535" lon="4.48511">
        <ele>141</ele>
        <time>2021-07-04T13:56:45Z</time>
      </trkpt>
      <trkpt lat="44.22483" lon="4.48483">
        <ele>139</ele>
        <time>2021-07-04T13:56:58Z</time>
      </trkpt>
      <trkpt lat="44.22449" lon="4.48509">
        <ele>139</ele>
        <time>2021-07-04T13:57:07Z</time>
      </trkpt>
      <trkpt lat="44.22388" lon="4.48622">
        <ele>140</ele>
        <time>2021-07-04T13:57:31Z</time>
      </trkpt>
      <trkpt lat="44.22334" lon="4.48734">
        <ele>133</ele>
        <time>2021-07-04T13:57:53Z</time>
      </trkpt>
      <trkpt lat="44.22315" lon="4.48761">
        <ele>134</ele>
        <time>2021-07-04T13:58:00Z</time>
      </trkpt>
      <trkpt lat="44.22259" lon="4.48765">
        <ele>130</ele>
        <time>2021-07-04T13:58:13Z</time>
      </trkpt>
      <trkpt lat="44.22236" lon="4.48731">
        <ele>123</ele>
        <time>2021-07-04T13:58:20Z</time>
      </trkpt>
      <trkpt lat="44.22202" lon="4.48706">
        <ele>115</ele>
        <time>2021-07-04T13:58:29Z</time>
      </trkpt>
      <trkpt lat="44.22125" lon="4.48713">
        <ele>112</ele>
        <time>2021-07-04T13:58:47Z</time>
      </trkpt>
      <trkpt lat="44.22048" lon="4.48733">
        <ele>108</ele>
        <time>2021-07-04T13:59:06Z</time>
      </trkpt>
      <trkpt lat="44.2197" lon="4.48768">
        <ele>104</ele>
        <time>2021-07-04T13:59:25Z</time>
      </trkpt>
      <trkpt lat="44.21909" lon="4.48807">
        <ele>99</ele>
        <time>2021-07-04T13:59:41Z</time>
      </trkpt>
      <trkpt lat="44.21892" lon="4.48805">
        <ele>97</ele>
        <time>2021-07-04T13:59:45Z</time>
      </trkpt>
      <trkpt lat="44.21869" lon="4.48752">
        <ele>92</ele>
        <time>2021-07-04T13:59:55Z</time>
      </trkpt>
      <trkpt lat="44.21869" lon="4.48709">
        <ele>91</ele>
        <time>2021-07-04T14:00:02Z</time>
      </trkpt>
      <trkpt lat="44.21874" lon="4.48671">
        <ele>91</ele>
        <time>2021-07-04T14:00:09Z</time>
      </trkpt>
      <trkpt lat="44.21831" lon="4.48654">
        <ele>92</ele>
        <time>2021-07-04T14:00:19Z</time>
      </trkpt>
      <trkpt lat="44.21815" lon="4.48601">
        <ele>90</ele>
        <time>2021-07-04T14:00:29Z</time>
      </trkpt>
      <trkpt lat="44.21828" lon="4.48572">
        <ele>88</ele>
        <time>2021-07-04T14:00:34Z</time>
      </trkpt>
    </trkseg>
  </trk>
  <trk>
    <name><![CDATA[Rouge Cornillon Frigoulet]]></name>
    <extensions>
      <line xmlns="http://www.topografix.com/GPX/gpx_style/0/2">
        <color>fa0000</color>
        <width>4</width>
      </line>
    </extensions>
    <trkseg>
      <trkpt lat="44.21825" lon="4.48561">
        <ele>88</ele>
        <time>2021-07-04T13:05:11Z</time>
      </trkpt>
      <trkpt lat="44.21825" lon="4.48561">
        <ele>88</ele>
        <time>2021-07-04T13:05:11Z</time>
      </trkpt>
      <trkpt lat="44.21834" lon="4.48531">
        <ele>85</ele>
        <time>2021-07-04T13:05:16Z</time>
      </trkpt>
      <trkpt lat="44.21952" lon="4.48376">
        <ele>81</ele>
        <time>2021-07-04T13:05:54Z</time>
      </trkpt>
      <trkpt lat="44.22178" lon="4.48044">
        <ele>85</ele>
        <time>2021-07-04T13:07:11Z</time>
      </trkpt>
      <trkpt lat="44.22074" lon="4.47925">
        <ele>79</ele>
        <time>2021-07-04T13:07:42Z</time>
      </trkpt>
      <trkpt lat="44.21937" lon="4.47766">
        <ele>77</ele>
        <time>2021-07-04T13:08:24Z</time>
      </trkpt>
      <trkpt lat="44.218" lon="4.47608">
        <ele>77</ele>
        <time>2021-07-04T13:09:05Z</time>
      </trkpt>
      <trkpt lat="44.2175" lon="4.47495">
        <ele>79</ele>
        <time>2021-07-04T13:09:28Z</time>
      </trkpt>
      <trkpt lat="44.21652" lon="4.47268">
        <ele>80</ele>
        <time>2021-07-04T13:10:12Z</time>
      </trkpt>
      <trkpt lat="44.21641" lon="4.47166">
        <ele>78</ele>
        <time>2021-07-04T13:10:29Z</time>
      </trkpt>
      <trkpt lat="44.2165" lon="4.47064">
        <ele>79</ele>
        <time>2021-07-04T13:10:47Z</time>
      </trkpt>
      <trkpt lat="44.2172" lon="4.47035">
        <ele>78</ele>
        <time>2021-07-04T13:11:04Z</time>
      </trkpt>
      <trkpt lat="44.21849" lon="4.46987">
        <ele>79</ele>
        <time>2021-07-04T13:11:35Z</time>
      </trkpt>
      <trkpt lat="44.21944" lon="4.46864">
        <ele>80</ele>
        <time>2021-07-04T13:12:05Z</time>
      </trkpt>
      <trkpt lat="44.22022" lon="4.46769">
        <ele>83</ele>
        <time>2021-07-04T13:12:29Z</time>
      </trkpt>
      <trkpt lat="44.22048" lon="4.46782">
        <ele>85</ele>
        <time>2021-07-04T13:12:36Z</time>
      </trkpt>
      <trkpt lat="44.22136" lon="4.46773">
        <ele>94</ele>
        <time>2021-07-04T13:12:56Z</time>
      </trkpt>
      <trkpt lat="44.22152" lon="4.46743">
        <ele>98</ele>
        <time>2021-07-04T13:13:02Z</time>
      </trkpt>
      <trkpt lat="44.22145" lon="4.467">
        <ele>99</ele>
        <time>2021-07-04T13:13:10Z</time>
      </trkpt>
      <trkpt lat="44.22132" lon="4.4665">
        <ele>98</ele>
        <time>2021-07-04T13:13:19Z</time>
      </trkpt>
      <trkpt lat="44.22122" lon="4.466">
        <ele>98</ele>
        <time>2021-07-04T13:13:27Z</time>
      </trkpt>
      <trkpt lat="44.22103" lon="4.46443">
        <ele>91</ele>
        <time>2021-07-04T13:13:54Z</time>
      </trkpt>
      <trkpt lat="44.22055" lon="4.4634">
        <ele>86</ele>
        <time>2021-07-04T13:14:15Z</time>
      </trkpt>
      <trkpt lat="44.22035" lon="4.46373">
        <ele>87</ele>
        <time>2021-07-04T13:14:22Z</time>
      </trkpt>
      <trkpt lat="44.22002" lon="4.46413">
        <ele>87</ele>
        <time>2021-07-04T13:14:32Z</time>
      </trkpt>
      <trkpt lat="44.21947" lon="4.46445">
        <ele>86</ele>
        <time>2021-07-04T13:14:46Z</time>
      </trkpt>
      <trkpt lat="44.21926" lon="4.46424">
        <ele>87</ele>
        <time>2021-07-04T13:14:52Z</time>
      </trkpt>
      <trkpt lat="44.2188" lon="4.4641">
        <ele>87</ele>
        <time>2021-07-04T13:15:03Z</time>
      </trkpt>
      <trkpt lat="44.21788" lon="4.46333">
        <ele>90</ele>
        <time>2021-07-04T13:15:28Z</time>
      </trkpt>
      <trkpt lat="44.21762" lon="4.46275">
        <ele>94</ele>
        <time>2021-07-04T13:15:40Z</time>
      </trkpt>
      <trkpt lat="44.21647" lon="4.46198">
        <ele>99</ele>
        <time>2021-07-04T13:16:09Z</time>
      </trkpt>
      <trkpt lat="44.21579" lon="4.46281">
        <ele>102</ele>
        <time>2021-07-04T13:16:30Z</time>
      </trkpt>
      <trkpt lat="44.21421" lon="4.46281">
        <ele>113</ele>
        <time>2021-07-04T13:17:07Z</time>
      </trkpt>
      <trkpt lat="44.21397" lon="4.46247">
        <ele>113</ele>
        <time>2021-07-04T13:17:15Z</time>
      </trkpt>
      <trkpt lat="44.21381" lon="4.4603">
        <ele>128</ele>
        <time>2021-07-04T13:17:52Z</time>
      </trkpt>
      <trkpt lat="44.21391" lon="4.4594">
        <ele>134</ele>
        <time>2021-07-04T13:18:07Z</time>
      </trkpt>
      <trkpt lat="44.21381" lon="4.45801">
        <ele>145</ele>
        <time>2021-07-04T13:18:30Z</time>
      </trkpt>
      <trkpt lat="44.21402" lon="4.45734">
        <ele>151</ele>
        <time>2021-07-04T13:18:43Z</time>
      </trkpt>
      <trkpt lat="44.21482" lon="4.45696">
        <ele>158</ele>
        <time>2021-07-04T13:19:02Z</time>
      </trkpt>
      <trkpt lat="44.21562" lon="4.45535">
        <ele>165</ele>
        <time>2021-07-04T13:19:35Z</time>
      </trkpt>
      <trkpt lat="44.21582" lon="4.45445">
        <ele>174</ele>
        <time>2021-07-04T13:19:51Z</time>
      </trkpt>
      <trkpt lat="44.21551" lon="4.45355">
        <ele>181</ele>
        <time>2021-07-04T13:20:08Z</time>
      </trkpt>
      <trkpt lat="44.21476" lon="4.45288">
        <ele>184</ele>
        <time>2021-07-04T13:20:29Z</time>
      </trkpt>
      <trkpt lat="44.21473" lon="4.45234">
        <ele>191</ele>
        <time>2021-07-04T13:20:38Z</time>
      </trkpt>
      <trkpt lat="44.21447" lon="4.45187">
        <ele>192</ele>
        <time>2021-07-04T13:20:48Z</time>
      </trkpt>
      <trkpt lat="44.21462" lon="4.45099">
        <ele>205</ele>
        <time>2021-07-04T13:21:03Z</time>
      </trkpt>
      <trkpt lat="44.21428" lon="4.45007">
        <ele>218</ele>
        <time>2021-07-04T13:21:20Z</time>
      </trkpt>
      <trkpt lat="44.21353" lon="4.4493">
        <ele>220</ele>
        <time>2021-07-04T13:21:42Z</time>
      </trkpt>
      <trkpt lat="44.21384" lon="4.44801">
        <ele>237</ele>
        <time>2021-07-04T13:22:05Z</time>
      </trkpt>
      <trkpt lat="44.21382" lon="4.44734">
        <ele>242</ele>
        <time>2021-07-04T13:22:16Z</time>
      </trkpt>
      <trkpt lat="44.2135" lon="4.44657">
        <ele>244</ele>
        <time>2021-07-04T13:22:31Z</time>
      </trkpt>
      <trkpt lat="44.21368" lon="4.44595">
        <ele>242</ele>
        <time>2021-07-04T13:22:42Z</time>
      </trkpt>
      <trkpt lat="44.21417" lon="4.44565">
        <ele>245</ele>
        <time>2021-07-04T13:22:54Z</time>
      </trkpt>
      <trkpt lat="44.21447" lon="4.44488">
        <ele>244</ele>
        <time>2021-07-04T13:23:09Z</time>
      </trkpt>
      <trkpt lat="44.21561" lon="4.44282">
        <ele>252</ele>
        <time>2021-07-04T13:23:53Z</time>
      </trkpt>
      <trkpt lat="44.21565" lon="4.44211">
        <ele>254</ele>
        <time>2021-07-04T13:24:04Z</time>
      </trkpt>
      <trkpt lat="44.21616" lon="4.44114">
        <ele>256</ele>
        <time>2021-07-04T13:24:25Z</time>
      </trkpt>
      <trkpt lat="44.2166" lon="4.44065">
        <ele>257</ele>
        <time>2021-07-04T13:24:38Z</time>
      </trkpt>
      <trkpt lat="44.21653" lon="4.44011">
        <ele>256</ele>
        <time>2021-07-04T13:24:47Z</time>
      </trkpt>
      <trkpt lat="44.21662" lon="4.43833">
        <ele>260</ele>
        <time>2021-07-04T13:25:17Z</time>
      </trkpt>
      <trkpt lat="44.21545" lon="4.43657">
        <ele>271</ele>
        <time>2021-07-04T13:25:57Z</time>
      </trkpt>
      <trkpt lat="44.21533" lon="4.43591">
        <ele>273</ele>
        <time>2021-07-04T13:26:08Z</time>
      </trkpt>
      <trkpt lat="44.21377" lon="4.43342">
        <ele>283</ele>
        <time>2021-07-04T13:27:04Z</time>
      </trkpt>
      <trkpt lat="44.21276" lon="4.43271">
        <ele>286</ele>
        <time>2021-07-04T13:27:30Z</time>
      </trkpt>
      <trkpt lat="44.21075" lon="4.43172">
        <ele>312</ele>
        <time>2021-07-04T13:28:20Z</time>
      </trkpt>
      <trkpt lat="44.20922" lon="4.43232">
        <ele>318</ele>
        <time>2021-07-04T13:28:57Z</time>
      </trkpt>
      <trkpt lat="44.20916" lon="4.43325">
        <ele>328</ele>
        <time>2021-07-04T13:29:13Z</time>
      </trkpt>
      <trkpt lat="44.2073" lon="4.43443">
        <ele>326</ele>
        <time>2021-07-04T13:30:00Z</time>
      </trkpt>
      <trkpt lat="44.20572" lon="4.43428">
        <ele>328</ele>
        <time>2021-07-04T13:30:37Z</time>
      </trkpt>
      <trkpt lat="44.20535" lon="4.43355">
        <ele>324</ele>
        <time>2021-07-04T13:30:52Z</time>
      </trkpt>
      <trkpt lat="44.20484" lon="4.43155">
        <ele>315</ele>
        <time>2021-07-04T13:31:28Z</time>
      </trkpt>
      <trkpt lat="44.2041" lon="4.42956">
        <ele>314</ele>
        <time>2021-07-04T13:32:05Z</time>
      </trkpt>
      <trkpt lat="44.20362" lon="4.42771">
        <ele>313</ele>
        <time>2021-07-04T13:32:38Z</time>
      </trkpt>
      <trkpt lat="44.20399" lon="4.42713">
        <ele>310</ele>
        <time>2021-07-04T13:32:51Z</time>
      </trkpt>
      <trkpt lat="44.20436" lon="4.42604">
        <ele>306</ele>
        <time>2021-07-04T13:33:12Z</time>
      </trkpt>
      <trkpt lat="44.20436" lon="4.42554">
        <ele>304</ele>
        <time>2021-07-04T13:33:20Z</time>
      </trkpt>
      <trkpt lat="44.20501" lon="4.42404">
        <ele>301</ele>
        <time>2021-07-04T13:33:49Z</time>
      </trkpt>
      <trkpt lat="44.20541" lon="4.42305">
        <ele>299</ele>
        <time>2021-07-04T13:34:08Z</time>
      </trkpt>
      <trkpt lat="44.20538" lon="4.42091">
        <ele>298</ele>
        <time>2021-07-04T13:34:44Z</time>
      </trkpt>
      <trkpt lat="44.20562" lon="4.42044">
        <ele>299</ele>
        <time>2021-07-04T13:34:54Z</time>
      </trkpt>
      <trkpt lat="44.2071" lon="4.41821">
        <ele>301</ele>
        <time>2021-07-04T13:35:45Z</time>
      </trkpt>
      <trkpt lat="44.20824" lon="4.41557">
        <ele>307</ele>
        <time>2021-07-04T13:36:36Z</time>
      </trkpt>
      <trkpt lat="44.20973" lon="4.4149">
        <ele>310</ele>
        <time>2021-07-04T13:37:13Z</time>
      </trkpt>
      <trkpt lat="44.21045" lon="4.41391">
        <ele>311</ele>
        <time>2021-07-04T13:37:36Z</time>
      </trkpt>
      <trkpt lat="44.21165" lon="4.41284">
        <ele>302</ele>
        <time>2021-07-04T13:38:10Z</time>
      </trkpt>
      <trkpt lat="44.21299" lon="4.41192">
        <ele>293</ele>
        <time>2021-07-04T13:38:45Z</time>
      </trkpt>
      <trkpt lat="44.21368" lon="4.41119">
        <ele>292</ele>
        <time>2021-07-04T13:39:05Z</time>
      </trkpt>
      <trkpt lat="44.21487" lon="4.4111">
        <ele>298</ele>
        <time>2021-07-04T13:39:33Z</time>
      </trkpt>
      <trkpt lat="44.21622" lon="4.41078">
        <ele>307</ele>
        <time>2021-07-04T13:40:05Z</time>
      </trkpt>
      <trkpt lat="44.21831" lon="4.41059">
        <ele>313</ele>
        <time>2021-07-04T13:40:53Z</time>
      </trkpt>
      <trkpt lat="44.21891" lon="4.4102">
        <ele>311</ele>
        <time>2021-07-04T13:41:09Z</time>
      </trkpt>
      <trkpt lat="44.22077" lon="4.40949">
        <ele>305</ele>
        <time>2021-07-04T13:41:54Z</time>
      </trkpt>
      <trkpt lat="44.22142" lon="4.40979">
        <ele>306</ele>
        <time>2021-07-04T13:42:10Z</time>
      </trkpt>
      <trkpt lat="44.22211" lon="4.41213">
        <ele>318</ele>
        <time>2021-07-04T13:42:52Z</time>
      </trkpt>
      <trkpt lat="44.22277" lon="4.41142">
        <ele>316</ele>
        <time>2021-07-04T13:43:12Z</time>
      </trkpt>
      <trkpt lat="44.2232" lon="4.41082">
        <ele>312</ele>
        <time>2021-07-04T13:43:26Z</time>
      </trkpt>
      <trkpt lat="44.22456" lon="4.41151">
        <ele>302</ele>
        <time>2021-07-04T13:44:00Z</time>
      </trkpt>
      <trkpt lat="44.22577" lon="4.41323">
        <ele>284</ele>
        <time>2021-07-04T13:44:40Z</time>
      </trkpt>
      <trkpt lat="44.22612" lon="4.4143">
        <ele>275</ele>
        <time>2021-07-04T13:45:00Z</time>
      </trkpt>
      <trkpt lat="44.22749" lon="4.41563">
        <ele>256</ele>
        <time>2021-07-04T13:45:39Z</time>
      </trkpt>
      <trkpt lat="44.22908" lon="4.41649">
        <ele>240</ele>
        <time>2021-07-04T13:46:19Z</time>
      </trkpt>
      <trkpt lat="44.2294" lon="4.41732">
        <ele>243</ele>
        <time>2021-07-04T13:46:34Z</time>
      </trkpt>
      <trkpt lat="44.22934" lon="4.42069">
        <ele>225</ele>
        <time>2021-07-04T13:47:31Z</time>
      </trkpt>
      <trkpt lat="44.22968" lon="4.42202">
        <ele>218</ele>
        <time>2021-07-04T13:47:54Z</time>
      </trkpt>
      <trkpt lat="44.22929" lon="4.42314">
        <ele>205</ele>
        <time>2021-07-04T13:48:15Z</time>
      </trkpt>
      <trkpt lat="44.22971" lon="4.42417">
        <ele>196</ele>
        <time>2021-07-04T13:48:35Z</time>
      </trkpt>
      <trkpt lat="44.22984" lon="4.42533">
        <ele>188</ele>
        <time>2021-07-04T13:48:55Z</time>
      </trkpt>
      <trkpt lat="44.23008" lon="4.42601">
        <ele>189</ele>
        <time>2021-07-04T13:49:07Z</time>
      </trkpt>
      <trkpt lat="44.22904" lon="4.42689">
        <ele>185</ele>
        <time>2021-07-04T13:49:36Z</time>
      </trkpt>
      <trkpt lat="44.22937" lon="4.42734">
        <ele>179</ele>
        <time>2021-07-04T13:49:47Z</time>
      </trkpt>
      <trkpt lat="44.22968" lon="4.42807">
        <ele>175</ele>
        <time>2021-07-04T13:50:01Z</time>
      </trkpt>
      <trkpt lat="44.22968" lon="4.42865">
        <ele>170</ele>
        <time>2021-07-04T13:50:10Z</time>
      </trkpt>
      <trkpt lat="44.22995" lon="4.4291">
        <ele>158</ele>
        <time>2021-07-04T13:50:20Z</time>
      </trkpt>
      <trkpt lat="44.22997" lon="4.42966">
        <ele>154</ele>
        <time>2021-07-04T13:50:30Z</time>
      </trkpt>
      <trkpt lat="44.23043" lon="4.43022">
        <ele>153</ele>
        <time>2021-07-04T13:50:44Z</time>
      </trkpt>
      <trkpt lat="44.23054" lon="4.43099">
        <ele>147</ele>
        <time>2021-07-04T13:50:57Z</time>
      </trkpt>
      <trkpt lat="44.23106" lon="4.43194">
        <ele>141</ele>
        <time>2021-07-04T13:51:17Z</time>
      </trkpt>
      <trkpt lat="44.23143" lon="4.4323">
        <ele>141</ele>
        <time>2021-07-04T13:51:28Z</time>
      </trkpt>
      <trkpt lat="44.23174" lon="4.43305">
        <ele>138</ele>
        <time>2021-07-04T13:51:42Z</time>
      </trkpt>
      <trkpt lat="44.2325" lon="4.43389">
        <ele>133</ele>
        <time>2021-07-04T13:52:05Z</time>
      </trkpt>
      <trkpt lat="44.23278" lon="4.43458">
        <ele>133</ele>
        <time>2021-07-04T13:52:18Z</time>
      </trkpt>
      <trkpt lat="44.23306" lon="4.43503">
        <ele>128</ele>
        <time>2021-07-04T13:52:28Z</time>
      </trkpt>
      <trkpt lat="44.23344" lon="4.43591">
        <ele>118</ele>
        <time>2021-07-04T13:52:45Z</time>
      </trkpt>
      <trkpt lat="44.23416" lon="4.43704">
        <ele>109</ele>
        <time>2021-07-04T13:53:10Z</time>
      </trkpt>
      <trkpt lat="44.23444" lon="4.43788">
        <ele>105</ele>
        <time>2021-07-04T13:53:26Z</time>
      </trkpt>
      <trkpt lat="44.2351" lon="4.44013">
        <ele>93</ele>
        <time>2021-07-04T13:54:07Z</time>
      </trkpt>
      <trkpt lat="44.23529" lon="4.44017">
        <ele>92</ele>
        <time>2021-07-04T13:54:11Z</time>
      </trkpt>
      <trkpt lat="44.23761" lon="4.43903">
        <ele>92</ele>
        <time>2021-07-04T13:55:09Z</time>
      </trkpt>
      <trkpt lat="44.23886" lon="4.43911">
        <ele>93</ele>
        <time>2021-07-04T13:55:38Z</time>
      </trkpt>
      <trkpt lat="44.23968" lon="4.43867">
        <ele>98</ele>
        <time>2021-07-04T13:55:58Z</time>
      </trkpt>
      <trkpt lat="44.23993" lon="4.43925">
        <ele>96</ele>
        <time>2021-07-04T13:56:10Z</time>
      </trkpt>
      <trkpt lat="44.24119" lon="4.43994">
        <ele>98</ele>
        <time>2021-07-04T13:56:41Z</time>
      </trkpt>
      <trkpt lat="44.24181" lon="4.43984">
        <ele>104</ele>
        <time>2021-07-04T13:56:56Z</time>
      </trkpt>
      <trkpt lat="44.24215" lon="4.44098">
        <ele>99</ele>
        <time>2021-07-04T13:57:16Z</time>
      </trkpt>
      <trkpt lat="44.24303" lon="4.44217">
        <ele>97</ele>
        <time>2021-07-04T13:57:45Z</time>
      </trkpt>
      <trkpt lat="44.24419" lon="4.44396">
        <ele>96</ele>
        <time>2021-07-04T13:58:25Z</time>
      </trkpt>
      <trkpt lat="44.24551" lon="4.44588">
        <ele>95</ele>
        <time>2021-07-04T13:59:10Z</time>
      </trkpt>
      <trkpt lat="44.24687" lon="4.44807">
        <ele>91</ele>
        <time>2021-07-04T13:59:58Z</time>
      </trkpt>
      <trkpt lat="44.2479" lon="4.44831">
        <ele>94</ele>
        <time>2021-07-04T14:00:23Z</time>
      </trkpt>
      <trkpt lat="44.24825" lon="4.44972">
        <ele>96</ele>
        <time>2021-07-04T14:00:48Z</time>
      </trkpt>
      <trkpt lat="44.24625" lon="4.45073">
        <ele>93</ele>
        <time>2021-07-04T14:01:38Z</time>
      </trkpt>
      <trkpt lat="44.24441" lon="4.45098">
        <ele>93</ele>
        <time>2021-07-04T14:02:21Z</time>
      </trkpt>
      <trkpt lat="44.2436" lon="4.45121">
        <ele>92</ele>
        <time>2021-07-04T14:02:40Z</time>
      </trkpt>
      <trkpt lat="44.24226" lon="4.45219">
        <ele>90</ele>
        <time>2021-07-04T14:03:15Z</time>
      </trkpt>
      <trkpt lat="44.2425" lon="4.45289">
        <ele>92</ele>
        <time>2021-07-04T14:03:28Z</time>
      </trkpt>
      <trkpt lat="44.2425" lon="4.45433">
        <ele>94</ele>
        <time>2021-07-04T14:03:52Z</time>
      </trkpt>
      <trkpt lat="44.24222" lon="4.45466">
        <ele>96</ele>
        <time>2021-07-04T14:04:01Z</time>
      </trkpt>
      <trkpt lat="44.24181" lon="4.45489">
        <ele>96</ele>
        <time>2021-07-04T14:04:11Z</time>
      </trkpt>
      <trkpt lat="44.24175" lon="4.45668">
        <ele>98</ele>
        <time>2021-07-04T14:04:41Z</time>
      </trkpt>
      <trkpt lat="44.24185" lon="4.45743">
        <ele>101</ele>
        <time>2021-07-04T14:04:54Z</time>
      </trkpt>
      <trkpt lat="44.24119" lon="4.4579">
        <ele>105</ele>
        <time>2021-07-04T14:05:11Z</time>
      </trkpt>
      <trkpt lat="44.24108" lon="4.45872">
        <ele>102</ele>
        <time>2021-07-04T14:05:25Z</time>
      </trkpt>
      <trkpt lat="44.24035" lon="4.45838">
        <ele>107</ele>
        <time>2021-07-04T14:05:43Z</time>
      </trkpt>
      <trkpt lat="44.24048" lon="4.45796">
        <ele>110</ele>
        <time>2021-07-04T14:05:51Z</time>
      </trkpt>
      <trkpt lat="44.24044" lon="4.45748">
        <ele>114</ele>
        <time>2021-07-04T14:05:59Z</time>
      </trkpt>
      <trkpt lat="44.24043" lon="4.45727">
        <ele>116</ele>
        <time>2021-07-04T14:06:02Z</time>
      </trkpt>
      <trkpt lat="44.24025" lon="4.45716">
        <ele>117</ele>
        <time>2021-07-04T14:06:07Z</time>
      </trkpt>
      <trkpt lat="44.23993" lon="4.45716">
        <ele>119</ele>
        <time>2021-07-04T14:06:15Z</time>
      </trkpt>
      <trkpt lat="44.23941" lon="4.45755">
        <ele>117</ele>
        <time>2021-07-04T14:06:28Z</time>
      </trkpt>
      <trkpt lat="44.23911" lon="4.45787">
        <ele>116</ele>
        <time>2021-07-04T14:06:37Z</time>
      </trkpt>
      <trkpt lat="44.23962" lon="4.45818">
        <ele>113</ele>
        <time>2021-07-04T14:06:50Z</time>
      </trkpt>
      <trkpt lat="44.24004" lon="4.4585">
        <ele>109</ele>
        <time>2021-07-04T14:07:01Z</time>
      </trkpt>
      <trkpt lat="44.24" lon="4.45918">
        <ele>106</ele>
        <time>2021-07-04T14:07:13Z</time>
      </trkpt>
      <trkpt lat="44.24001" lon="4.45933">
        <ele>106</ele>
        <time>2021-07-04T14:07:15Z</time>
      </trkpt>
      <trkpt lat="44.24019" lon="4.45974">
        <ele>106</ele>
        <time>2021-07-04T14:07:23Z</time>
      </trkpt>
      <trkpt lat="44.24017" lon="4.46006">
        <ele>107</ele>
        <time>2021-07-04T14:07:29Z</time>
      </trkpt>
      <trkpt lat="44.23972" lon="4.461">
        <ele>111</ele>
        <time>2021-07-04T14:07:48Z</time>
      </trkpt>
      <trkpt lat="44.23924" lon="4.46168">
        <ele>114</ele>
        <time>2021-07-04T14:08:04Z</time>
      </trkpt>
      <trkpt lat="44.23912" lon="4.4619">
        <ele>114</ele>
        <time>2021-07-04T14:08:08Z</time>
      </trkpt>
      <trkpt lat="44.23952" lon="4.46237">
        <ele>115</ele>
        <time>2021-07-04T14:08:20Z</time>
      </trkpt>
      <trkpt lat="44.23985" lon="4.46271">
        <ele>117</ele>
        <time>2021-07-04T14:08:30Z</time>
      </trkpt>
      <trkpt lat="44.2398" lon="4.46294">
        <ele>118</ele>
        <time>2021-07-04T14:08:34Z</time>
      </trkpt>
      <trkpt lat="44.23993" lon="4.46351">
        <ele>121</ele>
        <time>2021-07-04T14:08:44Z</time>
      </trkpt>
      <trkpt lat="44.23985" lon="4.4644">
        <ele>127</ele>
        <time>2021-07-04T14:08:59Z</time>
      </trkpt>
      <trkpt lat="44.23979" lon="4.46556">
        <ele>131</ele>
        <time>2021-07-04T14:09:18Z</time>
      </trkpt>
      <trkpt lat="44.23969" lon="4.46597">
        <ele>133</ele>
        <time>2021-07-04T14:09:26Z</time>
      </trkpt>
      <trkpt lat="44.23986" lon="4.46631">
        <ele>134</ele>
        <time>2021-07-04T14:09:33Z</time>
      </trkpt>
      <trkpt lat="44.23935" lon="4.47017">
        <ele>131</ele>
        <time>2021-07-04T14:10:38Z</time>
      </trkpt>
      <trkpt lat="44.23925" lon="4.47051">
        <ele>131</ele>
        <time>2021-07-04T14:10:44Z</time>
      </trkpt>
      <trkpt lat="44.23932" lon="4.471">
        <ele>133</ele>
        <time>2021-07-04T14:10:53Z</time>
      </trkpt>
      <trkpt lat="44.23925" lon="4.4717">
        <ele>134</ele>
        <time>2021-07-04T14:11:05Z</time>
      </trkpt>
      <trkpt lat="44.23927" lon="4.47255">
        <ele>138</ele>
        <time>2021-07-04T14:11:19Z</time>
      </trkpt>
      <trkpt lat="44.23967" lon="4.4729">
        <ele>141</ele>
        <time>2021-07-04T14:11:30Z</time>
      </trkpt>
      <trkpt lat="44.23973" lon="4.47344">
        <ele>142</ele>
        <time>2021-07-04T14:11:39Z</time>
      </trkpt>
      <trkpt lat="44.23991" lon="4.4741">
        <ele>144</ele>
        <time>2021-07-04T14:11:51Z</time>
      </trkpt>
      <trkpt lat="44.24001" lon="4.47509">
        <ele>153</ele>
        <time>2021-07-04T14:12:08Z</time>
      </trkpt>
      <trkpt lat="44.24" lon="4.47558">
        <ele>156</ele>
        <time>2021-07-04T14:12:16Z</time>
      </trkpt>
      <trkpt lat="44.23988" lon="4.47636">
        <ele>158</ele>
        <time>2021-07-04T14:12:29Z</time>
      </trkpt>
      <trkpt lat="44.23983" lon="4.4769">
        <ele>159</ele>
        <time>2021-07-04T14:12:38Z</time>
      </trkpt>
      <trkpt lat="44.23977" lon="4.47708">
        <ele>159</ele>
        <time>2021-07-04T14:12:42Z</time>
      </trkpt>
      <trkpt lat="44.23982" lon="4.47886">
        <ele>170</ele>
        <time>2021-07-04T14:13:11Z</time>
      </trkpt>
      <trkpt lat="44.24023" lon="4.47924">
        <ele>178</ele>
        <time>2021-07-04T14:13:23Z</time>
      </trkpt>
      <trkpt lat="44.24012" lon="4.48108">
        <ele>185</ele>
        <time>2021-07-04T14:13:54Z</time>
      </trkpt>
      <trkpt lat="44.24045" lon="4.48222">
        <ele>190</ele>
        <time>2021-07-04T14:14:14Z</time>
      </trkpt>
      <trkpt lat="44.24075" lon="4.48315">
        <ele>189</ele>
        <time>2021-07-04T14:14:31Z</time>
      </trkpt>
      <trkpt lat="44.24055" lon="4.48346">
        <ele>180</ele>
        <time>2021-07-04T14:14:38Z</time>
      </trkpt>
      <trkpt lat="44.24054" lon="4.48373">
        <ele>177</ele>
        <time>2021-07-04T14:14:43Z</time>
      </trkpt>
      <trkpt lat="44.24073" lon="4.48418">
        <ele>176</ele>
        <time>2021-07-04T14:14:52Z</time>
      </trkpt>
      <trkpt lat="44.24093" lon="4.48575">
        <ele>170</ele>
        <time>2021-07-04T14:15:18Z</time>
      </trkpt>
      <trkpt lat="44.241" lon="4.48614">
        <ele>169</ele>
        <time>2021-07-04T14:15:25Z</time>
      </trkpt>
      <trkpt lat="44.24113" lon="4.48632">
        <ele>170</ele>
        <time>2021-07-04T14:15:29Z</time>
      </trkpt>
      <trkpt lat="44.24143" lon="4.4864">
        <ele>175</ele>
        <time>2021-07-04T14:15:36Z</time>
      </trkpt>
      <trkpt lat="44.24174" lon="4.48677">
        <ele>177</ele>
        <time>2021-07-04T14:15:46Z</time>
      </trkpt>
      <trkpt lat="44.24188" lon="4.48704">
        <ele>180</ele>
        <time>2021-07-04T14:15:52Z</time>
      </trkpt>
      <trkpt lat="44.24189" lon="4.48715">
        <ele>179</ele>
        <time>2021-07-04T14:15:53Z</time>
      </trkpt>
      <trkpt lat="44.24183" lon="4.48715">
        <ele>178</ele>
        <time>2021-07-04T14:15:55Z</time>
      </trkpt>
      <trkpt lat="44.24176" lon="4.48707">
        <ele>176</ele>
        <time>2021-07-04T14:15:57Z</time>
      </trkpt>
      <trkpt lat="44.24165" lon="4.48702">
        <ele>174</ele>
        <time>2021-07-04T14:16:00Z</time>
      </trkpt>
      <trkpt lat="44.24152" lon="4.48707">
        <ele>172</ele>
        <time>2021-07-04T14:16:03Z</time>
      </trkpt>
      <trkpt lat="44.24125" lon="4.48706">
        <ele>167</ele>
        <time>2021-07-04T14:16:09Z</time>
      </trkpt>
      <trkpt lat="44.24106" lon="4.48712">
        <ele>163</ele>
        <time>2021-07-04T14:16:14Z</time>
      </trkpt>
      <trkpt lat="44.24099" lon="4.48719">
        <ele>162</ele>
        <time>2021-07-04T14:16:16Z</time>
      </trkpt>
      <trkpt lat="44.24101" lon="4.48761">
        <ele>160</ele>
        <time>2021-07-04T14:16:23Z</time>
      </trkpt>
      <trkpt lat="44.2411" lon="4.48777">
        <ele>162</ele>
        <time>2021-07-04T14:16:26Z</time>
      </trkpt>
      <trkpt lat="44.24125" lon="4.48794">
        <ele>164</ele>
        <time>2021-07-04T14:16:31Z</time>
      </trkpt>
      <trkpt lat="44.24129" lon="4.48818">
        <ele>165</ele>
        <time>2021-07-04T14:16:35Z</time>
      </trkpt>
      <trkpt lat="44.24131" lon="4.48833">
        <ele>165</ele>
        <time>2021-07-04T14:16:37Z</time>
      </trkpt>
      <trkpt lat="44.24147" lon="4.48864">
        <ele>168</ele>
        <time>2021-07-04T14:16:44Z</time>
      </trkpt>
      <trkpt lat="44.24155" lon="4.48883">
        <ele>170</ele>
        <time>2021-07-04T14:16:47Z</time>
      </trkpt>
      <trkpt lat="44.24154" lon="4.48898">
        <ele>171</ele>
        <time>2021-07-04T14:16:50Z</time>
      </trkpt>
      <trkpt lat="44.24146" lon="4.48902">
        <ele>171</ele>
        <time>2021-07-04T14:16:52Z</time>
      </trkpt>
      <trkpt lat="44.24136" lon="4.48895">
        <ele>169</ele>
        <time>2021-07-04T14:16:54Z</time>
      </trkpt>
      <trkpt lat="44.24129" lon="4.48899">
        <ele>169</ele>
        <time>2021-07-04T14:16:56Z</time>
      </trkpt>
      <trkpt lat="44.24129" lon="4.48912">
        <ele>170</ele>
        <time>2021-07-04T14:16:58Z</time>
      </trkpt>
      <trkpt lat="44.24133" lon="4.48945">
        <ele>173</ele>
        <time>2021-07-04T14:17:04Z</time>
      </trkpt>
      <trkpt lat="44.24141" lon="4.48968">
        <ele>175</ele>
        <time>2021-07-04T14:17:08Z</time>
      </trkpt>
      <trkpt lat="44.24159" lon="4.48995">
        <ele>179</ele>
        <time>2021-07-04T14:17:14Z</time>
      </trkpt>
      <trkpt lat="44.24174" lon="4.49021">
        <ele>182</ele>
        <time>2021-07-04T14:17:20Z</time>
      </trkpt>
      <trkpt lat="44.24136" lon="4.49077">
        <ele>183</ele>
        <time>2021-07-04T14:17:33Z</time>
      </trkpt>
      <trkpt lat="44.24129" lon="4.49123">
        <ele>187</ele>
        <time>2021-07-04T14:17:41Z</time>
      </trkpt>
      <trkpt lat="44.24075" lon="4.49136">
        <ele>182</ele>
        <time>2021-07-04T14:17:54Z</time>
      </trkpt>
      <trkpt lat="44.24027" lon="4.49178">
        <ele>182</ele>
        <time>2021-07-04T14:18:07Z</time>
      </trkpt>
      <trkpt lat="44.24005" lon="4.49211">
        <ele>183</ele>
        <time>2021-07-04T14:18:14Z</time>
      </trkpt>
      <trkpt lat="44.23965" lon="4.49237">
        <ele>185</ele>
        <time>2021-07-04T14:18:25Z</time>
      </trkpt>
      <trkpt lat="44.23917" lon="4.49197">
        <ele>182</ele>
        <time>2021-07-04T14:18:38Z</time>
      </trkpt>
      <trkpt lat="44.23896" lon="4.49151">
        <ele>180</ele>
        <time>2021-07-04T14:18:47Z</time>
      </trkpt>
      <trkpt lat="44.23848" lon="4.49125">
        <ele>180</ele>
        <time>2021-07-04T14:18:59Z</time>
      </trkpt>
      <trkpt lat="44.23836" lon="4.49111">
        <ele>180</ele>
        <time>2021-07-04T14:19:03Z</time>
      </trkpt>
      <trkpt lat="44.23823" lon="4.49029">
        <ele>177</ele>
        <time>2021-07-04T14:19:17Z</time>
      </trkpt>
      <trkpt lat="44.23809" lon="4.48932">
        <ele>174</ele>
        <time>2021-07-04T14:19:33Z</time>
      </trkpt>
      <trkpt lat="44.23784" lon="4.48909">
        <ele>174</ele>
        <time>2021-07-04T14:19:40Z</time>
      </trkpt>
      <trkpt lat="44.23751" lon="4.48909">
        <ele>176</ele>
        <time>2021-07-04T14:19:48Z</time>
      </trkpt>
      <trkpt lat="44.23728" lon="4.48909">
        <ele>180</ele>
        <time>2021-07-04T14:19:53Z</time>
      </trkpt>
      <trkpt lat="44.23666" lon="4.48743">
        <ele>176</ele>
        <time>2021-07-04T14:20:25Z</time>
      </trkpt>
      <trkpt lat="44.2364" lon="4.48668">
        <ele>175</ele>
        <time>2021-07-04T14:20:38Z</time>
      </trkpt>
      <trkpt lat="44.23608" lon="4.48613">
        <ele>178</ele>
        <time>2021-07-04T14:20:50Z</time>
      </trkpt>
      <trkpt lat="44.23576" lon="4.48561">
        <ele>178</ele>
        <time>2021-07-04T14:21:02Z</time>
      </trkpt>
      <trkpt lat="44.23533" lon="4.48508">
        <ele>174</ele>
        <time>2021-07-04T14:21:15Z</time>
      </trkpt>
      <trkpt lat="44.23505" lon="4.48479">
        <ele>171</ele>
        <time>2021-07-04T14:21:23Z</time>
      </trkpt>
      <trkpt lat="44.2349" lon="4.48482">
        <ele>171</ele>
        <time>2021-07-04T14:21:27Z</time>
      </trkpt>
      <trkpt lat="44.23442" lon="4.48555">
        <ele>172</ele>
        <time>2021-07-04T14:21:43Z</time>
      </trkpt>
      <trkpt lat="44.23413" lon="4.48595">
        <ele>171</ele>
        <time>2021-07-04T14:21:53Z</time>
      </trkpt>
      <trkpt lat="44.23372" lon="4.4864">
        <ele>167</ele>
        <time>2021-07-04T14:22:05Z</time>
      </trkpt>
      <trkpt lat="44.23366" lon="4.48641">
        <ele>166</ele>
        <time>2021-07-04T14:22:07Z</time>
      </trkpt>
      <trkpt lat="44.23367" lon="4.48632">
        <ele>166</ele>
        <time>2021-07-04T14:22:08Z</time>
      </trkpt>
      <trkpt lat="44.23386" lon="4.48605">
        <ele>167</ele>
        <time>2021-07-04T14:22:14Z</time>
      </trkpt>
      <trkpt lat="44.23395" lon="4.48555">
        <ele>163</ele>
        <time>2021-07-04T14:22:23Z</time>
      </trkpt>
      <trkpt lat="44.23353" lon="4.4854">
        <ele>155</ele>
        <time>2021-07-04T14:22:33Z</time>
      </trkpt>
      <trkpt lat="44.23294" lon="4.48528">
        <ele>150</ele>
        <time>2021-07-04T14:22:47Z</time>
      </trkpt>
      <trkpt lat="44.23248" lon="4.48503">
        <ele>148</ele>
        <time>2021-07-04T14:22:59Z</time>
      </trkpt>
      <trkpt lat="44.23219" lon="4.4847">
        <ele>148</ele>
        <time>2021-07-04T14:23:07Z</time>
      </trkpt>
      <trkpt lat="44.23189" lon="4.48447">
        <ele>149</ele>
        <time>2021-07-04T14:23:15Z</time>
      </trkpt>
      <trkpt lat="44.2317" lon="4.48438">
        <ele>150</ele>
        <time>2021-07-04T14:23:20Z</time>
      </trkpt>
      <trkpt lat="44.23149" lon="4.48444">
        <ele>149</ele>
        <time>2021-07-04T14:23:25Z</time>
      </trkpt>
      <trkpt lat="44.23089" lon="4.48557">
        <ele>146</ele>
        <time>2021-07-04T14:23:49Z</time>
      </trkpt>
      <trkpt lat="44.23014" lon="4.48625">
        <ele>146</ele>
        <time>2021-07-04T14:24:09Z</time>
      </trkpt>
      <trkpt lat="44.2292" lon="4.48655">
        <ele>140</ele>
        <time>2021-07-04T14:24:32Z</time>
      </trkpt>
      <trkpt lat="44.22904" lon="4.48685">
        <ele>140</ele>
        <time>2021-07-04T14:24:38Z</time>
      </trkpt>
      <trkpt lat="44.22911" lon="4.48811">
        <ele>140</ele>
        <time>2021-07-04T14:24:59Z</time>
      </trkpt>
      <trkpt lat="44.22877" lon="4.48919">
        <ele>138</ele>
        <time>2021-07-04T14:25:19Z</time>
      </trkpt>
      <trkpt lat="44.22786" lon="4.48979">
        <ele>139</ele>
        <time>2021-07-04T14:25:43Z</time>
      </trkpt>
      <trkpt lat="44.22704" lon="4.49">
        <ele>141</ele>
        <time>2021-07-04T14:26:02Z</time>
      </trkpt>
      <trkpt lat="44.22658" lon="4.49024">
        <ele>145</ele>
        <time>2021-07-04T14:26:14Z</time>
      </trkpt>
      <trkpt lat="44.2264" lon="4.49017">
        <ele>146</ele>
        <time>2021-07-04T14:26:18Z</time>
      </trkpt>
      <trkpt lat="44.22623" lon="4.48934">
        <ele>144</ele>
        <time>2021-07-04T14:26:32Z</time>
      </trkpt>
      <trkpt lat="44.22529" lon="4.48856">
        <ele>158</ele>
        <time>2021-07-04T14:26:58Z</time>
      </trkpt>
      <trkpt lat="44.22532" lon="4.48768">
        <ele>161</ele>
        <time>2021-07-04T14:27:13Z</time>
      </trkpt>
      <trkpt lat="44.22555" lon="4.48614">
        <ele>150</ele>
        <time>2021-07-04T14:27:39Z</time>
      </trkpt>
      <trkpt lat="44.22535" lon="4.48511">
        <ele>141</ele>
        <time>2021-07-04T14:27:57Z</time>
      </trkpt>
      <trkpt lat="44.22483" lon="4.48483">
        <ele>139</ele>
        <time>2021-07-04T14:28:10Z</time>
      </trkpt>
      <trkpt lat="44.22449" lon="4.48509">
        <ele>139</ele>
        <time>2021-07-04T14:28:19Z</time>
      </trkpt>
      <trkpt lat="44.22388" lon="4.48622">
        <ele>140</ele>
        <time>2021-07-04T14:28:43Z</time>
      </trkpt>
      <trkpt lat="44.22334" lon="4.48734">
        <ele>133</ele>
        <time>2021-07-04T14:29:05Z</time>
      </trkpt>
      <trkpt lat="44.22315" lon="4.48761">
        <ele>134</ele>
        <time>2021-07-04T14:29:12Z</time>
      </trkpt>
      <trkpt lat="44.22259" lon="4.48765">
        <ele>130</ele>
        <time>2021-07-04T14:29:25Z</time>
      </trkpt>
      <trkpt lat="44.22236" lon="4.48731">
        <ele>123</ele>
        <time>2021-07-04T14:29:32Z</time>
      </trkpt>
      <trkpt lat="44.22202" lon="4.48706">
        <ele>115</ele>
        <time>2021-07-04T14:29:41Z</time>
      </trkpt>
      <trkpt lat="44.22125" lon="4.48713">
        <ele>112</ele>
        <time>2021-07-04T14:29:59Z</time>
      </trkpt>
      <trkpt lat="44.22048" lon="4.48733">
        <ele>108</ele>
        <time>2021-07-04T14:30:18Z</time>
      </trkpt>
      <trkpt lat="44.2197" lon="4.48768">
        <ele>104</ele>
        <time>2021-07-04T14:30:37Z</time>
      </trkpt>
      <trkpt lat="44.21909" lon="4.48807">
        <ele>99</ele>
        <time>2021-07-04T14:30:53Z</time>
      </trkpt>
      <trkpt lat="44.21892" lon="4.48805">
        <ele>97</ele>
        <time>2021-07-04T14:30:57Z</time>
      </trkpt>
      <trkpt lat="44.21869" lon="4.48752">
        <ele>92</ele>
        <time>2021-07-04T14:31:07Z</time>
      </trkpt>
      <trkpt lat="44.21869" lon="4.48709">
        <ele>91</ele>
        <time>2021-07-04T14:31:14Z</time>
      </trkpt>
      <trkpt lat="44.21874" lon="4.48671">
        <ele>91</ele>
        <time>2021-07-04T14:31:21Z</time>
      </trkpt>
      <trkpt lat="44.21831" lon="4.48654">
        <ele>92</ele>
        <time>2021-07-04T14:31:31Z</time>
      </trkpt>
      <trkpt lat="44.21815" lon="4.48601">
        <ele>90</ele>
        <time>2021-07-04T14:31:41Z</time>
      </trkpt>
      <trkpt lat="44.21828" lon="4.48572">
        <ele>88</ele>
        <time>2021-07-04T14:31:46Z</time>
      </trkpt>
    </trkseg>
  </trk>
  <trk>
    <name><![CDATA[Rouge Cornillon La Roque sur Ceze]]></name>
    <extensions>
      <line xmlns="http://www.topografix.com/GPX/gpx_style/0/2">
        <color>fa0000</color>
        <width>4</width>
      </line>
    </extensions>
    <trkseg>
      <trkpt lat="44.21826" lon="4.48542">
        <ele>86</ele>
        <time>2021-07-04T13:06:14Z</time>
      </trkpt>
      <trkpt lat="44.21826" lon="4.48542">
        <ele>86</ele>
        <time>2021-07-04T13:06:14Z</time>
      </trkpt>
      <trkpt lat="44.2198" lon="4.48344">
        <ele>81</ele>
        <time>2021-07-04T13:07:03Z</time>
      </trkpt>
      <trkpt lat="44.22066" lon="4.48215">
        <ele>81</ele>
        <time>2021-07-04T13:07:32Z</time>
      </trkpt>
      <trkpt lat="44.22174" lon="4.48044">
        <ele>85</ele>
        <time>2021-07-04T13:08:11Z</time>
      </trkpt>
      <trkpt lat="44.22101" lon="4.47954">
        <ele>80</ele>
        <time>2021-07-04T13:08:33Z</time>
      </trkpt>
      <trkpt lat="44.21831" lon="4.47647">
        <ele>79</ele>
        <time>2021-07-04T13:09:55Z</time>
      </trkpt>
      <trkpt lat="44.21795" lon="4.47599">
        <ele>77</ele>
        <time>2021-07-04T13:10:06Z</time>
      </trkpt>
      <trkpt lat="44.2165" lon="4.47254">
        <ele>79</ele>
        <time>2021-07-04T13:11:13Z</time>
      </trkpt>
      <trkpt lat="44.21644" lon="4.47201">
        <ele>79</ele>
        <time>2021-07-04T13:11:22Z</time>
      </trkpt>
      <trkpt lat="44.21643" lon="4.47123">
        <ele>79</ele>
        <time>2021-07-04T13:11:35Z</time>
      </trkpt>
      <trkpt lat="44.2165" lon="4.47053">
        <ele>79</ele>
        <time>2021-07-04T13:11:47Z</time>
      </trkpt>
      <trkpt lat="44.21614" lon="4.4699">
        <ele>79</ele>
        <time>2021-07-04T13:12:01Z</time>
      </trkpt>
      <trkpt lat="44.21587" lon="4.46929">
        <ele>79</ele>
        <time>2021-07-04T13:12:13Z</time>
      </trkpt>
      <trkpt lat="44.21495" lon="4.47004">
        <ele>80</ele>
        <time>2021-07-04T13:12:37Z</time>
      </trkpt>
      <trkpt lat="44.21479" lon="4.47002">
        <ele>79</ele>
        <time>2021-07-04T13:12:41Z</time>
      </trkpt>
      <trkpt lat="44.21449" lon="4.47022">
        <ele>79</ele>
        <time>2021-07-04T13:12:49Z</time>
      </trkpt>
      <trkpt lat="44.21404" lon="4.47033">
        <ele>78</ele>
        <time>2021-07-04T13:13:00Z</time>
      </trkpt>
      <trkpt lat="44.21339" lon="4.46999">
        <ele>75</ele>
        <time>2021-07-04T13:13:16Z</time>
      </trkpt>
      <trkpt lat="44.21298" lon="4.46981">
        <ele>77</ele>
        <time>2021-07-04T13:13:26Z</time>
      </trkpt>
      <trkpt lat="44.212" lon="4.46974">
        <ele>80</ele>
        <time>2021-07-04T13:13:49Z</time>
      </trkpt>
      <trkpt lat="44.21152" lon="4.4696">
        <ele>80</ele>
        <time>2021-07-04T13:14:00Z</time>
      </trkpt>
      <trkpt lat="44.21117" lon="4.46945">
        <ele>79</ele>
        <time>2021-07-04T13:14:09Z</time>
      </trkpt>
      <trkpt lat="44.21097" lon="4.46954">
        <ele>79</ele>
        <time>2021-07-04T13:14:14Z</time>
      </trkpt>
      <trkpt lat="44.2107" lon="4.46951">
        <ele>79</ele>
        <time>2021-07-04T13:14:20Z</time>
      </trkpt>
      <trkpt lat="44.21029" lon="4.46935">
        <ele>79</ele>
        <time>2021-07-04T13:14:30Z</time>
      </trkpt>
      <trkpt lat="44.20998" lon="4.46931">
        <ele>79</ele>
        <time>2021-07-04T13:14:37Z</time>
      </trkpt>
      <trkpt lat="44.20974" lon="4.46923">
        <ele>79</ele>
        <time>2021-07-04T13:14:43Z</time>
      </trkpt>
      <trkpt lat="44.21021" lon="4.46862">
        <ele>80</ele>
        <time>2021-07-04T13:14:58Z</time>
      </trkpt>
      <trkpt lat="44.21047" lon="4.46815">
        <ele>79</ele>
        <time>2021-07-04T13:15:08Z</time>
      </trkpt>
      <trkpt lat="44.21046" lon="4.46802">
        <ele>79</ele>
        <time>2021-07-04T13:15:10Z</time>
      </trkpt>
      <trkpt lat="44.21027" lon="4.46778">
        <ele>78</ele>
        <time>2021-07-04T13:15:16Z</time>
      </trkpt>
      <trkpt lat="44.21021" lon="4.46765">
        <ele>78</ele>
        <time>2021-07-04T13:15:19Z</time>
      </trkpt>
      <trkpt lat="44.21007" lon="4.46772">
        <ele>78</ele>
        <time>2021-07-04T13:15:22Z</time>
      </trkpt>
      <trkpt lat="44.20988" lon="4.46768">
        <ele>77</ele>
        <time>2021-07-04T13:15:27Z</time>
      </trkpt>
      <trkpt lat="44.20858" lon="4.46687">
        <ele>75</ele>
        <time>2021-07-04T13:16:00Z</time>
      </trkpt>
      <trkpt lat="44.20758" lon="4.46602">
        <ele>76</ele>
        <time>2021-07-04T13:16:27Z</time>
      </trkpt>
      <trkpt lat="44.20706" lon="4.46563">
        <ele>78</ele>
        <time>2021-07-04T13:16:41Z</time>
      </trkpt>
      <trkpt lat="44.20663" lon="4.46536">
        <ele>80</ele>
        <time>2021-07-04T13:16:52Z</time>
      </trkpt>
      <trkpt lat="44.20621" lon="4.46525">
        <ele>81</ele>
        <time>2021-07-04T13:17:02Z</time>
      </trkpt>
      <trkpt lat="44.20573" lon="4.46528">
        <ele>81</ele>
        <time>2021-07-04T13:17:13Z</time>
      </trkpt>
      <trkpt lat="44.20559" lon="4.46498">
        <ele>82</ele>
        <time>2021-07-04T13:17:19Z</time>
      </trkpt>
      <trkpt lat="44.20549" lon="4.46502">
        <ele>82</ele>
        <time>2021-07-04T13:17:22Z</time>
      </trkpt>
      <trkpt lat="44.20527" lon="4.46498">
        <ele>81</ele>
        <time>2021-07-04T13:17:27Z</time>
      </trkpt>
      <trkpt lat="44.20476" lon="4.46453">
        <ele>83</ele>
        <time>2021-07-04T13:17:41Z</time>
      </trkpt>
      <trkpt lat="44.20403" lon="4.46367">
        <ele>86</ele>
        <time>2021-07-04T13:18:03Z</time>
      </trkpt>
      <trkpt lat="44.20363" lon="4.46339">
        <ele>86</ele>
        <time>2021-07-04T13:18:14Z</time>
      </trkpt>
      <trkpt lat="44.2033" lon="4.46298">
        <ele>87</ele>
        <time>2021-07-04T13:18:24Z</time>
      </trkpt>
      <trkpt lat="44.20301" lon="4.4629">
        <ele>90</ele>
        <time>2021-07-04T13:18:31Z</time>
      </trkpt>
      <trkpt lat="44.20248" lon="4.46244">
        <ele>90</ele>
        <time>2021-07-04T13:18:45Z</time>
      </trkpt>
      <trkpt lat="44.20229" lon="4.46215">
        <ele>93</ele>
        <time>2021-07-04T13:18:52Z</time>
      </trkpt>
      <trkpt lat="44.20213" lon="4.46157">
        <ele>95</ele>
        <time>2021-07-04T13:19:02Z</time>
      </trkpt>
      <trkpt lat="44.20144" lon="4.46117">
        <ele>98</ele>
        <time>2021-07-04T13:19:20Z</time>
      </trkpt>
      <trkpt lat="44.20048" lon="4.4612">
        <ele>102</ele>
        <time>2021-07-04T13:19:42Z</time>
      </trkpt>
      <trkpt lat="44.20054" lon="4.46149">
        <ele>101</ele>
        <time>2021-07-04T13:19:47Z</time>
      </trkpt>
      <trkpt lat="44.20119" lon="4.46276">
        <ele>103</ele>
        <time>2021-07-04T13:20:14Z</time>
      </trkpt>
      <trkpt lat="44.20041" lon="4.46331">
        <ele>103</ele>
        <time>2021-07-04T13:20:34Z</time>
      </trkpt>
      <trkpt lat="44.19973" lon="4.46327">
        <ele>106</ele>
        <time>2021-07-04T13:20:50Z</time>
      </trkpt>
      <trkpt lat="44.19906" lon="4.46309">
        <ele>111</ele>
        <time>2021-07-04T13:21:06Z</time>
      </trkpt>
      <trkpt lat="44.19841" lon="4.46279">
        <ele>119</ele>
        <time>2021-07-04T13:21:22Z</time>
      </trkpt>
      <trkpt lat="44.19817" lon="4.46263">
        <ele>124</ele>
        <time>2021-07-04T13:21:28Z</time>
      </trkpt>
      <trkpt lat="44.1978" lon="4.46213">
        <ele>131</ele>
        <time>2021-07-04T13:21:40Z</time>
      </trkpt>
      <trkpt lat="44.1966" lon="4.46032">
        <ele>162</ele>
        <time>2021-07-04T13:22:21Z</time>
      </trkpt>
      <trkpt lat="44.19604" lon="4.45951">
        <ele>170</ele>
        <time>2021-07-04T13:22:40Z</time>
      </trkpt>
      <trkpt lat="44.19571" lon="4.45909">
        <ele>172</ele>
        <time>2021-07-04T13:22:51Z</time>
      </trkpt>
      <trkpt lat="44.1955" lon="4.4591">
        <ele>171</ele>
        <time>2021-07-04T13:22:55Z</time>
      </trkpt>
      <trkpt lat="44.1954" lon="4.45901">
        <ele>171</ele>
        <time>2021-07-04T13:22:58Z</time>
      </trkpt>
      <trkpt lat="44.19493" lon="4.45775">
        <ele>180</ele>
        <time>2021-07-04T13:23:22Z</time>
      </trkpt>
      <trkpt lat="44.19467" lon="4.45733">
        <ele>184</ele>
        <time>2021-07-04T13:23:31Z</time>
      </trkpt>
      <trkpt lat="44.1943" lon="4.45734">
        <ele>187</ele>
        <time>2021-07-04T13:23:40Z</time>
      </trkpt>
      <trkpt lat="44.19388" lon="4.45776">
        <ele>187</ele>
        <time>2021-07-04T13:23:52Z</time>
      </trkpt>
      <trkpt lat="44.19356" lon="4.45812">
        <ele>185</ele>
        <time>2021-07-04T13:24:02Z</time>
      </trkpt>
      <trkpt lat="44.19362" lon="4.45757">
        <ele>191</ele>
        <time>2021-07-04T13:24:11Z</time>
      </trkpt>
      <trkpt lat="44.19355" lon="4.45607">
        <ele>204</ele>
        <time>2021-07-04T13:24:36Z</time>
      </trkpt>
      <trkpt lat="44.19314" lon="4.45557">
        <ele>211</ele>
        <time>2021-07-04T13:24:49Z</time>
      </trkpt>
      <trkpt lat="44.19298" lon="4.45477">
        <ele>210</ele>
        <time>2021-07-04T13:25:03Z</time>
      </trkpt>
      <trkpt lat="44.1923" lon="4.4535">
        <ele>196</ele>
        <time>2021-07-04T13:25:29Z</time>
      </trkpt>
      <trkpt lat="44.19213" lon="4.45328">
        <ele>192</ele>
        <time>2021-07-04T13:25:35Z</time>
      </trkpt>
      <trkpt lat="44.19184" lon="4.45279">
        <ele>188</ele>
        <time>2021-07-04T13:25:45Z</time>
      </trkpt>
      <trkpt lat="44.19137" lon="4.45077">
        <ele>191</ele>
        <time>2021-07-04T13:26:21Z</time>
      </trkpt>
      <trkpt lat="44.19103" lon="4.45057">
        <ele>187</ele>
        <time>2021-07-04T13:26:30Z</time>
      </trkpt>
      <trkpt lat="44.19071" lon="4.44977">
        <ele>187</ele>
        <time>2021-07-04T13:26:45Z</time>
      </trkpt>
      <trkpt lat="44.19002" lon="4.44919">
        <ele>182</ele>
        <time>2021-07-04T13:27:04Z</time>
      </trkpt>
      <trkpt lat="44.1897" lon="4.44913">
        <ele>178</ele>
        <time>2021-07-04T13:27:11Z</time>
      </trkpt>
      <trkpt lat="44.18921" lon="4.44931">
        <ele>171</ele>
        <time>2021-07-04T13:27:23Z</time>
      </trkpt>
      <trkpt lat="44.18883" lon="4.44933">
        <ele>167</ele>
        <time>2021-07-04T13:27:32Z</time>
      </trkpt>
      <trkpt lat="44.18862" lon="4.44945">
        <ele>164</ele>
        <time>2021-07-04T13:27:37Z</time>
      </trkpt>
      <trkpt lat="44.18818" lon="4.44943">
        <ele>159</ele>
        <time>2021-07-04T13:27:47Z</time>
      </trkpt>
      <trkpt lat="44.1879" lon="4.44948">
        <ele>156</ele>
        <time>2021-07-04T13:27:54Z</time>
      </trkpt>
      <trkpt lat="44.18769" lon="4.44976">
        <ele>155</ele>
        <time>2021-07-04T13:28:01Z</time>
      </trkpt>
      <trkpt lat="44.18762" lon="4.44979">
        <ele>154</ele>
        <time>2021-07-04T13:28:03Z</time>
      </trkpt>
      <trkpt lat="44.18722" lon="4.449">
        <ele>152</ele>
        <time>2021-07-04T13:28:19Z</time>
      </trkpt>
      <trkpt lat="44.18679" lon="4.44832">
        <ele>147</ele>
        <time>2021-07-04T13:28:34Z</time>
      </trkpt>
      <trkpt lat="44.18597" lon="4.44781">
        <ele>142</ele>
        <time>2021-07-04T13:28:55Z</time>
      </trkpt>
      <trkpt lat="44.18508" lon="4.44769">
        <ele>142</ele>
        <time>2021-07-04T13:29:16Z</time>
      </trkpt>
      <trkpt lat="44.18469" lon="4.44771">
        <ele>140</ele>
        <time>2021-07-04T13:29:25Z</time>
      </trkpt>
      <trkpt lat="44.18447" lon="4.44776">
        <ele>139</ele>
        <time>2021-07-04T13:29:30Z</time>
      </trkpt>
      <trkpt lat="44.18422" lon="4.44771">
        <ele>136</ele>
        <time>2021-07-04T13:29:36Z</time>
      </trkpt>
      <trkpt lat="44.18355" lon="4.44792">
        <ele>133</ele>
        <time>2021-07-04T13:29:52Z</time>
      </trkpt>
      <trkpt lat="44.18338" lon="4.44823">
        <ele>134</ele>
        <time>2021-07-04T13:29:59Z</time>
      </trkpt>
      <trkpt lat="44.18324" lon="4.44878">
        <ele>134</ele>
        <time>2021-07-04T13:30:08Z</time>
      </trkpt>
      <trkpt lat="44.18303" lon="4.44922">
        <ele>132</ele>
        <time>2021-07-04T13:30:17Z</time>
      </trkpt>
      <trkpt lat="44.18276" lon="4.45011">
        <ele>131</ele>
        <time>2021-07-04T13:30:33Z</time>
      </trkpt>
      <trkpt lat="44.18278" lon="4.45035">
        <ele>132</ele>
        <time>2021-07-04T13:30:37Z</time>
      </trkpt>
      <trkpt lat="44.18265" lon="4.45057">
        <ele>131</ele>
        <time>2021-07-04T13:30:42Z</time>
      </trkpt>
      <trkpt lat="44.18254" lon="4.45101">
        <ele>129</ele>
        <time>2021-07-04T13:30:50Z</time>
      </trkpt>
      <trkpt lat="44.18249" lon="4.45181">
        <ele>125</ele>
        <time>2021-07-04T13:31:03Z</time>
      </trkpt>
      <trkpt lat="44.18238" lon="4.45234">
        <ele>122</ele>
        <time>2021-07-04T13:31:13Z</time>
      </trkpt>
      <trkpt lat="44.18245" lon="4.45256">
        <ele>122</ele>
        <time>2021-07-04T13:31:17Z</time>
      </trkpt>
      <trkpt lat="44.18261" lon="4.45355">
        <ele>125</ele>
        <time>2021-07-04T13:31:34Z</time>
      </trkpt>
      <trkpt lat="44.18259" lon="4.45424">
        <ele>124</ele>
        <time>2021-07-04T13:31:45Z</time>
      </trkpt>
      <trkpt lat="44.18241" lon="4.45499">
        <ele>122</ele>
        <time>2021-07-04T13:31:59Z</time>
      </trkpt>
      <trkpt lat="44.18235" lon="4.45586">
        <ele>118</ele>
        <time>2021-07-04T13:32:13Z</time>
      </trkpt>
      <trkpt lat="44.18248" lon="4.456">
        <ele>121</ele>
        <time>2021-07-04T13:32:17Z</time>
      </trkpt>
      <trkpt lat="44.18281" lon="4.45609">
        <ele>132</ele>
        <time>2021-07-04T13:32:25Z</time>
      </trkpt>
      <trkpt lat="44.18291" lon="4.45624">
        <ele>135</ele>
        <time>2021-07-04T13:32:28Z</time>
      </trkpt>
      <trkpt lat="44.18255" lon="4.45712">
        <ele>128</ele>
        <time>2021-07-04T13:32:45Z</time>
      </trkpt>
      <trkpt lat="44.18247" lon="4.45746">
        <ele>130</ele>
        <time>2021-07-04T13:32:51Z</time>
      </trkpt>
      <trkpt lat="44.18255" lon="4.45795">
        <ele>139</ele>
        <time>2021-07-04T13:33:00Z</time>
      </trkpt>
      <trkpt lat="44.18228" lon="4.45867">
        <ele>138</ele>
        <time>2021-07-04T13:33:13Z</time>
      </trkpt>
      <trkpt lat="44.18218" lon="4.4594">
        <ele>140</ele>
        <time>2021-07-04T13:33:26Z</time>
      </trkpt>
      <trkpt lat="44.18219" lon="4.45999">
        <ele>141</ele>
        <time>2021-07-04T13:33:36Z</time>
      </trkpt>
      <trkpt lat="44.18234" lon="4.46036">
        <ele>144</ele>
        <time>2021-07-04T13:33:43Z</time>
      </trkpt>
      <trkpt lat="44.18271" lon="4.46049">
        <ele>151</ele>
        <time>2021-07-04T13:33:52Z</time>
      </trkpt>
      <trkpt lat="44.18314" lon="4.46042">
        <ele>157</ele>
        <time>2021-07-04T13:34:02Z</time>
      </trkpt>
      <trkpt lat="44.18334" lon="4.46059">
        <ele>159</ele>
        <time>2021-07-04T13:34:07Z</time>
      </trkpt>
      <trkpt lat="44.18331" lon="4.46098">
        <ele>157</ele>
        <time>2021-07-04T13:34:14Z</time>
      </trkpt>
      <trkpt lat="44.18325" lon="4.46121">
        <ele>157</ele>
        <time>2021-07-04T13:34:18Z</time>
      </trkpt>
      <trkpt lat="44.18339" lon="4.46113">
        <ele>159</ele>
        <time>2021-07-04T13:34:21Z</time>
      </trkpt>
      <trkpt lat="44.18356" lon="4.46141">
        <ele>161</ele>
        <time>2021-07-04T13:34:28Z</time>
      </trkpt>
      <trkpt lat="44.18385" lon="4.46151">
        <ele>164</ele>
        <time>2021-07-04T13:34:35Z</time>
      </trkpt>
      <trkpt lat="44.18443" lon="4.4621">
        <ele>165</ele>
        <time>2021-07-04T13:34:51Z</time>
      </trkpt>
      <trkpt lat="44.18494" lon="4.46231">
        <ele>165</ele>
        <time>2021-07-04T13:35:04Z</time>
      </trkpt>
      <trkpt lat="44.18543" lon="4.46242">
        <ele>165</ele>
        <time>2021-07-04T13:35:15Z</time>
      </trkpt>
      <trkpt lat="44.18555" lon="4.46266">
        <ele>163</ele>
        <time>2021-07-04T13:35:20Z</time>
      </trkpt>
      <trkpt lat="44.18616" lon="4.46272">
        <ele>164</ele>
        <time>2021-07-04T13:35:35Z</time>
      </trkpt>
      <trkpt lat="44.18656" lon="4.46286">
        <ele>163</ele>
        <time>2021-07-04T13:35:44Z</time>
      </trkpt>
      <trkpt lat="44.18685" lon="4.4631">
        <ele>161</ele>
        <time>2021-07-04T13:35:52Z</time>
      </trkpt>
      <trkpt lat="44.18753" lon="4.46306">
        <ele>165</ele>
        <time>2021-07-04T13:36:08Z</time>
      </trkpt>
      <trkpt lat="44.18791" lon="4.46327">
        <ele>165</ele>
        <time>2021-07-04T13:36:17Z</time>
      </trkpt>
      <trkpt lat="44.18833" lon="4.46358">
        <ele>165</ele>
        <time>2021-07-04T13:36:29Z</time>
      </trkpt>
      <trkpt lat="44.18908" lon="4.4636">
        <ele>168</ele>
        <time>2021-07-04T13:36:46Z</time>
      </trkpt>
      <trkpt lat="44.1895" lon="4.46367">
        <ele>169</ele>
        <time>2021-07-04T13:36:56Z</time>
      </trkpt>
      <trkpt lat="44.1899" lon="4.46431">
        <ele>165</ele>
        <time>2021-07-04T13:37:10Z</time>
      </trkpt>
      <trkpt lat="44.19012" lon="4.46443">
        <ele>165</ele>
        <time>2021-07-04T13:37:16Z</time>
      </trkpt>
      <trkpt lat="44.19022" lon="4.46479">
        <ele>163</ele>
        <time>2021-07-04T13:37:22Z</time>
      </trkpt>
      <trkpt lat="44.19037" lon="4.46598">
        <ele>154</ele>
        <time>2021-07-04T13:37:42Z</time>
      </trkpt>
      <trkpt lat="44.19048" lon="4.46638">
        <ele>151</ele>
        <time>2021-07-04T13:37:50Z</time>
      </trkpt>
      <trkpt lat="44.19059" lon="4.46655">
        <ele>151</ele>
        <time>2021-07-04T13:37:53Z</time>
      </trkpt>
      <trkpt lat="44.19051" lon="4.46696">
        <ele>146</ele>
        <time>2021-07-04T13:38:00Z</time>
      </trkpt>
      <trkpt lat="44.19056" lon="4.4678">
        <ele>140</ele>
        <time>2021-07-04T13:38:15Z</time>
      </trkpt>
      <trkpt lat="44.1907" lon="4.46865">
        <ele>134</ele>
        <time>2021-07-04T13:38:29Z</time>
      </trkpt>
      <trkpt lat="44.19074" lon="4.46926">
        <ele>128</ele>
        <time>2021-07-04T13:38:39Z</time>
      </trkpt>
      <trkpt lat="44.19125" lon="4.47092">
        <ele>124</ele>
        <time>2021-07-04T13:39:10Z</time>
      </trkpt>
      <trkpt lat="44.19146" lon="4.47193">
        <ele>118</ele>
        <time>2021-07-04T13:39:27Z</time>
      </trkpt>
      <trkpt lat="44.19161" lon="4.4722">
        <ele>118</ele>
        <time>2021-07-04T13:39:33Z</time>
      </trkpt>
      <trkpt lat="44.19183" lon="4.47233">
        <ele>122</ele>
        <time>2021-07-04T13:39:39Z</time>
      </trkpt>
      <trkpt lat="44.19195" lon="4.47256">
        <ele>122</ele>
        <time>2021-07-04T13:39:43Z</time>
      </trkpt>
      <trkpt lat="44.19241" lon="4.47415">
        <ele>113</ele>
        <time>2021-07-04T13:40:12Z</time>
      </trkpt>
      <trkpt lat="44.19209" lon="4.47359">
        <ele>113</ele>
        <time>2021-07-04T13:40:24Z</time>
      </trkpt>
      <trkpt lat="44.19184" lon="4.4734">
        <ele>110</ele>
        <time>2021-07-04T13:40:31Z</time>
      </trkpt>
      <trkpt lat="44.19138" lon="4.47331">
        <ele>102</ele>
        <time>2021-07-04T13:40:42Z</time>
      </trkpt>
      <trkpt lat="44.19079" lon="4.47238">
        <ele>98</ele>
        <time>2021-07-04T13:41:02Z</time>
      </trkpt>
      <trkpt lat="44.1906" lon="4.47192">
        <ele>100</ele>
        <time>2021-07-04T13:41:11Z</time>
      </trkpt>
      <trkpt lat="44.19009" lon="4.47156">
        <ele>95</ele>
        <time>2021-07-04T13:41:25Z</time>
      </trkpt>
      <trkpt lat="44.1897" lon="4.47123">
        <ele>95</ele>
        <time>2021-07-04T13:41:35Z</time>
      </trkpt>
      <trkpt lat="44.18946" lon="4.47098">
        <ele>96</ele>
        <time>2021-07-04T13:41:42Z</time>
      </trkpt>
      <trkpt lat="44.18919" lon="4.4706">
        <ele>98</ele>
        <time>2021-07-04T13:41:51Z</time>
      </trkpt>
      <trkpt lat="44.18854" lon="4.47003">
        <ele>97</ele>
        <time>2021-07-04T13:42:09Z</time>
      </trkpt>
      <trkpt lat="44.18732" lon="4.46911">
        <ele>101</ele>
        <time>2021-07-04T13:42:42Z</time>
      </trkpt>
      <trkpt lat="44.18702" lon="4.46897">
        <ele>101</ele>
        <time>2021-07-04T13:42:49Z</time>
      </trkpt>
      <trkpt lat="44.18662" lon="4.46891">
        <ele>101</ele>
        <time>2021-07-04T13:42:58Z</time>
      </trkpt>
      <trkpt lat="44.18601" lon="4.46902">
        <ele>99</ele>
        <time>2021-07-04T13:43:13Z</time>
      </trkpt>
      <trkpt lat="44.18576" lon="4.46926">
        <ele>96</ele>
        <time>2021-07-04T13:43:20Z</time>
      </trkpt>
      <trkpt lat="44.18553" lon="4.46953">
        <ele>94</ele>
        <time>2021-07-04T13:43:27Z</time>
      </trkpt>
      <trkpt lat="44.18596" lon="4.4697">
        <ele>93</ele>
        <time>2021-07-04T13:43:37Z</time>
      </trkpt>
      <trkpt lat="44.1864" lon="4.47005">
        <ele>91</ele>
        <time>2021-07-04T13:43:49Z</time>
      </trkpt>
      <trkpt lat="44.18664" lon="4.47038">
        <ele>89</ele>
        <time>2021-07-04T13:43:57Z</time>
      </trkpt>
      <trkpt lat="44.18705" lon="4.47085">
        <ele>85</ele>
        <time>2021-07-04T13:44:09Z</time>
      </trkpt>
      <trkpt lat="44.18713" lon="4.47112">
        <ele>84</ele>
        <time>2021-07-04T13:44:14Z</time>
      </trkpt>
      <trkpt lat="44.18711" lon="4.4715">
        <ele>82</ele>
        <time>2021-07-04T13:44:21Z</time>
      </trkpt>
      <trkpt lat="44.18715" lon="4.47189">
        <ele>80</ele>
        <time>2021-07-04T13:44:27Z</time>
      </trkpt>
      <trkpt lat="44.18742" lon="4.47279">
        <ele>78</ele>
        <time>2021-07-04T13:44:44Z</time>
      </trkpt>
      <trkpt lat="44.18747" lon="4.47327">
        <ele>77</ele>
        <time>2021-07-04T13:44:52Z</time>
      </trkpt>
      <trkpt lat="44.18758" lon="4.47345">
        <ele>77</ele>
        <time>2021-07-04T13:44:56Z</time>
      </trkpt>
      <trkpt lat="44.18724" lon="4.47383">
        <ele>79</ele>
        <time>2021-07-04T13:45:06Z</time>
      </trkpt>
      <trkpt lat="44.18698" lon="4.47381">
        <ele>79</ele>
        <time>2021-07-04T13:45:12Z</time>
      </trkpt>
      <trkpt lat="44.18681" lon="4.4736">
        <ele>79</ele>
        <time>2021-07-04T13:45:17Z</time>
      </trkpt>
      <trkpt lat="44.18674" lon="4.47329">
        <ele>80</ele>
        <time>2021-07-04T13:45:23Z</time>
      </trkpt>
      <trkpt lat="44.18665" lon="4.47324">
        <ele>80</ele>
        <time>2021-07-04T13:45:25Z</time>
      </trkpt>
      <trkpt lat="44.18654" lon="4.47323">
        <ele>80</ele>
        <time>2021-07-04T13:45:27Z</time>
      </trkpt>
      <trkpt lat="44.18654" lon="4.47339">
        <ele>80</ele>
        <time>2021-07-04T13:45:30Z</time>
      </trkpt>
      <trkpt lat="44.18665" lon="4.47388">
        <ele>79</ele>
        <time>2021-07-04T13:45:39Z</time>
      </trkpt>
      <trkpt lat="44.18675" lon="4.47455">
        <ele>78</ele>
        <time>2021-07-04T13:45:50Z</time>
      </trkpt>
      <trkpt lat="44.18673" lon="4.47474">
        <ele>78</ele>
        <time>2021-07-04T13:45:53Z</time>
      </trkpt>
      <trkpt lat="44.18665" lon="4.47501">
        <ele>78</ele>
        <time>2021-07-04T13:45:58Z</time>
      </trkpt>
      <trkpt lat="44.1865" lon="4.47503">
        <ele>78</ele>
        <time>2021-07-04T13:46:02Z</time>
      </trkpt>
      <trkpt lat="44.18648" lon="4.47514">
        <ele>78</ele>
        <time>2021-07-04T13:46:04Z</time>
      </trkpt>
      <trkpt lat="44.18654" lon="4.47529">
        <ele>78</ele>
        <time>2021-07-04T13:46:07Z</time>
      </trkpt>
      <trkpt lat="44.18671" lon="4.47545">
        <ele>78</ele>
        <time>2021-07-04T13:46:11Z</time>
      </trkpt>
      <trkpt lat="44.1862" lon="4.4781">
        <ele>81</ele>
        <time>2021-07-04T13:46:57Z</time>
      </trkpt>
      <trkpt lat="44.18545" lon="4.47739">
        <ele>80</ele>
        <time>2021-07-04T13:47:19Z</time>
      </trkpt>
      <trkpt lat="44.18522" lon="4.47731">
        <ele>81</ele>
        <time>2021-07-04T13:47:24Z</time>
      </trkpt>
      <trkpt lat="44.18356" lon="4.47723">
        <ele>85</ele>
        <time>2021-07-04T13:48:03Z</time>
      </trkpt>
      <trkpt lat="44.18353" lon="4.4775">
        <ele>85</ele>
        <time>2021-07-04T13:48:07Z</time>
      </trkpt>
      <trkpt lat="44.18315" lon="4.47864">
        <ele>89</ele>
        <time>2021-07-04T13:48:28Z</time>
      </trkpt>
      <trkpt lat="44.18257" lon="4.47928">
        <ele>92</ele>
        <time>2021-07-04T13:48:46Z</time>
      </trkpt>
      <trkpt lat="44.18235" lon="4.47992">
        <ele>94</ele>
        <time>2021-07-04T13:48:58Z</time>
      </trkpt>
      <trkpt lat="44.18183" lon="4.48121">
        <ele>100</ele>
        <time>2021-07-04T13:49:22Z</time>
      </trkpt>
      <trkpt lat="44.18126" lon="4.48235">
        <ele>101</ele>
        <time>2021-07-04T13:49:46Z</time>
      </trkpt>
      <trkpt lat="44.18022" lon="4.48467">
        <ele>103</ele>
        <time>2021-07-04T13:50:31Z</time>
      </trkpt>
      <trkpt lat="44.18014" lon="4.48511">
        <ele>104</ele>
        <time>2021-07-04T13:50:39Z</time>
      </trkpt>
      <trkpt lat="44.18017" lon="4.48551">
        <ele>104</ele>
        <time>2021-07-04T13:50:46Z</time>
      </trkpt>
      <trkpt lat="44.18003" lon="4.4868">
        <ele>108</ele>
        <time>2021-07-04T13:51:08Z</time>
      </trkpt>
      <trkpt lat="44.17978" lon="4.4869">
        <ele>107</ele>
        <time>2021-07-04T13:51:14Z</time>
      </trkpt>
      <trkpt lat="44.17955" lon="4.48744">
        <ele>109</ele>
        <time>2021-07-04T13:51:24Z</time>
      </trkpt>
      <trkpt lat="44.17942" lon="4.48782">
        <ele>110</ele>
        <time>2021-07-04T13:51:31Z</time>
      </trkpt>
      <trkpt lat="44.17922" lon="4.48812">
        <ele>111</ele>
        <time>2021-07-04T13:51:38Z</time>
      </trkpt>
      <trkpt lat="44.17849" lon="4.48879">
        <ele>110</ele>
        <time>2021-07-04T13:51:59Z</time>
      </trkpt>
      <trkpt lat="44.17769" lon="4.48934">
        <ele>106</ele>
        <time>2021-07-04T13:52:19Z</time>
      </trkpt>
      <trkpt lat="44.17762" lon="4.48941">
        <ele>105</ele>
        <time>2021-07-04T13:52:21Z</time>
      </trkpt>
      <trkpt lat="44.17748" lon="4.48974">
        <ele>106</ele>
        <time>2021-07-04T13:52:28Z</time>
      </trkpt>
      <trkpt lat="44.17732" lon="4.48999">
        <ele>107</ele>
        <time>2021-07-04T13:52:33Z</time>
      </trkpt>
      <trkpt lat="44.17675" lon="4.49041">
        <ele>107</ele>
        <time>2021-07-04T13:52:49Z</time>
      </trkpt>
      <trkpt lat="44.1765" lon="4.4907">
        <ele>110</ele>
        <time>2021-07-04T13:52:56Z</time>
      </trkpt>
      <trkpt lat="44.17646" lon="4.49086">
        <ele>111</ele>
        <time>2021-07-04T13:52:59Z</time>
      </trkpt>
      <trkpt lat="44.17644" lon="4.4912">
        <ele>112</ele>
        <time>2021-07-04T13:53:05Z</time>
      </trkpt>
      <trkpt lat="44.17661" lon="4.49182">
        <ele>112</ele>
        <time>2021-07-04T13:53:16Z</time>
      </trkpt>
      <trkpt lat="44.17663" lon="4.49218">
        <ele>113</ele>
        <time>2021-07-04T13:53:22Z</time>
      </trkpt>
      <trkpt lat="44.17637" lon="4.4928">
        <ele>116</ele>
        <time>2021-07-04T13:53:34Z</time>
      </trkpt>
      <trkpt lat="44.1759" lon="4.49354">
        <ele>117</ele>
        <time>2021-07-04T13:53:50Z</time>
      </trkpt>
      <trkpt lat="44.17573" lon="4.49404">
        <ele>118</ele>
        <time>2021-07-04T13:54:00Z</time>
      </trkpt>
      <trkpt lat="44.17569" lon="4.49495">
        <ele>123</ele>
        <time>2021-07-04T13:54:15Z</time>
      </trkpt>
      <trkpt lat="44.17579" lon="4.49547">
        <ele>123</ele>
        <time>2021-07-04T13:54:24Z</time>
      </trkpt>
      <trkpt lat="44.17588" lon="4.49612">
        <ele>123</ele>
        <time>2021-07-04T13:54:35Z</time>
      </trkpt>
      <trkpt lat="44.17591" lon="4.49766">
        <ele>128</ele>
        <time>2021-07-04T13:55:01Z</time>
      </trkpt>
      <trkpt lat="44.17552" lon="4.49884">
        <ele>133</ele>
        <time>2021-07-04T13:55:23Z</time>
      </trkpt>
      <trkpt lat="44.17523" lon="4.49994">
        <ele>139</ele>
        <time>2021-07-04T13:55:42Z</time>
      </trkpt>
      <trkpt lat="44.17496" lon="4.50122">
        <ele>146</ele>
        <time>2021-07-04T13:56:05Z</time>
      </trkpt>
      <trkpt lat="44.17476" lon="4.50309">
        <ele>151</ele>
        <time>2021-07-04T13:56:36Z</time>
      </trkpt>
      <trkpt lat="44.17465" lon="4.50383">
        <ele>152</ele>
        <time>2021-07-04T13:56:49Z</time>
      </trkpt>
      <trkpt lat="44.17474" lon="4.50415">
        <ele>151</ele>
        <time>2021-07-04T13:56:55Z</time>
      </trkpt>
      <trkpt lat="44.17477" lon="4.50462">
        <ele>151</ele>
        <time>2021-07-04T13:57:03Z</time>
      </trkpt>
      <trkpt lat="44.17485" lon="4.50496">
        <ele>149</ele>
        <time>2021-07-04T13:57:09Z</time>
      </trkpt>
      <trkpt lat="44.17497" lon="4.50504">
        <ele>147</ele>
        <time>2021-07-04T13:57:12Z</time>
      </trkpt>
      <trkpt lat="44.17514" lon="4.50404">
        <ele>149</ele>
        <time>2021-07-04T13:57:29Z</time>
      </trkpt>
      <trkpt lat="44.17565" lon="4.50408">
        <ele>150</ele>
        <time>2021-07-04T13:57:41Z</time>
      </trkpt>
      <trkpt lat="44.17587" lon="4.50427">
        <ele>150</ele>
        <time>2021-07-04T13:57:47Z</time>
      </trkpt>
      <trkpt lat="44.17574" lon="4.5048">
        <ele>148</ele>
        <time>2021-07-04T13:57:56Z</time>
      </trkpt>
      <trkpt lat="44.17575" lon="4.50586">
        <ele>145</ele>
        <time>2021-07-04T13:58:14Z</time>
      </trkpt>
      <trkpt lat="44.17596" lon="4.5074">
        <ele>137</ele>
        <time>2021-07-04T13:58:40Z</time>
      </trkpt>
      <trkpt lat="44.17621" lon="4.50797">
        <ele>138</ele>
        <time>2021-07-04T13:58:51Z</time>
      </trkpt>
      <trkpt lat="44.17642" lon="4.50879">
        <ele>138</ele>
        <time>2021-07-04T13:59:06Z</time>
      </trkpt>
      <trkpt lat="44.17654" lon="4.50958">
        <ele>135</ele>
        <time>2021-07-04T13:59:20Z</time>
      </trkpt>
      <trkpt lat="44.17666" lon="4.50984">
        <ele>135</ele>
        <time>2021-07-04T13:59:25Z</time>
      </trkpt>
      <trkpt lat="44.17696" lon="4.51018">
        <ele>137</ele>
        <time>2021-07-04T13:59:34Z</time>
      </trkpt>
      <trkpt lat="44.17704" lon="4.51035">
        <ele>138</ele>
        <time>2021-07-04T13:59:37Z</time>
      </trkpt>
      <trkpt lat="44.17689" lon="4.5107">
        <ele>136</ele>
        <time>2021-07-04T13:59:44Z</time>
      </trkpt>
      <trkpt lat="44.17689" lon="4.51157">
        <ele>133</ele>
        <time>2021-07-04T13:59:59Z</time>
      </trkpt>
      <trkpt lat="44.17693" lon="4.51192">
        <ele>133</ele>
        <time>2021-07-04T14:00:05Z</time>
      </trkpt>
      <trkpt lat="44.17725" lon="4.51294">
        <ele>134</ele>
        <time>2021-07-04T14:00:23Z</time>
      </trkpt>
      <trkpt lat="44.17734" lon="4.51392">
        <ele>131</ele>
        <time>2021-07-04T14:00:40Z</time>
      </trkpt>
      <trkpt lat="44.17741" lon="4.51436">
        <ele>131</ele>
        <time>2021-07-04T14:00:47Z</time>
      </trkpt>
      <trkpt lat="44.17746" lon="4.51509">
        <ele>130</ele>
        <time>2021-07-04T14:01:00Z</time>
      </trkpt>
      <trkpt lat="44.1782" lon="4.51637">
        <ele>139</ele>
        <time>2021-07-04T14:01:27Z</time>
      </trkpt>
      <trkpt lat="44.17827" lon="4.51722">
        <ele>140</ele>
        <time>2021-07-04T14:01:41Z</time>
      </trkpt>
      <trkpt lat="44.17834" lon="4.51864">
        <ele>142</ele>
        <time>2021-07-04T14:02:05Z</time>
      </trkpt>
      <trkpt lat="44.17847" lon="4.51984">
        <ele>139</ele>
        <time>2021-07-04T14:02:26Z</time>
      </trkpt>
      <trkpt lat="44.17867" lon="4.51986">
        <ele>139</ele>
        <time>2021-07-04T14:02:30Z</time>
      </trkpt>
      <trkpt lat="44.17892" lon="4.51944">
        <ele>142</ele>
        <time>2021-07-04T14:02:39Z</time>
      </trkpt>
      <trkpt lat="44.17925" lon="4.51945">
        <ele>145</ele>
        <time>2021-07-04T14:02:47Z</time>
      </trkpt>
      <trkpt lat="44.17963" lon="4.51972">
        <ele>150</ele>
        <time>2021-07-04T14:02:57Z</time>
      </trkpt>
      <trkpt lat="44.17976" lon="4.52059">
        <ele>144</ele>
        <time>2021-07-04T14:03:12Z</time>
      </trkpt>
      <trkpt lat="44.18003" lon="4.52104">
        <ele>144</ele>
        <time>2021-07-04T14:03:22Z</time>
      </trkpt>
      <trkpt lat="44.18094" lon="4.52207">
        <ele>143</ele>
        <time>2021-07-04T14:03:49Z</time>
      </trkpt>
      <trkpt lat="44.18138" lon="4.52215">
        <ele>146</ele>
        <time>2021-07-04T14:04:00Z</time>
      </trkpt>
      <trkpt lat="44.18216" lon="4.52189">
        <ele>156</ele>
        <time>2021-07-04T14:04:18Z</time>
      </trkpt>
      <trkpt lat="44.18236" lon="4.52185">
        <ele>157</ele>
        <time>2021-07-04T14:04:23Z</time>
      </trkpt>
      <trkpt lat="44.18262" lon="4.52184">
        <ele>155</ele>
        <time>2021-07-04T14:04:29Z</time>
      </trkpt>
      <trkpt lat="44.1831" lon="4.52164">
        <ele>158</ele>
        <time>2021-07-04T14:04:41Z</time>
      </trkpt>
      <trkpt lat="44.1832" lon="4.52141">
        <ele>161</ele>
        <time>2021-07-04T14:04:45Z</time>
      </trkpt>
      <trkpt lat="44.18321" lon="4.52103">
        <ele>168</ele>
        <time>2021-07-04T14:04:52Z</time>
      </trkpt>
      <trkpt lat="44.18337" lon="4.52073">
        <ele>169</ele>
        <time>2021-07-04T14:04:58Z</time>
      </trkpt>
      <trkpt lat="44.18362" lon="4.5204">
        <ele>166</ele>
        <time>2021-07-04T14:05:06Z</time>
      </trkpt>
      <trkpt lat="44.18375" lon="4.52003">
        <ele>169</ele>
        <time>2021-07-04T14:05:13Z</time>
      </trkpt>
      <trkpt lat="44.18403" lon="4.51983">
        <ele>164</ele>
        <time>2021-07-04T14:05:20Z</time>
      </trkpt>
      <trkpt lat="44.18419" lon="4.51959">
        <ele>164</ele>
        <time>2021-07-04T14:05:26Z</time>
      </trkpt>
      <trkpt lat="44.18472" lon="4.51917">
        <ele>160</ele>
        <time>2021-07-04T14:05:40Z</time>
      </trkpt>
      <trkpt lat="44.18478" lon="4.51876">
        <ele>153</ele>
        <time>2021-07-04T14:05:47Z</time>
      </trkpt>
      <trkpt lat="44.18454" lon="4.5184">
        <ele>155</ele>
        <time>2021-07-04T14:05:55Z</time>
      </trkpt>
      <trkpt lat="44.18428" lon="4.51815">
        <ele>160</ele>
        <time>2021-07-04T14:06:02Z</time>
      </trkpt>
      <trkpt lat="44.18411" lon="4.5181">
        <ele>163</ele>
        <time>2021-07-04T14:06:07Z</time>
      </trkpt>
      <trkpt lat="44.18398" lon="4.51751">
        <ele>162</ele>
        <time>2021-07-04T14:06:17Z</time>
      </trkpt>
      <trkpt lat="44.18388" lon="4.51731">
        <ele>166</ele>
        <time>2021-07-04T14:06:21Z</time>
      </trkpt>
      <trkpt lat="44.18388" lon="4.51701">
        <ele>168</ele>
        <time>2021-07-04T14:06:26Z</time>
      </trkpt>
      <trkpt lat="44.18382" lon="4.51684">
        <ele>171</ele>
        <time>2021-07-04T14:06:29Z</time>
      </trkpt>
      <trkpt lat="44.18386" lon="4.51664">
        <ele>171</ele>
        <time>2021-07-04T14:06:33Z</time>
      </trkpt>
      <trkpt lat="44.18425" lon="4.51668">
        <ele>164</ele>
        <time>2021-07-04T14:06:42Z</time>
      </trkpt>
      <trkpt lat="44.18463" lon="4.51668">
        <ele>163</ele>
        <time>2021-07-04T14:06:51Z</time>
      </trkpt>
      <trkpt lat="44.18495" lon="4.51635">
        <ele>165</ele>
        <time>2021-07-04T14:07:00Z</time>
      </trkpt>
      <trkpt lat="44.18501" lon="4.51595">
        <ele>168</ele>
        <time>2021-07-04T14:07:07Z</time>
      </trkpt>
      <trkpt lat="44.18533" lon="4.51544">
        <ele>161</ele>
        <time>2021-07-04T14:07:18Z</time>
      </trkpt>
      <trkpt lat="44.18541" lon="4.51489">
        <ele>157</ele>
        <time>2021-07-04T14:07:28Z</time>
      </trkpt>
      <trkpt lat="44.1855" lon="4.51462">
        <ele>153</ele>
        <time>2021-07-04T14:07:33Z</time>
      </trkpt>
      <trkpt lat="44.1852" lon="4.51397">
        <ele>153</ele>
        <time>2021-07-04T14:07:45Z</time>
      </trkpt>
      <trkpt lat="44.18535" lon="4.51385">
        <ele>150</ele>
        <time>2021-07-04T14:07:49Z</time>
      </trkpt>
      <trkpt lat="44.18668" lon="4.51513">
        <ele>131</ele>
        <time>2021-07-04T14:08:27Z</time>
      </trkpt>
      <trkpt lat="44.18708" lon="4.516">
        <ele>122</ele>
        <time>2021-07-04T14:08:45Z</time>
      </trkpt>
      <trkpt lat="44.18714" lon="4.51541">
        <ele>120</ele>
        <time>2021-07-04T14:08:55Z</time>
      </trkpt>
      <trkpt lat="44.18725" lon="4.51515">
        <ele>118</ele>
        <time>2021-07-04T14:09:00Z</time>
      </trkpt>
      <trkpt lat="44.18748" lon="4.51567">
        <ele>112</ele>
        <time>2021-07-04T14:09:10Z</time>
      </trkpt>
      <trkpt lat="44.18763" lon="4.51619">
        <ele>110</ele>
        <time>2021-07-04T14:09:19Z</time>
      </trkpt>
      <trkpt lat="44.18795" lon="4.5168">
        <ele>106</ele>
        <time>2021-07-04T14:09:32Z</time>
      </trkpt>
      <trkpt lat="44.18803" lon="4.51691">
        <ele>105</ele>
        <time>2021-07-04T14:09:34Z</time>
      </trkpt>
      <trkpt lat="44.18823" lon="4.51683">
        <ele>104</ele>
        <time>2021-07-04T14:09:39Z</time>
      </trkpt>
      <trkpt lat="44.18822" lon="4.51717">
        <ele>103</ele>
        <time>2021-07-04T14:09:45Z</time>
      </trkpt>
      <trkpt lat="44.18825" lon="4.51793">
        <ele>100</ele>
        <time>2021-07-04T14:09:58Z</time>
      </trkpt>
      <trkpt lat="44.18837" lon="4.5184">
        <ele>100</ele>
        <time>2021-07-04T14:10:06Z</time>
      </trkpt>
      <trkpt lat="44.18865" lon="4.51879">
        <ele>104</ele>
        <time>2021-07-04T14:10:15Z</time>
      </trkpt>
      <trkpt lat="44.18888" lon="4.51942">
        <ele>107</ele>
        <time>2021-07-04T14:10:27Z</time>
      </trkpt>
      <trkpt lat="44.18895" lon="4.52042">
        <ele>105</ele>
        <time>2021-07-04T14:10:44Z</time>
      </trkpt>
      <trkpt lat="44.18919" lon="4.52062">
        <ele>108</ele>
        <time>2021-07-04T14:10:51Z</time>
      </trkpt>
      <trkpt lat="44.18943" lon="4.52055">
        <ele>108</ele>
        <time>2021-07-04T14:10:56Z</time>
      </trkpt>
      <trkpt lat="44.18967" lon="4.5206">
        <ele>108</ele>
        <time>2021-07-04T14:11:02Z</time>
      </trkpt>
      <trkpt lat="44.19008" lon="4.51968">
        <ele>118</ele>
        <time>2021-07-04T14:11:20Z</time>
      </trkpt>
      <trkpt lat="44.19025" lon="4.5197">
        <ele>120</ele>
        <time>2021-07-04T14:11:24Z</time>
      </trkpt>
      <trkpt lat="44.19047" lon="4.52058">
        <ele>113</ele>
        <time>2021-07-04T14:11:40Z</time>
      </trkpt>
      <trkpt lat="44.19055" lon="4.52073">
        <ele>112</ele>
        <time>2021-07-04T14:11:43Z</time>
      </trkpt>
      <trkpt lat="44.1909" lon="4.5211">
        <ele>109</ele>
        <time>2021-07-04T14:11:53Z</time>
      </trkpt>
      <trkpt lat="44.19127" lon="4.52127">
        <ele>102</ele>
        <time>2021-07-04T14:12:02Z</time>
      </trkpt>
      <trkpt lat="44.19176" lon="4.5211">
        <ele>100</ele>
        <time>2021-07-04T14:12:14Z</time>
      </trkpt>
      <trkpt lat="44.19266" lon="4.52052">
        <ele>89</ele>
        <time>2021-07-04T14:12:37Z</time>
      </trkpt>
      <trkpt lat="44.19269" lon="4.52038">
        <ele>90</ele>
        <time>2021-07-04T14:12:40Z</time>
      </trkpt>
      <trkpt lat="44.193" lon="4.51999">
        <ele>90</ele>
        <time>2021-07-04T14:12:49Z</time>
      </trkpt>
      <trkpt lat="44.19335" lon="4.51978">
        <ele>86</ele>
        <time>2021-07-04T14:12:58Z</time>
      </trkpt>
      <trkpt lat="44.19363" lon="4.51976">
        <ele>89</ele>
        <time>2021-07-04T14:13:05Z</time>
      </trkpt>
      <trkpt lat="44.19363" lon="4.51914">
        <ele>98</ele>
        <time>2021-07-04T14:13:15Z</time>
      </trkpt>
      <trkpt lat="44.19374" lon="4.51872">
        <ele>105</ele>
        <time>2021-07-04T14:13:23Z</time>
      </trkpt>
      <trkpt lat="44.19387" lon="4.51832">
        <ele>111</ele>
        <time>2021-07-04T14:13:30Z</time>
      </trkpt>
      <trkpt lat="44.194" lon="4.51843">
        <ele>111</ele>
        <time>2021-07-04T14:13:34Z</time>
      </trkpt>
      <trkpt lat="44.19411" lon="4.51865">
        <ele>109</ele>
        <time>2021-07-04T14:13:38Z</time>
      </trkpt>
      <trkpt lat="44.19418" lon="4.51901">
        <ele>105</ele>
        <time>2021-07-04T14:13:44Z</time>
      </trkpt>
      <trkpt lat="44.19422" lon="4.51967">
        <ele>93</ele>
        <time>2021-07-04T14:13:55Z</time>
      </trkpt>
      <trkpt lat="44.19382" lon="4.51993">
        <ele>87</ele>
        <time>2021-07-04T14:14:06Z</time>
      </trkpt>
      <trkpt lat="44.19383" lon="4.52023">
        <ele>82</ele>
        <time>2021-07-04T14:14:11Z</time>
      </trkpt>
      <trkpt lat="44.19402" lon="4.52044">
        <ele>78</ele>
        <time>2021-07-04T14:14:16Z</time>
      </trkpt>
      <trkpt lat="44.19455" lon="4.52047">
        <ele>72</ele>
        <time>2021-07-04T14:14:29Z</time>
      </trkpt>
      <trkpt lat="44.19482" lon="4.52076">
        <ele>65</ele>
        <time>2021-07-04T14:14:37Z</time>
      </trkpt>
      <trkpt lat="44.19442" lon="4.5215">
        <ele>68</ele>
        <time>2021-07-04T14:14:52Z</time>
      </trkpt>
      <trkpt lat="44.19403" lon="4.52199">
        <ele>68</ele>
        <time>2021-07-04T14:15:04Z</time>
      </trkpt>
      <trkpt lat="44.19312" lon="4.52249">
        <ele>66</ele>
        <time>2021-07-04T14:15:27Z</time>
      </trkpt>
      <trkpt lat="44.19303" lon="4.5225">
        <ele>66</ele>
        <time>2021-07-04T14:15:29Z</time>
      </trkpt>
      <trkpt lat="44.19298" lon="4.52262">
        <ele>66</ele>
        <time>2021-07-04T14:15:32Z</time>
      </trkpt>
      <trkpt lat="44.19371" lon="4.5244">
        <ele>63</ele>
        <time>2021-07-04T14:16:06Z</time>
      </trkpt>
      <trkpt lat="44.19389" lon="4.52423">
        <ele>63</ele>
        <time>2021-07-04T14:16:11Z</time>
      </trkpt>
      <trkpt lat="44.19458" lon="4.52336">
        <ele>64</ele>
        <time>2021-07-04T14:16:33Z</time>
      </trkpt>
      <trkpt lat="44.19511" lon="4.52318">
        <ele>68</ele>
        <time>2021-07-04T14:16:46Z</time>
      </trkpt>
      <trkpt lat="44.19623" lon="4.52336">
        <ele>71</ele>
        <time>2021-07-04T14:17:12Z</time>
      </trkpt>
      <trkpt lat="44.1969" lon="4.52365">
        <ele>76</ele>
        <time>2021-07-04T14:17:28Z</time>
      </trkpt>
      <trkpt lat="44.19823" lon="4.52468">
        <ele>78</ele>
        <time>2021-07-04T14:18:04Z</time>
      </trkpt>
      <trkpt lat="44.19876" lon="4.52564">
        <ele>81</ele>
        <time>2021-07-04T14:18:24Z</time>
      </trkpt>
      <trkpt lat="44.19938" lon="4.52687">
        <ele>80</ele>
        <time>2021-07-04T14:18:49Z</time>
      </trkpt>
      <trkpt lat="44.1996" lon="4.52747">
        <ele>79</ele>
        <time>2021-07-04T14:19:01Z</time>
      </trkpt>
      <trkpt lat="44.19958" lon="4.52801">
        <ele>82</ele>
        <time>2021-07-04T14:19:10Z</time>
      </trkpt>
      <trkpt lat="44.20002" lon="4.53186">
        <ele>85</ele>
        <time>2021-07-04T14:20:15Z</time>
      </trkpt>
      <trkpt lat="44.20012" lon="4.53346">
        <ele>83</ele>
        <time>2021-07-04T14:20:42Z</time>
      </trkpt>
      <trkpt lat="44.20011" lon="4.53388">
        <ele>83</ele>
        <time>2021-07-04T14:20:49Z</time>
      </trkpt>
      <trkpt lat="44.20088" lon="4.53462">
        <ele>79</ele>
        <time>2021-07-04T14:21:11Z</time>
      </trkpt>
      <trkpt lat="44.20142" lon="4.53557">
        <ele>80</ele>
        <time>2021-07-04T14:21:31Z</time>
      </trkpt>
      <trkpt lat="44.20153" lon="4.53932">
        <ele>87</ele>
        <time>2021-07-04T14:22:34Z</time>
      </trkpt>
      <trkpt lat="44.20153" lon="4.54047">
        <ele>91</ele>
        <time>2021-07-04T14:22:53Z</time>
      </trkpt>
      <trkpt lat="44.20163" lon="4.54176">
        <ele>98</ele>
        <time>2021-07-04T14:23:15Z</time>
      </trkpt>
      <trkpt lat="44.20137" lon="4.54237">
        <ele>101</ele>
        <time>2021-07-04T14:23:27Z</time>
      </trkpt>
      <trkpt lat="44.20137" lon="4.54269">
        <ele>103</ele>
        <time>2021-07-04T14:23:32Z</time>
      </trkpt>
      <trkpt lat="44.20146" lon="4.54278">
        <ele>104</ele>
        <time>2021-07-04T14:23:35Z</time>
      </trkpt>
      <trkpt lat="44.20173" lon="4.54233">
        <ele>104</ele>
        <time>2021-07-04T14:23:44Z</time>
      </trkpt>
      <trkpt lat="44.20235" lon="4.54159">
        <ele>102</ele>
        <time>2021-07-04T14:24:03Z</time>
      </trkpt>
      <trkpt lat="44.20296" lon="4.54074">
        <ele>99</ele>
        <time>2021-07-04T14:24:24Z</time>
      </trkpt>
      <trkpt lat="44.2032" lon="4.54065">
        <ele>98</ele>
        <time>2021-07-04T14:24:29Z</time>
      </trkpt>
      <trkpt lat="44.20388" lon="4.5405">
        <ele>99</ele>
        <time>2021-07-04T14:24:46Z</time>
      </trkpt>
      <trkpt lat="44.20463" lon="4.54048">
        <ele>101</ele>
        <time>2021-07-04T14:25:03Z</time>
      </trkpt>
      <trkpt lat="44.20528" lon="4.54003">
        <ele>100</ele>
        <time>2021-07-04T14:25:20Z</time>
      </trkpt>
      <trkpt lat="44.20598" lon="4.53961">
        <ele>101</ele>
        <time>2021-07-04T14:25:38Z</time>
      </trkpt>
      <trkpt lat="44.20685" lon="4.53924">
        <ele>105</ele>
        <time>2021-07-04T14:25:59Z</time>
      </trkpt>
      <trkpt lat="44.20793" lon="4.53906">
        <ele>110</ele>
        <time>2021-07-04T14:26:24Z</time>
      </trkpt>
      <trkpt lat="44.20811" lon="4.53894">
        <ele>110</ele>
        <time>2021-07-04T14:26:29Z</time>
      </trkpt>
      <trkpt lat="44.20836" lon="4.53856">
        <ele>111</ele>
        <time>2021-07-04T14:26:38Z</time>
      </trkpt>
      <trkpt lat="44.20858" lon="4.53808">
        <ele>112</ele>
        <time>2021-07-04T14:26:47Z</time>
      </trkpt>
      <trkpt lat="44.20888" lon="4.53755">
        <ele>111</ele>
        <time>2021-07-04T14:26:59Z</time>
      </trkpt>
      <trkpt lat="44.20939" lon="4.537">
        <ele>111</ele>
        <time>2021-07-04T14:27:14Z</time>
      </trkpt>
      <trkpt lat="44.21012" lon="4.53659">
        <ele>110</ele>
        <time>2021-07-04T14:27:32Z</time>
      </trkpt>
      <trkpt lat="44.21039" lon="4.53626">
        <ele>107</ele>
        <time>2021-07-04T14:27:40Z</time>
      </trkpt>
      <trkpt lat="44.21124" lon="4.53543">
        <ele>104</ele>
        <time>2021-07-04T14:28:05Z</time>
      </trkpt>
      <trkpt lat="44.21167" lon="4.53454">
        <ele>101</ele>
        <time>2021-07-04T14:28:23Z</time>
      </trkpt>
      <trkpt lat="44.21179" lon="4.53354">
        <ele>101</ele>
        <time>2021-07-04T14:28:40Z</time>
      </trkpt>
      <trkpt lat="44.2119" lon="4.53288">
        <ele>101</ele>
        <time>2021-07-04T14:28:51Z</time>
      </trkpt>
      <trkpt lat="44.21222" lon="4.53164">
        <ele>104</ele>
        <time>2021-07-04T14:29:13Z</time>
      </trkpt>
      <trkpt lat="44.21183" lon="4.5315">
        <ele>102</ele>
        <time>2021-07-04T14:29:22Z</time>
      </trkpt>
      <trkpt lat="44.21163" lon="4.53153">
        <ele>101</ele>
        <time>2021-07-04T14:29:27Z</time>
      </trkpt>
      <trkpt lat="44.21126" lon="4.53136">
        <ele>97</ele>
        <time>2021-07-04T14:29:36Z</time>
      </trkpt>
      <trkpt lat="44.21168" lon="4.53016">
        <ele>97</ele>
        <time>2021-07-04T14:29:58Z</time>
      </trkpt>
      <trkpt lat="44.21193" lon="4.52974">
        <ele>96</ele>
        <time>2021-07-04T14:30:08Z</time>
      </trkpt>
      <trkpt lat="44.21213" lon="4.52916">
        <ele>92</ele>
        <time>2021-07-04T14:30:18Z</time>
      </trkpt>
      <trkpt lat="44.21252" lon="4.52931">
        <ele>94</ele>
        <time>2021-07-04T14:30:28Z</time>
      </trkpt>
      <trkpt lat="44.21288" lon="4.52927">
        <ele>92</ele>
        <time>2021-07-04T14:30:36Z</time>
      </trkpt>
      <trkpt lat="44.21309" lon="4.52893">
        <ele>90</ele>
        <time>2021-07-04T14:30:44Z</time>
      </trkpt>
      <trkpt lat="44.21364" lon="4.52722">
        <ele>90</ele>
        <time>2021-07-04T14:31:15Z</time>
      </trkpt>
      <trkpt lat="44.21385" lon="4.52717">
        <ele>90</ele>
        <time>2021-07-04T14:31:20Z</time>
      </trkpt>
      <trkpt lat="44.21426" lon="4.52739">
        <ele>91</ele>
        <time>2021-07-04T14:31:30Z</time>
      </trkpt>
      <trkpt lat="44.2147" lon="4.52711">
        <ele>91</ele>
        <time>2021-07-04T14:31:42Z</time>
      </trkpt>
      <trkpt lat="44.21528" lon="4.52665">
        <ele>92</ele>
        <time>2021-07-04T14:31:57Z</time>
      </trkpt>
      <trkpt lat="44.21571" lon="4.5262">
        <ele>93</ele>
        <time>2021-07-04T14:32:10Z</time>
      </trkpt>
      <trkpt lat="44.21533" lon="4.52573">
        <ele>91</ele>
        <time>2021-07-04T14:32:22Z</time>
      </trkpt>
      <trkpt lat="44.21518" lon="4.52511">
        <ele>90</ele>
        <time>2021-07-04T14:32:33Z</time>
      </trkpt>
      <trkpt lat="44.21533" lon="4.52383">
        <ele>87</ele>
        <time>2021-07-04T14:32:54Z</time>
      </trkpt>
      <trkpt lat="44.21547" lon="4.52311">
        <ele>87</ele>
        <time>2021-07-04T14:33:07Z</time>
      </trkpt>
      <trkpt lat="44.21576" lon="4.52241">
        <ele>88</ele>
        <time>2021-07-04T14:33:20Z</time>
      </trkpt>
      <trkpt lat="44.216" lon="4.52208">
        <ele>86</ele>
        <time>2021-07-04T14:33:28Z</time>
      </trkpt>
      <trkpt lat="44.21685" lon="4.51983">
        <ele>87</ele>
        <time>2021-07-04T14:34:11Z</time>
      </trkpt>
      <trkpt lat="44.21692" lon="4.51948">
        <ele>87</ele>
        <time>2021-07-04T14:34:17Z</time>
      </trkpt>
      <trkpt lat="44.217" lon="4.51868">
        <ele>86</ele>
        <time>2021-07-04T14:34:30Z</time>
      </trkpt>
      <trkpt lat="44.21687" lon="4.51858">
        <ele>86</ele>
        <time>2021-07-04T14:34:34Z</time>
      </trkpt>
      <trkpt lat="44.21664" lon="4.51854">
        <ele>85</ele>
        <time>2021-07-04T14:34:39Z</time>
      </trkpt>
      <trkpt lat="44.21645" lon="4.51807">
        <ele>82</ele>
        <time>2021-07-04T14:34:48Z</time>
      </trkpt>
      <trkpt lat="44.21624" lon="4.51805">
        <ele>81</ele>
        <time>2021-07-04T14:34:53Z</time>
      </trkpt>
      <trkpt lat="44.2157" lon="4.51823">
        <ele>79</ele>
        <time>2021-07-04T14:35:06Z</time>
      </trkpt>
      <trkpt lat="44.21523" lon="4.51847">
        <ele>78</ele>
        <time>2021-07-04T14:35:18Z</time>
      </trkpt>
      <trkpt lat="44.21521" lon="4.51827">
        <ele>77</ele>
        <time>2021-07-04T14:35:21Z</time>
      </trkpt>
      <trkpt lat="44.21533" lon="4.51695">
        <ele>73</ele>
        <time>2021-07-04T14:35:44Z</time>
      </trkpt>
      <trkpt lat="44.21537" lon="4.51681">
        <ele>72</ele>
        <time>2021-07-04T14:35:46Z</time>
      </trkpt>
      <trkpt lat="44.21577" lon="4.51633">
        <ele>72</ele>
        <time>2021-07-04T14:35:58Z</time>
      </trkpt>
      <trkpt lat="44.21579" lon="4.51505">
        <ele>81</ele>
        <time>2021-07-04T14:36:20Z</time>
      </trkpt>
      <trkpt lat="44.21565" lon="4.5149">
        <ele>83</ele>
        <time>2021-07-04T14:36:24Z</time>
      </trkpt>
      <trkpt lat="44.21533" lon="4.5148">
        <ele>82</ele>
        <time>2021-07-04T14:36:32Z</time>
      </trkpt>
      <trkpt lat="44.21522" lon="4.51471">
        <ele>83</ele>
        <time>2021-07-04T14:36:35Z</time>
      </trkpt>
      <trkpt lat="44.21518" lon="4.51378">
        <ele>90</ele>
        <time>2021-07-04T14:36:50Z</time>
      </trkpt>
      <trkpt lat="44.2155" lon="4.5135">
        <ele>97</ele>
        <time>2021-07-04T14:36:59Z</time>
      </trkpt>
      <trkpt lat="44.21579" lon="4.51329">
        <ele>104</ele>
        <time>2021-07-04T14:37:07Z</time>
      </trkpt>
      <trkpt lat="44.21625" lon="4.51281">
        <ele>109</ele>
        <time>2021-07-04T14:37:20Z</time>
      </trkpt>
      <trkpt lat="44.21682" lon="4.51252">
        <ele>113</ele>
        <time>2021-07-04T14:37:34Z</time>
      </trkpt>
      <trkpt lat="44.21686" lon="4.5124">
        <ele>112</ele>
        <time>2021-07-04T14:37:36Z</time>
      </trkpt>
      <trkpt lat="44.21769" lon="4.51178">
        <ele>113</ele>
        <time>2021-07-04T14:37:58Z</time>
      </trkpt>
      <trkpt lat="44.21766" lon="4.51147">
        <ele>112</ele>
        <time>2021-07-04T14:38:04Z</time>
      </trkpt>
      <trkpt lat="44.21789" lon="4.51063">
        <ele>113</ele>
        <time>2021-07-04T14:38:19Z</time>
      </trkpt>
      <trkpt lat="44.21779" lon="4.51041">
        <ele>114</ele>
        <time>2021-07-04T14:38:23Z</time>
      </trkpt>
      <trkpt lat="44.21752" lon="4.51032">
        <ele>113</ele>
        <time>2021-07-04T14:38:30Z</time>
      </trkpt>
      <trkpt lat="44.21724" lon="4.51035">
        <ele>112</ele>
        <time>2021-07-04T14:38:36Z</time>
      </trkpt>
      <trkpt lat="44.21633" lon="4.50997">
        <ele>113</ele>
        <time>2021-07-04T14:38:58Z</time>
      </trkpt>
      <trkpt lat="44.21583" lon="4.5096">
        <ele>116</ele>
        <time>2021-07-04T14:39:11Z</time>
      </trkpt>
      <trkpt lat="44.21523" lon="4.5091">
        <ele>119</ele>
        <time>2021-07-04T14:39:28Z</time>
      </trkpt>
      <trkpt lat="44.21502" lon="4.50928">
        <ele>116</ele>
        <time>2021-07-04T14:39:34Z</time>
      </trkpt>
      <trkpt lat="44.21477" lon="4.50882">
        <ele>116</ele>
        <time>2021-07-04T14:39:43Z</time>
      </trkpt>
      <trkpt lat="44.21473" lon="4.50801">
        <ele>117</ele>
        <time>2021-07-04T14:39:57Z</time>
      </trkpt>
      <trkpt lat="44.21492" lon="4.50774">
        <ele>120</ele>
        <time>2021-07-04T14:40:03Z</time>
      </trkpt>
      <trkpt lat="44.21494" lon="4.50763">
        <ele>120</ele>
        <time>2021-07-04T14:40:05Z</time>
      </trkpt>
      <trkpt lat="44.2145" lon="4.50725">
        <ele>118</ele>
        <time>2021-07-04T14:40:17Z</time>
      </trkpt>
      <trkpt lat="44.21383" lon="4.50653">
        <ele>117</ele>
        <time>2021-07-04T14:40:37Z</time>
      </trkpt>
      <trkpt lat="44.2136" lon="4.50635">
        <ele>117</ele>
        <time>2021-07-04T14:40:43Z</time>
      </trkpt>
      <trkpt lat="44.21315" lon="4.50609">
        <ele>114</ele>
        <time>2021-07-04T14:40:54Z</time>
      </trkpt>
      <trkpt lat="44.21286" lon="4.50588">
        <ele>114</ele>
        <time>2021-07-04T14:41:02Z</time>
      </trkpt>
      <trkpt lat="44.21256" lon="4.50528">
        <ele>117</ele>
        <time>2021-07-04T14:41:14Z</time>
      </trkpt>
      <trkpt lat="44.21227" lon="4.50477">
        <ele>117</ele>
        <time>2021-07-04T14:41:25Z</time>
      </trkpt>
      <trkpt lat="44.21221" lon="4.50439">
        <ele>118</ele>
        <time>2021-07-04T14:41:32Z</time>
      </trkpt>
      <trkpt lat="44.21224" lon="4.50361">
        <ele>118</ele>
        <time>2021-07-04T14:41:45Z</time>
      </trkpt>
      <trkpt lat="44.21239" lon="4.50308">
        <ele>117</ele>
        <time>2021-07-04T14:41:54Z</time>
      </trkpt>
      <trkpt lat="44.21257" lon="4.50212">
        <ele>114</ele>
        <time>2021-07-04T14:42:11Z</time>
      </trkpt>
      <trkpt lat="44.21295" lon="4.50154">
        <ele>117</ele>
        <time>2021-07-04T14:42:24Z</time>
      </trkpt>
      <trkpt lat="44.21295" lon="4.50121">
        <ele>115</ele>
        <time>2021-07-04T14:42:30Z</time>
      </trkpt>
      <trkpt lat="44.21322" lon="4.50079">
        <ele>118</ele>
        <time>2021-07-04T14:42:39Z</time>
      </trkpt>
      <trkpt lat="44.2132" lon="4.50065">
        <ele>117</ele>
        <time>2021-07-04T14:42:41Z</time>
      </trkpt>
      <trkpt lat="44.21309" lon="4.50045">
        <ele>114</ele>
        <time>2021-07-04T14:42:46Z</time>
      </trkpt>
      <trkpt lat="44.21319" lon="4.49967">
        <ele>114</ele>
        <time>2021-07-04T14:42:59Z</time>
      </trkpt>
      <trkpt lat="44.21343" lon="4.49898">
        <ele>117</ele>
        <time>2021-07-04T14:43:12Z</time>
      </trkpt>
      <trkpt lat="44.2136" lon="4.49862">
        <ele>120</ele>
        <time>2021-07-04T14:43:19Z</time>
      </trkpt>
      <trkpt lat="44.21375" lon="4.49776">
        <ele>119</ele>
        <time>2021-07-04T14:43:34Z</time>
      </trkpt>
      <trkpt lat="44.21379" lon="4.49735">
        <ele>118</ele>
        <time>2021-07-04T14:43:41Z</time>
      </trkpt>
      <trkpt lat="44.21406" lon="4.49689">
        <ele>123</ele>
        <time>2021-07-04T14:43:51Z</time>
      </trkpt>
      <trkpt lat="44.21458" lon="4.49621">
        <ele>129</ele>
        <time>2021-07-04T14:44:07Z</time>
      </trkpt>
      <trkpt lat="44.21462" lon="4.49574">
        <ele>126</ele>
        <time>2021-07-04T14:44:15Z</time>
      </trkpt>
      <trkpt lat="44.21473" lon="4.49525">
        <ele>122</ele>
        <time>2021-07-04T14:44:24Z</time>
      </trkpt>
      <trkpt lat="44.21516" lon="4.49535">
        <ele>126</ele>
        <time>2021-07-04T14:44:34Z</time>
      </trkpt>
      <trkpt lat="44.21548" lon="4.49514">
        <ele>126</ele>
        <time>2021-07-04T14:44:42Z</time>
      </trkpt>
      <trkpt lat="44.21573" lon="4.49447">
        <ele>124</ele>
        <time>2021-07-04T14:44:55Z</time>
      </trkpt>
      <trkpt lat="44.21593" lon="4.49378">
        <ele>127</ele>
        <time>2021-07-04T14:45:07Z</time>
      </trkpt>
      <trkpt lat="44.21638" lon="4.49344">
        <ele>136</ele>
        <time>2021-07-04T14:45:19Z</time>
      </trkpt>
      <trkpt lat="44.2168" lon="4.49319">
        <ele>143</ele>
        <time>2021-07-04T14:45:30Z</time>
      </trkpt>
      <trkpt lat="44.21693" lon="4.49301">
        <ele>142</ele>
        <time>2021-07-04T14:45:34Z</time>
      </trkpt>
      <trkpt lat="44.21788" lon="4.49221">
        <ele>145</ele>
        <time>2021-07-04T14:46:00Z</time>
      </trkpt>
      <trkpt lat="44.21797" lon="4.49196">
        <ele>145</ele>
        <time>2021-07-04T14:46:05Z</time>
      </trkpt>
      <trkpt lat="44.21766" lon="4.49141">
        <ele>137</ele>
        <time>2021-07-04T14:46:17Z</time>
      </trkpt>
      <trkpt lat="44.21739" lon="4.4911">
        <ele>132</ele>
        <time>2021-07-04T14:46:25Z</time>
      </trkpt>
      <trkpt lat="44.21741" lon="4.49098">
        <ele>132</ele>
        <time>2021-07-04T14:46:27Z</time>
      </trkpt>
      <trkpt lat="44.21793" lon="4.49029">
        <ele>128</ele>
        <time>2021-07-04T14:46:44Z</time>
      </trkpt>
      <trkpt lat="44.21812" lon="4.48984">
        <ele>119</ele>
        <time>2021-07-04T14:46:52Z</time>
      </trkpt>
      <trkpt lat="44.21841" lon="4.4895">
        <ele>112</ele>
        <time>2021-07-04T14:47:01Z</time>
      </trkpt>
      <trkpt lat="44.21868" lon="4.48924">
        <ele>108</ele>
        <time>2021-07-04T14:47:09Z</time>
      </trkpt>
      <trkpt lat="44.21892" lon="4.48894">
        <ele>106</ele>
        <time>2021-07-04T14:47:16Z</time>
      </trkpt>
      <trkpt lat="44.21893" lon="4.4886">
        <ele>103</ele>
        <time>2021-07-04T14:47:22Z</time>
      </trkpt>
      <trkpt lat="44.21847" lon="4.48748">
        <ele>92</ele>
        <time>2021-07-04T14:47:44Z</time>
      </trkpt>
      <trkpt lat="44.21872" lon="4.48667">
        <ele>91</ele>
        <time>2021-07-04T14:47:58Z</time>
      </trkpt>
    </trkseg>
  </trk>
  <trk>
    <name><![CDATA[Noir Cornillon Montclus]]></name>
    <extensions>
      <line xmlns="http://www.topografix.com/GPX/gpx_style/0/2">
        <color>000000</color>
        <width>4</width>
      </line>
    </extensions>
    <trkseg>
      <trkpt lat="44.21849" lon="4.48557">
        <ele>87</ele>
        <time>2021-07-04T13:06:34Z</time>
      </trkpt>
      <trkpt lat="44.21849" lon="4.48557">
        <ele>87</ele>
        <time>2021-07-04T13:06:34Z</time>
      </trkpt>
      <trkpt lat="44.21832" lon="4.48528">
        <ele>85</ele>
        <time>2021-07-04T13:06:40Z</time>
      </trkpt>
      <trkpt lat="44.22049" lon="4.48229">
        <ele>81</ele>
        <time>2021-07-04T13:07:51Z</time>
      </trkpt>
      <trkpt lat="44.22167" lon="4.48041">
        <ele>84</ele>
        <time>2021-07-04T13:08:33Z</time>
      </trkpt>
      <trkpt lat="44.22022" lon="4.47863">
        <ele>78</ele>
        <time>2021-07-04T13:09:18Z</time>
      </trkpt>
      <trkpt lat="44.21881" lon="4.47706">
        <ele>78</ele>
        <time>2021-07-04T13:10:01Z</time>
      </trkpt>
      <trkpt lat="44.21797" lon="4.47611">
        <ele>77</ele>
        <time>2021-07-04T13:10:26Z</time>
      </trkpt>
      <trkpt lat="44.21722" lon="4.47443">
        <ele>80</ele>
        <time>2021-07-04T13:10:59Z</time>
      </trkpt>
      <trkpt lat="44.21671" lon="4.47315">
        <ele>80</ele>
        <time>2021-07-04T13:11:23Z</time>
      </trkpt>
      <trkpt lat="44.21643" lon="4.47228">
        <ele>79</ele>
        <time>2021-07-04T13:11:39Z</time>
      </trkpt>
      <trkpt lat="44.21649" lon="4.4706">
        <ele>79</ele>
        <time>2021-07-04T13:12:08Z</time>
      </trkpt>
      <trkpt lat="44.21571" lon="4.4691">
        <ele>79</ele>
        <time>2021-07-04T13:12:39Z</time>
      </trkpt>
      <trkpt lat="44.21534" lon="4.468">
        <ele>79</ele>
        <time>2021-07-04T13:12:59Z</time>
      </trkpt>
      <trkpt lat="44.2143" lon="4.46738">
        <ele>82</ele>
        <time>2021-07-04T13:13:25Z</time>
      </trkpt>
      <trkpt lat="44.21451" lon="4.46684">
        <ele>83</ele>
        <time>2021-07-04T13:13:36Z</time>
      </trkpt>
      <trkpt lat="44.21426" lon="4.46545">
        <ele>93</ele>
        <time>2021-07-04T13:14:00Z</time>
      </trkpt>
      <trkpt lat="44.21395" lon="4.46384">
        <ele>104</ele>
        <time>2021-07-04T13:14:27Z</time>
      </trkpt>
      <trkpt lat="44.2139" lon="4.46049">
        <ele>128</ele>
        <time>2021-07-04T13:15:24Z</time>
      </trkpt>
      <trkpt lat="44.21386" lon="4.4575">
        <ele>149</ele>
        <time>2021-07-04T13:16:14Z</time>
      </trkpt>
      <trkpt lat="44.21487" lon="4.45705">
        <ele>157</ele>
        <time>2021-07-04T13:16:38Z</time>
      </trkpt>
      <trkpt lat="44.21584" lon="4.45443">
        <ele>174</ele>
        <time>2021-07-04T13:17:28Z</time>
      </trkpt>
      <trkpt lat="44.21536" lon="4.45358">
        <ele>180</ele>
        <time>2021-07-04T13:17:46Z</time>
      </trkpt>
      <trkpt lat="44.21478" lon="4.45247">
        <ele>190</ele>
        <time>2021-07-04T13:18:09Z</time>
      </trkpt>
      <trkpt lat="44.21457" lon="4.45162">
        <ele>196</ele>
        <time>2021-07-04T13:18:24Z</time>
      </trkpt>
      <trkpt lat="44.21457" lon="4.45062">
        <ele>210</ele>
        <time>2021-07-04T13:18:41Z</time>
      </trkpt>
      <trkpt lat="44.21361" lon="4.44953">
        <ele>219</ele>
        <time>2021-07-04T13:19:10Z</time>
      </trkpt>
      <trkpt lat="44.21392" lon="4.44742">
        <ele>242</ele>
        <time>2021-07-04T13:19:46Z</time>
      </trkpt>
      <trkpt lat="44.2135" lon="4.44658">
        <ele>244</ele>
        <time>2021-07-04T13:20:03Z</time>
      </trkpt>
      <trkpt lat="44.21373" lon="4.44583">
        <ele>242</ele>
        <time>2021-07-04T13:20:16Z</time>
      </trkpt>
      <trkpt lat="44.21426" lon="4.44535">
        <ele>244</ele>
        <time>2021-07-04T13:20:31Z</time>
      </trkpt>
      <trkpt lat="44.21563" lon="4.44263">
        <ele>253</ele>
        <time>2021-07-04T13:21:27Z</time>
      </trkpt>
      <trkpt lat="44.21574" lon="4.4421">
        <ele>255</ele>
        <time>2021-07-04T13:21:36Z</time>
      </trkpt>
      <trkpt lat="44.21669" lon="4.44071">
        <ele>258</ele>
        <time>2021-07-04T13:22:08Z</time>
      </trkpt>
      <trkpt lat="44.21646" lon="4.44022">
        <ele>256</ele>
        <time>2021-07-04T13:22:18Z</time>
      </trkpt>
      <trkpt lat="44.21668" lon="4.43852">
        <ele>259</ele>
        <time>2021-07-04T13:22:47Z</time>
      </trkpt>
      <trkpt lat="44.21546" lon="4.43625">
        <ele>272</ele>
        <time>2021-07-04T13:23:34Z</time>
      </trkpt>
      <trkpt lat="44.21393" lon="4.43359">
        <ele>282</ele>
        <time>2021-07-04T13:24:31Z</time>
      </trkpt>
      <trkpt lat="44.213" lon="4.43269">
        <ele>280</ele>
        <time>2021-07-04T13:24:58Z</time>
      </trkpt>
      <trkpt lat="44.21099" lon="4.43181">
        <ele>310</ele>
        <time>2021-07-04T13:25:47Z</time>
      </trkpt>
      <trkpt lat="44.21061" lon="4.43162">
        <ele>311</ele>
        <time>2021-07-04T13:25:57Z</time>
      </trkpt>
      <trkpt lat="44.20942" lon="4.43214">
        <ele>316</ele>
        <time>2021-07-04T13:26:26Z</time>
      </trkpt>
      <trkpt lat="44.20914" lon="4.43326">
        <ele>328</ele>
        <time>2021-07-04T13:26:46Z</time>
      </trkpt>
      <trkpt lat="44.20735" lon="4.43424">
        <ele>325</ele>
        <time>2021-07-04T13:27:30Z</time>
      </trkpt>
      <trkpt lat="44.20577" lon="4.43432">
        <ele>328</ele>
        <time>2021-07-04T13:28:07Z</time>
      </trkpt>
      <trkpt lat="44.20479" lon="4.43135">
        <ele>314</ele>
        <time>2021-07-04T13:29:02Z</time>
      </trkpt>
      <trkpt lat="44.20367" lon="4.42806">
        <ele>314</ele>
        <time>2021-07-04T13:30:03Z</time>
      </trkpt>
      <trkpt lat="44.20369" lon="4.42739">
        <ele>311</ele>
        <time>2021-07-04T13:30:14Z</time>
      </trkpt>
      <trkpt lat="44.20438" lon="4.42602">
        <ele>306</ele>
        <time>2021-07-04T13:30:42Z</time>
      </trkpt>
      <trkpt lat="44.20436" lon="4.42544">
        <ele>304</ele>
        <time>2021-07-04T13:30:52Z</time>
      </trkpt>
      <trkpt lat="44.2054" lon="4.42279">
        <ele>299</ele>
        <time>2021-07-04T13:31:43Z</time>
      </trkpt>
      <trkpt lat="44.20563" lon="4.42052">
        <ele>299</ele>
        <time>2021-07-04T13:32:21Z</time>
      </trkpt>
      <trkpt lat="44.20738" lon="4.41733">
        <ele>303</ele>
        <time>2021-07-04T13:33:28Z</time>
      </trkpt>
      <trkpt lat="44.20833" lon="4.41556">
        <ele>307</ele>
        <time>2021-07-04T13:34:05Z</time>
      </trkpt>
      <trkpt lat="44.20971" lon="4.41488">
        <ele>310</ele>
        <time>2021-07-04T13:34:39Z</time>
      </trkpt>
      <trkpt lat="44.21135" lon="4.41298">
        <ele>304</ele>
        <time>2021-07-04T13:35:29Z</time>
      </trkpt>
      <trkpt lat="44.213" lon="4.41176">
        <ele>293</ele>
        <time>2021-07-04T13:36:13Z</time>
      </trkpt>
      <trkpt lat="44.21521" lon="4.41106">
        <ele>300</ele>
        <time>2021-07-04T13:37:06Z</time>
      </trkpt>
      <trkpt lat="44.21877" lon="4.41036">
        <ele>312</ele>
        <time>2021-07-04T13:38:30Z</time>
      </trkpt>
      <trkpt lat="44.21849" lon="4.40896">
        <ele>307</ele>
        <time>2021-07-04T13:38:54Z</time>
      </trkpt>
      <trkpt lat="44.21856" lon="4.40743">
        <ele>305</ele>
        <time>2021-07-04T13:39:20Z</time>
      </trkpt>
      <trkpt lat="44.21949" lon="4.40593">
        <ele>299</ele>
        <time>2021-07-04T13:39:53Z</time>
      </trkpt>
      <trkpt lat="44.2199" lon="4.4036">
        <ele>303</ele>
        <time>2021-07-04T13:40:33Z</time>
      </trkpt>
      <trkpt lat="44.22085" lon="4.40245">
        <ele>304</ele>
        <time>2021-07-04T13:41:02Z</time>
      </trkpt>
      <trkpt lat="44.22129" lon="4.40117">
        <ele>305</ele>
        <time>2021-07-04T13:41:26Z</time>
      </trkpt>
      <trkpt lat="44.22267" lon="4.40065">
        <ele>304</ele>
        <time>2021-07-04T13:42:00Z</time>
      </trkpt>
      <trkpt lat="44.22338" lon="4.39766">
        <ele>300</ele>
        <time>2021-07-04T13:42:52Z</time>
      </trkpt>
      <trkpt lat="44.22488" lon="4.39499">
        <ele>287</ele>
        <time>2021-07-04T13:43:49Z</time>
      </trkpt>
      <trkpt lat="44.22812" lon="4.39123">
        <ele>286</ele>
        <time>2021-07-04T13:45:27Z</time>
      </trkpt>
      <trkpt lat="44.22922" lon="4.38839">
        <ele>310</ele>
        <time>2021-07-04T13:46:21Z</time>
      </trkpt>
      <trkpt lat="44.23052" lon="4.38742">
        <ele>311</ele>
        <time>2021-07-04T13:46:56Z</time>
      </trkpt>
      <trkpt lat="44.23106" lon="4.38616">
        <ele>308</ele>
        <time>2021-07-04T13:47:20Z</time>
      </trkpt>
      <trkpt lat="44.23221" lon="4.38645">
        <ele>309</ele>
        <time>2021-07-04T13:47:48Z</time>
      </trkpt>
      <trkpt lat="44.23288" lon="4.38568">
        <ele>309</ele>
        <time>2021-07-04T13:48:08Z</time>
      </trkpt>
      <trkpt lat="44.23461" lon="4.38537">
        <ele>306</ele>
        <time>2021-07-04T13:48:49Z</time>
      </trkpt>
      <trkpt lat="44.23489" lon="4.38458">
        <ele>304</ele>
        <time>2021-07-04T13:49:03Z</time>
      </trkpt>
      <trkpt lat="44.23603" lon="4.38459">
        <ele>305</ele>
        <time>2021-07-04T13:49:30Z</time>
      </trkpt>
      <trkpt lat="44.23726" lon="4.38536">
        <ele>301</ele>
        <time>2021-07-04T13:50:02Z</time>
      </trkpt>
      <trkpt lat="44.23781" lon="4.38625">
        <ele>298</ele>
        <time>2021-07-04T13:50:21Z</time>
      </trkpt>
      <trkpt lat="44.23779" lon="4.38941">
        <ele>293</ele>
        <time>2021-07-04T13:51:14Z</time>
      </trkpt>
      <trkpt lat="44.23807" lon="4.3906">
        <ele>293</ele>
        <time>2021-07-04T13:51:35Z</time>
      </trkpt>
      <trkpt lat="44.23938" lon="4.39231">
        <ele>276</ele>
        <time>2021-07-04T13:52:17Z</time>
      </trkpt>
      <trkpt lat="44.24023" lon="4.39337">
        <ele>273</ele>
        <time>2021-07-04T13:52:44Z</time>
      </trkpt>
      <trkpt lat="44.24027" lon="4.39466">
        <ele>284</ele>
        <time>2021-07-04T13:53:05Z</time>
      </trkpt>
      <trkpt lat="44.24199" lon="4.3987">
        <ele>299</ele>
        <time>2021-07-04T13:54:24Z</time>
      </trkpt>
      <trkpt lat="44.24324" lon="4.40031">
        <ele>302</ele>
        <time>2021-07-04T13:55:04Z</time>
      </trkpt>
      <trkpt lat="44.24604" lon="4.4015">
        <ele>296</ele>
        <time>2021-07-04T13:56:12Z</time>
      </trkpt>
      <trkpt lat="44.24833" lon="4.40283">
        <ele>289</ele>
        <time>2021-07-04T13:57:10Z</time>
      </trkpt>
      <trkpt lat="44.25012" lon="4.40311">
        <ele>293</ele>
        <time>2021-07-04T13:57:52Z</time>
      </trkpt>
      <trkpt lat="44.25139" lon="4.40253">
        <ele>290</ele>
        <time>2021-07-04T13:58:23Z</time>
      </trkpt>
      <trkpt lat="44.25111" lon="4.40088">
        <ele>276</ele>
        <time>2021-07-04T13:58:51Z</time>
      </trkpt>
      <trkpt lat="44.25292" lon="4.39892">
        <ele>271</ele>
        <time>2021-07-04T13:59:45Z</time>
      </trkpt>
      <trkpt lat="44.25431" lon="4.39987">
        <ele>290</ele>
        <time>2021-07-04T14:00:21Z</time>
      </trkpt>
      <trkpt lat="44.25719" lon="4.398">
        <ele>294</ele>
        <time>2021-07-04T14:01:35Z</time>
      </trkpt>
      <trkpt lat="44.25874" lon="4.40018">
        <ele>259</ele>
        <time>2021-07-04T14:02:27Z</time>
      </trkpt>
      <trkpt lat="44.26232" lon="4.40154">
        <ele>191</ele>
        <time>2021-07-04T14:03:53Z</time>
      </trkpt>
      <trkpt lat="44.26292" lon="4.40265">
        <ele>201</ele>
        <time>2021-07-04T14:04:17Z</time>
      </trkpt>
      <trkpt lat="44.26169" lon="4.40492">
        <ele>196</ele>
        <time>2021-07-04T14:05:04Z</time>
      </trkpt>
      <trkpt lat="44.26176" lon="4.40681">
        <ele>179</ele>
        <time>2021-07-04T14:05:36Z</time>
      </trkpt>
      <trkpt lat="44.263" lon="4.40831">
        <ele>172</ele>
        <time>2021-07-04T14:06:14Z</time>
      </trkpt>
      <trkpt lat="44.26309" lon="4.40981">
        <ele>168</ele>
        <time>2021-07-04T14:06:39Z</time>
      </trkpt>
      <trkpt lat="44.26235" lon="4.41093">
        <ele>160</ele>
        <time>2021-07-04T14:07:05Z</time>
      </trkpt>
      <trkpt lat="44.26255" lon="4.41249">
        <ele>145</ele>
        <time>2021-07-04T14:07:31Z</time>
      </trkpt>
      <trkpt lat="44.26172" lon="4.41513">
        <ele>124</ele>
        <time>2021-07-04T14:08:19Z</time>
      </trkpt>
      <trkpt lat="44.26159" lon="4.4173">
        <ele>102</ele>
        <time>2021-07-04T14:08:56Z</time>
      </trkpt>
      <trkpt lat="44.26257" lon="4.41839">
        <ele>95</ele>
        <time>2021-07-04T14:09:25Z</time>
      </trkpt>
      <trkpt lat="44.26234" lon="4.41984">
        <ele>89</ele>
        <time>2021-07-04T14:09:50Z</time>
      </trkpt>
      <trkpt lat="44.26432" lon="4.42079">
        <ele>90</ele>
        <time>2021-07-04T14:10:39Z</time>
      </trkpt>
      <trkpt lat="44.26456" lon="4.42191">
        <ele>91</ele>
        <time>2021-07-04T14:10:58Z</time>
      </trkpt>
      <trkpt lat="44.26538" lon="4.4236">
        <ele>92</ele>
        <time>2021-07-04T14:11:33Z</time>
      </trkpt>
      <trkpt lat="44.2658" lon="4.42508">
        <ele>98</ele>
        <time>2021-07-04T14:11:59Z</time>
      </trkpt>
      <trkpt lat="44.26606" lon="4.42605">
        <ele>102</ele>
        <time>2021-07-04T14:12:17Z</time>
      </trkpt>
      <trkpt lat="44.26638" lon="4.42658">
        <ele>101</ele>
        <time>2021-07-04T14:12:28Z</time>
      </trkpt>
      <trkpt lat="44.26676" lon="4.42691">
        <ele>97</ele>
        <time>2021-07-04T14:12:39Z</time>
      </trkpt>
      <trkpt lat="44.26705" lon="4.42764">
        <ele>99</ele>
        <time>2021-07-04T14:12:53Z</time>
      </trkpt>
      <trkpt lat="44.2675" lon="4.42923">
        <ele>109</ele>
        <time>2021-07-04T14:13:21Z</time>
      </trkpt>
      <trkpt lat="44.26746" lon="4.42993">
        <ele>117</ele>
        <time>2021-07-04T14:13:33Z</time>
      </trkpt>
      <trkpt lat="44.26814" lon="4.43031">
        <ele>118</ele>
        <time>2021-07-04T14:13:50Z</time>
      </trkpt>
      <trkpt lat="44.26737" lon="4.43105">
        <ele>130</ele>
        <time>2021-07-04T14:14:12Z</time>
      </trkpt>
      <trkpt lat="44.26795" lon="4.43252">
        <ele>144</ele>
        <time>2021-07-04T14:14:40Z</time>
      </trkpt>
      <trkpt lat="44.26742" lon="4.43228">
        <ele>149</ele>
        <time>2021-07-04T14:14:53Z</time>
      </trkpt>
      <trkpt lat="44.26802" lon="4.43405">
        <ele>161</ele>
        <time>2021-07-04T14:15:26Z</time>
      </trkpt>
      <trkpt lat="44.26662" lon="4.43588">
        <ele>180</ele>
        <time>2021-07-04T14:16:10Z</time>
      </trkpt>
      <trkpt lat="44.26687" lon="4.43607">
        <ele>179</ele>
        <time>2021-07-04T14:16:17Z</time>
      </trkpt>
      <trkpt lat="44.26636" lon="4.43845">
        <ele>187</ele>
        <time>2021-07-04T14:16:59Z</time>
      </trkpt>
      <trkpt lat="44.26595" lon="4.43853">
        <ele>188</ele>
        <time>2021-07-04T14:17:08Z</time>
      </trkpt>
      <trkpt lat="44.26565" lon="4.43908">
        <ele>188</ele>
        <time>2021-07-04T14:17:20Z</time>
      </trkpt>
      <trkpt lat="44.26508" lon="4.4398">
        <ele>186</ele>
        <time>2021-07-04T14:17:38Z</time>
      </trkpt>
      <trkpt lat="44.26569" lon="4.44028">
        <ele>197</ele>
        <time>2021-07-04T14:17:54Z</time>
      </trkpt>
      <trkpt lat="44.26546" lon="4.44093">
        <ele>200</ele>
        <time>2021-07-04T14:18:06Z</time>
      </trkpt>
      <trkpt lat="44.26546" lon="4.44284">
        <ele>204</ele>
        <time>2021-07-04T14:18:38Z</time>
      </trkpt>
      <trkpt lat="44.26502" lon="4.44461">
        <ele>205</ele>
        <time>2021-07-04T14:19:10Z</time>
      </trkpt>
      <trkpt lat="44.26482" lon="4.44411">
        <ele>198</ele>
        <time>2021-07-04T14:19:19Z</time>
      </trkpt>
      <trkpt lat="44.2644" lon="4.44384">
        <ele>190</ele>
        <time>2021-07-04T14:19:30Z</time>
      </trkpt>
      <trkpt lat="44.26396" lon="4.4426">
        <ele>179</ele>
        <time>2021-07-04T14:19:53Z</time>
      </trkpt>
      <trkpt lat="44.26307" lon="4.44207">
        <ele>173</ele>
        <time>2021-07-04T14:20:16Z</time>
      </trkpt>
      <trkpt lat="44.26302" lon="4.44302">
        <ele>170</ele>
        <time>2021-07-04T14:20:32Z</time>
      </trkpt>
      <trkpt lat="44.26273" lon="4.44448">
        <ele>168</ele>
        <time>2021-07-04T14:20:57Z</time>
      </trkpt>
      <trkpt lat="44.26295" lon="4.44507">
        <ele>173</ele>
        <time>2021-07-04T14:21:08Z</time>
      </trkpt>
      <trkpt lat="44.26252" lon="4.44634">
        <ele>174</ele>
        <time>2021-07-04T14:21:32Z</time>
      </trkpt>
      <trkpt lat="44.26232" lon="4.44663">
        <ele>171</ele>
        <time>2021-07-04T14:21:38Z</time>
      </trkpt>
      <trkpt lat="44.26245" lon="4.44721">
        <ele>172</ele>
        <time>2021-07-04T14:21:48Z</time>
      </trkpt>
      <trkpt lat="44.26249" lon="4.44799">
        <ele>169</ele>
        <time>2021-07-04T14:22:02Z</time>
      </trkpt>
      <trkpt lat="44.26321" lon="4.44908">
        <ele>170</ele>
        <time>2021-07-04T14:22:26Z</time>
      </trkpt>
      <trkpt lat="44.26233" lon="4.44879">
        <ele>163</ele>
        <time>2021-07-04T14:22:47Z</time>
      </trkpt>
      <trkpt lat="44.26206" lon="4.44934">
        <ele>163</ele>
        <time>2021-07-04T14:22:59Z</time>
      </trkpt>
      <trkpt lat="44.26184" lon="4.44896">
        <ele>161</ele>
        <time>2021-07-04T14:23:07Z</time>
      </trkpt>
      <trkpt lat="44.2617" lon="4.44997">
        <ele>166</ele>
        <time>2021-07-04T14:23:24Z</time>
      </trkpt>
      <trkpt lat="44.26113" lon="4.4504">
        <ele>165</ele>
        <time>2021-07-04T14:23:39Z</time>
      </trkpt>
      <trkpt lat="44.26125" lon="4.45141">
        <ele>168</ele>
        <time>2021-07-04T14:23:56Z</time>
      </trkpt>
      <trkpt lat="44.26132" lon="4.45167">
        <ele>170</ele>
        <time>2021-07-04T14:24:01Z</time>
      </trkpt>
      <trkpt lat="44.26165" lon="4.45249">
        <ele>185</ele>
        <time>2021-07-04T14:24:17Z</time>
      </trkpt>
      <trkpt lat="44.26164" lon="4.4533">
        <ele>184</ele>
        <time>2021-07-04T14:24:30Z</time>
      </trkpt>
      <trkpt lat="44.26156" lon="4.4536">
        <ele>181</ele>
        <time>2021-07-04T14:24:35Z</time>
      </trkpt>
      <trkpt lat="44.26167" lon="4.45379">
        <ele>181</ele>
        <time>2021-07-04T14:24:40Z</time>
      </trkpt>
      <trkpt lat="44.26194" lon="4.45474">
        <ele>183</ele>
        <time>2021-07-04T14:24:57Z</time>
      </trkpt>
      <trkpt lat="44.26217" lon="4.45549">
        <ele>186</ele>
        <time>2021-07-04T14:25:10Z</time>
      </trkpt>
      <trkpt lat="44.26217" lon="4.45636">
        <ele>186</ele>
        <time>2021-07-04T14:25:25Z</time>
      </trkpt>
      <trkpt lat="44.26196" lon="4.45662">
        <ele>185</ele>
        <time>2021-07-04T14:25:31Z</time>
      </trkpt>
      <trkpt lat="44.26154" lon="4.45657">
        <ele>185</ele>
        <time>2021-07-04T14:25:41Z</time>
      </trkpt>
      <trkpt lat="44.26101" lon="4.45602">
        <ele>187</ele>
        <time>2021-07-04T14:25:57Z</time>
      </trkpt>
      <trkpt lat="44.26076" lon="4.45579">
        <ele>187</ele>
        <time>2021-07-04T14:26:04Z</time>
      </trkpt>
      <trkpt lat="44.25985" lon="4.45608">
        <ele>200</ele>
        <time>2021-07-04T14:26:25Z</time>
      </trkpt>
      <trkpt lat="44.25941" lon="4.4562">
        <ele>204</ele>
        <time>2021-07-04T14:26:36Z</time>
      </trkpt>
      <trkpt lat="44.25908" lon="4.45656">
        <ele>209</ele>
        <time>2021-07-04T14:26:46Z</time>
      </trkpt>
      <trkpt lat="44.25895" lon="4.45704">
        <ele>212</ele>
        <time>2021-07-04T14:26:54Z</time>
      </trkpt>
      <trkpt lat="44.2585" lon="4.45735">
        <ele>217</ele>
        <time>2021-07-04T14:27:06Z</time>
      </trkpt>
      <trkpt lat="44.25825" lon="4.45754">
        <ele>220</ele>
        <time>2021-07-04T14:27:13Z</time>
      </trkpt>
      <trkpt lat="44.25771" lon="4.4575">
        <ele>220</ele>
        <time>2021-07-04T14:27:25Z</time>
      </trkpt>
      <trkpt lat="44.25622" lon="4.45895">
        <ele>242</ele>
        <time>2021-07-04T14:28:08Z</time>
      </trkpt>
      <trkpt lat="44.25551" lon="4.45893">
        <ele>247</ele>
        <time>2021-07-04T14:28:24Z</time>
      </trkpt>
      <trkpt lat="44.25453" lon="4.46158">
        <ele>257</ele>
        <time>2021-07-04T14:29:14Z</time>
      </trkpt>
      <trkpt lat="44.25455" lon="4.46234">
        <ele>256</ele>
        <time>2021-07-04T14:29:27Z</time>
      </trkpt>
      <trkpt lat="44.25427" lon="4.46304">
        <ele>258</ele>
        <time>2021-07-04T14:29:40Z</time>
      </trkpt>
      <trkpt lat="44.25324" lon="4.46355">
        <ele>266</ele>
        <time>2021-07-04T14:30:06Z</time>
      </trkpt>
      <trkpt lat="44.25306" lon="4.46404">
        <ele>270</ele>
        <time>2021-07-04T14:30:15Z</time>
      </trkpt>
      <trkpt lat="44.25262" lon="4.46421">
        <ele>273</ele>
        <time>2021-07-04T14:30:26Z</time>
      </trkpt>
      <trkpt lat="44.25235" lon="4.46499">
        <ele>275</ele>
        <time>2021-07-04T14:30:40Z</time>
      </trkpt>
      <trkpt lat="44.25211" lon="4.46606">
        <ele>271</ele>
        <time>2021-07-04T14:30:59Z</time>
      </trkpt>
      <trkpt lat="44.252" lon="4.46765">
        <ele>267</ele>
        <time>2021-07-04T14:31:26Z</time>
      </trkpt>
      <trkpt lat="44.253" lon="4.46781">
        <ele>267</ele>
        <time>2021-07-04T14:31:49Z</time>
      </trkpt>
      <trkpt lat="44.25323" lon="4.46931">
        <ele>257</ele>
        <time>2021-07-04T14:32:15Z</time>
      </trkpt>
      <trkpt lat="44.25448" lon="4.47073">
        <ele>244</ele>
        <time>2021-07-04T14:32:52Z</time>
      </trkpt>
      <trkpt lat="44.25565" lon="4.47228">
        <ele>226</ele>
        <time>2021-07-04T14:33:30Z</time>
      </trkpt>
      <trkpt lat="44.25607" lon="4.47243">
        <ele>225</ele>
        <time>2021-07-04T14:33:40Z</time>
      </trkpt>
      <trkpt lat="44.25599" lon="4.47302">
        <ele>221</ele>
        <time>2021-07-04T14:33:50Z</time>
      </trkpt>
      <trkpt lat="44.257" lon="4.47354">
        <ele>224</ele>
        <time>2021-07-04T14:34:15Z</time>
      </trkpt>
      <trkpt lat="44.25705" lon="4.4741">
        <ele>229</ele>
        <time>2021-07-04T14:34:25Z</time>
      </trkpt>
      <trkpt lat="44.25727" lon="4.47485">
        <ele>237</ele>
        <time>2021-07-04T14:34:38Z</time>
      </trkpt>
      <trkpt lat="44.25644" lon="4.47445">
        <ele>233</ele>
        <time>2021-07-04T14:34:59Z</time>
      </trkpt>
      <trkpt lat="44.25572" lon="4.47558">
        <ele>247</ele>
        <time>2021-07-04T14:35:24Z</time>
      </trkpt>
      <trkpt lat="44.25486" lon="4.47669">
        <ele>254</ele>
        <time>2021-07-04T14:35:52Z</time>
      </trkpt>
      <trkpt lat="44.25355" lon="4.47681">
        <ele>260</ele>
        <time>2021-07-04T14:36:22Z</time>
      </trkpt>
      <trkpt lat="44.2526" lon="4.47612">
        <ele>267</ele>
        <time>2021-07-04T14:36:47Z</time>
      </trkpt>
      <trkpt lat="44.2521" lon="4.47582">
        <ele>270</ele>
        <time>2021-07-04T14:37:00Z</time>
      </trkpt>
      <trkpt lat="44.25216" lon="4.47514">
        <ele>268</ele>
        <time>2021-07-04T14:37:11Z</time>
      </trkpt>
      <trkpt lat="44.25175" lon="4.47467">
        <ele>270</ele>
        <time>2021-07-04T14:37:24Z</time>
      </trkpt>
      <trkpt lat="44.25118" lon="4.47386">
        <ele>267</ele>
        <time>2021-07-04T14:37:43Z</time>
      </trkpt>
      <trkpt lat="44.25041" lon="4.47357">
        <ele>272</ele>
        <time>2021-07-04T14:38:01Z</time>
      </trkpt>
      <trkpt lat="44.24952" lon="4.47299">
        <ele>274</ele>
        <time>2021-07-04T14:38:24Z</time>
      </trkpt>
      <trkpt lat="44.24798" lon="4.47235">
        <ele>279</ele>
        <time>2021-07-04T14:39:02Z</time>
      </trkpt>
      <trkpt lat="44.24684" lon="4.47099">
        <ele>268</ele>
        <time>2021-07-04T14:39:37Z</time>
      </trkpt>
      <trkpt lat="44.24578" lon="4.4708">
        <ele>255</ele>
        <time>2021-07-04T14:40:02Z</time>
      </trkpt>
      <trkpt lat="44.24523" lon="4.47173">
        <ele>241</ele>
        <time>2021-07-04T14:40:22Z</time>
      </trkpt>
      <trkpt lat="44.24444" lon="4.47208">
        <ele>230</ele>
        <time>2021-07-04T14:40:41Z</time>
      </trkpt>
      <trkpt lat="44.24342" lon="4.47105">
        <ele>206</ele>
        <time>2021-07-04T14:41:11Z</time>
      </trkpt>
      <trkpt lat="44.24296" lon="4.46974">
        <ele>182</ele>
        <time>2021-07-04T14:41:35Z</time>
      </trkpt>
      <trkpt lat="44.24297" lon="4.46909">
        <ele>174</ele>
        <time>2021-07-04T14:41:46Z</time>
      </trkpt>
      <trkpt lat="44.24264" lon="4.46927">
        <ele>168</ele>
        <time>2021-07-04T14:41:54Z</time>
      </trkpt>
      <trkpt lat="44.24291" lon="4.4684">
        <ele>162</ele>
        <time>2021-07-04T14:42:10Z</time>
      </trkpt>
      <trkpt lat="44.24232" lon="4.46774">
        <ele>144</ele>
        <time>2021-07-04T14:42:28Z</time>
      </trkpt>
      <trkpt lat="44.24213" lon="4.46727">
        <ele>138</ele>
        <time>2021-07-04T14:42:37Z</time>
      </trkpt>
      <trkpt lat="44.24162" lon="4.46669">
        <ele>132</ele>
        <time>2021-07-04T14:42:52Z</time>
      </trkpt>
      <trkpt lat="44.24106" lon="4.46625">
        <ele>130</ele>
        <time>2021-07-04T14:43:07Z</time>
      </trkpt>
      <trkpt lat="44.24102" lon="4.46544">
        <ele>126</ele>
        <time>2021-07-04T14:43:21Z</time>
      </trkpt>
      <trkpt lat="44.24067" lon="4.46514">
        <ele>126</ele>
        <time>2021-07-04T14:43:30Z</time>
      </trkpt>
      <trkpt lat="44.24077" lon="4.46398">
        <ele>121</ele>
        <time>2021-07-04T14:43:50Z</time>
      </trkpt>
      <trkpt lat="44.24062" lon="4.46348">
        <ele>120</ele>
        <time>2021-07-04T14:43:59Z</time>
      </trkpt>
      <trkpt lat="44.241" lon="4.46116">
        <ele>111</ele>
        <time>2021-07-04T14:44:39Z</time>
      </trkpt>
      <trkpt lat="44.2408" lon="4.46082">
        <ele>111</ele>
        <time>2021-07-04T14:44:46Z</time>
      </trkpt>
      <trkpt lat="44.2407" lon="4.46031">
        <ele>107</ele>
        <time>2021-07-04T14:44:55Z</time>
      </trkpt>
      <trkpt lat="44.2405" lon="4.46008">
        <ele>106</ele>
        <time>2021-07-04T14:45:01Z</time>
      </trkpt>
      <trkpt lat="44.24106" lon="4.4588">
        <ele>102</ele>
        <time>2021-07-04T14:45:26Z</time>
      </trkpt>
      <trkpt lat="44.2404" lon="4.45841">
        <ele>107</ele>
        <time>2021-07-04T14:45:43Z</time>
      </trkpt>
      <trkpt lat="44.24048" lon="4.45784">
        <ele>111</ele>
        <time>2021-07-04T14:45:53Z</time>
      </trkpt>
      <trkpt lat="44.24044" lon="4.45728">
        <ele>115</ele>
        <time>2021-07-04T14:46:02Z</time>
      </trkpt>
      <trkpt lat="44.24025" lon="4.45713">
        <ele>117</ele>
        <time>2021-07-04T14:46:07Z</time>
      </trkpt>
      <trkpt lat="44.23976" lon="4.45724">
        <ele>118</ele>
        <time>2021-07-04T14:46:19Z</time>
      </trkpt>
      <trkpt lat="44.23912" lon="4.45783">
        <ele>116</ele>
        <time>2021-07-04T14:46:37Z</time>
      </trkpt>
      <trkpt lat="44.24001" lon="4.45843">
        <ele>109</ele>
        <time>2021-07-04T14:47:00Z</time>
      </trkpt>
      <trkpt lat="44.24002" lon="4.45932">
        <ele>106</ele>
        <time>2021-07-04T14:47:15Z</time>
      </trkpt>
      <trkpt lat="44.24017" lon="4.45999">
        <ele>106</ele>
        <time>2021-07-04T14:47:26Z</time>
      </trkpt>
      <trkpt lat="44.23911" lon="4.46188">
        <ele>114</ele>
        <time>2021-07-04T14:48:07Z</time>
      </trkpt>
      <trkpt lat="44.23985" lon="4.46272">
        <ele>117</ele>
        <time>2021-07-04T14:48:29Z</time>
      </trkpt>
      <trkpt lat="44.23992" lon="4.46344">
        <ele>121</ele>
        <time>2021-07-04T14:48:41Z</time>
      </trkpt>
      <trkpt lat="44.23977" lon="4.46553">
        <ele>131</ele>
        <time>2021-07-04T14:49:16Z</time>
      </trkpt>
      <trkpt lat="44.23972" lon="4.46589">
        <ele>133</ele>
        <time>2021-07-04T14:49:22Z</time>
      </trkpt>
      <trkpt lat="44.24001" lon="4.46629">
        <ele>134</ele>
        <time>2021-07-04T14:49:32Z</time>
      </trkpt>
      <trkpt lat="44.23941" lon="4.47005">
        <ele>131</ele>
        <time>2021-07-04T14:50:36Z</time>
      </trkpt>
      <trkpt lat="44.23915" lon="4.47247">
        <ele>137</ele>
        <time>2021-07-04T14:51:17Z</time>
      </trkpt>
      <trkpt lat="44.23977" lon="4.47285">
        <ele>141</ele>
        <time>2021-07-04T14:51:33Z</time>
      </trkpt>
      <trkpt lat="44.23997" lon="4.47454">
        <ele>148</ele>
        <time>2021-07-04T14:52:02Z</time>
      </trkpt>
      <trkpt lat="44.23977" lon="4.47688">
        <ele>158</ele>
        <time>2021-07-04T14:52:41Z</time>
      </trkpt>
      <trkpt lat="44.23976" lon="4.47885">
        <ele>170</ele>
        <time>2021-07-04T14:53:14Z</time>
      </trkpt>
      <trkpt lat="44.24025" lon="4.47949">
        <ele>179</ele>
        <time>2021-07-04T14:53:30Z</time>
      </trkpt>
      <trkpt lat="44.24018" lon="4.48125">
        <ele>186</ele>
        <time>2021-07-04T14:53:59Z</time>
      </trkpt>
      <trkpt lat="44.24065" lon="4.48321">
        <ele>186</ele>
        <time>2021-07-04T14:54:34Z</time>
      </trkpt>
      <trkpt lat="44.24058" lon="4.48367">
        <ele>178</ele>
        <time>2021-07-04T14:54:42Z</time>
      </trkpt>
      <trkpt lat="44.24102" lon="4.48598">
        <ele>171</ele>
        <time>2021-07-04T14:55:22Z</time>
      </trkpt>
      <trkpt lat="44.24144" lon="4.4864">
        <ele>175</ele>
        <time>2021-07-04T14:55:34Z</time>
      </trkpt>
      <trkpt lat="44.24191" lon="4.48706">
        <ele>180</ele>
        <time>2021-07-04T14:55:49Z</time>
      </trkpt>
      <trkpt lat="44.24156" lon="4.48709">
        <ele>172</ele>
        <time>2021-07-04T14:55:58Z</time>
      </trkpt>
      <trkpt lat="44.24102" lon="4.48718">
        <ele>162</ele>
        <time>2021-07-04T14:56:10Z</time>
      </trkpt>
      <trkpt lat="44.24154" lon="4.48891">
        <ele>171</ele>
        <time>2021-07-04T14:56:42Z</time>
      </trkpt>
      <trkpt lat="44.2413" lon="4.48899">
        <ele>169</ele>
        <time>2021-07-04T14:56:47Z</time>
      </trkpt>
      <trkpt lat="44.24171" lon="4.49015">
        <ele>182</ele>
        <time>2021-07-04T14:57:09Z</time>
      </trkpt>
      <trkpt lat="44.24131" lon="4.49103">
        <ele>185</ele>
        <time>2021-07-04T14:57:26Z</time>
      </trkpt>
      <trkpt lat="44.24129" lon="4.49123">
        <ele>187</ele>
        <time>2021-07-04T14:57:30Z</time>
      </trkpt>
      <trkpt lat="44.24054" lon="4.4914">
        <ele>181</ele>
        <time>2021-07-04T14:57:48Z</time>
      </trkpt>
      <trkpt lat="44.2401" lon="4.49206">
        <ele>183</ele>
        <time>2021-07-04T14:58:03Z</time>
      </trkpt>
      <trkpt lat="44.23966" lon="4.49246">
        <ele>185</ele>
        <time>2021-07-04T14:58:15Z</time>
      </trkpt>
      <trkpt lat="44.23921" lon="4.49206">
        <ele>183</ele>
        <time>2021-07-04T14:58:27Z</time>
      </trkpt>
      <trkpt lat="44.239" lon="4.49154">
        <ele>180</ele>
        <time>2021-07-04T14:58:37Z</time>
      </trkpt>
      <trkpt lat="44.23844" lon="4.49127">
        <ele>180</ele>
        <time>2021-07-04T14:58:51Z</time>
      </trkpt>
      <trkpt lat="44.23804" lon="4.4892">
        <ele>174</ele>
        <time>2021-07-04T14:59:27Z</time>
      </trkpt>
      <trkpt lat="44.2373" lon="4.48912">
        <ele>180</ele>
        <time>2021-07-04T14:59:44Z</time>
      </trkpt>
      <trkpt lat="44.2362" lon="4.48629">
        <ele>177</ele>
        <time>2021-07-04T15:00:38Z</time>
      </trkpt>
      <trkpt lat="44.23524" lon="4.48498">
        <ele>174</ele>
        <time>2021-07-04T15:01:10Z</time>
      </trkpt>
      <trkpt lat="44.23493" lon="4.48476">
        <ele>170</ele>
        <time>2021-07-04T15:01:18Z</time>
      </trkpt>
      <trkpt lat="44.23397" lon="4.48622">
        <ele>171</ele>
        <time>2021-07-04T15:01:51Z</time>
      </trkpt>
      <trkpt lat="44.23315" lon="4.48714">
        <ele>161</ele>
        <time>2021-07-04T15:02:15Z</time>
      </trkpt>
      <trkpt lat="44.23389" lon="4.48551">
        <ele>162</ele>
        <time>2021-07-04T15:02:48Z</time>
      </trkpt>
      <trkpt lat="44.23261" lon="4.48515">
        <ele>148</ele>
        <time>2021-07-04T15:03:18Z</time>
      </trkpt>
      <trkpt lat="44.2316" lon="4.48436">
        <ele>150</ele>
        <time>2021-07-04T15:03:45Z</time>
      </trkpt>
      <trkpt lat="44.23047" lon="4.4861">
        <ele>146</ele>
        <time>2021-07-04T15:04:25Z</time>
      </trkpt>
      <trkpt lat="44.22932" lon="4.48645">
        <ele>141</ele>
        <time>2021-07-04T15:04:52Z</time>
      </trkpt>
      <trkpt lat="44.22905" lon="4.48677">
        <ele>140</ele>
        <time>2021-07-04T15:05:00Z</time>
      </trkpt>
      <trkpt lat="44.22919" lon="4.48766">
        <ele>142</ele>
        <time>2021-07-04T15:05:16Z</time>
      </trkpt>
      <trkpt lat="44.22897" lon="4.48861">
        <ele>139</ele>
        <time>2021-07-04T15:05:32Z</time>
      </trkpt>
      <trkpt lat="44.22859" lon="4.48924">
        <ele>137</ele>
        <time>2021-07-04T15:05:46Z</time>
      </trkpt>
      <trkpt lat="44.22791" lon="4.48977">
        <ele>139</ele>
        <time>2021-07-04T15:06:04Z</time>
      </trkpt>
      <trkpt lat="44.22705" lon="4.49001">
        <ele>141</ele>
        <time>2021-07-04T15:06:25Z</time>
      </trkpt>
      <trkpt lat="44.22657" lon="4.4903">
        <ele>146</ele>
        <time>2021-07-04T15:06:37Z</time>
      </trkpt>
      <trkpt lat="44.22636" lon="4.49009">
        <ele>146</ele>
        <time>2021-07-04T15:06:43Z</time>
      </trkpt>
      <trkpt lat="44.22628" lon="4.48938">
        <ele>143</ele>
        <time>2021-07-04T15:06:55Z</time>
      </trkpt>
      <trkpt lat="44.22557" lon="4.48876">
        <ele>154</ele>
        <time>2021-07-04T15:07:15Z</time>
      </trkpt>
      <trkpt lat="44.22525" lon="4.48838">
        <ele>159</ele>
        <time>2021-07-04T15:07:24Z</time>
      </trkpt>
      <trkpt lat="44.22537" lon="4.48752">
        <ele>160</ele>
        <time>2021-07-04T15:07:39Z</time>
      </trkpt>
      <trkpt lat="44.22557" lon="4.48612">
        <ele>149</ele>
        <time>2021-07-04T15:08:03Z</time>
      </trkpt>
      <trkpt lat="44.22527" lon="4.48511">
        <ele>143</ele>
        <time>2021-07-04T15:08:21Z</time>
      </trkpt>
      <trkpt lat="44.22481" lon="4.48479">
        <ele>138</ele>
        <time>2021-07-04T15:08:33Z</time>
      </trkpt>
      <trkpt lat="44.22414" lon="4.48561">
        <ele>141</ele>
        <time>2021-07-04T15:08:54Z</time>
      </trkpt>
      <trkpt lat="44.22333" lon="4.48724">
        <ele>132</ele>
        <time>2021-07-04T15:09:27Z</time>
      </trkpt>
      <trkpt lat="44.22293" lon="4.4876">
        <ele>132</ele>
        <time>2021-07-04T15:09:38Z</time>
      </trkpt>
      <trkpt lat="44.22239" lon="4.48739">
        <ele>124</ele>
        <time>2021-07-04T15:09:51Z</time>
      </trkpt>
      <trkpt lat="44.22202" lon="4.48704">
        <ele>115</ele>
        <time>2021-07-04T15:10:02Z</time>
      </trkpt>
      <trkpt lat="44.22056" lon="4.48734">
        <ele>109</ele>
        <time>2021-07-04T15:10:36Z</time>
      </trkpt>
      <trkpt lat="44.21948" lon="4.48783">
        <ele>102</ele>
        <time>2021-07-04T15:11:03Z</time>
      </trkpt>
      <trkpt lat="44.21897" lon="4.48812">
        <ele>98</ele>
        <time>2021-07-04T15:11:16Z</time>
      </trkpt>
      <trkpt lat="44.21866" lon="4.48744">
        <ele>92</ele>
        <time>2021-07-04T15:11:29Z</time>
      </trkpt>
      <trkpt lat="44.21876" lon="4.4867">
        <ele>90</ele>
        <time>2021-07-04T15:11:42Z</time>
      </trkpt>
      <trkpt lat="44.21823" lon="4.48649">
        <ele>92</ele>
        <time>2021-07-04T15:11:55Z</time>
      </trkpt>
      <trkpt lat="44.21807" lon="4.48598">
        <ele>90</ele>
        <time>2021-07-04T15:12:04Z</time>
      </trkpt>
      <trkpt lat="44.21821" lon="4.48562">
        <ele>88</ele>
        <time>2021-07-04T15:12:11Z</time>
      </trkpt>
    </trkseg>
  </trk>
  <trk>
    <name><![CDATA[Bleu Cornillon village]]></name>
    <extensions>
      <line xmlns="http://www.topografix.com/GPX/gpx_style/0/2">
        <color>0000fa</color>
        <width>4</width>
      </line>
    </extensions>
    <trkseg>
      <trkpt lat="44.21832" lon="4.48554">
        <ele>87</ele>
        <time>2021-07-04T13:07:12Z</time>
      </trkpt>
      <trkpt lat="44.21832" lon="4.48554">
        <ele>87</ele>
        <time>2021-07-04T13:07:12Z</time>
      </trkpt>
      <trkpt lat="44.2188" lon="4.48604">
        <ele>88</ele>
        <time>2021-07-04T13:07:26Z</time>
      </trkpt>
      <trkpt lat="44.21862" lon="4.48742">
        <ele>92</ele>
        <time>2021-07-04T13:07:49Z</time>
      </trkpt>
      <trkpt lat="44.21894" lon="4.48818">
        <ele>99</ele>
        <time>2021-07-04T13:08:04Z</time>
      </trkpt>
      <trkpt lat="44.21996" lon="4.48759">
        <ele>106</ele>
        <time>2021-07-04T13:08:30Z</time>
      </trkpt>
      <trkpt lat="44.22192" lon="4.4871">
        <ele>116</ele>
        <time>2021-07-04T13:09:17Z</time>
      </trkpt>
      <trkpt lat="44.22251" lon="4.4876">
        <ele>128</ele>
        <time>2021-07-04T13:09:33Z</time>
      </trkpt>
      <trkpt lat="44.22322" lon="4.48763">
        <ele>135</ele>
        <time>2021-07-04T13:09:49Z</time>
      </trkpt>
      <trkpt lat="44.22389" lon="4.48634">
        <ele>142</ele>
        <time>2021-07-04T13:10:16Z</time>
      </trkpt>
      <trkpt lat="44.22363" lon="4.48792">
        <ele>149</ele>
        <time>2021-07-04T13:10:43Z</time>
      </trkpt>
      <trkpt lat="44.22417" lon="4.48864">
        <ele>162</ele>
        <time>2021-07-04T13:11:00Z</time>
      </trkpt>
      <trkpt lat="44.22438" lon="4.4891">
        <ele>159</ele>
        <time>2021-07-04T13:11:10Z</time>
      </trkpt>
      <trkpt lat="44.22461" lon="4.48904">
        <ele>160</ele>
        <time>2021-07-04T13:11:15Z</time>
      </trkpt>
      <trkpt lat="44.22473" lon="4.48962">
        <ele>160</ele>
        <time>2021-07-04T13:11:25Z</time>
      </trkpt>
      <trkpt lat="44.22462" lon="4.4899">
        <ele>161</ele>
        <time>2021-07-04T13:11:30Z</time>
      </trkpt>
      <trkpt lat="44.22468" lon="4.49036">
        <ele>165</ele>
        <time>2021-07-04T13:11:38Z</time>
      </trkpt>
      <trkpt lat="44.22439" lon="4.49072">
        <ele>173</ele>
        <time>2021-07-04T13:11:47Z</time>
      </trkpt>
      <trkpt lat="44.22448" lon="4.49118">
        <ele>175</ele>
        <time>2021-07-04T13:11:55Z</time>
      </trkpt>
      <trkpt lat="44.22399" lon="4.49235">
        <ele>183</ele>
        <time>2021-07-04T13:12:18Z</time>
      </trkpt>
      <trkpt lat="44.22432" lon="4.4937">
        <ele>186</ele>
        <time>2021-07-04T13:12:42Z</time>
      </trkpt>
      <trkpt lat="44.22433" lon="4.49381">
        <ele>187</ele>
        <time>2021-07-04T13:12:44Z</time>
      </trkpt>
      <trkpt lat="44.22487" lon="4.49416">
        <ele>197</ele>
        <time>2021-07-04T13:12:58Z</time>
      </trkpt>
      <trkpt lat="44.22498" lon="4.49474">
        <ele>203</ele>
        <time>2021-07-04T13:13:08Z</time>
      </trkpt>
      <trkpt lat="44.22589" lon="4.49442">
        <ele>210</ele>
        <time>2021-07-04T13:13:30Z</time>
      </trkpt>
      <trkpt lat="44.22646" lon="4.49432">
        <ele>213</ele>
        <time>2021-07-04T13:13:43Z</time>
      </trkpt>
      <trkpt lat="44.22676" lon="4.49557">
        <ele>233</ele>
        <time>2021-07-04T13:14:05Z</time>
      </trkpt>
      <trkpt lat="44.22691" lon="4.49649">
        <ele>240</ele>
        <time>2021-07-04T13:14:21Z</time>
      </trkpt>
      <trkpt lat="44.22707" lon="4.49755">
        <ele>242</ele>
        <time>2021-07-04T13:14:39Z</time>
      </trkpt>
      <trkpt lat="44.22736" lon="4.49825">
        <ele>246</ele>
        <time>2021-07-04T13:14:53Z</time>
      </trkpt>
      <trkpt lat="44.22795" lon="4.49928">
        <ele>256</ele>
        <time>2021-07-04T13:15:15Z</time>
      </trkpt>
      <trkpt lat="44.22815" lon="4.50001">
        <ele>256</ele>
        <time>2021-07-04T13:15:28Z</time>
      </trkpt>
      <trkpt lat="44.22847" lon="4.50016">
        <ele>261</ele>
        <time>2021-07-04T13:15:36Z</time>
      </trkpt>
      <trkpt lat="44.22911" lon="4.4998">
        <ele>272</ele>
        <time>2021-07-04T13:15:52Z</time>
      </trkpt>
      <trkpt lat="44.22983" lon="4.49961">
        <ele>277</ele>
        <time>2021-07-04T13:16:09Z</time>
      </trkpt>
      <trkpt lat="44.23045" lon="4.49947">
        <ele>279</ele>
        <time>2021-07-04T13:16:23Z</time>
      </trkpt>
      <trkpt lat="44.23112" lon="4.49944">
        <ele>281</ele>
        <time>2021-07-04T13:16:39Z</time>
      </trkpt>
      <trkpt lat="44.23177" lon="4.49964">
        <ele>285</ele>
        <time>2021-07-04T13:16:55Z</time>
      </trkpt>
      <trkpt lat="44.23234" lon="4.49971">
        <ele>290</ele>
        <time>2021-07-04T13:17:08Z</time>
      </trkpt>
      <trkpt lat="44.23288" lon="4.49956">
        <ele>291</ele>
        <time>2021-07-04T13:17:21Z</time>
      </trkpt>
      <trkpt lat="44.23343" lon="4.49971">
        <ele>298</ele>
        <time>2021-07-04T13:17:34Z</time>
      </trkpt>
      <trkpt lat="44.2338" lon="4.49984">
        <ele>300</ele>
        <time>2021-07-04T13:17:43Z</time>
      </trkpt>
      <trkpt lat="44.23413" lon="4.50018">
        <ele>296</ele>
        <time>2021-07-04T13:17:52Z</time>
      </trkpt>
      <trkpt lat="44.23476" lon="4.49982">
        <ele>299</ele>
        <time>2021-07-04T13:18:08Z</time>
      </trkpt>
      <trkpt lat="44.23512" lon="4.49965">
        <ele>301</ele>
        <time>2021-07-04T13:18:17Z</time>
      </trkpt>
      <trkpt lat="44.23537" lon="4.49939">
        <ele>305</ele>
        <time>2021-07-04T13:18:25Z</time>
      </trkpt>
      <trkpt lat="44.23584" lon="4.49867">
        <ele>299</ele>
        <time>2021-07-04T13:18:41Z</time>
      </trkpt>
      <trkpt lat="44.23638" lon="4.49798">
        <ele>283</ele>
        <time>2021-07-04T13:18:58Z</time>
      </trkpt>
      <trkpt lat="44.23787" lon="4.49768">
        <ele>260</ele>
        <time>2021-07-04T13:19:33Z</time>
      </trkpt>
      <trkpt lat="44.23745" lon="4.49713">
        <ele>255</ele>
        <time>2021-07-04T13:19:47Z</time>
      </trkpt>
      <trkpt lat="44.23736" lon="4.4953">
        <ele>231</ele>
        <time>2021-07-04T13:20:17Z</time>
      </trkpt>
      <trkpt lat="44.23753" lon="4.49262">
        <ele>203</ele>
        <time>2021-07-04T13:21:02Z</time>
      </trkpt>
      <trkpt lat="44.23758" lon="4.49159">
        <ele>191</ele>
        <time>2021-07-04T13:21:19Z</time>
      </trkpt>
      <trkpt lat="44.23738" lon="4.49041">
        <ele>186</ele>
        <time>2021-07-04T13:21:40Z</time>
      </trkpt>
      <trkpt lat="44.23762" lon="4.48934">
        <ele>177</ele>
        <time>2021-07-04T13:21:59Z</time>
      </trkpt>
      <trkpt lat="44.23721" lon="4.48895">
        <ele>180</ele>
        <time>2021-07-04T13:22:10Z</time>
      </trkpt>
      <trkpt lat="44.23627" lon="4.4865">
        <ele>177</ele>
        <time>2021-07-04T13:22:57Z</time>
      </trkpt>
      <trkpt lat="44.23504" lon="4.48483">
        <ele>172</ele>
        <time>2021-07-04T13:23:37Z</time>
      </trkpt>
      <trkpt lat="44.23381" lon="4.48625">
        <ele>168</ele>
        <time>2021-07-04T13:24:14Z</time>
      </trkpt>
      <trkpt lat="44.23387" lon="4.48565">
        <ele>163</ele>
        <time>2021-07-04T13:24:24Z</time>
      </trkpt>
      <trkpt lat="44.23241" lon="4.485">
        <ele>148</ele>
        <time>2021-07-04T13:25:00Z</time>
      </trkpt>
      <trkpt lat="44.23157" lon="4.48442">
        <ele>150</ele>
        <time>2021-07-04T13:25:22Z</time>
      </trkpt>
      <trkpt lat="44.23075" lon="4.48593">
        <ele>146</ele>
        <time>2021-07-04T13:25:53Z</time>
      </trkpt>
      <trkpt lat="44.22917" lon="4.4867">
        <ele>140</ele>
        <time>2021-07-04T13:26:33Z</time>
      </trkpt>
      <trkpt lat="44.22918" lon="4.48788">
        <ele>141</ele>
        <time>2021-07-04T13:26:52Z</time>
      </trkpt>
      <trkpt lat="44.22872" lon="4.48908">
        <ele>138</ele>
        <time>2021-07-04T13:27:15Z</time>
      </trkpt>
      <trkpt lat="44.22788" lon="4.48981">
        <ele>139</ele>
        <time>2021-07-04T13:27:38Z</time>
      </trkpt>
      <trkpt lat="44.22706" lon="4.49004">
        <ele>141</ele>
        <time>2021-07-04T13:27:58Z</time>
      </trkpt>
      <trkpt lat="44.22655" lon="4.49032">
        <ele>146</ele>
        <time>2021-07-04T13:28:11Z</time>
      </trkpt>
      <trkpt lat="44.22638" lon="4.48985">
        <ele>144</ele>
        <time>2021-07-04T13:28:19Z</time>
      </trkpt>
      <trkpt lat="44.22631" lon="4.48925">
        <ele>142</ele>
        <time>2021-07-04T13:28:30Z</time>
      </trkpt>
      <trkpt lat="44.22529" lon="4.4885">
        <ele>158</ele>
        <time>2021-07-04T13:28:56Z</time>
      </trkpt>
      <trkpt lat="44.22552" lon="4.4867">
        <ele>155</ele>
        <time>2021-07-04T13:29:27Z</time>
      </trkpt>
      <trkpt lat="44.22548" lon="4.48526">
        <ele>140</ele>
        <time>2021-07-04T13:29:51Z</time>
      </trkpt>
      <trkpt lat="44.22488" lon="4.48481">
        <ele>139</ele>
        <time>2021-07-04T13:30:07Z</time>
      </trkpt>
      <trkpt lat="44.22395" lon="4.48601">
        <ele>141</ele>
        <time>2021-07-04T13:30:37Z</time>
      </trkpt>
      <trkpt lat="44.22319" lon="4.48758">
        <ele>135</ele>
        <time>2021-07-04T13:31:08Z</time>
      </trkpt>
      <trkpt lat="44.22251" lon="4.4876">
        <ele>128</ele>
        <time>2021-07-04T13:31:24Z</time>
      </trkpt>
      <trkpt lat="44.22206" lon="4.4871">
        <ele>117</ele>
        <time>2021-07-04T13:31:38Z</time>
      </trkpt>
      <trkpt lat="44.22029" lon="4.48743">
        <ele>107</ele>
        <time>2021-07-04T13:32:19Z</time>
      </trkpt>
      <trkpt lat="44.21914" lon="4.48805">
        <ele>99</ele>
        <time>2021-07-04T13:32:48Z</time>
      </trkpt>
      <trkpt lat="44.21862" lon="4.48745">
        <ele>92</ele>
        <time>2021-07-04T13:33:04Z</time>
      </trkpt>
      <trkpt lat="44.21873" lon="4.48685">
        <ele>91</ele>
        <time>2021-07-04T13:33:14Z</time>
      </trkpt>
      <trkpt lat="44.21831" lon="4.48635">
        <ele>91</ele>
        <time>2021-07-04T13:33:27Z</time>
      </trkpt>
      <trkpt lat="44.21823" lon="4.48588">
        <ele>89</ele>
        <time>2021-07-04T13:33:35Z</time>
      </trkpt>
    </trkseg>
  </trk>
  <trk>
    <name><![CDATA[Rouge Cornillon Plumet]]></name>
    <extensions>
      <line xmlns="http://www.topografix.com/GPX/gpx_style/0/2">
        <color>fa0000</color>
        <width>4</width>
      </line>
    </extensions>
    <trkseg>
      <trkpt lat="44.21827" lon="4.48566">
        <ele>88</ele>
        <time>2021-07-04T13:08:43Z</time>
      </trkpt>
      <trkpt lat="44.21827" lon="4.48566">
        <ele>88</ele>
        <time>2021-07-04T13:08:43Z</time>
      </trkpt>
      <trkpt lat="44.2188" lon="4.48604">
        <ele>88</ele>
        <time>2021-07-04T13:08:57Z</time>
      </trkpt>
      <trkpt lat="44.21862" lon="4.48742">
        <ele>92</ele>
        <time>2021-07-04T13:09:20Z</time>
      </trkpt>
      <trkpt lat="44.21894" lon="4.48818">
        <ele>99</ele>
        <time>2021-07-04T13:09:35Z</time>
      </trkpt>
      <trkpt lat="44.21996" lon="4.48759">
        <ele>106</ele>
        <time>2021-07-04T13:10:01Z</time>
      </trkpt>
      <trkpt lat="44.22205" lon="4.48706">
        <ele>116</ele>
        <time>2021-07-04T13:10:51Z</time>
      </trkpt>
      <trkpt lat="44.22255" lon="4.48765">
        <ele>129</ele>
        <time>2021-07-04T13:11:06Z</time>
      </trkpt>
      <trkpt lat="44.22322" lon="4.48763">
        <ele>135</ele>
        <time>2021-07-04T13:11:21Z</time>
      </trkpt>
      <trkpt lat="44.22394" lon="4.48614">
        <ele>142</ele>
        <time>2021-07-04T13:11:52Z</time>
      </trkpt>
      <trkpt lat="44.22362" lon="4.48803">
        <ele>149</ele>
        <time>2021-07-04T13:12:24Z</time>
      </trkpt>
      <trkpt lat="44.22417" lon="4.48864">
        <ele>162</ele>
        <time>2021-07-04T13:12:40Z</time>
      </trkpt>
      <trkpt lat="44.22438" lon="4.4891">
        <ele>159</ele>
        <time>2021-07-04T13:12:50Z</time>
      </trkpt>
      <trkpt lat="44.22461" lon="4.48904">
        <ele>160</ele>
        <time>2021-07-04T13:12:55Z</time>
      </trkpt>
      <trkpt lat="44.22473" lon="4.48962">
        <ele>160</ele>
        <time>2021-07-04T13:13:05Z</time>
      </trkpt>
      <trkpt lat="44.22462" lon="4.4899">
        <ele>161</ele>
        <time>2021-07-04T13:13:11Z</time>
      </trkpt>
      <trkpt lat="44.22468" lon="4.49036">
        <ele>165</ele>
        <time>2021-07-04T13:13:18Z</time>
      </trkpt>
      <trkpt lat="44.22439" lon="4.49072">
        <ele>173</ele>
        <time>2021-07-04T13:13:27Z</time>
      </trkpt>
      <trkpt lat="44.22448" lon="4.49118">
        <ele>175</ele>
        <time>2021-07-04T13:13:35Z</time>
      </trkpt>
      <trkpt lat="44.22399" lon="4.49235">
        <ele>183</ele>
        <time>2021-07-04T13:13:58Z</time>
      </trkpt>
      <trkpt lat="44.22416" lon="4.49333">
        <ele>182</ele>
        <time>2021-07-04T13:14:15Z</time>
      </trkpt>
      <trkpt lat="44.22433" lon="4.49381">
        <ele>187</ele>
        <time>2021-07-04T13:14:24Z</time>
      </trkpt>
      <trkpt lat="44.22488" lon="4.49414">
        <ele>197</ele>
        <time>2021-07-04T13:14:38Z</time>
      </trkpt>
      <trkpt lat="44.22498" lon="4.49474">
        <ele>203</ele>
        <time>2021-07-04T13:14:48Z</time>
      </trkpt>
      <trkpt lat="44.22589" lon="4.49442">
        <ele>210</ele>
        <time>2021-07-04T13:15:10Z</time>
      </trkpt>
      <trkpt lat="44.22646" lon="4.49432">
        <ele>213</ele>
        <time>2021-07-04T13:15:24Z</time>
      </trkpt>
      <trkpt lat="44.22658" lon="4.49512">
        <ele>226</ele>
        <time>2021-07-04T13:15:37Z</time>
      </trkpt>
      <trkpt lat="44.22689" lon="4.49613">
        <ele>239</ele>
        <time>2021-07-04T13:15:56Z</time>
      </trkpt>
      <trkpt lat="44.22695" lon="4.49711">
        <ele>241</ele>
        <time>2021-07-04T13:16:12Z</time>
      </trkpt>
      <trkpt lat="44.22721" lon="4.49801">
        <ele>244</ele>
        <time>2021-07-04T13:16:28Z</time>
      </trkpt>
      <trkpt lat="44.22795" lon="4.49928">
        <ele>256</ele>
        <time>2021-07-04T13:16:56Z</time>
      </trkpt>
      <trkpt lat="44.22815" lon="4.50001">
        <ele>256</ele>
        <time>2021-07-04T13:17:09Z</time>
      </trkpt>
      <trkpt lat="44.22847" lon="4.50016">
        <ele>261</ele>
        <time>2021-07-04T13:17:17Z</time>
      </trkpt>
      <trkpt lat="44.22911" lon="4.4998">
        <ele>272</ele>
        <time>2021-07-04T13:17:33Z</time>
      </trkpt>
      <trkpt lat="44.22993" lon="4.49952">
        <ele>278</ele>
        <time>2021-07-04T13:17:52Z</time>
      </trkpt>
      <trkpt lat="44.23045" lon="4.49947">
        <ele>279</ele>
        <time>2021-07-04T13:18:05Z</time>
      </trkpt>
      <trkpt lat="44.23112" lon="4.49944">
        <ele>281</ele>
        <time>2021-07-04T13:18:20Z</time>
      </trkpt>
      <trkpt lat="44.23177" lon="4.49964">
        <ele>285</ele>
        <time>2021-07-04T13:18:36Z</time>
      </trkpt>
      <trkpt lat="44.23234" lon="4.49971">
        <ele>290</ele>
        <time>2021-07-04T13:18:49Z</time>
      </trkpt>
      <trkpt lat="44.23288" lon="4.49956">
        <ele>291</ele>
        <time>2021-07-04T13:19:02Z</time>
      </trkpt>
      <trkpt lat="44.23348" lon="4.4997">
        <ele>299</ele>
        <time>2021-07-04T13:19:16Z</time>
      </trkpt>
      <trkpt lat="44.2338" lon="4.49984">
        <ele>300</ele>
        <time>2021-07-04T13:19:24Z</time>
      </trkpt>
      <trkpt lat="44.23413" lon="4.50018">
        <ele>296</ele>
        <time>2021-07-04T13:19:34Z</time>
      </trkpt>
      <trkpt lat="44.23476" lon="4.49982">
        <ele>299</ele>
        <time>2021-07-04T13:19:50Z</time>
      </trkpt>
      <trkpt lat="44.23525" lon="4.49974">
        <ele>302</ele>
        <time>2021-07-04T13:20:01Z</time>
      </trkpt>
      <trkpt lat="44.23579" lon="4.50048">
        <ele>303</ele>
        <time>2021-07-04T13:20:19Z</time>
      </trkpt>
      <trkpt lat="44.23824" lon="4.5034">
        <ele>331</ele>
        <time>2021-07-04T13:21:34Z</time>
      </trkpt>
      <trkpt lat="44.23887" lon="4.50351">
        <ele>332</ele>
        <time>2021-07-04T13:21:49Z</time>
      </trkpt>
      <trkpt lat="44.24034" lon="4.50371">
        <ele>332</ele>
        <time>2021-07-04T13:22:23Z</time>
      </trkpt>
      <trkpt lat="44.24212" lon="4.50441">
        <ele>324</ele>
        <time>2021-07-04T13:23:06Z</time>
      </trkpt>
      <trkpt lat="44.24568" lon="4.50516">
        <ele>333</ele>
        <time>2021-07-04T13:24:31Z</time>
      </trkpt>
      <trkpt lat="44.24744" lon="4.50489">
        <ele>346</ele>
        <time>2021-07-04T13:25:12Z</time>
      </trkpt>
      <trkpt lat="44.24774" lon="4.50432">
        <ele>355</ele>
        <time>2021-07-04T13:25:24Z</time>
      </trkpt>
      <trkpt lat="44.24785" lon="4.50215">
        <ele>360</ele>
        <time>2021-07-04T13:26:00Z</time>
      </trkpt>
      <trkpt lat="44.24824" lon="4.50142">
        <ele>357</ele>
        <time>2021-07-04T13:26:15Z</time>
      </trkpt>
      <trkpt lat="44.24944" lon="4.50114">
        <ele>359</ele>
        <time>2021-07-04T13:26:44Z</time>
      </trkpt>
      <trkpt lat="44.24936" lon="4.5004">
        <ele>357</ele>
        <time>2021-07-04T13:26:56Z</time>
      </trkpt>
      <trkpt lat="44.2499" lon="4.4985">
        <ele>359</ele>
        <time>2021-07-04T13:27:31Z</time>
      </trkpt>
      <trkpt lat="44.25062" lon="4.4975">
        <ele>360</ele>
        <time>2021-07-04T13:27:54Z</time>
      </trkpt>
      <trkpt lat="44.25102" lon="4.49663">
        <ele>357</ele>
        <time>2021-07-04T13:28:12Z</time>
      </trkpt>
      <trkpt lat="44.25183" lon="4.4957">
        <ele>357</ele>
        <time>2021-07-04T13:28:36Z</time>
      </trkpt>
      <trkpt lat="44.25167" lon="4.49512">
        <ele>355</ele>
        <time>2021-07-04T13:28:46Z</time>
      </trkpt>
      <trkpt lat="44.25048" lon="4.49373">
        <ele>351</ele>
        <time>2021-07-04T13:29:23Z</time>
      </trkpt>
      <trkpt lat="44.24994" lon="4.49326">
        <ele>351</ele>
        <time>2021-07-04T13:29:37Z</time>
      </trkpt>
      <trkpt lat="44.25" lon="4.4924">
        <ele>351</ele>
        <time>2021-07-04T13:29:52Z</time>
      </trkpt>
      <trkpt lat="44.25208" lon="4.49114">
        <ele>355</ele>
        <time>2021-07-04T13:30:45Z</time>
      </trkpt>
      <trkpt lat="44.25238" lon="4.48955">
        <ele>350</ele>
        <time>2021-07-04T13:31:12Z</time>
      </trkpt>
      <trkpt lat="44.25185" lon="4.48902">
        <ele>349</ele>
        <time>2021-07-04T13:31:28Z</time>
      </trkpt>
      <trkpt lat="44.25086" lon="4.4887">
        <ele>348</ele>
        <time>2021-07-04T13:31:51Z</time>
      </trkpt>
      <trkpt lat="44.25017" lon="4.48798">
        <ele>346</ele>
        <time>2021-07-04T13:32:11Z</time>
      </trkpt>
      <trkpt lat="44.25003" lon="4.48644">
        <ele>348</ele>
        <time>2021-07-04T13:32:37Z</time>
      </trkpt>
      <trkpt lat="44.25007" lon="4.48605">
        <ele>347</ele>
        <time>2021-07-04T13:32:44Z</time>
      </trkpt>
      <trkpt lat="44.25067" lon="4.48541">
        <ele>346</ele>
        <time>2021-07-04T13:33:02Z</time>
      </trkpt>
      <trkpt lat="44.25014" lon="4.48406">
        <ele>343</ele>
        <time>2021-07-04T13:33:27Z</time>
      </trkpt>
      <trkpt lat="44.24977" lon="4.48307">
        <ele>340</ele>
        <time>2021-07-04T13:33:46Z</time>
      </trkpt>
      <trkpt lat="44.25014" lon="4.48161">
        <ele>336</ele>
        <time>2021-07-04T13:34:12Z</time>
      </trkpt>
      <trkpt lat="44.25066" lon="4.48116">
        <ele>334</ele>
        <time>2021-07-04T13:34:26Z</time>
      </trkpt>
      <trkpt lat="44.25227" lon="4.48095">
        <ele>309</ele>
        <time>2021-07-04T13:35:04Z</time>
      </trkpt>
      <trkpt lat="44.25243" lon="4.48012">
        <ele>298</ele>
        <time>2021-07-04T13:35:18Z</time>
      </trkpt>
      <trkpt lat="44.25374" lon="4.47785">
        <ele>267</ele>
        <time>2021-07-04T13:36:07Z</time>
      </trkpt>
      <trkpt lat="44.25393" lon="4.47678">
        <ele>256</ele>
        <time>2021-07-04T13:36:26Z</time>
      </trkpt>
      <trkpt lat="44.25304" lon="4.47668">
        <ele>265</ele>
        <time>2021-07-04T13:36:46Z</time>
      </trkpt>
      <trkpt lat="44.25213" lon="4.47593">
        <ele>271</ele>
        <time>2021-07-04T13:37:11Z</time>
      </trkpt>
      <trkpt lat="44.25205" lon="4.47554">
        <ele>270</ele>
        <time>2021-07-04T13:37:18Z</time>
      </trkpt>
      <trkpt lat="44.25215" lon="4.47502">
        <ele>267</ele>
        <time>2021-07-04T13:37:27Z</time>
      </trkpt>
      <trkpt lat="44.25126" lon="4.4739">
        <ele>267</ele>
        <time>2021-07-04T13:37:55Z</time>
      </trkpt>
      <trkpt lat="44.25041" lon="4.47361">
        <ele>272</ele>
        <time>2021-07-04T13:38:15Z</time>
      </trkpt>
      <trkpt lat="44.24987" lon="4.47309">
        <ele>272</ele>
        <time>2021-07-04T13:38:31Z</time>
      </trkpt>
      <trkpt lat="44.24874" lon="4.47278">
        <ele>278</ele>
        <time>2021-07-04T13:38:58Z</time>
      </trkpt>
      <trkpt lat="44.24808" lon="4.47245">
        <ele>280</ele>
        <time>2021-07-04T13:39:14Z</time>
      </trkpt>
      <trkpt lat="44.24765" lon="4.47187">
        <ele>275</ele>
        <time>2021-07-04T13:39:28Z</time>
      </trkpt>
      <trkpt lat="44.24711" lon="4.47141">
        <ele>271</ele>
        <time>2021-07-04T13:39:43Z</time>
      </trkpt>
      <trkpt lat="44.24679" lon="4.47087">
        <ele>267</ele>
        <time>2021-07-04T13:39:54Z</time>
      </trkpt>
      <trkpt lat="44.24579" lon="4.47075">
        <ele>255</ele>
        <time>2021-07-04T13:40:18Z</time>
      </trkpt>
      <trkpt lat="44.24583" lon="4.47108">
        <ele>253</ele>
        <time>2021-07-04T13:40:23Z</time>
      </trkpt>
      <trkpt lat="44.24517" lon="4.47196">
        <ele>240</ele>
        <time>2021-07-04T13:40:45Z</time>
      </trkpt>
      <trkpt lat="44.24459" lon="4.47223">
        <ele>233</ele>
        <time>2021-07-04T13:40:59Z</time>
      </trkpt>
      <trkpt lat="44.24396" lon="4.47174">
        <ele>220</ele>
        <time>2021-07-04T13:41:16Z</time>
      </trkpt>
      <trkpt lat="44.24365" lon="4.47167">
        <ele>213</ele>
        <time>2021-07-04T13:41:23Z</time>
      </trkpt>
      <trkpt lat="44.243" lon="4.47">
        <ele>187</ele>
        <time>2021-07-04T13:41:55Z</time>
      </trkpt>
      <trkpt lat="44.24291" lon="4.46975">
        <ele>181</ele>
        <time>2021-07-04T13:42:00Z</time>
      </trkpt>
      <trkpt lat="44.24303" lon="4.46908">
        <ele>175</ele>
        <time>2021-07-04T13:42:11Z</time>
      </trkpt>
      <trkpt lat="44.24265" lon="4.46936">
        <ele>169</ele>
        <time>2021-07-04T13:42:21Z</time>
      </trkpt>
      <trkpt lat="44.2426" lon="4.46887">
        <ele>162</ele>
        <time>2021-07-04T13:42:30Z</time>
      </trkpt>
      <trkpt lat="44.24283" lon="4.46837">
        <ele>160</ele>
        <time>2021-07-04T13:42:40Z</time>
      </trkpt>
      <trkpt lat="44.24274" lon="4.46805">
        <ele>154</ele>
        <time>2021-07-04T13:42:45Z</time>
      </trkpt>
      <trkpt lat="44.24233" lon="4.46786">
        <ele>145</ele>
        <time>2021-07-04T13:42:55Z</time>
      </trkpt>
      <trkpt lat="44.24194" lon="4.46702">
        <ele>135</ele>
        <time>2021-07-04T13:43:12Z</time>
      </trkpt>
      <trkpt lat="44.24145" lon="4.46654">
        <ele>131</ele>
        <time>2021-07-04T13:43:26Z</time>
      </trkpt>
      <trkpt lat="44.24099" lon="4.46601">
        <ele>129</ele>
        <time>2021-07-04T13:43:40Z</time>
      </trkpt>
      <trkpt lat="44.24099" lon="4.46545">
        <ele>127</ele>
        <time>2021-07-04T13:43:49Z</time>
      </trkpt>
      <trkpt lat="44.24068" lon="4.46517">
        <ele>126</ele>
        <time>2021-07-04T13:43:58Z</time>
      </trkpt>
      <trkpt lat="44.24063" lon="4.46347">
        <ele>120</ele>
        <time>2021-07-04T13:44:26Z</time>
      </trkpt>
      <trkpt lat="44.24094" lon="4.46114">
        <ele>112</ele>
        <time>2021-07-04T13:45:06Z</time>
      </trkpt>
      <trkpt lat="44.24066" lon="4.46031">
        <ele>107</ele>
        <time>2021-07-04T13:45:21Z</time>
      </trkpt>
      <trkpt lat="44.24053" lon="4.46004">
        <ele>105</ele>
        <time>2021-07-04T13:45:27Z</time>
      </trkpt>
      <trkpt lat="44.2411" lon="4.45871">
        <ele>102</ele>
        <time>2021-07-04T13:45:53Z</time>
      </trkpt>
      <trkpt lat="44.24036" lon="4.45837">
        <ele>107</ele>
        <time>2021-07-04T13:46:11Z</time>
      </trkpt>
      <trkpt lat="44.24043" lon="4.45736">
        <ele>115</ele>
        <time>2021-07-04T13:46:28Z</time>
      </trkpt>
      <trkpt lat="44.24016" lon="4.45709">
        <ele>118</ele>
        <time>2021-07-04T13:46:36Z</time>
      </trkpt>
      <trkpt lat="44.23965" lon="4.45739">
        <ele>117</ele>
        <time>2021-07-04T13:46:49Z</time>
      </trkpt>
      <trkpt lat="44.23916" lon="4.45779">
        <ele>116</ele>
        <time>2021-07-04T13:47:02Z</time>
      </trkpt>
      <trkpt lat="44.24005" lon="4.45856">
        <ele>109</ele>
        <time>2021-07-04T13:47:26Z</time>
      </trkpt>
      <trkpt lat="44.24002" lon="4.45925">
        <ele>106</ele>
        <time>2021-07-04T13:47:38Z</time>
      </trkpt>
      <trkpt lat="44.2402" lon="4.45999">
        <ele>106</ele>
        <time>2021-07-04T13:47:51Z</time>
      </trkpt>
      <trkpt lat="44.23963" lon="4.4611">
        <ele>112</ele>
        <time>2021-07-04T13:48:14Z</time>
      </trkpt>
      <trkpt lat="44.23913" lon="4.46187">
        <ele>114</ele>
        <time>2021-07-04T13:48:31Z</time>
      </trkpt>
      <trkpt lat="44.23983" lon="4.46272">
        <ele>117</ele>
        <time>2021-07-04T13:48:53Z</time>
      </trkpt>
      <trkpt lat="44.23993" lon="4.46361">
        <ele>122</ele>
        <time>2021-07-04T13:49:08Z</time>
      </trkpt>
      <trkpt lat="44.23974" lon="4.46592">
        <ele>133</ele>
        <time>2021-07-04T13:49:47Z</time>
      </trkpt>
      <trkpt lat="44.23988" lon="4.46644">
        <ele>135</ele>
        <time>2021-07-04T13:49:56Z</time>
      </trkpt>
      <trkpt lat="44.23934" lon="4.46996">
        <ele>130</ele>
        <time>2021-07-04T13:50:56Z</time>
      </trkpt>
      <trkpt lat="44.23925" lon="4.47191">
        <ele>135</ele>
        <time>2021-07-04T13:51:29Z</time>
      </trkpt>
      <trkpt lat="44.23926" lon="4.47254">
        <ele>138</ele>
        <time>2021-07-04T13:51:40Z</time>
      </trkpt>
      <trkpt lat="44.23962" lon="4.47292">
        <ele>140</ele>
        <time>2021-07-04T13:51:50Z</time>
      </trkpt>
      <trkpt lat="44.23991" lon="4.47408">
        <ele>144</ele>
        <time>2021-07-04T13:52:11Z</time>
      </trkpt>
      <trkpt lat="44.23999" lon="4.47584">
        <ele>158</ele>
        <time>2021-07-04T13:52:40Z</time>
      </trkpt>
      <trkpt lat="44.23981" lon="4.47699">
        <ele>159</ele>
        <time>2021-07-04T13:53:00Z</time>
      </trkpt>
      <trkpt lat="44.2398" lon="4.47884">
        <ele>170</ele>
        <time>2021-07-04T13:53:31Z</time>
      </trkpt>
      <trkpt lat="44.24023" lon="4.47928">
        <ele>178</ele>
        <time>2021-07-04T13:53:43Z</time>
      </trkpt>
      <trkpt lat="44.24014" lon="4.48116">
        <ele>185</ele>
        <time>2021-07-04T13:54:15Z</time>
      </trkpt>
      <trkpt lat="44.24077" lon="4.48311">
        <ele>190</ele>
        <time>2021-07-04T13:54:51Z</time>
      </trkpt>
      <trkpt lat="44.24052" lon="4.48357">
        <ele>178</ele>
        <time>2021-07-04T13:55:00Z</time>
      </trkpt>
      <trkpt lat="44.24104" lon="4.48621">
        <ele>169</ele>
        <time>2021-07-04T13:55:46Z</time>
      </trkpt>
      <trkpt lat="44.24162" lon="4.48656">
        <ele>176</ele>
        <time>2021-07-04T13:56:01Z</time>
      </trkpt>
      <trkpt lat="44.24191" lon="4.48715">
        <ele>180</ele>
        <time>2021-07-04T13:56:13Z</time>
      </trkpt>
      <trkpt lat="44.24099" lon="4.48712">
        <ele>162</ele>
        <time>2021-07-04T13:56:34Z</time>
      </trkpt>
      <trkpt lat="44.24104" lon="4.48768">
        <ele>161</ele>
        <time>2021-07-04T13:56:44Z</time>
      </trkpt>
      <trkpt lat="44.24128" lon="4.488">
        <ele>165</ele>
        <time>2021-07-04T13:56:52Z</time>
      </trkpt>
      <trkpt lat="44.24152" lon="4.48887">
        <ele>170</ele>
        <time>2021-07-04T13:57:07Z</time>
      </trkpt>
      <trkpt lat="44.2413" lon="4.48899">
        <ele>169</ele>
        <time>2021-07-04T13:57:13Z</time>
      </trkpt>
      <trkpt lat="44.24174" lon="4.49022">
        <ele>182</ele>
        <time>2021-07-04T13:57:36Z</time>
      </trkpt>
      <trkpt lat="44.24132" lon="4.49118">
        <ele>187</ele>
        <time>2021-07-04T13:57:54Z</time>
      </trkpt>
      <trkpt lat="44.24068" lon="4.4914">
        <ele>182</ele>
        <time>2021-07-04T13:58:10Z</time>
      </trkpt>
      <trkpt lat="44.24006" lon="4.49213">
        <ele>183</ele>
        <time>2021-07-04T13:58:29Z</time>
      </trkpt>
      <trkpt lat="44.23961" lon="4.49238">
        <ele>185</ele>
        <time>2021-07-04T13:58:40Z</time>
      </trkpt>
      <trkpt lat="44.23915" lon="4.49194">
        <ele>182</ele>
        <time>2021-07-04T13:58:53Z</time>
      </trkpt>
      <trkpt lat="44.23898" lon="4.49154">
        <ele>180</ele>
        <time>2021-07-04T13:59:01Z</time>
      </trkpt>
      <trkpt lat="44.23836" lon="4.49116">
        <ele>180</ele>
        <time>2021-07-04T13:59:17Z</time>
      </trkpt>
      <trkpt lat="44.23819" lon="4.49013">
        <ele>177</ele>
        <time>2021-07-04T13:59:34Z</time>
      </trkpt>
      <trkpt lat="44.23806" lon="4.48922">
        <ele>174</ele>
        <time>2021-07-04T13:59:50Z</time>
      </trkpt>
      <trkpt lat="44.23755" lon="4.48906">
        <ele>176</ele>
        <time>2021-07-04T14:00:02Z</time>
      </trkpt>
      <trkpt lat="44.2373" lon="4.48912">
        <ele>180</ele>
        <time>2021-07-04T14:00:08Z</time>
      </trkpt>
      <trkpt lat="44.23641" lon="4.48673">
        <ele>176</ele>
        <time>2021-07-04T14:00:53Z</time>
      </trkpt>
      <trkpt lat="44.2355" lon="4.48525">
        <ele>175</ele>
        <time>2021-07-04T14:01:26Z</time>
      </trkpt>
      <trkpt lat="44.23502" lon="4.48477">
        <ele>171</ele>
        <time>2021-07-04T14:01:40Z</time>
      </trkpt>
      <trkpt lat="44.23372" lon="4.4864">
        <ele>167</ele>
        <time>2021-07-04T14:02:20Z</time>
      </trkpt>
      <trkpt lat="44.2339" lon="4.48558">
        <ele>163</ele>
        <time>2021-07-04T14:02:35Z</time>
      </trkpt>
      <trkpt lat="44.23252" lon="4.48506">
        <ele>148</ele>
        <time>2021-07-04T14:03:08Z</time>
      </trkpt>
      <trkpt lat="44.23169" lon="4.48433">
        <ele>150</ele>
        <time>2021-07-04T14:03:31Z</time>
      </trkpt>
      <trkpt lat="44.23072" lon="4.48588">
        <ele>146</ele>
        <time>2021-07-04T14:04:05Z</time>
      </trkpt>
      <trkpt lat="44.23031" lon="4.48621">
        <ele>146</ele>
        <time>2021-07-04T14:04:17Z</time>
      </trkpt>
      <trkpt lat="44.2291" lon="4.48661">
        <ele>140</ele>
        <time>2021-07-04T14:04:46Z</time>
      </trkpt>
      <trkpt lat="44.22915" lon="4.48807">
        <ele>141</ele>
        <time>2021-07-04T14:05:10Z</time>
      </trkpt>
      <trkpt lat="44.22878" lon="4.4891">
        <ele>138</ele>
        <time>2021-07-04T14:05:29Z</time>
      </trkpt>
      <trkpt lat="44.22794" lon="4.48981">
        <ele>139</ele>
        <time>2021-07-04T14:05:52Z</time>
      </trkpt>
      <trkpt lat="44.22717" lon="4.48985">
        <ele>140</ele>
        <time>2021-07-04T14:06:10Z</time>
      </trkpt>
      <trkpt lat="44.22667" lon="4.49031">
        <ele>145</ele>
        <time>2021-07-04T14:06:24Z</time>
      </trkpt>
      <trkpt lat="44.22641" lon="4.49023">
        <ele>147</ele>
        <time>2021-07-04T14:06:30Z</time>
      </trkpt>
      <trkpt lat="44.22639" lon="4.48961">
        <ele>142</ele>
        <time>2021-07-04T14:06:41Z</time>
      </trkpt>
      <trkpt lat="44.22625" lon="4.48929">
        <ele>143</ele>
        <time>2021-07-04T14:06:47Z</time>
      </trkpt>
      <trkpt lat="44.22525" lon="4.48844">
        <ele>159</ele>
        <time>2021-07-04T14:07:14Z</time>
      </trkpt>
      <trkpt lat="44.22554" lon="4.48697">
        <ele>155</ele>
        <time>2021-07-04T14:07:40Z</time>
      </trkpt>
      <trkpt lat="44.22558" lon="4.48616">
        <ele>149</ele>
        <time>2021-07-04T14:07:54Z</time>
      </trkpt>
      <trkpt lat="44.22528" lon="4.48494">
        <ele>139</ele>
        <time>2021-07-04T14:08:15Z</time>
      </trkpt>
      <trkpt lat="44.22463" lon="4.48485">
        <ele>136</ele>
        <time>2021-07-04T14:08:30Z</time>
      </trkpt>
      <trkpt lat="44.22391" lon="4.48614">
        <ele>141</ele>
        <time>2021-07-04T14:08:58Z</time>
      </trkpt>
      <trkpt lat="44.22321" lon="4.48767">
        <ele>136</ele>
        <time>2021-07-04T14:09:28Z</time>
      </trkpt>
      <trkpt lat="44.22252" lon="4.48762">
        <ele>129</ele>
        <time>2021-07-04T14:09:44Z</time>
      </trkpt>
      <trkpt lat="44.22211" lon="4.48708">
        <ele>116</ele>
        <time>2021-07-04T14:09:57Z</time>
      </trkpt>
      <trkpt lat="44.22056" lon="4.48734">
        <ele>109</ele>
        <time>2021-07-04T14:10:34Z</time>
      </trkpt>
      <trkpt lat="44.21896" lon="4.4881">
        <ele>98</ele>
        <time>2021-07-04T14:11:13Z</time>
      </trkpt>
      <trkpt lat="44.21865" lon="4.48742">
        <ele>92</ele>
        <time>2021-07-04T14:11:27Z</time>
      </trkpt>
      <trkpt lat="44.21883" lon="4.48611">
        <ele>88</ele>
        <time>2021-07-04T14:11:49Z</time>
      </trkpt>
      <trkpt lat="44.21859" lon="4.4857">
        <ele>87</ele>
        <time>2021-07-04T14:11:58Z</time>
      </trkpt>
      <trkpt lat="44.21826" lon="4.48578">
        <ele>89</ele>
        <time>2021-07-04T14:12:06Z</time>
      </trkpt>
    </trkseg>
  </trk>
  <trk>
    <name><![CDATA[Rouge Cornillon St Laurent]]></name>
    <extensions>
      <line xmlns="http://www.topografix.com/GPX/gpx_style/0/2">
        <color>fa0000</color>
        <width>4</width>
      </line>
    </extensions>
    <trkseg>
      <trkpt lat="44.21832" lon="4.48554">
        <ele>87</ele>
        <time>2021-07-04T13:09:03Z</time>
      </trkpt>
      <trkpt lat="44.21832" lon="4.48554">
        <ele>87</ele>
        <time>2021-07-04T13:09:03Z</time>
      </trkpt>
      <trkpt lat="44.2188" lon="4.48604">
        <ele>88</ele>
        <time>2021-07-04T13:09:17Z</time>
      </trkpt>
      <trkpt lat="44.21862" lon="4.48742">
        <ele>92</ele>
        <time>2021-07-04T13:09:40Z</time>
      </trkpt>
      <trkpt lat="44.21894" lon="4.48818">
        <ele>99</ele>
        <time>2021-07-04T13:09:55Z</time>
      </trkpt>
      <trkpt lat="44.21996" lon="4.48759">
        <ele>106</ele>
        <time>2021-07-04T13:10:21Z</time>
      </trkpt>
      <trkpt lat="44.22192" lon="4.4871">
        <ele>116</ele>
        <time>2021-07-04T13:11:08Z</time>
      </trkpt>
      <trkpt lat="44.22251" lon="4.4876">
        <ele>128</ele>
        <time>2021-07-04T13:11:24Z</time>
      </trkpt>
      <trkpt lat="44.22322" lon="4.48763">
        <ele>135</ele>
        <time>2021-07-04T13:11:40Z</time>
      </trkpt>
      <trkpt lat="44.22389" lon="4.48634">
        <ele>142</ele>
        <time>2021-07-04T13:12:07Z</time>
      </trkpt>
      <trkpt lat="44.22363" lon="4.48792">
        <ele>149</ele>
        <time>2021-07-04T13:12:34Z</time>
      </trkpt>
      <trkpt lat="44.22417" lon="4.48864">
        <ele>162</ele>
        <time>2021-07-04T13:12:51Z</time>
      </trkpt>
      <trkpt lat="44.22438" lon="4.4891">
        <ele>159</ele>
        <time>2021-07-04T13:13:01Z</time>
      </trkpt>
      <trkpt lat="44.22461" lon="4.48904">
        <ele>160</ele>
        <time>2021-07-04T13:13:06Z</time>
      </trkpt>
      <trkpt lat="44.22473" lon="4.48962">
        <ele>160</ele>
        <time>2021-07-04T13:13:16Z</time>
      </trkpt>
      <trkpt lat="44.22462" lon="4.4899">
        <ele>161</ele>
        <time>2021-07-04T13:13:21Z</time>
      </trkpt>
      <trkpt lat="44.22468" lon="4.49036">
        <ele>165</ele>
        <time>2021-07-04T13:13:29Z</time>
      </trkpt>
      <trkpt lat="44.22439" lon="4.49072">
        <ele>173</ele>
        <time>2021-07-04T13:13:38Z</time>
      </trkpt>
      <trkpt lat="44.22448" lon="4.49118">
        <ele>175</ele>
        <time>2021-07-04T13:13:46Z</time>
      </trkpt>
      <trkpt lat="44.22399" lon="4.49235">
        <ele>183</ele>
        <time>2021-07-04T13:14:09Z</time>
      </trkpt>
      <trkpt lat="44.22432" lon="4.4937">
        <ele>186</ele>
        <time>2021-07-04T13:14:33Z</time>
      </trkpt>
      <trkpt lat="44.22433" lon="4.49381">
        <ele>187</ele>
        <time>2021-07-04T13:14:35Z</time>
      </trkpt>
      <trkpt lat="44.22487" lon="4.49416">
        <ele>197</ele>
        <time>2021-07-04T13:14:49Z</time>
      </trkpt>
      <trkpt lat="44.22498" lon="4.49474">
        <ele>203</ele>
        <time>2021-07-04T13:14:59Z</time>
      </trkpt>
      <trkpt lat="44.22589" lon="4.49442">
        <ele>210</ele>
        <time>2021-07-04T13:15:21Z</time>
      </trkpt>
      <trkpt lat="44.22646" lon="4.49432">
        <ele>213</ele>
        <time>2021-07-04T13:15:34Z</time>
      </trkpt>
      <trkpt lat="44.22676" lon="4.49557">
        <ele>233</ele>
        <time>2021-07-04T13:15:56Z</time>
      </trkpt>
      <trkpt lat="44.22691" lon="4.49649">
        <ele>240</ele>
        <time>2021-07-04T13:16:12Z</time>
      </trkpt>
      <trkpt lat="44.22707" lon="4.49755">
        <ele>242</ele>
        <time>2021-07-04T13:16:30Z</time>
      </trkpt>
      <trkpt lat="44.22736" lon="4.49825">
        <ele>246</ele>
        <time>2021-07-04T13:16:44Z</time>
      </trkpt>
      <trkpt lat="44.22795" lon="4.49928">
        <ele>256</ele>
        <time>2021-07-04T13:17:06Z</time>
      </trkpt>
      <trkpt lat="44.22815" lon="4.50001">
        <ele>256</ele>
        <time>2021-07-04T13:17:19Z</time>
      </trkpt>
      <trkpt lat="44.22847" lon="4.50016">
        <ele>261</ele>
        <time>2021-07-04T13:17:27Z</time>
      </trkpt>
      <trkpt lat="44.22911" lon="4.4998">
        <ele>272</ele>
        <time>2021-07-04T13:17:43Z</time>
      </trkpt>
      <trkpt lat="44.22983" lon="4.49961">
        <ele>277</ele>
        <time>2021-07-04T13:18:00Z</time>
      </trkpt>
      <trkpt lat="44.23045" lon="4.49947">
        <ele>279</ele>
        <time>2021-07-04T13:18:14Z</time>
      </trkpt>
      <trkpt lat="44.23112" lon="4.49944">
        <ele>281</ele>
        <time>2021-07-04T13:18:30Z</time>
      </trkpt>
      <trkpt lat="44.23177" lon="4.49964">
        <ele>285</ele>
        <time>2021-07-04T13:18:46Z</time>
      </trkpt>
      <trkpt lat="44.23234" lon="4.49971">
        <ele>290</ele>
        <time>2021-07-04T13:18:59Z</time>
      </trkpt>
      <trkpt lat="44.23288" lon="4.49956">
        <ele>291</ele>
        <time>2021-07-04T13:19:12Z</time>
      </trkpt>
      <trkpt lat="44.23343" lon="4.49971">
        <ele>298</ele>
        <time>2021-07-04T13:19:25Z</time>
      </trkpt>
      <trkpt lat="44.2338" lon="4.49984">
        <ele>300</ele>
        <time>2021-07-04T13:19:34Z</time>
      </trkpt>
      <trkpt lat="44.23413" lon="4.50018">
        <ele>296</ele>
        <time>2021-07-04T13:19:43Z</time>
      </trkpt>
      <trkpt lat="44.23476" lon="4.49982">
        <ele>299</ele>
        <time>2021-07-04T13:19:59Z</time>
      </trkpt>
      <trkpt lat="44.23512" lon="4.49965">
        <ele>301</ele>
        <time>2021-07-04T13:20:08Z</time>
      </trkpt>
      <trkpt lat="44.23528" lon="4.50011">
        <ele>299</ele>
        <time>2021-07-04T13:20:17Z</time>
      </trkpt>
      <trkpt lat="44.23489" lon="4.50016">
        <ele>293</ele>
        <time>2021-07-04T13:20:26Z</time>
      </trkpt>
      <trkpt lat="44.23424" lon="4.50179">
        <ele>260</ele>
        <time>2021-07-04T13:20:57Z</time>
      </trkpt>
      <trkpt lat="44.23375" lon="4.50238">
        <ele>250</ele>
        <time>2021-07-04T13:21:12Z</time>
      </trkpt>
      <trkpt lat="44.23321" lon="4.50292">
        <ele>242</ele>
        <time>2021-07-04T13:21:28Z</time>
      </trkpt>
      <trkpt lat="44.23264" lon="4.50275">
        <ele>253</ele>
        <time>2021-07-04T13:21:41Z</time>
      </trkpt>
      <trkpt lat="44.23158" lon="4.50404">
        <ele>252</ele>
        <time>2021-07-04T13:22:14Z</time>
      </trkpt>
      <trkpt lat="44.23004" lon="4.50711">
        <ele>222</ele>
        <time>2021-07-04T13:23:17Z</time>
      </trkpt>
      <trkpt lat="44.22801" lon="4.51045">
        <ele>171</ele>
        <time>2021-07-04T13:24:30Z</time>
      </trkpt>
      <trkpt lat="44.22709" lon="4.51152">
        <ele>146</ele>
        <time>2021-07-04T13:24:58Z</time>
      </trkpt>
      <trkpt lat="44.22827" lon="4.5118">
        <ele>144</ele>
        <time>2021-07-04T13:25:26Z</time>
      </trkpt>
      <trkpt lat="44.22926" lon="4.51165">
        <ele>142</ele>
        <time>2021-07-04T13:25:49Z</time>
      </trkpt>
      <trkpt lat="44.22983" lon="4.51204">
        <ele>133</ele>
        <time>2021-07-04T13:26:04Z</time>
      </trkpt>
      <trkpt lat="44.22937" lon="4.51305">
        <ele>120</ele>
        <time>2021-07-04T13:26:24Z</time>
      </trkpt>
      <trkpt lat="44.22863" lon="4.51348">
        <ele>114</ele>
        <time>2021-07-04T13:26:43Z</time>
      </trkpt>
      <trkpt lat="44.22757" lon="4.51418">
        <ele>108</ele>
        <time>2021-07-04T13:27:10Z</time>
      </trkpt>
      <trkpt lat="44.22655" lon="4.51414">
        <ele>104</ele>
        <time>2021-07-04T13:27:34Z</time>
      </trkpt>
      <trkpt lat="44.22606" lon="4.51438">
        <ele>104</ele>
        <time>2021-07-04T13:27:46Z</time>
      </trkpt>
      <trkpt lat="44.22541" lon="4.51453">
        <ele>102</ele>
        <time>2021-07-04T13:28:02Z</time>
      </trkpt>
      <trkpt lat="44.22388" lon="4.51588">
        <ele>101</ele>
        <time>2021-07-04T13:28:44Z</time>
      </trkpt>
      <trkpt lat="44.22371" lon="4.51833">
        <ele>133</ele>
        <time>2021-07-04T13:29:25Z</time>
      </trkpt>
      <trkpt lat="44.22451" lon="4.51702">
        <ele>133</ele>
        <time>2021-07-04T13:29:54Z</time>
      </trkpt>
      <trkpt lat="44.22508" lon="4.51624">
        <ele>126</ele>
        <time>2021-07-04T13:30:13Z</time>
      </trkpt>
      <trkpt lat="44.22581" lon="4.51785">
        <ele>141</ele>
        <time>2021-07-04T13:30:45Z</time>
      </trkpt>
      <trkpt lat="44.22591" lon="4.52019">
        <ele>163</ele>
        <time>2021-07-04T13:31:24Z</time>
      </trkpt>
      <trkpt lat="44.22558" lon="4.52159">
        <ele>180</ele>
        <time>2021-07-04T13:31:48Z</time>
      </trkpt>
      <trkpt lat="44.22575" lon="4.52249">
        <ele>178</ele>
        <time>2021-07-04T13:32:04Z</time>
      </trkpt>
      <trkpt lat="44.22492" lon="4.52397">
        <ele>187</ele>
        <time>2021-07-04T13:32:35Z</time>
      </trkpt>
      <trkpt lat="44.22554" lon="4.52614">
        <ele>175</ele>
        <time>2021-07-04T13:33:15Z</time>
      </trkpt>
      <trkpt lat="44.22545" lon="4.52818">
        <ele>176</ele>
        <time>2021-07-04T13:33:49Z</time>
      </trkpt>
      <trkpt lat="44.22495" lon="4.52983">
        <ele>179</ele>
        <time>2021-07-04T13:34:19Z</time>
      </trkpt>
      <trkpt lat="44.22466" lon="4.53049">
        <ele>180</ele>
        <time>2021-07-04T13:34:32Z</time>
      </trkpt>
      <trkpt lat="44.22405" lon="4.53213">
        <ele>172</ele>
        <time>2021-07-04T13:35:03Z</time>
      </trkpt>
      <trkpt lat="44.22356" lon="4.53372">
        <ele>167</ele>
        <time>2021-07-04T13:35:32Z</time>
      </trkpt>
      <trkpt lat="44.22284" lon="4.53411">
        <ele>164</ele>
        <time>2021-07-04T13:35:50Z</time>
      </trkpt>
      <trkpt lat="44.2222" lon="4.53393">
        <ele>166</ele>
        <time>2021-07-04T13:36:05Z</time>
      </trkpt>
      <trkpt lat="44.22069" lon="4.53452">
        <ele>148</ele>
        <time>2021-07-04T13:36:41Z</time>
      </trkpt>
      <trkpt lat="44.22166" lon="4.53511">
        <ele>160</ele>
        <time>2021-07-04T13:37:06Z</time>
      </trkpt>
      <trkpt lat="44.22219" lon="4.53592">
        <ele>175</ele>
        <time>2021-07-04T13:37:25Z</time>
      </trkpt>
      <trkpt lat="44.22232" lon="4.53639">
        <ele>183</ele>
        <time>2021-07-04T13:37:33Z</time>
      </trkpt>
      <trkpt lat="44.22235" lon="4.53738">
        <ele>199</ele>
        <time>2021-07-04T13:37:50Z</time>
      </trkpt>
      <trkpt lat="44.22163" lon="4.53702">
        <ele>201</ele>
        <time>2021-07-04T13:38:07Z</time>
      </trkpt>
      <trkpt lat="44.22183" lon="4.53802">
        <ele>210</ele>
        <time>2021-07-04T13:38:25Z</time>
      </trkpt>
      <trkpt lat="44.22216" lon="4.5385">
        <ele>212</ele>
        <time>2021-07-04T13:38:36Z</time>
      </trkpt>
      <trkpt lat="44.22228" lon="4.53931">
        <ele>214</ele>
        <time>2021-07-04T13:38:50Z</time>
      </trkpt>
      <trkpt lat="44.22229" lon="4.53978">
        <ele>214</ele>
        <time>2021-07-04T13:38:58Z</time>
      </trkpt>
      <trkpt lat="44.22196" lon="4.54077">
        <ele>206</ele>
        <time>2021-07-04T13:39:16Z</time>
      </trkpt>
      <trkpt lat="44.22332" lon="4.54169">
        <ele>210</ele>
        <time>2021-07-04T13:39:51Z</time>
      </trkpt>
      <trkpt lat="44.22291" lon="4.54343">
        <ele>171</ele>
        <time>2021-07-04T13:40:22Z</time>
      </trkpt>
      <trkpt lat="44.22314" lon="4.5442">
        <ele>169</ele>
        <time>2021-07-04T13:40:36Z</time>
      </trkpt>
      <trkpt lat="44.22248" lon="4.54423">
        <ele>166</ele>
        <time>2021-07-04T13:40:51Z</time>
      </trkpt>
      <trkpt lat="44.22194" lon="4.54418">
        <ele>169</ele>
        <time>2021-07-04T13:41:04Z</time>
      </trkpt>
      <trkpt lat="44.2214" lon="4.54384">
        <ele>167</ele>
        <time>2021-07-04T13:41:18Z</time>
      </trkpt>
      <trkpt lat="44.22023" lon="4.54362">
        <ele>165</ele>
        <time>2021-07-04T13:41:45Z</time>
      </trkpt>
      <trkpt lat="44.21949" lon="4.54401">
        <ele>180</ele>
        <time>2021-07-04T13:42:04Z</time>
      </trkpt>
      <trkpt lat="44.21842" lon="4.54337">
        <ele>191</ele>
        <time>2021-07-04T13:42:31Z</time>
      </trkpt>
      <trkpt lat="44.21811" lon="4.54283">
        <ele>195</ele>
        <time>2021-07-04T13:42:42Z</time>
      </trkpt>
      <trkpt lat="44.21762" lon="4.54152">
        <ele>192</ele>
        <time>2021-07-04T13:43:07Z</time>
      </trkpt>
      <trkpt lat="44.21766" lon="4.54006">
        <ele>173</ele>
        <time>2021-07-04T13:43:32Z</time>
      </trkpt>
      <trkpt lat="44.21742" lon="4.53957">
        <ele>171</ele>
        <time>2021-07-04T13:43:42Z</time>
      </trkpt>
      <trkpt lat="44.21634" lon="4.53822">
        <ele>159</ele>
        <time>2021-07-04T13:44:15Z</time>
      </trkpt>
      <trkpt lat="44.2159" lon="4.53736">
        <ele>145</ele>
        <time>2021-07-04T13:44:33Z</time>
      </trkpt>
      <trkpt lat="44.2155" lon="4.53663">
        <ele>134</ele>
        <time>2021-07-04T13:44:49Z</time>
      </trkpt>
      <trkpt lat="44.21527" lon="4.53624">
        <ele>131</ele>
        <time>2021-07-04T13:44:57Z</time>
      </trkpt>
      <trkpt lat="44.2153" lon="4.53584">
        <ele>130</ele>
        <time>2021-07-04T13:45:04Z</time>
      </trkpt>
      <trkpt lat="44.21523" lon="4.53536">
        <ele>127</ele>
        <time>2021-07-04T13:45:12Z</time>
      </trkpt>
      <trkpt lat="44.21519" lon="4.53489">
        <ele>125</ele>
        <time>2021-07-04T13:45:20Z</time>
      </trkpt>
      <trkpt lat="44.21442" lon="4.53433">
        <ele>119</ele>
        <time>2021-07-04T13:45:40Z</time>
      </trkpt>
      <trkpt lat="44.21427" lon="4.53367">
        <ele>113</ele>
        <time>2021-07-04T13:45:52Z</time>
      </trkpt>
      <trkpt lat="44.21382" lon="4.53272">
        <ele>107</ele>
        <time>2021-07-04T13:46:11Z</time>
      </trkpt>
      <trkpt lat="44.21317" lon="4.53169">
        <ele>106</ele>
        <time>2021-07-04T13:46:34Z</time>
      </trkpt>
      <trkpt lat="44.21273" lon="4.53124">
        <ele>105</ele>
        <time>2021-07-04T13:46:46Z</time>
      </trkpt>
      <trkpt lat="44.2122" lon="4.53157">
        <ele>104</ele>
        <time>2021-07-04T13:47:00Z</time>
      </trkpt>
      <trkpt lat="44.21128" lon="4.53129">
        <ele>97</ele>
        <time>2021-07-04T13:47:22Z</time>
      </trkpt>
      <trkpt lat="44.21214" lon="4.52907">
        <ele>91</ele>
        <time>2021-07-04T13:48:04Z</time>
      </trkpt>
      <trkpt lat="44.21288" lon="4.52918">
        <ele>91</ele>
        <time>2021-07-04T13:48:22Z</time>
      </trkpt>
      <trkpt lat="44.21324" lon="4.5286">
        <ele>90</ele>
        <time>2021-07-04T13:48:34Z</time>
      </trkpt>
      <trkpt lat="44.2136" lon="4.52732">
        <ele>90</ele>
        <time>2021-07-04T13:48:58Z</time>
      </trkpt>
      <trkpt lat="44.21428" lon="4.52736">
        <ele>91</ele>
        <time>2021-07-04T13:49:13Z</time>
      </trkpt>
      <trkpt lat="44.21527" lon="4.52658">
        <ele>92</ele>
        <time>2021-07-04T13:49:40Z</time>
      </trkpt>
      <trkpt lat="44.21565" lon="4.52622">
        <ele>93</ele>
        <time>2021-07-04T13:49:51Z</time>
      </trkpt>
      <trkpt lat="44.21576" lon="4.52622">
        <ele>93</ele>
        <time>2021-07-04T13:49:53Z</time>
      </trkpt>
      <trkpt lat="44.21531" lon="4.52558">
        <ele>91</ele>
        <time>2021-07-04T13:50:08Z</time>
      </trkpt>
      <trkpt lat="44.21514" lon="4.52491">
        <ele>90</ele>
        <time>2021-07-04T13:50:20Z</time>
      </trkpt>
      <trkpt lat="44.21548" lon="4.52315">
        <ele>87</ele>
        <time>2021-07-04T13:50:51Z</time>
      </trkpt>
      <trkpt lat="44.21596" lon="4.5221">
        <ele>86</ele>
        <time>2021-07-04T13:51:12Z</time>
      </trkpt>
      <trkpt lat="44.21683" lon="4.51978">
        <ele>87</ele>
        <time>2021-07-04T13:51:55Z</time>
      </trkpt>
      <trkpt lat="44.21699" lon="4.51884">
        <ele>87</ele>
        <time>2021-07-04T13:52:12Z</time>
      </trkpt>
      <trkpt lat="44.21667" lon="4.51856">
        <ele>85</ele>
        <time>2021-07-04T13:52:20Z</time>
      </trkpt>
      <trkpt lat="44.21639" lon="4.518">
        <ele>81</ele>
        <time>2021-07-04T13:52:32Z</time>
      </trkpt>
      <trkpt lat="44.21522" lon="4.51852">
        <ele>78</ele>
        <time>2021-07-04T13:53:00Z</time>
      </trkpt>
      <trkpt lat="44.21533" lon="4.51697">
        <ele>73</ele>
        <time>2021-07-04T13:53:27Z</time>
      </trkpt>
      <trkpt lat="44.21577" lon="4.51631">
        <ele>72</ele>
        <time>2021-07-04T13:53:42Z</time>
      </trkpt>
      <trkpt lat="44.21568" lon="4.51493">
        <ele>82</ele>
        <time>2021-07-04T13:54:05Z</time>
      </trkpt>
      <trkpt lat="44.21523" lon="4.51474">
        <ele>82</ele>
        <time>2021-07-04T13:54:16Z</time>
      </trkpt>
      <trkpt lat="44.21519" lon="4.51382">
        <ele>90</ele>
        <time>2021-07-04T13:54:31Z</time>
      </trkpt>
      <trkpt lat="44.21636" lon="4.51275">
        <ele>110</ele>
        <time>2021-07-04T13:55:04Z</time>
      </trkpt>
      <trkpt lat="44.21765" lon="4.5118">
        <ele>112</ele>
        <time>2021-07-04T13:55:38Z</time>
      </trkpt>
      <trkpt lat="44.21788" lon="4.51064">
        <ele>113</ele>
        <time>2021-07-04T13:55:58Z</time>
      </trkpt>
      <trkpt lat="44.21722" lon="4.5103">
        <ele>112</ele>
        <time>2021-07-04T13:56:14Z</time>
      </trkpt>
      <trkpt lat="44.21525" lon="4.50918">
        <ele>118</ele>
        <time>2021-07-04T13:57:04Z</time>
      </trkpt>
      <trkpt lat="44.21494" lon="4.50927">
        <ele>116</ele>
        <time>2021-07-04T13:57:12Z</time>
      </trkpt>
      <trkpt lat="44.21485" lon="4.5088">
        <ele>116</ele>
        <time>2021-07-04T13:57:20Z</time>
      </trkpt>
      <trkpt lat="44.21477" lon="4.50796">
        <ele>118</ele>
        <time>2021-07-04T13:57:34Z</time>
      </trkpt>
      <trkpt lat="44.21494" lon="4.50762">
        <ele>120</ele>
        <time>2021-07-04T13:57:41Z</time>
      </trkpt>
      <trkpt lat="44.21393" lon="4.50674">
        <ele>116</ele>
        <time>2021-07-04T13:58:09Z</time>
      </trkpt>
      <trkpt lat="44.21293" lon="4.50601">
        <ele>113</ele>
        <time>2021-07-04T13:58:35Z</time>
      </trkpt>
      <trkpt lat="44.21219" lon="4.50464">
        <ele>117</ele>
        <time>2021-07-04T13:59:04Z</time>
      </trkpt>
      <trkpt lat="44.21244" lon="4.50283">
        <ele>116</ele>
        <time>2021-07-04T13:59:35Z</time>
      </trkpt>
      <trkpt lat="44.21248" lon="4.5021">
        <ele>113</ele>
        <time>2021-07-04T13:59:47Z</time>
      </trkpt>
      <trkpt lat="44.21296" lon="4.50137">
        <ele>116</ele>
        <time>2021-07-04T14:00:03Z</time>
      </trkpt>
      <trkpt lat="44.2132" lon="4.50069">
        <ele>118</ele>
        <time>2021-07-04T14:00:16Z</time>
      </trkpt>
      <trkpt lat="44.21311" lon="4.50024">
        <ele>114</ele>
        <time>2021-07-04T14:00:24Z</time>
      </trkpt>
      <trkpt lat="44.21359" lon="4.49858">
        <ele>119</ele>
        <time>2021-07-04T14:00:54Z</time>
      </trkpt>
      <trkpt lat="44.21371" lon="4.4974">
        <ele>116</ele>
        <time>2021-07-04T14:01:14Z</time>
      </trkpt>
      <trkpt lat="44.21456" lon="4.49616">
        <ele>129</ele>
        <time>2021-07-04T14:01:43Z</time>
      </trkpt>
      <trkpt lat="44.21468" lon="4.49519">
        <ele>121</ele>
        <time>2021-07-04T14:01:59Z</time>
      </trkpt>
      <trkpt lat="44.2154" lon="4.49515">
        <ele>125</ele>
        <time>2021-07-04T14:02:16Z</time>
      </trkpt>
      <trkpt lat="44.21585" lon="4.49388">
        <ele>125</ele>
        <time>2021-07-04T14:02:40Z</time>
      </trkpt>
      <trkpt lat="44.21637" lon="4.49335">
        <ele>136</ele>
        <time>2021-07-04T14:02:55Z</time>
      </trkpt>
      <trkpt lat="44.21679" lon="4.49319">
        <ele>143</ele>
        <time>2021-07-04T14:03:05Z</time>
      </trkpt>
      <trkpt lat="44.21796" lon="4.49202">
        <ele>145</ele>
        <time>2021-07-04T14:03:38Z</time>
      </trkpt>
      <trkpt lat="44.21743" lon="4.4911">
        <ele>132</ele>
        <time>2021-07-04T14:03:58Z</time>
      </trkpt>
      <trkpt lat="44.21748" lon="4.49072">
        <ele>130</ele>
        <time>2021-07-04T14:04:05Z</time>
      </trkpt>
      <trkpt lat="44.21838" lon="4.48955">
        <ele>114</ele>
        <time>2021-07-04T14:04:33Z</time>
      </trkpt>
      <trkpt lat="44.21873" lon="4.4892">
        <ele>107</ele>
        <time>2021-07-04T14:04:43Z</time>
      </trkpt>
      <trkpt lat="44.21892" lon="4.48886">
        <ele>106</ele>
        <time>2021-07-04T14:04:51Z</time>
      </trkpt>
      <trkpt lat="44.21884" lon="4.48842">
        <ele>100</ele>
        <time>2021-07-04T14:04:58Z</time>
      </trkpt>
      <trkpt lat="44.21848" lon="4.48749">
        <ele>92</ele>
        <time>2021-07-04T14:05:16Z</time>
      </trkpt>
      <trkpt lat="44.21863" lon="4.48724">
        <ele>92</ele>
        <time>2021-07-04T14:05:21Z</time>
      </trkpt>
      <trkpt lat="44.21872" lon="4.48659">
        <ele>90</ele>
        <time>2021-07-04T14:05:32Z</time>
      </trkpt>
      <trkpt lat="44.21836" lon="4.4863">
        <ele>91</ele>
        <time>2021-07-04T14:05:42Z</time>
      </trkpt>
      <trkpt lat="44.21812" lon="4.48584">
        <ele>89</ele>
        <time>2021-07-04T14:05:52Z</time>
      </trkpt>
      <trkpt lat="44.21825" lon="4.4857">
        <ele>88</ele>
        <time>2021-07-04T14:05:55Z</time>
      </trkpt>
    </trkseg>
  </trk>
  <trk>
    <name><![CDATA[Noir Cornillon Valbonne]]></name>
    <extensions>
      <line xmlns="http://www.topografix.com/GPX/gpx_style/0/2">
        <color>000000</color>
        <width>4</width>
      </line>
    </extensions>
    <trkseg>
      <trkpt lat="44.2182" lon="4.48571">
        <ele>88</ele>
        <time>2021-07-04T13:09:42Z</time>
      </trkpt>
      <trkpt lat="44.2182" lon="4.48571">
        <ele>88</ele>
        <time>2021-07-04T13:09:42Z</time>
      </trkpt>
      <trkpt lat="44.21854" lon="4.48556">
        <ele>86</ele>
        <time>2021-07-04T13:09:50Z</time>
      </trkpt>
      <trkpt lat="44.21878" lon="4.48596">
        <ele>87</ele>
        <time>2021-07-04T13:09:59Z</time>
      </trkpt>
      <trkpt lat="44.21859" lon="4.48736">
        <ele>92</ele>
        <time>2021-07-04T13:10:23Z</time>
      </trkpt>
      <trkpt lat="44.21879" lon="4.48807">
        <ele>97</ele>
        <time>2021-07-04T13:10:36Z</time>
      </trkpt>
      <trkpt lat="44.21907" lon="4.48814">
        <ele>99</ele>
        <time>2021-07-04T13:10:42Z</time>
      </trkpt>
      <trkpt lat="44.21916" lon="4.4881">
        <ele>100</ele>
        <time>2021-07-04T13:10:45Z</time>
      </trkpt>
      <trkpt lat="44.21972" lon="4.48769">
        <ele>104</ele>
        <time>2021-07-04T13:10:59Z</time>
      </trkpt>
      <trkpt lat="44.22029" lon="4.4874">
        <ele>107</ele>
        <time>2021-07-04T13:11:13Z</time>
      </trkpt>
      <trkpt lat="44.22059" lon="4.4873">
        <ele>109</ele>
        <time>2021-07-04T13:11:21Z</time>
      </trkpt>
      <trkpt lat="44.22173" lon="4.48705">
        <ele>114</ele>
        <time>2021-07-04T13:11:48Z</time>
      </trkpt>
      <trkpt lat="44.22195" lon="4.48706">
        <ele>115</ele>
        <time>2021-07-04T13:11:53Z</time>
      </trkpt>
      <trkpt lat="44.22208" lon="4.48709">
        <ele>116</ele>
        <time>2021-07-04T13:11:56Z</time>
      </trkpt>
      <trkpt lat="44.22223" lon="4.48717">
        <ele>119</ele>
        <time>2021-07-04T13:12:00Z</time>
      </trkpt>
      <trkpt lat="44.2225" lon="4.4876">
        <ele>128</ele>
        <time>2021-07-04T13:12:09Z</time>
      </trkpt>
      <trkpt lat="44.22266" lon="4.48767">
        <ele>131</ele>
        <time>2021-07-04T13:12:13Z</time>
      </trkpt>
      <trkpt lat="44.22288" lon="4.48772">
        <ele>133</ele>
        <time>2021-07-04T13:12:18Z</time>
      </trkpt>
      <trkpt lat="44.22308" lon="4.48768">
        <ele>135</ele>
        <time>2021-07-04T13:12:23Z</time>
      </trkpt>
      <trkpt lat="44.22324" lon="4.48757">
        <ele>135</ele>
        <time>2021-07-04T13:12:27Z</time>
      </trkpt>
      <trkpt lat="44.22331" lon="4.48747">
        <ele>134</ele>
        <time>2021-07-04T13:12:29Z</time>
      </trkpt>
      <trkpt lat="44.22345" lon="4.48714">
        <ele>135</ele>
        <time>2021-07-04T13:12:36Z</time>
      </trkpt>
      <trkpt lat="44.22382" lon="4.48641">
        <ele>140</ele>
        <time>2021-07-04T13:12:51Z</time>
      </trkpt>
      <trkpt lat="44.22395" lon="4.48609">
        <ele>142</ele>
        <time>2021-07-04T13:12:57Z</time>
      </trkpt>
      <trkpt lat="44.22387" lon="4.48691">
        <ele>148</ele>
        <time>2021-07-04T13:13:11Z</time>
      </trkpt>
      <trkpt lat="44.22364" lon="4.48778">
        <ele>148</ele>
        <time>2021-07-04T13:13:26Z</time>
      </trkpt>
      <trkpt lat="44.2236" lon="4.48802">
        <ele>148</ele>
        <time>2021-07-04T13:13:31Z</time>
      </trkpt>
      <trkpt lat="44.22409" lon="4.48851">
        <ele>162</ele>
        <time>2021-07-04T13:13:45Z</time>
      </trkpt>
      <trkpt lat="44.22414" lon="4.48858">
        <ele>162</ele>
        <time>2021-07-04T13:13:46Z</time>
      </trkpt>
      <trkpt lat="44.22423" lon="4.48881">
        <ele>161</ele>
        <time>2021-07-04T13:13:51Z</time>
      </trkpt>
      <trkpt lat="44.22429" lon="4.48889">
        <ele>160</ele>
        <time>2021-07-04T13:13:53Z</time>
      </trkpt>
      <trkpt lat="44.22435" lon="4.48905">
        <ele>159</ele>
        <time>2021-07-04T13:13:56Z</time>
      </trkpt>
      <trkpt lat="44.22439" lon="4.48909">
        <ele>159</ele>
        <time>2021-07-04T13:13:57Z</time>
      </trkpt>
      <trkpt lat="44.22462" lon="4.48898">
        <ele>160</ele>
        <time>2021-07-04T13:14:02Z</time>
      </trkpt>
      <trkpt lat="44.22474" lon="4.4896">
        <ele>160</ele>
        <time>2021-07-04T13:14:13Z</time>
      </trkpt>
      <trkpt lat="44.22467" lon="4.49041">
        <ele>166</ele>
        <time>2021-07-04T13:14:27Z</time>
      </trkpt>
      <trkpt lat="44.22438" lon="4.49065">
        <ele>172</ele>
        <time>2021-07-04T13:14:35Z</time>
      </trkpt>
      <trkpt lat="44.22442" lon="4.49066">
        <ele>172</ele>
        <time>2021-07-04T13:14:36Z</time>
      </trkpt>
      <trkpt lat="44.22441" lon="4.49081">
        <ele>174</ele>
        <time>2021-07-04T13:14:38Z</time>
      </trkpt>
      <trkpt lat="44.22447" lon="4.49107">
        <ele>175</ele>
        <time>2021-07-04T13:14:43Z</time>
      </trkpt>
      <trkpt lat="44.22447" lon="4.49122">
        <ele>176</ele>
        <time>2021-07-04T13:14:45Z</time>
      </trkpt>
      <trkpt lat="44.22438" lon="4.49147">
        <ele>178</ele>
        <time>2021-07-04T13:14:50Z</time>
      </trkpt>
      <trkpt lat="44.22404" lon="4.49217">
        <ele>183</ele>
        <time>2021-07-04T13:15:04Z</time>
      </trkpt>
      <trkpt lat="44.224" lon="4.49233">
        <ele>183</ele>
        <time>2021-07-04T13:15:07Z</time>
      </trkpt>
      <trkpt lat="44.224" lon="4.49243">
        <ele>182</ele>
        <time>2021-07-04T13:15:09Z</time>
      </trkpt>
      <trkpt lat="44.22417" lon="4.49335">
        <ele>182</ele>
        <time>2021-07-04T13:15:24Z</time>
      </trkpt>
      <trkpt lat="44.2243" lon="4.49361">
        <ele>185</ele>
        <time>2021-07-04T13:15:30Z</time>
      </trkpt>
      <trkpt lat="44.22435" lon="4.49378">
        <ele>187</ele>
        <time>2021-07-04T13:15:33Z</time>
      </trkpt>
      <trkpt lat="44.22479" lon="4.49403">
        <ele>194</ele>
        <time>2021-07-04T13:15:44Z</time>
      </trkpt>
      <trkpt lat="44.22486" lon="4.4941">
        <ele>196</ele>
        <time>2021-07-04T13:15:46Z</time>
      </trkpt>
      <trkpt lat="44.22493" lon="4.49429">
        <ele>199</ele>
        <time>2021-07-04T13:15:50Z</time>
      </trkpt>
      <trkpt lat="44.22494" lon="4.49465">
        <ele>201</ele>
        <time>2021-07-04T13:15:56Z</time>
      </trkpt>
      <trkpt lat="44.22498" lon="4.49478">
        <ele>203</ele>
        <time>2021-07-04T13:15:58Z</time>
      </trkpt>
      <trkpt lat="44.22503" lon="4.49482">
        <ele>204</ele>
        <time>2021-07-04T13:15:59Z</time>
      </trkpt>
      <trkpt lat="44.22521" lon="4.49463">
        <ele>205</ele>
        <time>2021-07-04T13:16:05Z</time>
      </trkpt>
      <trkpt lat="44.22566" lon="4.49452">
        <ele>209</ele>
        <time>2021-07-04T13:16:15Z</time>
      </trkpt>
      <trkpt lat="44.2261" lon="4.49432">
        <ele>210</ele>
        <time>2021-07-04T13:16:26Z</time>
      </trkpt>
      <trkpt lat="44.22635" lon="4.4943">
        <ele>212</ele>
        <time>2021-07-04T13:16:32Z</time>
      </trkpt>
      <trkpt lat="44.22645" lon="4.49435">
        <ele>214</ele>
        <time>2021-07-04T13:16:34Z</time>
      </trkpt>
      <trkpt lat="44.22645" lon="4.49439">
        <ele>214</ele>
        <time>2021-07-04T13:16:35Z</time>
      </trkpt>
      <trkpt lat="44.22645" lon="4.49435">
        <ele>214</ele>
        <time>2021-07-04T13:16:36Z</time>
      </trkpt>
      <trkpt lat="44.22642" lon="4.49433">
        <ele>213</ele>
        <time>2021-07-04T13:16:36Z</time>
      </trkpt>
      <trkpt lat="44.22645" lon="4.49435">
        <ele>214</ele>
        <time>2021-07-04T13:16:37Z</time>
      </trkpt>
      <trkpt lat="44.22649" lon="4.49458">
        <ele>218</ele>
        <time>2021-07-04T13:16:41Z</time>
      </trkpt>
      <trkpt lat="44.22649" lon="4.49475">
        <ele>221</ele>
        <time>2021-07-04T13:16:44Z</time>
      </trkpt>
      <trkpt lat="44.22659" lon="4.49519">
        <ele>227</ele>
        <time>2021-07-04T13:16:52Z</time>
      </trkpt>
      <trkpt lat="44.22673" lon="4.4956">
        <ele>232</ele>
        <time>2021-07-04T13:16:59Z</time>
      </trkpt>
      <trkpt lat="44.22695" lon="4.49666">
        <ele>241</ele>
        <time>2021-07-04T13:17:18Z</time>
      </trkpt>
      <trkpt lat="44.22696" lon="4.49713">
        <ele>241</ele>
        <time>2021-07-04T13:17:26Z</time>
      </trkpt>
      <trkpt lat="44.22708" lon="4.49771">
        <ele>242</ele>
        <time>2021-07-04T13:17:36Z</time>
      </trkpt>
      <trkpt lat="44.22772" lon="4.49884">
        <ele>252</ele>
        <time>2021-07-04T13:18:00Z</time>
      </trkpt>
      <trkpt lat="44.22798" lon="4.49935">
        <ele>256</ele>
        <time>2021-07-04T13:18:10Z</time>
      </trkpt>
      <trkpt lat="44.22814" lon="4.49994">
        <ele>256</ele>
        <time>2021-07-04T13:18:21Z</time>
      </trkpt>
      <trkpt lat="44.22842" lon="4.50014">
        <ele>261</ele>
        <time>2021-07-04T13:18:28Z</time>
      </trkpt>
      <trkpt lat="44.22842" lon="4.50011">
        <ele>261</ele>
        <time>2021-07-04T13:18:29Z</time>
      </trkpt>
      <trkpt lat="44.22864" lon="4.50009">
        <ele>264</ele>
        <time>2021-07-04T13:18:34Z</time>
      </trkpt>
      <trkpt lat="44.2293" lon="4.4998">
        <ele>274</ele>
        <time>2021-07-04T13:18:50Z</time>
      </trkpt>
      <trkpt lat="44.22975" lon="4.49957">
        <ele>277</ele>
        <time>2021-07-04T13:19:01Z</time>
      </trkpt>
      <trkpt lat="44.23024" lon="4.49945">
        <ele>279</ele>
        <time>2021-07-04T13:19:13Z</time>
      </trkpt>
      <trkpt lat="44.23097" lon="4.49939">
        <ele>280</ele>
        <time>2021-07-04T13:19:30Z</time>
      </trkpt>
      <trkpt lat="44.23225" lon="4.49969">
        <ele>289</ele>
        <time>2021-07-04T13:20:00Z</time>
      </trkpt>
      <trkpt lat="44.23308" lon="4.4996">
        <ele>294</ele>
        <time>2021-07-04T13:20:20Z</time>
      </trkpt>
      <trkpt lat="44.23332" lon="4.49964">
        <ele>297</ele>
        <time>2021-07-04T13:20:25Z</time>
      </trkpt>
      <trkpt lat="44.23357" lon="4.49975">
        <ele>299</ele>
        <time>2021-07-04T13:20:32Z</time>
      </trkpt>
      <trkpt lat="44.23399" lon="4.50012">
        <ele>298</ele>
        <time>2021-07-04T13:20:43Z</time>
      </trkpt>
      <trkpt lat="44.23401" lon="4.5001">
        <ele>298</ele>
        <time>2021-07-04T13:20:44Z</time>
      </trkpt>
      <trkpt lat="44.23404" lon="4.50015">
        <ele>297</ele>
        <time>2021-07-04T13:20:45Z</time>
      </trkpt>
      <trkpt lat="44.23419" lon="4.50017">
        <ele>296</ele>
        <time>2021-07-04T13:20:48Z</time>
      </trkpt>
      <trkpt lat="44.23506" lon="4.49971">
        <ele>300</ele>
        <time>2021-07-04T13:21:10Z</time>
      </trkpt>
      <trkpt lat="44.23523" lon="4.49978">
        <ele>302</ele>
        <time>2021-07-04T13:21:14Z</time>
      </trkpt>
      <trkpt lat="44.23541" lon="4.49993">
        <ele>303</ele>
        <time>2021-07-04T13:21:19Z</time>
      </trkpt>
      <trkpt lat="44.23555" lon="4.50014">
        <ele>303</ele>
        <time>2021-07-04T13:21:24Z</time>
      </trkpt>
      <trkpt lat="44.23567" lon="4.50024">
        <ele>304</ele>
        <time>2021-07-04T13:21:27Z</time>
      </trkpt>
      <trkpt lat="44.23595" lon="4.50075">
        <ele>304</ele>
        <time>2021-07-04T13:21:38Z</time>
      </trkpt>
      <trkpt lat="44.23625" lon="4.50096">
        <ele>309</ele>
        <time>2021-07-04T13:21:46Z</time>
      </trkpt>
      <trkpt lat="44.2364" lon="4.5011">
        <ele>311</ele>
        <time>2021-07-04T13:21:50Z</time>
      </trkpt>
      <trkpt lat="44.23691" lon="4.50173">
        <ele>316</ele>
        <time>2021-07-04T13:22:06Z</time>
      </trkpt>
      <trkpt lat="44.23718" lon="4.50213">
        <ele>320</ele>
        <time>2021-07-04T13:22:15Z</time>
      </trkpt>
      <trkpt lat="44.23775" lon="4.50284">
        <ele>328</ele>
        <time>2021-07-04T13:22:33Z</time>
      </trkpt>
      <trkpt lat="44.23796" lon="4.50315">
        <ele>329</ele>
        <time>2021-07-04T13:22:40Z</time>
      </trkpt>
      <trkpt lat="44.23827" lon="4.50339">
        <ele>331</ele>
        <time>2021-07-04T13:22:48Z</time>
      </trkpt>
      <trkpt lat="44.23837" lon="4.50344">
        <ele>331</ele>
        <time>2021-07-04T13:22:51Z</time>
      </trkpt>
      <trkpt lat="44.23865" lon="4.50348">
        <ele>332</ele>
        <time>2021-07-04T13:22:57Z</time>
      </trkpt>
      <trkpt lat="44.23891" lon="4.50345">
        <ele>332</ele>
        <time>2021-07-04T13:23:03Z</time>
      </trkpt>
      <trkpt lat="44.23932" lon="4.50361">
        <ele>333</ele>
        <time>2021-07-04T13:23:13Z</time>
      </trkpt>
      <trkpt lat="44.23981" lon="4.50371">
        <ele>333</ele>
        <time>2021-07-04T13:23:25Z</time>
      </trkpt>
      <trkpt lat="44.24025" lon="4.50369">
        <ele>332</ele>
        <time>2021-07-04T13:23:35Z</time>
      </trkpt>
      <trkpt lat="44.2417" lon="4.50431">
        <ele>326</ele>
        <time>2021-07-04T13:24:11Z</time>
      </trkpt>
      <trkpt lat="44.24171" lon="4.50428">
        <ele>326</ele>
        <time>2021-07-04T13:24:11Z</time>
      </trkpt>
      <trkpt lat="44.24208" lon="4.50443">
        <ele>325</ele>
        <time>2021-07-04T13:24:20Z</time>
      </trkpt>
      <trkpt lat="44.24295" lon="4.50437">
        <ele>323</ele>
        <time>2021-07-04T13:24:41Z</time>
      </trkpt>
      <trkpt lat="44.2438" lon="4.50451">
        <ele>324</ele>
        <time>2021-07-04T13:25:01Z</time>
      </trkpt>
      <trkpt lat="44.24409" lon="4.50462">
        <ele>324</ele>
        <time>2021-07-04T13:25:08Z</time>
      </trkpt>
      <trkpt lat="44.24442" lon="4.50468">
        <ele>326</ele>
        <time>2021-07-04T13:25:15Z</time>
      </trkpt>
      <trkpt lat="44.24558" lon="4.50511">
        <ele>333</ele>
        <time>2021-07-04T13:25:43Z</time>
      </trkpt>
      <trkpt lat="44.24559" lon="4.50516">
        <ele>332</ele>
        <time>2021-07-04T13:25:44Z</time>
      </trkpt>
      <trkpt lat="44.24558" lon="4.50511">
        <ele>333</ele>
        <time>2021-07-04T13:25:45Z</time>
      </trkpt>
      <trkpt lat="44.24596" lon="4.50516">
        <ele>335</ele>
        <time>2021-07-04T13:25:54Z</time>
      </trkpt>
      <trkpt lat="44.24634" lon="4.50511">
        <ele>337</ele>
        <time>2021-07-04T13:26:03Z</time>
      </trkpt>
      <trkpt lat="44.247" lon="4.50513">
        <ele>340</ele>
        <time>2021-07-04T13:26:18Z</time>
      </trkpt>
      <trkpt lat="44.24789" lon="4.50536">
        <ele>337</ele>
        <time>2021-07-04T13:26:39Z</time>
      </trkpt>
      <trkpt lat="44.24837" lon="4.50537">
        <ele>335</ele>
        <time>2021-07-04T13:26:51Z</time>
      </trkpt>
      <trkpt lat="44.24925" lon="4.50531">
        <ele>331</ele>
        <time>2021-07-04T13:27:11Z</time>
      </trkpt>
      <trkpt lat="44.24955" lon="4.50526">
        <ele>329</ele>
        <time>2021-07-04T13:27:18Z</time>
      </trkpt>
      <trkpt lat="44.25036" lon="4.50485">
        <ele>325</ele>
        <time>2021-07-04T13:27:38Z</time>
      </trkpt>
      <trkpt lat="44.25048" lon="4.50443">
        <ele>328</ele>
        <time>2021-07-04T13:27:46Z</time>
      </trkpt>
      <trkpt lat="44.25073" lon="4.50426">
        <ele>324</ele>
        <time>2021-07-04T13:27:52Z</time>
      </trkpt>
      <trkpt lat="44.25085" lon="4.50423">
        <ele>322</ele>
        <time>2021-07-04T13:27:55Z</time>
      </trkpt>
      <trkpt lat="44.25091" lon="4.50424">
        <ele>322</ele>
        <time>2021-07-04T13:27:57Z</time>
      </trkpt>
      <trkpt lat="44.25104" lon="4.50471">
        <ele>315</ele>
        <time>2021-07-04T13:28:05Z</time>
      </trkpt>
      <trkpt lat="44.25153" lon="4.50477">
        <ele>312</ele>
        <time>2021-07-04T13:28:17Z</time>
      </trkpt>
      <trkpt lat="44.25152" lon="4.50483">
        <ele>311</ele>
        <time>2021-07-04T13:28:18Z</time>
      </trkpt>
      <trkpt lat="44.2516" lon="4.50486">
        <ele>309</ele>
        <time>2021-07-04T13:28:20Z</time>
      </trkpt>
      <trkpt lat="44.25188" lon="4.50534">
        <ele>303</ele>
        <time>2021-07-04T13:28:30Z</time>
      </trkpt>
      <trkpt lat="44.25197" lon="4.50557">
        <ele>300</ele>
        <time>2021-07-04T13:28:34Z</time>
      </trkpt>
      <trkpt lat="44.25228" lon="4.5059">
        <ele>296</ele>
        <time>2021-07-04T13:28:43Z</time>
      </trkpt>
      <trkpt lat="44.25235" lon="4.50607">
        <ele>294</ele>
        <time>2021-07-04T13:28:47Z</time>
      </trkpt>
      <trkpt lat="44.25247" lon="4.50616">
        <ele>293</ele>
        <time>2021-07-04T13:28:50Z</time>
      </trkpt>
      <trkpt lat="44.25344" lon="4.50624">
        <ele>296</ele>
        <time>2021-07-04T13:29:13Z</time>
      </trkpt>
      <trkpt lat="44.25371" lon="4.50632">
        <ele>296</ele>
        <time>2021-07-04T13:29:19Z</time>
      </trkpt>
      <trkpt lat="44.25381" lon="4.50632">
        <ele>296</ele>
        <time>2021-07-04T13:29:21Z</time>
      </trkpt>
      <trkpt lat="44.25396" lon="4.50622">
        <ele>300</ele>
        <time>2021-07-04T13:29:25Z</time>
      </trkpt>
      <trkpt lat="44.25412" lon="4.50619">
        <ele>301</ele>
        <time>2021-07-04T13:29:29Z</time>
      </trkpt>
      <trkpt lat="44.25429" lon="4.50626">
        <ele>302</ele>
        <time>2021-07-04T13:29:33Z</time>
      </trkpt>
      <trkpt lat="44.25444" lon="4.50639">
        <ele>300</ele>
        <time>2021-07-04T13:29:37Z</time>
      </trkpt>
      <trkpt lat="44.25453" lon="4.50657">
        <ele>297</ele>
        <time>2021-07-04T13:29:41Z</time>
      </trkpt>
      <trkpt lat="44.25456" lon="4.50679">
        <ele>292</ele>
        <time>2021-07-04T13:29:45Z</time>
      </trkpt>
      <trkpt lat="44.2547" lon="4.50691">
        <ele>291</ele>
        <time>2021-07-04T13:29:49Z</time>
      </trkpt>
      <trkpt lat="44.25495" lon="4.50697">
        <ele>292</ele>
        <time>2021-07-04T13:29:54Z</time>
      </trkpt>
      <trkpt lat="44.25525" lon="4.50714">
        <ele>290</ele>
        <time>2021-07-04T13:30:02Z</time>
      </trkpt>
      <trkpt lat="44.25539" lon="4.50719">
        <ele>289</ele>
        <time>2021-07-04T13:30:05Z</time>
      </trkpt>
      <trkpt lat="44.25573" lon="4.50708">
        <ele>295</ele>
        <time>2021-07-04T13:30:14Z</time>
      </trkpt>
      <trkpt lat="44.25589" lon="4.50695">
        <ele>299</ele>
        <time>2021-07-04T13:30:18Z</time>
      </trkpt>
      <trkpt lat="44.25598" lon="4.50683">
        <ele>301</ele>
        <time>2021-07-04T13:30:21Z</time>
      </trkpt>
      <trkpt lat="44.25627" lon="4.50664">
        <ele>303</ele>
        <time>2021-07-04T13:30:28Z</time>
      </trkpt>
      <trkpt lat="44.25706" lon="4.50621">
        <ele>304</ele>
        <time>2021-07-04T13:30:48Z</time>
      </trkpt>
      <trkpt lat="44.25785" lon="4.50573">
        <ele>303</ele>
        <time>2021-07-04T13:31:08Z</time>
      </trkpt>
      <trkpt lat="44.25882" lon="4.50509">
        <ele>308</ele>
        <time>2021-07-04T13:31:33Z</time>
      </trkpt>
      <trkpt lat="44.25919" lon="4.50497">
        <ele>307</ele>
        <time>2021-07-04T13:31:42Z</time>
      </trkpt>
      <trkpt lat="44.25976" lon="4.50471">
        <ele>307</ele>
        <time>2021-07-04T13:31:56Z</time>
      </trkpt>
      <trkpt lat="44.26008" lon="4.50459">
        <ele>307</ele>
        <time>2021-07-04T13:32:04Z</time>
      </trkpt>
      <trkpt lat="44.26069" lon="4.50445">
        <ele>300</ele>
        <time>2021-07-04T13:32:18Z</time>
      </trkpt>
      <trkpt lat="44.2608" lon="4.5044">
        <ele>299</ele>
        <time>2021-07-04T13:32:21Z</time>
      </trkpt>
      <trkpt lat="44.2609" lon="4.50432">
        <ele>299</ele>
        <time>2021-07-04T13:32:24Z</time>
      </trkpt>
      <trkpt lat="44.26095" lon="4.50412">
        <ele>302</ele>
        <time>2021-07-04T13:32:27Z</time>
      </trkpt>
      <trkpt lat="44.26052" lon="4.50317">
        <ele>309</ele>
        <time>2021-07-04T13:32:46Z</time>
      </trkpt>
      <trkpt lat="44.2601" lon="4.50208">
        <ele>310</ele>
        <time>2021-07-04T13:33:07Z</time>
      </trkpt>
      <trkpt lat="44.25992" lon="4.5019">
        <ele>311</ele>
        <time>2021-07-04T13:33:12Z</time>
      </trkpt>
      <trkpt lat="44.25972" lon="4.50184">
        <ele>312</ele>
        <time>2021-07-04T13:33:17Z</time>
      </trkpt>
      <trkpt lat="44.25961" lon="4.50184">
        <ele>313</ele>
        <time>2021-07-04T13:33:19Z</time>
      </trkpt>
      <trkpt lat="44.2595" lon="4.50179">
        <ele>314</ele>
        <time>2021-07-04T13:33:22Z</time>
      </trkpt>
      <trkpt lat="44.25948" lon="4.50172">
        <ele>313</ele>
        <time>2021-07-04T13:33:23Z</time>
      </trkpt>
      <trkpt lat="44.25948" lon="4.50162">
        <ele>313</ele>
        <time>2021-07-04T13:33:25Z</time>
      </trkpt>
      <trkpt lat="44.25955" lon="4.50153">
        <ele>313</ele>
        <time>2021-07-04T13:33:27Z</time>
      </trkpt>
      <trkpt lat="44.26048" lon="4.50102">
        <ele>304</ele>
        <time>2021-07-04T13:33:50Z</time>
      </trkpt>
      <trkpt lat="44.26066" lon="4.50086">
        <ele>304</ele>
        <time>2021-07-04T13:33:55Z</time>
      </trkpt>
      <trkpt lat="44.26192" lon="4.50119">
        <ele>295</ele>
        <time>2021-07-04T13:34:25Z</time>
      </trkpt>
      <trkpt lat="44.26327" lon="4.50142">
        <ele>292</ele>
        <time>2021-07-04T13:34:57Z</time>
      </trkpt>
      <trkpt lat="44.2637" lon="4.50156">
        <ele>291</ele>
        <time>2021-07-04T13:35:07Z</time>
      </trkpt>
      <trkpt lat="44.26438" lon="4.50167">
        <ele>289</ele>
        <time>2021-07-04T13:35:23Z</time>
      </trkpt>
      <trkpt lat="44.26532" lon="4.50195">
        <ele>283</ele>
        <time>2021-07-04T13:35:46Z</time>
      </trkpt>
      <trkpt lat="44.26724" lon="4.50278">
        <ele>293</ele>
        <time>2021-07-04T13:36:33Z</time>
      </trkpt>
      <trkpt lat="44.26724" lon="4.50282">
        <ele>293</ele>
        <time>2021-07-04T13:36:33Z</time>
      </trkpt>
      <trkpt lat="44.26744" lon="4.50289">
        <ele>294</ele>
        <time>2021-07-04T13:36:38Z</time>
      </trkpt>
      <trkpt lat="44.26744" lon="4.50305">
        <ele>294</ele>
        <time>2021-07-04T13:36:41Z</time>
      </trkpt>
      <trkpt lat="44.26759" lon="4.50328">
        <ele>295</ele>
        <time>2021-07-04T13:36:46Z</time>
      </trkpt>
      <trkpt lat="44.26803" lon="4.50384">
        <ele>293</ele>
        <time>2021-07-04T13:37:00Z</time>
      </trkpt>
      <trkpt lat="44.26832" lon="4.50411">
        <ele>294</ele>
        <time>2021-07-04T13:37:08Z</time>
      </trkpt>
      <trkpt lat="44.26874" lon="4.50459">
        <ele>289</ele>
        <time>2021-07-04T13:37:21Z</time>
      </trkpt>
      <trkpt lat="44.2689" lon="4.50469">
        <ele>288</ele>
        <time>2021-07-04T13:37:25Z</time>
      </trkpt>
      <trkpt lat="44.26916" lon="4.50479">
        <ele>288</ele>
        <time>2021-07-04T13:37:31Z</time>
      </trkpt>
      <trkpt lat="44.26946" lon="4.50498">
        <ele>287</ele>
        <time>2021-07-04T13:37:39Z</time>
      </trkpt>
      <trkpt lat="44.26959" lon="4.50497">
        <ele>287</ele>
        <time>2021-07-04T13:37:42Z</time>
      </trkpt>
      <trkpt lat="44.26974" lon="4.50503">
        <ele>286</ele>
        <time>2021-07-04T13:37:46Z</time>
      </trkpt>
      <trkpt lat="44.26987" lon="4.50504">
        <ele>286</ele>
        <time>2021-07-04T13:37:49Z</time>
      </trkpt>
      <trkpt lat="44.27002" lon="4.50496">
        <ele>286</ele>
        <time>2021-07-04T13:37:52Z</time>
      </trkpt>
      <trkpt lat="44.27012" lon="4.50494">
        <ele>286</ele>
        <time>2021-07-04T13:37:55Z</time>
      </trkpt>
      <trkpt lat="44.27045" lon="4.50498">
        <ele>283</ele>
        <time>2021-07-04T13:38:03Z</time>
      </trkpt>
      <trkpt lat="44.27075" lon="4.50507">
        <ele>280</ele>
        <time>2021-07-04T13:38:10Z</time>
      </trkpt>
      <trkpt lat="44.27106" lon="4.50506">
        <ele>278</ele>
        <time>2021-07-04T13:38:17Z</time>
      </trkpt>
      <trkpt lat="44.27126" lon="4.50513">
        <ele>276</ele>
        <time>2021-07-04T13:38:22Z</time>
      </trkpt>
      <trkpt lat="44.27152" lon="4.5051">
        <ele>275</ele>
        <time>2021-07-04T13:38:28Z</time>
      </trkpt>
      <trkpt lat="44.27157" lon="4.50504">
        <ele>276</ele>
        <time>2021-07-04T13:38:29Z</time>
      </trkpt>
      <trkpt lat="44.27136" lon="4.50528">
        <ele>273</ele>
        <time>2021-07-04T13:38:36Z</time>
      </trkpt>
      <trkpt lat="44.27096" lon="4.50549">
        <ele>272</ele>
        <time>2021-07-04T13:38:46Z</time>
      </trkpt>
      <trkpt lat="44.27072" lon="4.50555">
        <ele>272</ele>
        <time>2021-07-04T13:38:51Z</time>
      </trkpt>
      <trkpt lat="44.27059" lon="4.50564">
        <ele>272</ele>
        <time>2021-07-04T13:38:55Z</time>
      </trkpt>
      <trkpt lat="44.27011" lon="4.50614">
        <ele>268</ele>
        <time>2021-07-04T13:39:09Z</time>
      </trkpt>
      <trkpt lat="44.26999" lon="4.50667">
        <ele>260</ele>
        <time>2021-07-04T13:39:18Z</time>
      </trkpt>
      <trkpt lat="44.26993" lon="4.50675">
        <ele>258</ele>
        <time>2021-07-04T13:39:20Z</time>
      </trkpt>
      <trkpt lat="44.26979" lon="4.50684">
        <ele>256</ele>
        <time>2021-07-04T13:39:24Z</time>
      </trkpt>
      <trkpt lat="44.26952" lon="4.50708">
        <ele>251</ele>
        <time>2021-07-04T13:39:31Z</time>
      </trkpt>
      <trkpt lat="44.26906" lon="4.50705">
        <ele>251</ele>
        <time>2021-07-04T13:39:42Z</time>
      </trkpt>
      <trkpt lat="44.26883" lon="4.50708">
        <ele>248</ele>
        <time>2021-07-04T13:39:47Z</time>
      </trkpt>
      <trkpt lat="44.26841" lon="4.50735">
        <ele>240</ele>
        <time>2021-07-04T13:39:58Z</time>
      </trkpt>
      <trkpt lat="44.26816" lon="4.50735">
        <ele>239</ele>
        <time>2021-07-04T13:40:04Z</time>
      </trkpt>
      <trkpt lat="44.2679" lon="4.50747">
        <ele>234</ele>
        <time>2021-07-04T13:40:10Z</time>
      </trkpt>
      <trkpt lat="44.26764" lon="4.50747">
        <ele>232</ele>
        <time>2021-07-04T13:40:16Z</time>
      </trkpt>
      <trkpt lat="44.26753" lon="4.50741">
        <ele>233</ele>
        <time>2021-07-04T13:40:19Z</time>
      </trkpt>
      <trkpt lat="44.26735" lon="4.50743">
        <ele>232</ele>
        <time>2021-07-04T13:40:23Z</time>
      </trkpt>
      <trkpt lat="44.26718" lon="4.50764">
        <ele>229</ele>
        <time>2021-07-04T13:40:29Z</time>
      </trkpt>
      <trkpt lat="44.26705" lon="4.50813">
        <ele>226</ele>
        <time>2021-07-04T13:40:37Z</time>
      </trkpt>
      <trkpt lat="44.26701" lon="4.50864">
        <ele>225</ele>
        <time>2021-07-04T13:40:46Z</time>
      </trkpt>
      <trkpt lat="44.26691" lon="4.5091">
        <ele>226</ele>
        <time>2021-07-04T13:40:54Z</time>
      </trkpt>
      <trkpt lat="44.26696" lon="4.50914">
        <ele>225</ele>
        <time>2021-07-04T13:40:55Z</time>
      </trkpt>
      <trkpt lat="44.26697" lon="4.50923">
        <ele>225</ele>
        <time>2021-07-04T13:40:57Z</time>
      </trkpt>
      <trkpt lat="44.26695" lon="4.50935">
        <ele>225</ele>
        <time>2021-07-04T13:40:59Z</time>
      </trkpt>
      <trkpt lat="44.26696" lon="4.50963">
        <ele>224</ele>
        <time>2021-07-04T13:41:04Z</time>
      </trkpt>
      <trkpt lat="44.26699" lon="4.50972">
        <ele>224</ele>
        <time>2021-07-04T13:41:05Z</time>
      </trkpt>
      <trkpt lat="44.26749" lon="4.50999">
        <ele>215</ele>
        <time>2021-07-04T13:41:18Z</time>
      </trkpt>
      <trkpt lat="44.26751" lon="4.50998">
        <ele>215</ele>
        <time>2021-07-04T13:41:18Z</time>
      </trkpt>
      <trkpt lat="44.26753" lon="4.51003">
        <ele>215</ele>
        <time>2021-07-04T13:41:19Z</time>
      </trkpt>
      <trkpt lat="44.26759" lon="4.51067">
        <ele>216</ele>
        <time>2021-07-04T13:41:30Z</time>
      </trkpt>
      <trkpt lat="44.26769" lon="4.51102">
        <ele>216</ele>
        <time>2021-07-04T13:41:36Z</time>
      </trkpt>
      <trkpt lat="44.26769" lon="4.51124">
        <ele>216</ele>
        <time>2021-07-04T13:41:40Z</time>
      </trkpt>
      <trkpt lat="44.26764" lon="4.51157">
        <ele>218</ele>
        <time>2021-07-04T13:41:46Z</time>
      </trkpt>
      <trkpt lat="44.26765" lon="4.51184">
        <ele>219</ele>
        <time>2021-07-04T13:41:50Z</time>
      </trkpt>
      <trkpt lat="44.26776" lon="4.51217">
        <ele>220</ele>
        <time>2021-07-04T13:41:56Z</time>
      </trkpt>
      <trkpt lat="44.26801" lon="4.51251">
        <ele>222</ele>
        <time>2021-07-04T13:42:04Z</time>
      </trkpt>
      <trkpt lat="44.26822" lon="4.51301">
        <ele>225</ele>
        <time>2021-07-04T13:42:14Z</time>
      </trkpt>
      <trkpt lat="44.26828" lon="4.51306">
        <ele>226</ele>
        <time>2021-07-04T13:42:16Z</time>
      </trkpt>
      <trkpt lat="44.26805" lon="4.51336">
        <ele>228</ele>
        <time>2021-07-04T13:42:23Z</time>
      </trkpt>
      <trkpt lat="44.26805" lon="4.51329">
        <ele>228</ele>
        <time>2021-07-04T13:42:24Z</time>
      </trkpt>
      <trkpt lat="44.26812" lon="4.51328">
        <ele>228</ele>
        <time>2021-07-04T13:42:26Z</time>
      </trkpt>
      <trkpt lat="44.26812" lon="4.51348">
        <ele>227</ele>
        <time>2021-07-04T13:42:29Z</time>
      </trkpt>
      <trkpt lat="44.26808" lon="4.51368">
        <ele>226</ele>
        <time>2021-07-04T13:42:33Z</time>
      </trkpt>
      <trkpt lat="44.26817" lon="4.51412">
        <ele>223</ele>
        <time>2021-07-04T13:42:40Z</time>
      </trkpt>
      <trkpt lat="44.26786" lon="4.51422">
        <ele>223</ele>
        <time>2021-07-04T13:42:48Z</time>
      </trkpt>
      <trkpt lat="44.26767" lon="4.51402">
        <ele>225</ele>
        <time>2021-07-04T13:42:53Z</time>
      </trkpt>
      <trkpt lat="44.26755" lon="4.51399">
        <ele>225</ele>
        <time>2021-07-04T13:42:56Z</time>
      </trkpt>
      <trkpt lat="44.26746" lon="4.514">
        <ele>225</ele>
        <time>2021-07-04T13:42:58Z</time>
      </trkpt>
      <trkpt lat="44.26693" lon="4.51427">
        <ele>228</ele>
        <time>2021-07-04T13:43:11Z</time>
      </trkpt>
      <trkpt lat="44.26658" lon="4.51485">
        <ele>224</ele>
        <time>2021-07-04T13:43:24Z</time>
      </trkpt>
      <trkpt lat="44.26662" lon="4.51516">
        <ele>221</ele>
        <time>2021-07-04T13:43:29Z</time>
      </trkpt>
      <trkpt lat="44.26656" lon="4.51557">
        <ele>214</ele>
        <time>2021-07-04T13:43:36Z</time>
      </trkpt>
      <trkpt lat="44.26634" lon="4.51549">
        <ele>212</ele>
        <time>2021-07-04T13:43:42Z</time>
      </trkpt>
      <trkpt lat="44.26599" lon="4.51524">
        <ele>209</ele>
        <time>2021-07-04T13:43:51Z</time>
      </trkpt>
      <trkpt lat="44.26593" lon="4.5151">
        <ele>210</ele>
        <time>2021-07-04T13:43:54Z</time>
      </trkpt>
      <trkpt lat="44.26584" lon="4.515">
        <ele>209</ele>
        <time>2021-07-04T13:43:56Z</time>
      </trkpt>
      <trkpt lat="44.26575" lon="4.51497">
        <ele>208</ele>
        <time>2021-07-04T13:43:58Z</time>
      </trkpt>
      <trkpt lat="44.26562" lon="4.51499">
        <ele>205</ele>
        <time>2021-07-04T13:44:02Z</time>
      </trkpt>
      <trkpt lat="44.26553" lon="4.51504">
        <ele>202</ele>
        <time>2021-07-04T13:44:04Z</time>
      </trkpt>
      <trkpt lat="44.2654" lon="4.51507">
        <ele>199</ele>
        <time>2021-07-04T13:44:07Z</time>
      </trkpt>
      <trkpt lat="44.26536" lon="4.51513">
        <ele>197</ele>
        <time>2021-07-04T13:44:08Z</time>
      </trkpt>
      <trkpt lat="44.2651" lon="4.51523">
        <ele>191</ele>
        <time>2021-07-04T13:44:15Z</time>
      </trkpt>
      <trkpt lat="44.26499" lon="4.51535">
        <ele>188</ele>
        <time>2021-07-04T13:44:18Z</time>
      </trkpt>
      <trkpt lat="44.26451" lon="4.51569">
        <ele>180</ele>
        <time>2021-07-04T13:44:30Z</time>
      </trkpt>
      <trkpt lat="44.26427" lon="4.51574">
        <ele>177</ele>
        <time>2021-07-04T13:44:36Z</time>
      </trkpt>
      <trkpt lat="44.26366" lon="4.51599">
        <ele>170</ele>
        <time>2021-07-04T13:44:51Z</time>
      </trkpt>
      <trkpt lat="44.26353" lon="4.51617">
        <ele>167</ele>
        <time>2021-07-04T13:44:55Z</time>
      </trkpt>
      <trkpt lat="44.2635" lon="4.51641">
        <ele>166</ele>
        <time>2021-07-04T13:44:59Z</time>
      </trkpt>
      <trkpt lat="44.26318" lon="4.51713">
        <ele>161</ele>
        <time>2021-07-04T13:45:13Z</time>
      </trkpt>
      <trkpt lat="44.26318" lon="4.51741">
        <ele>161</ele>
        <time>2021-07-04T13:45:18Z</time>
      </trkpt>
      <trkpt lat="44.26326" lon="4.51775">
        <ele>163</ele>
        <time>2021-07-04T13:45:24Z</time>
      </trkpt>
      <trkpt lat="44.26323" lon="4.5179">
        <ele>164</ele>
        <time>2021-07-04T13:45:27Z</time>
      </trkpt>
      <trkpt lat="44.26313" lon="4.51791">
        <ele>164</ele>
        <time>2021-07-04T13:45:29Z</time>
      </trkpt>
      <trkpt lat="44.26303" lon="4.51787">
        <ele>164</ele>
        <time>2021-07-04T13:45:31Z</time>
      </trkpt>
      <trkpt lat="44.26296" lon="4.51788">
        <ele>164</ele>
        <time>2021-07-04T13:45:33Z</time>
      </trkpt>
      <trkpt lat="44.26275" lon="4.51812">
        <ele>166</ele>
        <time>2021-07-04T13:45:39Z</time>
      </trkpt>
      <trkpt lat="44.26267" lon="4.51858">
        <ele>170</ele>
        <time>2021-07-04T13:45:47Z</time>
      </trkpt>
      <trkpt lat="44.26244" lon="4.51906">
        <ele>175</ele>
        <time>2021-07-04T13:45:57Z</time>
      </trkpt>
      <trkpt lat="44.26224" lon="4.51939">
        <ele>179</ele>
        <time>2021-07-04T13:46:04Z</time>
      </trkpt>
      <trkpt lat="44.26219" lon="4.51955">
        <ele>181</ele>
        <time>2021-07-04T13:46:07Z</time>
      </trkpt>
      <trkpt lat="44.26218" lon="4.51968">
        <ele>183</ele>
        <time>2021-07-04T13:46:09Z</time>
      </trkpt>
      <trkpt lat="44.262" lon="4.52051">
        <ele>198</ele>
        <time>2021-07-04T13:46:24Z</time>
      </trkpt>
      <trkpt lat="44.26193" lon="4.52071">
        <ele>202</ele>
        <time>2021-07-04T13:46:28Z</time>
      </trkpt>
      <trkpt lat="44.26166" lon="4.52102">
        <ele>207</ele>
        <time>2021-07-04T13:46:36Z</time>
      </trkpt>
      <trkpt lat="44.26151" lon="4.5213">
        <ele>211</ele>
        <time>2021-07-04T13:46:42Z</time>
      </trkpt>
      <trkpt lat="44.26138" lon="4.52162">
        <ele>216</ele>
        <time>2021-07-04T13:46:48Z</time>
      </trkpt>
      <trkpt lat="44.26129" lon="4.52208">
        <ele>222</ele>
        <time>2021-07-04T13:46:56Z</time>
      </trkpt>
      <trkpt lat="44.26126" lon="4.52238">
        <ele>227</ele>
        <time>2021-07-04T13:47:01Z</time>
      </trkpt>
      <trkpt lat="44.26137" lon="4.52282">
        <ele>234</ele>
        <time>2021-07-04T13:47:09Z</time>
      </trkpt>
      <trkpt lat="44.26133" lon="4.52303">
        <ele>236</ele>
        <time>2021-07-04T13:47:12Z</time>
      </trkpt>
      <trkpt lat="44.26122" lon="4.52335">
        <ele>239</ele>
        <time>2021-07-04T13:47:18Z</time>
      </trkpt>
      <trkpt lat="44.26129" lon="4.52331">
        <ele>239</ele>
        <time>2021-07-04T13:47:20Z</time>
      </trkpt>
      <trkpt lat="44.26122" lon="4.52335">
        <ele>239</ele>
        <time>2021-07-04T13:47:22Z</time>
      </trkpt>
      <trkpt lat="44.26106" lon="4.52356">
        <ele>241</ele>
        <time>2021-07-04T13:47:27Z</time>
      </trkpt>
      <trkpt lat="44.26089" lon="4.52368">
        <ele>243</ele>
        <time>2021-07-04T13:47:31Z</time>
      </trkpt>
      <trkpt lat="44.26083" lon="4.52387">
        <ele>245</ele>
        <time>2021-07-04T13:47:35Z</time>
      </trkpt>
      <trkpt lat="44.26089" lon="4.5241">
        <ele>248</ele>
        <time>2021-07-04T13:47:39Z</time>
      </trkpt>
      <trkpt lat="44.26054" lon="4.52478">
        <ele>250</ele>
        <time>2021-07-04T13:47:53Z</time>
      </trkpt>
      <trkpt lat="44.26062" lon="4.52479">
        <ele>250</ele>
        <time>2021-07-04T13:47:55Z</time>
      </trkpt>
      <trkpt lat="44.26055" lon="4.52528">
        <ele>251</ele>
        <time>2021-07-04T13:48:03Z</time>
      </trkpt>
      <trkpt lat="44.26043" lon="4.52527">
        <ele>252</ele>
        <time>2021-07-04T13:48:06Z</time>
      </trkpt>
      <trkpt lat="44.26041" lon="4.5254">
        <ele>252</ele>
        <time>2021-07-04T13:48:08Z</time>
      </trkpt>
      <trkpt lat="44.26033" lon="4.52546">
        <ele>252</ele>
        <time>2021-07-04T13:48:10Z</time>
      </trkpt>
      <trkpt lat="44.26017" lon="4.52544">
        <ele>253</ele>
        <time>2021-07-04T13:48:14Z</time>
      </trkpt>
      <trkpt lat="44.25998" lon="4.5255">
        <ele>254</ele>
        <time>2021-07-04T13:48:19Z</time>
      </trkpt>
      <trkpt lat="44.25995" lon="4.52545">
        <ele>254</ele>
        <time>2021-07-04T13:48:20Z</time>
      </trkpt>
      <trkpt lat="44.2598" lon="4.52558">
        <ele>254</ele>
        <time>2021-07-04T13:48:24Z</time>
      </trkpt>
      <trkpt lat="44.25955" lon="4.52588">
        <ele>256</ele>
        <time>2021-07-04T13:48:31Z</time>
      </trkpt>
      <trkpt lat="44.25947" lon="4.52593">
        <ele>256</ele>
        <time>2021-07-04T13:48:33Z</time>
      </trkpt>
      <trkpt lat="44.25892" lon="4.52611">
        <ele>257</ele>
        <time>2021-07-04T13:48:47Z</time>
      </trkpt>
      <trkpt lat="44.25886" lon="4.52608">
        <ele>257</ele>
        <time>2021-07-04T13:48:48Z</time>
      </trkpt>
      <trkpt lat="44.2587" lon="4.52609">
        <ele>257</ele>
        <time>2021-07-04T13:48:52Z</time>
      </trkpt>
      <trkpt lat="44.25845" lon="4.52605">
        <ele>257</ele>
        <time>2021-07-04T13:48:58Z</time>
      </trkpt>
      <trkpt lat="44.25806" lon="4.52594">
        <ele>259</ele>
        <time>2021-07-04T13:49:07Z</time>
      </trkpt>
      <trkpt lat="44.2578" lon="4.52583">
        <ele>261</ele>
        <time>2021-07-04T13:49:13Z</time>
      </trkpt>
      <trkpt lat="44.25725" lon="4.52577">
        <ele>265</ele>
        <time>2021-07-04T13:49:26Z</time>
      </trkpt>
      <trkpt lat="44.25695" lon="4.52568">
        <ele>266</ele>
        <time>2021-07-04T13:49:33Z</time>
      </trkpt>
      <trkpt lat="44.25656" lon="4.52552">
        <ele>267</ele>
        <time>2021-07-04T13:49:43Z</time>
      </trkpt>
      <trkpt lat="44.25643" lon="4.52552">
        <ele>267</ele>
        <time>2021-07-04T13:49:46Z</time>
      </trkpt>
      <trkpt lat="44.25639" lon="4.52548">
        <ele>267</ele>
        <time>2021-07-04T13:49:47Z</time>
      </trkpt>
      <trkpt lat="44.25643" lon="4.52552">
        <ele>267</ele>
        <time>2021-07-04T13:49:48Z</time>
      </trkpt>
      <trkpt lat="44.25634" lon="4.52552">
        <ele>268</ele>
        <time>2021-07-04T13:49:50Z</time>
      </trkpt>
      <trkpt lat="44.2559" lon="4.52567">
        <ele>272</ele>
        <time>2021-07-04T13:50:01Z</time>
      </trkpt>
      <trkpt lat="44.25539" lon="4.52602">
        <ele>280</ele>
        <time>2021-07-04T13:50:14Z</time>
      </trkpt>
      <trkpt lat="44.25508" lon="4.52605">
        <ele>283</ele>
        <time>2021-07-04T13:50:21Z</time>
      </trkpt>
      <trkpt lat="44.25485" lon="4.52613">
        <ele>284</ele>
        <time>2021-07-04T13:50:27Z</time>
      </trkpt>
      <trkpt lat="44.25449" lon="4.52616">
        <ele>286</ele>
        <time>2021-07-04T13:50:35Z</time>
      </trkpt>
      <trkpt lat="44.25396" lon="4.52608">
        <ele>289</ele>
        <time>2021-07-04T13:50:48Z</time>
      </trkpt>
      <trkpt lat="44.25372" lon="4.52613">
        <ele>293</ele>
        <time>2021-07-04T13:50:54Z</time>
      </trkpt>
      <trkpt lat="44.25353" lon="4.52628">
        <ele>296</ele>
        <time>2021-07-04T13:50:59Z</time>
      </trkpt>
      <trkpt lat="44.25332" lon="4.52683">
        <ele>302</ele>
        <time>2021-07-04T13:51:09Z</time>
      </trkpt>
      <trkpt lat="44.25292" lon="4.52749">
        <ele>304</ele>
        <time>2021-07-04T13:51:24Z</time>
      </trkpt>
      <trkpt lat="44.25261" lon="4.52815">
        <ele>306</ele>
        <time>2021-07-04T13:51:37Z</time>
      </trkpt>
      <trkpt lat="44.25239" lon="4.52842">
        <ele>307</ele>
        <time>2021-07-04T13:51:44Z</time>
      </trkpt>
      <trkpt lat="44.25144" lon="4.52915">
        <ele>318</ele>
        <time>2021-07-04T13:52:09Z</time>
      </trkpt>
      <trkpt lat="44.25087" lon="4.5298">
        <ele>318</ele>
        <time>2021-07-04T13:52:26Z</time>
      </trkpt>
      <trkpt lat="44.25061" lon="4.52998">
        <ele>319</ele>
        <time>2021-07-04T13:52:33Z</time>
      </trkpt>
      <trkpt lat="44.24976" lon="4.53099">
        <ele>320</ele>
        <time>2021-07-04T13:52:59Z</time>
      </trkpt>
      <trkpt lat="44.24926" lon="4.53185">
        <ele>324</ele>
        <time>2021-07-04T13:53:17Z</time>
      </trkpt>
      <trkpt lat="44.24915" lon="4.53209">
        <ele>326</ele>
        <time>2021-07-04T13:53:22Z</time>
      </trkpt>
      <trkpt lat="44.24914" lon="4.53201">
        <ele>326</ele>
        <time>2021-07-04T13:53:24Z</time>
      </trkpt>
      <trkpt lat="44.24912" lon="4.53242">
        <ele>328</ele>
        <time>2021-07-04T13:53:30Z</time>
      </trkpt>
      <trkpt lat="44.24918" lon="4.53276">
        <ele>328</ele>
        <time>2021-07-04T13:53:36Z</time>
      </trkpt>
      <trkpt lat="44.24921" lon="4.53364">
        <ele>331</ele>
        <time>2021-07-04T13:53:51Z</time>
      </trkpt>
      <trkpt lat="44.24932" lon="4.53383">
        <ele>331</ele>
        <time>2021-07-04T13:53:55Z</time>
      </trkpt>
      <trkpt lat="44.24936" lon="4.53412">
        <ele>332</ele>
        <time>2021-07-04T13:54:00Z</time>
      </trkpt>
      <trkpt lat="44.24933" lon="4.53477">
        <ele>331</ele>
        <time>2021-07-04T13:54:11Z</time>
      </trkpt>
      <trkpt lat="44.24941" lon="4.53506">
        <ele>330</ele>
        <time>2021-07-04T13:54:16Z</time>
      </trkpt>
      <trkpt lat="44.24942" lon="4.53529">
        <ele>329</ele>
        <time>2021-07-04T13:54:20Z</time>
      </trkpt>
      <trkpt lat="44.24937" lon="4.53554">
        <ele>329</ele>
        <time>2021-07-04T13:54:24Z</time>
      </trkpt>
      <trkpt lat="44.24887" lon="4.53721">
        <ele>330</ele>
        <time>2021-07-04T13:54:55Z</time>
      </trkpt>
      <trkpt lat="44.24852" lon="4.53901">
        <ele>336</ele>
        <time>2021-07-04T13:55:26Z</time>
      </trkpt>
      <trkpt lat="44.24838" lon="4.53937">
        <ele>336</ele>
        <time>2021-07-04T13:55:33Z</time>
      </trkpt>
      <trkpt lat="44.24842" lon="4.53929">
        <ele>336</ele>
        <time>2021-07-04T13:55:34Z</time>
      </trkpt>
      <trkpt lat="44.24842" lon="4.53949">
        <ele>335</ele>
        <time>2021-07-04T13:55:38Z</time>
      </trkpt>
      <trkpt lat="44.24835" lon="4.53965">
        <ele>335</ele>
        <time>2021-07-04T13:55:41Z</time>
      </trkpt>
      <trkpt lat="44.24833" lon="4.53985">
        <ele>335</ele>
        <time>2021-07-04T13:55:44Z</time>
      </trkpt>
      <trkpt lat="44.24823" lon="4.54015">
        <ele>335</ele>
        <time>2021-07-04T13:55:50Z</time>
      </trkpt>
      <trkpt lat="44.24811" lon="4.54075">
        <ele>335</ele>
        <time>2021-07-04T13:56:00Z</time>
      </trkpt>
      <trkpt lat="44.24788" lon="4.54123">
        <ele>336</ele>
        <time>2021-07-04T13:56:10Z</time>
      </trkpt>
      <trkpt lat="44.24781" lon="4.54161">
        <ele>337</ele>
        <time>2021-07-04T13:56:16Z</time>
      </trkpt>
      <trkpt lat="44.24772" lon="4.54194">
        <ele>339</ele>
        <time>2021-07-04T13:56:22Z</time>
      </trkpt>
      <trkpt lat="44.2475" lon="4.54232">
        <ele>343</ele>
        <time>2021-07-04T13:56:30Z</time>
      </trkpt>
      <trkpt lat="44.24727" lon="4.54294">
        <ele>346</ele>
        <time>2021-07-04T13:56:42Z</time>
      </trkpt>
      <trkpt lat="44.24707" lon="4.54321">
        <ele>348</ele>
        <time>2021-07-04T13:56:49Z</time>
      </trkpt>
      <trkpt lat="44.24694" lon="4.54319">
        <ele>349</ele>
        <time>2021-07-04T13:56:52Z</time>
      </trkpt>
      <trkpt lat="44.2467" lon="4.54335">
        <ele>350</ele>
        <time>2021-07-04T13:56:58Z</time>
      </trkpt>
      <trkpt lat="44.24642" lon="4.54332">
        <ele>350</ele>
        <time>2021-07-04T13:57:04Z</time>
      </trkpt>
      <trkpt lat="44.24629" lon="4.54356">
        <ele>346</ele>
        <time>2021-07-04T13:57:10Z</time>
      </trkpt>
      <trkpt lat="44.2462" lon="4.54363">
        <ele>345</ele>
        <time>2021-07-04T13:57:12Z</time>
      </trkpt>
      <trkpt lat="44.24594" lon="4.54367">
        <ele>344</ele>
        <time>2021-07-04T13:57:18Z</time>
      </trkpt>
      <trkpt lat="44.24578" lon="4.54373">
        <ele>343</ele>
        <time>2021-07-04T13:57:22Z</time>
      </trkpt>
      <trkpt lat="44.24548" lon="4.54379">
        <ele>344</ele>
        <time>2021-07-04T13:57:29Z</time>
      </trkpt>
      <trkpt lat="44.24536" lon="4.54378">
        <ele>345</ele>
        <time>2021-07-04T13:57:32Z</time>
      </trkpt>
      <trkpt lat="44.24534" lon="4.54382">
        <ele>345</ele>
        <time>2021-07-04T13:57:33Z</time>
      </trkpt>
      <trkpt lat="44.24506" lon="4.54381">
        <ele>347</ele>
        <time>2021-07-04T13:57:39Z</time>
      </trkpt>
      <trkpt lat="44.24506" lon="4.54404">
        <ele>345</ele>
        <time>2021-07-04T13:57:43Z</time>
      </trkpt>
      <trkpt lat="44.2452" lon="4.54454">
        <ele>339</ele>
        <time>2021-07-04T13:57:52Z</time>
      </trkpt>
      <trkpt lat="44.24478" lon="4.54557">
        <ele>332</ele>
        <time>2021-07-04T13:58:12Z</time>
      </trkpt>
      <trkpt lat="44.24439" lon="4.54672">
        <ele>324</ele>
        <time>2021-07-04T13:58:33Z</time>
      </trkpt>
      <trkpt lat="44.2444" lon="4.54759">
        <ele>311</ele>
        <time>2021-07-04T13:58:48Z</time>
      </trkpt>
      <trkpt lat="44.24467" lon="4.54762">
        <ele>307</ele>
        <time>2021-07-04T13:58:54Z</time>
      </trkpt>
      <trkpt lat="44.24503" lon="4.54777">
        <ele>300</ele>
        <time>2021-07-04T13:59:03Z</time>
      </trkpt>
      <trkpt lat="44.24508" lon="4.54776">
        <ele>300</ele>
        <time>2021-07-04T13:59:04Z</time>
      </trkpt>
      <trkpt lat="44.24533" lon="4.54758">
        <ele>298</ele>
        <time>2021-07-04T13:59:10Z</time>
      </trkpt>
      <trkpt lat="44.24557" lon="4.54753">
        <ele>295</ele>
        <time>2021-07-04T13:59:16Z</time>
      </trkpt>
      <trkpt lat="44.24583" lon="4.54776">
        <ele>291</ele>
        <time>2021-07-04T13:59:23Z</time>
      </trkpt>
      <trkpt lat="44.24593" lon="4.54791">
        <ele>289</ele>
        <time>2021-07-04T13:59:27Z</time>
      </trkpt>
      <trkpt lat="44.24608" lon="4.54847">
        <ele>285</ele>
        <time>2021-07-04T13:59:37Z</time>
      </trkpt>
      <trkpt lat="44.24624" lon="4.5489">
        <ele>282</ele>
        <time>2021-07-04T13:59:45Z</time>
      </trkpt>
      <trkpt lat="44.24652" lon="4.54952">
        <ele>281</ele>
        <time>2021-07-04T13:59:57Z</time>
      </trkpt>
      <trkpt lat="44.24668" lon="4.54977">
        <ele>282</ele>
        <time>2021-07-04T14:00:03Z</time>
      </trkpt>
      <trkpt lat="44.24644" lon="4.55056">
        <ele>277</ele>
        <time>2021-07-04T14:00:17Z</time>
      </trkpt>
      <trkpt lat="44.24615" lon="4.55054">
        <ele>271</ele>
        <time>2021-07-04T14:00:24Z</time>
      </trkpt>
      <trkpt lat="44.2459" lon="4.55057">
        <ele>265</ele>
        <time>2021-07-04T14:00:30Z</time>
      </trkpt>
      <trkpt lat="44.24577" lon="4.55061">
        <ele>262</ele>
        <time>2021-07-04T14:00:33Z</time>
      </trkpt>
      <trkpt lat="44.24571" lon="4.55059">
        <ele>260</ele>
        <time>2021-07-04T14:00:34Z</time>
      </trkpt>
      <trkpt lat="44.24565" lon="4.55049">
        <ele>260</ele>
        <time>2021-07-04T14:00:36Z</time>
      </trkpt>
      <trkpt lat="44.24564" lon="4.55036">
        <ele>261</ele>
        <time>2021-07-04T14:00:39Z</time>
      </trkpt>
      <trkpt lat="44.24571" lon="4.55004">
        <ele>267</ele>
        <time>2021-07-04T14:00:44Z</time>
      </trkpt>
      <trkpt lat="44.24573" lon="4.54981">
        <ele>270</ele>
        <time>2021-07-04T14:00:48Z</time>
      </trkpt>
      <trkpt lat="44.24569" lon="4.54973">
        <ele>271</ele>
        <time>2021-07-04T14:00:50Z</time>
      </trkpt>
      <trkpt lat="44.2456" lon="4.54961">
        <ele>271</ele>
        <time>2021-07-04T14:00:53Z</time>
      </trkpt>
      <trkpt lat="44.24545" lon="4.54954">
        <ele>269</ele>
        <time>2021-07-04T14:00:56Z</time>
      </trkpt>
      <trkpt lat="44.24518" lon="4.54954">
        <ele>264</ele>
        <time>2021-07-04T14:01:03Z</time>
      </trkpt>
      <trkpt lat="44.24507" lon="4.54943">
        <ele>265</ele>
        <time>2021-07-04T14:01:06Z</time>
      </trkpt>
      <trkpt lat="44.245" lon="4.54927">
        <ele>268</ele>
        <time>2021-07-04T14:01:09Z</time>
      </trkpt>
      <trkpt lat="44.24478" lon="4.54898">
        <ele>276</ele>
        <time>2021-07-04T14:01:16Z</time>
      </trkpt>
      <trkpt lat="44.24467" lon="4.54891">
        <ele>279</ele>
        <time>2021-07-04T14:01:19Z</time>
      </trkpt>
      <trkpt lat="44.24453" lon="4.54886">
        <ele>281</ele>
        <time>2021-07-04T14:01:22Z</time>
      </trkpt>
      <trkpt lat="44.24441" lon="4.5489">
        <ele>280</ele>
        <time>2021-07-04T14:01:25Z</time>
      </trkpt>
      <trkpt lat="44.24431" lon="4.549">
        <ele>278</ele>
        <time>2021-07-04T14:01:28Z</time>
      </trkpt>
      <trkpt lat="44.24426" lon="4.54917">
        <ele>274</ele>
        <time>2021-07-04T14:01:31Z</time>
      </trkpt>
      <trkpt lat="44.24423" lon="4.54969">
        <ele>263</ele>
        <time>2021-07-04T14:01:40Z</time>
      </trkpt>
      <trkpt lat="44.24419" lon="4.54982">
        <ele>261</ele>
        <time>2021-07-04T14:01:42Z</time>
      </trkpt>
      <trkpt lat="44.24408" lon="4.55002">
        <ele>258</ele>
        <time>2021-07-04T14:01:46Z</time>
      </trkpt>
      <trkpt lat="44.24399" lon="4.55013">
        <ele>258</ele>
        <time>2021-07-04T14:01:49Z</time>
      </trkpt>
      <trkpt lat="44.24389" lon="4.55022">
        <ele>258</ele>
        <time>2021-07-04T14:01:52Z</time>
      </trkpt>
      <trkpt lat="44.24352" lon="4.55036">
        <ele>260</ele>
        <time>2021-07-04T14:02:01Z</time>
      </trkpt>
      <trkpt lat="44.24317" lon="4.55041">
        <ele>261</ele>
        <time>2021-07-04T14:02:09Z</time>
      </trkpt>
      <trkpt lat="44.24309" lon="4.55046">
        <ele>260</ele>
        <time>2021-07-04T14:02:11Z</time>
      </trkpt>
      <trkpt lat="44.24303" lon="4.55056">
        <ele>258</ele>
        <time>2021-07-04T14:02:13Z</time>
      </trkpt>
      <trkpt lat="44.24297" lon="4.55088">
        <ele>253</ele>
        <time>2021-07-04T14:02:19Z</time>
      </trkpt>
      <trkpt lat="44.24292" lon="4.551">
        <ele>251</ele>
        <time>2021-07-04T14:02:21Z</time>
      </trkpt>
      <trkpt lat="44.24276" lon="4.55109">
        <ele>250</ele>
        <time>2021-07-04T14:02:25Z</time>
      </trkpt>
      <trkpt lat="44.24267" lon="4.55108">
        <ele>251</ele>
        <time>2021-07-04T14:02:27Z</time>
      </trkpt>
      <trkpt lat="44.24256" lon="4.55102">
        <ele>251</ele>
        <time>2021-07-04T14:02:30Z</time>
      </trkpt>
      <trkpt lat="44.24239" lon="4.55074">
        <ele>256</ele>
        <time>2021-07-04T14:02:36Z</time>
      </trkpt>
      <trkpt lat="44.24235" lon="4.55071">
        <ele>256</ele>
        <time>2021-07-04T14:02:37Z</time>
      </trkpt>
      <trkpt lat="44.24229" lon="4.55072">
        <ele>256</ele>
        <time>2021-07-04T14:02:39Z</time>
      </trkpt>
      <trkpt lat="44.24224" lon="4.55079">
        <ele>255</ele>
        <time>2021-07-04T14:02:40Z</time>
      </trkpt>
      <trkpt lat="44.24224" lon="4.55093">
        <ele>252</ele>
        <time>2021-07-04T14:02:43Z</time>
      </trkpt>
      <trkpt lat="44.24217" lon="4.5513">
        <ele>246</ele>
        <time>2021-07-04T14:02:49Z</time>
      </trkpt>
      <trkpt lat="44.24207" lon="4.55146">
        <ele>243</ele>
        <time>2021-07-04T14:02:53Z</time>
      </trkpt>
      <trkpt lat="44.24196" lon="4.55157">
        <ele>241</ele>
        <time>2021-07-04T14:02:56Z</time>
      </trkpt>
      <trkpt lat="44.24179" lon="4.55161">
        <ele>239</ele>
        <time>2021-07-04T14:03:00Z</time>
      </trkpt>
      <trkpt lat="44.24164" lon="4.55149">
        <ele>240</ele>
        <time>2021-07-04T14:03:04Z</time>
      </trkpt>
      <trkpt lat="44.24156" lon="4.55132">
        <ele>243</ele>
        <time>2021-07-04T14:03:07Z</time>
      </trkpt>
      <trkpt lat="44.24129" lon="4.55088">
        <ele>250</ele>
        <time>2021-07-04T14:03:17Z</time>
      </trkpt>
      <trkpt lat="44.24077" lon="4.55058">
        <ele>255</ele>
        <time>2021-07-04T14:03:30Z</time>
      </trkpt>
      <trkpt lat="44.23995" lon="4.55064">
        <ele>247</ele>
        <time>2021-07-04T14:03:49Z</time>
      </trkpt>
      <trkpt lat="44.23948" lon="4.55061">
        <ele>241</ele>
        <time>2021-07-04T14:04:00Z</time>
      </trkpt>
      <trkpt lat="44.23933" lon="4.55045">
        <ele>242</ele>
        <time>2021-07-04T14:04:05Z</time>
      </trkpt>
      <trkpt lat="44.23919" lon="4.54988">
        <ele>248</ele>
        <time>2021-07-04T14:04:15Z</time>
      </trkpt>
      <trkpt lat="44.23899" lon="4.5498">
        <ele>249</ele>
        <time>2021-07-04T14:04:20Z</time>
      </trkpt>
      <trkpt lat="44.23883" lon="4.55027">
        <ele>243</ele>
        <time>2021-07-04T14:04:28Z</time>
      </trkpt>
      <trkpt lat="44.23852" lon="4.55032">
        <ele>244</ele>
        <time>2021-07-04T14:04:36Z</time>
      </trkpt>
      <trkpt lat="44.23844" lon="4.55104">
        <ele>238</ele>
        <time>2021-07-04T14:04:48Z</time>
      </trkpt>
      <trkpt lat="44.23872" lon="4.5528">
        <ele>220</ele>
        <time>2021-07-04T14:05:18Z</time>
      </trkpt>
      <trkpt lat="44.23872" lon="4.55302">
        <ele>218</ele>
        <time>2021-07-04T14:05:22Z</time>
      </trkpt>
      <trkpt lat="44.2386" lon="4.55304">
        <ele>221</ele>
        <time>2021-07-04T14:05:24Z</time>
      </trkpt>
      <trkpt lat="44.2385" lon="4.55318">
        <ele>222</ele>
        <time>2021-07-04T14:05:28Z</time>
      </trkpt>
      <trkpt lat="44.23842" lon="4.55313">
        <ele>225</ele>
        <time>2021-07-04T14:05:30Z</time>
      </trkpt>
      <trkpt lat="44.23838" lon="4.55313">
        <ele>226</ele>
        <time>2021-07-04T14:05:31Z</time>
      </trkpt>
      <trkpt lat="44.23828" lon="4.55326">
        <ele>226</ele>
        <time>2021-07-04T14:05:34Z</time>
      </trkpt>
      <trkpt lat="44.23825" lon="4.55326">
        <ele>227</ele>
        <time>2021-07-04T14:05:35Z</time>
      </trkpt>
      <trkpt lat="44.23804" lon="4.55315">
        <ele>230</ele>
        <time>2021-07-04T14:05:40Z</time>
      </trkpt>
      <trkpt lat="44.23757" lon="4.55277">
        <ele>240</ele>
        <time>2021-07-04T14:05:53Z</time>
      </trkpt>
      <trkpt lat="44.23738" lon="4.55274">
        <ele>243</ele>
        <time>2021-07-04T14:05:57Z</time>
      </trkpt>
      <trkpt lat="44.23703" lon="4.5528">
        <ele>249</ele>
        <time>2021-07-04T14:06:05Z</time>
      </trkpt>
      <trkpt lat="44.23691" lon="4.55278">
        <ele>252</ele>
        <time>2021-07-04T14:06:08Z</time>
      </trkpt>
      <trkpt lat="44.23702" lon="4.5521">
        <ele>256</ele>
        <time>2021-07-04T14:06:20Z</time>
      </trkpt>
      <trkpt lat="44.23714" lon="4.55186">
        <ele>255</ele>
        <time>2021-07-04T14:06:25Z</time>
      </trkpt>
      <trkpt lat="44.2372" lon="4.55164">
        <ele>255</ele>
        <time>2021-07-04T14:06:29Z</time>
      </trkpt>
      <trkpt lat="44.23712" lon="4.55115">
        <ele>260</ele>
        <time>2021-07-04T14:06:37Z</time>
      </trkpt>
      <trkpt lat="44.23718" lon="4.55103">
        <ele>259</ele>
        <time>2021-07-04T14:06:39Z</time>
      </trkpt>
      <trkpt lat="44.23723" lon="4.551">
        <ele>258</ele>
        <time>2021-07-04T14:06:41Z</time>
      </trkpt>
      <trkpt lat="44.23754" lon="4.55096">
        <ele>252</ele>
        <time>2021-07-04T14:06:48Z</time>
      </trkpt>
      <trkpt lat="44.23764" lon="4.55091">
        <ele>251</ele>
        <time>2021-07-04T14:06:50Z</time>
      </trkpt>
      <trkpt lat="44.23775" lon="4.55076">
        <ele>250</ele>
        <time>2021-07-04T14:06:54Z</time>
      </trkpt>
      <trkpt lat="44.23779" lon="4.55041">
        <ele>251</ele>
        <time>2021-07-04T14:07:00Z</time>
      </trkpt>
      <trkpt lat="44.23773" lon="4.55019">
        <ele>253</ele>
        <time>2021-07-04T14:07:04Z</time>
      </trkpt>
      <trkpt lat="44.23768" lon="4.55057">
        <ele>252</ele>
        <time>2021-07-04T14:07:10Z</time>
      </trkpt>
      <trkpt lat="44.23755" lon="4.55068">
        <ele>254</ele>
        <time>2021-07-04T14:07:14Z</time>
      </trkpt>
      <trkpt lat="44.23747" lon="4.55067">
        <ele>255</ele>
        <time>2021-07-04T14:07:16Z</time>
      </trkpt>
      <trkpt lat="44.23732" lon="4.5506">
        <ele>258</ele>
        <time>2021-07-04T14:07:20Z</time>
      </trkpt>
      <trkpt lat="44.23711" lon="4.55046">
        <ele>262</ele>
        <time>2021-07-04T14:07:25Z</time>
      </trkpt>
      <trkpt lat="44.23692" lon="4.55024">
        <ele>266</ele>
        <time>2021-07-04T14:07:31Z</time>
      </trkpt>
      <trkpt lat="44.23682" lon="4.55001">
        <ele>268</ele>
        <time>2021-07-04T14:07:35Z</time>
      </trkpt>
      <trkpt lat="44.23656" lon="4.54964">
        <ele>273</ele>
        <time>2021-07-04T14:07:44Z</time>
      </trkpt>
      <trkpt lat="44.23638" lon="4.54955">
        <ele>278</ele>
        <time>2021-07-04T14:07:48Z</time>
      </trkpt>
      <trkpt lat="44.2359" lon="4.54898">
        <ele>291</ele>
        <time>2021-07-04T14:08:03Z</time>
      </trkpt>
      <trkpt lat="44.23583" lon="4.54902">
        <ele>293</ele>
        <time>2021-07-04T14:08:05Z</time>
      </trkpt>
      <trkpt lat="44.23577" lon="4.54902">
        <ele>294</ele>
        <time>2021-07-04T14:08:06Z</time>
      </trkpt>
      <trkpt lat="44.23568" lon="4.54898">
        <ele>296</ele>
        <time>2021-07-04T14:08:08Z</time>
      </trkpt>
      <trkpt lat="44.23554" lon="4.54882">
        <ele>298</ele>
        <time>2021-07-04T14:08:13Z</time>
      </trkpt>
      <trkpt lat="44.23551" lon="4.54875">
        <ele>298</ele>
        <time>2021-07-04T14:08:14Z</time>
      </trkpt>
      <trkpt lat="44.23552" lon="4.54866">
        <ele>297</ele>
        <time>2021-07-04T14:08:16Z</time>
      </trkpt>
      <trkpt lat="44.23586" lon="4.54823">
        <ele>289</ele>
        <time>2021-07-04T14:08:26Z</time>
      </trkpt>
      <trkpt lat="44.23597" lon="4.54805">
        <ele>284</ele>
        <time>2021-07-04T14:08:30Z</time>
      </trkpt>
      <trkpt lat="44.23601" lon="4.54794">
        <ele>281</ele>
        <time>2021-07-04T14:08:32Z</time>
      </trkpt>
      <trkpt lat="44.23602" lon="4.54782">
        <ele>279</ele>
        <time>2021-07-04T14:08:34Z</time>
      </trkpt>
      <trkpt lat="44.236" lon="4.54777">
        <ele>278</ele>
        <time>2021-07-04T14:08:35Z</time>
      </trkpt>
      <trkpt lat="44.23594" lon="4.54776">
        <ele>279</ele>
        <time>2021-07-04T14:08:37Z</time>
      </trkpt>
      <trkpt lat="44.23579" lon="4.54779">
        <ele>282</ele>
        <time>2021-07-04T14:08:40Z</time>
      </trkpt>
      <trkpt lat="44.2345" lon="4.54822">
        <ele>303</ele>
        <time>2021-07-04T14:09:11Z</time>
      </trkpt>
      <trkpt lat="44.23397" lon="4.54845">
        <ele>308</ele>
        <time>2021-07-04T14:09:24Z</time>
      </trkpt>
      <trkpt lat="44.23383" lon="4.54849">
        <ele>309</ele>
        <time>2021-07-04T14:09:28Z</time>
      </trkpt>
      <trkpt lat="44.23371" lon="4.54846">
        <ele>308</ele>
        <time>2021-07-04T14:09:30Z</time>
      </trkpt>
      <trkpt lat="44.23344" lon="4.54834">
        <ele>304</ele>
        <time>2021-07-04T14:09:37Z</time>
      </trkpt>
      <trkpt lat="44.23319" lon="4.54833">
        <ele>301</ele>
        <time>2021-07-04T14:09:43Z</time>
      </trkpt>
      <trkpt lat="44.23302" lon="4.54845">
        <ele>302</ele>
        <time>2021-07-04T14:09:47Z</time>
      </trkpt>
      <trkpt lat="44.23297" lon="4.54854">
        <ele>304</ele>
        <time>2021-07-04T14:09:49Z</time>
      </trkpt>
      <trkpt lat="44.23267" lon="4.54869">
        <ele>304</ele>
        <time>2021-07-04T14:09:57Z</time>
      </trkpt>
      <trkpt lat="44.23258" lon="4.54887">
        <ele>308</ele>
        <time>2021-07-04T14:10:00Z</time>
      </trkpt>
      <trkpt lat="44.23252" lon="4.5489">
        <ele>308</ele>
        <time>2021-07-04T14:10:02Z</time>
      </trkpt>
      <trkpt lat="44.23202" lon="4.54851">
        <ele>297</ele>
        <time>2021-07-04T14:10:15Z</time>
      </trkpt>
      <trkpt lat="44.23194" lon="4.5484">
        <ele>294</ele>
        <time>2021-07-04T14:10:18Z</time>
      </trkpt>
      <trkpt lat="44.23184" lon="4.54838">
        <ele>294</ele>
        <time>2021-07-04T14:10:20Z</time>
      </trkpt>
      <trkpt lat="44.23133" lon="4.54848">
        <ele>293</ele>
        <time>2021-07-04T14:10:32Z</time>
      </trkpt>
      <trkpt lat="44.23125" lon="4.54861">
        <ele>294</ele>
        <time>2021-07-04T14:10:35Z</time>
      </trkpt>
      <trkpt lat="44.23122" lon="4.54901">
        <ele>300</ele>
        <time>2021-07-04T14:10:42Z</time>
      </trkpt>
      <trkpt lat="44.23118" lon="4.54909">
        <ele>301</ele>
        <time>2021-07-04T14:10:43Z</time>
      </trkpt>
      <trkpt lat="44.23108" lon="4.54912">
        <ele>300</ele>
        <time>2021-07-04T14:10:46Z</time>
      </trkpt>
      <trkpt lat="44.23087" lon="4.54908">
        <ele>296</ele>
        <time>2021-07-04T14:10:51Z</time>
      </trkpt>
      <trkpt lat="44.23081" lon="4.54909">
        <ele>295</ele>
        <time>2021-07-04T14:10:52Z</time>
      </trkpt>
      <trkpt lat="44.23074" lon="4.54914">
        <ele>294</ele>
        <time>2021-07-04T14:10:54Z</time>
      </trkpt>
      <trkpt lat="44.23059" lon="4.5494">
        <ele>297</ele>
        <time>2021-07-04T14:11:00Z</time>
      </trkpt>
      <trkpt lat="44.23049" lon="4.54945">
        <ele>296</ele>
        <time>2021-07-04T14:11:02Z</time>
      </trkpt>
      <trkpt lat="44.23025" lon="4.54945">
        <ele>291</ele>
        <time>2021-07-04T14:11:08Z</time>
      </trkpt>
      <trkpt lat="44.23007" lon="4.54951">
        <ele>289</ele>
        <time>2021-07-04T14:11:12Z</time>
      </trkpt>
      <trkpt lat="44.22992" lon="4.5496">
        <ele>289</ele>
        <time>2021-07-04T14:11:16Z</time>
      </trkpt>
      <trkpt lat="44.2298" lon="4.54973">
        <ele>291</ele>
        <time>2021-07-04T14:11:19Z</time>
      </trkpt>
      <trkpt lat="44.22971" lon="4.54979">
        <ele>291</ele>
        <time>2021-07-04T14:11:22Z</time>
      </trkpt>
      <trkpt lat="44.22957" lon="4.54981">
        <ele>290</ele>
        <time>2021-07-04T14:11:25Z</time>
      </trkpt>
      <trkpt lat="44.22914" lon="4.5498">
        <ele>286</ele>
        <time>2021-07-04T14:11:35Z</time>
      </trkpt>
      <trkpt lat="44.229" lon="4.54973">
        <ele>284</ele>
        <time>2021-07-04T14:11:38Z</time>
      </trkpt>
      <trkpt lat="44.22887" lon="4.54963">
        <ele>282</ele>
        <time>2021-07-04T14:11:42Z</time>
      </trkpt>
      <trkpt lat="44.22875" lon="4.54958">
        <ele>281</ele>
        <time>2021-07-04T14:11:45Z</time>
      </trkpt>
      <trkpt lat="44.22828" lon="4.54955">
        <ele>282</ele>
        <time>2021-07-04T14:11:56Z</time>
      </trkpt>
      <trkpt lat="44.22766" lon="4.54895">
        <ele>272</ele>
        <time>2021-07-04T14:12:13Z</time>
      </trkpt>
      <trkpt lat="44.22756" lon="4.54891">
        <ele>272</ele>
        <time>2021-07-04T14:12:16Z</time>
      </trkpt>
      <trkpt lat="44.22718" lon="4.54887">
        <ele>271</ele>
        <time>2021-07-04T14:12:25Z</time>
      </trkpt>
      <trkpt lat="44.22683" lon="4.54891">
        <ele>272</ele>
        <time>2021-07-04T14:12:33Z</time>
      </trkpt>
      <trkpt lat="44.2267" lon="4.54898">
        <ele>273</ele>
        <time>2021-07-04T14:12:36Z</time>
      </trkpt>
      <trkpt lat="44.22657" lon="4.549">
        <ele>273</ele>
        <time>2021-07-04T14:12:39Z</time>
      </trkpt>
      <trkpt lat="44.22644" lon="4.549">
        <ele>272</ele>
        <time>2021-07-04T14:12:42Z</time>
      </trkpt>
      <trkpt lat="44.22628" lon="4.54896">
        <ele>271</ele>
        <time>2021-07-04T14:12:46Z</time>
      </trkpt>
      <trkpt lat="44.22625" lon="4.54893">
        <ele>270</ele>
        <time>2021-07-04T14:12:47Z</time>
      </trkpt>
      <trkpt lat="44.22579" lon="4.54875">
        <ele>266</ele>
        <time>2021-07-04T14:12:58Z</time>
      </trkpt>
      <trkpt lat="44.22568" lon="4.54867">
        <ele>264</ele>
        <time>2021-07-04T14:13:01Z</time>
      </trkpt>
      <trkpt lat="44.22544" lon="4.54841">
        <ele>257</ele>
        <time>2021-07-04T14:13:08Z</time>
      </trkpt>
      <trkpt lat="44.22544" lon="4.54844">
        <ele>258</ele>
        <time>2021-07-04T14:13:09Z</time>
      </trkpt>
      <trkpt lat="44.22535" lon="4.54848">
        <ele>258</ele>
        <time>2021-07-04T14:13:11Z</time>
      </trkpt>
      <trkpt lat="44.22409" lon="4.54944">
        <ele>266</ele>
        <time>2021-07-04T14:13:44Z</time>
      </trkpt>
      <trkpt lat="44.22245" lon="4.54981">
        <ele>271</ele>
        <time>2021-07-04T14:14:23Z</time>
      </trkpt>
      <trkpt lat="44.22194" lon="4.54957">
        <ele>272</ele>
        <time>2021-07-04T14:14:36Z</time>
      </trkpt>
      <trkpt lat="44.22195" lon="4.54964">
        <ele>272</ele>
        <time>2021-07-04T14:14:37Z</time>
      </trkpt>
      <trkpt lat="44.22162" lon="4.54976">
        <ele>273</ele>
        <time>2021-07-04T14:14:45Z</time>
      </trkpt>
      <trkpt lat="44.22135" lon="4.54976">
        <ele>276</ele>
        <time>2021-07-04T14:14:51Z</time>
      </trkpt>
      <trkpt lat="44.22086" lon="4.55">
        <ele>277</ele>
        <time>2021-07-04T14:15:03Z</time>
      </trkpt>
      <trkpt lat="44.22047" lon="4.55003">
        <ele>276</ele>
        <time>2021-07-04T14:15:12Z</time>
      </trkpt>
      <trkpt lat="44.22018" lon="4.5501">
        <ele>274</ele>
        <time>2021-07-04T14:15:19Z</time>
      </trkpt>
      <trkpt lat="44.21965" lon="4.55007">
        <ele>271</ele>
        <time>2021-07-04T14:15:32Z</time>
      </trkpt>
      <trkpt lat="44.21852" lon="4.54991">
        <ele>260</ele>
        <time>2021-07-04T14:15:58Z</time>
      </trkpt>
      <trkpt lat="44.21842" lon="4.54992">
        <ele>258</ele>
        <time>2021-07-04T14:16:01Z</time>
      </trkpt>
      <trkpt lat="44.21836" lon="4.54997">
        <ele>257</ele>
        <time>2021-07-04T14:16:02Z</time>
      </trkpt>
      <trkpt lat="44.21831" lon="4.55007">
        <ele>255</ele>
        <time>2021-07-04T14:16:04Z</time>
      </trkpt>
      <trkpt lat="44.218" lon="4.5511">
        <ele>246</ele>
        <time>2021-07-04T14:16:23Z</time>
      </trkpt>
      <trkpt lat="44.21791" lon="4.55125">
        <ele>244</ele>
        <time>2021-07-04T14:16:26Z</time>
      </trkpt>
      <trkpt lat="44.21772" lon="4.5513">
        <ele>243</ele>
        <time>2021-07-04T14:16:31Z</time>
      </trkpt>
      <trkpt lat="44.21696" lon="4.55113">
        <ele>242</ele>
        <time>2021-07-04T14:16:49Z</time>
      </trkpt>
      <trkpt lat="44.21676" lon="4.55111">
        <ele>242</ele>
        <time>2021-07-04T14:16:53Z</time>
      </trkpt>
      <trkpt lat="44.21656" lon="4.55112">
        <ele>240</ele>
        <time>2021-07-04T14:16:58Z</time>
      </trkpt>
      <trkpt lat="44.21646" lon="4.55115">
        <ele>238</ele>
        <time>2021-07-04T14:17:00Z</time>
      </trkpt>
      <trkpt lat="44.21613" lon="4.55102">
        <ele>233</ele>
        <time>2021-07-04T14:17:08Z</time>
      </trkpt>
      <trkpt lat="44.21589" lon="4.55087">
        <ele>230</ele>
        <time>2021-07-04T14:17:15Z</time>
      </trkpt>
      <trkpt lat="44.21566" lon="4.55066">
        <ele>230</ele>
        <time>2021-07-04T14:17:21Z</time>
      </trkpt>
      <trkpt lat="44.21532" lon="4.55046">
        <ele>227</ele>
        <time>2021-07-04T14:17:30Z</time>
      </trkpt>
      <trkpt lat="44.2151" lon="4.55037">
        <ele>224</ele>
        <time>2021-07-04T14:17:35Z</time>
      </trkpt>
      <trkpt lat="44.21472" lon="4.55033">
        <ele>217</ele>
        <time>2021-07-04T14:17:44Z</time>
      </trkpt>
      <trkpt lat="44.21408" lon="4.5496">
        <ele>211</ele>
        <time>2021-07-04T14:18:03Z</time>
      </trkpt>
      <trkpt lat="44.21357" lon="4.54945">
        <ele>200</ele>
        <time>2021-07-04T14:18:15Z</time>
      </trkpt>
      <trkpt lat="44.21337" lon="4.54947">
        <ele>195</ele>
        <time>2021-07-04T14:18:20Z</time>
      </trkpt>
      <trkpt lat="44.21318" lon="4.54954">
        <ele>192</ele>
        <time>2021-07-04T14:18:25Z</time>
      </trkpt>
      <trkpt lat="44.21293" lon="4.54968">
        <ele>188</ele>
        <time>2021-07-04T14:18:31Z</time>
      </trkpt>
      <trkpt lat="44.21238" lon="4.54981">
        <ele>183</ele>
        <time>2021-07-04T14:18:44Z</time>
      </trkpt>
      <trkpt lat="44.212" lon="4.54975">
        <ele>180</ele>
        <time>2021-07-04T14:18:53Z</time>
      </trkpt>
      <trkpt lat="44.21157" lon="4.54962">
        <ele>178</ele>
        <time>2021-07-04T14:19:03Z</time>
      </trkpt>
      <trkpt lat="44.21141" lon="4.54954">
        <ele>177</ele>
        <time>2021-07-04T14:19:07Z</time>
      </trkpt>
      <trkpt lat="44.21122" lon="4.54941">
        <ele>176</ele>
        <time>2021-07-04T14:19:12Z</time>
      </trkpt>
      <trkpt lat="44.21109" lon="4.54928">
        <ele>175</ele>
        <time>2021-07-04T14:19:16Z</time>
      </trkpt>
      <trkpt lat="44.21097" lon="4.54909">
        <ele>175</ele>
        <time>2021-07-04T14:19:20Z</time>
      </trkpt>
      <trkpt lat="44.21086" lon="4.54884">
        <ele>174</ele>
        <time>2021-07-04T14:19:25Z</time>
      </trkpt>
      <trkpt lat="44.21046" lon="4.54879">
        <ele>174</ele>
        <time>2021-07-04T14:19:34Z</time>
      </trkpt>
      <trkpt lat="44.21046" lon="4.54881">
        <ele>174</ele>
        <time>2021-07-04T14:19:35Z</time>
      </trkpt>
      <trkpt lat="44.21045" lon="4.54839">
        <ele>174</ele>
        <time>2021-07-04T14:19:42Z</time>
      </trkpt>
      <trkpt lat="44.21078" lon="4.54811">
        <ele>171</ele>
        <time>2021-07-04T14:19:51Z</time>
      </trkpt>
      <trkpt lat="44.21083" lon="4.54776">
        <ele>168</ele>
        <time>2021-07-04T14:19:57Z</time>
      </trkpt>
      <trkpt lat="44.21086" lon="4.54776">
        <ele>168</ele>
        <time>2021-07-04T14:19:57Z</time>
      </trkpt>
      <trkpt lat="44.21085" lon="4.54781">
        <ele>169</ele>
        <time>2021-07-04T14:19:58Z</time>
      </trkpt>
      <trkpt lat="44.21047" lon="4.54768">
        <ele>166</ele>
        <time>2021-07-04T14:20:07Z</time>
      </trkpt>
      <trkpt lat="44.21025" lon="4.54753">
        <ele>164</ele>
        <time>2021-07-04T14:20:13Z</time>
      </trkpt>
      <trkpt lat="44.20984" lon="4.54736">
        <ele>160</ele>
        <time>2021-07-04T14:20:23Z</time>
      </trkpt>
      <trkpt lat="44.20935" lon="4.54707">
        <ele>156</ele>
        <time>2021-07-04T14:20:36Z</time>
      </trkpt>
      <trkpt lat="44.20879" lon="4.54663">
        <ele>146</ele>
        <time>2021-07-04T14:20:51Z</time>
      </trkpt>
      <trkpt lat="44.20874" lon="4.54655">
        <ele>145</ele>
        <time>2021-07-04T14:20:52Z</time>
      </trkpt>
      <trkpt lat="44.20865" lon="4.54648">
        <ele>144</ele>
        <time>2021-07-04T14:20:55Z</time>
      </trkpt>
      <trkpt lat="44.2078" lon="4.54596">
        <ele>144</ele>
        <time>2021-07-04T14:21:16Z</time>
      </trkpt>
      <trkpt lat="44.20779" lon="4.54586">
        <ele>144</ele>
        <time>2021-07-04T14:21:18Z</time>
      </trkpt>
      <trkpt lat="44.2078" lon="4.54596">
        <ele>144</ele>
        <time>2021-07-04T14:21:20Z</time>
      </trkpt>
      <trkpt lat="44.20762" lon="4.54614">
        <ele>144</ele>
        <time>2021-07-04T14:21:25Z</time>
      </trkpt>
      <trkpt lat="44.20754" lon="4.54615">
        <ele>145</ele>
        <time>2021-07-04T14:21:27Z</time>
      </trkpt>
      <trkpt lat="44.20685" lon="4.54585">
        <ele>145</ele>
        <time>2021-07-04T14:21:44Z</time>
      </trkpt>
      <trkpt lat="44.20624" lon="4.54563">
        <ele>146</ele>
        <time>2021-07-04T14:21:58Z</time>
      </trkpt>
      <trkpt lat="44.20593" lon="4.54555">
        <ele>147</ele>
        <time>2021-07-04T14:22:06Z</time>
      </trkpt>
      <trkpt lat="44.20586" lon="4.54567">
        <ele>147</ele>
        <time>2021-07-04T14:22:08Z</time>
      </trkpt>
      <trkpt lat="44.20581" lon="4.5459">
        <ele>144</ele>
        <time>2021-07-04T14:22:12Z</time>
      </trkpt>
      <trkpt lat="44.20558" lon="4.54568">
        <ele>144</ele>
        <time>2021-07-04T14:22:19Z</time>
      </trkpt>
      <trkpt lat="44.20477" lon="4.54519">
        <ele>143</ele>
        <time>2021-07-04T14:22:40Z</time>
      </trkpt>
      <trkpt lat="44.2045" lon="4.54506">
        <ele>142</ele>
        <time>2021-07-04T14:22:46Z</time>
      </trkpt>
      <trkpt lat="44.2042" lon="4.54499">
        <ele>139</ele>
        <time>2021-07-04T14:22:53Z</time>
      </trkpt>
      <trkpt lat="44.20405" lon="4.545">
        <ele>138</ele>
        <time>2021-07-04T14:22:57Z</time>
      </trkpt>
      <trkpt lat="44.20373" lon="4.54493">
        <ele>136</ele>
        <time>2021-07-04T14:23:04Z</time>
      </trkpt>
      <trkpt lat="44.20364" lon="4.54489">
        <ele>135</ele>
        <time>2021-07-04T14:23:07Z</time>
      </trkpt>
      <trkpt lat="44.20353" lon="4.54468">
        <ele>134</ele>
        <time>2021-07-04T14:23:11Z</time>
      </trkpt>
      <trkpt lat="44.20284" lon="4.5446">
        <ele>124</ele>
        <time>2021-07-04T14:23:27Z</time>
      </trkpt>
      <trkpt lat="44.20261" lon="4.54461">
        <ele>120</ele>
        <time>2021-07-04T14:23:32Z</time>
      </trkpt>
      <trkpt lat="44.20243" lon="4.54409">
        <ele>117</ele>
        <time>2021-07-04T14:23:42Z</time>
      </trkpt>
      <trkpt lat="44.20242" lon="4.54413">
        <ele>117</ele>
        <time>2021-07-04T14:23:43Z</time>
      </trkpt>
      <trkpt lat="44.20231" lon="4.54411">
        <ele>116</ele>
        <time>2021-07-04T14:23:45Z</time>
      </trkpt>
      <trkpt lat="44.20219" lon="4.54412">
        <ele>115</ele>
        <time>2021-07-04T14:23:48Z</time>
      </trkpt>
      <trkpt lat="44.20207" lon="4.54416">
        <ele>114</ele>
        <time>2021-07-04T14:23:51Z</time>
      </trkpt>
      <trkpt lat="44.20183" lon="4.54414">
        <ele>112</ele>
        <time>2021-07-04T14:23:57Z</time>
      </trkpt>
      <trkpt lat="44.20153" lon="4.54407">
        <ele>109</ele>
        <time>2021-07-04T14:24:04Z</time>
      </trkpt>
      <trkpt lat="44.20106" lon="4.54379">
        <ele>104</ele>
        <time>2021-07-04T14:24:16Z</time>
      </trkpt>
      <trkpt lat="44.20108" lon="4.54355">
        <ele>103</ele>
        <time>2021-07-04T14:24:20Z</time>
      </trkpt>
      <trkpt lat="44.20149" lon="4.54266">
        <ele>104</ele>
        <time>2021-07-04T14:24:38Z</time>
      </trkpt>
      <trkpt lat="44.20235" lon="4.54164">
        <ele>103</ele>
        <time>2021-07-04T14:25:04Z</time>
      </trkpt>
      <trkpt lat="44.20291" lon="4.54084">
        <ele>100</ele>
        <time>2021-07-04T14:25:23Z</time>
      </trkpt>
      <trkpt lat="44.20297" lon="4.54069">
        <ele>98</ele>
        <time>2021-07-04T14:25:26Z</time>
      </trkpt>
      <trkpt lat="44.20302" lon="4.5407">
        <ele>98</ele>
        <time>2021-07-04T14:25:27Z</time>
      </trkpt>
      <trkpt lat="44.20316" lon="4.54062">
        <ele>98</ele>
        <time>2021-07-04T14:25:30Z</time>
      </trkpt>
      <trkpt lat="44.20344" lon="4.54054">
        <ele>98</ele>
        <time>2021-07-04T14:25:37Z</time>
      </trkpt>
      <trkpt lat="44.20409" lon="4.54049">
        <ele>100</ele>
        <time>2021-07-04T14:25:52Z</time>
      </trkpt>
      <trkpt lat="44.20451" lon="4.54051">
        <ele>101</ele>
        <time>2021-07-04T14:26:02Z</time>
      </trkpt>
      <trkpt lat="44.20458" lon="4.54049">
        <ele>101</ele>
        <time>2021-07-04T14:26:04Z</time>
      </trkpt>
      <trkpt lat="44.20473" lon="4.54042">
        <ele>101</ele>
        <time>2021-07-04T14:26:07Z</time>
      </trkpt>
      <trkpt lat="44.2057" lon="4.53975">
        <ele>100</ele>
        <time>2021-07-04T14:26:33Z</time>
      </trkpt>
      <trkpt lat="44.20606" lon="4.53957">
        <ele>101</ele>
        <time>2021-07-04T14:26:41Z</time>
      </trkpt>
      <trkpt lat="44.20659" lon="4.53935">
        <ele>104</ele>
        <time>2021-07-04T14:26:54Z</time>
      </trkpt>
      <trkpt lat="44.20702" lon="4.53921">
        <ele>106</ele>
        <time>2021-07-04T14:27:05Z</time>
      </trkpt>
      <trkpt lat="44.2075" lon="4.53909">
        <ele>108</ele>
        <time>2021-07-04T14:27:16Z</time>
      </trkpt>
      <trkpt lat="44.2079" lon="4.53905">
        <ele>109</ele>
        <time>2021-07-04T14:27:25Z</time>
      </trkpt>
      <trkpt lat="44.20795" lon="4.53901">
        <ele>110</ele>
        <time>2021-07-04T14:27:27Z</time>
      </trkpt>
      <trkpt lat="44.20792" lon="4.53891">
        <ele>109</ele>
        <time>2021-07-04T14:27:29Z</time>
      </trkpt>
      <trkpt lat="44.20795" lon="4.53901">
        <ele>110</ele>
        <time>2021-07-04T14:27:30Z</time>
      </trkpt>
      <trkpt lat="44.20808" lon="4.53897">
        <ele>110</ele>
        <time>2021-07-04T14:27:34Z</time>
      </trkpt>
      <trkpt lat="44.20815" lon="4.53889">
        <ele>110</ele>
        <time>2021-07-04T14:27:36Z</time>
      </trkpt>
      <trkpt lat="44.20838" lon="4.5385">
        <ele>111</ele>
        <time>2021-07-04T14:27:44Z</time>
      </trkpt>
      <trkpt lat="44.20905" lon="4.53729">
        <ele>110</ele>
        <time>2021-07-04T14:28:10Z</time>
      </trkpt>
      <trkpt lat="44.21018" lon="4.53648">
        <ele>109</ele>
        <time>2021-07-04T14:28:39Z</time>
      </trkpt>
      <trkpt lat="44.21125" lon="4.53536">
        <ele>103</ele>
        <time>2021-07-04T14:29:11Z</time>
      </trkpt>
      <trkpt lat="44.2113" lon="4.53521">
        <ele>102</ele>
        <time>2021-07-04T14:29:13Z</time>
      </trkpt>
      <trkpt lat="44.2117" lon="4.53442">
        <ele>101</ele>
        <time>2021-07-04T14:29:30Z</time>
      </trkpt>
      <trkpt lat="44.21173" lon="4.53422">
        <ele>101</ele>
        <time>2021-07-04T14:29:33Z</time>
      </trkpt>
      <trkpt lat="44.21178" lon="4.53331">
        <ele>101</ele>
        <time>2021-07-04T14:29:48Z</time>
      </trkpt>
      <trkpt lat="44.21218" lon="4.53165">
        <ele>103</ele>
        <time>2021-07-04T14:30:18Z</time>
      </trkpt>
      <trkpt lat="44.21122" lon="4.53129">
        <ele>96</ele>
        <time>2021-07-04T14:30:41Z</time>
      </trkpt>
      <trkpt lat="44.21124" lon="4.53129">
        <ele>96</ele>
        <time>2021-07-04T14:30:41Z</time>
      </trkpt>
      <trkpt lat="44.21151" lon="4.53062">
        <ele>98</ele>
        <time>2021-07-04T14:30:54Z</time>
      </trkpt>
      <trkpt lat="44.21169" lon="4.53007">
        <ele>97</ele>
        <time>2021-07-04T14:31:04Z</time>
      </trkpt>
      <trkpt lat="44.21195" lon="4.52963">
        <ele>95</ele>
        <time>2021-07-04T14:31:14Z</time>
      </trkpt>
      <trkpt lat="44.21213" lon="4.52912">
        <ele>91</ele>
        <time>2021-07-04T14:31:23Z</time>
      </trkpt>
      <trkpt lat="44.21216" lon="4.52913">
        <ele>91</ele>
        <time>2021-07-04T14:31:24Z</time>
      </trkpt>
      <trkpt lat="44.21219" lon="4.5291">
        <ele>91</ele>
        <time>2021-07-04T14:31:25Z</time>
      </trkpt>
      <trkpt lat="44.21249" lon="4.52929">
        <ele>93</ele>
        <time>2021-07-04T14:31:33Z</time>
      </trkpt>
      <trkpt lat="44.21281" lon="4.52928">
        <ele>92</ele>
        <time>2021-07-04T14:31:40Z</time>
      </trkpt>
      <trkpt lat="44.21289" lon="4.52922">
        <ele>91</ele>
        <time>2021-07-04T14:31:42Z</time>
      </trkpt>
      <trkpt lat="44.21296" lon="4.52914">
        <ele>91</ele>
        <time>2021-07-04T14:31:44Z</time>
      </trkpt>
      <trkpt lat="44.21308" lon="4.52892">
        <ele>90</ele>
        <time>2021-07-04T14:31:49Z</time>
      </trkpt>
      <trkpt lat="44.21329" lon="4.52832">
        <ele>90</ele>
        <time>2021-07-04T14:32:00Z</time>
      </trkpt>
      <trkpt lat="44.21361" lon="4.52723">
        <ele>90</ele>
        <time>2021-07-04T14:32:20Z</time>
      </trkpt>
      <trkpt lat="44.2137" lon="4.52717">
        <ele>90</ele>
        <time>2021-07-04T14:32:22Z</time>
      </trkpt>
      <trkpt lat="44.21385" lon="4.52717">
        <ele>90</ele>
        <time>2021-07-04T14:32:26Z</time>
      </trkpt>
      <trkpt lat="44.21427" lon="4.52738">
        <ele>91</ele>
        <time>2021-07-04T14:32:36Z</time>
      </trkpt>
      <trkpt lat="44.21436" lon="4.52737">
        <ele>91</ele>
        <time>2021-07-04T14:32:38Z</time>
      </trkpt>
      <trkpt lat="44.21512" lon="4.52679">
        <ele>92</ele>
        <time>2021-07-04T14:32:58Z</time>
      </trkpt>
      <trkpt lat="44.21572" lon="4.52624">
        <ele>93</ele>
        <time>2021-07-04T14:33:15Z</time>
      </trkpt>
      <trkpt lat="44.21526" lon="4.52555">
        <ele>91</ele>
        <time>2021-07-04T14:33:31Z</time>
      </trkpt>
      <trkpt lat="44.21516" lon="4.5251">
        <ele>90</ele>
        <time>2021-07-04T14:33:39Z</time>
      </trkpt>
      <trkpt lat="44.21515" lon="4.52504">
        <ele>90</ele>
        <time>2021-07-04T14:33:40Z</time>
      </trkpt>
      <trkpt lat="44.21529" lon="4.524">
        <ele>87</ele>
        <time>2021-07-04T14:33:58Z</time>
      </trkpt>
      <trkpt lat="44.21546" lon="4.52307">
        <ele>87</ele>
        <time>2021-07-04T14:34:14Z</time>
      </trkpt>
      <trkpt lat="44.21572" lon="4.52245">
        <ele>88</ele>
        <time>2021-07-04T14:34:26Z</time>
      </trkpt>
      <trkpt lat="44.21588" lon="4.52229">
        <ele>87</ele>
        <time>2021-07-04T14:34:30Z</time>
      </trkpt>
      <trkpt lat="44.21603" lon="4.52203">
        <ele>85</ele>
        <time>2021-07-04T14:34:36Z</time>
      </trkpt>
      <trkpt lat="44.2161" lon="4.52174">
        <ele>83</ele>
        <time>2021-07-04T14:34:41Z</time>
      </trkpt>
      <trkpt lat="44.21643" lon="4.52093">
        <ele>83</ele>
        <time>2021-07-04T14:34:57Z</time>
      </trkpt>
      <trkpt lat="44.21683" lon="4.51985">
        <ele>87</ele>
        <time>2021-07-04T14:35:17Z</time>
      </trkpt>
      <trkpt lat="44.21694" lon="4.51862">
        <ele>86</ele>
        <time>2021-07-04T14:35:38Z</time>
      </trkpt>
      <trkpt lat="44.21633" lon="4.51807">
        <ele>81</ele>
        <time>2021-07-04T14:35:55Z</time>
      </trkpt>
      <trkpt lat="44.21521" lon="4.5184">
        <ele>78</ele>
        <time>2021-07-04T14:36:21Z</time>
      </trkpt>
      <trkpt lat="44.21529" lon="4.51692">
        <ele>73</ele>
        <time>2021-07-04T14:36:46Z</time>
      </trkpt>
      <trkpt lat="44.21536" lon="4.51679">
        <ele>72</ele>
        <time>2021-07-04T14:36:49Z</time>
      </trkpt>
      <trkpt lat="44.21571" lon="4.51643">
        <ele>72</ele>
        <time>2021-07-04T14:36:59Z</time>
      </trkpt>
      <trkpt lat="44.21576" lon="4.5163">
        <ele>72</ele>
        <time>2021-07-04T14:37:02Z</time>
      </trkpt>
      <trkpt lat="44.21578" lon="4.5161">
        <ele>72</ele>
        <time>2021-07-04T14:37:05Z</time>
      </trkpt>
      <trkpt lat="44.21577" lon="4.51498">
        <ele>82</ele>
        <time>2021-07-04T14:37:24Z</time>
      </trkpt>
      <trkpt lat="44.21569" lon="4.51492">
        <ele>83</ele>
        <time>2021-07-04T14:37:26Z</time>
      </trkpt>
      <trkpt lat="44.21526" lon="4.51476">
        <ele>82</ele>
        <time>2021-07-04T14:37:36Z</time>
      </trkpt>
      <trkpt lat="44.21521" lon="4.51466">
        <ele>83</ele>
        <time>2021-07-04T14:37:38Z</time>
      </trkpt>
      <trkpt lat="44.21517" lon="4.51374">
        <ele>90</ele>
        <time>2021-07-04T14:37:54Z</time>
      </trkpt>
      <trkpt lat="44.21509" lon="4.51378">
        <ele>89</ele>
        <time>2021-07-04T14:37:56Z</time>
      </trkpt>
      <trkpt lat="44.21527" lon="4.51367">
        <ele>92</ele>
        <time>2021-07-04T14:38:00Z</time>
      </trkpt>
      <trkpt lat="44.21538" lon="4.51355">
        <ele>95</ele>
        <time>2021-07-04T14:38:03Z</time>
      </trkpt>
      <trkpt lat="44.21547" lon="4.51355">
        <ele>96</ele>
        <time>2021-07-04T14:38:06Z</time>
      </trkpt>
      <trkpt lat="44.21563" lon="4.51342">
        <ele>100</ele>
        <time>2021-07-04T14:38:10Z</time>
      </trkpt>
      <trkpt lat="44.21604" lon="4.51298">
        <ele>106</ele>
        <time>2021-07-04T14:38:22Z</time>
      </trkpt>
      <trkpt lat="44.21628" lon="4.51277">
        <ele>109</ele>
        <time>2021-07-04T14:38:29Z</time>
      </trkpt>
      <trkpt lat="44.21649" lon="4.51264">
        <ele>111</ele>
        <time>2021-07-04T14:38:34Z</time>
      </trkpt>
      <trkpt lat="44.21677" lon="4.51251">
        <ele>113</ele>
        <time>2021-07-04T14:38:41Z</time>
      </trkpt>
      <trkpt lat="44.21682" lon="4.51241">
        <ele>112</ele>
        <time>2021-07-04T14:38:43Z</time>
      </trkpt>
      <trkpt lat="44.21751" lon="4.51194">
        <ele>111</ele>
        <time>2021-07-04T14:39:01Z</time>
      </trkpt>
      <trkpt lat="44.21769" lon="4.51176">
        <ele>113</ele>
        <time>2021-07-04T14:39:06Z</time>
      </trkpt>
      <trkpt lat="44.21766" lon="4.51144">
        <ele>112</ele>
        <time>2021-07-04T14:39:11Z</time>
      </trkpt>
      <trkpt lat="44.21768" lon="4.51133">
        <ele>112</ele>
        <time>2021-07-04T14:39:13Z</time>
      </trkpt>
      <trkpt lat="44.21786" lon="4.51083">
        <ele>112</ele>
        <time>2021-07-04T14:39:23Z</time>
      </trkpt>
      <trkpt lat="44.21789" lon="4.51065">
        <ele>113</ele>
        <time>2021-07-04T14:39:26Z</time>
      </trkpt>
      <trkpt lat="44.21781" lon="4.51045">
        <ele>113</ele>
        <time>2021-07-04T14:39:30Z</time>
      </trkpt>
      <trkpt lat="44.21768" lon="4.51039">
        <ele>113</ele>
        <time>2021-07-04T14:39:33Z</time>
      </trkpt>
      <trkpt lat="44.21746" lon="4.51034">
        <ele>113</ele>
        <time>2021-07-04T14:39:38Z</time>
      </trkpt>
      <trkpt lat="44.21725" lon="4.51036">
        <ele>112</ele>
        <time>2021-07-04T14:39:43Z</time>
      </trkpt>
      <trkpt lat="44.21625" lon="4.50991">
        <ele>114</ele>
        <time>2021-07-04T14:40:07Z</time>
      </trkpt>
      <trkpt lat="44.21539" lon="4.50924">
        <ele>119</ele>
        <time>2021-07-04T14:40:30Z</time>
      </trkpt>
      <trkpt lat="44.21525" lon="4.5091">
        <ele>119</ele>
        <time>2021-07-04T14:40:34Z</time>
      </trkpt>
      <trkpt lat="44.21495" lon="4.50928">
        <ele>116</ele>
        <time>2021-07-04T14:40:42Z</time>
      </trkpt>
      <trkpt lat="44.21472" lon="4.50879">
        <ele>115</ele>
        <time>2021-07-04T14:40:52Z</time>
      </trkpt>
      <trkpt lat="44.21471" lon="4.50802">
        <ele>117</ele>
        <time>2021-07-04T14:41:05Z</time>
      </trkpt>
      <trkpt lat="44.21495" lon="4.50763">
        <ele>120</ele>
        <time>2021-07-04T14:41:13Z</time>
      </trkpt>
      <trkpt lat="44.21491" lon="4.50765">
        <ele>120</ele>
        <time>2021-07-04T14:41:14Z</time>
      </trkpt>
      <trkpt lat="44.21458" lon="4.50739">
        <ele>117</ele>
        <time>2021-07-04T14:41:23Z</time>
      </trkpt>
      <trkpt lat="44.21422" lon="4.50693">
        <ele>117</ele>
        <time>2021-07-04T14:41:35Z</time>
      </trkpt>
      <trkpt lat="44.21368" lon="4.50638">
        <ele>117</ele>
        <time>2021-07-04T14:41:50Z</time>
      </trkpt>
      <trkpt lat="44.21328" lon="4.50617">
        <ele>115</ele>
        <time>2021-07-04T14:42:00Z</time>
      </trkpt>
      <trkpt lat="44.21295" lon="4.50596">
        <ele>114</ele>
        <time>2021-07-04T14:42:09Z</time>
      </trkpt>
      <trkpt lat="44.21278" lon="4.50573">
        <ele>115</ele>
        <time>2021-07-04T14:42:14Z</time>
      </trkpt>
      <trkpt lat="44.21232" lon="4.50493">
        <ele>117</ele>
        <time>2021-07-04T14:42:31Z</time>
      </trkpt>
      <trkpt lat="44.21214" lon="4.50426">
        <ele>118</ele>
        <time>2021-07-04T14:42:43Z</time>
      </trkpt>
      <trkpt lat="44.21219" lon="4.50427">
        <ele>119</ele>
        <time>2021-07-04T14:42:45Z</time>
      </trkpt>
      <trkpt lat="44.2122" lon="4.50355">
        <ele>117</ele>
        <time>2021-07-04T14:42:57Z</time>
      </trkpt>
      <trkpt lat="44.21244" lon="4.50277">
        <ele>116</ele>
        <time>2021-07-04T14:43:11Z</time>
      </trkpt>
      <trkpt lat="44.21249" lon="4.50241">
        <ele>114</ele>
        <time>2021-07-04T14:43:17Z</time>
      </trkpt>
      <trkpt lat="44.2125" lon="4.50215">
        <ele>113</ele>
        <time>2021-07-04T14:43:21Z</time>
      </trkpt>
      <trkpt lat="44.21259" lon="4.50197">
        <ele>114</ele>
        <time>2021-07-04T14:43:25Z</time>
      </trkpt>
      <trkpt lat="44.21294" lon="4.50147">
        <ele>116</ele>
        <time>2021-07-04T14:43:37Z</time>
      </trkpt>
      <trkpt lat="44.21295" lon="4.50139">
        <ele>116</ele>
        <time>2021-07-04T14:43:38Z</time>
      </trkpt>
      <trkpt lat="44.21283" lon="4.50138">
        <ele>114</ele>
        <time>2021-07-04T14:43:41Z</time>
      </trkpt>
      <trkpt lat="44.21295" lon="4.50139">
        <ele>116</ele>
        <time>2021-07-04T14:43:44Z</time>
      </trkpt>
      <trkpt lat="44.21296" lon="4.50119">
        <ele>115</ele>
        <time>2021-07-04T14:43:47Z</time>
      </trkpt>
      <trkpt lat="44.21305" lon="4.50101">
        <ele>116</ele>
        <time>2021-07-04T14:43:51Z</time>
      </trkpt>
      <trkpt lat="44.21321" lon="4.50079">
        <ele>118</ele>
        <time>2021-07-04T14:43:56Z</time>
      </trkpt>
      <trkpt lat="44.21322" lon="4.50068">
        <ele>118</ele>
        <time>2021-07-04T14:43:58Z</time>
      </trkpt>
      <trkpt lat="44.21302" lon="4.50036">
        <ele>112</ele>
        <time>2021-07-04T14:44:05Z</time>
      </trkpt>
      <trkpt lat="44.21315" lon="4.4995">
        <ele>112</ele>
        <time>2021-07-04T14:44:20Z</time>
      </trkpt>
      <trkpt lat="44.21361" lon="4.49847">
        <ele>119</ele>
        <time>2021-07-04T14:44:40Z</time>
      </trkpt>
      <trkpt lat="44.21373" lon="4.4977">
        <ele>118</ele>
        <time>2021-07-04T14:44:53Z</time>
      </trkpt>
      <trkpt lat="44.21373" lon="4.49741">
        <ele>117</ele>
        <time>2021-07-04T14:44:58Z</time>
      </trkpt>
      <trkpt lat="44.21362" lon="4.49741">
        <ele>114</ele>
        <time>2021-07-04T14:45:01Z</time>
      </trkpt>
      <trkpt lat="44.21373" lon="4.49741">
        <ele>117</ele>
        <time>2021-07-04T14:45:03Z</time>
      </trkpt>
      <trkpt lat="44.21377" lon="4.49726">
        <ele>117</ele>
        <time>2021-07-04T14:45:06Z</time>
      </trkpt>
      <trkpt lat="44.21414" lon="4.49679">
        <ele>124</ele>
        <time>2021-07-04T14:45:17Z</time>
      </trkpt>
      <trkpt lat="44.21456" lon="4.49617">
        <ele>129</ele>
        <time>2021-07-04T14:45:32Z</time>
      </trkpt>
      <trkpt lat="44.21459" lon="4.4961">
        <ele>129</ele>
        <time>2021-07-04T14:45:33Z</time>
      </trkpt>
      <trkpt lat="44.2146" lon="4.49573">
        <ele>126</ele>
        <time>2021-07-04T14:45:39Z</time>
      </trkpt>
      <trkpt lat="44.21472" lon="4.49516">
        <ele>121</ele>
        <time>2021-07-04T14:45:49Z</time>
      </trkpt>
      <trkpt lat="44.21487" lon="4.49526">
        <ele>123</ele>
        <time>2021-07-04T14:45:53Z</time>
      </trkpt>
      <trkpt lat="44.21514" lon="4.49531">
        <ele>126</ele>
        <time>2021-07-04T14:45:59Z</time>
      </trkpt>
      <trkpt lat="44.21528" lon="4.49526">
        <ele>126</ele>
        <time>2021-07-04T14:46:03Z</time>
      </trkpt>
      <trkpt lat="44.21537" lon="4.4952">
        <ele>126</ele>
        <time>2021-07-04T14:46:05Z</time>
      </trkpt>
      <trkpt lat="44.21555" lon="4.495">
        <ele>125</ele>
        <time>2021-07-04T14:46:11Z</time>
      </trkpt>
      <trkpt lat="44.21561" lon="4.49487">
        <ele>124</ele>
        <time>2021-07-04T14:46:13Z</time>
      </trkpt>
      <trkpt lat="44.21591" lon="4.4938">
        <ele>126</ele>
        <time>2021-07-04T14:46:32Z</time>
      </trkpt>
      <trkpt lat="44.2158" lon="4.49371">
        <ele>124</ele>
        <time>2021-07-04T14:46:35Z</time>
      </trkpt>
      <trkpt lat="44.21591" lon="4.4938">
        <ele>126</ele>
        <time>2021-07-04T14:46:38Z</time>
      </trkpt>
      <trkpt lat="44.21601" lon="4.49365">
        <ele>129</ele>
        <time>2021-07-04T14:46:42Z</time>
      </trkpt>
      <trkpt lat="44.21623" lon="4.49347">
        <ele>133</ele>
        <time>2021-07-04T14:46:48Z</time>
      </trkpt>
      <trkpt lat="44.21652" lon="4.49336">
        <ele>139</ele>
        <time>2021-07-04T14:46:55Z</time>
      </trkpt>
      <trkpt lat="44.21694" lon="4.49311">
        <ele>144</ele>
        <time>2021-07-04T14:47:05Z</time>
      </trkpt>
      <trkpt lat="44.21705" lon="4.49308">
        <ele>145</ele>
        <time>2021-07-04T14:47:08Z</time>
      </trkpt>
      <trkpt lat="44.21733" lon="4.49307">
        <ele>149</ele>
        <time>2021-07-04T14:47:15Z</time>
      </trkpt>
      <trkpt lat="44.21764" lon="4.49316">
        <ele>155</ele>
        <time>2021-07-04T14:47:22Z</time>
      </trkpt>
      <trkpt lat="44.21774" lon="4.49316">
        <ele>157</ele>
        <time>2021-07-04T14:47:24Z</time>
      </trkpt>
      <trkpt lat="44.21781" lon="4.49314">
        <ele>158</ele>
        <time>2021-07-04T14:47:26Z</time>
      </trkpt>
      <trkpt lat="44.21823" lon="4.49288">
        <ele>159</ele>
        <time>2021-07-04T14:47:37Z</time>
      </trkpt>
      <trkpt lat="44.21794" lon="4.49204">
        <ele>145</ele>
        <time>2021-07-04T14:47:52Z</time>
      </trkpt>
      <trkpt lat="44.21741" lon="4.49113">
        <ele>132</ele>
        <time>2021-07-04T14:48:12Z</time>
      </trkpt>
      <trkpt lat="44.21817" lon="4.48982">
        <ele>119</ele>
        <time>2021-07-04T14:48:40Z</time>
      </trkpt>
      <trkpt lat="44.21872" lon="4.48929">
        <ele>109</ele>
        <time>2021-07-04T14:48:56Z</time>
      </trkpt>
      <trkpt lat="44.21888" lon="4.48844">
        <ele>101</ele>
        <time>2021-07-04T14:49:10Z</time>
      </trkpt>
      <trkpt lat="44.21851" lon="4.48746">
        <ele>92</ele>
        <time>2021-07-04T14:49:29Z</time>
      </trkpt>
      <trkpt lat="44.21872" lon="4.48653">
        <ele>90</ele>
        <time>2021-07-04T14:49:45Z</time>
      </trkpt>
      <trkpt lat="44.21829" lon="4.4864">
        <ele>92</ele>
        <time>2021-07-04T14:49:56Z</time>
      </trkpt>
      <trkpt lat="44.21813" lon="4.48588">
        <ele>89</ele>
        <time>2021-07-04T14:50:05Z</time>
      </trkpt>
      <trkpt lat="44.21816" lon="4.48593">
        <ele>90</ele>
        <time>2021-07-04T14:50:06Z</time>
      </trkpt>
    </trkseg>
  </trk>
  <trk>
    <name><![CDATA[Vert Montclus village]]></name>
    <extensions>
      <line xmlns="http://www.topografix.com/GPX/gpx_style/0/2">
        <color>00ff00</color>
        <width>4</width>
      </line>
    </extensions>
    <trkseg>
      <trkpt lat="44.26213" lon="4.42005">
        <ele>91</ele>
        <time>2021-07-04T13:10:12Z</time>
      </trkpt>
      <trkpt lat="44.26213" lon="4.42005">
        <ele>91</ele>
        <time>2021-07-04T13:10:12Z</time>
      </trkpt>
      <trkpt lat="44.26214" lon="4.42004">
        <ele>91</ele>
        <time>2021-07-04T13:10:12Z</time>
      </trkpt>
      <trkpt lat="44.26228" lon="4.42007">
        <ele>89</ele>
        <time>2021-07-04T13:10:16Z</time>
      </trkpt>
      <trkpt lat="44.26237" lon="4.42014">
        <ele>88</ele>
        <time>2021-07-04T13:10:18Z</time>
      </trkpt>
      <trkpt lat="44.26268" lon="4.4202">
        <ele>87</ele>
        <time>2021-07-04T13:10:25Z</time>
      </trkpt>
      <trkpt lat="44.263" lon="4.42025">
        <ele>87</ele>
        <time>2021-07-04T13:10:33Z</time>
      </trkpt>
      <trkpt lat="44.26301" lon="4.42026">
        <ele>88</ele>
        <time>2021-07-04T13:10:33Z</time>
      </trkpt>
      <trkpt lat="44.2632" lon="4.42031">
        <ele>88</ele>
        <time>2021-07-04T13:10:38Z</time>
      </trkpt>
      <trkpt lat="44.26341" lon="4.4204">
        <ele>89</ele>
        <time>2021-07-04T13:10:43Z</time>
      </trkpt>
      <trkpt lat="44.26377" lon="4.42052">
        <ele>89</ele>
        <time>2021-07-04T13:10:51Z</time>
      </trkpt>
      <trkpt lat="44.26421" lon="4.42075">
        <ele>91</ele>
        <time>2021-07-04T13:11:02Z</time>
      </trkpt>
      <trkpt lat="44.26434" lon="4.42097">
        <ele>90</ele>
        <time>2021-07-04T13:11:07Z</time>
      </trkpt>
      <trkpt lat="44.26449" lon="4.42169">
        <ele>91</ele>
        <time>2021-07-04T13:11:20Z</time>
      </trkpt>
      <trkpt lat="44.26454" lon="4.42194">
        <ele>91</ele>
        <time>2021-07-04T13:11:24Z</time>
      </trkpt>
      <trkpt lat="44.26475" lon="4.42237">
        <ele>92</ele>
        <time>2021-07-04T13:11:33Z</time>
      </trkpt>
      <trkpt lat="44.26496" lon="4.42282">
        <ele>92</ele>
        <time>2021-07-04T13:11:42Z</time>
      </trkpt>
      <trkpt lat="44.26511" lon="4.42311">
        <ele>92</ele>
        <time>2021-07-04T13:11:48Z</time>
      </trkpt>
      <trkpt lat="44.26527" lon="4.42339">
        <ele>92</ele>
        <time>2021-07-04T13:11:54Z</time>
      </trkpt>
      <trkpt lat="44.26543" lon="4.42373">
        <ele>92</ele>
        <time>2021-07-04T13:12:00Z</time>
      </trkpt>
      <trkpt lat="44.26554" lon="4.42414">
        <ele>93</ele>
        <time>2021-07-04T13:12:08Z</time>
      </trkpt>
      <trkpt lat="44.26566" lon="4.42455">
        <ele>96</ele>
        <time>2021-07-04T13:12:15Z</time>
      </trkpt>
      <trkpt lat="44.26591" lon="4.42548">
        <ele>99</ele>
        <time>2021-07-04T13:12:32Z</time>
      </trkpt>
      <trkpt lat="44.26597" lon="4.42574">
        <ele>100</ele>
        <time>2021-07-04T13:12:36Z</time>
      </trkpt>
      <trkpt lat="44.26607" lon="4.42602">
        <ele>101</ele>
        <time>2021-07-04T13:12:42Z</time>
      </trkpt>
      <trkpt lat="44.26614" lon="4.42623">
        <ele>102</ele>
        <time>2021-07-04T13:12:46Z</time>
      </trkpt>
      <trkpt lat="44.26608" lon="4.42625">
        <ele>103</ele>
        <time>2021-07-04T13:12:47Z</time>
      </trkpt>
      <trkpt lat="44.26603" lon="4.4263">
        <ele>104</ele>
        <time>2021-07-04T13:12:48Z</time>
      </trkpt>
      <trkpt lat="44.26602" lon="4.42661">
        <ele>106</ele>
        <time>2021-07-04T13:12:54Z</time>
      </trkpt>
      <trkpt lat="44.26599" lon="4.42683">
        <ele>107</ele>
        <time>2021-07-04T13:12:57Z</time>
      </trkpt>
      <trkpt lat="44.26592" lon="4.42726">
        <ele>110</ele>
        <time>2021-07-04T13:13:05Z</time>
      </trkpt>
      <trkpt lat="44.26579" lon="4.428">
        <ele>115</ele>
        <time>2021-07-04T13:13:17Z</time>
      </trkpt>
      <trkpt lat="44.26577" lon="4.42812">
        <ele>116</ele>
        <time>2021-07-04T13:13:19Z</time>
      </trkpt>
      <trkpt lat="44.26568" lon="4.42816">
        <ele>116</ele>
        <time>2021-07-04T13:13:22Z</time>
      </trkpt>
      <trkpt lat="44.26559" lon="4.42822">
        <ele>117</ele>
        <time>2021-07-04T13:13:24Z</time>
      </trkpt>
      <trkpt lat="44.26556" lon="4.42824">
        <ele>117</ele>
        <time>2021-07-04T13:13:25Z</time>
      </trkpt>
      <trkpt lat="44.26551" lon="4.42829">
        <ele>117</ele>
        <time>2021-07-04T13:13:26Z</time>
      </trkpt>
      <trkpt lat="44.2654" lon="4.42839">
        <ele>117</ele>
        <time>2021-07-04T13:13:29Z</time>
      </trkpt>
      <trkpt lat="44.265" lon="4.42865">
        <ele>116</ele>
        <time>2021-07-04T13:13:40Z</time>
      </trkpt>
      <trkpt lat="44.26496" lon="4.42869">
        <ele>116</ele>
        <time>2021-07-04T13:13:41Z</time>
      </trkpt>
      <trkpt lat="44.26492" lon="4.42876">
        <ele>115</ele>
        <time>2021-07-04T13:13:42Z</time>
      </trkpt>
      <trkpt lat="44.26486" lon="4.42884">
        <ele>114</ele>
        <time>2021-07-04T13:13:44Z</time>
      </trkpt>
      <trkpt lat="44.26475" lon="4.42891">
        <ele>113</ele>
        <time>2021-07-04T13:13:47Z</time>
      </trkpt>
      <trkpt lat="44.2647" lon="4.42895">
        <ele>112</ele>
        <time>2021-07-04T13:13:48Z</time>
      </trkpt>
      <trkpt lat="44.26458" lon="4.42899">
        <ele>111</ele>
        <time>2021-07-04T13:13:51Z</time>
      </trkpt>
      <trkpt lat="44.26446" lon="4.429">
        <ele>110</ele>
        <time>2021-07-04T13:13:54Z</time>
      </trkpt>
      <trkpt lat="44.26431" lon="4.42895">
        <ele>109</ele>
        <time>2021-07-04T13:13:58Z</time>
      </trkpt>
      <trkpt lat="44.26419" lon="4.42892">
        <ele>109</ele>
        <time>2021-07-04T13:14:01Z</time>
      </trkpt>
      <trkpt lat="44.26413" lon="4.42893">
        <ele>109</ele>
        <time>2021-07-04T13:14:02Z</time>
      </trkpt>
      <trkpt lat="44.26407" lon="4.42896">
        <ele>109</ele>
        <time>2021-07-04T13:14:03Z</time>
      </trkpt>
      <trkpt lat="44.26406" lon="4.42898">
        <ele>108</ele>
        <time>2021-07-04T13:14:04Z</time>
      </trkpt>
      <trkpt lat="44.26405" lon="4.42902">
        <ele>108</ele>
        <time>2021-07-04T13:14:05Z</time>
      </trkpt>
      <trkpt lat="44.26405" lon="4.42904">
        <ele>107</ele>
        <time>2021-07-04T13:14:05Z</time>
      </trkpt>
      <trkpt lat="44.26406" lon="4.42906">
        <ele>107</ele>
        <time>2021-07-04T13:14:05Z</time>
      </trkpt>
      <trkpt lat="44.26413" lon="4.42911">
        <ele>106</ele>
        <time>2021-07-04T13:14:07Z</time>
      </trkpt>
      <trkpt lat="44.26424" lon="4.42922">
        <ele>105</ele>
        <time>2021-07-04T13:14:10Z</time>
      </trkpt>
      <trkpt lat="44.2644" lon="4.42945">
        <ele>105</ele>
        <time>2021-07-04T13:14:16Z</time>
      </trkpt>
      <trkpt lat="44.26455" lon="4.4297">
        <ele>105</ele>
        <time>2021-07-04T13:14:21Z</time>
      </trkpt>
      <trkpt lat="44.26458" lon="4.42981">
        <ele>104</ele>
        <time>2021-07-04T13:14:23Z</time>
      </trkpt>
      <trkpt lat="44.26457" lon="4.4299">
        <ele>104</ele>
        <time>2021-07-04T13:14:25Z</time>
      </trkpt>
      <trkpt lat="44.26456" lon="4.42995">
        <ele>103</ele>
        <time>2021-07-04T13:14:25Z</time>
      </trkpt>
      <trkpt lat="44.26453" lon="4.42997">
        <ele>102</ele>
        <time>2021-07-04T13:14:26Z</time>
      </trkpt>
      <trkpt lat="44.26448" lon="4.42997">
        <ele>101</ele>
        <time>2021-07-04T13:14:27Z</time>
      </trkpt>
      <trkpt lat="44.26426" lon="4.42964">
        <ele>100</ele>
        <time>2021-07-04T13:14:35Z</time>
      </trkpt>
      <trkpt lat="44.26408" lon="4.42949">
        <ele>101</ele>
        <time>2021-07-04T13:14:40Z</time>
      </trkpt>
      <trkpt lat="44.26387" lon="4.42938">
        <ele>102</ele>
        <time>2021-07-04T13:14:45Z</time>
      </trkpt>
      <trkpt lat="44.2637" lon="4.4293">
        <ele>103</ele>
        <time>2021-07-04T13:14:49Z</time>
      </trkpt>
      <trkpt lat="44.26287" lon="4.42925">
        <ele>103</ele>
        <time>2021-07-04T13:15:09Z</time>
      </trkpt>
      <trkpt lat="44.26267" lon="4.42925">
        <ele>102</ele>
        <time>2021-07-04T13:15:13Z</time>
      </trkpt>
      <trkpt lat="44.26221" lon="4.4293">
        <ele>99</ele>
        <time>2021-07-04T13:15:24Z</time>
      </trkpt>
      <trkpt lat="44.26177" lon="4.42927">
        <ele>97</ele>
        <time>2021-07-04T13:15:34Z</time>
      </trkpt>
      <trkpt lat="44.26148" lon="4.42914">
        <ele>98</ele>
        <time>2021-07-04T13:15:41Z</time>
      </trkpt>
      <trkpt lat="44.26119" lon="4.42896">
        <ele>101</ele>
        <time>2021-07-04T13:15:49Z</time>
      </trkpt>
      <trkpt lat="44.26091" lon="4.42876">
        <ele>102</ele>
        <time>2021-07-04T13:15:56Z</time>
      </trkpt>
      <trkpt lat="44.26053" lon="4.42858">
        <ele>101</ele>
        <time>2021-07-04T13:16:06Z</time>
      </trkpt>
      <trkpt lat="44.26023" lon="4.4284">
        <ele>100</ele>
        <time>2021-07-04T13:16:13Z</time>
      </trkpt>
      <trkpt lat="44.26014" lon="4.42831">
        <ele>100</ele>
        <time>2021-07-04T13:16:16Z</time>
      </trkpt>
      <trkpt lat="44.2601" lon="4.42822">
        <ele>100</ele>
        <time>2021-07-04T13:16:18Z</time>
      </trkpt>
      <trkpt lat="44.2601" lon="4.42819">
        <ele>101</ele>
        <time>2021-07-04T13:16:18Z</time>
      </trkpt>
      <trkpt lat="44.26009" lon="4.42808">
        <ele>101</ele>
        <time>2021-07-04T13:16:20Z</time>
      </trkpt>
      <trkpt lat="44.26012" lon="4.428">
        <ele>102</ele>
        <time>2021-07-04T13:16:21Z</time>
      </trkpt>
      <trkpt lat="44.26003" lon="4.42803">
        <ele>101</ele>
        <time>2021-07-04T13:16:24Z</time>
      </trkpt>
      <trkpt lat="44.25997" lon="4.42804">
        <ele>101</ele>
        <time>2021-07-04T13:16:25Z</time>
      </trkpt>
      <trkpt lat="44.25962" lon="4.42822">
        <ele>97</ele>
        <time>2021-07-04T13:16:34Z</time>
      </trkpt>
      <trkpt lat="44.25927" lon="4.42838">
        <ele>94</ele>
        <time>2021-07-04T13:16:42Z</time>
      </trkpt>
      <trkpt lat="44.25917" lon="4.42835">
        <ele>94</ele>
        <time>2021-07-04T13:16:45Z</time>
      </trkpt>
      <trkpt lat="44.25878" lon="4.4282">
        <ele>93</ele>
        <time>2021-07-04T13:16:54Z</time>
      </trkpt>
      <trkpt lat="44.25858" lon="4.42808">
        <ele>93</ele>
        <time>2021-07-04T13:16:59Z</time>
      </trkpt>
      <trkpt lat="44.2585" lon="4.42794">
        <ele>94</ele>
        <time>2021-07-04T13:17:02Z</time>
      </trkpt>
      <trkpt lat="44.25839" lon="4.4276">
        <ele>96</ele>
        <time>2021-07-04T13:17:08Z</time>
      </trkpt>
      <trkpt lat="44.2583" lon="4.42742">
        <ele>96</ele>
        <time>2021-07-04T13:17:12Z</time>
      </trkpt>
      <trkpt lat="44.25826" lon="4.42728">
        <ele>97</ele>
        <time>2021-07-04T13:17:15Z</time>
      </trkpt>
      <trkpt lat="44.25823" lon="4.42727">
        <ele>97</ele>
        <time>2021-07-04T13:17:15Z</time>
      </trkpt>
      <trkpt lat="44.258" lon="4.42719">
        <ele>95</ele>
        <time>2021-07-04T13:17:21Z</time>
      </trkpt>
      <trkpt lat="44.2578" lon="4.42669">
        <ele>96</ele>
        <time>2021-07-04T13:17:31Z</time>
      </trkpt>
      <trkpt lat="44.2576" lon="4.4262">
        <ele>94</ele>
        <time>2021-07-04T13:17:40Z</time>
      </trkpt>
      <trkpt lat="44.25762" lon="4.42574">
        <ele>96</ele>
        <time>2021-07-04T13:17:48Z</time>
      </trkpt>
      <trkpt lat="44.25764" lon="4.4255">
        <ele>96</ele>
        <time>2021-07-04T13:17:52Z</time>
      </trkpt>
      <trkpt lat="44.25768" lon="4.42525">
        <ele>96</ele>
        <time>2021-07-04T13:17:56Z</time>
      </trkpt>
      <trkpt lat="44.25777" lon="4.42494">
        <ele>99</ele>
        <time>2021-07-04T13:18:02Z</time>
      </trkpt>
      <trkpt lat="44.25792" lon="4.4246">
        <ele>101</ele>
        <time>2021-07-04T13:18:08Z</time>
      </trkpt>
      <trkpt lat="44.25807" lon="4.42426">
        <ele>102</ele>
        <time>2021-07-04T13:18:15Z</time>
      </trkpt>
      <trkpt lat="44.25826" lon="4.42398">
        <ele>103</ele>
        <time>2021-07-04T13:18:21Z</time>
      </trkpt>
      <trkpt lat="44.25851" lon="4.4236">
        <ele>104</ele>
        <time>2021-07-04T13:18:30Z</time>
      </trkpt>
      <trkpt lat="44.25907" lon="4.42269">
        <ele>105</ele>
        <time>2021-07-04T13:18:50Z</time>
      </trkpt>
      <trkpt lat="44.2591" lon="4.42259">
        <ele>104</ele>
        <time>2021-07-04T13:18:52Z</time>
      </trkpt>
      <trkpt lat="44.25906" lon="4.4225">
        <ele>102</ele>
        <time>2021-07-04T13:18:54Z</time>
      </trkpt>
      <trkpt lat="44.25875" lon="4.42222">
        <ele>95</ele>
        <time>2021-07-04T13:19:02Z</time>
      </trkpt>
      <trkpt lat="44.25843" lon="4.42194">
        <ele>90</ele>
        <time>2021-07-04T13:19:11Z</time>
      </trkpt>
      <trkpt lat="44.2584" lon="4.42186">
        <ele>89</ele>
        <time>2021-07-04T13:19:13Z</time>
      </trkpt>
      <trkpt lat="44.25843" lon="4.42178">
        <ele>89</ele>
        <time>2021-07-04T13:19:14Z</time>
      </trkpt>
      <trkpt lat="44.25862" lon="4.42142">
        <ele>90</ele>
        <time>2021-07-04T13:19:22Z</time>
      </trkpt>
      <trkpt lat="44.25881" lon="4.42107">
        <ele>90</ele>
        <time>2021-07-04T13:19:29Z</time>
      </trkpt>
      <trkpt lat="44.259" lon="4.42071">
        <ele>90</ele>
        <time>2021-07-04T13:19:36Z</time>
      </trkpt>
      <trkpt lat="44.25955" lon="4.41986">
        <ele>92</ele>
        <time>2021-07-04T13:19:56Z</time>
      </trkpt>
      <trkpt lat="44.25958" lon="4.41981">
        <ele>93</ele>
        <time>2021-07-04T13:19:57Z</time>
      </trkpt>
      <trkpt lat="44.25966" lon="4.41986">
        <ele>93</ele>
        <time>2021-07-04T13:19:59Z</time>
      </trkpt>
      <trkpt lat="44.25998" lon="4.4202">
        <ele>97</ele>
        <time>2021-07-04T13:20:08Z</time>
      </trkpt>
      <trkpt lat="44.26003" lon="4.42026">
        <ele>97</ele>
        <time>2021-07-04T13:20:10Z</time>
      </trkpt>
      <trkpt lat="44.26024" lon="4.42052">
        <ele>101</ele>
        <time>2021-07-04T13:20:16Z</time>
      </trkpt>
      <trkpt lat="44.26047" lon="4.42071">
        <ele>105</ele>
        <time>2021-07-04T13:20:22Z</time>
      </trkpt>
      <trkpt lat="44.26052" lon="4.42076">
        <ele>105</ele>
        <time>2021-07-04T13:20:24Z</time>
      </trkpt>
      <trkpt lat="44.26063" lon="4.42078">
        <ele>107</ele>
        <time>2021-07-04T13:20:26Z</time>
      </trkpt>
      <trkpt lat="44.26067" lon="4.42078">
        <ele>107</ele>
        <time>2021-07-04T13:20:27Z</time>
      </trkpt>
      <trkpt lat="44.26068" lon="4.42077">
        <ele>108</ele>
        <time>2021-07-04T13:20:28Z</time>
      </trkpt>
      <trkpt lat="44.26078" lon="4.42074">
        <ele>109</ele>
        <time>2021-07-04T13:20:30Z</time>
      </trkpt>
      <trkpt lat="44.26085" lon="4.42068">
        <ele>109</ele>
        <time>2021-07-04T13:20:32Z</time>
      </trkpt>
      <trkpt lat="44.26099" lon="4.4205">
        <ele>106</ele>
        <time>2021-07-04T13:20:36Z</time>
      </trkpt>
      <trkpt lat="44.26092" lon="4.42041">
        <ele>106</ele>
        <time>2021-07-04T13:20:39Z</time>
      </trkpt>
      <trkpt lat="44.26089" lon="4.42034">
        <ele>106</ele>
        <time>2021-07-04T13:20:40Z</time>
      </trkpt>
      <trkpt lat="44.26087" lon="4.42022">
        <ele>105</ele>
        <time>2021-07-04T13:20:42Z</time>
      </trkpt>
      <trkpt lat="44.26088" lon="4.42011">
        <ele>104</ele>
        <time>2021-07-04T13:20:44Z</time>
      </trkpt>
      <trkpt lat="44.26089" lon="4.41993">
        <ele>103</ele>
        <time>2021-07-04T13:20:47Z</time>
      </trkpt>
      <trkpt lat="44.26092" lon="4.4198">
        <ele>101</ele>
        <time>2021-07-04T13:20:49Z</time>
      </trkpt>
      <trkpt lat="44.26096" lon="4.41965">
        <ele>98</ele>
        <time>2021-07-04T13:20:52Z</time>
      </trkpt>
      <trkpt lat="44.26106" lon="4.41971">
        <ele>99</ele>
        <time>2021-07-04T13:20:54Z</time>
      </trkpt>
      <trkpt lat="44.26124" lon="4.4197">
        <ele>97</ele>
        <time>2021-07-04T13:20:59Z</time>
      </trkpt>
      <trkpt lat="44.26127" lon="4.41969">
        <ele>97</ele>
        <time>2021-07-04T13:20:59Z</time>
      </trkpt>
      <trkpt lat="44.26128" lon="4.41965">
        <ele>97</ele>
        <time>2021-07-04T13:21:00Z</time>
      </trkpt>
      <trkpt lat="44.26131" lon="4.41966">
        <ele>97</ele>
        <time>2021-07-04T13:21:01Z</time>
      </trkpt>
      <trkpt lat="44.2614" lon="4.41967">
        <ele>96</ele>
        <time>2021-07-04T13:21:03Z</time>
      </trkpt>
      <trkpt lat="44.26148" lon="4.41971">
        <ele>96</ele>
        <time>2021-07-04T13:21:05Z</time>
      </trkpt>
      <trkpt lat="44.26161" lon="4.41974">
        <ele>96</ele>
        <time>2021-07-04T13:21:08Z</time>
      </trkpt>
      <trkpt lat="44.26163" lon="4.41976">
        <ele>96</ele>
        <time>2021-07-04T13:21:09Z</time>
      </trkpt>
      <trkpt lat="44.26177" lon="4.41994">
        <ele>96</ele>
        <time>2021-07-04T13:21:13Z</time>
      </trkpt>
      <trkpt lat="44.26191" lon="4.41999">
        <ele>94</ele>
        <time>2021-07-04T13:21:16Z</time>
      </trkpt>
      <trkpt lat="44.26203" lon="4.42001">
        <ele>93</ele>
        <time>2021-07-04T13:21:19Z</time>
      </trkpt>
    </trkseg>
  </trk>
  <trk>
    <name><![CDATA[Bleu Montclus Bernas]]></name>
    <extensions>
      <line xmlns="http://www.topografix.com/GPX/gpx_style/0/2">
        <color>0000fa</color>
        <width>4</width>
      </line>
    </extensions>
    <trkseg>
      <trkpt lat="44.26214" lon="4.41999">
        <ele>91</ele>
        <time>2021-07-04T13:10:24Z</time>
      </trkpt>
      <trkpt lat="44.26214" lon="4.41999">
        <ele>91</ele>
        <time>2021-07-04T13:10:24Z</time>
      </trkpt>
      <trkpt lat="44.26214" lon="4.42004">
        <ele>91</ele>
        <time>2021-07-04T13:10:25Z</time>
      </trkpt>
      <trkpt lat="44.26228" lon="4.42007">
        <ele>89</ele>
        <time>2021-07-04T13:10:28Z</time>
      </trkpt>
      <trkpt lat="44.26237" lon="4.42014">
        <ele>88</ele>
        <time>2021-07-04T13:10:31Z</time>
      </trkpt>
      <trkpt lat="44.26268" lon="4.4202">
        <ele>87</ele>
        <time>2021-07-04T13:10:38Z</time>
      </trkpt>
      <trkpt lat="44.263" lon="4.42025">
        <ele>87</ele>
        <time>2021-07-04T13:10:45Z</time>
      </trkpt>
      <trkpt lat="44.26301" lon="4.42026">
        <ele>88</ele>
        <time>2021-07-04T13:10:46Z</time>
      </trkpt>
      <trkpt lat="44.26341" lon="4.4204">
        <ele>89</ele>
        <time>2021-07-04T13:10:55Z</time>
      </trkpt>
      <trkpt lat="44.26377" lon="4.42052">
        <ele>89</ele>
        <time>2021-07-04T13:11:04Z</time>
      </trkpt>
      <trkpt lat="44.26421" lon="4.42075">
        <ele>91</ele>
        <time>2021-07-04T13:11:15Z</time>
      </trkpt>
      <trkpt lat="44.26434" lon="4.42097">
        <ele>90</ele>
        <time>2021-07-04T13:11:20Z</time>
      </trkpt>
      <trkpt lat="44.26447" lon="4.42156">
        <ele>91</ele>
        <time>2021-07-04T13:11:30Z</time>
      </trkpt>
      <trkpt lat="44.26454" lon="4.42194">
        <ele>91</ele>
        <time>2021-07-04T13:11:37Z</time>
      </trkpt>
      <trkpt lat="44.26475" lon="4.42237">
        <ele>92</ele>
        <time>2021-07-04T13:11:45Z</time>
      </trkpt>
      <trkpt lat="44.26496" lon="4.42282">
        <ele>92</ele>
        <time>2021-07-04T13:11:54Z</time>
      </trkpt>
      <trkpt lat="44.26511" lon="4.42311">
        <ele>92</ele>
        <time>2021-07-04T13:12:00Z</time>
      </trkpt>
      <trkpt lat="44.26527" lon="4.42339">
        <ele>92</ele>
        <time>2021-07-04T13:12:06Z</time>
      </trkpt>
      <trkpt lat="44.26543" lon="4.42373">
        <ele>92</ele>
        <time>2021-07-04T13:12:13Z</time>
      </trkpt>
      <trkpt lat="44.26554" lon="4.42414">
        <ele>93</ele>
        <time>2021-07-04T13:12:20Z</time>
      </trkpt>
      <trkpt lat="44.26566" lon="4.42455">
        <ele>96</ele>
        <time>2021-07-04T13:12:28Z</time>
      </trkpt>
      <trkpt lat="44.26591" lon="4.42548">
        <ele>99</ele>
        <time>2021-07-04T13:12:44Z</time>
      </trkpt>
      <trkpt lat="44.26597" lon="4.42574">
        <ele>100</ele>
        <time>2021-07-04T13:12:49Z</time>
      </trkpt>
      <trkpt lat="44.26607" lon="4.42602">
        <ele>101</ele>
        <time>2021-07-04T13:12:54Z</time>
      </trkpt>
      <trkpt lat="44.26614" lon="4.42623">
        <ele>102</ele>
        <time>2021-07-04T13:12:58Z</time>
      </trkpt>
      <trkpt lat="44.2662" lon="4.42632">
        <ele>102</ele>
        <time>2021-07-04T13:13:00Z</time>
      </trkpt>
      <trkpt lat="44.26629" lon="4.42619">
        <ele>100</ele>
        <time>2021-07-04T13:13:03Z</time>
      </trkpt>
      <trkpt lat="44.2662" lon="4.42632">
        <ele>102</ele>
        <time>2021-07-04T13:13:06Z</time>
      </trkpt>
      <trkpt lat="44.26624" lon="4.42638">
        <ele>102</ele>
        <time>2021-07-04T13:13:08Z</time>
      </trkpt>
      <trkpt lat="44.26647" lon="4.42664">
        <ele>100</ele>
        <time>2021-07-04T13:13:14Z</time>
      </trkpt>
      <trkpt lat="44.26665" lon="4.4268">
        <ele>98</ele>
        <time>2021-07-04T13:13:19Z</time>
      </trkpt>
      <trkpt lat="44.26676" lon="4.42698">
        <ele>98</ele>
        <time>2021-07-04T13:13:23Z</time>
      </trkpt>
      <trkpt lat="44.2669" lon="4.42725">
        <ele>98</ele>
        <time>2021-07-04T13:13:29Z</time>
      </trkpt>
      <trkpt lat="44.26705" lon="4.42763">
        <ele>99</ele>
        <time>2021-07-04T13:13:36Z</time>
      </trkpt>
      <trkpt lat="44.26716" lon="4.42807">
        <ele>103</ele>
        <time>2021-07-04T13:13:44Z</time>
      </trkpt>
      <trkpt lat="44.26727" lon="4.42859">
        <ele>107</ele>
        <time>2021-07-04T13:13:53Z</time>
      </trkpt>
      <trkpt lat="44.26733" lon="4.42885">
        <ele>109</ele>
        <time>2021-07-04T13:13:58Z</time>
      </trkpt>
      <trkpt lat="44.26741" lon="4.4291">
        <ele>109</ele>
        <time>2021-07-04T13:14:02Z</time>
      </trkpt>
      <trkpt lat="44.26754" lon="4.42928">
        <ele>109</ele>
        <time>2021-07-04T13:14:06Z</time>
      </trkpt>
      <trkpt lat="44.26757" lon="4.42943">
        <ele>111</ele>
        <time>2021-07-04T13:14:09Z</time>
      </trkpt>
      <trkpt lat="44.26756" lon="4.42956">
        <ele>112</ele>
        <time>2021-07-04T13:14:11Z</time>
      </trkpt>
      <trkpt lat="44.26747" lon="4.42949">
        <ele>112</ele>
        <time>2021-07-04T13:14:14Z</time>
      </trkpt>
      <trkpt lat="44.26742" lon="4.42943">
        <ele>113</ele>
        <time>2021-07-04T13:14:15Z</time>
      </trkpt>
      <trkpt lat="44.26747" lon="4.42949">
        <ele>112</ele>
        <time>2021-07-04T13:14:17Z</time>
      </trkpt>
      <trkpt lat="44.26749" lon="4.42978">
        <ele>115</ele>
        <time>2021-07-04T13:14:22Z</time>
      </trkpt>
      <trkpt lat="44.26754" lon="4.42988">
        <ele>116</ele>
        <time>2021-07-04T13:14:24Z</time>
      </trkpt>
      <trkpt lat="44.2678" lon="4.43004">
        <ele>116</ele>
        <time>2021-07-04T13:14:30Z</time>
      </trkpt>
      <trkpt lat="44.26808" lon="4.43018">
        <ele>116</ele>
        <time>2021-07-04T13:14:37Z</time>
      </trkpt>
      <trkpt lat="44.26813" lon="4.43029">
        <ele>117</ele>
        <time>2021-07-04T13:14:39Z</time>
      </trkpt>
      <trkpt lat="44.26811" lon="4.43039">
        <ele>119</ele>
        <time>2021-07-04T13:14:41Z</time>
      </trkpt>
      <trkpt lat="44.26787" lon="4.43057">
        <ele>122</ele>
        <time>2021-07-04T13:14:48Z</time>
      </trkpt>
      <trkpt lat="44.26759" lon="4.4308">
        <ele>125</ele>
        <time>2021-07-04T13:14:55Z</time>
      </trkpt>
      <trkpt lat="44.26737" lon="4.43099">
        <ele>129</ele>
        <time>2021-07-04T13:15:01Z</time>
      </trkpt>
      <trkpt lat="44.26737" lon="4.43111">
        <ele>131</ele>
        <time>2021-07-04T13:15:03Z</time>
      </trkpt>
      <trkpt lat="44.26746" lon="4.43138">
        <ele>135</ele>
        <time>2021-07-04T13:15:08Z</time>
      </trkpt>
      <trkpt lat="44.26792" lon="4.43249">
        <ele>144</ele>
        <time>2021-07-04T13:15:30Z</time>
      </trkpt>
      <trkpt lat="44.26746" lon="4.4323">
        <ele>149</ele>
        <time>2021-07-04T13:15:41Z</time>
      </trkpt>
      <trkpt lat="44.26806" lon="4.43405">
        <ele>160</ele>
        <time>2021-07-04T13:16:13Z</time>
      </trkpt>
      <trkpt lat="44.26706" lon="4.43541">
        <ele>178</ele>
        <time>2021-07-04T13:16:46Z</time>
      </trkpt>
      <trkpt lat="44.26657" lon="4.43588">
        <ele>180</ele>
        <time>2021-07-04T13:17:00Z</time>
      </trkpt>
      <trkpt lat="44.26688" lon="4.43606">
        <ele>179</ele>
        <time>2021-07-04T13:17:08Z</time>
      </trkpt>
      <trkpt lat="44.26677" lon="4.43643">
        <ele>179</ele>
        <time>2021-07-04T13:17:14Z</time>
      </trkpt>
      <trkpt lat="44.26636" lon="4.43841">
        <ele>187</ele>
        <time>2021-07-04T13:17:49Z</time>
      </trkpt>
      <trkpt lat="44.26604" lon="4.43853">
        <ele>188</ele>
        <time>2021-07-04T13:17:56Z</time>
      </trkpt>
      <trkpt lat="44.26556" lon="4.43917">
        <ele>188</ele>
        <time>2021-07-04T13:18:12Z</time>
      </trkpt>
      <trkpt lat="44.26502" lon="4.43979">
        <ele>185</ele>
        <time>2021-07-04T13:18:28Z</time>
      </trkpt>
      <trkpt lat="44.26567" lon="4.44027">
        <ele>196</ele>
        <time>2021-07-04T13:18:45Z</time>
      </trkpt>
      <trkpt lat="44.26593" lon="4.43995">
        <ele>196</ele>
        <time>2021-07-04T13:18:54Z</time>
      </trkpt>
      <trkpt lat="44.26626" lon="4.4396">
        <ele>198</ele>
        <time>2021-07-04T13:19:03Z</time>
      </trkpt>
      <trkpt lat="44.26653" lon="4.43952">
        <ele>199</ele>
        <time>2021-07-04T13:19:10Z</time>
      </trkpt>
      <trkpt lat="44.26701" lon="4.43966">
        <ele>203</ele>
        <time>2021-07-04T13:19:21Z</time>
      </trkpt>
      <trkpt lat="44.26741" lon="4.44007">
        <ele>212</ele>
        <time>2021-07-04T13:19:33Z</time>
      </trkpt>
      <trkpt lat="44.2677" lon="4.44023">
        <ele>213</ele>
        <time>2021-07-04T13:19:40Z</time>
      </trkpt>
      <trkpt lat="44.26811" lon="4.44037">
        <ele>212</ele>
        <time>2021-07-04T13:19:50Z</time>
      </trkpt>
      <trkpt lat="44.26829" lon="4.44057">
        <ele>214</ele>
        <time>2021-07-04T13:19:55Z</time>
      </trkpt>
      <trkpt lat="44.26839" lon="4.44083">
        <ele>218</ele>
        <time>2021-07-04T13:20:00Z</time>
      </trkpt>
      <trkpt lat="44.26837" lon="4.44113">
        <ele>220</ele>
        <time>2021-07-04T13:20:05Z</time>
      </trkpt>
      <trkpt lat="44.26818" lon="4.4415">
        <ele>225</ele>
        <time>2021-07-04T13:20:13Z</time>
      </trkpt>
      <trkpt lat="44.26798" lon="4.44187">
        <ele>229</ele>
        <time>2021-07-04T13:20:21Z</time>
      </trkpt>
      <trkpt lat="44.26762" lon="4.44235">
        <ele>235</ele>
        <time>2021-07-04T13:20:32Z</time>
      </trkpt>
      <trkpt lat="44.26741" lon="4.44305">
        <ele>242</ele>
        <time>2021-07-04T13:20:45Z</time>
      </trkpt>
      <trkpt lat="44.26733" lon="4.44317">
        <ele>242</ele>
        <time>2021-07-04T13:20:48Z</time>
      </trkpt>
      <trkpt lat="44.26695" lon="4.4431">
        <ele>240</ele>
        <time>2021-07-04T13:20:57Z</time>
      </trkpt>
      <trkpt lat="44.26695" lon="4.44277">
        <ele>237</ele>
        <time>2021-07-04T13:21:02Z</time>
      </trkpt>
      <trkpt lat="44.26685" lon="4.44266">
        <ele>236</ele>
        <time>2021-07-04T13:21:05Z</time>
      </trkpt>
      <trkpt lat="44.2663" lon="4.44341">
        <ele>230</ele>
        <time>2021-07-04T13:21:23Z</time>
      </trkpt>
      <trkpt lat="44.26528" lon="4.44467">
        <ele>214</ele>
        <time>2021-07-04T13:21:55Z</time>
      </trkpt>
      <trkpt lat="44.26509" lon="4.44474">
        <ele>208</ele>
        <time>2021-07-04T13:21:59Z</time>
      </trkpt>
      <trkpt lat="44.26499" lon="4.44453">
        <ele>204</ele>
        <time>2021-07-04T13:22:04Z</time>
      </trkpt>
      <trkpt lat="44.26481" lon="4.44414">
        <ele>198</ele>
        <time>2021-07-04T13:22:11Z</time>
      </trkpt>
      <trkpt lat="44.26443" lon="4.44391">
        <ele>190</ele>
        <time>2021-07-04T13:22:21Z</time>
      </trkpt>
      <trkpt lat="44.26394" lon="4.44262">
        <ele>179</ele>
        <time>2021-07-04T13:22:45Z</time>
      </trkpt>
      <trkpt lat="44.26373" lon="4.44247">
        <ele>177</ele>
        <time>2021-07-04T13:22:51Z</time>
      </trkpt>
      <trkpt lat="44.26344" lon="4.44235">
        <ele>175</ele>
        <time>2021-07-04T13:22:58Z</time>
      </trkpt>
      <trkpt lat="44.26328" lon="4.44225">
        <ele>174</ele>
        <time>2021-07-04T13:23:02Z</time>
      </trkpt>
      <trkpt lat="44.26294" lon="4.44194">
        <ele>173</ele>
        <time>2021-07-04T13:23:12Z</time>
      </trkpt>
      <trkpt lat="44.26267" lon="4.44179">
        <ele>173</ele>
        <time>2021-07-04T13:23:18Z</time>
      </trkpt>
      <trkpt lat="44.26265" lon="4.44135">
        <ele>171</ele>
        <time>2021-07-04T13:23:26Z</time>
      </trkpt>
      <trkpt lat="44.26266" lon="4.44135">
        <ele>171</ele>
        <time>2021-07-04T13:23:26Z</time>
      </trkpt>
      <trkpt lat="44.26267" lon="4.44129">
        <ele>171</ele>
        <time>2021-07-04T13:23:27Z</time>
      </trkpt>
      <trkpt lat="44.26269" lon="4.44112">
        <ele>169</ele>
        <time>2021-07-04T13:23:30Z</time>
      </trkpt>
      <trkpt lat="44.26275" lon="4.44107">
        <ele>169</ele>
        <time>2021-07-04T13:23:32Z</time>
      </trkpt>
      <trkpt lat="44.26286" lon="4.44103">
        <ele>170</ele>
        <time>2021-07-04T13:23:34Z</time>
      </trkpt>
      <trkpt lat="44.26289" lon="4.44094">
        <ele>169</ele>
        <time>2021-07-04T13:23:36Z</time>
      </trkpt>
      <trkpt lat="44.26289" lon="4.44084">
        <ele>168</ele>
        <time>2021-07-04T13:23:38Z</time>
      </trkpt>
      <trkpt lat="44.26288" lon="4.44079">
        <ele>167</ele>
        <time>2021-07-04T13:23:38Z</time>
      </trkpt>
      <trkpt lat="44.26286" lon="4.44075">
        <ele>166</ele>
        <time>2021-07-04T13:23:39Z</time>
      </trkpt>
      <trkpt lat="44.26282" lon="4.44073">
        <ele>166</ele>
        <time>2021-07-04T13:23:40Z</time>
      </trkpt>
      <trkpt lat="44.26278" lon="4.44064">
        <ele>163</ele>
        <time>2021-07-04T13:23:42Z</time>
      </trkpt>
      <trkpt lat="44.26274" lon="4.44057">
        <ele>161</ele>
        <time>2021-07-04T13:23:44Z</time>
      </trkpt>
      <trkpt lat="44.26273" lon="4.44052">
        <ele>160</ele>
        <time>2021-07-04T13:23:44Z</time>
      </trkpt>
      <trkpt lat="44.26273" lon="4.44042">
        <ele>158</ele>
        <time>2021-07-04T13:23:46Z</time>
      </trkpt>
      <trkpt lat="44.26276" lon="4.44029">
        <ele>155</ele>
        <time>2021-07-04T13:23:48Z</time>
      </trkpt>
      <trkpt lat="44.26281" lon="4.44023">
        <ele>155</ele>
        <time>2021-07-04T13:23:50Z</time>
      </trkpt>
      <trkpt lat="44.2629" lon="4.44015">
        <ele>155</ele>
        <time>2021-07-04T13:23:52Z</time>
      </trkpt>
      <trkpt lat="44.2632" lon="4.43997">
        <ele>157</ele>
        <time>2021-07-04T13:24:00Z</time>
      </trkpt>
      <trkpt lat="44.26327" lon="4.43991">
        <ele>157</ele>
        <time>2021-07-04T13:24:02Z</time>
      </trkpt>
      <trkpt lat="44.26336" lon="4.43985">
        <ele>158</ele>
        <time>2021-07-04T13:24:04Z</time>
      </trkpt>
      <trkpt lat="44.26345" lon="4.43975">
        <ele>158</ele>
        <time>2021-07-04T13:24:07Z</time>
      </trkpt>
      <trkpt lat="44.26348" lon="4.43969">
        <ele>157</ele>
        <time>2021-07-04T13:24:08Z</time>
      </trkpt>
      <trkpt lat="44.26349" lon="4.43959">
        <ele>156</ele>
        <time>2021-07-04T13:24:10Z</time>
      </trkpt>
      <trkpt lat="44.26347" lon="4.43937">
        <ele>152</ele>
        <time>2021-07-04T13:24:14Z</time>
      </trkpt>
      <trkpt lat="44.26338" lon="4.43912">
        <ele>144</ele>
        <time>2021-07-04T13:24:18Z</time>
      </trkpt>
      <trkpt lat="44.26363" lon="4.4387">
        <ele>143</ele>
        <time>2021-07-04T13:24:27Z</time>
      </trkpt>
      <trkpt lat="44.26388" lon="4.43851">
        <ele>148</ele>
        <time>2021-07-04T13:24:34Z</time>
      </trkpt>
      <trkpt lat="44.26433" lon="4.43804">
        <ele>154</ele>
        <time>2021-07-04T13:24:47Z</time>
      </trkpt>
      <trkpt lat="44.26464" lon="4.43673">
        <ele>142</ele>
        <time>2021-07-04T13:25:10Z</time>
      </trkpt>
      <trkpt lat="44.26483" lon="4.43653">
        <ele>148</ele>
        <time>2021-07-04T13:25:16Z</time>
      </trkpt>
      <trkpt lat="44.26491" lon="4.436">
        <ele>147</ele>
        <time>2021-07-04T13:25:25Z</time>
      </trkpt>
      <trkpt lat="44.2648" lon="4.43569">
        <ele>139</ele>
        <time>2021-07-04T13:25:31Z</time>
      </trkpt>
      <trkpt lat="44.26481" lon="4.43522">
        <ele>138</ele>
        <time>2021-07-04T13:25:38Z</time>
      </trkpt>
      <trkpt lat="44.26491" lon="4.43433">
        <ele>135</ele>
        <time>2021-07-04T13:25:54Z</time>
      </trkpt>
      <trkpt lat="44.26488" lon="4.43389">
        <ele>130</ele>
        <time>2021-07-04T13:26:01Z</time>
      </trkpt>
      <trkpt lat="44.26489" lon="4.43329">
        <ele>125</ele>
        <time>2021-07-04T13:26:11Z</time>
      </trkpt>
      <trkpt lat="44.26516" lon="4.43259">
        <ele>127</ele>
        <time>2021-07-04T13:26:24Z</time>
      </trkpt>
      <trkpt lat="44.26538" lon="4.43185">
        <ele>125</ele>
        <time>2021-07-04T13:26:38Z</time>
      </trkpt>
      <trkpt lat="44.26541" lon="4.43118">
        <ele>120</ele>
        <time>2021-07-04T13:26:49Z</time>
      </trkpt>
      <trkpt lat="44.26544" lon="4.43065">
        <ele>118</ele>
        <time>2021-07-04T13:26:58Z</time>
      </trkpt>
      <trkpt lat="44.26518" lon="4.43035">
        <ele>114</ele>
        <time>2021-07-04T13:27:06Z</time>
      </trkpt>
      <trkpt lat="44.26518" lon="4.43034">
        <ele>114</ele>
        <time>2021-07-04T13:27:06Z</time>
      </trkpt>
      <trkpt lat="44.2651" lon="4.43024">
        <ele>113</ele>
        <time>2021-07-04T13:27:08Z</time>
      </trkpt>
      <trkpt lat="44.26507" lon="4.43015">
        <ele>113</ele>
        <time>2021-07-04T13:27:10Z</time>
      </trkpt>
      <trkpt lat="44.26507" lon="4.43013">
        <ele>113</ele>
        <time>2021-07-04T13:27:10Z</time>
      </trkpt>
      <trkpt lat="44.26506" lon="4.43002">
        <ele>113</ele>
        <time>2021-07-04T13:27:12Z</time>
      </trkpt>
      <trkpt lat="44.26507" lon="4.42968">
        <ele>114</ele>
        <time>2021-07-04T13:27:18Z</time>
      </trkpt>
      <trkpt lat="44.2651" lon="4.4293">
        <ele>115</ele>
        <time>2021-07-04T13:27:24Z</time>
      </trkpt>
      <trkpt lat="44.26499" lon="4.42877">
        <ele>115</ele>
        <time>2021-07-04T13:27:33Z</time>
      </trkpt>
      <trkpt lat="44.26496" lon="4.42869">
        <ele>116</ele>
        <time>2021-07-04T13:27:35Z</time>
      </trkpt>
      <trkpt lat="44.26494" lon="4.42872">
        <ele>115</ele>
        <time>2021-07-04T13:27:36Z</time>
      </trkpt>
      <trkpt lat="44.26492" lon="4.42876">
        <ele>115</ele>
        <time>2021-07-04T13:27:36Z</time>
      </trkpt>
      <trkpt lat="44.26486" lon="4.42884">
        <ele>114</ele>
        <time>2021-07-04T13:27:38Z</time>
      </trkpt>
      <trkpt lat="44.2647" lon="4.42895">
        <ele>112</ele>
        <time>2021-07-04T13:27:43Z</time>
      </trkpt>
      <trkpt lat="44.26458" lon="4.42899">
        <ele>111</ele>
        <time>2021-07-04T13:27:45Z</time>
      </trkpt>
      <trkpt lat="44.26446" lon="4.429">
        <ele>110</ele>
        <time>2021-07-04T13:27:48Z</time>
      </trkpt>
      <trkpt lat="44.26431" lon="4.42895">
        <ele>109</ele>
        <time>2021-07-04T13:27:52Z</time>
      </trkpt>
      <trkpt lat="44.26419" lon="4.42892">
        <ele>109</ele>
        <time>2021-07-04T13:27:55Z</time>
      </trkpt>
      <trkpt lat="44.26413" lon="4.42893">
        <ele>109</ele>
        <time>2021-07-04T13:27:56Z</time>
      </trkpt>
      <trkpt lat="44.26407" lon="4.42896">
        <ele>109</ele>
        <time>2021-07-04T13:27:58Z</time>
      </trkpt>
      <trkpt lat="44.26406" lon="4.42898">
        <ele>108</ele>
        <time>2021-07-04T13:27:58Z</time>
      </trkpt>
      <trkpt lat="44.26405" lon="4.42902">
        <ele>108</ele>
        <time>2021-07-04T13:27:59Z</time>
      </trkpt>
      <trkpt lat="44.26405" lon="4.42904">
        <ele>107</ele>
        <time>2021-07-04T13:27:59Z</time>
      </trkpt>
      <trkpt lat="44.26406" lon="4.42906">
        <ele>107</ele>
        <time>2021-07-04T13:27:59Z</time>
      </trkpt>
      <trkpt lat="44.26413" lon="4.42911">
        <ele>106</ele>
        <time>2021-07-04T13:28:01Z</time>
      </trkpt>
      <trkpt lat="44.26424" lon="4.42922">
        <ele>105</ele>
        <time>2021-07-04T13:28:04Z</time>
      </trkpt>
      <trkpt lat="44.2644" lon="4.42945">
        <ele>105</ele>
        <time>2021-07-04T13:28:10Z</time>
      </trkpt>
      <trkpt lat="44.26455" lon="4.4297">
        <ele>105</ele>
        <time>2021-07-04T13:28:15Z</time>
      </trkpt>
      <trkpt lat="44.26458" lon="4.42981">
        <ele>104</ele>
        <time>2021-07-04T13:28:17Z</time>
      </trkpt>
      <trkpt lat="44.26457" lon="4.4299">
        <ele>104</ele>
        <time>2021-07-04T13:28:19Z</time>
      </trkpt>
      <trkpt lat="44.26456" lon="4.42995">
        <ele>103</ele>
        <time>2021-07-04T13:28:20Z</time>
      </trkpt>
      <trkpt lat="44.26453" lon="4.42997">
        <ele>102</ele>
        <time>2021-07-04T13:28:20Z</time>
      </trkpt>
      <trkpt lat="44.26448" lon="4.42997">
        <ele>101</ele>
        <time>2021-07-04T13:28:22Z</time>
      </trkpt>
      <trkpt lat="44.26426" lon="4.42964">
        <ele>100</ele>
        <time>2021-07-04T13:28:29Z</time>
      </trkpt>
      <trkpt lat="44.26408" lon="4.42949">
        <ele>101</ele>
        <time>2021-07-04T13:28:34Z</time>
      </trkpt>
      <trkpt lat="44.26387" lon="4.42938">
        <ele>102</ele>
        <time>2021-07-04T13:28:39Z</time>
      </trkpt>
      <trkpt lat="44.2637" lon="4.4293">
        <ele>103</ele>
        <time>2021-07-04T13:28:43Z</time>
      </trkpt>
      <trkpt lat="44.26355" lon="4.42929">
        <ele>103</ele>
        <time>2021-07-04T13:28:47Z</time>
      </trkpt>
      <trkpt lat="44.26355" lon="4.42919">
        <ele>105</ele>
        <time>2021-07-04T13:28:49Z</time>
      </trkpt>
      <trkpt lat="44.26355" lon="4.42929">
        <ele>103</ele>
        <time>2021-07-04T13:28:50Z</time>
      </trkpt>
      <trkpt lat="44.26287" lon="4.42925">
        <ele>103</ele>
        <time>2021-07-04T13:29:06Z</time>
      </trkpt>
      <trkpt lat="44.26267" lon="4.42925">
        <ele>102</ele>
        <time>2021-07-04T13:29:11Z</time>
      </trkpt>
      <trkpt lat="44.26221" lon="4.4293">
        <ele>99</ele>
        <time>2021-07-04T13:29:22Z</time>
      </trkpt>
      <trkpt lat="44.26177" lon="4.42927">
        <ele>97</ele>
        <time>2021-07-04T13:29:32Z</time>
      </trkpt>
      <trkpt lat="44.26148" lon="4.42914">
        <ele>98</ele>
        <time>2021-07-04T13:29:39Z</time>
      </trkpt>
      <trkpt lat="44.26119" lon="4.42896">
        <ele>101</ele>
        <time>2021-07-04T13:29:46Z</time>
      </trkpt>
      <trkpt lat="44.26091" lon="4.42876">
        <ele>102</ele>
        <time>2021-07-04T13:29:54Z</time>
      </trkpt>
      <trkpt lat="44.26053" lon="4.42858">
        <ele>101</ele>
        <time>2021-07-04T13:30:03Z</time>
      </trkpt>
      <trkpt lat="44.2603" lon="4.42844">
        <ele>101</ele>
        <time>2021-07-04T13:30:09Z</time>
      </trkpt>
      <trkpt lat="44.26023" lon="4.4284">
        <ele>100</ele>
        <time>2021-07-04T13:30:11Z</time>
      </trkpt>
      <trkpt lat="44.26014" lon="4.42831">
        <ele>100</ele>
        <time>2021-07-04T13:30:13Z</time>
      </trkpt>
      <trkpt lat="44.2601" lon="4.42819">
        <ele>101</ele>
        <time>2021-07-04T13:30:16Z</time>
      </trkpt>
      <trkpt lat="44.26009" lon="4.42808">
        <ele>101</ele>
        <time>2021-07-04T13:30:17Z</time>
      </trkpt>
      <trkpt lat="44.26012" lon="4.428">
        <ele>102</ele>
        <time>2021-07-04T13:30:19Z</time>
      </trkpt>
      <trkpt lat="44.26003" lon="4.42803">
        <ele>101</ele>
        <time>2021-07-04T13:30:21Z</time>
      </trkpt>
      <trkpt lat="44.25997" lon="4.42804">
        <ele>101</ele>
        <time>2021-07-04T13:30:23Z</time>
      </trkpt>
      <trkpt lat="44.25962" lon="4.42822">
        <ele>97</ele>
        <time>2021-07-04T13:30:31Z</time>
      </trkpt>
      <trkpt lat="44.25927" lon="4.42838">
        <ele>94</ele>
        <time>2021-07-04T13:30:40Z</time>
      </trkpt>
      <trkpt lat="44.25878" lon="4.4282">
        <ele>93</ele>
        <time>2021-07-04T13:30:52Z</time>
      </trkpt>
      <trkpt lat="44.25858" lon="4.42808">
        <ele>93</ele>
        <time>2021-07-04T13:30:57Z</time>
      </trkpt>
      <trkpt lat="44.2585" lon="4.42794">
        <ele>94</ele>
        <time>2021-07-04T13:31:00Z</time>
      </trkpt>
      <trkpt lat="44.25839" lon="4.4276">
        <ele>96</ele>
        <time>2021-07-04T13:31:06Z</time>
      </trkpt>
      <trkpt lat="44.25833" lon="4.4275">
        <ele>96</ele>
        <time>2021-07-04T13:31:08Z</time>
      </trkpt>
      <trkpt lat="44.2583" lon="4.42742">
        <ele>96</ele>
        <time>2021-07-04T13:31:10Z</time>
      </trkpt>
      <trkpt lat="44.25826" lon="4.42728">
        <ele>97</ele>
        <time>2021-07-04T13:31:12Z</time>
      </trkpt>
      <trkpt lat="44.25823" lon="4.42727">
        <ele>97</ele>
        <time>2021-07-04T13:31:13Z</time>
      </trkpt>
      <trkpt lat="44.258" lon="4.42719">
        <ele>95</ele>
        <time>2021-07-04T13:31:18Z</time>
      </trkpt>
      <trkpt lat="44.2578" lon="4.42669">
        <ele>96</ele>
        <time>2021-07-04T13:31:28Z</time>
      </trkpt>
      <trkpt lat="44.2576" lon="4.4262">
        <ele>94</ele>
        <time>2021-07-04T13:31:37Z</time>
      </trkpt>
      <trkpt lat="44.25762" lon="4.42574">
        <ele>96</ele>
        <time>2021-07-04T13:31:45Z</time>
      </trkpt>
      <trkpt lat="44.25764" lon="4.4255">
        <ele>96</ele>
        <time>2021-07-04T13:31:49Z</time>
      </trkpt>
      <trkpt lat="44.25768" lon="4.42525">
        <ele>96</ele>
        <time>2021-07-04T13:31:54Z</time>
      </trkpt>
      <trkpt lat="44.25777" lon="4.42494">
        <ele>99</ele>
        <time>2021-07-04T13:31:59Z</time>
      </trkpt>
      <trkpt lat="44.25792" lon="4.4246">
        <ele>101</ele>
        <time>2021-07-04T13:32:06Z</time>
      </trkpt>
      <trkpt lat="44.25807" lon="4.42426">
        <ele>102</ele>
        <time>2021-07-04T13:32:12Z</time>
      </trkpt>
      <trkpt lat="44.25826" lon="4.42398">
        <ele>103</ele>
        <time>2021-07-04T13:32:19Z</time>
      </trkpt>
      <trkpt lat="44.25851" lon="4.4236">
        <ele>104</ele>
        <time>2021-07-04T13:32:28Z</time>
      </trkpt>
      <trkpt lat="44.25907" lon="4.42269">
        <ele>105</ele>
        <time>2021-07-04T13:32:48Z</time>
      </trkpt>
      <trkpt lat="44.2591" lon="4.42259">
        <ele>104</ele>
        <time>2021-07-04T13:32:49Z</time>
      </trkpt>
      <trkpt lat="44.25906" lon="4.4225">
        <ele>102</ele>
        <time>2021-07-04T13:32:51Z</time>
      </trkpt>
      <trkpt lat="44.25843" lon="4.42194">
        <ele>90</ele>
        <time>2021-07-04T13:33:09Z</time>
      </trkpt>
      <trkpt lat="44.2584" lon="4.42186">
        <ele>89</ele>
        <time>2021-07-04T13:33:10Z</time>
      </trkpt>
      <trkpt lat="44.25843" lon="4.42178">
        <ele>89</ele>
        <time>2021-07-04T13:33:12Z</time>
      </trkpt>
      <trkpt lat="44.25862" lon="4.42142">
        <ele>90</ele>
        <time>2021-07-04T13:33:19Z</time>
      </trkpt>
      <trkpt lat="44.25881" lon="4.42107">
        <ele>90</ele>
        <time>2021-07-04T13:33:26Z</time>
      </trkpt>
      <trkpt lat="44.259" lon="4.42071">
        <ele>90</ele>
        <time>2021-07-04T13:33:34Z</time>
      </trkpt>
      <trkpt lat="44.25955" lon="4.41986">
        <ele>92</ele>
        <time>2021-07-04T13:33:53Z</time>
      </trkpt>
      <trkpt lat="44.25958" lon="4.41981">
        <ele>93</ele>
        <time>2021-07-04T13:33:54Z</time>
      </trkpt>
      <trkpt lat="44.25958" lon="4.41982">
        <ele>93</ele>
        <time>2021-07-04T13:33:54Z</time>
      </trkpt>
      <trkpt lat="44.25966" lon="4.41986">
        <ele>93</ele>
        <time>2021-07-04T13:33:56Z</time>
      </trkpt>
      <trkpt lat="44.25998" lon="4.4202">
        <ele>97</ele>
        <time>2021-07-04T13:34:06Z</time>
      </trkpt>
      <trkpt lat="44.26003" lon="4.42026">
        <ele>97</ele>
        <time>2021-07-04T13:34:07Z</time>
      </trkpt>
      <trkpt lat="44.26024" lon="4.42052">
        <ele>101</ele>
        <time>2021-07-04T13:34:14Z</time>
      </trkpt>
      <trkpt lat="44.26047" lon="4.42071">
        <ele>105</ele>
        <time>2021-07-04T13:34:20Z</time>
      </trkpt>
      <trkpt lat="44.26052" lon="4.42076">
        <ele>105</ele>
        <time>2021-07-04T13:34:22Z</time>
      </trkpt>
      <trkpt lat="44.26063" lon="4.42078">
        <ele>107</ele>
        <time>2021-07-04T13:34:24Z</time>
      </trkpt>
      <trkpt lat="44.26068" lon="4.42077">
        <ele>108</ele>
        <time>2021-07-04T13:34:25Z</time>
      </trkpt>
      <trkpt lat="44.26078" lon="4.42074">
        <ele>109</ele>
        <time>2021-07-04T13:34:28Z</time>
      </trkpt>
      <trkpt lat="44.26085" lon="4.42068">
        <ele>109</ele>
        <time>2021-07-04T13:34:30Z</time>
      </trkpt>
      <trkpt lat="44.26094" lon="4.42057">
        <ele>107</ele>
        <time>2021-07-04T13:34:32Z</time>
      </trkpt>
      <trkpt lat="44.26099" lon="4.4205">
        <ele>106</ele>
        <time>2021-07-04T13:34:34Z</time>
      </trkpt>
      <trkpt lat="44.26092" lon="4.42041">
        <ele>106</ele>
        <time>2021-07-04T13:34:36Z</time>
      </trkpt>
      <trkpt lat="44.26089" lon="4.42034">
        <ele>106</ele>
        <time>2021-07-04T13:34:38Z</time>
      </trkpt>
      <trkpt lat="44.26087" lon="4.42022">
        <ele>105</ele>
        <time>2021-07-04T13:34:40Z</time>
      </trkpt>
      <trkpt lat="44.26088" lon="4.42011">
        <ele>104</ele>
        <time>2021-07-04T13:34:42Z</time>
      </trkpt>
      <trkpt lat="44.26089" lon="4.41993">
        <ele>103</ele>
        <time>2021-07-04T13:34:45Z</time>
      </trkpt>
      <trkpt lat="44.26092" lon="4.4198">
        <ele>101</ele>
        <time>2021-07-04T13:34:47Z</time>
      </trkpt>
      <trkpt lat="44.26096" lon="4.41965">
        <ele>98</ele>
        <time>2021-07-04T13:34:50Z</time>
      </trkpt>
      <trkpt lat="44.26106" lon="4.41971">
        <ele>99</ele>
        <time>2021-07-04T13:34:52Z</time>
      </trkpt>
      <trkpt lat="44.26124" lon="4.4197">
        <ele>97</ele>
        <time>2021-07-04T13:34:56Z</time>
      </trkpt>
      <trkpt lat="44.26127" lon="4.41969">
        <ele>97</ele>
        <time>2021-07-04T13:34:57Z</time>
      </trkpt>
      <trkpt lat="44.26128" lon="4.41965">
        <ele>97</ele>
        <time>2021-07-04T13:34:58Z</time>
      </trkpt>
      <trkpt lat="44.26131" lon="4.41966">
        <ele>97</ele>
        <time>2021-07-04T13:34:58Z</time>
      </trkpt>
      <trkpt lat="44.2614" lon="4.41967">
        <ele>96</ele>
        <time>2021-07-04T13:35:01Z</time>
      </trkpt>
      <trkpt lat="44.26148" lon="4.41971">
        <ele>96</ele>
        <time>2021-07-04T13:35:03Z</time>
      </trkpt>
      <trkpt lat="44.26161" lon="4.41974">
        <ele>96</ele>
        <time>2021-07-04T13:35:06Z</time>
      </trkpt>
      <trkpt lat="44.26163" lon="4.41976">
        <ele>96</ele>
        <time>2021-07-04T13:35:06Z</time>
      </trkpt>
      <trkpt lat="44.26177" lon="4.41994">
        <ele>96</ele>
        <time>2021-07-04T13:35:11Z</time>
      </trkpt>
    </trkseg>
  </trk>
  <trk>
    <name><![CDATA[Rouge Montclus Orgnac]]></name>
    <extensions>
      <line xmlns="http://www.topografix.com/GPX/gpx_style/0/2">
        <color>fa0000</color>
        <width>4</width>
      </line>
    </extensions>
    <trkseg>
      <trkpt lat="44.26206" lon="4.42011">
        <ele>93</ele>
        <time>2021-07-04T13:10:59Z</time>
      </trkpt>
      <trkpt lat="44.26206" lon="4.42011">
        <ele>93</ele>
        <time>2021-07-04T13:10:59Z</time>
      </trkpt>
      <trkpt lat="44.26307" lon="4.42028">
        <ele>88</ele>
        <time>2021-07-04T13:11:23Z</time>
      </trkpt>
      <trkpt lat="44.26424" lon="4.42075">
        <ele>90</ele>
        <time>2021-07-04T13:11:51Z</time>
      </trkpt>
      <trkpt lat="44.26439" lon="4.42118">
        <ele>90</ele>
        <time>2021-07-04T13:11:59Z</time>
      </trkpt>
      <trkpt lat="44.26455" lon="4.42191">
        <ele>91</ele>
        <time>2021-07-04T13:12:12Z</time>
      </trkpt>
      <trkpt lat="44.26492" lon="4.42275">
        <ele>92</ele>
        <time>2021-07-04T13:12:28Z</time>
      </trkpt>
      <trkpt lat="44.26533" lon="4.4235">
        <ele>92</ele>
        <time>2021-07-04T13:12:44Z</time>
      </trkpt>
      <trkpt lat="44.26546" lon="4.4238">
        <ele>93</ele>
        <time>2021-07-04T13:12:50Z</time>
      </trkpt>
      <trkpt lat="44.26601" lon="4.42582">
        <ele>100</ele>
        <time>2021-07-04T13:13:26Z</time>
      </trkpt>
      <trkpt lat="44.26618" lon="4.42625">
        <ele>102</ele>
        <time>2021-07-04T13:13:34Z</time>
      </trkpt>
      <trkpt lat="44.26668" lon="4.42683">
        <ele>97</ele>
        <time>2021-07-04T13:13:50Z</time>
      </trkpt>
      <trkpt lat="44.26708" lon="4.42773">
        <ele>100</ele>
        <time>2021-07-04T13:14:07Z</time>
      </trkpt>
      <trkpt lat="44.26725" lon="4.42841">
        <ele>105</ele>
        <time>2021-07-04T13:14:19Z</time>
      </trkpt>
      <trkpt lat="44.26738" lon="4.42906">
        <ele>110</ele>
        <time>2021-07-04T13:14:31Z</time>
      </trkpt>
      <trkpt lat="44.26756" lon="4.42934">
        <ele>110</ele>
        <time>2021-07-04T13:14:37Z</time>
      </trkpt>
      <trkpt lat="44.26751" lon="4.42989">
        <ele>116</ele>
        <time>2021-07-04T13:14:46Z</time>
      </trkpt>
      <trkpt lat="44.26805" lon="4.43024">
        <ele>117</ele>
        <time>2021-07-04T13:15:00Z</time>
      </trkpt>
      <trkpt lat="44.26813" lon="4.43037">
        <ele>118</ele>
        <time>2021-07-04T13:15:03Z</time>
      </trkpt>
      <trkpt lat="44.26764" lon="4.43082">
        <ele>125</ele>
        <time>2021-07-04T13:15:17Z</time>
      </trkpt>
      <trkpt lat="44.26738" lon="4.4311">
        <ele>130</ele>
        <time>2021-07-04T13:15:24Z</time>
      </trkpt>
      <trkpt lat="44.26787" lon="4.4323">
        <ele>143</ele>
        <time>2021-07-04T13:15:47Z</time>
      </trkpt>
      <trkpt lat="44.26791" lon="4.43257">
        <ele>146</ele>
        <time>2021-07-04T13:15:52Z</time>
      </trkpt>
      <trkpt lat="44.26751" lon="4.43223">
        <ele>148</ele>
        <time>2021-07-04T13:16:03Z</time>
      </trkpt>
      <trkpt lat="44.26747" lon="4.43245">
        <ele>151</ele>
        <time>2021-07-04T13:16:07Z</time>
      </trkpt>
      <trkpt lat="44.26805" lon="4.43397">
        <ele>159</ele>
        <time>2021-07-04T13:16:36Z</time>
      </trkpt>
      <trkpt lat="44.26794" lon="4.43426">
        <ele>164</ele>
        <time>2021-07-04T13:16:41Z</time>
      </trkpt>
      <trkpt lat="44.26742" lon="4.43493">
        <ele>174</ele>
        <time>2021-07-04T13:16:58Z</time>
      </trkpt>
      <trkpt lat="44.26661" lon="4.43588">
        <ele>180</ele>
        <time>2021-07-04T13:17:22Z</time>
      </trkpt>
      <trkpt lat="44.2669" lon="4.43606">
        <ele>179</ele>
        <time>2021-07-04T13:17:30Z</time>
      </trkpt>
      <trkpt lat="44.26684" lon="4.43642">
        <ele>179</ele>
        <time>2021-07-04T13:17:36Z</time>
      </trkpt>
      <trkpt lat="44.26637" lon="4.43845">
        <ele>187</ele>
        <time>2021-07-04T13:18:12Z</time>
      </trkpt>
      <trkpt lat="44.26594" lon="4.43851">
        <ele>188</ele>
        <time>2021-07-04T13:18:22Z</time>
      </trkpt>
      <trkpt lat="44.26577" lon="4.43893">
        <ele>189</ele>
        <time>2021-07-04T13:18:30Z</time>
      </trkpt>
      <trkpt lat="44.26499" lon="4.43981">
        <ele>185</ele>
        <time>2021-07-04T13:18:53Z</time>
      </trkpt>
      <trkpt lat="44.26565" lon="4.44028">
        <ele>196</ele>
        <time>2021-07-04T13:19:10Z</time>
      </trkpt>
      <trkpt lat="44.2661" lon="4.43969">
        <ele>197</ele>
        <time>2021-07-04T13:19:25Z</time>
      </trkpt>
      <trkpt lat="44.26648" lon="4.43951">
        <ele>199</ele>
        <time>2021-07-04T13:19:34Z</time>
      </trkpt>
      <trkpt lat="44.26702" lon="4.43963">
        <ele>202</ele>
        <time>2021-07-04T13:19:47Z</time>
      </trkpt>
      <trkpt lat="44.26744" lon="4.44012">
        <ele>213</ele>
        <time>2021-07-04T13:20:00Z</time>
      </trkpt>
      <trkpt lat="44.26801" lon="4.44036">
        <ele>213</ele>
        <time>2021-07-04T13:20:14Z</time>
      </trkpt>
      <trkpt lat="44.26837" lon="4.44063">
        <ele>214</ele>
        <time>2021-07-04T13:20:23Z</time>
      </trkpt>
      <trkpt lat="44.26842" lon="4.44097">
        <ele>218</ele>
        <time>2021-07-04T13:20:29Z</time>
      </trkpt>
      <trkpt lat="44.2683" lon="4.44134">
        <ele>222</ele>
        <time>2021-07-04T13:20:36Z</time>
      </trkpt>
      <trkpt lat="44.26768" lon="4.44229">
        <ele>234</ele>
        <time>2021-07-04T13:20:57Z</time>
      </trkpt>
      <trkpt lat="44.26739" lon="4.44314">
        <ele>242</ele>
        <time>2021-07-04T13:21:13Z</time>
      </trkpt>
      <trkpt lat="44.26722" lon="4.44322">
        <ele>242</ele>
        <time>2021-07-04T13:21:17Z</time>
      </trkpt>
      <trkpt lat="44.26719" lon="4.44308">
        <ele>241</ele>
        <time>2021-07-04T13:21:20Z</time>
      </trkpt>
      <trkpt lat="44.26698" lon="4.44316">
        <ele>240</ele>
        <time>2021-07-04T13:21:25Z</time>
      </trkpt>
      <trkpt lat="44.26697" lon="4.44261">
        <ele>236</ele>
        <time>2021-07-04T13:21:34Z</time>
      </trkpt>
      <trkpt lat="44.26533" lon="4.44474">
        <ele>216</ele>
        <time>2021-07-04T13:22:26Z</time>
      </trkpt>
      <trkpt lat="44.26514" lon="4.4448">
        <ele>210</ele>
        <time>2021-07-04T13:22:31Z</time>
      </trkpt>
      <trkpt lat="44.26503" lon="4.44469">
        <ele>205</ele>
        <time>2021-07-04T13:22:34Z</time>
      </trkpt>
      <trkpt lat="44.26485" lon="4.44409">
        <ele>199</ele>
        <time>2021-07-04T13:22:45Z</time>
      </trkpt>
      <trkpt lat="44.2644" lon="4.44392">
        <ele>190</ele>
        <time>2021-07-04T13:22:56Z</time>
      </trkpt>
      <trkpt lat="44.26401" lon="4.44277">
        <ele>180</ele>
        <time>2021-07-04T13:23:17Z</time>
      </trkpt>
      <trkpt lat="44.26391" lon="4.44254">
        <ele>178</ele>
        <time>2021-07-04T13:23:22Z</time>
      </trkpt>
      <trkpt lat="44.26308" lon="4.44205">
        <ele>173</ele>
        <time>2021-07-04T13:23:43Z</time>
      </trkpt>
      <trkpt lat="44.26306" lon="4.44289">
        <ele>171</ele>
        <time>2021-07-04T13:23:57Z</time>
      </trkpt>
      <trkpt lat="44.26293" lon="4.4433">
        <ele>168</ele>
        <time>2021-07-04T13:24:04Z</time>
      </trkpt>
      <trkpt lat="44.26285" lon="4.44398">
        <ele>168</ele>
        <time>2021-07-04T13:24:16Z</time>
      </trkpt>
      <trkpt lat="44.26276" lon="4.44446">
        <ele>168</ele>
        <time>2021-07-04T13:24:24Z</time>
      </trkpt>
      <trkpt lat="44.26297" lon="4.44498">
        <ele>173</ele>
        <time>2021-07-04T13:24:34Z</time>
      </trkpt>
      <trkpt lat="44.26295" lon="4.4454">
        <ele>176</ele>
        <time>2021-07-04T13:24:41Z</time>
      </trkpt>
      <trkpt lat="44.26284" lon="4.44572">
        <ele>176</ele>
        <time>2021-07-04T13:24:47Z</time>
      </trkpt>
      <trkpt lat="44.26265" lon="4.44614">
        <ele>176</ele>
        <time>2021-07-04T13:24:55Z</time>
      </trkpt>
      <trkpt lat="44.26252" lon="4.44626">
        <ele>174</ele>
        <time>2021-07-04T13:24:59Z</time>
      </trkpt>
      <trkpt lat="44.26267" lon="4.44674">
        <ele>178</ele>
        <time>2021-07-04T13:25:08Z</time>
      </trkpt>
      <trkpt lat="44.26297" lon="4.44753">
        <ele>182</ele>
        <time>2021-07-04T13:25:23Z</time>
      </trkpt>
      <trkpt lat="44.26293" lon="4.44785">
        <ele>178</ele>
        <time>2021-07-04T13:25:28Z</time>
      </trkpt>
      <trkpt lat="44.26326" lon="4.4479">
        <ele>184</ele>
        <time>2021-07-04T13:25:36Z</time>
      </trkpt>
      <trkpt lat="44.26398" lon="4.44811">
        <ele>192</ele>
        <time>2021-07-04T13:25:53Z</time>
      </trkpt>
      <trkpt lat="44.2643" lon="4.44816">
        <ele>196</ele>
        <time>2021-07-04T13:26:00Z</time>
      </trkpt>
      <trkpt lat="44.26462" lon="4.4484">
        <ele>196</ele>
        <time>2021-07-04T13:26:09Z</time>
      </trkpt>
      <trkpt lat="44.26497" lon="4.44849">
        <ele>199</ele>
        <time>2021-07-04T13:26:17Z</time>
      </trkpt>
      <trkpt lat="44.26583" lon="4.44965">
        <ele>204</ele>
        <time>2021-07-04T13:26:45Z</time>
      </trkpt>
      <trkpt lat="44.26595" lon="4.44994">
        <ele>205</ele>
        <time>2021-07-04T13:26:51Z</time>
      </trkpt>
      <trkpt lat="44.26574" lon="4.45122">
        <ele>215</ele>
        <time>2021-07-04T13:27:13Z</time>
      </trkpt>
      <trkpt lat="44.2657" lon="4.45187">
        <ele>223</ele>
        <time>2021-07-04T13:27:24Z</time>
      </trkpt>
      <trkpt lat="44.26572" lon="4.4528">
        <ele>232</ele>
        <time>2021-07-04T13:27:39Z</time>
      </trkpt>
      <trkpt lat="44.26583" lon="4.45362">
        <ele>241</ele>
        <time>2021-07-04T13:27:53Z</time>
      </trkpt>
      <trkpt lat="44.26603" lon="4.45447">
        <ele>253</ele>
        <time>2021-07-04T13:28:08Z</time>
      </trkpt>
      <trkpt lat="44.26624" lon="4.45515">
        <ele>261</ele>
        <time>2021-07-04T13:28:21Z</time>
      </trkpt>
      <trkpt lat="44.26646" lon="4.45612">
        <ele>271</ele>
        <time>2021-07-04T13:28:38Z</time>
      </trkpt>
      <trkpt lat="44.26642" lon="4.4564">
        <ele>273</ele>
        <time>2021-07-04T13:28:42Z</time>
      </trkpt>
      <trkpt lat="44.26624" lon="4.45693">
        <ele>273</ele>
        <time>2021-07-04T13:28:52Z</time>
      </trkpt>
      <trkpt lat="44.26693" lon="4.4579">
        <ele>273</ele>
        <time>2021-07-04T13:29:15Z</time>
      </trkpt>
      <trkpt lat="44.26728" lon="4.4585">
        <ele>271</ele>
        <time>2021-07-04T13:29:28Z</time>
      </trkpt>
      <trkpt lat="44.26782" lon="4.45976">
        <ele>264</ele>
        <time>2021-07-04T13:29:53Z</time>
      </trkpt>
      <trkpt lat="44.26813" lon="4.46079">
        <ele>259</ele>
        <time>2021-07-04T13:30:11Z</time>
      </trkpt>
      <trkpt lat="44.26804" lon="4.46124">
        <ele>254</ele>
        <time>2021-07-04T13:30:19Z</time>
      </trkpt>
      <trkpt lat="44.26833" lon="4.46227">
        <ele>254</ele>
        <time>2021-07-04T13:30:38Z</time>
      </trkpt>
      <trkpt lat="44.26854" lon="4.46341">
        <ele>254</ele>
        <time>2021-07-04T13:30:57Z</time>
      </trkpt>
      <trkpt lat="44.26857" lon="4.46423">
        <ele>258</ele>
        <time>2021-07-04T13:31:11Z</time>
      </trkpt>
      <trkpt lat="44.26861" lon="4.46442">
        <ele>258</ele>
        <time>2021-07-04T13:31:14Z</time>
      </trkpt>
      <trkpt lat="44.2687" lon="4.46433">
        <ele>259</ele>
        <time>2021-07-04T13:31:17Z</time>
      </trkpt>
      <trkpt lat="44.26896" lon="4.4644">
        <ele>261</ele>
        <time>2021-07-04T13:31:23Z</time>
      </trkpt>
      <trkpt lat="44.26917" lon="4.46459">
        <ele>263</ele>
        <time>2021-07-04T13:31:29Z</time>
      </trkpt>
      <trkpt lat="44.26941" lon="4.46452">
        <ele>262</ele>
        <time>2021-07-04T13:31:35Z</time>
      </trkpt>
      <trkpt lat="44.26977" lon="4.46478">
        <ele>262</ele>
        <time>2021-07-04T13:31:44Z</time>
      </trkpt>
      <trkpt lat="44.27043" lon="4.46508">
        <ele>260</ele>
        <time>2021-07-04T13:32:00Z</time>
      </trkpt>
      <trkpt lat="44.2711" lon="4.46514">
        <ele>257</ele>
        <time>2021-07-04T13:32:16Z</time>
      </trkpt>
      <trkpt lat="44.2711" lon="4.46546">
        <ele>255</ele>
        <time>2021-07-04T13:32:21Z</time>
      </trkpt>
      <trkpt lat="44.27118" lon="4.46559">
        <ele>253</ele>
        <time>2021-07-04T13:32:24Z</time>
      </trkpt>
      <trkpt lat="44.27137" lon="4.46576">
        <ele>251</ele>
        <time>2021-07-04T13:32:29Z</time>
      </trkpt>
      <trkpt lat="44.27143" lon="4.46592">
        <ele>249</ele>
        <time>2021-07-04T13:32:32Z</time>
      </trkpt>
      <trkpt lat="44.27159" lon="4.46667">
        <ele>242</ele>
        <time>2021-07-04T13:32:46Z</time>
      </trkpt>
      <trkpt lat="44.27177" lon="4.46684">
        <ele>239</ele>
        <time>2021-07-04T13:32:51Z</time>
      </trkpt>
      <trkpt lat="44.27203" lon="4.46725">
        <ele>234</ele>
        <time>2021-07-04T13:33:00Z</time>
      </trkpt>
      <trkpt lat="44.27202" lon="4.46741">
        <ele>233</ele>
        <time>2021-07-04T13:33:02Z</time>
      </trkpt>
      <trkpt lat="44.27188" lon="4.4677">
        <ele>233</ele>
        <time>2021-07-04T13:33:08Z</time>
      </trkpt>
      <trkpt lat="44.2717" lon="4.46866">
        <ele>233</ele>
        <time>2021-07-04T13:33:25Z</time>
      </trkpt>
      <trkpt lat="44.27152" lon="4.46908">
        <ele>236</ele>
        <time>2021-07-04T13:33:33Z</time>
      </trkpt>
      <trkpt lat="44.27127" lon="4.46947">
        <ele>240</ele>
        <time>2021-07-04T13:33:42Z</time>
      </trkpt>
      <trkpt lat="44.27126" lon="4.46968">
        <ele>240</ele>
        <time>2021-07-04T13:33:45Z</time>
      </trkpt>
      <trkpt lat="44.27152" lon="4.46993">
        <ele>238</ele>
        <time>2021-07-04T13:33:53Z</time>
      </trkpt>
      <trkpt lat="44.27177" lon="4.47027">
        <ele>238</ele>
        <time>2021-07-04T13:34:01Z</time>
      </trkpt>
      <trkpt lat="44.27209" lon="4.47051">
        <ele>237</ele>
        <time>2021-07-04T13:34:09Z</time>
      </trkpt>
      <trkpt lat="44.27239" lon="4.47085">
        <ele>236</ele>
        <time>2021-07-04T13:34:18Z</time>
      </trkpt>
      <trkpt lat="44.27289" lon="4.47127">
        <ele>239</ele>
        <time>2021-07-04T13:34:32Z</time>
      </trkpt>
      <trkpt lat="44.27285" lon="4.47138">
        <ele>240</ele>
        <time>2021-07-04T13:34:34Z</time>
      </trkpt>
      <trkpt lat="44.27265" lon="4.47151">
        <ele>241</ele>
        <time>2021-07-04T13:34:39Z</time>
      </trkpt>
      <trkpt lat="44.27258" lon="4.47163">
        <ele>243</ele>
        <time>2021-07-04T13:34:42Z</time>
      </trkpt>
      <trkpt lat="44.27238" lon="4.47206">
        <ele>248</ele>
        <time>2021-07-04T13:34:50Z</time>
      </trkpt>
      <trkpt lat="44.27233" lon="4.47238">
        <ele>252</ele>
        <time>2021-07-04T13:34:56Z</time>
      </trkpt>
      <trkpt lat="44.27238" lon="4.4727">
        <ele>253</ele>
        <time>2021-07-04T13:35:01Z</time>
      </trkpt>
      <trkpt lat="44.27224" lon="4.47323">
        <ele>256</ele>
        <time>2021-07-04T13:35:11Z</time>
      </trkpt>
      <trkpt lat="44.27215" lon="4.47423">
        <ele>262</ele>
        <time>2021-07-04T13:35:28Z</time>
      </trkpt>
      <trkpt lat="44.27212" lon="4.47559">
        <ele>270</ele>
        <time>2021-07-04T13:35:50Z</time>
      </trkpt>
      <trkpt lat="44.27216" lon="4.47641">
        <ele>275</ele>
        <time>2021-07-04T13:36:04Z</time>
      </trkpt>
      <trkpt lat="44.27203" lon="4.47672">
        <ele>277</ele>
        <time>2021-07-04T13:36:10Z</time>
      </trkpt>
      <trkpt lat="44.27185" lon="4.47693">
        <ele>277</ele>
        <time>2021-07-04T13:36:16Z</time>
      </trkpt>
      <trkpt lat="44.27155" lon="4.47764">
        <ele>278</ele>
        <time>2021-07-04T13:36:29Z</time>
      </trkpt>
      <trkpt lat="44.27111" lon="4.47821">
        <ele>278</ele>
        <time>2021-07-04T13:36:43Z</time>
      </trkpt>
      <trkpt lat="44.2708" lon="4.47874">
        <ele>280</ele>
        <time>2021-07-04T13:36:55Z</time>
      </trkpt>
      <trkpt lat="44.27075" lon="4.47892">
        <ele>281</ele>
        <time>2021-07-04T13:36:58Z</time>
      </trkpt>
      <trkpt lat="44.27069" lon="4.47959">
        <ele>283</ele>
        <time>2021-07-04T13:37:09Z</time>
      </trkpt>
      <trkpt lat="44.27087" lon="4.47989">
        <ele>285</ele>
        <time>2021-07-04T13:37:16Z</time>
      </trkpt>
      <trkpt lat="44.27097" lon="4.48024">
        <ele>285</ele>
        <time>2021-07-04T13:37:22Z</time>
      </trkpt>
      <trkpt lat="44.27105" lon="4.48042">
        <ele>286</ele>
        <time>2021-07-04T13:37:26Z</time>
      </trkpt>
      <trkpt lat="44.27116" lon="4.48048">
        <ele>287</ele>
        <time>2021-07-04T13:37:29Z</time>
      </trkpt>
      <trkpt lat="44.27138" lon="4.48021">
        <ele>287</ele>
        <time>2021-07-04T13:37:35Z</time>
      </trkpt>
      <trkpt lat="44.27158" lon="4.4801">
        <ele>287</ele>
        <time>2021-07-04T13:37:40Z</time>
      </trkpt>
      <trkpt lat="44.27184" lon="4.48014">
        <ele>286</ele>
        <time>2021-07-04T13:37:46Z</time>
      </trkpt>
      <trkpt lat="44.27209" lon="4.48035">
        <ele>286</ele>
        <time>2021-07-04T13:37:53Z</time>
      </trkpt>
      <trkpt lat="44.27239" lon="4.48053">
        <ele>284</ele>
        <time>2021-07-04T13:38:01Z</time>
      </trkpt>
      <trkpt lat="44.27263" lon="4.4808">
        <ele>282</ele>
        <time>2021-07-04T13:38:08Z</time>
      </trkpt>
      <trkpt lat="44.27348" lon="4.48093">
        <ele>278</ele>
        <time>2021-07-04T13:38:28Z</time>
      </trkpt>
      <trkpt lat="44.27371" lon="4.48108">
        <ele>278</ele>
        <time>2021-07-04T13:38:34Z</time>
      </trkpt>
      <trkpt lat="44.27407" lon="4.48103">
        <ele>278</ele>
        <time>2021-07-04T13:38:42Z</time>
      </trkpt>
      <trkpt lat="44.27435" lon="4.48102">
        <ele>277</ele>
        <time>2021-07-04T13:38:49Z</time>
      </trkpt>
      <trkpt lat="44.27456" lon="4.48071">
        <ele>275</ele>
        <time>2021-07-04T13:38:56Z</time>
      </trkpt>
      <trkpt lat="44.27484" lon="4.48045">
        <ele>274</ele>
        <time>2021-07-04T13:39:04Z</time>
      </trkpt>
      <trkpt lat="44.27523" lon="4.48014">
        <ele>271</ele>
        <time>2021-07-04T13:39:14Z</time>
      </trkpt>
      <trkpt lat="44.27594" lon="4.47949">
        <ele>269</ele>
        <time>2021-07-04T13:39:34Z</time>
      </trkpt>
      <trkpt lat="44.27646" lon="4.47912">
        <ele>269</ele>
        <time>2021-07-04T13:39:48Z</time>
      </trkpt>
      <trkpt lat="44.27694" lon="4.47884">
        <ele>269</ele>
        <time>2021-07-04T13:40:00Z</time>
      </trkpt>
      <trkpt lat="44.27775" lon="4.47823">
        <ele>266</ele>
        <time>2021-07-04T13:40:22Z</time>
      </trkpt>
      <trkpt lat="44.27807" lon="4.47792">
        <ele>265</ele>
        <time>2021-07-04T13:40:31Z</time>
      </trkpt>
      <trkpt lat="44.27835" lon="4.47773">
        <ele>264</ele>
        <time>2021-07-04T13:40:38Z</time>
      </trkpt>
      <trkpt lat="44.27848" lon="4.47753">
        <ele>263</ele>
        <time>2021-07-04T13:40:42Z</time>
      </trkpt>
      <trkpt lat="44.27861" lon="4.47754">
        <ele>262</ele>
        <time>2021-07-04T13:40:45Z</time>
      </trkpt>
      <trkpt lat="44.2788" lon="4.47738">
        <ele>261</ele>
        <time>2021-07-04T13:40:51Z</time>
      </trkpt>
      <trkpt lat="44.27914" lon="4.47726">
        <ele>259</ele>
        <time>2021-07-04T13:40:59Z</time>
      </trkpt>
      <trkpt lat="44.27993" lon="4.47686">
        <ele>260</ele>
        <time>2021-07-04T13:41:18Z</time>
      </trkpt>
      <trkpt lat="44.2802" lon="4.4767">
        <ele>263</ele>
        <time>2021-07-04T13:41:25Z</time>
      </trkpt>
      <trkpt lat="44.2803" lon="4.47657">
        <ele>264</ele>
        <time>2021-07-04T13:41:29Z</time>
      </trkpt>
      <trkpt lat="44.28041" lon="4.47657">
        <ele>266</ele>
        <time>2021-07-04T13:41:31Z</time>
      </trkpt>
      <trkpt lat="44.2804" lon="4.47639">
        <ele>266</ele>
        <time>2021-07-04T13:41:34Z</time>
      </trkpt>
      <trkpt lat="44.28053" lon="4.47612">
        <ele>268</ele>
        <time>2021-07-04T13:41:40Z</time>
      </trkpt>
      <trkpt lat="44.28075" lon="4.47577">
        <ele>270</ele>
        <time>2021-07-04T13:41:47Z</time>
      </trkpt>
      <trkpt lat="44.28109" lon="4.47533">
        <ele>271</ele>
        <time>2021-07-04T13:41:58Z</time>
      </trkpt>
      <trkpt lat="44.28122" lon="4.47508">
        <ele>270</ele>
        <time>2021-07-04T13:42:03Z</time>
      </trkpt>
      <trkpt lat="44.28153" lon="4.475">
        <ele>271</ele>
        <time>2021-07-04T13:42:11Z</time>
      </trkpt>
      <trkpt lat="44.28171" lon="4.47475">
        <ele>271</ele>
        <time>2021-07-04T13:42:17Z</time>
      </trkpt>
      <trkpt lat="44.28214" lon="4.47474">
        <ele>273</ele>
        <time>2021-07-04T13:42:27Z</time>
      </trkpt>
      <trkpt lat="44.28247" lon="4.47453">
        <ele>275</ele>
        <time>2021-07-04T13:42:35Z</time>
      </trkpt>
      <trkpt lat="44.28291" lon="4.4743">
        <ele>272</ele>
        <time>2021-07-04T13:42:46Z</time>
      </trkpt>
      <trkpt lat="44.28306" lon="4.47407">
        <ele>272</ele>
        <time>2021-07-04T13:42:51Z</time>
      </trkpt>
      <trkpt lat="44.28332" lon="4.47389">
        <ele>271</ele>
        <time>2021-07-04T13:42:58Z</time>
      </trkpt>
      <trkpt lat="44.28362" lon="4.47352">
        <ele>270</ele>
        <time>2021-07-04T13:43:07Z</time>
      </trkpt>
      <trkpt lat="44.28377" lon="4.4732">
        <ele>269</ele>
        <time>2021-07-04T13:43:14Z</time>
      </trkpt>
      <trkpt lat="44.28393" lon="4.47306">
        <ele>268</ele>
        <time>2021-07-04T13:43:18Z</time>
      </trkpt>
      <trkpt lat="44.28405" lon="4.47244">
        <ele>267</ele>
        <time>2021-07-04T13:43:29Z</time>
      </trkpt>
      <trkpt lat="44.28423" lon="4.47232">
        <ele>265</ele>
        <time>2021-07-04T13:43:34Z</time>
      </trkpt>
      <trkpt lat="44.2845" lon="4.4722">
        <ele>262</ele>
        <time>2021-07-04T13:43:40Z</time>
      </trkpt>
      <trkpt lat="44.28471" lon="4.47166">
        <ele>259</ele>
        <time>2021-07-04T13:43:51Z</time>
      </trkpt>
      <trkpt lat="44.28506" lon="4.47097">
        <ele>254</ele>
        <time>2021-07-04T13:44:05Z</time>
      </trkpt>
      <trkpt lat="44.28508" lon="4.47076">
        <ele>252</ele>
        <time>2021-07-04T13:44:08Z</time>
      </trkpt>
      <trkpt lat="44.28522" lon="4.47055">
        <ele>248</ele>
        <time>2021-07-04T13:44:13Z</time>
      </trkpt>
      <trkpt lat="44.28541" lon="4.47044">
        <ele>246</ele>
        <time>2021-07-04T13:44:18Z</time>
      </trkpt>
      <trkpt lat="44.28545" lon="4.47032">
        <ele>244</ele>
        <time>2021-07-04T13:44:20Z</time>
      </trkpt>
      <trkpt lat="44.28577" lon="4.47012">
        <ele>241</ele>
        <time>2021-07-04T13:44:28Z</time>
      </trkpt>
      <trkpt lat="44.28593" lon="4.47012">
        <ele>241</ele>
        <time>2021-07-04T13:44:32Z</time>
      </trkpt>
      <trkpt lat="44.28607" lon="4.46955">
        <ele>238</ele>
        <time>2021-07-04T13:44:42Z</time>
      </trkpt>
      <trkpt lat="44.28624" lon="4.4693">
        <ele>238</ele>
        <time>2021-07-04T13:44:48Z</time>
      </trkpt>
      <trkpt lat="44.28647" lon="4.46868">
        <ele>240</ele>
        <time>2021-07-04T13:44:59Z</time>
      </trkpt>
      <trkpt lat="44.28687" lon="4.46793">
        <ele>246</ele>
        <time>2021-07-04T13:45:15Z</time>
      </trkpt>
      <trkpt lat="44.28718" lon="4.46755">
        <ele>249</ele>
        <time>2021-07-04T13:45:25Z</time>
      </trkpt>
      <trkpt lat="44.28733" lon="4.46742">
        <ele>250</ele>
        <time>2021-07-04T13:45:29Z</time>
      </trkpt>
      <trkpt lat="44.28742" lon="4.46703">
        <ele>250</ele>
        <time>2021-07-04T13:45:36Z</time>
      </trkpt>
      <trkpt lat="44.28827" lon="4.46643">
        <ele>257</ele>
        <time>2021-07-04T13:45:58Z</time>
      </trkpt>
      <trkpt lat="44.28878" lon="4.46602">
        <ele>260</ele>
        <time>2021-07-04T13:46:12Z</time>
      </trkpt>
      <trkpt lat="44.28873" lon="4.46579">
        <ele>261</ele>
        <time>2021-07-04T13:46:16Z</time>
      </trkpt>
      <trkpt lat="44.28874" lon="4.4654">
        <ele>263</ele>
        <time>2021-07-04T13:46:22Z</time>
      </trkpt>
      <trkpt lat="44.2887" lon="4.4652">
        <ele>264</ele>
        <time>2021-07-04T13:46:26Z</time>
      </trkpt>
      <trkpt lat="44.28864" lon="4.46508">
        <ele>264</ele>
        <time>2021-07-04T13:46:28Z</time>
      </trkpt>
      <trkpt lat="44.28875" lon="4.4649">
        <ele>265</ele>
        <time>2021-07-04T13:46:32Z</time>
      </trkpt>
      <trkpt lat="44.28898" lon="4.46479">
        <ele>267</ele>
        <time>2021-07-04T13:46:38Z</time>
      </trkpt>
      <trkpt lat="44.28954" lon="4.46405">
        <ele>272</ele>
        <time>2021-07-04T13:46:56Z</time>
      </trkpt>
      <trkpt lat="44.28981" lon="4.46378">
        <ele>275</ele>
        <time>2021-07-04T13:47:04Z</time>
      </trkpt>
      <trkpt lat="44.28991" lon="4.46357">
        <ele>277</ele>
        <time>2021-07-04T13:47:08Z</time>
      </trkpt>
      <trkpt lat="44.2901" lon="4.46328">
        <ele>279</ele>
        <time>2021-07-04T13:47:14Z</time>
      </trkpt>
      <trkpt lat="44.29013" lon="4.46309">
        <ele>280</ele>
        <time>2021-07-04T13:47:18Z</time>
      </trkpt>
      <trkpt lat="44.29013" lon="4.46278">
        <ele>282</ele>
        <time>2021-07-04T13:47:23Z</time>
      </trkpt>
      <trkpt lat="44.2902" lon="4.46244">
        <ele>283</ele>
        <time>2021-07-04T13:47:29Z</time>
      </trkpt>
      <trkpt lat="44.29028" lon="4.46224">
        <ele>282</ele>
        <time>2021-07-04T13:47:32Z</time>
      </trkpt>
      <trkpt lat="44.29029" lon="4.46196">
        <ele>281</ele>
        <time>2021-07-04T13:47:37Z</time>
      </trkpt>
      <trkpt lat="44.29118" lon="4.46119">
        <ele>281</ele>
        <time>2021-07-04T13:48:02Z</time>
      </trkpt>
      <trkpt lat="44.2918" lon="4.46087">
        <ele>283</ele>
        <time>2021-07-04T13:48:17Z</time>
      </trkpt>
      <trkpt lat="44.29209" lon="4.46051">
        <ele>283</ele>
        <time>2021-07-04T13:48:26Z</time>
      </trkpt>
      <trkpt lat="44.29225" lon="4.46026">
        <ele>283</ele>
        <time>2021-07-04T13:48:32Z</time>
      </trkpt>
      <trkpt lat="44.29259" lon="4.46013">
        <ele>284</ele>
        <time>2021-07-04T13:48:40Z</time>
      </trkpt>
      <trkpt lat="44.29278" lon="4.46001">
        <ele>285</ele>
        <time>2021-07-04T13:48:45Z</time>
      </trkpt>
      <trkpt lat="44.29292" lon="4.45996">
        <ele>285</ele>
        <time>2021-07-04T13:48:48Z</time>
      </trkpt>
      <trkpt lat="44.29316" lon="4.45994">
        <ele>285</ele>
        <time>2021-07-04T13:48:54Z</time>
      </trkpt>
      <trkpt lat="44.29361" lon="4.4596">
        <ele>285</ele>
        <time>2021-07-04T13:49:06Z</time>
      </trkpt>
      <trkpt lat="44.29398" lon="4.45879">
        <ele>285</ele>
        <time>2021-07-04T13:49:22Z</time>
      </trkpt>
      <trkpt lat="44.29416" lon="4.45855">
        <ele>285</ele>
        <time>2021-07-04T13:49:28Z</time>
      </trkpt>
      <trkpt lat="44.29438" lon="4.45837">
        <ele>284</ele>
        <time>2021-07-04T13:49:34Z</time>
      </trkpt>
      <trkpt lat="44.29464" lon="4.45827">
        <ele>283</ele>
        <time>2021-07-04T13:49:40Z</time>
      </trkpt>
      <trkpt lat="44.2949" lon="4.45839">
        <ele>283</ele>
        <time>2021-07-04T13:49:46Z</time>
      </trkpt>
      <trkpt lat="44.29556" lon="4.4583">
        <ele>281</ele>
        <time>2021-07-04T13:50:02Z</time>
      </trkpt>
      <trkpt lat="44.29575" lon="4.4583">
        <ele>281</ele>
        <time>2021-07-04T13:50:06Z</time>
      </trkpt>
      <trkpt lat="44.29682" lon="4.45863">
        <ele>280</ele>
        <time>2021-07-04T13:50:32Z</time>
      </trkpt>
      <trkpt lat="44.29702" lon="4.45903">
        <ele>279</ele>
        <time>2021-07-04T13:50:40Z</time>
      </trkpt>
      <trkpt lat="44.29762" lon="4.46085">
        <ele>277</ele>
        <time>2021-07-04T13:51:13Z</time>
      </trkpt>
      <trkpt lat="44.29778" lon="4.46151">
        <ele>278</ele>
        <time>2021-07-04T13:51:25Z</time>
      </trkpt>
      <trkpt lat="44.2978" lon="4.46176">
        <ele>278</ele>
        <time>2021-07-04T13:51:29Z</time>
      </trkpt>
      <trkpt lat="44.29787" lon="4.46178">
        <ele>278</ele>
        <time>2021-07-04T13:51:31Z</time>
      </trkpt>
      <trkpt lat="44.29787" lon="4.46194">
        <ele>277</ele>
        <time>2021-07-04T13:51:34Z</time>
      </trkpt>
      <trkpt lat="44.29757" lon="4.46523">
        <ele>270</ele>
        <time>2021-07-04T13:52:29Z</time>
      </trkpt>
      <trkpt lat="44.29747" lon="4.46705">
        <ele>270</ele>
        <time>2021-07-04T13:53:00Z</time>
      </trkpt>
      <trkpt lat="44.29768" lon="4.46726">
        <ele>270</ele>
        <time>2021-07-04T13:53:06Z</time>
      </trkpt>
      <trkpt lat="44.29778" lon="4.46744">
        <ele>270</ele>
        <time>2021-07-04T13:53:09Z</time>
      </trkpt>
      <trkpt lat="44.29798" lon="4.46752">
        <ele>270</ele>
        <time>2021-07-04T13:53:14Z</time>
      </trkpt>
      <trkpt lat="44.29844" lon="4.46796">
        <ele>269</ele>
        <time>2021-07-04T13:53:27Z</time>
      </trkpt>
      <trkpt lat="44.29921" lon="4.46832">
        <ele>272</ele>
        <time>2021-07-04T13:53:46Z</time>
      </trkpt>
      <trkpt lat="44.29923" lon="4.46902">
        <ele>270</ele>
        <time>2021-07-04T13:53:58Z</time>
      </trkpt>
      <trkpt lat="44.29929" lon="4.46934">
        <ele>269</ele>
        <time>2021-07-04T13:54:03Z</time>
      </trkpt>
      <trkpt lat="44.29947" lon="4.46992">
        <ele>266</ele>
        <time>2021-07-04T13:54:14Z</time>
      </trkpt>
      <trkpt lat="44.29964" lon="4.4706">
        <ele>263</ele>
        <time>2021-07-04T13:54:26Z</time>
      </trkpt>
      <trkpt lat="44.29979" lon="4.471">
        <ele>261</ele>
        <time>2021-07-04T13:54:34Z</time>
      </trkpt>
      <trkpt lat="44.29981" lon="4.47124">
        <ele>261</ele>
        <time>2021-07-04T13:54:38Z</time>
      </trkpt>
      <trkpt lat="44.2998" lon="4.47153">
        <ele>260</ele>
        <time>2021-07-04T13:54:43Z</time>
      </trkpt>
      <trkpt lat="44.29989" lon="4.47228">
        <ele>258</ele>
        <time>2021-07-04T13:54:55Z</time>
      </trkpt>
      <trkpt lat="44.29984" lon="4.47276">
        <ele>257</ele>
        <time>2021-07-04T13:55:03Z</time>
      </trkpt>
      <trkpt lat="44.29972" lon="4.47317">
        <ele>257</ele>
        <time>2021-07-04T13:55:11Z</time>
      </trkpt>
      <trkpt lat="44.29968" lon="4.47377">
        <ele>257</ele>
        <time>2021-07-04T13:55:21Z</time>
      </trkpt>
      <trkpt lat="44.29952" lon="4.47415">
        <ele>259</ele>
        <time>2021-07-04T13:55:28Z</time>
      </trkpt>
      <trkpt lat="44.29947" lon="4.47449">
        <ele>259</ele>
        <time>2021-07-04T13:55:34Z</time>
      </trkpt>
      <trkpt lat="44.29949" lon="4.47482">
        <ele>259</ele>
        <time>2021-07-04T13:55:40Z</time>
      </trkpt>
      <trkpt lat="44.29963" lon="4.47509">
        <ele>259</ele>
        <time>2021-07-04T13:55:45Z</time>
      </trkpt>
      <trkpt lat="44.29999" lon="4.47505">
        <ele>259</ele>
        <time>2021-07-04T13:55:54Z</time>
      </trkpt>
      <trkpt lat="44.30032" lon="4.47489">
        <ele>258</ele>
        <time>2021-07-04T13:56:02Z</time>
      </trkpt>
      <trkpt lat="44.30049" lon="4.47451">
        <ele>256</ele>
        <time>2021-07-04T13:56:09Z</time>
      </trkpt>
      <trkpt lat="44.30081" lon="4.47421">
        <ele>255</ele>
        <time>2021-07-04T13:56:18Z</time>
      </trkpt>
      <trkpt lat="44.30109" lon="4.47411">
        <ele>253</ele>
        <time>2021-07-04T13:56:25Z</time>
      </trkpt>
      <trkpt lat="44.30164" lon="4.47414">
        <ele>248</ele>
        <time>2021-07-04T13:56:38Z</time>
      </trkpt>
      <trkpt lat="44.30215" lon="4.47361">
        <ele>251</ele>
        <time>2021-07-04T13:56:53Z</time>
      </trkpt>
      <trkpt lat="44.30249" lon="4.47336">
        <ele>252</ele>
        <time>2021-07-04T13:57:02Z</time>
      </trkpt>
      <trkpt lat="44.303" lon="4.47308">
        <ele>251</ele>
        <time>2021-07-04T13:57:14Z</time>
      </trkpt>
      <trkpt lat="44.30327" lon="4.47296">
        <ele>251</ele>
        <time>2021-07-04T13:57:21Z</time>
      </trkpt>
      <trkpt lat="44.30344" lon="4.47268">
        <ele>252</ele>
        <time>2021-07-04T13:57:27Z</time>
      </trkpt>
      <trkpt lat="44.30407" lon="4.47283">
        <ele>254</ele>
        <time>2021-07-04T13:57:42Z</time>
      </trkpt>
      <trkpt lat="44.30437" lon="4.47277">
        <ele>255</ele>
        <time>2021-07-04T13:57:49Z</time>
      </trkpt>
      <trkpt lat="44.30468" lon="4.47267">
        <ele>256</ele>
        <time>2021-07-04T13:57:57Z</time>
      </trkpt>
      <trkpt lat="44.30499" lon="4.47268">
        <ele>257</ele>
        <time>2021-07-04T13:58:04Z</time>
      </trkpt>
      <trkpt lat="44.30559" lon="4.47303">
        <ele>259</ele>
        <time>2021-07-04T13:58:19Z</time>
      </trkpt>
      <trkpt lat="44.30578" lon="4.47294">
        <ele>260</ele>
        <time>2021-07-04T13:58:24Z</time>
      </trkpt>
      <trkpt lat="44.30592" lon="4.4727">
        <ele>262</ele>
        <time>2021-07-04T13:58:29Z</time>
      </trkpt>
      <trkpt lat="44.30628" lon="4.47223">
        <ele>266</ele>
        <time>2021-07-04T13:58:40Z</time>
      </trkpt>
      <trkpt lat="44.30677" lon="4.47228">
        <ele>268</ele>
        <time>2021-07-04T13:58:52Z</time>
      </trkpt>
      <trkpt lat="44.30687" lon="4.47213">
        <ele>269</ele>
        <time>2021-07-04T13:58:55Z</time>
      </trkpt>
      <trkpt lat="44.3074" lon="4.47212">
        <ele>270</ele>
        <time>2021-07-04T13:59:08Z</time>
      </trkpt>
      <trkpt lat="44.30762" lon="4.47204">
        <ele>270</ele>
        <time>2021-07-04T13:59:13Z</time>
      </trkpt>
      <trkpt lat="44.30797" lon="4.47165">
        <ele>272</ele>
        <time>2021-07-04T13:59:23Z</time>
      </trkpt>
      <trkpt lat="44.30807" lon="4.47148">
        <ele>273</ele>
        <time>2021-07-04T13:59:27Z</time>
      </trkpt>
      <trkpt lat="44.30832" lon="4.47062">
        <ele>276</ele>
        <time>2021-07-04T13:59:43Z</time>
      </trkpt>
      <trkpt lat="44.30864" lon="4.46997">
        <ele>280</ele>
        <time>2021-07-04T13:59:56Z</time>
      </trkpt>
      <trkpt lat="44.30895" lon="4.46917">
        <ele>283</ele>
        <time>2021-07-04T14:00:11Z</time>
      </trkpt>
      <trkpt lat="44.30899" lon="4.4689">
        <ele>284</ele>
        <time>2021-07-04T14:00:16Z</time>
      </trkpt>
      <trkpt lat="44.30896" lon="4.46876">
        <ele>285</ele>
        <time>2021-07-04T14:00:18Z</time>
      </trkpt>
      <trkpt lat="44.30881" lon="4.46861">
        <ele>285</ele>
        <time>2021-07-04T14:00:22Z</time>
      </trkpt>
      <trkpt lat="44.30877" lon="4.46756">
        <ele>287</ele>
        <time>2021-07-04T14:00:40Z</time>
      </trkpt>
      <trkpt lat="44.30879" lon="4.4672">
        <ele>289</ele>
        <time>2021-07-04T14:00:46Z</time>
      </trkpt>
      <trkpt lat="44.30883" lon="4.46698">
        <ele>290</ele>
        <time>2021-07-04T14:00:50Z</time>
      </trkpt>
      <trkpt lat="44.30893" lon="4.46671">
        <ele>292</ele>
        <time>2021-07-04T14:00:55Z</time>
      </trkpt>
      <trkpt lat="44.30929" lon="4.46609">
        <ele>297</ele>
        <time>2021-07-04T14:01:08Z</time>
      </trkpt>
      <trkpt lat="44.30934" lon="4.46541">
        <ele>297</ele>
        <time>2021-07-04T14:01:20Z</time>
      </trkpt>
      <trkpt lat="44.30949" lon="4.46494">
        <ele>297</ele>
        <time>2021-07-04T14:01:28Z</time>
      </trkpt>
      <trkpt lat="44.30945" lon="4.4646">
        <ele>298</ele>
        <time>2021-07-04T14:01:34Z</time>
      </trkpt>
      <trkpt lat="44.30958" lon="4.46381">
        <ele>300</ele>
        <time>2021-07-04T14:01:47Z</time>
      </trkpt>
      <trkpt lat="44.30967" lon="4.46361">
        <ele>301</ele>
        <time>2021-07-04T14:01:51Z</time>
      </trkpt>
      <trkpt lat="44.30969" lon="4.46327">
        <ele>302</ele>
        <time>2021-07-04T14:01:57Z</time>
      </trkpt>
      <trkpt lat="44.30965" lon="4.46305">
        <ele>302</ele>
        <time>2021-07-04T14:02:01Z</time>
      </trkpt>
      <trkpt lat="44.30952" lon="4.4628">
        <ele>302</ele>
        <time>2021-07-04T14:02:06Z</time>
      </trkpt>
      <trkpt lat="44.30955" lon="4.46214">
        <ele>305</ele>
        <time>2021-07-04T14:02:17Z</time>
      </trkpt>
      <trkpt lat="44.30924" lon="4.46204">
        <ele>303</ele>
        <time>2021-07-04T14:02:25Z</time>
      </trkpt>
      <trkpt lat="44.30912" lon="4.46211">
        <ele>302</ele>
        <time>2021-07-04T14:02:28Z</time>
      </trkpt>
      <trkpt lat="44.3089" lon="4.46231">
        <ele>300</ele>
        <time>2021-07-04T14:02:34Z</time>
      </trkpt>
      <trkpt lat="44.3088" lon="4.46229">
        <ele>300</ele>
        <time>2021-07-04T14:02:36Z</time>
      </trkpt>
      <trkpt lat="44.30863" lon="4.4621">
        <ele>300</ele>
        <time>2021-07-04T14:02:41Z</time>
      </trkpt>
      <trkpt lat="44.30834" lon="4.46155">
        <ele>300</ele>
        <time>2021-07-04T14:02:53Z</time>
      </trkpt>
      <trkpt lat="44.30843" lon="4.46052">
        <ele>304</ele>
        <time>2021-07-04T14:03:10Z</time>
      </trkpt>
      <trkpt lat="44.30834" lon="4.46011">
        <ele>305</ele>
        <time>2021-07-04T14:03:17Z</time>
      </trkpt>
      <trkpt lat="44.30845" lon="4.45852">
        <ele>307</ele>
        <time>2021-07-04T14:03:44Z</time>
      </trkpt>
      <trkpt lat="44.30836" lon="4.45837">
        <ele>307</ele>
        <time>2021-07-04T14:03:47Z</time>
      </trkpt>
      <trkpt lat="44.30837" lon="4.45817">
        <ele>307</ele>
        <time>2021-07-04T14:03:50Z</time>
      </trkpt>
      <trkpt lat="44.30844" lon="4.45798">
        <ele>308</ele>
        <time>2021-07-04T14:03:54Z</time>
      </trkpt>
      <trkpt lat="44.30848" lon="4.45751">
        <ele>308</ele>
        <time>2021-07-04T14:04:02Z</time>
      </trkpt>
      <trkpt lat="44.30882" lon="4.45734">
        <ele>309</ele>
        <time>2021-07-04T14:04:10Z</time>
      </trkpt>
      <trkpt lat="44.30913" lon="4.45728">
        <ele>309</ele>
        <time>2021-07-04T14:04:18Z</time>
      </trkpt>
      <trkpt lat="44.30942" lon="4.45712">
        <ele>310</ele>
        <time>2021-07-04T14:04:25Z</time>
      </trkpt>
      <trkpt lat="44.30957" lon="4.45692">
        <ele>310</ele>
        <time>2021-07-04T14:04:30Z</time>
      </trkpt>
      <trkpt lat="44.30975" lon="4.45601">
        <ele>310</ele>
        <time>2021-07-04T14:04:46Z</time>
      </trkpt>
      <trkpt lat="44.30969" lon="4.45385">
        <ele>309</ele>
        <time>2021-07-04T14:05:22Z</time>
      </trkpt>
      <trkpt lat="44.30975" lon="4.45359">
        <ele>308</ele>
        <time>2021-07-04T14:05:26Z</time>
      </trkpt>
      <trkpt lat="44.30991" lon="4.45337">
        <ele>309</ele>
        <time>2021-07-04T14:05:31Z</time>
      </trkpt>
      <trkpt lat="44.30952" lon="4.45163">
        <ele>300</ele>
        <time>2021-07-04T14:06:02Z</time>
      </trkpt>
      <trkpt lat="44.30932" lon="4.45137">
        <ele>299</ele>
        <time>2021-07-04T14:06:08Z</time>
      </trkpt>
      <trkpt lat="44.30929" lon="4.45118">
        <ele>298</ele>
        <time>2021-07-04T14:06:12Z</time>
      </trkpt>
      <trkpt lat="44.30917" lon="4.451">
        <ele>298</ele>
        <time>2021-07-04T14:06:16Z</time>
      </trkpt>
      <trkpt lat="44.30912" lon="4.45088">
        <ele>297</ele>
        <time>2021-07-04T14:06:18Z</time>
      </trkpt>
      <trkpt lat="44.30901" lon="4.4502">
        <ele>295</ele>
        <time>2021-07-04T14:06:30Z</time>
      </trkpt>
      <trkpt lat="44.30881" lon="4.44946">
        <ele>292</ele>
        <time>2021-07-04T14:06:43Z</time>
      </trkpt>
      <trkpt lat="44.30876" lon="4.44909">
        <ele>291</ele>
        <time>2021-07-04T14:06:49Z</time>
      </trkpt>
      <trkpt lat="44.30846" lon="4.44784">
        <ele>286</ele>
        <time>2021-07-04T14:07:11Z</time>
      </trkpt>
      <trkpt lat="44.3083" lon="4.44694">
        <ele>284</ele>
        <time>2021-07-04T14:07:27Z</time>
      </trkpt>
      <trkpt lat="44.30823" lon="4.44668">
        <ele>284</ele>
        <time>2021-07-04T14:07:31Z</time>
      </trkpt>
      <trkpt lat="44.30813" lon="4.44664">
        <ele>284</ele>
        <time>2021-07-04T14:07:34Z</time>
      </trkpt>
      <trkpt lat="44.30806" lon="4.44619">
        <ele>282</ele>
        <time>2021-07-04T14:07:41Z</time>
      </trkpt>
      <trkpt lat="44.30806" lon="4.44599">
        <ele>281</ele>
        <time>2021-07-04T14:07:45Z</time>
      </trkpt>
      <trkpt lat="44.30794" lon="4.44586">
        <ele>281</ele>
        <time>2021-07-04T14:07:48Z</time>
      </trkpt>
      <trkpt lat="44.30779" lon="4.44577">
        <ele>281</ele>
        <time>2021-07-04T14:07:52Z</time>
      </trkpt>
      <trkpt lat="44.30764" lon="4.44574">
        <ele>282</ele>
        <time>2021-07-04T14:07:56Z</time>
      </trkpt>
      <trkpt lat="44.30736" lon="4.4453">
        <ele>282</ele>
        <time>2021-07-04T14:08:06Z</time>
      </trkpt>
      <trkpt lat="44.30715" lon="4.44486">
        <ele>281</ele>
        <time>2021-07-04T14:08:14Z</time>
      </trkpt>
      <trkpt lat="44.3075" lon="4.44461">
        <ele>280</ele>
        <time>2021-07-04T14:08:24Z</time>
      </trkpt>
      <trkpt lat="44.30794" lon="4.44466">
        <ele>276</ele>
        <time>2021-07-04T14:08:34Z</time>
      </trkpt>
      <trkpt lat="44.30811" lon="4.44459">
        <ele>273</ele>
        <time>2021-07-04T14:08:38Z</time>
      </trkpt>
      <trkpt lat="44.3085" lon="4.44458">
        <ele>268</ele>
        <time>2021-07-04T14:08:47Z</time>
      </trkpt>
      <trkpt lat="44.30891" lon="4.44472">
        <ele>263</ele>
        <time>2021-07-04T14:08:57Z</time>
      </trkpt>
      <trkpt lat="44.30919" lon="4.44468">
        <ele>259</ele>
        <time>2021-07-04T14:09:04Z</time>
      </trkpt>
      <trkpt lat="44.30945" lon="4.44455">
        <ele>256</ele>
        <time>2021-07-04T14:09:10Z</time>
      </trkpt>
      <trkpt lat="44.30983" lon="4.44458">
        <ele>255</ele>
        <time>2021-07-04T14:09:19Z</time>
      </trkpt>
      <trkpt lat="44.31" lon="4.44457">
        <ele>254</ele>
        <time>2021-07-04T14:09:23Z</time>
      </trkpt>
      <trkpt lat="44.31022" lon="4.44443">
        <ele>257</ele>
        <time>2021-07-04T14:09:29Z</time>
      </trkpt>
      <trkpt lat="44.31015" lon="4.44426">
        <ele>255</ele>
        <time>2021-07-04T14:09:32Z</time>
      </trkpt>
      <trkpt lat="44.3098" lon="4.4443">
        <ele>253</ele>
        <time>2021-07-04T14:09:40Z</time>
      </trkpt>
      <trkpt lat="44.3096" lon="4.44423">
        <ele>253</ele>
        <time>2021-07-04T14:09:45Z</time>
      </trkpt>
      <trkpt lat="44.30944" lon="4.44392">
        <ele>253</ele>
        <time>2021-07-04T14:09:51Z</time>
      </trkpt>
      <trkpt lat="44.3093" lon="4.44373">
        <ele>253</ele>
        <time>2021-07-04T14:09:56Z</time>
      </trkpt>
      <trkpt lat="44.30909" lon="4.44356">
        <ele>253</ele>
        <time>2021-07-04T14:10:01Z</time>
      </trkpt>
      <trkpt lat="44.309" lon="4.44342">
        <ele>254</ele>
        <time>2021-07-04T14:10:05Z</time>
      </trkpt>
      <trkpt lat="44.30895" lon="4.44315">
        <ele>254</ele>
        <time>2021-07-04T14:10:09Z</time>
      </trkpt>
      <trkpt lat="44.30883" lon="4.44294">
        <ele>255</ele>
        <time>2021-07-04T14:10:14Z</time>
      </trkpt>
      <trkpt lat="44.30873" lon="4.4427">
        <ele>256</ele>
        <time>2021-07-04T14:10:18Z</time>
      </trkpt>
      <trkpt lat="44.30868" lon="4.44238">
        <ele>256</ele>
        <time>2021-07-04T14:10:24Z</time>
      </trkpt>
      <trkpt lat="44.30876" lon="4.44214">
        <ele>254</ele>
        <time>2021-07-04T14:10:28Z</time>
      </trkpt>
      <trkpt lat="44.30886" lon="4.44198">
        <ele>253</ele>
        <time>2021-07-04T14:10:32Z</time>
      </trkpt>
      <trkpt lat="44.30898" lon="4.44134">
        <ele>250</ele>
        <time>2021-07-04T14:10:43Z</time>
      </trkpt>
      <trkpt lat="44.30898" lon="4.44113">
        <ele>250</ele>
        <time>2021-07-04T14:10:46Z</time>
      </trkpt>
      <trkpt lat="44.30889" lon="4.44052">
        <ele>250</ele>
        <time>2021-07-04T14:10:57Z</time>
      </trkpt>
      <trkpt lat="44.30879" lon="4.44034">
        <ele>250</ele>
        <time>2021-07-04T14:11:01Z</time>
      </trkpt>
      <trkpt lat="44.3085" lon="4.43994">
        <ele>247</ele>
        <time>2021-07-04T14:11:10Z</time>
      </trkpt>
      <trkpt lat="44.30813" lon="4.43958">
        <ele>245</ele>
        <time>2021-07-04T14:11:21Z</time>
      </trkpt>
      <trkpt lat="44.30791" lon="4.43918">
        <ele>243</ele>
        <time>2021-07-04T14:11:29Z</time>
      </trkpt>
      <trkpt lat="44.30775" lon="4.43902">
        <ele>244</ele>
        <time>2021-07-04T14:11:34Z</time>
      </trkpt>
      <trkpt lat="44.30752" lon="4.43896">
        <ele>245</ele>
        <time>2021-07-04T14:11:39Z</time>
      </trkpt>
      <trkpt lat="44.30725" lon="4.43898">
        <ele>244</ele>
        <time>2021-07-04T14:11:45Z</time>
      </trkpt>
      <trkpt lat="44.3071" lon="4.43893">
        <ele>245</ele>
        <time>2021-07-04T14:11:49Z</time>
      </trkpt>
      <trkpt lat="44.30691" lon="4.43872">
        <ele>249</ele>
        <time>2021-07-04T14:11:55Z</time>
      </trkpt>
      <trkpt lat="44.30674" lon="4.43847">
        <ele>254</ele>
        <time>2021-07-04T14:12:00Z</time>
      </trkpt>
      <trkpt lat="44.30665" lon="4.43823">
        <ele>258</ele>
        <time>2021-07-04T14:12:05Z</time>
      </trkpt>
      <trkpt lat="44.30657" lon="4.43817">
        <ele>259</ele>
        <time>2021-07-04T14:12:07Z</time>
      </trkpt>
      <trkpt lat="44.30654" lon="4.43793">
        <ele>263</ele>
        <time>2021-07-04T14:12:11Z</time>
      </trkpt>
      <trkpt lat="44.30659" lon="4.4373">
        <ele>272</ele>
        <time>2021-07-04T14:12:22Z</time>
      </trkpt>
      <trkpt lat="44.30663" lon="4.43687">
        <ele>276</ele>
        <time>2021-07-04T14:12:29Z</time>
      </trkpt>
      <trkpt lat="44.30672" lon="4.43647">
        <ele>279</ele>
        <time>2021-07-04T14:12:36Z</time>
      </trkpt>
      <trkpt lat="44.30674" lon="4.43626">
        <ele>280</ele>
        <time>2021-07-04T14:12:40Z</time>
      </trkpt>
      <trkpt lat="44.30671" lon="4.43606">
        <ele>281</ele>
        <time>2021-07-04T14:12:43Z</time>
      </trkpt>
      <trkpt lat="44.30661" lon="4.43586">
        <ele>282</ele>
        <time>2021-07-04T14:12:47Z</time>
      </trkpt>
      <trkpt lat="44.30667" lon="4.43527">
        <ele>285</ele>
        <time>2021-07-04T14:12:57Z</time>
      </trkpt>
      <trkpt lat="44.30652" lon="4.43508">
        <ele>286</ele>
        <time>2021-07-04T14:13:02Z</time>
      </trkpt>
      <trkpt lat="44.30627" lon="4.43488">
        <ele>287</ele>
        <time>2021-07-04T14:13:08Z</time>
      </trkpt>
      <trkpt lat="44.30615" lon="4.43475">
        <ele>288</ele>
        <time>2021-07-04T14:13:12Z</time>
      </trkpt>
      <trkpt lat="44.30608" lon="4.43461">
        <ele>289</ele>
        <time>2021-07-04T14:13:15Z</time>
      </trkpt>
      <trkpt lat="44.30596" lon="4.43457">
        <ele>290</ele>
        <time>2021-07-04T14:13:18Z</time>
      </trkpt>
      <trkpt lat="44.30582" lon="4.43447">
        <ele>291</ele>
        <time>2021-07-04T14:13:21Z</time>
      </trkpt>
      <trkpt lat="44.30608" lon="4.43278">
        <ele>292</ele>
        <time>2021-07-04T14:13:50Z</time>
      </trkpt>
      <trkpt lat="44.30615" lon="4.4325">
        <ele>291</ele>
        <time>2021-07-04T14:13:55Z</time>
      </trkpt>
      <trkpt lat="44.30625" lon="4.43178">
        <ele>285</ele>
        <time>2021-07-04T14:14:08Z</time>
      </trkpt>
      <trkpt lat="44.30631" lon="4.43158">
        <ele>284</ele>
        <time>2021-07-04T14:14:11Z</time>
      </trkpt>
      <trkpt lat="44.30646" lon="4.43138">
        <ele>283</ele>
        <time>2021-07-04T14:14:16Z</time>
      </trkpt>
      <trkpt lat="44.30695" lon="4.43122">
        <ele>284</ele>
        <time>2021-07-04T14:14:28Z</time>
      </trkpt>
      <trkpt lat="44.30721" lon="4.43106">
        <ele>284</ele>
        <time>2021-07-04T14:14:34Z</time>
      </trkpt>
      <trkpt lat="44.30767" lon="4.4304">
        <ele>282</ele>
        <time>2021-07-04T14:14:50Z</time>
      </trkpt>
      <trkpt lat="44.30823" lon="4.42979">
        <ele>284</ele>
        <time>2021-07-04T14:15:06Z</time>
      </trkpt>
      <trkpt lat="44.30817" lon="4.42951">
        <ele>284</ele>
        <time>2021-07-04T14:15:11Z</time>
      </trkpt>
      <trkpt lat="44.30807" lon="4.42935">
        <ele>284</ele>
        <time>2021-07-04T14:15:15Z</time>
      </trkpt>
      <trkpt lat="44.30797" lon="4.42927">
        <ele>284</ele>
        <time>2021-07-04T14:15:17Z</time>
      </trkpt>
      <trkpt lat="44.30765" lon="4.42928">
        <ele>282</ele>
        <time>2021-07-04T14:15:25Z</time>
      </trkpt>
      <trkpt lat="44.30715" lon="4.42922">
        <ele>280</ele>
        <time>2021-07-04T14:15:37Z</time>
      </trkpt>
      <trkpt lat="44.30625" lon="4.4289">
        <ele>279</ele>
        <time>2021-07-04T14:15:58Z</time>
      </trkpt>
      <trkpt lat="44.30576" lon="4.42867">
        <ele>280</ele>
        <time>2021-07-04T14:16:10Z</time>
      </trkpt>
      <trkpt lat="44.30572" lon="4.42851">
        <ele>282</ele>
        <time>2021-07-04T14:16:13Z</time>
      </trkpt>
      <trkpt lat="44.30555" lon="4.42833">
        <ele>284</ele>
        <time>2021-07-04T14:16:18Z</time>
      </trkpt>
      <trkpt lat="44.30549" lon="4.42802">
        <ele>285</ele>
        <time>2021-07-04T14:16:24Z</time>
      </trkpt>
      <trkpt lat="44.30544" lon="4.42752">
        <ele>287</ele>
        <time>2021-07-04T14:16:32Z</time>
      </trkpt>
      <trkpt lat="44.30559" lon="4.42677">
        <ele>289</ele>
        <time>2021-07-04T14:16:45Z</time>
      </trkpt>
      <trkpt lat="44.3054" lon="4.4262">
        <ele>288</ele>
        <time>2021-07-04T14:16:56Z</time>
      </trkpt>
      <trkpt lat="44.30534" lon="4.42585">
        <ele>288</ele>
        <time>2021-07-04T14:17:02Z</time>
      </trkpt>
      <trkpt lat="44.30512" lon="4.42529">
        <ele>285</ele>
        <time>2021-07-04T14:17:12Z</time>
      </trkpt>
      <trkpt lat="44.30496" lon="4.42459">
        <ele>282</ele>
        <time>2021-07-04T14:17:25Z</time>
      </trkpt>
      <trkpt lat="44.30483" lon="4.42449">
        <ele>281</ele>
        <time>2021-07-04T14:17:28Z</time>
      </trkpt>
      <trkpt lat="44.30465" lon="4.42402">
        <ele>279</ele>
        <time>2021-07-04T14:17:37Z</time>
      </trkpt>
      <trkpt lat="44.30431" lon="4.42352">
        <ele>278</ele>
        <time>2021-07-04T14:17:48Z</time>
      </trkpt>
      <trkpt lat="44.30432" lon="4.42336">
        <ele>277</ele>
        <time>2021-07-04T14:17:51Z</time>
      </trkpt>
      <trkpt lat="44.30446" lon="4.42326">
        <ele>277</ele>
        <time>2021-07-04T14:17:55Z</time>
      </trkpt>
      <trkpt lat="44.30436" lon="4.42296">
        <ele>276</ele>
        <time>2021-07-04T14:18:00Z</time>
      </trkpt>
      <trkpt lat="44.3042" lon="4.42276">
        <ele>274</ele>
        <time>2021-07-04T14:18:05Z</time>
      </trkpt>
      <trkpt lat="44.30416" lon="4.4226">
        <ele>274</ele>
        <time>2021-07-04T14:18:08Z</time>
      </trkpt>
      <trkpt lat="44.30407" lon="4.42251">
        <ele>274</ele>
        <time>2021-07-04T14:18:11Z</time>
      </trkpt>
      <trkpt lat="44.30379" lon="4.42174">
        <ele>274</ele>
        <time>2021-07-04T14:18:25Z</time>
      </trkpt>
      <trkpt lat="44.3037" lon="4.42163">
        <ele>274</ele>
        <time>2021-07-04T14:18:28Z</time>
      </trkpt>
      <trkpt lat="44.30369" lon="4.42151">
        <ele>273</ele>
        <time>2021-07-04T14:18:30Z</time>
      </trkpt>
      <trkpt lat="44.3036" lon="4.42127">
        <ele>272</ele>
        <time>2021-07-04T14:18:35Z</time>
      </trkpt>
      <trkpt lat="44.30347" lon="4.42073">
        <ele>270</ele>
        <time>2021-07-04T14:18:44Z</time>
      </trkpt>
      <trkpt lat="44.30326" lon="4.42007">
        <ele>266</ele>
        <time>2021-07-04T14:18:56Z</time>
      </trkpt>
      <trkpt lat="44.30303" lon="4.41968">
        <ele>264</ele>
        <time>2021-07-04T14:19:05Z</time>
      </trkpt>
      <trkpt lat="44.30296" lon="4.41951">
        <ele>263</ele>
        <time>2021-07-04T14:19:08Z</time>
      </trkpt>
      <trkpt lat="44.30302" lon="4.41893">
        <ele>262</ele>
        <time>2021-07-04T14:19:18Z</time>
      </trkpt>
      <trkpt lat="44.30299" lon="4.41875">
        <ele>263</ele>
        <time>2021-07-04T14:19:21Z</time>
      </trkpt>
      <trkpt lat="44.30283" lon="4.41827">
        <ele>263</ele>
        <time>2021-07-04T14:19:30Z</time>
      </trkpt>
      <trkpt lat="44.30248" lon="4.41749">
        <ele>266</ele>
        <time>2021-07-04T14:19:45Z</time>
      </trkpt>
      <trkpt lat="44.30236" lon="4.41709">
        <ele>266</ele>
        <time>2021-07-04T14:19:52Z</time>
      </trkpt>
      <trkpt lat="44.30211" lon="4.41644">
        <ele>266</ele>
        <time>2021-07-04T14:20:05Z</time>
      </trkpt>
      <trkpt lat="44.30203" lon="4.4162">
        <ele>266</ele>
        <time>2021-07-04T14:20:09Z</time>
      </trkpt>
      <trkpt lat="44.30178" lon="4.41517">
        <ele>266</ele>
        <time>2021-07-04T14:20:27Z</time>
      </trkpt>
      <trkpt lat="44.30195" lon="4.41509">
        <ele>267</ele>
        <time>2021-07-04T14:20:31Z</time>
      </trkpt>
      <trkpt lat="44.30208" lon="4.41494">
        <ele>268</ele>
        <time>2021-07-04T14:20:35Z</time>
      </trkpt>
      <trkpt lat="44.30244" lon="4.41485">
        <ele>269</ele>
        <time>2021-07-04T14:20:44Z</time>
      </trkpt>
      <trkpt lat="44.30301" lon="4.41466">
        <ele>269</ele>
        <time>2021-07-04T14:20:58Z</time>
      </trkpt>
      <trkpt lat="44.30317" lon="4.41467">
        <ele>270</ele>
        <time>2021-07-04T14:21:01Z</time>
      </trkpt>
      <trkpt lat="44.30334" lon="4.4148">
        <ele>270</ele>
        <time>2021-07-04T14:21:06Z</time>
      </trkpt>
      <trkpt lat="44.30348" lon="4.41503">
        <ele>272</ele>
        <time>2021-07-04T14:21:11Z</time>
      </trkpt>
      <trkpt lat="44.30402" lon="4.41536">
        <ele>275</ele>
        <time>2021-07-04T14:21:25Z</time>
      </trkpt>
      <trkpt lat="44.30443" lon="4.41567">
        <ele>278</ele>
        <time>2021-07-04T14:21:35Z</time>
      </trkpt>
      <trkpt lat="44.30478" lon="4.4159">
        <ele>279</ele>
        <time>2021-07-04T14:21:45Z</time>
      </trkpt>
      <trkpt lat="44.30502" lon="4.4159">
        <ele>279</ele>
        <time>2021-07-04T14:21:50Z</time>
      </trkpt>
      <trkpt lat="44.30536" lon="4.41577">
        <ele>278</ele>
        <time>2021-07-04T14:21:58Z</time>
      </trkpt>
      <trkpt lat="44.30543" lon="4.41566">
        <ele>278</ele>
        <time>2021-07-04T14:22:01Z</time>
      </trkpt>
      <trkpt lat="44.30562" lon="4.41558">
        <ele>277</ele>
        <time>2021-07-04T14:22:05Z</time>
      </trkpt>
      <trkpt lat="44.30575" lon="4.41546">
        <ele>277</ele>
        <time>2021-07-04T14:22:09Z</time>
      </trkpt>
      <trkpt lat="44.30592" lon="4.41536">
        <ele>277</ele>
        <time>2021-07-04T14:22:13Z</time>
      </trkpt>
      <trkpt lat="44.30628" lon="4.41554">
        <ele>278</ele>
        <time>2021-07-04T14:22:22Z</time>
      </trkpt>
      <trkpt lat="44.30651" lon="4.41554">
        <ele>279</ele>
        <time>2021-07-04T14:22:28Z</time>
      </trkpt>
      <trkpt lat="44.30691" lon="4.41526">
        <ele>278</ele>
        <time>2021-07-04T14:22:38Z</time>
      </trkpt>
      <trkpt lat="44.30723" lon="4.41496">
        <ele>276</ele>
        <time>2021-07-04T14:22:47Z</time>
      </trkpt>
      <trkpt lat="44.30783" lon="4.41501">
        <ele>273</ele>
        <time>2021-07-04T14:23:01Z</time>
      </trkpt>
      <trkpt lat="44.30793" lon="4.41497">
        <ele>272</ele>
        <time>2021-07-04T14:23:04Z</time>
      </trkpt>
      <trkpt lat="44.3081" lon="4.41466">
        <ele>268</ele>
        <time>2021-07-04T14:23:10Z</time>
      </trkpt>
      <trkpt lat="44.30817" lon="4.41447">
        <ele>267</ele>
        <time>2021-07-04T14:23:14Z</time>
      </trkpt>
      <trkpt lat="44.3083" lon="4.41444">
        <ele>266</ele>
        <time>2021-07-04T14:23:17Z</time>
      </trkpt>
      <trkpt lat="44.30869" lon="4.4145">
        <ele>265</ele>
        <time>2021-07-04T14:23:26Z</time>
      </trkpt>
      <trkpt lat="44.30882" lon="4.41439">
        <ele>265</ele>
        <time>2021-07-04T14:23:29Z</time>
      </trkpt>
      <trkpt lat="44.30889" lon="4.41418">
        <ele>265</ele>
        <time>2021-07-04T14:23:33Z</time>
      </trkpt>
      <trkpt lat="44.30949" lon="4.41283">
        <ele>270</ele>
        <time>2021-07-04T14:24:00Z</time>
      </trkpt>
      <trkpt lat="44.30968" lon="4.41273">
        <ele>271</ele>
        <time>2021-07-04T14:24:05Z</time>
      </trkpt>
      <trkpt lat="44.30991" lon="4.41248">
        <ele>273</ele>
        <time>2021-07-04T14:24:11Z</time>
      </trkpt>
      <trkpt lat="44.3101" lon="4.41244">
        <ele>275</ele>
        <time>2021-07-04T14:24:16Z</time>
      </trkpt>
      <trkpt lat="44.31042" lon="4.41198">
        <ele>276</ele>
        <time>2021-07-04T14:24:27Z</time>
      </trkpt>
      <trkpt lat="44.31061" lon="4.41188">
        <ele>277</ele>
        <time>2021-07-04T14:24:31Z</time>
      </trkpt>
      <trkpt lat="44.31074" lon="4.41178">
        <ele>277</ele>
        <time>2021-07-04T14:24:35Z</time>
      </trkpt>
      <trkpt lat="44.31128" lon="4.41177">
        <ele>280</ele>
        <time>2021-07-04T14:24:47Z</time>
      </trkpt>
      <trkpt lat="44.31193" lon="4.41171">
        <ele>282</ele>
        <time>2021-07-04T14:25:03Z</time>
      </trkpt>
      <trkpt lat="44.31221" lon="4.41144">
        <ele>283</ele>
        <time>2021-07-04T14:25:11Z</time>
      </trkpt>
      <trkpt lat="44.31281" lon="4.41097">
        <ele>285</ele>
        <time>2021-07-04T14:25:27Z</time>
      </trkpt>
      <trkpt lat="44.31306" lon="4.40983">
        <ele>283</ele>
        <time>2021-07-04T14:25:47Z</time>
      </trkpt>
      <trkpt lat="44.3132" lon="4.40988">
        <ele>282</ele>
        <time>2021-07-04T14:25:50Z</time>
      </trkpt>
      <trkpt lat="44.31329" lon="4.40987">
        <ele>282</ele>
        <time>2021-07-04T14:25:52Z</time>
      </trkpt>
      <trkpt lat="44.31338" lon="4.41021">
        <ele>283</ele>
        <time>2021-07-04T14:25:58Z</time>
      </trkpt>
      <trkpt lat="44.31349" lon="4.41047">
        <ele>284</ele>
        <time>2021-07-04T14:26:03Z</time>
      </trkpt>
      <trkpt lat="44.31363" lon="4.41062">
        <ele>285</ele>
        <time>2021-07-04T14:26:07Z</time>
      </trkpt>
      <trkpt lat="44.31391" lon="4.41082">
        <ele>286</ele>
        <time>2021-07-04T14:26:15Z</time>
      </trkpt>
      <trkpt lat="44.31468" lon="4.41084">
        <ele>288</ele>
        <time>2021-07-04T14:26:33Z</time>
      </trkpt>
      <trkpt lat="44.31609" lon="4.4108">
        <ele>293</ele>
        <time>2021-07-04T14:27:06Z</time>
      </trkpt>
      <trkpt lat="44.3165" lon="4.41084">
        <ele>294</ele>
        <time>2021-07-04T14:27:15Z</time>
      </trkpt>
      <trkpt lat="44.31692" lon="4.41099">
        <ele>296</ele>
        <time>2021-07-04T14:27:25Z</time>
      </trkpt>
      <trkpt lat="44.31744" lon="4.41148">
        <ele>299</ele>
        <time>2021-07-04T14:27:40Z</time>
      </trkpt>
      <trkpt lat="44.31752" lon="4.41124">
        <ele>299</ele>
        <time>2021-07-04T14:27:44Z</time>
      </trkpt>
      <trkpt lat="44.3176" lon="4.4114">
        <ele>299</ele>
        <time>2021-07-04T14:27:48Z</time>
      </trkpt>
      <trkpt lat="44.31781" lon="4.4115">
        <ele>301</ele>
        <time>2021-07-04T14:27:53Z</time>
      </trkpt>
      <trkpt lat="44.31832" lon="4.41208">
        <ele>303</ele>
        <time>2021-07-04T14:28:08Z</time>
      </trkpt>
      <trkpt lat="44.31829" lon="4.41182">
        <ele>303</ele>
        <time>2021-07-04T14:28:13Z</time>
      </trkpt>
      <trkpt lat="44.3183" lon="4.4115">
        <ele>304</ele>
        <time>2021-07-04T14:28:18Z</time>
      </trkpt>
      <trkpt lat="44.31838" lon="4.41142">
        <ele>304</ele>
        <time>2021-07-04T14:28:20Z</time>
      </trkpt>
      <trkpt lat="44.31832" lon="4.4112">
        <ele>304</ele>
        <time>2021-07-04T14:28:24Z</time>
      </trkpt>
      <trkpt lat="44.31833" lon="4.4109">
        <ele>304</ele>
        <time>2021-07-04T14:28:29Z</time>
      </trkpt>
      <trkpt lat="44.31811" lon="4.41081">
        <ele>302</ele>
        <time>2021-07-04T14:28:35Z</time>
      </trkpt>
      <trkpt lat="44.31778" lon="4.41073">
        <ele>300</ele>
        <time>2021-07-04T14:28:42Z</time>
      </trkpt>
      <trkpt lat="44.31778" lon="4.41058">
        <ele>300</ele>
        <time>2021-07-04T14:28:45Z</time>
      </trkpt>
      <trkpt lat="44.31795" lon="4.41028">
        <ele>301</ele>
        <time>2021-07-04T14:28:51Z</time>
      </trkpt>
      <trkpt lat="44.31814" lon="4.41001">
        <ele>302</ele>
        <time>2021-07-04T14:28:58Z</time>
      </trkpt>
      <trkpt lat="44.31821" lon="4.40957">
        <ele>302</ele>
        <time>2021-07-04T14:29:05Z</time>
      </trkpt>
      <trkpt lat="44.31831" lon="4.4094">
        <ele>303</ele>
        <time>2021-07-04T14:29:09Z</time>
      </trkpt>
      <trkpt lat="44.31841" lon="4.40907">
        <ele>303</ele>
        <time>2021-07-04T14:29:15Z</time>
      </trkpt>
      <trkpt lat="44.31865" lon="4.40867">
        <ele>301</ele>
        <time>2021-07-04T14:29:24Z</time>
      </trkpt>
      <trkpt lat="44.31867" lon="4.40848">
        <ele>300</ele>
        <time>2021-07-04T14:29:27Z</time>
      </trkpt>
      <trkpt lat="44.31884" lon="4.40806">
        <ele>296</ele>
        <time>2021-07-04T14:29:35Z</time>
      </trkpt>
      <trkpt lat="44.31904" lon="4.40785">
        <ele>294</ele>
        <time>2021-07-04T14:29:41Z</time>
      </trkpt>
      <trkpt lat="44.31935" lon="4.40771">
        <ele>294</ele>
        <time>2021-07-04T14:29:48Z</time>
      </trkpt>
      <trkpt lat="44.3195" lon="4.40746">
        <ele>293</ele>
        <time>2021-07-04T14:29:54Z</time>
      </trkpt>
      <trkpt lat="44.31969" lon="4.4074">
        <ele>294</ele>
        <time>2021-07-04T14:29:58Z</time>
      </trkpt>
      <trkpt lat="44.31994" lon="4.40726">
        <ele>296</ele>
        <time>2021-07-04T14:30:05Z</time>
      </trkpt>
      <trkpt lat="44.31942" lon="4.40713">
        <ele>292</ele>
        <time>2021-07-04T14:30:17Z</time>
      </trkpt>
      <trkpt lat="44.31929" lon="4.40699">
        <ele>290</ele>
        <time>2021-07-04T14:30:21Z</time>
      </trkpt>
      <trkpt lat="44.31909" lon="4.40691">
        <ele>289</ele>
        <time>2021-07-04T14:30:26Z</time>
      </trkpt>
      <trkpt lat="44.31897" lon="4.40677">
        <ele>288</ele>
        <time>2021-07-04T14:30:29Z</time>
      </trkpt>
      <trkpt lat="44.3188" lon="4.40669">
        <ele>287</ele>
        <time>2021-07-04T14:30:33Z</time>
      </trkpt>
      <trkpt lat="44.31865" lon="4.40675">
        <ele>287</ele>
        <time>2021-07-04T14:30:37Z</time>
      </trkpt>
      <trkpt lat="44.31848" lon="4.40669">
        <ele>286</ele>
        <time>2021-07-04T14:30:41Z</time>
      </trkpt>
      <trkpt lat="44.31831" lon="4.4067">
        <ele>285</ele>
        <time>2021-07-04T14:30:45Z</time>
      </trkpt>
      <trkpt lat="44.31813" lon="4.40663">
        <ele>284</ele>
        <time>2021-07-04T14:30:49Z</time>
      </trkpt>
      <trkpt lat="44.31792" lon="4.40648">
        <ele>285</ele>
        <time>2021-07-04T14:30:55Z</time>
      </trkpt>
      <trkpt lat="44.31778" lon="4.40633">
        <ele>285</ele>
        <time>2021-07-04T14:30:59Z</time>
      </trkpt>
      <trkpt lat="44.31756" lon="4.40625">
        <ele>284</ele>
        <time>2021-07-04T14:31:04Z</time>
      </trkpt>
      <trkpt lat="44.31762" lon="4.40613">
        <ele>285</ele>
        <time>2021-07-04T14:31:07Z</time>
      </trkpt>
      <trkpt lat="44.31776" lon="4.406">
        <ele>286</ele>
        <time>2021-07-04T14:31:11Z</time>
      </trkpt>
      <trkpt lat="44.31781" lon="4.40579">
        <ele>288</ele>
        <time>2021-07-04T14:31:14Z</time>
      </trkpt>
      <trkpt lat="44.31781" lon="4.40562">
        <ele>289</ele>
        <time>2021-07-04T14:31:17Z</time>
      </trkpt>
      <trkpt lat="44.31798" lon="4.40543">
        <ele>292</ele>
        <time>2021-07-04T14:31:22Z</time>
      </trkpt>
      <trkpt lat="44.3183" lon="4.4052">
        <ele>296</ele>
        <time>2021-07-04T14:31:31Z</time>
      </trkpt>
      <trkpt lat="44.31817" lon="4.40509">
        <ele>296</ele>
        <time>2021-07-04T14:31:34Z</time>
      </trkpt>
      <trkpt lat="44.31808" lon="4.4047">
        <ele>297</ele>
        <time>2021-07-04T14:31:41Z</time>
      </trkpt>
      <trkpt lat="44.31801" lon="4.4045">
        <ele>297</ele>
        <time>2021-07-04T14:31:45Z</time>
      </trkpt>
      <trkpt lat="44.31798" lon="4.40425">
        <ele>297</ele>
        <time>2021-07-04T14:31:49Z</time>
      </trkpt>
      <trkpt lat="44.31776" lon="4.40416">
        <ele>296</ele>
        <time>2021-07-04T14:31:54Z</time>
      </trkpt>
      <trkpt lat="44.3173" lon="4.40406">
        <ele>292</ele>
        <time>2021-07-04T14:32:05Z</time>
      </trkpt>
      <trkpt lat="44.31702" lon="4.40414">
        <ele>289</ele>
        <time>2021-07-04T14:32:12Z</time>
      </trkpt>
      <trkpt lat="44.31697" lon="4.40423">
        <ele>289</ele>
        <time>2021-07-04T14:32:14Z</time>
      </trkpt>
      <trkpt lat="44.31659" lon="4.4042">
        <ele>285</ele>
        <time>2021-07-04T14:32:23Z</time>
      </trkpt>
      <trkpt lat="44.31646" lon="4.40416">
        <ele>284</ele>
        <time>2021-07-04T14:32:26Z</time>
      </trkpt>
      <trkpt lat="44.31643" lon="4.40396">
        <ele>284</ele>
        <time>2021-07-04T14:32:29Z</time>
      </trkpt>
      <trkpt lat="44.31646" lon="4.40376">
        <ele>284</ele>
        <time>2021-07-04T14:32:33Z</time>
      </trkpt>
      <trkpt lat="44.31641" lon="4.40355">
        <ele>283</ele>
        <time>2021-07-04T14:32:36Z</time>
      </trkpt>
      <trkpt lat="44.3164" lon="4.40338">
        <ele>283</ele>
        <time>2021-07-04T14:32:39Z</time>
      </trkpt>
      <trkpt lat="44.31622" lon="4.40335">
        <ele>282</ele>
        <time>2021-07-04T14:32:44Z</time>
      </trkpt>
      <trkpt lat="44.31586" lon="4.4034">
        <ele>280</ele>
        <time>2021-07-04T14:32:52Z</time>
      </trkpt>
      <trkpt lat="44.31555" lon="4.40339">
        <ele>278</ele>
        <time>2021-07-04T14:32:59Z</time>
      </trkpt>
      <trkpt lat="44.3153" lon="4.40345">
        <ele>277</ele>
        <time>2021-07-04T14:33:05Z</time>
      </trkpt>
      <trkpt lat="44.31516" lon="4.40353">
        <ele>276</ele>
        <time>2021-07-04T14:33:09Z</time>
      </trkpt>
      <trkpt lat="44.31508" lon="4.40366">
        <ele>275</ele>
        <time>2021-07-04T14:33:12Z</time>
      </trkpt>
      <trkpt lat="44.31503" lon="4.40352">
        <ele>275</ele>
        <time>2021-07-04T14:33:14Z</time>
      </trkpt>
      <trkpt lat="44.31516" lon="4.40339">
        <ele>277</ele>
        <time>2021-07-04T14:33:18Z</time>
      </trkpt>
      <trkpt lat="44.31536" lon="4.40326">
        <ele>278</ele>
        <time>2021-07-04T14:33:23Z</time>
      </trkpt>
      <trkpt lat="44.31564" lon="4.4032">
        <ele>280</ele>
        <time>2021-07-04T14:33:30Z</time>
      </trkpt>
      <trkpt lat="44.31577" lon="4.40302">
        <ele>281</ele>
        <time>2021-07-04T14:33:34Z</time>
      </trkpt>
      <trkpt lat="44.31657" lon="4.40159">
        <ele>295</ele>
        <time>2021-07-04T14:34:04Z</time>
      </trkpt>
      <trkpt lat="44.31663" lon="4.40135">
        <ele>297</ele>
        <time>2021-07-04T14:34:09Z</time>
      </trkpt>
      <trkpt lat="44.31679" lon="4.40105">
        <ele>300</ele>
        <time>2021-07-04T14:34:15Z</time>
      </trkpt>
      <trkpt lat="44.31696" lon="4.401">
        <ele>301</ele>
        <time>2021-07-04T14:34:19Z</time>
      </trkpt>
      <trkpt lat="44.31703" lon="4.40116">
        <ele>301</ele>
        <time>2021-07-04T14:34:22Z</time>
      </trkpt>
      <trkpt lat="44.31739" lon="4.40116">
        <ele>303</ele>
        <time>2021-07-04T14:34:30Z</time>
      </trkpt>
      <trkpt lat="44.31766" lon="4.40095">
        <ele>305</ele>
        <time>2021-07-04T14:34:38Z</time>
      </trkpt>
      <trkpt lat="44.31786" lon="4.40075">
        <ele>308</ele>
        <time>2021-07-04T14:34:43Z</time>
      </trkpt>
      <trkpt lat="44.31808" lon="4.40065">
        <ele>309</ele>
        <time>2021-07-04T14:34:49Z</time>
      </trkpt>
      <trkpt lat="44.31812" lon="4.40048">
        <ele>310</ele>
        <time>2021-07-04T14:34:52Z</time>
      </trkpt>
      <trkpt lat="44.31811" lon="4.40036">
        <ele>311</ele>
        <time>2021-07-04T14:34:54Z</time>
      </trkpt>
      <trkpt lat="44.31804" lon="4.40016">
        <ele>311</ele>
        <time>2021-07-04T14:34:57Z</time>
      </trkpt>
      <trkpt lat="44.31797" lon="4.39982">
        <ele>313</ele>
        <time>2021-07-04T14:35:03Z</time>
      </trkpt>
      <trkpt lat="44.31768" lon="4.39937">
        <ele>314</ele>
        <time>2021-07-04T14:35:13Z</time>
      </trkpt>
      <trkpt lat="44.31764" lon="4.39923">
        <ele>315</ele>
        <time>2021-07-04T14:35:16Z</time>
      </trkpt>
      <trkpt lat="44.31754" lon="4.39904">
        <ele>314</ele>
        <time>2021-07-04T14:35:20Z</time>
      </trkpt>
      <trkpt lat="44.31754" lon="4.39889">
        <ele>314</ele>
        <time>2021-07-04T14:35:22Z</time>
      </trkpt>
      <trkpt lat="44.31739" lon="4.39883">
        <ele>314</ele>
        <time>2021-07-04T14:35:26Z</time>
      </trkpt>
      <trkpt lat="44.31711" lon="4.39899">
        <ele>313</ele>
        <time>2021-07-04T14:35:33Z</time>
      </trkpt>
      <trkpt lat="44.31701" lon="4.39901">
        <ele>313</ele>
        <time>2021-07-04T14:35:36Z</time>
      </trkpt>
      <trkpt lat="44.31653" lon="4.39893">
        <ele>311</ele>
        <time>2021-07-04T14:35:47Z</time>
      </trkpt>
      <trkpt lat="44.3162" lon="4.39896">
        <ele>310</ele>
        <time>2021-07-04T14:35:55Z</time>
      </trkpt>
      <trkpt lat="44.31596" lon="4.39912">
        <ele>310</ele>
        <time>2021-07-04T14:36:01Z</time>
      </trkpt>
      <trkpt lat="44.31531" lon="4.39942">
        <ele>306</ele>
        <time>2021-07-04T14:36:17Z</time>
      </trkpt>
      <trkpt lat="44.31483" lon="4.39997">
        <ele>302</ele>
        <time>2021-07-04T14:36:31Z</time>
      </trkpt>
      <trkpt lat="44.31472" lon="4.40001">
        <ele>301</ele>
        <time>2021-07-04T14:36:34Z</time>
      </trkpt>
      <trkpt lat="44.31319" lon="4.40024">
        <ele>286</ele>
        <time>2021-07-04T14:37:10Z</time>
      </trkpt>
      <trkpt lat="44.31271" lon="4.4002">
        <ele>281</ele>
        <time>2021-07-04T14:37:21Z</time>
      </trkpt>
      <trkpt lat="44.3125" lon="4.40026">
        <ele>278</ele>
        <time>2021-07-04T14:37:26Z</time>
      </trkpt>
      <trkpt lat="44.3121" lon="4.40049">
        <ele>274</ele>
        <time>2021-07-04T14:37:36Z</time>
      </trkpt>
      <trkpt lat="44.31195" lon="4.40071">
        <ele>271</ele>
        <time>2021-07-04T14:37:41Z</time>
      </trkpt>
      <trkpt lat="44.31172" lon="4.40093">
        <ele>267</ele>
        <time>2021-07-04T14:37:48Z</time>
      </trkpt>
      <trkpt lat="44.31144" lon="4.40112">
        <ele>264</ele>
        <time>2021-07-04T14:37:55Z</time>
      </trkpt>
      <trkpt lat="44.31107" lon="4.40132">
        <ele>260</ele>
        <time>2021-07-04T14:38:04Z</time>
      </trkpt>
      <trkpt lat="44.31139" lon="4.40183">
        <ele>262</ele>
        <time>2021-07-04T14:38:16Z</time>
      </trkpt>
      <trkpt lat="44.3113" lon="4.40185">
        <ele>261</ele>
        <time>2021-07-04T14:38:18Z</time>
      </trkpt>
      <trkpt lat="44.31119" lon="4.40174">
        <ele>260</ele>
        <time>2021-07-04T14:38:21Z</time>
      </trkpt>
      <trkpt lat="44.31114" lon="4.40161">
        <ele>259</ele>
        <time>2021-07-04T14:38:23Z</time>
      </trkpt>
      <trkpt lat="44.31104" lon="4.40146">
        <ele>259</ele>
        <time>2021-07-04T14:38:27Z</time>
      </trkpt>
      <trkpt lat="44.31071" lon="4.40109">
        <ele>258</ele>
        <time>2021-07-04T14:38:37Z</time>
      </trkpt>
      <trkpt lat="44.31049" lon="4.40103">
        <ele>257</ele>
        <time>2021-07-04T14:38:42Z</time>
      </trkpt>
      <trkpt lat="44.31015" lon="4.40134">
        <ele>255</ele>
        <time>2021-07-04T14:38:51Z</time>
      </trkpt>
      <trkpt lat="44.30997" lon="4.40145">
        <ele>255</ele>
        <time>2021-07-04T14:38:56Z</time>
      </trkpt>
      <trkpt lat="44.30973" lon="4.40145">
        <ele>256</ele>
        <time>2021-07-04T14:39:02Z</time>
      </trkpt>
      <trkpt lat="44.30956" lon="4.40133">
        <ele>257</ele>
        <time>2021-07-04T14:39:06Z</time>
      </trkpt>
      <trkpt lat="44.30939" lon="4.40036">
        <ele>251</ele>
        <time>2021-07-04T14:39:23Z</time>
      </trkpt>
      <trkpt lat="44.30932" lon="4.40022">
        <ele>250</ele>
        <time>2021-07-04T14:39:26Z</time>
      </trkpt>
      <trkpt lat="44.30912" lon="4.39997">
        <ele>248</ele>
        <time>2021-07-04T14:39:32Z</time>
      </trkpt>
      <trkpt lat="44.3089" lon="4.39993">
        <ele>249</ele>
        <time>2021-07-04T14:39:37Z</time>
      </trkpt>
      <trkpt lat="44.3087" lon="4.39978">
        <ele>250</ele>
        <time>2021-07-04T14:39:42Z</time>
      </trkpt>
      <trkpt lat="44.30858" lon="4.39964">
        <ele>250</ele>
        <time>2021-07-04T14:39:46Z</time>
      </trkpt>
      <trkpt lat="44.30831" lon="4.39955">
        <ele>250</ele>
        <time>2021-07-04T14:39:52Z</time>
      </trkpt>
      <trkpt lat="44.30765" lon="4.39924">
        <ele>246</ele>
        <time>2021-07-04T14:40:09Z</time>
      </trkpt>
      <trkpt lat="44.30737" lon="4.39917">
        <ele>245</ele>
        <time>2021-07-04T14:40:15Z</time>
      </trkpt>
      <trkpt lat="44.30675" lon="4.39917">
        <ele>245</ele>
        <time>2021-07-04T14:40:30Z</time>
      </trkpt>
      <trkpt lat="44.30663" lon="4.39901">
        <ele>245</ele>
        <time>2021-07-04T14:40:34Z</time>
      </trkpt>
      <trkpt lat="44.30654" lon="4.39872">
        <ele>244</ele>
        <time>2021-07-04T14:40:39Z</time>
      </trkpt>
      <trkpt lat="44.30645" lon="4.39825">
        <ele>242</ele>
        <time>2021-07-04T14:40:47Z</time>
      </trkpt>
      <trkpt lat="44.30633" lon="4.39807">
        <ele>243</ele>
        <time>2021-07-04T14:40:51Z</time>
      </trkpt>
      <trkpt lat="44.30613" lon="4.39792">
        <ele>242</ele>
        <time>2021-07-04T14:40:57Z</time>
      </trkpt>
      <trkpt lat="44.30589" lon="4.3978">
        <ele>241</ele>
        <time>2021-07-04T14:41:02Z</time>
      </trkpt>
      <trkpt lat="44.3058" lon="4.39756">
        <ele>240</ele>
        <time>2021-07-04T14:41:07Z</time>
      </trkpt>
      <trkpt lat="44.30578" lon="4.39686">
        <ele>239</ele>
        <time>2021-07-04T14:41:19Z</time>
      </trkpt>
      <trkpt lat="44.30582" lon="4.39646">
        <ele>240</ele>
        <time>2021-07-04T14:41:25Z</time>
      </trkpt>
      <trkpt lat="44.30574" lon="4.39614">
        <ele>241</ele>
        <time>2021-07-04T14:41:31Z</time>
      </trkpt>
      <trkpt lat="44.30558" lon="4.39601">
        <ele>241</ele>
        <time>2021-07-04T14:41:35Z</time>
      </trkpt>
      <trkpt lat="44.30535" lon="4.39603">
        <ele>240</ele>
        <time>2021-07-04T14:41:41Z</time>
      </trkpt>
      <trkpt lat="44.30478" lon="4.39625">
        <ele>237</ele>
        <time>2021-07-04T14:41:55Z</time>
      </trkpt>
      <trkpt lat="44.3044" lon="4.3965">
        <ele>235</ele>
        <time>2021-07-04T14:42:04Z</time>
      </trkpt>
      <trkpt lat="44.30414" lon="4.39657">
        <ele>233</ele>
        <time>2021-07-04T14:42:11Z</time>
      </trkpt>
      <trkpt lat="44.30382" lon="4.39726">
        <ele>231</ele>
        <time>2021-07-04T14:42:24Z</time>
      </trkpt>
      <trkpt lat="44.30356" lon="4.39749">
        <ele>229</ele>
        <time>2021-07-04T14:42:32Z</time>
      </trkpt>
      <trkpt lat="44.30334" lon="4.39749">
        <ele>226</ele>
        <time>2021-07-04T14:42:37Z</time>
      </trkpt>
      <trkpt lat="44.3032" lon="4.39745">
        <ele>225</ele>
        <time>2021-07-04T14:42:40Z</time>
      </trkpt>
      <trkpt lat="44.30305" lon="4.39733">
        <ele>224</ele>
        <time>2021-07-04T14:42:44Z</time>
      </trkpt>
      <trkpt lat="44.30296" lon="4.39713">
        <ele>223</ele>
        <time>2021-07-04T14:42:48Z</time>
      </trkpt>
      <trkpt lat="44.30291" lon="4.39684">
        <ele>221</ele>
        <time>2021-07-04T14:42:53Z</time>
      </trkpt>
      <trkpt lat="44.30302" lon="4.396">
        <ele>224</ele>
        <time>2021-07-04T14:43:07Z</time>
      </trkpt>
      <trkpt lat="44.30302" lon="4.39581">
        <ele>226</ele>
        <time>2021-07-04T14:43:10Z</time>
      </trkpt>
      <trkpt lat="44.30293" lon="4.3957">
        <ele>226</ele>
        <time>2021-07-04T14:43:13Z</time>
      </trkpt>
      <trkpt lat="44.30241" lon="4.39599">
        <ele>217</ele>
        <time>2021-07-04T14:43:26Z</time>
      </trkpt>
      <trkpt lat="44.30211" lon="4.39627">
        <ele>217</ele>
        <time>2021-07-04T14:43:35Z</time>
      </trkpt>
      <trkpt lat="44.30189" lon="4.39642">
        <ele>216</ele>
        <time>2021-07-04T14:43:40Z</time>
      </trkpt>
      <trkpt lat="44.30135" lon="4.39759">
        <ele>206</ele>
        <time>2021-07-04T14:44:04Z</time>
      </trkpt>
      <trkpt lat="44.30129" lon="4.39763">
        <ele>205</ele>
        <time>2021-07-04T14:44:05Z</time>
      </trkpt>
      <trkpt lat="44.30109" lon="4.39766">
        <ele>202</ele>
        <time>2021-07-04T14:44:10Z</time>
      </trkpt>
      <trkpt lat="44.30096" lon="4.39761">
        <ele>200</ele>
        <time>2021-07-04T14:44:13Z</time>
      </trkpt>
      <trkpt lat="44.30086" lon="4.3975">
        <ele>198</ele>
        <time>2021-07-04T14:44:16Z</time>
      </trkpt>
      <trkpt lat="44.30073" lon="4.39744">
        <ele>199</ele>
        <time>2021-07-04T14:44:19Z</time>
      </trkpt>
      <trkpt lat="44.30023" lon="4.39745">
        <ele>197</ele>
        <time>2021-07-04T14:44:31Z</time>
      </trkpt>
      <trkpt lat="44.30012" lon="4.39755">
        <ele>196</ele>
        <time>2021-07-04T14:44:34Z</time>
      </trkpt>
      <trkpt lat="44.29977" lon="4.39776">
        <ele>196</ele>
        <time>2021-07-04T14:44:43Z</time>
      </trkpt>
      <trkpt lat="44.29967" lon="4.39775">
        <ele>195</ele>
        <time>2021-07-04T14:44:45Z</time>
      </trkpt>
      <trkpt lat="44.29907" lon="4.39756">
        <ele>192</ele>
        <time>2021-07-04T14:45:00Z</time>
      </trkpt>
      <trkpt lat="44.29868" lon="4.39758">
        <ele>192</ele>
        <time>2021-07-04T14:45:09Z</time>
      </trkpt>
      <trkpt lat="44.29856" lon="4.39754">
        <ele>192</ele>
        <time>2021-07-04T14:45:12Z</time>
      </trkpt>
      <trkpt lat="44.29855" lon="4.39736">
        <ele>191</ele>
        <time>2021-07-04T14:45:15Z</time>
      </trkpt>
      <trkpt lat="44.29864" lon="4.39718">
        <ele>191</ele>
        <time>2021-07-04T14:45:18Z</time>
      </trkpt>
      <trkpt lat="44.2987" lon="4.3968">
        <ele>190</ele>
        <time>2021-07-04T14:45:25Z</time>
      </trkpt>
      <trkpt lat="44.29877" lon="4.39655">
        <ele>191</ele>
        <time>2021-07-04T14:45:29Z</time>
      </trkpt>
      <trkpt lat="44.29891" lon="4.3962">
        <ele>192</ele>
        <time>2021-07-04T14:45:36Z</time>
      </trkpt>
      <trkpt lat="44.29892" lon="4.396">
        <ele>192</ele>
        <time>2021-07-04T14:45:39Z</time>
      </trkpt>
      <trkpt lat="44.29882" lon="4.39584">
        <ele>192</ele>
        <time>2021-07-04T14:45:43Z</time>
      </trkpt>
      <trkpt lat="44.29863" lon="4.39542">
        <ele>189</ele>
        <time>2021-07-04T14:45:51Z</time>
      </trkpt>
      <trkpt lat="44.29818" lon="4.39477">
        <ele>183</ele>
        <time>2021-07-04T14:46:06Z</time>
      </trkpt>
      <trkpt lat="44.2979" lon="4.39447">
        <ele>181</ele>
        <time>2021-07-04T14:46:15Z</time>
      </trkpt>
      <trkpt lat="44.29719" lon="4.39412">
        <ele>173</ele>
        <time>2021-07-04T14:46:32Z</time>
      </trkpt>
      <trkpt lat="44.29712" lon="4.39382">
        <ele>173</ele>
        <time>2021-07-04T14:46:37Z</time>
      </trkpt>
      <trkpt lat="44.29709" lon="4.39344">
        <ele>173</ele>
        <time>2021-07-04T14:46:44Z</time>
      </trkpt>
      <trkpt lat="44.29694" lon="4.3933">
        <ele>173</ele>
        <time>2021-07-04T14:46:48Z</time>
      </trkpt>
      <trkpt lat="44.29655" lon="4.39318">
        <ele>173</ele>
        <time>2021-07-04T14:46:57Z</time>
      </trkpt>
      <trkpt lat="44.29635" lon="4.39319">
        <ele>172</ele>
        <time>2021-07-04T14:47:02Z</time>
      </trkpt>
      <trkpt lat="44.29594" lon="4.39328">
        <ele>169</ele>
        <time>2021-07-04T14:47:12Z</time>
      </trkpt>
      <trkpt lat="44.29582" lon="4.39325">
        <ele>170</ele>
        <time>2021-07-04T14:47:15Z</time>
      </trkpt>
      <trkpt lat="44.29567" lon="4.39315">
        <ele>171</ele>
        <time>2021-07-04T14:47:18Z</time>
      </trkpt>
      <trkpt lat="44.2953" lon="4.39313">
        <ele>169</ele>
        <time>2021-07-04T14:47:27Z</time>
      </trkpt>
      <trkpt lat="44.29473" lon="4.39295">
        <ele>168</ele>
        <time>2021-07-04T14:47:41Z</time>
      </trkpt>
      <trkpt lat="44.29458" lon="4.39286">
        <ele>168</ele>
        <time>2021-07-04T14:47:45Z</time>
      </trkpt>
      <trkpt lat="44.29448" lon="4.39294">
        <ele>166</ele>
        <time>2021-07-04T14:47:47Z</time>
      </trkpt>
      <trkpt lat="44.29447" lon="4.39332">
        <ele>163</ele>
        <time>2021-07-04T14:47:54Z</time>
      </trkpt>
      <trkpt lat="44.29371" lon="4.39357">
        <ele>164</ele>
        <time>2021-07-04T14:48:12Z</time>
      </trkpt>
      <trkpt lat="44.29345" lon="4.39372">
        <ele>164</ele>
        <time>2021-07-04T14:48:18Z</time>
      </trkpt>
      <trkpt lat="44.29303" lon="4.39409">
        <ele>162</ele>
        <time>2021-07-04T14:48:30Z</time>
      </trkpt>
      <trkpt lat="44.29258" lon="4.39444">
        <ele>161</ele>
        <time>2021-07-04T14:48:42Z</time>
      </trkpt>
      <trkpt lat="44.29229" lon="4.3946">
        <ele>162</ele>
        <time>2021-07-04T14:48:49Z</time>
      </trkpt>
      <trkpt lat="44.29217" lon="4.39479">
        <ele>162</ele>
        <time>2021-07-04T14:48:54Z</time>
      </trkpt>
      <trkpt lat="44.29189" lon="4.39503">
        <ele>162</ele>
        <time>2021-07-04T14:49:01Z</time>
      </trkpt>
      <trkpt lat="44.29155" lon="4.39506">
        <ele>160</ele>
        <time>2021-07-04T14:49:09Z</time>
      </trkpt>
      <trkpt lat="44.29125" lon="4.39512">
        <ele>159</ele>
        <time>2021-07-04T14:49:16Z</time>
      </trkpt>
      <trkpt lat="44.29097" lon="4.39533">
        <ele>158</ele>
        <time>2021-07-04T14:49:24Z</time>
      </trkpt>
      <trkpt lat="44.29066" lon="4.3957">
        <ele>156</ele>
        <time>2021-07-04T14:49:33Z</time>
      </trkpt>
      <trkpt lat="44.29039" lon="4.39618">
        <ele>156</ele>
        <time>2021-07-04T14:49:43Z</time>
      </trkpt>
      <trkpt lat="44.29003" lon="4.39767">
        <ele>152</ele>
        <time>2021-07-04T14:50:10Z</time>
      </trkpt>
      <trkpt lat="44.28956" lon="4.39897">
        <ele>150</ele>
        <time>2021-07-04T14:50:34Z</time>
      </trkpt>
      <trkpt lat="44.28933" lon="4.39944">
        <ele>150</ele>
        <time>2021-07-04T14:50:44Z</time>
      </trkpt>
      <trkpt lat="44.28899" lon="4.39955">
        <ele>149</ele>
        <time>2021-07-04T14:50:52Z</time>
      </trkpt>
      <trkpt lat="44.28831" lon="4.39964">
        <ele>148</ele>
        <time>2021-07-04T14:51:08Z</time>
      </trkpt>
      <trkpt lat="44.28793" lon="4.39995">
        <ele>146</ele>
        <time>2021-07-04T14:51:18Z</time>
      </trkpt>
      <trkpt lat="44.28747" lon="4.40045">
        <ele>145</ele>
        <time>2021-07-04T14:51:32Z</time>
      </trkpt>
      <trkpt lat="44.28765" lon="4.40128">
        <ele>151</ele>
        <time>2021-07-04T14:51:46Z</time>
      </trkpt>
      <trkpt lat="44.28777" lon="4.40168">
        <ele>154</ele>
        <time>2021-07-04T14:51:53Z</time>
      </trkpt>
      <trkpt lat="44.2885" lon="4.40274">
        <ele>162</ele>
        <time>2021-07-04T14:52:18Z</time>
      </trkpt>
      <trkpt lat="44.28879" lon="4.40322">
        <ele>166</ele>
        <time>2021-07-04T14:52:28Z</time>
      </trkpt>
      <trkpt lat="44.2889" lon="4.40362">
        <ele>167</ele>
        <time>2021-07-04T14:52:36Z</time>
      </trkpt>
      <trkpt lat="44.28894" lon="4.40398">
        <ele>169</ele>
        <time>2021-07-04T14:52:42Z</time>
      </trkpt>
      <trkpt lat="44.28892" lon="4.40444">
        <ele>174</ele>
        <time>2021-07-04T14:52:49Z</time>
      </trkpt>
      <trkpt lat="44.28874" lon="4.40451">
        <ele>179</ele>
        <time>2021-07-04T14:52:54Z</time>
      </trkpt>
      <trkpt lat="44.28849" lon="4.40547">
        <ele>189</ele>
        <time>2021-07-04T14:53:11Z</time>
      </trkpt>
      <trkpt lat="44.28825" lon="4.406">
        <ele>195</ele>
        <time>2021-07-04T14:53:21Z</time>
      </trkpt>
      <trkpt lat="44.28803" lon="4.40667">
        <ele>200</ele>
        <time>2021-07-04T14:53:34Z</time>
      </trkpt>
      <trkpt lat="44.28793" lon="4.40723">
        <ele>204</ele>
        <time>2021-07-04T14:53:43Z</time>
      </trkpt>
      <trkpt lat="44.28788" lon="4.40784">
        <ele>209</ele>
        <time>2021-07-04T14:53:54Z</time>
      </trkpt>
      <trkpt lat="44.28783" lon="4.40806">
        <ele>211</ele>
        <time>2021-07-04T14:53:57Z</time>
      </trkpt>
      <trkpt lat="44.28728" lon="4.40806">
        <ele>212</ele>
        <time>2021-07-04T14:54:10Z</time>
      </trkpt>
      <trkpt lat="44.28666" lon="4.40852">
        <ele>210</ele>
        <time>2021-07-04T14:54:27Z</time>
      </trkpt>
      <trkpt lat="44.28556" lon="4.40915">
        <ele>200</ele>
        <time>2021-07-04T14:54:54Z</time>
      </trkpt>
      <trkpt lat="44.28516" lon="4.40908">
        <ele>195</ele>
        <time>2021-07-04T14:55:04Z</time>
      </trkpt>
      <trkpt lat="44.28505" lon="4.4091">
        <ele>194</ele>
        <time>2021-07-04T14:55:06Z</time>
      </trkpt>
      <trkpt lat="44.28487" lon="4.40947">
        <ele>191</ele>
        <time>2021-07-04T14:55:14Z</time>
      </trkpt>
      <trkpt lat="44.28452" lon="4.40952">
        <ele>187</ele>
        <time>2021-07-04T14:55:22Z</time>
      </trkpt>
      <trkpt lat="44.28421" lon="4.40961">
        <ele>183</ele>
        <time>2021-07-04T14:55:29Z</time>
      </trkpt>
      <trkpt lat="44.28414" lon="4.40969">
        <ele>182</ele>
        <time>2021-07-04T14:55:32Z</time>
      </trkpt>
      <trkpt lat="44.28381" lon="4.4098">
        <ele>176</ele>
        <time>2021-07-04T14:55:40Z</time>
      </trkpt>
      <trkpt lat="44.28358" lon="4.40995">
        <ele>172</ele>
        <time>2021-07-04T14:55:45Z</time>
      </trkpt>
      <trkpt lat="44.28334" lon="4.41112">
        <ele>176</ele>
        <time>2021-07-04T14:56:06Z</time>
      </trkpt>
      <trkpt lat="44.28316" lon="4.41108">
        <ele>173</ele>
        <time>2021-07-04T14:56:10Z</time>
      </trkpt>
      <trkpt lat="44.28294" lon="4.41121">
        <ele>170</ele>
        <time>2021-07-04T14:56:16Z</time>
      </trkpt>
      <trkpt lat="44.28255" lon="4.41175">
        <ele>165</ele>
        <time>2021-07-04T14:56:28Z</time>
      </trkpt>
      <trkpt lat="44.28269" lon="4.41199">
        <ele>164</ele>
        <time>2021-07-04T14:56:34Z</time>
      </trkpt>
      <trkpt lat="44.28276" lon="4.41221">
        <ele>163</ele>
        <time>2021-07-04T14:56:38Z</time>
      </trkpt>
      <trkpt lat="44.28283" lon="4.41257">
        <ele>161</ele>
        <time>2021-07-04T14:56:44Z</time>
      </trkpt>
      <trkpt lat="44.28317" lon="4.41278">
        <ele>163</ele>
        <time>2021-07-04T14:56:53Z</time>
      </trkpt>
      <trkpt lat="44.28359" lon="4.41314">
        <ele>164</ele>
        <time>2021-07-04T14:57:04Z</time>
      </trkpt>
      <trkpt lat="44.28374" lon="4.41336">
        <ele>164</ele>
        <time>2021-07-04T14:57:09Z</time>
      </trkpt>
      <trkpt lat="44.28396" lon="4.41359">
        <ele>167</ele>
        <time>2021-07-04T14:57:16Z</time>
      </trkpt>
      <trkpt lat="44.28394" lon="4.41373">
        <ele>167</ele>
        <time>2021-07-04T14:57:18Z</time>
      </trkpt>
      <trkpt lat="44.28383" lon="4.41378">
        <ele>166</ele>
        <time>2021-07-04T14:57:21Z</time>
      </trkpt>
      <trkpt lat="44.28362" lon="4.4138">
        <ele>163</ele>
        <time>2021-07-04T14:57:26Z</time>
      </trkpt>
      <trkpt lat="44.28348" lon="4.41388">
        <ele>162</ele>
        <time>2021-07-04T14:57:29Z</time>
      </trkpt>
      <trkpt lat="44.28326" lon="4.41429">
        <ele>161</ele>
        <time>2021-07-04T14:57:38Z</time>
      </trkpt>
      <trkpt lat="44.28316" lon="4.41479">
        <ele>160</ele>
        <time>2021-07-04T14:57:46Z</time>
      </trkpt>
      <trkpt lat="44.28315" lon="4.41536">
        <ele>160</ele>
        <time>2021-07-04T14:57:56Z</time>
      </trkpt>
      <trkpt lat="44.28308" lon="4.41553">
        <ele>159</ele>
        <time>2021-07-04T14:57:59Z</time>
      </trkpt>
      <trkpt lat="44.28292" lon="4.41576">
        <ele>158</ele>
        <time>2021-07-04T14:58:05Z</time>
      </trkpt>
      <trkpt lat="44.28279" lon="4.41601">
        <ele>158</ele>
        <time>2021-07-04T14:58:10Z</time>
      </trkpt>
      <trkpt lat="44.2824" lon="4.41698">
        <ele>161</ele>
        <time>2021-07-04T14:58:28Z</time>
      </trkpt>
      <trkpt lat="44.2823" lon="4.41713">
        <ele>162</ele>
        <time>2021-07-04T14:58:32Z</time>
      </trkpt>
      <trkpt lat="44.28197" lon="4.41726">
        <ele>164</ele>
        <time>2021-07-04T14:58:40Z</time>
      </trkpt>
      <trkpt lat="44.28189" lon="4.41733">
        <ele>165</ele>
        <time>2021-07-04T14:58:42Z</time>
      </trkpt>
      <trkpt lat="44.28185" lon="4.41745">
        <ele>166</ele>
        <time>2021-07-04T14:58:44Z</time>
      </trkpt>
      <trkpt lat="44.28178" lon="4.41741">
        <ele>166</ele>
        <time>2021-07-04T14:58:46Z</time>
      </trkpt>
      <trkpt lat="44.28167" lon="4.4169">
        <ele>163</ele>
        <time>2021-07-04T14:58:55Z</time>
      </trkpt>
      <trkpt lat="44.2816" lon="4.41642">
        <ele>162</ele>
        <time>2021-07-04T14:59:03Z</time>
      </trkpt>
      <trkpt lat="44.28156" lon="4.41631">
        <ele>163</ele>
        <time>2021-07-04T14:59:05Z</time>
      </trkpt>
      <trkpt lat="44.28147" lon="4.41635">
        <ele>165</ele>
        <time>2021-07-04T14:59:07Z</time>
      </trkpt>
      <trkpt lat="44.28149" lon="4.41652">
        <ele>166</ele>
        <time>2021-07-04T14:59:10Z</time>
      </trkpt>
      <trkpt lat="44.28147" lon="4.41746">
        <ele>171</ele>
        <time>2021-07-04T14:59:26Z</time>
      </trkpt>
      <trkpt lat="44.28129" lon="4.41789">
        <ele>175</ele>
        <time>2021-07-04T14:59:34Z</time>
      </trkpt>
      <trkpt lat="44.28124" lon="4.41808">
        <ele>175</ele>
        <time>2021-07-04T14:59:38Z</time>
      </trkpt>
      <trkpt lat="44.28118" lon="4.41818">
        <ele>176</ele>
        <time>2021-07-04T14:59:40Z</time>
      </trkpt>
      <trkpt lat="44.28082" lon="4.41847">
        <ele>181</ele>
        <time>2021-07-04T14:59:49Z</time>
      </trkpt>
      <trkpt lat="44.2807" lon="4.41863">
        <ele>182</ele>
        <time>2021-07-04T14:59:53Z</time>
      </trkpt>
      <trkpt lat="44.28038" lon="4.41923">
        <ele>185</ele>
        <time>2021-07-04T15:00:06Z</time>
      </trkpt>
      <trkpt lat="44.28013" lon="4.4198">
        <ele>192</ele>
        <time>2021-07-04T15:00:17Z</time>
      </trkpt>
      <trkpt lat="44.27995" lon="4.4201">
        <ele>196</ele>
        <time>2021-07-04T15:00:24Z</time>
      </trkpt>
      <trkpt lat="44.27979" lon="4.42044">
        <ele>201</ele>
        <time>2021-07-04T15:00:30Z</time>
      </trkpt>
      <trkpt lat="44.27972" lon="4.42062">
        <ele>203</ele>
        <time>2021-07-04T15:00:34Z</time>
      </trkpt>
      <trkpt lat="44.27972" lon="4.42113">
        <ele>207</ele>
        <time>2021-07-04T15:00:42Z</time>
      </trkpt>
      <trkpt lat="44.27969" lon="4.42131">
        <ele>209</ele>
        <time>2021-07-04T15:00:45Z</time>
      </trkpt>
      <trkpt lat="44.27958" lon="4.42181">
        <ele>211</ele>
        <time>2021-07-04T15:00:54Z</time>
      </trkpt>
      <trkpt lat="44.27942" lon="4.42234">
        <ele>211</ele>
        <time>2021-07-04T15:01:04Z</time>
      </trkpt>
      <trkpt lat="44.27865" lon="4.42215">
        <ele>213</ele>
        <time>2021-07-04T15:01:22Z</time>
      </trkpt>
      <trkpt lat="44.2783" lon="4.4221">
        <ele>213</ele>
        <time>2021-07-04T15:01:30Z</time>
      </trkpt>
      <trkpt lat="44.27807" lon="4.42204">
        <ele>213</ele>
        <time>2021-07-04T15:01:36Z</time>
      </trkpt>
      <trkpt lat="44.27787" lon="4.42209">
        <ele>213</ele>
        <time>2021-07-04T15:01:40Z</time>
      </trkpt>
      <trkpt lat="44.27746" lon="4.42258">
        <ele>211</ele>
        <time>2021-07-04T15:01:53Z</time>
      </trkpt>
      <trkpt lat="44.27728" lon="4.42284">
        <ele>209</ele>
        <time>2021-07-04T15:01:59Z</time>
      </trkpt>
      <trkpt lat="44.2771" lon="4.42296">
        <ele>207</ele>
        <time>2021-07-04T15:02:04Z</time>
      </trkpt>
      <trkpt lat="44.27695" lon="4.4232">
        <ele>206</ele>
        <time>2021-07-04T15:02:09Z</time>
      </trkpt>
      <trkpt lat="44.27683" lon="4.42311">
        <ele>205</ele>
        <time>2021-07-04T15:02:12Z</time>
      </trkpt>
      <trkpt lat="44.27653" lon="4.42302">
        <ele>202</ele>
        <time>2021-07-04T15:02:19Z</time>
      </trkpt>
      <trkpt lat="44.27608" lon="4.42292">
        <ele>197</ele>
        <time>2021-07-04T15:02:30Z</time>
      </trkpt>
      <trkpt lat="44.27567" lon="4.42278">
        <ele>191</ele>
        <time>2021-07-04T15:02:40Z</time>
      </trkpt>
      <trkpt lat="44.27503" lon="4.42264">
        <ele>184</ele>
        <time>2021-07-04T15:02:55Z</time>
      </trkpt>
      <trkpt lat="44.27485" lon="4.42241">
        <ele>182</ele>
        <time>2021-07-04T15:03:01Z</time>
      </trkpt>
      <trkpt lat="44.2743" lon="4.42199">
        <ele>175</ele>
        <time>2021-07-04T15:03:15Z</time>
      </trkpt>
      <trkpt lat="44.27403" lon="4.42196">
        <ele>171</ele>
        <time>2021-07-04T15:03:22Z</time>
      </trkpt>
      <trkpt lat="44.27376" lon="4.42169">
        <ele>164</ele>
        <time>2021-07-04T15:03:29Z</time>
      </trkpt>
      <trkpt lat="44.27358" lon="4.42162">
        <ele>161</ele>
        <time>2021-07-04T15:03:34Z</time>
      </trkpt>
      <trkpt lat="44.27343" lon="4.42161">
        <ele>160</ele>
        <time>2021-07-04T15:03:37Z</time>
      </trkpt>
      <trkpt lat="44.27311" lon="4.42168">
        <ele>157</ele>
        <time>2021-07-04T15:03:45Z</time>
      </trkpt>
      <trkpt lat="44.27254" lon="4.42192">
        <ele>150</ele>
        <time>2021-07-04T15:03:59Z</time>
      </trkpt>
      <trkpt lat="44.27204" lon="4.42205">
        <ele>141</ele>
        <time>2021-07-04T15:04:11Z</time>
      </trkpt>
      <trkpt lat="44.27187" lon="4.42217">
        <ele>137</ele>
        <time>2021-07-04T15:04:15Z</time>
      </trkpt>
      <trkpt lat="44.27167" lon="4.42245">
        <ele>134</ele>
        <time>2021-07-04T15:04:22Z</time>
      </trkpt>
      <trkpt lat="44.27134" lon="4.4227">
        <ele>129</ele>
        <time>2021-07-04T15:04:31Z</time>
      </trkpt>
      <trkpt lat="44.27134" lon="4.42259">
        <ele>127</ele>
        <time>2021-07-04T15:04:32Z</time>
      </trkpt>
      <trkpt lat="44.27141" lon="4.42241">
        <ele>128</ele>
        <time>2021-07-04T15:04:36Z</time>
      </trkpt>
      <trkpt lat="44.27136" lon="4.42239">
        <ele>127</ele>
        <time>2021-07-04T15:04:37Z</time>
      </trkpt>
      <trkpt lat="44.27125" lon="4.42242">
        <ele>124</ele>
        <time>2021-07-04T15:04:40Z</time>
      </trkpt>
      <trkpt lat="44.27119" lon="4.42239">
        <ele>123</ele>
        <time>2021-07-04T15:04:41Z</time>
      </trkpt>
      <trkpt lat="44.27124" lon="4.42211">
        <ele>122</ele>
        <time>2021-07-04T15:04:46Z</time>
      </trkpt>
      <trkpt lat="44.27125" lon="4.42148">
        <ele>119</ele>
        <time>2021-07-04T15:04:56Z</time>
      </trkpt>
      <trkpt lat="44.27138" lon="4.4211">
        <ele>119</ele>
        <time>2021-07-04T15:05:04Z</time>
      </trkpt>
      <trkpt lat="44.27125" lon="4.42117">
        <ele>117</ele>
        <time>2021-07-04T15:05:07Z</time>
      </trkpt>
      <trkpt lat="44.27113" lon="4.42137">
        <ele>115</ele>
        <time>2021-07-04T15:05:11Z</time>
      </trkpt>
      <trkpt lat="44.27104" lon="4.4216">
        <ele>115</ele>
        <time>2021-07-04T15:05:16Z</time>
      </trkpt>
      <trkpt lat="44.27101" lon="4.4223">
        <ele>118</ele>
        <time>2021-07-04T15:05:27Z</time>
      </trkpt>
      <trkpt lat="44.27091" lon="4.4225">
        <ele>117</ele>
        <time>2021-07-04T15:05:31Z</time>
      </trkpt>
      <trkpt lat="44.27055" lon="4.42251">
        <ele>110</ele>
        <time>2021-07-04T15:05:40Z</time>
      </trkpt>
      <trkpt lat="44.27034" lon="4.42259">
        <ele>106</ele>
        <time>2021-07-04T15:05:45Z</time>
      </trkpt>
      <trkpt lat="44.27001" lon="4.42239">
        <ele>99</ele>
        <time>2021-07-04T15:05:53Z</time>
      </trkpt>
      <trkpt lat="44.2698" lon="4.42255">
        <ele>98</ele>
        <time>2021-07-04T15:05:59Z</time>
      </trkpt>
      <trkpt lat="44.26875" lon="4.4239">
        <ele>99</ele>
        <time>2021-07-04T15:06:32Z</time>
      </trkpt>
      <trkpt lat="44.26857" lon="4.42405">
        <ele>99</ele>
        <time>2021-07-04T15:06:37Z</time>
      </trkpt>
      <trkpt lat="44.26837" lon="4.42436">
        <ele>99</ele>
        <time>2021-07-04T15:06:44Z</time>
      </trkpt>
      <trkpt lat="44.26825" lon="4.42428">
        <ele>98</ele>
        <time>2021-07-04T15:06:47Z</time>
      </trkpt>
      <trkpt lat="44.26793" lon="4.42421">
        <ele>97</ele>
        <time>2021-07-04T15:06:55Z</time>
      </trkpt>
      <trkpt lat="44.26765" lon="4.42405">
        <ele>95</ele>
        <time>2021-07-04T15:07:02Z</time>
      </trkpt>
      <trkpt lat="44.26757" lon="4.42378">
        <ele>95</ele>
        <time>2021-07-04T15:07:07Z</time>
      </trkpt>
      <trkpt lat="44.2675" lon="4.42338">
        <ele>94</ele>
        <time>2021-07-04T15:07:14Z</time>
      </trkpt>
      <trkpt lat="44.26704" lon="4.42286">
        <ele>92</ele>
        <time>2021-07-04T15:07:27Z</time>
      </trkpt>
      <trkpt lat="44.26702" lon="4.42264">
        <ele>92</ele>
        <time>2021-07-04T15:07:31Z</time>
      </trkpt>
      <trkpt lat="44.26659" lon="4.42169">
        <ele>90</ele>
        <time>2021-07-04T15:07:50Z</time>
      </trkpt>
      <trkpt lat="44.26633" lon="4.42147">
        <ele>92</ele>
        <time>2021-07-04T15:07:57Z</time>
      </trkpt>
      <trkpt lat="44.26618" lon="4.42147">
        <ele>91</ele>
        <time>2021-07-04T15:08:00Z</time>
      </trkpt>
      <trkpt lat="44.26594" lon="4.42154">
        <ele>91</ele>
        <time>2021-07-04T15:08:06Z</time>
      </trkpt>
      <trkpt lat="44.26584" lon="4.42161">
        <ele>91</ele>
        <time>2021-07-04T15:08:09Z</time>
      </trkpt>
      <trkpt lat="44.26568" lon="4.42149">
        <ele>91</ele>
        <time>2021-07-04T15:08:13Z</time>
      </trkpt>
      <trkpt lat="44.26556" lon="4.42118">
        <ele>90</ele>
        <time>2021-07-04T15:08:19Z</time>
      </trkpt>
      <trkpt lat="44.26543" lon="4.42114">
        <ele>90</ele>
        <time>2021-07-04T15:08:22Z</time>
      </trkpt>
      <trkpt lat="44.26534" lon="4.42099">
        <ele>89</ele>
        <time>2021-07-04T15:08:25Z</time>
      </trkpt>
      <trkpt lat="44.2652" lon="4.42066">
        <ele>89</ele>
        <time>2021-07-04T15:08:32Z</time>
      </trkpt>
      <trkpt lat="44.26474" lon="4.42061">
        <ele>89</ele>
        <time>2021-07-04T15:08:42Z</time>
      </trkpt>
      <trkpt lat="44.26453" lon="4.42062">
        <ele>89</ele>
        <time>2021-07-04T15:08:47Z</time>
      </trkpt>
      <trkpt lat="44.26434" lon="4.42057">
        <ele>90</ele>
        <time>2021-07-04T15:08:52Z</time>
      </trkpt>
      <trkpt lat="44.26421" lon="4.42075">
        <ele>91</ele>
        <time>2021-07-04T15:08:56Z</time>
      </trkpt>
      <trkpt lat="44.26324" lon="4.42033">
        <ele>88</ele>
        <time>2021-07-04T15:09:20Z</time>
      </trkpt>
      <trkpt lat="44.26207" lon="4.4201">
        <ele>92</ele>
        <time>2021-07-04T15:09:47Z</time>
      </trkpt>
    </trkseg>
  </trk>
  <trk>
    <name><![CDATA[Vert Aiguèze]]></name>
    <extensions>
      <line xmlns="http://www.topografix.com/GPX/gpx_style/0/2">
        <color>00fa00</color>
        <width>4</width>
      </line>
    </extensions>
    <trkseg>
      <trkpt lat="44.30202" lon="4.55498">
        <ele>94</ele>
        <time>2021-07-04T13:12:55Z</time>
      </trkpt>
      <trkpt lat="44.30202" lon="4.55498">
        <ele>94</ele>
        <time>2021-07-04T13:12:55Z</time>
      </trkpt>
      <trkpt lat="44.30201" lon="4.555">
        <ele>94</ele>
        <time>2021-07-04T13:12:55Z</time>
      </trkpt>
      <trkpt lat="44.30188" lon="4.55489">
        <ele>95</ele>
        <time>2021-07-04T13:12:59Z</time>
      </trkpt>
      <trkpt lat="44.30184" lon="4.55487">
        <ele>95</ele>
        <time>2021-07-04T13:13:00Z</time>
      </trkpt>
      <trkpt lat="44.30182" lon="4.55486">
        <ele>95</ele>
        <time>2021-07-04T13:13:00Z</time>
      </trkpt>
      <trkpt lat="44.3016" lon="4.55483">
        <ele>95</ele>
        <time>2021-07-04T13:13:06Z</time>
      </trkpt>
      <trkpt lat="44.30137" lon="4.55481">
        <ele>96</ele>
        <time>2021-07-04T13:13:11Z</time>
      </trkpt>
      <trkpt lat="44.30135" lon="4.5547">
        <ele>96</ele>
        <time>2021-07-04T13:13:13Z</time>
      </trkpt>
      <trkpt lat="44.3013" lon="4.55447">
        <ele>95</ele>
        <time>2021-07-04T13:13:17Z</time>
      </trkpt>
      <trkpt lat="44.30124" lon="4.55383">
        <ele>95</ele>
        <time>2021-07-04T13:13:28Z</time>
      </trkpt>
      <trkpt lat="44.3012" lon="4.55356">
        <ele>96</ele>
        <time>2021-07-04T13:13:32Z</time>
      </trkpt>
      <trkpt lat="44.30118" lon="4.55306">
        <ele>96</ele>
        <time>2021-07-04T13:13:41Z</time>
      </trkpt>
      <trkpt lat="44.30117" lon="4.553">
        <ele>97</ele>
        <time>2021-07-04T13:13:42Z</time>
      </trkpt>
      <trkpt lat="44.301" lon="4.55299">
        <ele>96</ele>
        <time>2021-07-04T13:13:46Z</time>
      </trkpt>
      <trkpt lat="44.30082" lon="4.55295">
        <ele>95</ele>
        <time>2021-07-04T13:13:50Z</time>
      </trkpt>
      <trkpt lat="44.30068" lon="4.55283">
        <ele>96</ele>
        <time>2021-07-04T13:13:54Z</time>
      </trkpt>
      <trkpt lat="44.30051" lon="4.55262">
        <ele>96</ele>
        <time>2021-07-04T13:13:59Z</time>
      </trkpt>
      <trkpt lat="44.30036" lon="4.55251">
        <ele>97</ele>
        <time>2021-07-04T13:14:03Z</time>
      </trkpt>
      <trkpt lat="44.30031" lon="4.55247">
        <ele>97</ele>
        <time>2021-07-04T13:14:04Z</time>
      </trkpt>
      <trkpt lat="44.30013" lon="4.55242">
        <ele>97</ele>
        <time>2021-07-04T13:14:09Z</time>
      </trkpt>
      <trkpt lat="44.30015" lon="4.55232">
        <ele>97</ele>
        <time>2021-07-04T13:14:10Z</time>
      </trkpt>
      <trkpt lat="44.30013" lon="4.55242">
        <ele>97</ele>
        <time>2021-07-04T13:14:12Z</time>
      </trkpt>
      <trkpt lat="44.29985" lon="4.55232">
        <ele>97</ele>
        <time>2021-07-04T13:14:19Z</time>
      </trkpt>
      <trkpt lat="44.29972" lon="4.55222">
        <ele>97</ele>
        <time>2021-07-04T13:14:22Z</time>
      </trkpt>
      <trkpt lat="44.29945" lon="4.55192">
        <ele>96</ele>
        <time>2021-07-04T13:14:30Z</time>
      </trkpt>
      <trkpt lat="44.29903" lon="4.55147">
        <ele>95</ele>
        <time>2021-07-04T13:14:43Z</time>
      </trkpt>
      <trkpt lat="44.29889" lon="4.55132">
        <ele>94</ele>
        <time>2021-07-04T13:14:47Z</time>
      </trkpt>
      <trkpt lat="44.29858" lon="4.55111">
        <ele>93</ele>
        <time>2021-07-04T13:14:55Z</time>
      </trkpt>
      <trkpt lat="44.29853" lon="4.5511">
        <ele>93</ele>
        <time>2021-07-04T13:14:56Z</time>
      </trkpt>
      <trkpt lat="44.29851" lon="4.55096">
        <ele>93</ele>
        <time>2021-07-04T13:14:58Z</time>
      </trkpt>
      <trkpt lat="44.29848" lon="4.55082">
        <ele>93</ele>
        <time>2021-07-04T13:15:01Z</time>
      </trkpt>
      <trkpt lat="44.29835" lon="4.5505">
        <ele>93</ele>
        <time>2021-07-04T13:15:07Z</time>
      </trkpt>
      <trkpt lat="44.29826" lon="4.55025">
        <ele>93</ele>
        <time>2021-07-04T13:15:12Z</time>
      </trkpt>
      <trkpt lat="44.29822" lon="4.54998">
        <ele>93</ele>
        <time>2021-07-04T13:15:16Z</time>
      </trkpt>
      <trkpt lat="44.29819" lon="4.54983">
        <ele>93</ele>
        <time>2021-07-04T13:15:19Z</time>
      </trkpt>
      <trkpt lat="44.29817" lon="4.54936">
        <ele>94</ele>
        <time>2021-07-04T13:15:27Z</time>
      </trkpt>
      <trkpt lat="44.29814" lon="4.54912">
        <ele>94</ele>
        <time>2021-07-04T13:15:31Z</time>
      </trkpt>
      <trkpt lat="44.29815" lon="4.54887">
        <ele>94</ele>
        <time>2021-07-04T13:15:35Z</time>
      </trkpt>
      <trkpt lat="44.29816" lon="4.54879">
        <ele>95</ele>
        <time>2021-07-04T13:15:36Z</time>
      </trkpt>
      <trkpt lat="44.29816" lon="4.54862">
        <ele>95</ele>
        <time>2021-07-04T13:15:39Z</time>
      </trkpt>
      <trkpt lat="44.29817" lon="4.54822">
        <ele>95</ele>
        <time>2021-07-04T13:15:46Z</time>
      </trkpt>
      <trkpt lat="44.29828" lon="4.54767">
        <ele>94</ele>
        <time>2021-07-04T13:15:56Z</time>
      </trkpt>
      <trkpt lat="44.29831" lon="4.5475">
        <ele>94</ele>
        <time>2021-07-04T13:15:58Z</time>
      </trkpt>
      <trkpt lat="44.29832" lon="4.54737">
        <ele>95</ele>
        <time>2021-07-04T13:16:01Z</time>
      </trkpt>
      <trkpt lat="44.29831" lon="4.54727">
        <ele>95</ele>
        <time>2021-07-04T13:16:02Z</time>
      </trkpt>
      <trkpt lat="44.29831" lon="4.54725">
        <ele>95</ele>
        <time>2021-07-04T13:16:03Z</time>
      </trkpt>
      <trkpt lat="44.29827" lon="4.54715">
        <ele>95</ele>
        <time>2021-07-04T13:16:05Z</time>
      </trkpt>
      <trkpt lat="44.29822" lon="4.54709">
        <ele>95</ele>
        <time>2021-07-04T13:16:06Z</time>
      </trkpt>
      <trkpt lat="44.29814" lon="4.547">
        <ele>95</ele>
        <time>2021-07-04T13:16:09Z</time>
      </trkpt>
      <trkpt lat="44.29806" lon="4.54692">
        <ele>95</ele>
        <time>2021-07-04T13:16:11Z</time>
      </trkpt>
      <trkpt lat="44.298" lon="4.54683">
        <ele>95</ele>
        <time>2021-07-04T13:16:13Z</time>
      </trkpt>
      <trkpt lat="44.29794" lon="4.54674">
        <ele>95</ele>
        <time>2021-07-04T13:16:15Z</time>
      </trkpt>
      <trkpt lat="44.29761" lon="4.54607">
        <ele>95</ele>
        <time>2021-07-04T13:16:29Z</time>
      </trkpt>
      <trkpt lat="44.29754" lon="4.54594">
        <ele>95</ele>
        <time>2021-07-04T13:16:31Z</time>
      </trkpt>
      <trkpt lat="44.29748" lon="4.54578">
        <ele>95</ele>
        <time>2021-07-04T13:16:34Z</time>
      </trkpt>
      <trkpt lat="44.29739" lon="4.54555">
        <ele>94</ele>
        <time>2021-07-04T13:16:39Z</time>
      </trkpt>
      <trkpt lat="44.29734" lon="4.54539">
        <ele>94</ele>
        <time>2021-07-04T13:16:42Z</time>
      </trkpt>
      <trkpt lat="44.2973" lon="4.5452">
        <ele>94</ele>
        <time>2021-07-04T13:16:45Z</time>
      </trkpt>
      <trkpt lat="44.29726" lon="4.54502">
        <ele>93</ele>
        <time>2021-07-04T13:16:48Z</time>
      </trkpt>
      <trkpt lat="44.29726" lon="4.54482">
        <ele>94</ele>
        <time>2021-07-04T13:16:51Z</time>
      </trkpt>
      <trkpt lat="44.29725" lon="4.54467">
        <ele>94</ele>
        <time>2021-07-04T13:16:54Z</time>
      </trkpt>
      <trkpt lat="44.29725" lon="4.54449">
        <ele>95</ele>
        <time>2021-07-04T13:16:57Z</time>
      </trkpt>
      <trkpt lat="44.29724" lon="4.54437">
        <ele>95</ele>
        <time>2021-07-04T13:16:59Z</time>
      </trkpt>
      <trkpt lat="44.2972" lon="4.54426">
        <ele>96</ele>
        <time>2021-07-04T13:17:01Z</time>
      </trkpt>
      <trkpt lat="44.29699" lon="4.54385">
        <ele>96</ele>
        <time>2021-07-04T13:17:09Z</time>
      </trkpt>
      <trkpt lat="44.29697" lon="4.54372">
        <ele>96</ele>
        <time>2021-07-04T13:17:12Z</time>
      </trkpt>
      <trkpt lat="44.29695" lon="4.54352">
        <ele>96</ele>
        <time>2021-07-04T13:17:15Z</time>
      </trkpt>
      <trkpt lat="44.29694" lon="4.54326">
        <ele>97</ele>
        <time>2021-07-04T13:17:19Z</time>
      </trkpt>
      <trkpt lat="44.29691" lon="4.54293">
        <ele>97</ele>
        <time>2021-07-04T13:17:25Z</time>
      </trkpt>
      <trkpt lat="44.29688" lon="4.54255">
        <ele>98</ele>
        <time>2021-07-04T13:17:31Z</time>
      </trkpt>
      <trkpt lat="44.29683" lon="4.542">
        <ele>97</ele>
        <time>2021-07-04T13:17:41Z</time>
      </trkpt>
      <trkpt lat="44.29681" lon="4.54174">
        <ele>96</ele>
        <time>2021-07-04T13:17:45Z</time>
      </trkpt>
      <trkpt lat="44.29678" lon="4.54137">
        <ele>96</ele>
        <time>2021-07-04T13:17:51Z</time>
      </trkpt>
      <trkpt lat="44.29674" lon="4.54085">
        <ele>97</ele>
        <time>2021-07-04T13:18:00Z</time>
      </trkpt>
      <trkpt lat="44.29672" lon="4.54064">
        <ele>98</ele>
        <time>2021-07-04T13:18:03Z</time>
      </trkpt>
      <trkpt lat="44.29672" lon="4.54043">
        <ele>98</ele>
        <time>2021-07-04T13:18:07Z</time>
      </trkpt>
      <trkpt lat="44.29674" lon="4.54025">
        <ele>98</ele>
        <time>2021-07-04T13:18:10Z</time>
      </trkpt>
      <trkpt lat="44.29673" lon="4.54008">
        <ele>98</ele>
        <time>2021-07-04T13:18:13Z</time>
      </trkpt>
      <trkpt lat="44.29671" lon="4.53989">
        <ele>98</ele>
        <time>2021-07-04T13:18:16Z</time>
      </trkpt>
      <trkpt lat="44.29668" lon="4.5397">
        <ele>99</ele>
        <time>2021-07-04T13:18:19Z</time>
      </trkpt>
      <trkpt lat="44.29668" lon="4.53949">
        <ele>99</ele>
        <time>2021-07-04T13:18:23Z</time>
      </trkpt>
      <trkpt lat="44.29669" lon="4.53925">
        <ele>100</ele>
        <time>2021-07-04T13:18:27Z</time>
      </trkpt>
      <trkpt lat="44.29667" lon="4.5391">
        <ele>100</ele>
        <time>2021-07-04T13:18:29Z</time>
      </trkpt>
      <trkpt lat="44.29665" lon="4.53888">
        <ele>101</ele>
        <time>2021-07-04T13:18:33Z</time>
      </trkpt>
      <trkpt lat="44.29656" lon="4.53841">
        <ele>101</ele>
        <time>2021-07-04T13:18:41Z</time>
      </trkpt>
      <trkpt lat="44.29655" lon="4.53834">
        <ele>101</ele>
        <time>2021-07-04T13:18:42Z</time>
      </trkpt>
      <trkpt lat="44.29653" lon="4.53819">
        <ele>102</ele>
        <time>2021-07-04T13:18:45Z</time>
      </trkpt>
      <trkpt lat="44.29652" lon="4.53798">
        <ele>102</ele>
        <time>2021-07-04T13:18:48Z</time>
      </trkpt>
      <trkpt lat="44.29651" lon="4.53773">
        <ele>103</ele>
        <time>2021-07-04T13:18:53Z</time>
      </trkpt>
      <trkpt lat="44.29652" lon="4.53744">
        <ele>103</ele>
        <time>2021-07-04T13:18:58Z</time>
      </trkpt>
      <trkpt lat="44.29654" lon="4.53716">
        <ele>103</ele>
        <time>2021-07-04T13:19:02Z</time>
      </trkpt>
      <trkpt lat="44.29654" lon="4.53643">
        <ele>103</ele>
        <time>2021-07-04T13:19:14Z</time>
      </trkpt>
      <trkpt lat="44.29654" lon="4.53638">
        <ele>103</ele>
        <time>2021-07-04T13:19:15Z</time>
      </trkpt>
      <trkpt lat="44.29656" lon="4.53631">
        <ele>104</ele>
        <time>2021-07-04T13:19:17Z</time>
      </trkpt>
      <trkpt lat="44.29659" lon="4.53625">
        <ele>104</ele>
        <time>2021-07-04T13:19:18Z</time>
      </trkpt>
      <trkpt lat="44.29659" lon="4.53625">
        <ele>104</ele>
        <time>2021-07-04T13:19:18Z</time>
      </trkpt>
      <trkpt lat="44.29659" lon="4.53624">
        <ele>104</ele>
        <time>2021-07-04T13:19:18Z</time>
      </trkpt>
      <trkpt lat="44.29665" lon="4.53636">
        <ele>104</ele>
        <time>2021-07-04T13:19:20Z</time>
      </trkpt>
      <trkpt lat="44.2968" lon="4.53662">
        <ele>104</ele>
        <time>2021-07-04T13:19:26Z</time>
      </trkpt>
      <trkpt lat="44.29698" lon="4.53688">
        <ele>106</ele>
        <time>2021-07-04T13:19:32Z</time>
      </trkpt>
      <trkpt lat="44.29716" lon="4.53712">
        <ele>107</ele>
        <time>2021-07-04T13:19:38Z</time>
      </trkpt>
      <trkpt lat="44.29727" lon="4.53718">
        <ele>108</ele>
        <time>2021-07-04T13:19:41Z</time>
      </trkpt>
      <trkpt lat="44.29733" lon="4.53719">
        <ele>108</ele>
        <time>2021-07-04T13:19:42Z</time>
      </trkpt>
      <trkpt lat="44.29733" lon="4.53719">
        <ele>108</ele>
        <time>2021-07-04T13:19:42Z</time>
      </trkpt>
      <trkpt lat="44.29727" lon="4.53718">
        <ele>108</ele>
        <time>2021-07-04T13:19:43Z</time>
      </trkpt>
      <trkpt lat="44.29726" lon="4.53717">
        <ele>108</ele>
        <time>2021-07-04T13:19:44Z</time>
      </trkpt>
      <trkpt lat="44.29727" lon="4.53728">
        <ele>108</ele>
        <time>2021-07-04T13:19:46Z</time>
      </trkpt>
      <trkpt lat="44.29742" lon="4.53753">
        <ele>108</ele>
        <time>2021-07-04T13:19:51Z</time>
      </trkpt>
      <trkpt lat="44.29749" lon="4.53769">
        <ele>108</ele>
        <time>2021-07-04T13:19:54Z</time>
      </trkpt>
      <trkpt lat="44.2976" lon="4.53803">
        <ele>107</ele>
        <time>2021-07-04T13:20:00Z</time>
      </trkpt>
      <trkpt lat="44.29764" lon="4.53816">
        <ele>107</ele>
        <time>2021-07-04T13:20:03Z</time>
      </trkpt>
      <trkpt lat="44.29782" lon="4.53853">
        <ele>107</ele>
        <time>2021-07-04T13:20:10Z</time>
      </trkpt>
      <trkpt lat="44.29803" lon="4.53902">
        <ele>108</ele>
        <time>2021-07-04T13:20:20Z</time>
      </trkpt>
      <trkpt lat="44.29822" lon="4.53943">
        <ele>108</ele>
        <time>2021-07-04T13:20:28Z</time>
      </trkpt>
      <trkpt lat="44.29838" lon="4.53983">
        <ele>108</ele>
        <time>2021-07-04T13:20:36Z</time>
      </trkpt>
      <trkpt lat="44.29841" lon="4.53995">
        <ele>107</ele>
        <time>2021-07-04T13:20:38Z</time>
      </trkpt>
      <trkpt lat="44.29849" lon="4.54016">
        <ele>108</ele>
        <time>2021-07-04T13:20:42Z</time>
      </trkpt>
      <trkpt lat="44.29859" lon="4.54037">
        <ele>108</ele>
        <time>2021-07-04T13:20:46Z</time>
      </trkpt>
      <trkpt lat="44.29871" lon="4.54057">
        <ele>109</ele>
        <time>2021-07-04T13:20:50Z</time>
      </trkpt>
      <trkpt lat="44.29931" lon="4.54131">
        <ele>111</ele>
        <time>2021-07-04T13:21:09Z</time>
      </trkpt>
      <trkpt lat="44.29957" lon="4.54162">
        <ele>112</ele>
        <time>2021-07-04T13:21:17Z</time>
      </trkpt>
      <trkpt lat="44.2998" lon="4.54182">
        <ele>112</ele>
        <time>2021-07-04T13:21:23Z</time>
      </trkpt>
      <trkpt lat="44.29988" lon="4.54187">
        <ele>112</ele>
        <time>2021-07-04T13:21:25Z</time>
      </trkpt>
      <trkpt lat="44.29992" lon="4.54191">
        <ele>112</ele>
        <time>2021-07-04T13:21:26Z</time>
      </trkpt>
      <trkpt lat="44.3002" lon="4.54209">
        <ele>112</ele>
        <time>2021-07-04T13:21:34Z</time>
      </trkpt>
      <trkpt lat="44.30038" lon="4.54225">
        <ele>112</ele>
        <time>2021-07-04T13:21:39Z</time>
      </trkpt>
      <trkpt lat="44.30048" lon="4.54235">
        <ele>112</ele>
        <time>2021-07-04T13:21:41Z</time>
      </trkpt>
      <trkpt lat="44.30051" lon="4.54239">
        <ele>112</ele>
        <time>2021-07-04T13:21:42Z</time>
      </trkpt>
      <trkpt lat="44.3006" lon="4.54246">
        <ele>112</ele>
        <time>2021-07-04T13:21:45Z</time>
      </trkpt>
      <trkpt lat="44.30069" lon="4.54255">
        <ele>112</ele>
        <time>2021-07-04T13:21:47Z</time>
      </trkpt>
      <trkpt lat="44.30073" lon="4.54257">
        <ele>112</ele>
        <time>2021-07-04T13:21:48Z</time>
      </trkpt>
      <trkpt lat="44.30075" lon="4.54259">
        <ele>112</ele>
        <time>2021-07-04T13:21:49Z</time>
      </trkpt>
      <trkpt lat="44.30081" lon="4.5426">
        <ele>113</ele>
        <time>2021-07-04T13:21:50Z</time>
      </trkpt>
      <trkpt lat="44.30085" lon="4.54257">
        <ele>113</ele>
        <time>2021-07-04T13:21:51Z</time>
      </trkpt>
      <trkpt lat="44.3009" lon="4.54254">
        <ele>113</ele>
        <time>2021-07-04T13:21:53Z</time>
      </trkpt>
      <trkpt lat="44.30088" lon="4.54264">
        <ele>113</ele>
        <time>2021-07-04T13:21:54Z</time>
      </trkpt>
      <trkpt lat="44.30086" lon="4.54269">
        <ele>113</ele>
        <time>2021-07-04T13:21:55Z</time>
      </trkpt>
      <trkpt lat="44.30071" lon="4.54279">
        <ele>111</ele>
        <time>2021-07-04T13:21:59Z</time>
      </trkpt>
      <trkpt lat="44.30068" lon="4.54282">
        <ele>111</ele>
        <time>2021-07-04T13:22:00Z</time>
      </trkpt>
      <trkpt lat="44.30052" lon="4.54301">
        <ele>110</ele>
        <time>2021-07-04T13:22:05Z</time>
      </trkpt>
      <trkpt lat="44.30038" lon="4.54314">
        <ele>109</ele>
        <time>2021-07-04T13:22:09Z</time>
      </trkpt>
      <trkpt lat="44.30035" lon="4.54318">
        <ele>109</ele>
        <time>2021-07-04T13:22:10Z</time>
      </trkpt>
      <trkpt lat="44.30031" lon="4.54325">
        <ele>109</ele>
        <time>2021-07-04T13:22:11Z</time>
      </trkpt>
      <trkpt lat="44.30026" lon="4.54332">
        <ele>109</ele>
        <time>2021-07-04T13:22:13Z</time>
      </trkpt>
      <trkpt lat="44.3002" lon="4.54339">
        <ele>108</ele>
        <time>2021-07-04T13:22:15Z</time>
      </trkpt>
      <trkpt lat="44.30005" lon="4.54365">
        <ele>107</ele>
        <time>2021-07-04T13:22:21Z</time>
      </trkpt>
      <trkpt lat="44.29986" lon="4.54385">
        <ele>106</ele>
        <time>2021-07-04T13:22:26Z</time>
      </trkpt>
      <trkpt lat="44.29983" lon="4.54387">
        <ele>106</ele>
        <time>2021-07-04T13:22:27Z</time>
      </trkpt>
      <trkpt lat="44.29977" lon="4.54391">
        <ele>105</ele>
        <time>2021-07-04T13:22:28Z</time>
      </trkpt>
      <trkpt lat="44.29962" lon="4.54388">
        <ele>105</ele>
        <time>2021-07-04T13:22:32Z</time>
      </trkpt>
      <trkpt lat="44.29954" lon="4.54386">
        <ele>104</ele>
        <time>2021-07-04T13:22:34Z</time>
      </trkpt>
      <trkpt lat="44.29948" lon="4.54386">
        <ele>104</ele>
        <time>2021-07-04T13:22:35Z</time>
      </trkpt>
      <trkpt lat="44.29943" lon="4.54386">
        <ele>104</ele>
        <time>2021-07-04T13:22:36Z</time>
      </trkpt>
      <trkpt lat="44.29933" lon="4.54388">
        <ele>103</ele>
        <time>2021-07-04T13:22:39Z</time>
      </trkpt>
      <trkpt lat="44.29927" lon="4.54388">
        <ele>103</ele>
        <time>2021-07-04T13:22:40Z</time>
      </trkpt>
      <trkpt lat="44.29921" lon="4.54393">
        <ele>103</ele>
        <time>2021-07-04T13:22:42Z</time>
      </trkpt>
      <trkpt lat="44.2992" lon="4.54398">
        <ele>102</ele>
        <time>2021-07-04T13:22:43Z</time>
      </trkpt>
      <trkpt lat="44.29919" lon="4.54403">
        <ele>102</ele>
        <time>2021-07-04T13:22:44Z</time>
      </trkpt>
      <trkpt lat="44.2992" lon="4.54413">
        <ele>102</ele>
        <time>2021-07-04T13:22:45Z</time>
      </trkpt>
      <trkpt lat="44.29927" lon="4.54427">
        <ele>103</ele>
        <time>2021-07-04T13:22:48Z</time>
      </trkpt>
      <trkpt lat="44.2994" lon="4.5445">
        <ele>104</ele>
        <time>2021-07-04T13:22:53Z</time>
      </trkpt>
      <trkpt lat="44.29952" lon="4.54469">
        <ele>105</ele>
        <time>2021-07-04T13:22:57Z</time>
      </trkpt>
      <trkpt lat="44.29964" lon="4.54483">
        <ele>107</ele>
        <time>2021-07-04T13:23:01Z</time>
      </trkpt>
      <trkpt lat="44.29977" lon="4.54496">
        <ele>108</ele>
        <time>2021-07-04T13:23:05Z</time>
      </trkpt>
      <trkpt lat="44.29988" lon="4.54518">
        <ele>110</ele>
        <time>2021-07-04T13:23:09Z</time>
      </trkpt>
      <trkpt lat="44.30002" lon="4.54532">
        <ele>111</ele>
        <time>2021-07-04T13:23:13Z</time>
      </trkpt>
      <trkpt lat="44.30011" lon="4.54543">
        <ele>112</ele>
        <time>2021-07-04T13:23:16Z</time>
      </trkpt>
      <trkpt lat="44.30014" lon="4.54565">
        <ele>112</ele>
        <time>2021-07-04T13:23:20Z</time>
      </trkpt>
      <trkpt lat="44.3002" lon="4.54586">
        <ele>113</ele>
        <time>2021-07-04T13:23:23Z</time>
      </trkpt>
      <trkpt lat="44.30054" lon="4.54582">
        <ele>115</ele>
        <time>2021-07-04T13:23:31Z</time>
      </trkpt>
      <trkpt lat="44.30084" lon="4.54583">
        <ele>116</ele>
        <time>2021-07-04T13:23:38Z</time>
      </trkpt>
      <trkpt lat="44.30108" lon="4.54581">
        <ele>117</ele>
        <time>2021-07-04T13:23:44Z</time>
      </trkpt>
      <trkpt lat="44.30133" lon="4.54578">
        <ele>118</ele>
        <time>2021-07-04T13:23:50Z</time>
      </trkpt>
      <trkpt lat="44.30138" lon="4.54581">
        <ele>118</ele>
        <time>2021-07-04T13:23:51Z</time>
      </trkpt>
      <trkpt lat="44.30143" lon="4.54582">
        <ele>118</ele>
        <time>2021-07-04T13:23:52Z</time>
      </trkpt>
      <trkpt lat="44.30133" lon="4.54616">
        <ele>117</ele>
        <time>2021-07-04T13:23:58Z</time>
      </trkpt>
      <trkpt lat="44.30141" lon="4.54629">
        <ele>118</ele>
        <time>2021-07-04T13:24:01Z</time>
      </trkpt>
      <trkpt lat="44.30153" lon="4.54663">
        <ele>118</ele>
        <time>2021-07-04T13:24:08Z</time>
      </trkpt>
      <trkpt lat="44.30168" lon="4.54697">
        <ele>118</ele>
        <time>2021-07-04T13:24:14Z</time>
      </trkpt>
      <trkpt lat="44.30196" lon="4.54745">
        <ele>119</ele>
        <time>2021-07-04T13:24:25Z</time>
      </trkpt>
      <trkpt lat="44.30215" lon="4.54785">
        <ele>117</ele>
        <time>2021-07-04T13:24:33Z</time>
      </trkpt>
      <trkpt lat="44.30234" lon="4.54824">
        <ele>115</ele>
        <time>2021-07-04T13:24:41Z</time>
      </trkpt>
      <trkpt lat="44.30246" lon="4.54843">
        <ele>114</ele>
        <time>2021-07-04T13:24:45Z</time>
      </trkpt>
      <trkpt lat="44.30296" lon="4.54907">
        <ele>115</ele>
        <time>2021-07-04T13:25:01Z</time>
      </trkpt>
      <trkpt lat="44.30314" lon="4.54932">
        <ele>114</ele>
        <time>2021-07-04T13:25:07Z</time>
      </trkpt>
      <trkpt lat="44.3034" lon="4.5496">
        <ele>114</ele>
        <time>2021-07-04T13:25:14Z</time>
      </trkpt>
      <trkpt lat="44.30365" lon="4.54988">
        <ele>114</ele>
        <time>2021-07-04T13:25:22Z</time>
      </trkpt>
      <trkpt lat="44.30383" lon="4.55004">
        <ele>114</ele>
        <time>2021-07-04T13:25:27Z</time>
      </trkpt>
      <trkpt lat="44.30394" lon="4.55008">
        <ele>114</ele>
        <time>2021-07-04T13:25:29Z</time>
      </trkpt>
      <trkpt lat="44.30407" lon="4.55018">
        <ele>114</ele>
        <time>2021-07-04T13:25:33Z</time>
      </trkpt>
      <trkpt lat="44.30433" lon="4.55045">
        <ele>115</ele>
        <time>2021-07-04T13:25:40Z</time>
      </trkpt>
      <trkpt lat="44.30465" lon="4.55079">
        <ele>115</ele>
        <time>2021-07-04T13:25:50Z</time>
      </trkpt>
      <trkpt lat="44.30473" lon="4.55094">
        <ele>115</ele>
        <time>2021-07-04T13:25:53Z</time>
      </trkpt>
      <trkpt lat="44.30479" lon="4.55107">
        <ele>114</ele>
        <time>2021-07-04T13:25:56Z</time>
      </trkpt>
      <trkpt lat="44.30482" lon="4.55152">
        <ele>111</ele>
        <time>2021-07-04T13:26:03Z</time>
      </trkpt>
      <trkpt lat="44.30482" lon="4.55153">
        <ele>111</ele>
        <time>2021-07-04T13:26:03Z</time>
      </trkpt>
      <trkpt lat="44.30482" lon="4.55153">
        <ele>111</ele>
        <time>2021-07-04T13:26:03Z</time>
      </trkpt>
      <trkpt lat="44.30487" lon="4.55172">
        <ele>110</ele>
        <time>2021-07-04T13:26:07Z</time>
      </trkpt>
      <trkpt lat="44.305" lon="4.55218">
        <ele>108</ele>
        <time>2021-07-04T13:26:15Z</time>
      </trkpt>
      <trkpt lat="44.30506" lon="4.55252">
        <ele>107</ele>
        <time>2021-07-04T13:26:21Z</time>
      </trkpt>
      <trkpt lat="44.30508" lon="4.55269">
        <ele>107</ele>
        <time>2021-07-04T13:26:24Z</time>
      </trkpt>
      <trkpt lat="44.30507" lon="4.55282">
        <ele>107</ele>
        <time>2021-07-04T13:26:26Z</time>
      </trkpt>
      <trkpt lat="44.30504" lon="4.55292">
        <ele>107</ele>
        <time>2021-07-04T13:26:28Z</time>
      </trkpt>
      <trkpt lat="44.3049" lon="4.55305">
        <ele>106</ele>
        <time>2021-07-04T13:26:32Z</time>
      </trkpt>
      <trkpt lat="44.30466" lon="4.55332">
        <ele>105</ele>
        <time>2021-07-04T13:26:39Z</time>
      </trkpt>
      <trkpt lat="44.30438" lon="4.55366">
        <ele>101</ele>
        <time>2021-07-04T13:26:47Z</time>
      </trkpt>
      <trkpt lat="44.30433" lon="4.55364">
        <ele>101</ele>
        <time>2021-07-04T13:26:49Z</time>
      </trkpt>
      <trkpt lat="44.30416" lon="4.55364">
        <ele>100</ele>
        <time>2021-07-04T13:26:53Z</time>
      </trkpt>
      <trkpt lat="44.30402" lon="4.55372">
        <ele>99</ele>
        <time>2021-07-04T13:26:56Z</time>
      </trkpt>
      <trkpt lat="44.30386" lon="4.55389">
        <ele>98</ele>
        <time>2021-07-04T13:27:01Z</time>
      </trkpt>
      <trkpt lat="44.30352" lon="4.55407">
        <ele>96</ele>
        <time>2021-07-04T13:27:09Z</time>
      </trkpt>
      <trkpt lat="44.30333" lon="4.55416">
        <ele>95</ele>
        <time>2021-07-04T13:27:14Z</time>
      </trkpt>
      <trkpt lat="44.30328" lon="4.55417">
        <ele>95</ele>
        <time>2021-07-04T13:27:15Z</time>
      </trkpt>
      <trkpt lat="44.30307" lon="4.55428">
        <ele>95</ele>
        <time>2021-07-04T13:27:20Z</time>
      </trkpt>
      <trkpt lat="44.30303" lon="4.55429">
        <ele>95</ele>
        <time>2021-07-04T13:27:21Z</time>
      </trkpt>
      <trkpt lat="44.30298" lon="4.55434">
        <ele>95</ele>
        <time>2021-07-04T13:27:23Z</time>
      </trkpt>
      <trkpt lat="44.30276" lon="4.55452">
        <ele>94</ele>
        <time>2021-07-04T13:27:29Z</time>
      </trkpt>
      <trkpt lat="44.30256" lon="4.55468">
        <ele>94</ele>
        <time>2021-07-04T13:27:34Z</time>
      </trkpt>
      <trkpt lat="44.30255" lon="4.55469">
        <ele>94</ele>
        <time>2021-07-04T13:27:34Z</time>
      </trkpt>
      <trkpt lat="44.30246" lon="4.55473">
        <ele>94</ele>
        <time>2021-07-04T13:27:37Z</time>
      </trkpt>
      <trkpt lat="44.30223" lon="4.55477">
        <ele>94</ele>
        <time>2021-07-04T13:27:42Z</time>
      </trkpt>
      <trkpt lat="44.30196" lon="4.55484">
        <ele>95</ele>
        <time>2021-07-04T13:27:48Z</time>
      </trkpt>
      <trkpt lat="44.30188" lon="4.55489">
        <ele>95</ele>
        <time>2021-07-04T13:27:50Z</time>
      </trkpt>
      <trkpt lat="44.30203" lon="4.55502">
        <ele>94</ele>
        <time>2021-07-04T13:27:55Z</time>
      </trkpt>
    </trkseg>
  </trk>
  <trk>
    <name><![CDATA[Rouge Aigueze Valbonne]]></name>
    <extensions>
      <line xmlns="http://www.topografix.com/GPX/gpx_style/0/2">
        <color>fa0000</color>
        <width>4</width>
      </line>
    </extensions>
    <trkseg>
      <trkpt lat="44.30273" lon="4.55679">
        <ele>88</ele>
        <time>2021-07-04T13:20:25Z</time>
      </trkpt>
      <trkpt lat="44.30273" lon="4.55679">
        <ele>88</ele>
        <time>2021-07-04T13:20:25Z</time>
      </trkpt>
      <trkpt lat="44.30198" lon="4.55509">
        <ele>94</ele>
        <time>2021-07-04T13:20:58Z</time>
      </trkpt>
      <trkpt lat="44.30134" lon="4.55483">
        <ele>96</ele>
        <time>2021-07-04T13:21:14Z</time>
      </trkpt>
      <trkpt lat="44.30128" lon="4.55299">
        <ele>97</ele>
        <time>2021-07-04T13:21:45Z</time>
      </trkpt>
      <trkpt lat="44.30079" lon="4.55285">
        <ele>96</ele>
        <time>2021-07-04T13:21:56Z</time>
      </trkpt>
      <trkpt lat="44.2986" lon="4.55097">
        <ele>93</ele>
        <time>2021-07-04T13:22:56Z</time>
      </trkpt>
      <trkpt lat="44.29813" lon="4.54884">
        <ele>94</ele>
        <time>2021-07-04T13:23:34Z</time>
      </trkpt>
      <trkpt lat="44.29702" lon="4.54899">
        <ele>82</ele>
        <time>2021-07-04T13:24:00Z</time>
      </trkpt>
      <trkpt lat="44.29596" lon="4.54859">
        <ele>74</ele>
        <time>2021-07-04T13:24:25Z</time>
      </trkpt>
      <trkpt lat="44.29485" lon="4.54794">
        <ele>75</ele>
        <time>2021-07-04T13:24:53Z</time>
      </trkpt>
      <trkpt lat="44.29426" lon="4.54668">
        <ele>75</ele>
        <time>2021-07-04T13:25:19Z</time>
      </trkpt>
      <trkpt lat="44.29333" lon="4.54682">
        <ele>75</ele>
        <time>2021-07-04T13:25:40Z</time>
      </trkpt>
      <trkpt lat="44.29299" lon="4.54509">
        <ele>85</ele>
        <time>2021-07-04T13:26:10Z</time>
      </trkpt>
      <trkpt lat="44.29243" lon="4.54516">
        <ele>93</ele>
        <time>2021-07-04T13:26:24Z</time>
      </trkpt>
      <trkpt lat="44.29147" lon="4.54549">
        <ele>103</ele>
        <time>2021-07-04T13:26:47Z</time>
      </trkpt>
      <trkpt lat="44.29046" lon="4.54484">
        <ele>114</ele>
        <time>2021-07-04T13:27:13Z</time>
      </trkpt>
      <trkpt lat="44.28945" lon="4.54455">
        <ele>120</ele>
        <time>2021-07-04T13:27:37Z</time>
      </trkpt>
      <trkpt lat="44.28829" lon="4.5439">
        <ele>126</ele>
        <time>2021-07-04T13:28:06Z</time>
      </trkpt>
      <trkpt lat="44.28788" lon="4.54296">
        <ele>136</ele>
        <time>2021-07-04T13:28:24Z</time>
      </trkpt>
      <trkpt lat="44.28685" lon="4.54242">
        <ele>140</ele>
        <time>2021-07-04T13:28:50Z</time>
      </trkpt>
      <trkpt lat="44.28579" lon="4.54195">
        <ele>144</ele>
        <time>2021-07-04T13:29:16Z</time>
      </trkpt>
      <trkpt lat="44.28478" lon="4.54126">
        <ele>144</ele>
        <time>2021-07-04T13:29:42Z</time>
      </trkpt>
      <trkpt lat="44.28413" lon="4.54079">
        <ele>144</ele>
        <time>2021-07-04T13:29:59Z</time>
      </trkpt>
      <trkpt lat="44.28313" lon="4.53986">
        <ele>141</ele>
        <time>2021-07-04T13:30:27Z</time>
      </trkpt>
      <trkpt lat="44.28253" lon="4.53975">
        <ele>138</ele>
        <time>2021-07-04T13:30:42Z</time>
      </trkpt>
      <trkpt lat="44.28183" lon="4.53982">
        <ele>140</ele>
        <time>2021-07-04T13:30:58Z</time>
      </trkpt>
      <trkpt lat="44.28103" lon="4.53993">
        <ele>141</ele>
        <time>2021-07-04T13:31:17Z</time>
      </trkpt>
      <trkpt lat="44.28031" lon="4.53978">
        <ele>144</ele>
        <time>2021-07-04T13:31:34Z</time>
      </trkpt>
      <trkpt lat="44.27853" lon="4.54209">
        <ele>147</ele>
        <time>2021-07-04T13:32:30Z</time>
      </trkpt>
      <trkpt lat="44.27721" lon="4.54437">
        <ele>135</ele>
        <time>2021-07-04T13:33:19Z</time>
      </trkpt>
      <trkpt lat="44.27723" lon="4.54653">
        <ele>129</ele>
        <time>2021-07-04T13:33:56Z</time>
      </trkpt>
      <trkpt lat="44.27649" lon="4.54639">
        <ele>129</ele>
        <time>2021-07-04T13:34:13Z</time>
      </trkpt>
      <trkpt lat="44.27543" lon="4.54664">
        <ele>127</ele>
        <time>2021-07-04T13:34:38Z</time>
      </trkpt>
      <trkpt lat="44.27537" lon="4.5457">
        <ele>134</ele>
        <time>2021-07-04T13:34:54Z</time>
      </trkpt>
      <trkpt lat="44.27517" lon="4.54433">
        <ele>126</ele>
        <time>2021-07-04T13:35:17Z</time>
      </trkpt>
      <trkpt lat="44.27576" lon="4.54354">
        <ele>126</ele>
        <time>2021-07-04T13:35:36Z</time>
      </trkpt>
      <trkpt lat="44.27486" lon="4.54278">
        <ele>124</ele>
        <time>2021-07-04T13:36:01Z</time>
      </trkpt>
      <trkpt lat="44.27556" lon="4.54162">
        <ele>130</ele>
        <time>2021-07-04T13:36:26Z</time>
      </trkpt>
      <trkpt lat="44.2753" lon="4.54097">
        <ele>129</ele>
        <time>2021-07-04T13:36:39Z</time>
      </trkpt>
      <trkpt lat="44.27649" lon="4.53899">
        <ele>141</ele>
        <time>2021-07-04T13:37:22Z</time>
      </trkpt>
      <trkpt lat="44.27589" lon="4.53838">
        <ele>139</ele>
        <time>2021-07-04T13:37:39Z</time>
      </trkpt>
      <trkpt lat="44.2753" lon="4.53863">
        <ele>138</ele>
        <time>2021-07-04T13:37:54Z</time>
      </trkpt>
      <trkpt lat="44.27457" lon="4.53892">
        <ele>137</ele>
        <time>2021-07-04T13:38:11Z</time>
      </trkpt>
      <trkpt lat="44.27318" lon="4.53964">
        <ele>132</ele>
        <time>2021-07-04T13:38:46Z</time>
      </trkpt>
      <trkpt lat="44.27178" lon="4.53888">
        <ele>137</ele>
        <time>2021-07-04T13:39:21Z</time>
      </trkpt>
      <trkpt lat="44.27062" lon="4.53827">
        <ele>144</ele>
        <time>2021-07-04T13:39:50Z</time>
      </trkpt>
      <trkpt lat="44.26951" lon="4.5382">
        <ele>151</ele>
        <time>2021-07-04T13:40:16Z</time>
      </trkpt>
      <trkpt lat="44.26837" lon="4.53755">
        <ele>164</ele>
        <time>2021-07-04T13:40:45Z</time>
      </trkpt>
      <trkpt lat="44.26731" lon="4.53693">
        <ele>168</ele>
        <time>2021-07-04T13:41:12Z</time>
      </trkpt>
      <trkpt lat="44.26607" lon="4.53618">
        <ele>174</ele>
        <time>2021-07-04T13:41:43Z</time>
      </trkpt>
      <trkpt lat="44.2661" lon="4.53462">
        <ele>186</ele>
        <time>2021-07-04T13:42:09Z</time>
      </trkpt>
      <trkpt lat="44.26654" lon="4.53394">
        <ele>190</ele>
        <time>2021-07-04T13:42:25Z</time>
      </trkpt>
      <trkpt lat="44.26824" lon="4.53336">
        <ele>184</ele>
        <time>2021-07-04T13:43:05Z</time>
      </trkpt>
      <trkpt lat="44.26817" lon="4.53264">
        <ele>194</ele>
        <time>2021-07-04T13:43:18Z</time>
      </trkpt>
      <trkpt lat="44.26711" lon="4.53181">
        <ele>216</ele>
        <time>2021-07-04T13:43:46Z</time>
      </trkpt>
      <trkpt lat="44.26667" lon="4.53105">
        <ele>225</ele>
        <time>2021-07-04T13:44:02Z</time>
      </trkpt>
      <trkpt lat="44.26589" lon="4.52954">
        <ele>236</ele>
        <time>2021-07-04T13:44:33Z</time>
      </trkpt>
      <trkpt lat="44.26525" lon="4.52881">
        <ele>235</ele>
        <time>2021-07-04T13:44:53Z</time>
      </trkpt>
      <trkpt lat="44.26452" lon="4.52845">
        <ele>237</ele>
        <time>2021-07-04T13:45:11Z</time>
      </trkpt>
      <trkpt lat="44.2638" lon="4.52831">
        <ele>238</ele>
        <time>2021-07-04T13:45:28Z</time>
      </trkpt>
      <trkpt lat="44.26331" lon="4.52748">
        <ele>242</ele>
        <time>2021-07-04T13:45:46Z</time>
      </trkpt>
      <trkpt lat="44.26289" lon="4.52654">
        <ele>238</ele>
        <time>2021-07-04T13:46:04Z</time>
      </trkpt>
      <trkpt lat="44.26163" lon="4.52596">
        <ele>239</ele>
        <time>2021-07-04T13:46:35Z</time>
      </trkpt>
      <trkpt lat="44.26093" lon="4.52567">
        <ele>248</ele>
        <time>2021-07-04T13:46:52Z</time>
      </trkpt>
      <trkpt lat="44.2603" lon="4.52541">
        <ele>252</ele>
        <time>2021-07-04T13:47:08Z</time>
      </trkpt>
      <trkpt lat="44.25984" lon="4.52559">
        <ele>254</ele>
        <time>2021-07-04T13:47:19Z</time>
      </trkpt>
      <trkpt lat="44.25899" lon="4.52611">
        <ele>257</ele>
        <time>2021-07-04T13:47:41Z</time>
      </trkpt>
      <trkpt lat="44.25623" lon="4.5255">
        <ele>268</ele>
        <time>2021-07-04T13:48:46Z</time>
      </trkpt>
      <trkpt lat="44.25497" lon="4.52611">
        <ele>284</ele>
        <time>2021-07-04T13:49:17Z</time>
      </trkpt>
      <trkpt lat="44.25365" lon="4.5262">
        <ele>294</ele>
        <time>2021-07-04T13:49:48Z</time>
      </trkpt>
      <trkpt lat="44.25256" lon="4.52832">
        <ele>306</ele>
        <time>2021-07-04T13:50:31Z</time>
      </trkpt>
      <trkpt lat="44.25002" lon="4.53075">
        <ele>320</ele>
        <time>2021-07-04T13:51:43Z</time>
      </trkpt>
      <trkpt lat="44.24919" lon="4.53218">
        <ele>326</ele>
        <time>2021-07-04T13:52:14Z</time>
      </trkpt>
      <trkpt lat="44.24947" lon="4.53524">
        <ele>329</ele>
        <time>2021-07-04T13:53:06Z</time>
      </trkpt>
      <trkpt lat="44.24841" lon="4.53973">
        <ele>335</ele>
        <time>2021-07-04T13:54:25Z</time>
      </trkpt>
      <trkpt lat="44.24775" lon="4.54189">
        <ele>338</ele>
        <time>2021-07-04T13:55:04Z</time>
      </trkpt>
      <trkpt lat="44.24712" lon="4.54313">
        <ele>348</ele>
        <time>2021-07-04T13:55:30Z</time>
      </trkpt>
      <trkpt lat="44.24653" lon="4.54325">
        <ele>351</ele>
        <time>2021-07-04T13:55:43Z</time>
      </trkpt>
      <trkpt lat="44.24627" lon="4.54353">
        <ele>347</ele>
        <time>2021-07-04T13:55:51Z</time>
      </trkpt>
      <trkpt lat="44.24499" lon="4.54392">
        <ele>347</ele>
        <time>2021-07-04T13:56:22Z</time>
      </trkpt>
      <trkpt lat="44.2454" lon="4.54445">
        <ele>337</ele>
        <time>2021-07-04T13:56:35Z</time>
      </trkpt>
      <trkpt lat="44.24487" lon="4.54557">
        <ele>330</ele>
        <time>2021-07-04T13:56:57Z</time>
      </trkpt>
      <trkpt lat="44.2448" lon="4.5458">
        <ele>328</ele>
        <time>2021-07-04T13:57:01Z</time>
      </trkpt>
      <trkpt lat="44.24445" lon="4.54708">
        <ele>318</ele>
        <time>2021-07-04T13:57:24Z</time>
      </trkpt>
      <trkpt lat="44.24545" lon="4.54751">
        <ele>297</ele>
        <time>2021-07-04T13:57:49Z</time>
      </trkpt>
      <trkpt lat="44.24571" lon="4.54758">
        <ele>293</ele>
        <time>2021-07-04T13:57:55Z</time>
      </trkpt>
      <trkpt lat="44.24592" lon="4.54785">
        <ele>289</ele>
        <time>2021-07-04T13:58:02Z</time>
      </trkpt>
      <trkpt lat="44.24625" lon="4.5487">
        <ele>283</ele>
        <time>2021-07-04T13:58:18Z</time>
      </trkpt>
      <trkpt lat="44.24637" lon="4.54914">
        <ele>281</ele>
        <time>2021-07-04T13:58:26Z</time>
      </trkpt>
      <trkpt lat="44.24654" lon="4.54955">
        <ele>281</ele>
        <time>2021-07-04T13:58:34Z</time>
      </trkpt>
      <trkpt lat="44.2467" lon="4.54978">
        <ele>281</ele>
        <time>2021-07-04T13:58:39Z</time>
      </trkpt>
      <trkpt lat="44.24645" lon="4.55057">
        <ele>277</ele>
        <time>2021-07-04T13:58:53Z</time>
      </trkpt>
      <trkpt lat="44.24571" lon="4.55061">
        <ele>260</ele>
        <time>2021-07-04T13:59:11Z</time>
      </trkpt>
      <trkpt lat="44.24575" lon="4.55014">
        <ele>266</ele>
        <time>2021-07-04T13:59:19Z</time>
      </trkpt>
      <trkpt lat="44.24568" lon="4.54974">
        <ele>271</ele>
        <time>2021-07-04T13:59:26Z</time>
      </trkpt>
      <trkpt lat="44.24556" lon="4.54955">
        <ele>271</ele>
        <time>2021-07-04T13:59:30Z</time>
      </trkpt>
      <trkpt lat="44.24516" lon="4.54953">
        <ele>264</ele>
        <time>2021-07-04T13:59:39Z</time>
      </trkpt>
      <trkpt lat="44.24462" lon="4.54891">
        <ele>279</ele>
        <time>2021-07-04T13:59:55Z</time>
      </trkpt>
      <trkpt lat="44.24438" lon="4.54894">
        <ele>280</ele>
        <time>2021-07-04T14:00:01Z</time>
      </trkpt>
      <trkpt lat="44.24423" lon="4.54931">
        <ele>271</ele>
        <time>2021-07-04T14:00:08Z</time>
      </trkpt>
      <trkpt lat="44.24424" lon="4.54961">
        <ele>265</ele>
        <time>2021-07-04T14:00:13Z</time>
      </trkpt>
      <trkpt lat="44.24397" lon="4.55011">
        <ele>258</ele>
        <time>2021-07-04T14:00:24Z</time>
      </trkpt>
      <trkpt lat="44.24299" lon="4.55049">
        <ele>260</ele>
        <time>2021-07-04T14:00:47Z</time>
      </trkpt>
      <trkpt lat="44.24286" lon="4.55108">
        <ele>250</ele>
        <time>2021-07-04T14:00:58Z</time>
      </trkpt>
      <trkpt lat="44.24261" lon="4.55102">
        <ele>251</ele>
        <time>2021-07-04T14:01:04Z</time>
      </trkpt>
      <trkpt lat="44.24229" lon="4.55061">
        <ele>258</ele>
        <time>2021-07-04T14:01:14Z</time>
      </trkpt>
      <trkpt lat="44.24211" lon="4.55133">
        <ele>246</ele>
        <time>2021-07-04T14:01:27Z</time>
      </trkpt>
      <trkpt lat="44.24184" lon="4.55164">
        <ele>239</ele>
        <time>2021-07-04T14:01:35Z</time>
      </trkpt>
      <trkpt lat="44.2416" lon="4.55148">
        <ele>240</ele>
        <time>2021-07-04T14:01:41Z</time>
      </trkpt>
      <trkpt lat="44.24129" lon="4.55085">
        <ele>251</ele>
        <time>2021-07-04T14:01:54Z</time>
      </trkpt>
      <trkpt lat="44.24074" lon="4.55055">
        <ele>255</ele>
        <time>2021-07-04T14:02:08Z</time>
      </trkpt>
      <trkpt lat="44.24006" lon="4.55066">
        <ele>247</ele>
        <time>2021-07-04T14:02:24Z</time>
      </trkpt>
      <trkpt lat="44.23945" lon="4.55063">
        <ele>241</ele>
        <time>2021-07-04T14:02:38Z</time>
      </trkpt>
      <trkpt lat="44.23938" lon="4.55049">
        <ele>242</ele>
        <time>2021-07-04T14:02:41Z</time>
      </trkpt>
      <trkpt lat="44.2392" lon="4.54993">
        <ele>248</ele>
        <time>2021-07-04T14:02:51Z</time>
      </trkpt>
      <trkpt lat="44.23899" lon="4.54992">
        <ele>247</ele>
        <time>2021-07-04T14:02:56Z</time>
      </trkpt>
      <trkpt lat="44.2388" lon="4.55026">
        <ele>244</ele>
        <time>2021-07-04T14:03:03Z</time>
      </trkpt>
      <trkpt lat="44.23854" lon="4.55034">
        <ele>244</ele>
        <time>2021-07-04T14:03:09Z</time>
      </trkpt>
      <trkpt lat="44.23844" lon="4.55116">
        <ele>237</ele>
        <time>2021-07-04T14:03:23Z</time>
      </trkpt>
      <trkpt lat="44.2386" lon="4.55208">
        <ele>228</ele>
        <time>2021-07-04T14:03:39Z</time>
      </trkpt>
      <trkpt lat="44.23881" lon="4.5532">
        <ele>214</ele>
        <time>2021-07-04T14:03:58Z</time>
      </trkpt>
      <trkpt lat="44.23923" lon="4.55393">
        <ele>204</ele>
        <time>2021-07-04T14:04:14Z</time>
      </trkpt>
      <trkpt lat="44.23939" lon="4.55449">
        <ele>204</ele>
        <time>2021-07-04T14:04:24Z</time>
      </trkpt>
      <trkpt lat="44.23906" lon="4.55646">
        <ele>200</ele>
        <time>2021-07-04T14:04:58Z</time>
      </trkpt>
      <trkpt lat="44.23913" lon="4.55727">
        <ele>197</ele>
        <time>2021-07-04T14:05:12Z</time>
      </trkpt>
      <trkpt lat="44.24098" lon="4.55687">
        <ele>183</ele>
        <time>2021-07-04T14:05:55Z</time>
      </trkpt>
      <trkpt lat="44.24164" lon="4.55722">
        <ele>183</ele>
        <time>2021-07-04T14:06:12Z</time>
      </trkpt>
      <trkpt lat="44.24213" lon="4.55774">
        <ele>181</ele>
        <time>2021-07-04T14:06:26Z</time>
      </trkpt>
      <trkpt lat="44.24236" lon="4.55848">
        <ele>179</ele>
        <time>2021-07-04T14:06:40Z</time>
      </trkpt>
      <trkpt lat="44.24338" lon="4.55884">
        <ele>178</ele>
        <time>2021-07-04T14:07:04Z</time>
      </trkpt>
      <trkpt lat="44.24378" lon="4.55926">
        <ele>175</ele>
        <time>2021-07-04T14:07:16Z</time>
      </trkpt>
      <trkpt lat="44.24415" lon="4.55924">
        <ele>177</ele>
        <time>2021-07-04T14:07:25Z</time>
      </trkpt>
      <trkpt lat="44.24435" lon="4.55961">
        <ele>175</ele>
        <time>2021-07-04T14:07:32Z</time>
      </trkpt>
      <trkpt lat="44.24512" lon="4.55992">
        <ele>172</ele>
        <time>2021-07-04T14:07:51Z</time>
      </trkpt>
      <trkpt lat="44.24535" lon="4.56056">
        <ele>170</ele>
        <time>2021-07-04T14:08:03Z</time>
      </trkpt>
      <trkpt lat="44.24481" lon="4.56079">
        <ele>175</ele>
        <time>2021-07-04T14:08:16Z</time>
      </trkpt>
      <trkpt lat="44.24494" lon="4.56189">
        <ele>189</ele>
        <time>2021-07-04T14:08:35Z</time>
      </trkpt>
      <trkpt lat="44.24493" lon="4.56243">
        <ele>198</ele>
        <time>2021-07-04T14:08:44Z</time>
      </trkpt>
      <trkpt lat="44.24545" lon="4.56242">
        <ele>192</ele>
        <time>2021-07-04T14:08:56Z</time>
      </trkpt>
      <trkpt lat="44.24584" lon="4.56279">
        <ele>192</ele>
        <time>2021-07-04T14:09:07Z</time>
      </trkpt>
      <trkpt lat="44.24584" lon="4.56376">
        <ele>205</ele>
        <time>2021-07-04T14:09:23Z</time>
      </trkpt>
      <trkpt lat="44.24656" lon="4.56371">
        <ele>197</ele>
        <time>2021-07-04T14:09:40Z</time>
      </trkpt>
      <trkpt lat="44.24714" lon="4.56412">
        <ele>197</ele>
        <time>2021-07-04T14:09:55Z</time>
      </trkpt>
      <trkpt lat="44.24737" lon="4.56466">
        <ele>201</ele>
        <time>2021-07-04T14:10:06Z</time>
      </trkpt>
      <trkpt lat="44.24797" lon="4.56543">
        <ele>202</ele>
        <time>2021-07-04T14:10:25Z</time>
      </trkpt>
      <trkpt lat="44.24928" lon="4.56692">
        <ele>204</ele>
        <time>2021-07-04T14:11:04Z</time>
      </trkpt>
      <trkpt lat="44.24986" lon="4.56853">
        <ele>204</ele>
        <time>2021-07-04T14:11:34Z</time>
      </trkpt>
      <trkpt lat="44.25085" lon="4.57092">
        <ele>193</ele>
        <time>2021-07-04T14:12:21Z</time>
      </trkpt>
      <trkpt lat="44.25121" lon="4.57126">
        <ele>187</ele>
        <time>2021-07-04T14:12:31Z</time>
      </trkpt>
      <trkpt lat="44.25139" lon="4.57183">
        <ele>187</ele>
        <time>2021-07-04T14:12:41Z</time>
      </trkpt>
      <trkpt lat="44.2533" lon="4.57296">
        <ele>169</ele>
        <time>2021-07-04T14:13:30Z</time>
      </trkpt>
      <trkpt lat="44.2535" lon="4.57281">
        <ele>165</ele>
        <time>2021-07-04T14:13:35Z</time>
      </trkpt>
      <trkpt lat="44.25311" lon="4.57239">
        <ele>167</ele>
        <time>2021-07-04T14:13:46Z</time>
      </trkpt>
      <trkpt lat="44.25267" lon="4.57154">
        <ele>165</ele>
        <time>2021-07-04T14:14:04Z</time>
      </trkpt>
      <trkpt lat="44.25192" lon="4.57063">
        <ele>165</ele>
        <time>2021-07-04T14:14:27Z</time>
      </trkpt>
      <trkpt lat="44.25182" lon="4.57023">
        <ele>163</ele>
        <time>2021-07-04T14:14:34Z</time>
      </trkpt>
      <trkpt lat="44.25159" lon="4.5701">
        <ele>166</ele>
        <time>2021-07-04T14:14:40Z</time>
      </trkpt>
      <trkpt lat="44.25161" lon="4.56952">
        <ele>161</ele>
        <time>2021-07-04T14:14:50Z</time>
      </trkpt>
      <trkpt lat="44.25138" lon="4.56905">
        <ele>163</ele>
        <time>2021-07-04T14:14:59Z</time>
      </trkpt>
      <trkpt lat="44.25122" lon="4.56856">
        <ele>163</ele>
        <time>2021-07-04T14:15:08Z</time>
      </trkpt>
      <trkpt lat="44.25121" lon="4.56793">
        <ele>159</ele>
        <time>2021-07-04T14:15:19Z</time>
      </trkpt>
      <trkpt lat="44.25094" lon="4.56686">
        <ele>158</ele>
        <time>2021-07-04T14:15:38Z</time>
      </trkpt>
      <trkpt lat="44.25112" lon="4.5666">
        <ele>159</ele>
        <time>2021-07-04T14:15:44Z</time>
      </trkpt>
      <trkpt lat="44.25158" lon="4.56715">
        <ele>157</ele>
        <time>2021-07-04T14:15:58Z</time>
      </trkpt>
      <trkpt lat="44.25179" lon="4.56735">
        <ele>156</ele>
        <time>2021-07-04T14:16:04Z</time>
      </trkpt>
      <trkpt lat="44.25209" lon="4.56746">
        <ele>161</ele>
        <time>2021-07-04T14:16:11Z</time>
      </trkpt>
      <trkpt lat="44.25203" lon="4.56779">
        <ele>157</ele>
        <time>2021-07-04T14:16:17Z</time>
      </trkpt>
      <trkpt lat="44.25237" lon="4.5684">
        <ele>157</ele>
        <time>2021-07-04T14:16:30Z</time>
      </trkpt>
      <trkpt lat="44.25329" lon="4.56943">
        <ele>154</ele>
        <time>2021-07-04T14:16:57Z</time>
      </trkpt>
      <trkpt lat="44.25363" lon="4.56941">
        <ele>156</ele>
        <time>2021-07-04T14:17:05Z</time>
      </trkpt>
      <trkpt lat="44.2533" lon="4.56911">
        <ele>160</ele>
        <time>2021-07-04T14:17:15Z</time>
      </trkpt>
      <trkpt lat="44.25248" lon="4.56768">
        <ele>167</ele>
        <time>2021-07-04T14:17:45Z</time>
      </trkpt>
      <trkpt lat="44.25276" lon="4.56701">
        <ele>181</ele>
        <time>2021-07-04T14:17:58Z</time>
      </trkpt>
      <trkpt lat="44.25222" lon="4.56672">
        <ele>174</ele>
        <time>2021-07-04T14:18:12Z</time>
      </trkpt>
      <trkpt lat="44.25171" lon="4.5662">
        <ele>173</ele>
        <time>2021-07-04T14:18:26Z</time>
      </trkpt>
      <trkpt lat="44.25151" lon="4.56495">
        <ele>187</ele>
        <time>2021-07-04T14:18:48Z</time>
      </trkpt>
      <trkpt lat="44.25112" lon="4.56406">
        <ele>192</ele>
        <time>2021-07-04T14:19:05Z</time>
      </trkpt>
      <trkpt lat="44.25021" lon="4.56283">
        <ele>199</ele>
        <time>2021-07-04T14:19:35Z</time>
      </trkpt>
      <trkpt lat="44.25061" lon="4.5631">
        <ele>201</ele>
        <time>2021-07-04T14:19:45Z</time>
      </trkpt>
      <trkpt lat="44.25112" lon="4.56333">
        <ele>204</ele>
        <time>2021-07-04T14:19:58Z</time>
      </trkpt>
      <trkpt lat="44.25171" lon="4.56304">
        <ele>220</ele>
        <time>2021-07-04T14:20:12Z</time>
      </trkpt>
      <trkpt lat="44.25202" lon="4.56331">
        <ele>221</ele>
        <time>2021-07-04T14:20:21Z</time>
      </trkpt>
      <trkpt lat="44.25273" lon="4.56427">
        <ele>220</ele>
        <time>2021-07-04T14:20:44Z</time>
      </trkpt>
      <trkpt lat="44.25292" lon="4.56422">
        <ele>222</ele>
        <time>2021-07-04T14:20:49Z</time>
      </trkpt>
      <trkpt lat="44.25282" lon="4.56384">
        <ele>226</ele>
        <time>2021-07-04T14:20:55Z</time>
      </trkpt>
      <trkpt lat="44.25217" lon="4.56241">
        <ele>239</ele>
        <time>2021-07-04T14:21:24Z</time>
      </trkpt>
      <trkpt lat="44.25131" lon="4.56126">
        <ele>244</ele>
        <time>2021-07-04T14:21:51Z</time>
      </trkpt>
      <trkpt lat="44.25097" lon="4.56013">
        <ele>252</ele>
        <time>2021-07-04T14:22:12Z</time>
      </trkpt>
      <trkpt lat="44.25035" lon="4.55898">
        <ele>259</ele>
        <time>2021-07-04T14:22:36Z</time>
      </trkpt>
      <trkpt lat="44.2492" lon="4.558">
        <ele>263</ele>
        <time>2021-07-04T14:23:07Z</time>
      </trkpt>
      <trkpt lat="44.24871" lon="4.55729">
        <ele>264</ele>
        <time>2021-07-04T14:23:24Z</time>
      </trkpt>
      <trkpt lat="44.24839" lon="4.55653">
        <ele>270</ele>
        <time>2021-07-04T14:23:39Z</time>
      </trkpt>
      <trkpt lat="44.248" lon="4.55539">
        <ele>271</ele>
        <time>2021-07-04T14:24:00Z</time>
      </trkpt>
      <trkpt lat="44.24799" lon="4.55453">
        <ele>275</ele>
        <time>2021-07-04T14:24:14Z</time>
      </trkpt>
      <trkpt lat="44.2476" lon="4.55395">
        <ele>280</ele>
        <time>2021-07-04T14:24:28Z</time>
      </trkpt>
      <trkpt lat="44.24709" lon="4.55362">
        <ele>276</ele>
        <time>2021-07-04T14:24:41Z</time>
      </trkpt>
      <trkpt lat="44.24668" lon="4.55307">
        <ele>275</ele>
        <time>2021-07-04T14:24:54Z</time>
      </trkpt>
      <trkpt lat="44.24654" lon="4.55257">
        <ele>275</ele>
        <time>2021-07-04T14:25:03Z</time>
      </trkpt>
      <trkpt lat="44.2465" lon="4.55174">
        <ele>275</ele>
        <time>2021-07-04T14:25:17Z</time>
      </trkpt>
      <trkpt lat="44.24654" lon="4.55122">
        <ele>277</ele>
        <time>2021-07-04T14:25:26Z</time>
      </trkpt>
      <trkpt lat="44.24657" lon="4.55078">
        <ele>279</ele>
        <time>2021-07-04T14:25:33Z</time>
      </trkpt>
      <trkpt lat="44.24674" lon="4.55034">
        <ele>281</ele>
        <time>2021-07-04T14:25:41Z</time>
      </trkpt>
      <trkpt lat="44.24709" lon="4.55037">
        <ele>281</ele>
        <time>2021-07-04T14:25:50Z</time>
      </trkpt>
      <trkpt lat="44.24757" lon="4.55067">
        <ele>280</ele>
        <time>2021-07-04T14:26:02Z</time>
      </trkpt>
      <trkpt lat="44.24773" lon="4.55107">
        <ele>282</ele>
        <time>2021-07-04T14:26:09Z</time>
      </trkpt>
      <trkpt lat="44.24824" lon="4.55169">
        <ele>283</ele>
        <time>2021-07-04T14:26:25Z</time>
      </trkpt>
      <trkpt lat="44.24846" lon="4.55208">
        <ele>284</ele>
        <time>2021-07-04T14:26:34Z</time>
      </trkpt>
      <trkpt lat="44.24909" lon="4.55246">
        <ele>283</ele>
        <time>2021-07-04T14:26:50Z</time>
      </trkpt>
      <trkpt lat="44.24949" lon="4.5526">
        <ele>280</ele>
        <time>2021-07-04T14:26:59Z</time>
      </trkpt>
      <trkpt lat="44.24987" lon="4.55272">
        <ele>277</ele>
        <time>2021-07-04T14:27:08Z</time>
      </trkpt>
      <trkpt lat="44.25033" lon="4.55262">
        <ele>273</ele>
        <time>2021-07-04T14:27:19Z</time>
      </trkpt>
      <trkpt lat="44.25078" lon="4.5528">
        <ele>269</ele>
        <time>2021-07-04T14:27:30Z</time>
      </trkpt>
      <trkpt lat="44.25132" lon="4.55286">
        <ele>265</ele>
        <time>2021-07-04T14:27:43Z</time>
      </trkpt>
      <trkpt lat="44.25258" lon="4.55299">
        <ele>264</ele>
        <time>2021-07-04T14:28:12Z</time>
      </trkpt>
      <trkpt lat="44.25323" lon="4.55325">
        <ele>261</ele>
        <time>2021-07-04T14:28:28Z</time>
      </trkpt>
      <trkpt lat="44.2538" lon="4.5534">
        <ele>261</ele>
        <time>2021-07-04T14:28:42Z</time>
      </trkpt>
      <trkpt lat="44.25453" lon="4.55374">
        <ele>257</ele>
        <time>2021-07-04T14:29:00Z</time>
      </trkpt>
      <trkpt lat="44.2553" lon="4.55425">
        <ele>252</ele>
        <time>2021-07-04T14:29:19Z</time>
      </trkpt>
      <trkpt lat="44.2561" lon="4.55471">
        <ele>245</ele>
        <time>2021-07-04T14:29:40Z</time>
      </trkpt>
      <trkpt lat="44.25661" lon="4.55544">
        <ele>238</ele>
        <time>2021-07-04T14:29:57Z</time>
      </trkpt>
      <trkpt lat="44.25704" lon="4.55529">
        <ele>233</ele>
        <time>2021-07-04T14:30:07Z</time>
      </trkpt>
      <trkpt lat="44.25749" lon="4.55585">
        <ele>229</ele>
        <time>2021-07-04T14:30:21Z</time>
      </trkpt>
      <trkpt lat="44.25766" lon="4.55664">
        <ele>225</ele>
        <time>2021-07-04T14:30:35Z</time>
      </trkpt>
      <trkpt lat="44.2586" lon="4.55698">
        <ele>221</ele>
        <time>2021-07-04T14:30:58Z</time>
      </trkpt>
      <trkpt lat="44.25896" lon="4.55739">
        <ele>222</ele>
        <time>2021-07-04T14:31:09Z</time>
      </trkpt>
      <trkpt lat="44.25931" lon="4.5575">
        <ele>221</ele>
        <time>2021-07-04T14:31:17Z</time>
      </trkpt>
      <trkpt lat="44.25957" lon="4.55756">
        <ele>217</ele>
        <time>2021-07-04T14:31:23Z</time>
      </trkpt>
      <trkpt lat="44.26002" lon="4.55767">
        <ele>211</ele>
        <time>2021-07-04T14:31:34Z</time>
      </trkpt>
      <trkpt lat="44.26087" lon="4.55762">
        <ele>214</ele>
        <time>2021-07-04T14:31:54Z</time>
      </trkpt>
      <trkpt lat="44.26147" lon="4.55794">
        <ele>215</ele>
        <time>2021-07-04T14:32:09Z</time>
      </trkpt>
      <trkpt lat="44.26235" lon="4.55909">
        <ele>209</ele>
        <time>2021-07-04T14:32:37Z</time>
      </trkpt>
      <trkpt lat="44.26271" lon="4.55911">
        <ele>207</ele>
        <time>2021-07-04T14:32:45Z</time>
      </trkpt>
      <trkpt lat="44.26353" lon="4.56043">
        <ele>199</ele>
        <time>2021-07-04T14:33:14Z</time>
      </trkpt>
      <trkpt lat="44.26401" lon="4.56057">
        <ele>198</ele>
        <time>2021-07-04T14:33:26Z</time>
      </trkpt>
      <trkpt lat="44.26437" lon="4.56088">
        <ele>199</ele>
        <time>2021-07-04T14:33:36Z</time>
      </trkpt>
      <trkpt lat="44.26478" lon="4.56104">
        <ele>196</ele>
        <time>2021-07-04T14:33:46Z</time>
      </trkpt>
      <trkpt lat="44.26602" lon="4.56113">
        <ele>194</ele>
        <time>2021-07-04T14:34:15Z</time>
      </trkpt>
      <trkpt lat="44.26626" lon="4.56095">
        <ele>193</ele>
        <time>2021-07-04T14:34:21Z</time>
      </trkpt>
      <trkpt lat="44.26658" lon="4.56105">
        <ele>192</ele>
        <time>2021-07-04T14:34:29Z</time>
      </trkpt>
      <trkpt lat="44.26684" lon="4.56098">
        <ele>191</ele>
        <time>2021-07-04T14:34:35Z</time>
      </trkpt>
      <trkpt lat="44.26801" lon="4.56122">
        <ele>182</ele>
        <time>2021-07-04T14:35:02Z</time>
      </trkpt>
      <trkpt lat="44.26846" lon="4.56132">
        <ele>180</ele>
        <time>2021-07-04T14:35:13Z</time>
      </trkpt>
      <trkpt lat="44.26895" lon="4.56172">
        <ele>182</ele>
        <time>2021-07-04T14:35:26Z</time>
      </trkpt>
      <trkpt lat="44.26926" lon="4.56169">
        <ele>182</ele>
        <time>2021-07-04T14:35:34Z</time>
      </trkpt>
      <trkpt lat="44.26947" lon="4.56204">
        <ele>181</ele>
        <time>2021-07-04T14:35:41Z</time>
      </trkpt>
      <trkpt lat="44.26977" lon="4.56225">
        <ele>182</ele>
        <time>2021-07-04T14:35:49Z</time>
      </trkpt>
      <trkpt lat="44.27049" lon="4.56367">
        <ele>180</ele>
        <time>2021-07-04T14:36:18Z</time>
      </trkpt>
      <trkpt lat="44.27165" lon="4.56522">
        <ele>171</ele>
        <time>2021-07-04T14:36:56Z</time>
      </trkpt>
      <trkpt lat="44.27215" lon="4.56548">
        <ele>167</ele>
        <time>2021-07-04T14:37:08Z</time>
      </trkpt>
      <trkpt lat="44.27287" lon="4.56621">
        <ele>159</ele>
        <time>2021-07-04T14:37:29Z</time>
      </trkpt>
      <trkpt lat="44.27337" lon="4.56683">
        <ele>153</ele>
        <time>2021-07-04T14:37:45Z</time>
      </trkpt>
      <trkpt lat="44.2736" lon="4.56647">
        <ele>149</ele>
        <time>2021-07-04T14:37:53Z</time>
      </trkpt>
      <trkpt lat="44.27392" lon="4.56689">
        <ele>144</ele>
        <time>2021-07-04T14:38:03Z</time>
      </trkpt>
      <trkpt lat="44.27465" lon="4.56727">
        <ele>134</ele>
        <time>2021-07-04T14:38:21Z</time>
      </trkpt>
      <trkpt lat="44.2747" lon="4.56694">
        <ele>129</ele>
        <time>2021-07-04T14:38:27Z</time>
      </trkpt>
      <trkpt lat="44.27504" lon="4.56703">
        <ele>123</ele>
        <time>2021-07-04T14:38:35Z</time>
      </trkpt>
      <trkpt lat="44.27551" lon="4.56733">
        <ele>117</ele>
        <time>2021-07-04T14:38:47Z</time>
      </trkpt>
      <trkpt lat="44.27585" lon="4.5675">
        <ele>112</ele>
        <time>2021-07-04T14:38:55Z</time>
      </trkpt>
      <trkpt lat="44.27661" lon="4.568">
        <ele>105</ele>
        <time>2021-07-04T14:39:15Z</time>
      </trkpt>
      <trkpt lat="44.27747" lon="4.56911">
        <ele>98</ele>
        <time>2021-07-04T14:39:42Z</time>
      </trkpt>
      <trkpt lat="44.27779" lon="4.56944">
        <ele>93</ele>
        <time>2021-07-04T14:39:52Z</time>
      </trkpt>
      <trkpt lat="44.27844" lon="4.56981">
        <ele>86</ele>
        <time>2021-07-04T14:40:08Z</time>
      </trkpt>
      <trkpt lat="44.27962" lon="4.56971">
        <ele>73</ele>
        <time>2021-07-04T14:40:36Z</time>
      </trkpt>
      <trkpt lat="44.27925" lon="4.56855">
        <ele>72</ele>
        <time>2021-07-04T14:40:57Z</time>
      </trkpt>
      <trkpt lat="44.2794" lon="4.56821">
        <ele>71</ele>
        <time>2021-07-04T14:41:03Z</time>
      </trkpt>
      <trkpt lat="44.27898" lon="4.56764">
        <ele>72</ele>
        <time>2021-07-04T14:41:17Z</time>
      </trkpt>
      <trkpt lat="44.27876" lon="4.56718">
        <ele>75</ele>
        <time>2021-07-04T14:41:26Z</time>
      </trkpt>
      <trkpt lat="44.27884" lon="4.56682">
        <ele>75</ele>
        <time>2021-07-04T14:41:33Z</time>
      </trkpt>
      <trkpt lat="44.27917" lon="4.56647">
        <ele>77</ele>
        <time>2021-07-04T14:41:42Z</time>
      </trkpt>
      <trkpt lat="44.27931" lon="4.56612">
        <ele>80</ele>
        <time>2021-07-04T14:41:49Z</time>
      </trkpt>
      <trkpt lat="44.27952" lon="4.56607">
        <ele>82</ele>
        <time>2021-07-04T14:41:54Z</time>
      </trkpt>
      <trkpt lat="44.27978" lon="4.56615">
        <ele>84</ele>
        <time>2021-07-04T14:42:00Z</time>
      </trkpt>
      <trkpt lat="44.28035" lon="4.56607">
        <ele>87</ele>
        <time>2021-07-04T14:42:14Z</time>
      </trkpt>
      <trkpt lat="44.2805" lon="4.56541">
        <ele>90</ele>
        <time>2021-07-04T14:42:25Z</time>
      </trkpt>
      <trkpt lat="44.28066" lon="4.56519">
        <ele>91</ele>
        <time>2021-07-04T14:42:30Z</time>
      </trkpt>
      <trkpt lat="44.28187" lon="4.56683">
        <ele>87</ele>
        <time>2021-07-04T14:43:10Z</time>
      </trkpt>
      <trkpt lat="44.28289" lon="4.56714">
        <ele>88</ele>
        <time>2021-07-04T14:43:34Z</time>
      </trkpt>
      <trkpt lat="44.28439" lon="4.56717">
        <ele>96</ele>
        <time>2021-07-04T14:44:09Z</time>
      </trkpt>
      <trkpt lat="44.28554" lon="4.56701">
        <ele>102</ele>
        <time>2021-07-04T14:44:36Z</time>
      </trkpt>
      <trkpt lat="44.28698" lon="4.56541">
        <ele>112</ele>
        <time>2021-07-04T14:45:19Z</time>
      </trkpt>
      <trkpt lat="44.28835" lon="4.5655">
        <ele>106</ele>
        <time>2021-07-04T14:45:51Z</time>
      </trkpt>
      <trkpt lat="44.2903" lon="4.56595">
        <ele>97</ele>
        <time>2021-07-04T14:46:37Z</time>
      </trkpt>
      <trkpt lat="44.29122" lon="4.56653">
        <ele>93</ele>
        <time>2021-07-04T14:47:01Z</time>
      </trkpt>
      <trkpt lat="44.29172" lon="4.56658">
        <ele>91</ele>
        <time>2021-07-04T14:47:13Z</time>
      </trkpt>
      <trkpt lat="44.29196" lon="4.56639">
        <ele>89</ele>
        <time>2021-07-04T14:47:19Z</time>
      </trkpt>
      <trkpt lat="44.29231" lon="4.56642">
        <ele>85</ele>
        <time>2021-07-04T14:47:27Z</time>
      </trkpt>
      <trkpt lat="44.29261" lon="4.56638">
        <ele>81</ele>
        <time>2021-07-04T14:47:34Z</time>
      </trkpt>
      <trkpt lat="44.29302" lon="4.56631">
        <ele>76</ele>
        <time>2021-07-04T14:47:44Z</time>
      </trkpt>
      <trkpt lat="44.29351" lon="4.56607">
        <ele>72</ele>
        <time>2021-07-04T14:47:56Z</time>
      </trkpt>
      <trkpt lat="44.29389" lon="4.56629">
        <ele>70</ele>
        <time>2021-07-04T14:48:06Z</time>
      </trkpt>
      <trkpt lat="44.29478" lon="4.56668">
        <ele>63</ele>
        <time>2021-07-04T14:48:27Z</time>
      </trkpt>
      <trkpt lat="44.29819" lon="4.56619">
        <ele>54</ele>
        <time>2021-07-04T14:49:48Z</time>
      </trkpt>
      <trkpt lat="44.2991" lon="4.56644">
        <ele>57</ele>
        <time>2021-07-04T14:50:09Z</time>
      </trkpt>
      <trkpt lat="44.29986" lon="4.56459">
        <ele>61</ele>
        <time>2021-07-04T14:50:45Z</time>
      </trkpt>
      <trkpt lat="44.30039" lon="4.56164">
        <ele>76</ele>
        <time>2021-07-04T14:51:36Z</time>
      </trkpt>
      <trkpt lat="44.30146" lon="4.55873">
        <ele>89</ele>
        <time>2021-07-04T14:52:30Z</time>
      </trkpt>
      <trkpt lat="44.30251" lon="4.55692">
        <ele>87</ele>
        <time>2021-07-04T14:53:09Z</time>
      </trkpt>
    </trkseg>
  </trk>
  <trk>
    <name><![CDATA[Vert Orgnac]]></name>
    <extensions>
      <line xmlns="http://www.topografix.com/GPX/gpx_style/0/2">
        <color>00fa00</color>
        <width>4</width>
      </line>
    </extensions>
    <trkseg>
      <trkpt lat="44.31835" lon="4.41195">
        <ele>303</ele>
        <time>2021-07-04T13:20:45Z</time>
      </trkpt>
      <trkpt lat="44.31835" lon="4.41195">
        <ele>303</ele>
        <time>2021-07-04T13:20:45Z</time>
      </trkpt>
      <trkpt lat="44.3184" lon="4.41262">
        <ele>303</ele>
        <time>2021-07-04T13:20:56Z</time>
      </trkpt>
      <trkpt lat="44.31834" lon="4.41362">
        <ele>305</ele>
        <time>2021-07-04T13:21:13Z</time>
      </trkpt>
      <trkpt lat="44.31768" lon="4.41615">
        <ele>299</ele>
        <time>2021-07-04T13:21:58Z</time>
      </trkpt>
      <trkpt lat="44.31734" lon="4.41714">
        <ele>294</ele>
        <time>2021-07-04T13:22:16Z</time>
      </trkpt>
      <trkpt lat="44.31603" lon="4.41855">
        <ele>300</ele>
        <time>2021-07-04T13:22:55Z</time>
      </trkpt>
      <trkpt lat="44.31549" lon="4.41946">
        <ele>301</ele>
        <time>2021-07-04T13:23:15Z</time>
      </trkpt>
      <trkpt lat="44.31438" lon="4.42038">
        <ele>292</ele>
        <time>2021-07-04T13:23:45Z</time>
      </trkpt>
      <trkpt lat="44.31344" lon="4.42114">
        <ele>288</ele>
        <time>2021-07-04T13:24:10Z</time>
      </trkpt>
      <trkpt lat="44.31317" lon="4.42184">
        <ele>289</ele>
        <time>2021-07-04T13:24:24Z</time>
      </trkpt>
      <trkpt lat="44.31238" lon="4.42249">
        <ele>293</ele>
        <time>2021-07-04T13:24:45Z</time>
      </trkpt>
      <trkpt lat="44.31282" lon="4.42263">
        <ele>296</ele>
        <time>2021-07-04T13:24:55Z</time>
      </trkpt>
      <trkpt lat="44.3134" lon="4.42316">
        <ele>298</ele>
        <time>2021-07-04T13:25:12Z</time>
      </trkpt>
      <trkpt lat="44.31388" lon="4.42457">
        <ele>302</ele>
        <time>2021-07-04T13:25:38Z</time>
      </trkpt>
      <trkpt lat="44.31447" lon="4.42525">
        <ele>306</ele>
        <time>2021-07-04T13:25:56Z</time>
      </trkpt>
      <trkpt lat="44.31483" lon="4.42531">
        <ele>307</ele>
        <time>2021-07-04T13:26:04Z</time>
      </trkpt>
      <trkpt lat="44.314" lon="4.42733">
        <ele>308</ele>
        <time>2021-07-04T13:26:43Z</time>
      </trkpt>
      <trkpt lat="44.31393" lon="4.42829">
        <ele>309</ele>
        <time>2021-07-04T13:26:59Z</time>
      </trkpt>
      <trkpt lat="44.31337" lon="4.43108">
        <ele>310</ele>
        <time>2021-07-04T13:27:48Z</time>
      </trkpt>
      <trkpt lat="44.31271" lon="4.43146">
        <ele>308</ele>
        <time>2021-07-04T13:28:04Z</time>
      </trkpt>
      <trkpt lat="44.31267" lon="4.43176">
        <ele>307</ele>
        <time>2021-07-04T13:28:09Z</time>
      </trkpt>
      <trkpt lat="44.31102" lon="4.43188">
        <ele>308</ele>
        <time>2021-07-04T13:28:48Z</time>
      </trkpt>
      <trkpt lat="44.31109" lon="4.43126">
        <ele>305</ele>
        <time>2021-07-04T13:28:58Z</time>
      </trkpt>
      <trkpt lat="44.3061" lon="4.43277">
        <ele>292</ele>
        <time>2021-07-04T13:30:58Z</time>
      </trkpt>
      <trkpt lat="44.30624" lon="4.43192">
        <ele>287</ele>
        <time>2021-07-04T13:31:12Z</time>
      </trkpt>
      <trkpt lat="44.30635" lon="4.43154">
        <ele>284</ele>
        <time>2021-07-04T13:31:19Z</time>
      </trkpt>
      <trkpt lat="44.30653" lon="4.43136">
        <ele>284</ele>
        <time>2021-07-04T13:31:24Z</time>
      </trkpt>
      <trkpt lat="44.30704" lon="4.43118">
        <ele>284</ele>
        <time>2021-07-04T13:31:36Z</time>
      </trkpt>
      <trkpt lat="44.30723" lon="4.43105">
        <ele>284</ele>
        <time>2021-07-04T13:31:41Z</time>
      </trkpt>
      <trkpt lat="44.30753" lon="4.43058">
        <ele>282</ele>
        <time>2021-07-04T13:31:52Z</time>
      </trkpt>
      <trkpt lat="44.30761" lon="4.43044">
        <ele>282</ele>
        <time>2021-07-04T13:31:55Z</time>
      </trkpt>
      <trkpt lat="44.30823" lon="4.42976">
        <ele>284</ele>
        <time>2021-07-04T13:32:13Z</time>
      </trkpt>
      <trkpt lat="44.30812" lon="4.42944">
        <ele>284</ele>
        <time>2021-07-04T13:32:19Z</time>
      </trkpt>
      <trkpt lat="44.30802" lon="4.42929">
        <ele>284</ele>
        <time>2021-07-04T13:32:23Z</time>
      </trkpt>
      <trkpt lat="44.30733" lon="4.42928">
        <ele>281</ele>
        <time>2021-07-04T13:32:39Z</time>
      </trkpt>
      <trkpt lat="44.30667" lon="4.42908">
        <ele>278</ele>
        <time>2021-07-04T13:32:55Z</time>
      </trkpt>
      <trkpt lat="44.30575" lon="4.42868">
        <ele>280</ele>
        <time>2021-07-04T13:33:17Z</time>
      </trkpt>
      <trkpt lat="44.30568" lon="4.42845">
        <ele>283</ele>
        <time>2021-07-04T13:33:21Z</time>
      </trkpt>
      <trkpt lat="44.30552" lon="4.42828">
        <ele>284</ele>
        <time>2021-07-04T13:33:26Z</time>
      </trkpt>
      <trkpt lat="44.30543" lon="4.42752">
        <ele>287</ele>
        <time>2021-07-04T13:33:39Z</time>
      </trkpt>
      <trkpt lat="44.30558" lon="4.42674">
        <ele>289</ele>
        <time>2021-07-04T13:33:52Z</time>
      </trkpt>
      <trkpt lat="44.3054" lon="4.42618">
        <ele>288</ele>
        <time>2021-07-04T13:34:03Z</time>
      </trkpt>
      <trkpt lat="44.30531" lon="4.42577">
        <ele>288</ele>
        <time>2021-07-04T13:34:10Z</time>
      </trkpt>
      <trkpt lat="44.30509" lon="4.42517">
        <ele>285</ele>
        <time>2021-07-04T13:34:21Z</time>
      </trkpt>
      <trkpt lat="44.30498" lon="4.42456">
        <ele>282</ele>
        <time>2021-07-04T13:34:32Z</time>
      </trkpt>
      <trkpt lat="44.30488" lon="4.42451">
        <ele>282</ele>
        <time>2021-07-04T13:34:34Z</time>
      </trkpt>
      <trkpt lat="44.30473" lon="4.42434">
        <ele>281</ele>
        <time>2021-07-04T13:34:39Z</time>
      </trkpt>
      <trkpt lat="44.30462" lon="4.42409">
        <ele>280</ele>
        <time>2021-07-04T13:34:43Z</time>
      </trkpt>
      <trkpt lat="44.30429" lon="4.42349">
        <ele>278</ele>
        <time>2021-07-04T13:34:56Z</time>
      </trkpt>
      <trkpt lat="44.30443" lon="4.42323">
        <ele>277</ele>
        <time>2021-07-04T13:35:02Z</time>
      </trkpt>
      <trkpt lat="44.30433" lon="4.42296">
        <ele>276</ele>
        <time>2021-07-04T13:35:07Z</time>
      </trkpt>
      <trkpt lat="44.30409" lon="4.4226">
        <ele>274</ele>
        <time>2021-07-04T13:35:15Z</time>
      </trkpt>
      <trkpt lat="44.30371" lon="4.42163">
        <ele>274</ele>
        <time>2021-07-04T13:35:33Z</time>
      </trkpt>
      <trkpt lat="44.30327" lon="4.42008">
        <ele>266</ele>
        <time>2021-07-04T13:36:01Z</time>
      </trkpt>
      <trkpt lat="44.30295" lon="4.41964">
        <ele>264</ele>
        <time>2021-07-04T13:36:12Z</time>
      </trkpt>
      <trkpt lat="44.303" lon="4.41888">
        <ele>262</ele>
        <time>2021-07-04T13:36:24Z</time>
      </trkpt>
      <trkpt lat="44.30283" lon="4.41837">
        <ele>262</ele>
        <time>2021-07-04T13:36:34Z</time>
      </trkpt>
      <trkpt lat="44.30201" lon="4.41631">
        <ele>266</ele>
        <time>2021-07-04T13:37:13Z</time>
      </trkpt>
      <trkpt lat="44.30175" lon="4.4151">
        <ele>266</ele>
        <time>2021-07-04T13:37:34Z</time>
      </trkpt>
      <trkpt lat="44.30313" lon="4.41466">
        <ele>269</ele>
        <time>2021-07-04T13:38:07Z</time>
      </trkpt>
      <trkpt lat="44.3035" lon="4.41508">
        <ele>272</ele>
        <time>2021-07-04T13:38:19Z</time>
      </trkpt>
      <trkpt lat="44.30405" lon="4.4154">
        <ele>275</ele>
        <time>2021-07-04T13:38:32Z</time>
      </trkpt>
      <trkpt lat="44.30475" lon="4.41597">
        <ele>279</ele>
        <time>2021-07-04T13:38:51Z</time>
      </trkpt>
      <trkpt lat="44.30506" lon="4.41589">
        <ele>279</ele>
        <time>2021-07-04T13:38:59Z</time>
      </trkpt>
      <trkpt lat="44.30583" lon="4.41543">
        <ele>277</ele>
        <time>2021-07-04T13:39:18Z</time>
      </trkpt>
      <trkpt lat="44.30601" lon="4.41539">
        <ele>277</ele>
        <time>2021-07-04T13:39:23Z</time>
      </trkpt>
      <trkpt lat="44.30629" lon="4.41558">
        <ele>278</ele>
        <time>2021-07-04T13:39:30Z</time>
      </trkpt>
      <trkpt lat="44.30663" lon="4.4155">
        <ele>279</ele>
        <time>2021-07-04T13:39:38Z</time>
      </trkpt>
      <trkpt lat="44.30722" lon="4.41496">
        <ele>276</ele>
        <time>2021-07-04T13:39:54Z</time>
      </trkpt>
      <trkpt lat="44.30764" lon="4.41501">
        <ele>275</ele>
        <time>2021-07-04T13:40:04Z</time>
      </trkpt>
      <trkpt lat="44.3079" lon="4.41492">
        <ele>272</ele>
        <time>2021-07-04T13:40:10Z</time>
      </trkpt>
      <trkpt lat="44.30818" lon="4.41442">
        <ele>266</ele>
        <time>2021-07-04T13:40:21Z</time>
      </trkpt>
      <trkpt lat="44.30868" lon="4.41447">
        <ele>265</ele>
        <time>2021-07-04T13:40:33Z</time>
      </trkpt>
      <trkpt lat="44.30883" lon="4.41429">
        <ele>265</ele>
        <time>2021-07-04T13:40:37Z</time>
      </trkpt>
      <trkpt lat="44.30948" lon="4.41293">
        <ele>270</ele>
        <time>2021-07-04T13:41:05Z</time>
      </trkpt>
      <trkpt lat="44.30984" lon="4.41249">
        <ele>273</ele>
        <time>2021-07-04T13:41:16Z</time>
      </trkpt>
      <trkpt lat="44.31066" lon="4.4118">
        <ele>277</ele>
        <time>2021-07-04T13:41:38Z</time>
      </trkpt>
      <trkpt lat="44.3119" lon="4.41183">
        <ele>282</ele>
        <time>2021-07-04T13:42:07Z</time>
      </trkpt>
      <trkpt lat="44.31233" lon="4.41145">
        <ele>284</ele>
        <time>2021-07-04T13:42:19Z</time>
      </trkpt>
      <trkpt lat="44.31256" lon="4.41121">
        <ele>285</ele>
        <time>2021-07-04T13:42:26Z</time>
      </trkpt>
      <trkpt lat="44.31283" lon="4.41073">
        <ele>285</ele>
        <time>2021-07-04T13:42:36Z</time>
      </trkpt>
      <trkpt lat="44.31292" lon="4.41044">
        <ele>285</ele>
        <time>2021-07-04T13:42:41Z</time>
      </trkpt>
      <trkpt lat="44.31305" lon="4.41009">
        <ele>283</ele>
        <time>2021-07-04T13:42:48Z</time>
      </trkpt>
      <trkpt lat="44.31313" lon="4.40988">
        <ele>282</ele>
        <time>2021-07-04T13:42:52Z</time>
      </trkpt>
      <trkpt lat="44.31326" lon="4.40989">
        <ele>282</ele>
        <time>2021-07-04T13:42:55Z</time>
      </trkpt>
      <trkpt lat="44.31332" lon="4.4101">
        <ele>282</ele>
        <time>2021-07-04T13:42:59Z</time>
      </trkpt>
      <trkpt lat="44.31352" lon="4.41053">
        <ele>284</ele>
        <time>2021-07-04T13:43:07Z</time>
      </trkpt>
      <trkpt lat="44.31375" lon="4.41072">
        <ele>286</ele>
        <time>2021-07-04T13:43:13Z</time>
      </trkpt>
      <trkpt lat="44.31407" lon="4.41085">
        <ele>287</ele>
        <time>2021-07-04T13:43:21Z</time>
      </trkpt>
      <trkpt lat="44.31454" lon="4.41084">
        <ele>287</ele>
        <time>2021-07-04T13:43:32Z</time>
      </trkpt>
      <trkpt lat="44.31602" lon="4.41079">
        <ele>293</ele>
        <time>2021-07-04T13:44:07Z</time>
      </trkpt>
      <trkpt lat="44.31652" lon="4.41086">
        <ele>294</ele>
        <time>2021-07-04T13:44:18Z</time>
      </trkpt>
      <trkpt lat="44.31691" lon="4.41101">
        <ele>296</ele>
        <time>2021-07-04T13:44:28Z</time>
      </trkpt>
      <trkpt lat="44.31743" lon="4.41143">
        <ele>298</ele>
        <time>2021-07-04T13:44:42Z</time>
      </trkpt>
      <trkpt lat="44.31748" lon="4.41127">
        <ele>298</ele>
        <time>2021-07-04T13:44:45Z</time>
      </trkpt>
      <trkpt lat="44.31762" lon="4.41141">
        <ele>299</ele>
        <time>2021-07-04T13:44:49Z</time>
      </trkpt>
      <trkpt lat="44.31779" lon="4.4115">
        <ele>301</ele>
        <time>2021-07-04T13:44:53Z</time>
      </trkpt>
      <trkpt lat="44.3183" lon="4.41147">
        <ele>304</ele>
        <time>2021-07-04T13:45:05Z</time>
      </trkpt>
      <trkpt lat="44.31834" lon="4.41195">
        <ele>303</ele>
        <time>2021-07-04T13:45:13Z</time>
      </trkpt>
    </trkseg>
  </trk>
  <trk>
    <name><![CDATA[Bleu Orgnac]]></name>
    <extensions>
      <line xmlns="http://www.topografix.com/GPX/gpx_style/0/2">
        <color>0000fa</color>
        <width>4</width>
      </line>
    </extensions>
    <trkseg>
      <trkpt lat="44.3183" lon="4.41199">
        <ele>303</ele>
        <time>2021-07-04T13:20:09Z</time>
      </trkpt>
      <trkpt lat="44.3183" lon="4.41199">
        <ele>303</ele>
        <time>2021-07-04T13:20:09Z</time>
      </trkpt>
      <trkpt lat="44.31829" lon="4.41234">
        <ele>302</ele>
        <time>2021-07-04T13:20:15Z</time>
      </trkpt>
      <trkpt lat="44.31833" lon="4.41246">
        <ele>302</ele>
        <time>2021-07-04T13:20:17Z</time>
      </trkpt>
      <trkpt lat="44.3184" lon="4.41273">
        <ele>303</ele>
        <time>2021-07-04T13:20:22Z</time>
      </trkpt>
      <trkpt lat="44.31842" lon="4.413">
        <ele>304</ele>
        <time>2021-07-04T13:20:26Z</time>
      </trkpt>
      <trkpt lat="44.31842" lon="4.413">
        <ele>304</ele>
        <time>2021-07-04T13:20:26Z</time>
      </trkpt>
      <trkpt lat="44.31841" lon="4.41322">
        <ele>305</ele>
        <time>2021-07-04T13:20:30Z</time>
      </trkpt>
      <trkpt lat="44.31834" lon="4.41353">
        <ele>305</ele>
        <time>2021-07-04T13:20:36Z</time>
      </trkpt>
      <trkpt lat="44.31828" lon="4.41383">
        <ele>304</ele>
        <time>2021-07-04T13:20:41Z</time>
      </trkpt>
      <trkpt lat="44.31844" lon="4.41389">
        <ele>305</ele>
        <time>2021-07-04T13:20:45Z</time>
      </trkpt>
      <trkpt lat="44.31886" lon="4.41397">
        <ele>309</ele>
        <time>2021-07-04T13:20:54Z</time>
      </trkpt>
      <trkpt lat="44.31902" lon="4.41394">
        <ele>311</ele>
        <time>2021-07-04T13:20:58Z</time>
      </trkpt>
      <trkpt lat="44.31928" lon="4.41406">
        <ele>313</ele>
        <time>2021-07-04T13:21:05Z</time>
      </trkpt>
      <trkpt lat="44.31942" lon="4.41406">
        <ele>314</ele>
        <time>2021-07-04T13:21:08Z</time>
      </trkpt>
      <trkpt lat="44.31953" lon="4.41399">
        <ele>314</ele>
        <time>2021-07-04T13:21:11Z</time>
      </trkpt>
      <trkpt lat="44.32031" lon="4.41433">
        <ele>316</ele>
        <time>2021-07-04T13:21:30Z</time>
      </trkpt>
      <trkpt lat="44.32063" lon="4.41441">
        <ele>316</ele>
        <time>2021-07-04T13:21:37Z</time>
      </trkpt>
      <trkpt lat="44.32089" lon="4.41455">
        <ele>316</ele>
        <time>2021-07-04T13:21:44Z</time>
      </trkpt>
      <trkpt lat="44.32104" lon="4.41471">
        <ele>316</ele>
        <time>2021-07-04T13:21:48Z</time>
      </trkpt>
      <trkpt lat="44.32135" lon="4.41467">
        <ele>316</ele>
        <time>2021-07-04T13:21:56Z</time>
      </trkpt>
      <trkpt lat="44.32151" lon="4.41511">
        <ele>315</ele>
        <time>2021-07-04T13:22:04Z</time>
      </trkpt>
      <trkpt lat="44.32133" lon="4.41533">
        <ele>315</ele>
        <time>2021-07-04T13:22:09Z</time>
      </trkpt>
      <trkpt lat="44.32105" lon="4.41571">
        <ele>313</ele>
        <time>2021-07-04T13:22:19Z</time>
      </trkpt>
      <trkpt lat="44.3208" lon="4.4162">
        <ele>312</ele>
        <time>2021-07-04T13:22:29Z</time>
      </trkpt>
      <trkpt lat="44.32046" lon="4.41707">
        <ele>309</ele>
        <time>2021-07-04T13:22:45Z</time>
      </trkpt>
      <trkpt lat="44.32031" lon="4.41743">
        <ele>307</ele>
        <time>2021-07-04T13:22:52Z</time>
      </trkpt>
      <trkpt lat="44.32015" lon="4.41765">
        <ele>305</ele>
        <time>2021-07-04T13:22:57Z</time>
      </trkpt>
      <trkpt lat="44.3199" lon="4.41786">
        <ele>304</ele>
        <time>2021-07-04T13:23:04Z</time>
      </trkpt>
      <trkpt lat="44.31983" lon="4.41787">
        <ele>304</ele>
        <time>2021-07-04T13:23:06Z</time>
      </trkpt>
      <trkpt lat="44.31951" lon="4.41795">
        <ele>304</ele>
        <time>2021-07-04T13:23:13Z</time>
      </trkpt>
      <trkpt lat="44.31912" lon="4.41804">
        <ele>305</ele>
        <time>2021-07-04T13:23:23Z</time>
      </trkpt>
      <trkpt lat="44.31823" lon="4.41807">
        <ele>302</ele>
        <time>2021-07-04T13:23:43Z</time>
      </trkpt>
      <trkpt lat="44.31797" lon="4.4181">
        <ele>302</ele>
        <time>2021-07-04T13:23:50Z</time>
      </trkpt>
      <trkpt lat="44.31778" lon="4.41818">
        <ele>302</ele>
        <time>2021-07-04T13:23:54Z</time>
      </trkpt>
      <trkpt lat="44.31765" lon="4.41821">
        <ele>302</ele>
        <time>2021-07-04T13:23:57Z</time>
      </trkpt>
      <trkpt lat="44.31755" lon="4.41825">
        <ele>301</ele>
        <time>2021-07-04T13:24:00Z</time>
      </trkpt>
      <trkpt lat="44.31746" lon="4.4183">
        <ele>301</ele>
        <time>2021-07-04T13:24:02Z</time>
      </trkpt>
      <trkpt lat="44.31732" lon="4.41838">
        <ele>301</ele>
        <time>2021-07-04T13:24:05Z</time>
      </trkpt>
      <trkpt lat="44.31717" lon="4.41853">
        <ele>302</ele>
        <time>2021-07-04T13:24:10Z</time>
      </trkpt>
      <trkpt lat="44.31703" lon="4.41871">
        <ele>303</ele>
        <time>2021-07-04T13:24:14Z</time>
      </trkpt>
      <trkpt lat="44.31689" lon="4.4188">
        <ele>303</ele>
        <time>2021-07-04T13:24:18Z</time>
      </trkpt>
      <trkpt lat="44.31678" lon="4.41883">
        <ele>302</ele>
        <time>2021-07-04T13:24:20Z</time>
      </trkpt>
      <trkpt lat="44.31663" lon="4.41889">
        <ele>302</ele>
        <time>2021-07-04T13:24:24Z</time>
      </trkpt>
      <trkpt lat="44.31649" lon="4.41893">
        <ele>303</ele>
        <time>2021-07-04T13:24:27Z</time>
      </trkpt>
      <trkpt lat="44.31639" lon="4.41905">
        <ele>303</ele>
        <time>2021-07-04T13:24:30Z</time>
      </trkpt>
      <trkpt lat="44.31639" lon="4.41918">
        <ele>304</ele>
        <time>2021-07-04T13:24:33Z</time>
      </trkpt>
      <trkpt lat="44.3165" lon="4.41933">
        <ele>305</ele>
        <time>2021-07-04T13:24:36Z</time>
      </trkpt>
      <trkpt lat="44.31662" lon="4.41942">
        <ele>306</ele>
        <time>2021-07-04T13:24:39Z</time>
      </trkpt>
      <trkpt lat="44.31665" lon="4.41952">
        <ele>307</ele>
        <time>2021-07-04T13:24:41Z</time>
      </trkpt>
      <trkpt lat="44.31657" lon="4.41968">
        <ele>307</ele>
        <time>2021-07-04T13:24:44Z</time>
      </trkpt>
      <trkpt lat="44.31657" lon="4.41975">
        <ele>307</ele>
        <time>2021-07-04T13:24:46Z</time>
      </trkpt>
      <trkpt lat="44.31654" lon="4.42001">
        <ele>308</ele>
        <time>2021-07-04T13:24:50Z</time>
      </trkpt>
      <trkpt lat="44.31645" lon="4.42013">
        <ele>307</ele>
        <time>2021-07-04T13:24:53Z</time>
      </trkpt>
      <trkpt lat="44.3163" lon="4.42012">
        <ele>307</ele>
        <time>2021-07-04T13:24:56Z</time>
      </trkpt>
      <trkpt lat="44.31612" lon="4.42027">
        <ele>305</ele>
        <time>2021-07-04T13:25:01Z</time>
      </trkpt>
      <trkpt lat="44.31577" lon="4.42062">
        <ele>303</ele>
        <time>2021-07-04T13:25:11Z</time>
      </trkpt>
      <trkpt lat="44.3154" lon="4.42097">
        <ele>300</ele>
        <time>2021-07-04T13:25:22Z</time>
      </trkpt>
      <trkpt lat="44.31505" lon="4.42133">
        <ele>296</ele>
        <time>2021-07-04T13:25:32Z</time>
      </trkpt>
      <trkpt lat="44.31469" lon="4.42167">
        <ele>294</ele>
        <time>2021-07-04T13:25:42Z</time>
      </trkpt>
      <trkpt lat="44.3146" lon="4.42188">
        <ele>295</ele>
        <time>2021-07-04T13:25:46Z</time>
      </trkpt>
      <trkpt lat="44.31441" lon="4.42207">
        <ele>295</ele>
        <time>2021-07-04T13:25:52Z</time>
      </trkpt>
      <trkpt lat="44.31431" lon="4.42231">
        <ele>296</ele>
        <time>2021-07-04T13:25:56Z</time>
      </trkpt>
      <trkpt lat="44.31439" lon="4.42254">
        <ele>298</ele>
        <time>2021-07-04T13:26:01Z</time>
      </trkpt>
      <trkpt lat="44.31451" lon="4.42287">
        <ele>299</ele>
        <time>2021-07-04T13:26:07Z</time>
      </trkpt>
      <trkpt lat="44.31461" lon="4.42306">
        <ele>301</ele>
        <time>2021-07-04T13:26:11Z</time>
      </trkpt>
      <trkpt lat="44.31468" lon="4.42322">
        <ele>302</ele>
        <time>2021-07-04T13:26:14Z</time>
      </trkpt>
      <trkpt lat="44.31476" lon="4.4234">
        <ele>303</ele>
        <time>2021-07-04T13:26:17Z</time>
      </trkpt>
      <trkpt lat="44.31484" lon="4.42352">
        <ele>303</ele>
        <time>2021-07-04T13:26:20Z</time>
      </trkpt>
      <trkpt lat="44.31491" lon="4.42365">
        <ele>303</ele>
        <time>2021-07-04T13:26:23Z</time>
      </trkpt>
      <trkpt lat="44.31501" lon="4.42377">
        <ele>303</ele>
        <time>2021-07-04T13:26:26Z</time>
      </trkpt>
      <trkpt lat="44.31507" lon="4.42393">
        <ele>303</ele>
        <time>2021-07-04T13:26:29Z</time>
      </trkpt>
      <trkpt lat="44.31501" lon="4.42408">
        <ele>301</ele>
        <time>2021-07-04T13:26:32Z</time>
      </trkpt>
      <trkpt lat="44.31497" lon="4.4242">
        <ele>301</ele>
        <time>2021-07-04T13:26:34Z</time>
      </trkpt>
      <trkpt lat="44.3149" lon="4.42439">
        <ele>302</ele>
        <time>2021-07-04T13:26:38Z</time>
      </trkpt>
      <trkpt lat="44.31482" lon="4.4248">
        <ele>304</ele>
        <time>2021-07-04T13:26:45Z</time>
      </trkpt>
      <trkpt lat="44.3146" lon="4.42478">
        <ele>304</ele>
        <time>2021-07-04T13:26:50Z</time>
      </trkpt>
      <trkpt lat="44.31454" lon="4.42501">
        <ele>305</ele>
        <time>2021-07-04T13:26:54Z</time>
      </trkpt>
      <trkpt lat="44.31451" lon="4.42519">
        <ele>305</ele>
        <time>2021-07-04T13:26:57Z</time>
      </trkpt>
      <trkpt lat="44.31468" lon="4.42526">
        <ele>306</ele>
        <time>2021-07-04T13:27:01Z</time>
      </trkpt>
      <trkpt lat="44.31461" lon="4.42555">
        <ele>307</ele>
        <time>2021-07-04T13:27:06Z</time>
      </trkpt>
      <trkpt lat="44.31453" lon="4.42575">
        <ele>307</ele>
        <time>2021-07-04T13:27:10Z</time>
      </trkpt>
      <trkpt lat="44.31441" lon="4.42602">
        <ele>308</ele>
        <time>2021-07-04T13:27:15Z</time>
      </trkpt>
      <trkpt lat="44.3143" lon="4.4263">
        <ele>308</ele>
        <time>2021-07-04T13:27:21Z</time>
      </trkpt>
      <trkpt lat="44.31421" lon="4.42676">
        <ele>308</ele>
        <time>2021-07-04T13:27:29Z</time>
      </trkpt>
      <trkpt lat="44.31416" lon="4.4273">
        <ele>308</ele>
        <time>2021-07-04T13:27:38Z</time>
      </trkpt>
      <trkpt lat="44.31408" lon="4.4276">
        <ele>308</ele>
        <time>2021-07-04T13:27:43Z</time>
      </trkpt>
      <trkpt lat="44.31398" lon="4.42801">
        <ele>308</ele>
        <time>2021-07-04T13:27:50Z</time>
      </trkpt>
      <trkpt lat="44.31401" lon="4.42828">
        <ele>309</ele>
        <time>2021-07-04T13:27:55Z</time>
      </trkpt>
      <trkpt lat="44.31386" lon="4.4287">
        <ele>308</ele>
        <time>2021-07-04T13:28:03Z</time>
      </trkpt>
      <trkpt lat="44.31376" lon="4.42917">
        <ele>308</ele>
        <time>2021-07-04T13:28:11Z</time>
      </trkpt>
      <trkpt lat="44.31363" lon="4.42979">
        <ele>308</ele>
        <time>2021-07-04T13:28:22Z</time>
      </trkpt>
      <trkpt lat="44.31356" lon="4.43013">
        <ele>308</ele>
        <time>2021-07-04T13:28:28Z</time>
      </trkpt>
      <trkpt lat="44.3134" lon="4.43089">
        <ele>310</ele>
        <time>2021-07-04T13:28:41Z</time>
      </trkpt>
      <trkpt lat="44.31336" lon="4.43111">
        <ele>310</ele>
        <time>2021-07-04T13:28:45Z</time>
      </trkpt>
      <trkpt lat="44.31306" lon="4.43131">
        <ele>309</ele>
        <time>2021-07-04T13:28:53Z</time>
      </trkpt>
      <trkpt lat="44.31266" lon="4.43156">
        <ele>308</ele>
        <time>2021-07-04T13:29:03Z</time>
      </trkpt>
      <trkpt lat="44.31258" lon="4.4316">
        <ele>307</ele>
        <time>2021-07-04T13:29:05Z</time>
      </trkpt>
      <trkpt lat="44.31246" lon="4.43164">
        <ele>307</ele>
        <time>2021-07-04T13:29:08Z</time>
      </trkpt>
      <trkpt lat="44.31238" lon="4.43165">
        <ele>307</ele>
        <time>2021-07-04T13:29:10Z</time>
      </trkpt>
      <trkpt lat="44.31228" lon="4.43168">
        <ele>307</ele>
        <time>2021-07-04T13:29:12Z</time>
      </trkpt>
      <trkpt lat="44.31216" lon="4.43167">
        <ele>307</ele>
        <time>2021-07-04T13:29:15Z</time>
      </trkpt>
      <trkpt lat="44.31181" lon="4.43154">
        <ele>306</ele>
        <time>2021-07-04T13:29:23Z</time>
      </trkpt>
      <trkpt lat="44.31142" lon="4.43137">
        <ele>305</ele>
        <time>2021-07-04T13:29:33Z</time>
      </trkpt>
      <trkpt lat="44.31123" lon="4.4313">
        <ele>305</ele>
        <time>2021-07-04T13:29:37Z</time>
      </trkpt>
      <trkpt lat="44.3111" lon="4.43128">
        <ele>306</ele>
        <time>2021-07-04T13:29:40Z</time>
      </trkpt>
      <trkpt lat="44.31099" lon="4.43129">
        <ele>306</ele>
        <time>2021-07-04T13:29:43Z</time>
      </trkpt>
      <trkpt lat="44.31076" lon="4.43135">
        <ele>306</ele>
        <time>2021-07-04T13:29:48Z</time>
      </trkpt>
      <trkpt lat="44.30948" lon="4.43174">
        <ele>304</ele>
        <time>2021-07-04T13:30:19Z</time>
      </trkpt>
      <trkpt lat="44.30906" lon="4.43188">
        <ele>301</ele>
        <time>2021-07-04T13:30:29Z</time>
      </trkpt>
      <trkpt lat="44.3089" lon="4.43192">
        <ele>300</ele>
        <time>2021-07-04T13:30:33Z</time>
      </trkpt>
      <trkpt lat="44.30873" lon="4.43196">
        <ele>298</ele>
        <time>2021-07-04T13:30:37Z</time>
      </trkpt>
      <trkpt lat="44.3086" lon="4.43201">
        <ele>297</ele>
        <time>2021-07-04T13:30:40Z</time>
      </trkpt>
      <trkpt lat="44.30846" lon="4.43204">
        <ele>296</ele>
        <time>2021-07-04T13:30:43Z</time>
      </trkpt>
      <trkpt lat="44.30834" lon="4.43208">
        <ele>295</ele>
        <time>2021-07-04T13:30:46Z</time>
      </trkpt>
      <trkpt lat="44.30824" lon="4.43214">
        <ele>295</ele>
        <time>2021-07-04T13:30:49Z</time>
      </trkpt>
      <trkpt lat="44.30818" lon="4.43216">
        <ele>295</ele>
        <time>2021-07-04T13:30:50Z</time>
      </trkpt>
      <trkpt lat="44.3081" lon="4.43218">
        <ele>294</ele>
        <time>2021-07-04T13:30:52Z</time>
      </trkpt>
      <trkpt lat="44.308" lon="4.4322">
        <ele>294</ele>
        <time>2021-07-04T13:30:54Z</time>
      </trkpt>
      <trkpt lat="44.30788" lon="4.43222">
        <ele>293</ele>
        <time>2021-07-04T13:30:57Z</time>
      </trkpt>
      <trkpt lat="44.30774" lon="4.43228">
        <ele>293</ele>
        <time>2021-07-04T13:31:01Z</time>
      </trkpt>
      <trkpt lat="44.30758" lon="4.43233">
        <ele>293</ele>
        <time>2021-07-04T13:31:05Z</time>
      </trkpt>
      <trkpt lat="44.30744" lon="4.43237">
        <ele>292</ele>
        <time>2021-07-04T13:31:08Z</time>
      </trkpt>
      <trkpt lat="44.30731" lon="4.4324">
        <ele>292</ele>
        <time>2021-07-04T13:31:11Z</time>
      </trkpt>
      <trkpt lat="44.30716" lon="4.43246">
        <ele>292</ele>
        <time>2021-07-04T13:31:15Z</time>
      </trkpt>
      <trkpt lat="44.30703" lon="4.4325">
        <ele>292</ele>
        <time>2021-07-04T13:31:18Z</time>
      </trkpt>
      <trkpt lat="44.30689" lon="4.43255">
        <ele>292</ele>
        <time>2021-07-04T13:31:21Z</time>
      </trkpt>
      <trkpt lat="44.30676" lon="4.43261">
        <ele>292</ele>
        <time>2021-07-04T13:31:24Z</time>
      </trkpt>
      <trkpt lat="44.30661" lon="4.43266">
        <ele>292</ele>
        <time>2021-07-04T13:31:28Z</time>
      </trkpt>
      <trkpt lat="44.30647" lon="4.4327">
        <ele>292</ele>
        <time>2021-07-04T13:31:31Z</time>
      </trkpt>
      <trkpt lat="44.30633" lon="4.43275">
        <ele>292</ele>
        <time>2021-07-04T13:31:35Z</time>
      </trkpt>
      <trkpt lat="44.30624" lon="4.43278">
        <ele>292</ele>
        <time>2021-07-04T13:31:37Z</time>
      </trkpt>
      <trkpt lat="44.30618" lon="4.4328">
        <ele>292</ele>
        <time>2021-07-04T13:31:38Z</time>
      </trkpt>
      <trkpt lat="44.30608" lon="4.43282">
        <ele>292</ele>
        <time>2021-07-04T13:31:41Z</time>
      </trkpt>
      <trkpt lat="44.30598" lon="4.43284">
        <ele>292</ele>
        <time>2021-07-04T13:31:43Z</time>
      </trkpt>
      <trkpt lat="44.3058" lon="4.43288">
        <ele>292</ele>
        <time>2021-07-04T13:31:47Z</time>
      </trkpt>
      <trkpt lat="44.30563" lon="4.43288">
        <ele>292</ele>
        <time>2021-07-04T13:31:51Z</time>
      </trkpt>
      <trkpt lat="44.3054" lon="4.43282">
        <ele>291</ele>
        <time>2021-07-04T13:31:57Z</time>
      </trkpt>
      <trkpt lat="44.30516" lon="4.43275">
        <ele>290</ele>
        <time>2021-07-04T13:32:02Z</time>
      </trkpt>
      <trkpt lat="44.30486" lon="4.43265">
        <ele>289</ele>
        <time>2021-07-04T13:32:10Z</time>
      </trkpt>
      <trkpt lat="44.30446" lon="4.43253">
        <ele>288</ele>
        <time>2021-07-04T13:32:19Z</time>
      </trkpt>
      <trkpt lat="44.30407" lon="4.43237">
        <ele>287</ele>
        <time>2021-07-04T13:32:29Z</time>
      </trkpt>
      <trkpt lat="44.30362" lon="4.43221">
        <ele>286</ele>
        <time>2021-07-04T13:32:39Z</time>
      </trkpt>
      <trkpt lat="44.30284" lon="4.43195">
        <ele>283</ele>
        <time>2021-07-04T13:32:58Z</time>
      </trkpt>
      <trkpt lat="44.30258" lon="4.43193">
        <ele>282</ele>
        <time>2021-07-04T13:33:04Z</time>
      </trkpt>
      <trkpt lat="44.30236" lon="4.43204">
        <ele>282</ele>
        <time>2021-07-04T13:33:10Z</time>
      </trkpt>
      <trkpt lat="44.30197" lon="4.43199">
        <ele>280</ele>
        <time>2021-07-04T13:33:19Z</time>
      </trkpt>
      <trkpt lat="44.30176" lon="4.43186">
        <ele>279</ele>
        <time>2021-07-04T13:33:24Z</time>
      </trkpt>
      <trkpt lat="44.30142" lon="4.43157">
        <ele>275</ele>
        <time>2021-07-04T13:33:33Z</time>
      </trkpt>
      <trkpt lat="44.30107" lon="4.43136">
        <ele>271</ele>
        <time>2021-07-04T13:33:42Z</time>
      </trkpt>
      <trkpt lat="44.30095" lon="4.43122">
        <ele>269</ele>
        <time>2021-07-04T13:33:46Z</time>
      </trkpt>
      <trkpt lat="44.30095" lon="4.4309">
        <ele>268</ele>
        <time>2021-07-04T13:33:51Z</time>
      </trkpt>
      <trkpt lat="44.30091" lon="4.43076">
        <ele>266</ele>
        <time>2021-07-04T13:33:54Z</time>
      </trkpt>
      <trkpt lat="44.3007" lon="4.43052">
        <ele>262</ele>
        <time>2021-07-04T13:34:00Z</time>
      </trkpt>
      <trkpt lat="44.30058" lon="4.4303">
        <ele>260</ele>
        <time>2021-07-04T13:34:05Z</time>
      </trkpt>
      <trkpt lat="44.3002" lon="4.4295">
        <ele>252</ele>
        <time>2021-07-04T13:34:21Z</time>
      </trkpt>
      <trkpt lat="44.30003" lon="4.42914">
        <ele>250</ele>
        <time>2021-07-04T13:34:28Z</time>
      </trkpt>
      <trkpt lat="44.29996" lon="4.42888">
        <ele>247</ele>
        <time>2021-07-04T13:34:33Z</time>
      </trkpt>
      <trkpt lat="44.29994" lon="4.42846">
        <ele>244</ele>
        <time>2021-07-04T13:34:40Z</time>
      </trkpt>
      <trkpt lat="44.29983" lon="4.42838">
        <ele>243</ele>
        <time>2021-07-04T13:34:43Z</time>
      </trkpt>
      <trkpt lat="44.29925" lon="4.42846">
        <ele>242</ele>
        <time>2021-07-04T13:34:56Z</time>
      </trkpt>
      <trkpt lat="44.2989" lon="4.42862">
        <ele>242</ele>
        <time>2021-07-04T13:35:05Z</time>
      </trkpt>
      <trkpt lat="44.29854" lon="4.42862">
        <ele>242</ele>
        <time>2021-07-04T13:35:13Z</time>
      </trkpt>
      <trkpt lat="44.29816" lon="4.42828">
        <ele>243</ele>
        <time>2021-07-04T13:35:24Z</time>
      </trkpt>
      <trkpt lat="44.2976" lon="4.42764">
        <ele>243</ele>
        <time>2021-07-04T13:35:41Z</time>
      </trkpt>
      <trkpt lat="44.29733" lon="4.42751">
        <ele>243</ele>
        <time>2021-07-04T13:35:47Z</time>
      </trkpt>
      <trkpt lat="44.29706" lon="4.42721">
        <ele>244</ele>
        <time>2021-07-04T13:35:55Z</time>
      </trkpt>
      <trkpt lat="44.29656" lon="4.42671">
        <ele>246</ele>
        <time>2021-07-04T13:36:10Z</time>
      </trkpt>
      <trkpt lat="44.29652" lon="4.42648">
        <ele>248</ele>
        <time>2021-07-04T13:36:14Z</time>
      </trkpt>
      <trkpt lat="44.29596" lon="4.42593">
        <ele>251</ele>
        <time>2021-07-04T13:36:30Z</time>
      </trkpt>
      <trkpt lat="44.29529" lon="4.42488">
        <ele>258</ele>
        <time>2021-07-04T13:36:53Z</time>
      </trkpt>
      <trkpt lat="44.2945" lon="4.42443">
        <ele>260</ele>
        <time>2021-07-04T13:37:13Z</time>
      </trkpt>
      <trkpt lat="44.29404" lon="4.42411">
        <ele>261</ele>
        <time>2021-07-04T13:37:25Z</time>
      </trkpt>
      <trkpt lat="44.29363" lon="4.42369">
        <ele>263</ele>
        <time>2021-07-04T13:37:37Z</time>
      </trkpt>
      <trkpt lat="44.29305" lon="4.42342">
        <ele>261</ele>
        <time>2021-07-04T13:37:51Z</time>
      </trkpt>
      <trkpt lat="44.29236" lon="4.42297">
        <ele>260</ele>
        <time>2021-07-04T13:38:09Z</time>
      </trkpt>
      <trkpt lat="44.29178" lon="4.42286">
        <ele>258</ele>
        <time>2021-07-04T13:38:23Z</time>
      </trkpt>
      <trkpt lat="44.29188" lon="4.4225">
        <ele>262</ele>
        <time>2021-07-04T13:38:29Z</time>
      </trkpt>
      <trkpt lat="44.29188" lon="4.42186">
        <ele>266</ele>
        <time>2021-07-04T13:38:40Z</time>
      </trkpt>
      <trkpt lat="44.29223" lon="4.42058">
        <ele>273</ele>
        <time>2021-07-04T13:39:03Z</time>
      </trkpt>
      <trkpt lat="44.29231" lon="4.41925">
        <ele>272</ele>
        <time>2021-07-04T13:39:25Z</time>
      </trkpt>
      <trkpt lat="44.29229" lon="4.41825">
        <ele>268</ele>
        <time>2021-07-04T13:39:42Z</time>
      </trkpt>
      <trkpt lat="44.29257" lon="4.41754">
        <ele>265</ele>
        <time>2021-07-04T13:39:55Z</time>
      </trkpt>
      <trkpt lat="44.29281" lon="4.41737">
        <ele>265</ele>
        <time>2021-07-04T13:40:02Z</time>
      </trkpt>
      <trkpt lat="44.29276" lon="4.41714">
        <ele>262</ele>
        <time>2021-07-04T13:40:06Z</time>
      </trkpt>
      <trkpt lat="44.2928" lon="4.41691">
        <ele>260</ele>
        <time>2021-07-04T13:40:10Z</time>
      </trkpt>
      <trkpt lat="44.29303" lon="4.41653">
        <ele>258</ele>
        <time>2021-07-04T13:40:18Z</time>
      </trkpt>
      <trkpt lat="44.29289" lon="4.41587">
        <ele>249</ele>
        <time>2021-07-04T13:40:30Z</time>
      </trkpt>
      <trkpt lat="44.29328" lon="4.41523">
        <ele>246</ele>
        <time>2021-07-04T13:40:44Z</time>
      </trkpt>
      <trkpt lat="44.29355" lon="4.41495">
        <ele>245</ele>
        <time>2021-07-04T13:40:51Z</time>
      </trkpt>
      <trkpt lat="44.29367" lon="4.41423">
        <ele>239</ele>
        <time>2021-07-04T13:41:04Z</time>
      </trkpt>
      <trkpt lat="44.294" lon="4.41338">
        <ele>232</ele>
        <time>2021-07-04T13:41:20Z</time>
      </trkpt>
      <trkpt lat="44.29439" lon="4.41256">
        <ele>226</ele>
        <time>2021-07-04T13:41:36Z</time>
      </trkpt>
      <trkpt lat="44.29505" lon="4.41274">
        <ele>226</ele>
        <time>2021-07-04T13:41:52Z</time>
      </trkpt>
      <trkpt lat="44.29464" lon="4.41402">
        <ele>242</ele>
        <time>2021-07-04T13:42:16Z</time>
      </trkpt>
      <trkpt lat="44.29498" lon="4.41487">
        <ele>252</ele>
        <time>2021-07-04T13:42:32Z</time>
      </trkpt>
      <trkpt lat="44.29565" lon="4.4154">
        <ele>252</ele>
        <time>2021-07-04T13:42:50Z</time>
      </trkpt>
      <trkpt lat="44.29583" lon="4.41559">
        <ele>254</ele>
        <time>2021-07-04T13:42:55Z</time>
      </trkpt>
      <trkpt lat="44.29576" lon="4.41606">
        <ele>259</ele>
        <time>2021-07-04T13:43:03Z</time>
      </trkpt>
      <trkpt lat="44.29613" lon="4.41697">
        <ele>267</ele>
        <time>2021-07-04T13:43:21Z</time>
      </trkpt>
      <trkpt lat="44.297" lon="4.41773">
        <ele>269</ele>
        <time>2021-07-04T13:43:45Z</time>
      </trkpt>
      <trkpt lat="44.29689" lon="4.41715">
        <ele>267</ele>
        <time>2021-07-04T13:43:55Z</time>
      </trkpt>
      <trkpt lat="44.29696" lon="4.41656">
        <ele>265</ele>
        <time>2021-07-04T13:44:05Z</time>
      </trkpt>
      <trkpt lat="44.29734" lon="4.41643">
        <ele>263</ele>
        <time>2021-07-04T13:44:14Z</time>
      </trkpt>
      <trkpt lat="44.29816" lon="4.41586">
        <ele>257</ele>
        <time>2021-07-04T13:44:35Z</time>
      </trkpt>
      <trkpt lat="44.29931" lon="4.41611">
        <ele>255</ele>
        <time>2021-07-04T13:45:02Z</time>
      </trkpt>
      <trkpt lat="44.3003" lon="4.4169">
        <ele>253</ele>
        <time>2021-07-04T13:45:29Z</time>
      </trkpt>
      <trkpt lat="44.30068" lon="4.41708">
        <ele>253</ele>
        <time>2021-07-04T13:45:38Z</time>
      </trkpt>
      <trkpt lat="44.30086" lon="4.41617">
        <ele>259</ele>
        <time>2021-07-04T13:45:54Z</time>
      </trkpt>
      <trkpt lat="44.30112" lon="4.41577">
        <ele>263</ele>
        <time>2021-07-04T13:46:03Z</time>
      </trkpt>
      <trkpt lat="44.30175" lon="4.41515">
        <ele>266</ele>
        <time>2021-07-04T13:46:21Z</time>
      </trkpt>
      <trkpt lat="44.30277" lon="4.4147">
        <ele>269</ele>
        <time>2021-07-04T13:46:46Z</time>
      </trkpt>
      <trkpt lat="44.30316" lon="4.41467">
        <ele>270</ele>
        <time>2021-07-04T13:46:55Z</time>
      </trkpt>
      <trkpt lat="44.30353" lon="4.41504">
        <ele>272</ele>
        <time>2021-07-04T13:47:06Z</time>
      </trkpt>
      <trkpt lat="44.30477" lon="4.41595">
        <ele>279</ele>
        <time>2021-07-04T13:47:39Z</time>
      </trkpt>
      <trkpt lat="44.30501" lon="4.41591">
        <ele>279</ele>
        <time>2021-07-04T13:47:44Z</time>
      </trkpt>
      <trkpt lat="44.30537" lon="4.41573">
        <ele>278</ele>
        <time>2021-07-04T13:47:53Z</time>
      </trkpt>
      <trkpt lat="44.30599" lon="4.41536">
        <ele>277</ele>
        <time>2021-07-04T13:48:09Z</time>
      </trkpt>
      <trkpt lat="44.30638" lon="4.41555">
        <ele>279</ele>
        <time>2021-07-04T13:48:18Z</time>
      </trkpt>
      <trkpt lat="44.30698" lon="4.41524">
        <ele>278</ele>
        <time>2021-07-04T13:48:33Z</time>
      </trkpt>
      <trkpt lat="44.30722" lon="4.41496">
        <ele>276</ele>
        <time>2021-07-04T13:48:41Z</time>
      </trkpt>
      <trkpt lat="44.30792" lon="4.41495">
        <ele>272</ele>
        <time>2021-07-04T13:48:57Z</time>
      </trkpt>
      <trkpt lat="44.30824" lon="4.41443">
        <ele>266</ele>
        <time>2021-07-04T13:49:09Z</time>
      </trkpt>
      <trkpt lat="44.30853" lon="4.41449">
        <ele>265</ele>
        <time>2021-07-04T13:49:15Z</time>
      </trkpt>
      <trkpt lat="44.30872" lon="4.41444">
        <ele>265</ele>
        <time>2021-07-04T13:49:20Z</time>
      </trkpt>
      <trkpt lat="44.30925" lon="4.41335">
        <ele>269</ele>
        <time>2021-07-04T13:49:42Z</time>
      </trkpt>
      <trkpt lat="44.30955" lon="4.41278">
        <ele>271</ele>
        <time>2021-07-04T13:49:54Z</time>
      </trkpt>
      <trkpt lat="44.31068" lon="4.41176">
        <ele>277</ele>
        <time>2021-07-04T13:50:25Z</time>
      </trkpt>
      <trkpt lat="44.31185" lon="4.41174">
        <ele>282</ele>
        <time>2021-07-04T13:50:52Z</time>
      </trkpt>
      <trkpt lat="44.31277" lon="4.41093">
        <ele>285</ele>
        <time>2021-07-04T13:51:18Z</time>
      </trkpt>
      <trkpt lat="44.31305" lon="4.40983">
        <ele>283</ele>
        <time>2021-07-04T13:51:37Z</time>
      </trkpt>
      <trkpt lat="44.31327" lon="4.40996">
        <ele>282</ele>
        <time>2021-07-04T13:51:43Z</time>
      </trkpt>
      <trkpt lat="44.31352" lon="4.41057">
        <ele>284</ele>
        <time>2021-07-04T13:51:55Z</time>
      </trkpt>
      <trkpt lat="44.31375" lon="4.41073">
        <ele>286</ele>
        <time>2021-07-04T13:52:01Z</time>
      </trkpt>
      <trkpt lat="44.31399" lon="4.41084">
        <ele>287</ele>
        <time>2021-07-04T13:52:07Z</time>
      </trkpt>
      <trkpt lat="44.31545" lon="4.41083">
        <ele>290</ele>
        <time>2021-07-04T13:52:41Z</time>
      </trkpt>
      <trkpt lat="44.31623" lon="4.4108">
        <ele>293</ele>
        <time>2021-07-04T13:52:59Z</time>
      </trkpt>
      <trkpt lat="44.3166" lon="4.41088">
        <ele>295</ele>
        <time>2021-07-04T13:53:08Z</time>
      </trkpt>
      <trkpt lat="44.31698" lon="4.41104">
        <ele>296</ele>
        <time>2021-07-04T13:53:17Z</time>
      </trkpt>
      <trkpt lat="44.31729" lon="4.41131">
        <ele>298</ele>
        <time>2021-07-04T13:53:25Z</time>
      </trkpt>
      <trkpt lat="44.31742" lon="4.41143">
        <ele>298</ele>
        <time>2021-07-04T13:53:29Z</time>
      </trkpt>
      <trkpt lat="44.31747" lon="4.41131">
        <ele>298</ele>
        <time>2021-07-04T13:53:31Z</time>
      </trkpt>
      <trkpt lat="44.31778" lon="4.41151">
        <ele>301</ele>
        <time>2021-07-04T13:53:39Z</time>
      </trkpt>
      <trkpt lat="44.31829" lon="4.41147">
        <ele>304</ele>
        <time>2021-07-04T13:53:51Z</time>
      </trkpt>
      <trkpt lat="44.31829" lon="4.41199">
        <ele>303</ele>
        <time>2021-07-04T13:54:00Z</time>
      </trkpt>
    </trkseg>
  </trk>
  <trk>
    <name><![CDATA[Rouge Orgnac Aiguèze]]></name>
    <extensions>
      <line xmlns="http://www.topografix.com/GPX/gpx_style/0/2">
        <color>fa0000</color>
        <width>4</width>
      </line>
    </extensions>
    <trkseg>
      <trkpt lat="44.31834" lon="4.41213">
        <ele>303</ele>
        <time>2021-07-04T13:18:55Z</time>
      </trkpt>
      <trkpt lat="44.3182" lon="4.4122">
        <ele>302</ele>
        <time>2021-07-04T13:18:58Z</time>
      </trkpt>
      <trkpt lat="44.31833" lon="4.41246">
        <ele>302</ele>
        <time>2021-07-04T13:19:04Z</time>
      </trkpt>
      <trkpt lat="44.3184" lon="4.41273">
        <ele>303</ele>
        <time>2021-07-04T13:19:09Z</time>
      </trkpt>
      <trkpt lat="44.31842" lon="4.413">
        <ele>304</ele>
        <time>2021-07-04T13:19:13Z</time>
      </trkpt>
      <trkpt lat="44.31841" lon="4.41322">
        <ele>305</ele>
        <time>2021-07-04T13:19:17Z</time>
      </trkpt>
      <trkpt lat="44.31828" lon="4.41383">
        <ele>304</ele>
        <time>2021-07-04T13:19:27Z</time>
      </trkpt>
      <trkpt lat="44.31844" lon="4.41389">
        <ele>305</ele>
        <time>2021-07-04T13:19:31Z</time>
      </trkpt>
      <trkpt lat="44.31886" lon="4.41397">
        <ele>309</ele>
        <time>2021-07-04T13:19:41Z</time>
      </trkpt>
      <trkpt lat="44.31902" lon="4.41394">
        <ele>311</ele>
        <time>2021-07-04T13:19:45Z</time>
      </trkpt>
      <trkpt lat="44.31928" lon="4.41406">
        <ele>313</ele>
        <time>2021-07-04T13:19:51Z</time>
      </trkpt>
      <trkpt lat="44.31942" lon="4.41406">
        <ele>314</ele>
        <time>2021-07-04T13:19:55Z</time>
      </trkpt>
      <trkpt lat="44.31953" lon="4.41399">
        <ele>314</ele>
        <time>2021-07-04T13:19:57Z</time>
      </trkpt>
      <trkpt lat="44.32031" lon="4.41433">
        <ele>316</ele>
        <time>2021-07-04T13:20:17Z</time>
      </trkpt>
      <trkpt lat="44.32063" lon="4.41441">
        <ele>316</ele>
        <time>2021-07-04T13:20:24Z</time>
      </trkpt>
      <trkpt lat="44.32089" lon="4.41455">
        <ele>316</ele>
        <time>2021-07-04T13:20:31Z</time>
      </trkpt>
      <trkpt lat="44.32104" lon="4.41471">
        <ele>316</ele>
        <time>2021-07-04T13:20:35Z</time>
      </trkpt>
      <trkpt lat="44.32135" lon="4.41467">
        <ele>316</ele>
        <time>2021-07-04T13:20:42Z</time>
      </trkpt>
      <trkpt lat="44.32151" lon="4.41511">
        <ele>315</ele>
        <time>2021-07-04T13:20:51Z</time>
      </trkpt>
      <trkpt lat="44.32105" lon="4.41571">
        <ele>313</ele>
        <time>2021-07-04T13:21:05Z</time>
      </trkpt>
      <trkpt lat="44.3208" lon="4.4162">
        <ele>312</ele>
        <time>2021-07-04T13:21:15Z</time>
      </trkpt>
      <trkpt lat="44.32031" lon="4.41743">
        <ele>307</ele>
        <time>2021-07-04T13:21:39Z</time>
      </trkpt>
      <trkpt lat="44.32015" lon="4.41765">
        <ele>305</ele>
        <time>2021-07-04T13:21:44Z</time>
      </trkpt>
      <trkpt lat="44.3199" lon="4.41786">
        <ele>304</ele>
        <time>2021-07-04T13:21:51Z</time>
      </trkpt>
      <trkpt lat="44.31912" lon="4.41804">
        <ele>305</ele>
        <time>2021-07-04T13:22:09Z</time>
      </trkpt>
      <trkpt lat="44.31823" lon="4.41807">
        <ele>302</ele>
        <time>2021-07-04T13:22:30Z</time>
      </trkpt>
      <trkpt lat="44.31799" lon="4.41811">
        <ele>302</ele>
        <time>2021-07-04T13:22:36Z</time>
      </trkpt>
      <trkpt lat="44.318" lon="4.41822">
        <ele>303</ele>
        <time>2021-07-04T13:22:38Z</time>
      </trkpt>
      <trkpt lat="44.31799" lon="4.41811">
        <ele>302</ele>
        <time>2021-07-04T13:22:39Z</time>
      </trkpt>
      <trkpt lat="44.31761" lon="4.4182">
        <ele>301</ele>
        <time>2021-07-04T13:22:48Z</time>
      </trkpt>
      <trkpt lat="44.31738" lon="4.41829">
        <ele>301</ele>
        <time>2021-07-04T13:22:54Z</time>
      </trkpt>
      <trkpt lat="44.31694" lon="4.41877">
        <ele>303</ele>
        <time>2021-07-04T13:23:07Z</time>
      </trkpt>
      <trkpt lat="44.31637" lon="4.41896">
        <ele>303</ele>
        <time>2021-07-04T13:23:21Z</time>
      </trkpt>
      <trkpt lat="44.31631" lon="4.41901">
        <ele>303</ele>
        <time>2021-07-04T13:23:22Z</time>
      </trkpt>
      <trkpt lat="44.31636" lon="4.41905">
        <ele>303</ele>
        <time>2021-07-04T13:23:24Z</time>
      </trkpt>
      <trkpt lat="44.31639" lon="4.4192">
        <ele>304</ele>
        <time>2021-07-04T13:23:26Z</time>
      </trkpt>
      <trkpt lat="44.31662" lon="4.41942">
        <ele>306</ele>
        <time>2021-07-04T13:23:33Z</time>
      </trkpt>
      <trkpt lat="44.31665" lon="4.41952">
        <ele>307</ele>
        <time>2021-07-04T13:23:35Z</time>
      </trkpt>
      <trkpt lat="44.31657" lon="4.41968">
        <ele>307</ele>
        <time>2021-07-04T13:23:38Z</time>
      </trkpt>
      <trkpt lat="44.31654" lon="4.42001">
        <ele>308</ele>
        <time>2021-07-04T13:23:43Z</time>
      </trkpt>
      <trkpt lat="44.31645" lon="4.42013">
        <ele>307</ele>
        <time>2021-07-04T13:23:46Z</time>
      </trkpt>
      <trkpt lat="44.3163" lon="4.42012">
        <ele>307</ele>
        <time>2021-07-04T13:23:50Z</time>
      </trkpt>
      <trkpt lat="44.31612" lon="4.42027">
        <ele>305</ele>
        <time>2021-07-04T13:23:55Z</time>
      </trkpt>
      <trkpt lat="44.3154" lon="4.42097">
        <ele>300</ele>
        <time>2021-07-04T13:24:15Z</time>
      </trkpt>
      <trkpt lat="44.31469" lon="4.42167">
        <ele>294</ele>
        <time>2021-07-04T13:24:36Z</time>
      </trkpt>
      <trkpt lat="44.3146" lon="4.42191">
        <ele>295</ele>
        <time>2021-07-04T13:24:40Z</time>
      </trkpt>
      <trkpt lat="44.31438" lon="4.42212">
        <ele>296</ele>
        <time>2021-07-04T13:24:46Z</time>
      </trkpt>
      <trkpt lat="44.31433" lon="4.42237">
        <ele>297</ele>
        <time>2021-07-04T13:24:51Z</time>
      </trkpt>
      <trkpt lat="44.31481" lon="4.42353">
        <ele>303</ele>
        <time>2021-07-04T13:25:13Z</time>
      </trkpt>
      <trkpt lat="44.31495" lon="4.42371">
        <ele>303</ele>
        <time>2021-07-04T13:25:17Z</time>
      </trkpt>
      <trkpt lat="44.31504" lon="4.4239">
        <ele>303</ele>
        <time>2021-07-04T13:25:21Z</time>
      </trkpt>
      <trkpt lat="44.31501" lon="4.42424">
        <ele>302</ele>
        <time>2021-07-04T13:25:27Z</time>
      </trkpt>
      <trkpt lat="44.31491" lon="4.4243">
        <ele>302</ele>
        <time>2021-07-04T13:25:30Z</time>
      </trkpt>
      <trkpt lat="44.31484" lon="4.4247">
        <ele>304</ele>
        <time>2021-07-04T13:25:36Z</time>
      </trkpt>
      <trkpt lat="44.31484" lon="4.42484">
        <ele>305</ele>
        <time>2021-07-04T13:25:39Z</time>
      </trkpt>
      <trkpt lat="44.3146" lon="4.42477">
        <ele>304</ele>
        <time>2021-07-04T13:25:45Z</time>
      </trkpt>
      <trkpt lat="44.31455" lon="4.42492">
        <ele>304</ele>
        <time>2021-07-04T13:25:47Z</time>
      </trkpt>
      <trkpt lat="44.31451" lon="4.42519">
        <ele>305</ele>
        <time>2021-07-04T13:25:52Z</time>
      </trkpt>
      <trkpt lat="44.31471" lon="4.42526">
        <ele>306</ele>
        <time>2021-07-04T13:25:57Z</time>
      </trkpt>
      <trkpt lat="44.31462" lon="4.42555">
        <ele>307</ele>
        <time>2021-07-04T13:26:02Z</time>
      </trkpt>
      <trkpt lat="44.31431" lon="4.42626">
        <ele>308</ele>
        <time>2021-07-04T13:26:16Z</time>
      </trkpt>
      <trkpt lat="44.3142" lon="4.42677">
        <ele>308</ele>
        <time>2021-07-04T13:26:25Z</time>
      </trkpt>
      <trkpt lat="44.31415" lon="4.42733">
        <ele>308</ele>
        <time>2021-07-04T13:26:34Z</time>
      </trkpt>
      <trkpt lat="44.31408" lon="4.42755">
        <ele>308</ele>
        <time>2021-07-04T13:26:38Z</time>
      </trkpt>
      <trkpt lat="44.31405" lon="4.42775">
        <ele>308</ele>
        <time>2021-07-04T13:26:42Z</time>
      </trkpt>
      <trkpt lat="44.31399" lon="4.42791">
        <ele>308</ele>
        <time>2021-07-04T13:26:45Z</time>
      </trkpt>
      <trkpt lat="44.31398" lon="4.42804">
        <ele>308</ele>
        <time>2021-07-04T13:26:47Z</time>
      </trkpt>
      <trkpt lat="44.31403" lon="4.42828">
        <ele>309</ele>
        <time>2021-07-04T13:26:51Z</time>
      </trkpt>
      <trkpt lat="44.31385" lon="4.42869">
        <ele>308</ele>
        <time>2021-07-04T13:26:59Z</time>
      </trkpt>
      <trkpt lat="44.31336" lon="4.43111">
        <ele>310</ele>
        <time>2021-07-04T13:27:41Z</time>
      </trkpt>
      <trkpt lat="44.31266" lon="4.43156">
        <ele>308</ele>
        <time>2021-07-04T13:27:59Z</time>
      </trkpt>
      <trkpt lat="44.31281" lon="4.43173">
        <ele>308</ele>
        <time>2021-07-04T13:28:04Z</time>
      </trkpt>
      <trkpt lat="44.31316" lon="4.432">
        <ele>308</ele>
        <time>2021-07-04T13:28:13Z</time>
      </trkpt>
      <trkpt lat="44.31337" lon="4.43198">
        <ele>309</ele>
        <time>2021-07-04T13:28:18Z</time>
      </trkpt>
      <trkpt lat="44.31372" lon="4.43186">
        <ele>310</ele>
        <time>2021-07-04T13:28:26Z</time>
      </trkpt>
      <trkpt lat="44.31429" lon="4.43154">
        <ele>311</ele>
        <time>2021-07-04T13:28:41Z</time>
      </trkpt>
      <trkpt lat="44.31638" lon="4.43109">
        <ele>319</ele>
        <time>2021-07-04T13:29:30Z</time>
      </trkpt>
      <trkpt lat="44.31651" lon="4.43092">
        <ele>320</ele>
        <time>2021-07-04T13:29:34Z</time>
      </trkpt>
      <trkpt lat="44.31722" lon="4.43025">
        <ele>325</ele>
        <time>2021-07-04T13:29:54Z</time>
      </trkpt>
      <trkpt lat="44.3176" lon="4.42997">
        <ele>328</ele>
        <time>2021-07-04T13:30:04Z</time>
      </trkpt>
      <trkpt lat="44.31777" lon="4.42991">
        <ele>329</ele>
        <time>2021-07-04T13:30:08Z</time>
      </trkpt>
      <trkpt lat="44.31911" lon="4.42989">
        <ele>335</ele>
        <time>2021-07-04T13:30:40Z</time>
      </trkpt>
      <trkpt lat="44.31957" lon="4.43007">
        <ele>340</ele>
        <time>2021-07-04T13:30:51Z</time>
      </trkpt>
      <trkpt lat="44.32035" lon="4.43081">
        <ele>349</ele>
        <time>2021-07-04T13:31:13Z</time>
      </trkpt>
      <trkpt lat="44.32052" lon="4.43086">
        <ele>350</ele>
        <time>2021-07-04T13:31:17Z</time>
      </trkpt>
      <trkpt lat="44.32094" lon="4.43089">
        <ele>352</ele>
        <time>2021-07-04T13:31:27Z</time>
      </trkpt>
      <trkpt lat="44.3211" lon="4.43078">
        <ele>353</ele>
        <time>2021-07-04T13:31:31Z</time>
      </trkpt>
      <trkpt lat="44.32131" lon="4.43025">
        <ele>356</ele>
        <time>2021-07-04T13:31:41Z</time>
      </trkpt>
      <trkpt lat="44.32196" lon="4.42965">
        <ele>361</ele>
        <time>2021-07-04T13:31:59Z</time>
      </trkpt>
      <trkpt lat="44.3222" lon="4.42952">
        <ele>363</ele>
        <time>2021-07-04T13:32:05Z</time>
      </trkpt>
      <trkpt lat="44.3225" lon="4.42951">
        <ele>365</ele>
        <time>2021-07-04T13:32:12Z</time>
      </trkpt>
      <trkpt lat="44.323" lon="4.42909">
        <ele>370</ele>
        <time>2021-07-04T13:32:26Z</time>
      </trkpt>
      <trkpt lat="44.32349" lon="4.42876">
        <ele>373</ele>
        <time>2021-07-04T13:32:38Z</time>
      </trkpt>
      <trkpt lat="44.32435" lon="4.42863">
        <ele>380</ele>
        <time>2021-07-04T13:32:59Z</time>
      </trkpt>
      <trkpt lat="44.32488" lon="4.429">
        <ele>383</ele>
        <time>2021-07-04T13:33:12Z</time>
      </trkpt>
      <trkpt lat="44.32557" lon="4.42912">
        <ele>385</ele>
        <time>2021-07-04T13:33:29Z</time>
      </trkpt>
      <trkpt lat="44.32606" lon="4.42934">
        <ele>385</ele>
        <time>2021-07-04T13:33:41Z</time>
      </trkpt>
      <trkpt lat="44.32613" lon="4.42962">
        <ele>386</ele>
        <time>2021-07-04T13:33:46Z</time>
      </trkpt>
      <trkpt lat="44.32633" lon="4.4308">
        <ele>386</ele>
        <time>2021-07-04T13:34:06Z</time>
      </trkpt>
      <trkpt lat="44.32644" lon="4.43122">
        <ele>386</ele>
        <time>2021-07-04T13:34:13Z</time>
      </trkpt>
      <trkpt lat="44.32639" lon="4.43163">
        <ele>386</ele>
        <time>2021-07-04T13:34:20Z</time>
      </trkpt>
      <trkpt lat="44.32621" lon="4.43213">
        <ele>387</ele>
        <time>2021-07-04T13:34:30Z</time>
      </trkpt>
      <trkpt lat="44.32608" lon="4.43265">
        <ele>387</ele>
        <time>2021-07-04T13:34:39Z</time>
      </trkpt>
      <trkpt lat="44.3261" lon="4.43282">
        <ele>387</ele>
        <time>2021-07-04T13:34:42Z</time>
      </trkpt>
      <trkpt lat="44.32591" lon="4.43307">
        <ele>386</ele>
        <time>2021-07-04T13:34:48Z</time>
      </trkpt>
      <trkpt lat="44.32588" lon="4.43327">
        <ele>386</ele>
        <time>2021-07-04T13:34:51Z</time>
      </trkpt>
      <trkpt lat="44.32589" lon="4.43381">
        <ele>385</ele>
        <time>2021-07-04T13:35:00Z</time>
      </trkpt>
      <trkpt lat="44.32573" lon="4.43414">
        <ele>383</ele>
        <time>2021-07-04T13:35:07Z</time>
      </trkpt>
      <trkpt lat="44.32602" lon="4.4348">
        <ele>383</ele>
        <time>2021-07-04T13:35:20Z</time>
      </trkpt>
      <trkpt lat="44.32609" lon="4.43527">
        <ele>383</ele>
        <time>2021-07-04T13:35:28Z</time>
      </trkpt>
      <trkpt lat="44.32643" lon="4.43582">
        <ele>384</ele>
        <time>2021-07-04T13:35:40Z</time>
      </trkpt>
      <trkpt lat="44.32646" lon="4.43645">
        <ele>386</ele>
        <time>2021-07-04T13:35:51Z</time>
      </trkpt>
      <trkpt lat="44.32608" lon="4.44084">
        <ele>371</ele>
        <time>2021-07-04T13:37:05Z</time>
      </trkpt>
      <trkpt lat="44.32602" lon="4.44177">
        <ele>368</ele>
        <time>2021-07-04T13:37:20Z</time>
      </trkpt>
      <trkpt lat="44.32575" lon="4.44471">
        <ele>369</ele>
        <time>2021-07-04T13:38:10Z</time>
      </trkpt>
      <trkpt lat="44.32651" lon="4.44502">
        <ele>372</ele>
        <time>2021-07-04T13:38:28Z</time>
      </trkpt>
      <trkpt lat="44.32678" lon="4.44494">
        <ele>373</ele>
        <time>2021-07-04T13:38:35Z</time>
      </trkpt>
      <trkpt lat="44.32746" lon="4.4452">
        <ele>375</ele>
        <time>2021-07-04T13:38:51Z</time>
      </trkpt>
      <trkpt lat="44.32779" lon="4.44541">
        <ele>376</ele>
        <time>2021-07-04T13:39:00Z</time>
      </trkpt>
      <trkpt lat="44.32775" lon="4.44589">
        <ele>376</ele>
        <time>2021-07-04T13:39:08Z</time>
      </trkpt>
      <trkpt lat="44.328" lon="4.44606">
        <ele>377</ele>
        <time>2021-07-04T13:39:14Z</time>
      </trkpt>
      <trkpt lat="44.32836" lon="4.44606">
        <ele>378</ele>
        <time>2021-07-04T13:39:22Z</time>
      </trkpt>
      <trkpt lat="44.32871" lon="4.44609">
        <ele>379</ele>
        <time>2021-07-04T13:39:31Z</time>
      </trkpt>
      <trkpt lat="44.32916" lon="4.44594">
        <ele>379</ele>
        <time>2021-07-04T13:39:41Z</time>
      </trkpt>
      <trkpt lat="44.32944" lon="4.44576">
        <ele>379</ele>
        <time>2021-07-04T13:39:49Z</time>
      </trkpt>
      <trkpt lat="44.32975" lon="4.44565">
        <ele>379</ele>
        <time>2021-07-04T13:39:56Z</time>
      </trkpt>
      <trkpt lat="44.33016" lon="4.44605">
        <ele>378</ele>
        <time>2021-07-04T13:40:08Z</time>
      </trkpt>
      <trkpt lat="44.33026" lon="4.44625">
        <ele>377</ele>
        <time>2021-07-04T13:40:12Z</time>
      </trkpt>
      <trkpt lat="44.3305" lon="4.44627">
        <ele>376</ele>
        <time>2021-07-04T13:40:18Z</time>
      </trkpt>
      <trkpt lat="44.33087" lon="4.44621">
        <ele>376</ele>
        <time>2021-07-04T13:40:26Z</time>
      </trkpt>
      <trkpt lat="44.33122" lon="4.44619">
        <ele>375</ele>
        <time>2021-07-04T13:40:34Z</time>
      </trkpt>
      <trkpt lat="44.33177" lon="4.44593">
        <ele>375</ele>
        <time>2021-07-04T13:40:48Z</time>
      </trkpt>
      <trkpt lat="44.33224" lon="4.44605">
        <ele>376</ele>
        <time>2021-07-04T13:40:59Z</time>
      </trkpt>
      <trkpt lat="44.33244" lon="4.44673">
        <ele>376</ele>
        <time>2021-07-04T13:41:11Z</time>
      </trkpt>
      <trkpt lat="44.33283" lon="4.4475">
        <ele>379</ele>
        <time>2021-07-04T13:41:27Z</time>
      </trkpt>
      <trkpt lat="44.33307" lon="4.44742">
        <ele>380</ele>
        <time>2021-07-04T13:41:33Z</time>
      </trkpt>
      <trkpt lat="44.33332" lon="4.44746">
        <ele>382</ele>
        <time>2021-07-04T13:41:39Z</time>
      </trkpt>
      <trkpt lat="44.3336" lon="4.44754">
        <ele>384</ele>
        <time>2021-07-04T13:41:45Z</time>
      </trkpt>
      <trkpt lat="44.3337" lon="4.4478">
        <ele>384</ele>
        <time>2021-07-04T13:41:50Z</time>
      </trkpt>
      <trkpt lat="44.33374" lon="4.44831">
        <ele>385</ele>
        <time>2021-07-04T13:41:59Z</time>
      </trkpt>
      <trkpt lat="44.33377" lon="4.44928">
        <ele>386</ele>
        <time>2021-07-04T13:42:15Z</time>
      </trkpt>
      <trkpt lat="44.33392" lon="4.44971">
        <ele>388</ele>
        <time>2021-07-04T13:42:23Z</time>
      </trkpt>
      <trkpt lat="44.33431" lon="4.45016">
        <ele>390</ele>
        <time>2021-07-04T13:42:35Z</time>
      </trkpt>
      <trkpt lat="44.33424" lon="4.45032">
        <ele>390</ele>
        <time>2021-07-04T13:42:38Z</time>
      </trkpt>
      <trkpt lat="44.33411" lon="4.45087">
        <ele>391</ele>
        <time>2021-07-04T13:42:48Z</time>
      </trkpt>
      <trkpt lat="44.33403" lon="4.45166">
        <ele>393</ele>
        <time>2021-07-04T13:43:01Z</time>
      </trkpt>
      <trkpt lat="44.33393" lon="4.45223">
        <ele>394</ele>
        <time>2021-07-04T13:43:11Z</time>
      </trkpt>
      <trkpt lat="44.33385" lon="4.45233">
        <ele>394</ele>
        <time>2021-07-04T13:43:13Z</time>
      </trkpt>
      <trkpt lat="44.33373" lon="4.45296">
        <ele>395</ele>
        <time>2021-07-04T13:43:24Z</time>
      </trkpt>
      <trkpt lat="44.33318" lon="4.45463">
        <ele>390</ele>
        <time>2021-07-04T13:43:55Z</time>
      </trkpt>
      <trkpt lat="44.33287" lon="4.455">
        <ele>390</ele>
        <time>2021-07-04T13:44:05Z</time>
      </trkpt>
      <trkpt lat="44.33224" lon="4.45565">
        <ele>393</ele>
        <time>2021-07-04T13:44:23Z</time>
      </trkpt>
      <trkpt lat="44.33207" lon="4.456">
        <ele>393</ele>
        <time>2021-07-04T13:44:30Z</time>
      </trkpt>
      <trkpt lat="44.33176" lon="4.45646">
        <ele>393</ele>
        <time>2021-07-04T13:44:40Z</time>
      </trkpt>
      <trkpt lat="44.33102" lon="4.45731">
        <ele>394</ele>
        <time>2021-07-04T13:45:03Z</time>
      </trkpt>
      <trkpt lat="44.33012" lon="4.45808">
        <ele>396</ele>
        <time>2021-07-04T13:45:27Z</time>
      </trkpt>
      <trkpt lat="44.3294" lon="4.45836">
        <ele>397</ele>
        <time>2021-07-04T13:45:45Z</time>
      </trkpt>
      <trkpt lat="44.32921" lon="4.45846">
        <ele>398</ele>
        <time>2021-07-04T13:45:50Z</time>
      </trkpt>
      <trkpt lat="44.32863" lon="4.45888">
        <ele>401</ele>
        <time>2021-07-04T13:46:05Z</time>
      </trkpt>
      <trkpt lat="44.3284" lon="4.45915">
        <ele>403</ele>
        <time>2021-07-04T13:46:12Z</time>
      </trkpt>
      <trkpt lat="44.32822" lon="4.45951">
        <ele>403</ele>
        <time>2021-07-04T13:46:19Z</time>
      </trkpt>
      <trkpt lat="44.32787" lon="4.4606">
        <ele>403</ele>
        <time>2021-07-04T13:46:39Z</time>
      </trkpt>
      <trkpt lat="44.32776" lon="4.46169">
        <ele>401</ele>
        <time>2021-07-04T13:46:58Z</time>
      </trkpt>
      <trkpt lat="44.32777" lon="4.46197">
        <ele>402</ele>
        <time>2021-07-04T13:47:02Z</time>
      </trkpt>
      <trkpt lat="44.3277" lon="4.46247">
        <ele>402</ele>
        <time>2021-07-04T13:47:11Z</time>
      </trkpt>
      <trkpt lat="44.3277" lon="4.46308">
        <ele>402</ele>
        <time>2021-07-04T13:47:21Z</time>
      </trkpt>
      <trkpt lat="44.32774" lon="4.46352">
        <ele>402</ele>
        <time>2021-07-04T13:47:28Z</time>
      </trkpt>
      <trkpt lat="44.3277" lon="4.46434">
        <ele>400</ele>
        <time>2021-07-04T13:47:42Z</time>
      </trkpt>
      <trkpt lat="44.32774" lon="4.46471">
        <ele>399</ele>
        <time>2021-07-04T13:47:48Z</time>
      </trkpt>
      <trkpt lat="44.32781" lon="4.46512">
        <ele>398</ele>
        <time>2021-07-04T13:47:55Z</time>
      </trkpt>
      <trkpt lat="44.32802" lon="4.46585">
        <ele>395</ele>
        <time>2021-07-04T13:48:09Z</time>
      </trkpt>
      <trkpt lat="44.32805" lon="4.46608">
        <ele>394</ele>
        <time>2021-07-04T13:48:12Z</time>
      </trkpt>
      <trkpt lat="44.32814" lon="4.46627">
        <ele>393</ele>
        <time>2021-07-04T13:48:16Z</time>
      </trkpt>
      <trkpt lat="44.32824" lon="4.46696">
        <ele>390</ele>
        <time>2021-07-04T13:48:28Z</time>
      </trkpt>
      <trkpt lat="44.32835" lon="4.46726">
        <ele>390</ele>
        <time>2021-07-04T13:48:34Z</time>
      </trkpt>
      <trkpt lat="44.32834" lon="4.46759">
        <ele>389</ele>
        <time>2021-07-04T13:48:39Z</time>
      </trkpt>
      <trkpt lat="44.32823" lon="4.46807">
        <ele>388</ele>
        <time>2021-07-04T13:48:48Z</time>
      </trkpt>
      <trkpt lat="44.32818" lon="4.46845">
        <ele>388</ele>
        <time>2021-07-04T13:48:54Z</time>
      </trkpt>
      <trkpt lat="44.32822" lon="4.46924">
        <ele>389</ele>
        <time>2021-07-04T13:49:07Z</time>
      </trkpt>
      <trkpt lat="44.3282" lon="4.47028">
        <ele>391</ele>
        <time>2021-07-04T13:49:25Z</time>
      </trkpt>
      <trkpt lat="44.32815" lon="4.47081">
        <ele>391</ele>
        <time>2021-07-04T13:49:34Z</time>
      </trkpt>
      <trkpt lat="44.328" lon="4.47162">
        <ele>390</ele>
        <time>2021-07-04T13:49:48Z</time>
      </trkpt>
      <trkpt lat="44.32799" lon="4.47186">
        <ele>390</ele>
        <time>2021-07-04T13:49:52Z</time>
      </trkpt>
      <trkpt lat="44.32805" lon="4.47267">
        <ele>391</ele>
        <time>2021-07-04T13:50:05Z</time>
      </trkpt>
      <trkpt lat="44.32803" lon="4.47277">
        <ele>392</ele>
        <time>2021-07-04T13:50:07Z</time>
      </trkpt>
      <trkpt lat="44.32779" lon="4.47306">
        <ele>392</ele>
        <time>2021-07-04T13:50:14Z</time>
      </trkpt>
      <trkpt lat="44.32727" lon="4.47361">
        <ele>392</ele>
        <time>2021-07-04T13:50:30Z</time>
      </trkpt>
      <trkpt lat="44.32709" lon="4.47386">
        <ele>393</ele>
        <time>2021-07-04T13:50:36Z</time>
      </trkpt>
      <trkpt lat="44.32673" lon="4.47455">
        <ele>393</ele>
        <time>2021-07-04T13:50:50Z</time>
      </trkpt>
      <trkpt lat="44.32607" lon="4.47607">
        <ele>391</ele>
        <time>2021-07-04T13:51:19Z</time>
      </trkpt>
      <trkpt lat="44.32595" lon="4.47643">
        <ele>390</ele>
        <time>2021-07-04T13:51:26Z</time>
      </trkpt>
      <trkpt lat="44.32586" lon="4.47658">
        <ele>390</ele>
        <time>2021-07-04T13:51:29Z</time>
      </trkpt>
      <trkpt lat="44.32572" lon="4.47673">
        <ele>390</ele>
        <time>2021-07-04T13:51:34Z</time>
      </trkpt>
      <trkpt lat="44.32562" lon="4.47695">
        <ele>390</ele>
        <time>2021-07-04T13:51:38Z</time>
      </trkpt>
      <trkpt lat="44.32558" lon="4.47711">
        <ele>390</ele>
        <time>2021-07-04T13:51:41Z</time>
      </trkpt>
      <trkpt lat="44.32548" lon="4.47796">
        <ele>391</ele>
        <time>2021-07-04T13:51:55Z</time>
      </trkpt>
      <trkpt lat="44.32536" lon="4.47872">
        <ele>389</ele>
        <time>2021-07-04T13:52:08Z</time>
      </trkpt>
      <trkpt lat="44.32529" lon="4.47902">
        <ele>387</ele>
        <time>2021-07-04T13:52:13Z</time>
      </trkpt>
      <trkpt lat="44.32523" lon="4.47917">
        <ele>386</ele>
        <time>2021-07-04T13:52:16Z</time>
      </trkpt>
      <trkpt lat="44.32492" lon="4.47967">
        <ele>382</ele>
        <time>2021-07-04T13:52:27Z</time>
      </trkpt>
      <trkpt lat="44.32459" lon="4.48013">
        <ele>379</ele>
        <time>2021-07-04T13:52:38Z</time>
      </trkpt>
      <trkpt lat="44.32436" lon="4.48058">
        <ele>376</ele>
        <time>2021-07-04T13:52:47Z</time>
      </trkpt>
      <trkpt lat="44.32412" lon="4.48095">
        <ele>373</ele>
        <time>2021-07-04T13:52:56Z</time>
      </trkpt>
      <trkpt lat="44.3239" lon="4.48122">
        <ele>371</ele>
        <time>2021-07-04T13:53:03Z</time>
      </trkpt>
      <trkpt lat="44.32361" lon="4.48146">
        <ele>368</ele>
        <time>2021-07-04T13:53:10Z</time>
      </trkpt>
      <trkpt lat="44.32342" lon="4.48168">
        <ele>367</ele>
        <time>2021-07-04T13:53:16Z</time>
      </trkpt>
      <trkpt lat="44.32319" lon="4.48224">
        <ele>365</ele>
        <time>2021-07-04T13:53:27Z</time>
      </trkpt>
      <trkpt lat="44.32306" lon="4.48292">
        <ele>363</ele>
        <time>2021-07-04T13:53:39Z</time>
      </trkpt>
      <trkpt lat="44.32298" lon="4.48313">
        <ele>362</ele>
        <time>2021-07-04T13:53:43Z</time>
      </trkpt>
      <trkpt lat="44.32285" lon="4.4833">
        <ele>361</ele>
        <time>2021-07-04T13:53:47Z</time>
      </trkpt>
      <trkpt lat="44.32249" lon="4.48352">
        <ele>359</ele>
        <time>2021-07-04T13:53:56Z</time>
      </trkpt>
      <trkpt lat="44.32241" lon="4.48361">
        <ele>359</ele>
        <time>2021-07-04T13:53:58Z</time>
      </trkpt>
      <trkpt lat="44.32236" lon="4.48375">
        <ele>359</ele>
        <time>2021-07-04T13:54:01Z</time>
      </trkpt>
      <trkpt lat="44.3222" lon="4.48449">
        <ele>360</ele>
        <time>2021-07-04T13:54:14Z</time>
      </trkpt>
      <trkpt lat="44.32193" lon="4.48514">
        <ele>360</ele>
        <time>2021-07-04T13:54:27Z</time>
      </trkpt>
      <trkpt lat="44.3218" lon="4.48538">
        <ele>360</ele>
        <time>2021-07-04T13:54:32Z</time>
      </trkpt>
      <trkpt lat="44.32164" lon="4.48555">
        <ele>360</ele>
        <time>2021-07-04T13:54:36Z</time>
      </trkpt>
      <trkpt lat="44.32157" lon="4.48569">
        <ele>360</ele>
        <time>2021-07-04T13:54:39Z</time>
      </trkpt>
      <trkpt lat="44.32119" lon="4.48596">
        <ele>360</ele>
        <time>2021-07-04T13:54:49Z</time>
      </trkpt>
      <trkpt lat="44.32119" lon="4.48628">
        <ele>359</ele>
        <time>2021-07-04T13:54:54Z</time>
      </trkpt>
      <trkpt lat="44.32089" lon="4.48721">
        <ele>355</ele>
        <time>2021-07-04T13:55:11Z</time>
      </trkpt>
      <trkpt lat="44.32058" lon="4.48774">
        <ele>355</ele>
        <time>2021-07-04T13:55:23Z</time>
      </trkpt>
      <trkpt lat="44.32015" lon="4.4887">
        <ele>357</ele>
        <time>2021-07-04T13:55:42Z</time>
      </trkpt>
      <trkpt lat="44.32018" lon="4.48907">
        <ele>358</ele>
        <time>2021-07-04T13:55:48Z</time>
      </trkpt>
      <trkpt lat="44.32032" lon="4.4897">
        <ele>359</ele>
        <time>2021-07-04T13:55:59Z</time>
      </trkpt>
      <trkpt lat="44.32032" lon="4.48989">
        <ele>359</ele>
        <time>2021-07-04T13:56:02Z</time>
      </trkpt>
      <trkpt lat="44.31982" lon="4.49107">
        <ele>360</ele>
        <time>2021-07-04T13:56:25Z</time>
      </trkpt>
      <trkpt lat="44.3197" lon="4.4911">
        <ele>360</ele>
        <time>2021-07-04T13:56:28Z</time>
      </trkpt>
      <trkpt lat="44.31963" lon="4.49145">
        <ele>358</ele>
        <time>2021-07-04T13:56:34Z</time>
      </trkpt>
      <trkpt lat="44.31949" lon="4.4919">
        <ele>357</ele>
        <time>2021-07-04T13:56:42Z</time>
      </trkpt>
      <trkpt lat="44.31948" lon="4.49244">
        <ele>355</ele>
        <time>2021-07-04T13:56:51Z</time>
      </trkpt>
      <trkpt lat="44.31935" lon="4.49308">
        <ele>352</ele>
        <time>2021-07-04T13:57:02Z</time>
      </trkpt>
      <trkpt lat="44.31932" lon="4.4934">
        <ele>351</ele>
        <time>2021-07-04T13:57:08Z</time>
      </trkpt>
      <trkpt lat="44.31933" lon="4.49374">
        <ele>351</ele>
        <time>2021-07-04T13:57:14Z</time>
      </trkpt>
      <trkpt lat="44.31941" lon="4.49417">
        <ele>349</ele>
        <time>2021-07-04T13:57:21Z</time>
      </trkpt>
      <trkpt lat="44.31993" lon="4.4955">
        <ele>346</ele>
        <time>2021-07-04T13:57:46Z</time>
      </trkpt>
      <trkpt lat="44.31988" lon="4.49635">
        <ele>345</ele>
        <time>2021-07-04T13:58:01Z</time>
      </trkpt>
      <trkpt lat="44.31984" lon="4.49645">
        <ele>345</ele>
        <time>2021-07-04T13:58:02Z</time>
      </trkpt>
      <trkpt lat="44.31979" lon="4.49641">
        <ele>345</ele>
        <time>2021-07-04T13:58:04Z</time>
      </trkpt>
      <trkpt lat="44.31984" lon="4.49645">
        <ele>345</ele>
        <time>2021-07-04T13:58:05Z</time>
      </trkpt>
      <trkpt lat="44.31975" lon="4.49671">
        <ele>343</ele>
        <time>2021-07-04T13:58:10Z</time>
      </trkpt>
      <trkpt lat="44.31999" lon="4.49711">
        <ele>342</ele>
        <time>2021-07-04T13:58:19Z</time>
      </trkpt>
      <trkpt lat="44.3201" lon="4.49718">
        <ele>341</ele>
        <time>2021-07-04T13:58:21Z</time>
      </trkpt>
      <trkpt lat="44.32047" lon="4.49731">
        <ele>339</ele>
        <time>2021-07-04T13:58:30Z</time>
      </trkpt>
      <trkpt lat="44.32071" lon="4.49754">
        <ele>338</ele>
        <time>2021-07-04T13:58:37Z</time>
      </trkpt>
      <trkpt lat="44.32106" lon="4.49821">
        <ele>333</ele>
        <time>2021-07-04T13:58:51Z</time>
      </trkpt>
      <trkpt lat="44.32125" lon="4.49851">
        <ele>333</ele>
        <time>2021-07-04T13:58:58Z</time>
      </trkpt>
      <trkpt lat="44.3211" lon="4.49877">
        <ele>333</ele>
        <time>2021-07-04T13:59:03Z</time>
      </trkpt>
      <trkpt lat="44.3209" lon="4.49899">
        <ele>334</ele>
        <time>2021-07-04T13:59:09Z</time>
      </trkpt>
      <trkpt lat="44.32052" lon="4.4992">
        <ele>332</ele>
        <time>2021-07-04T13:59:19Z</time>
      </trkpt>
      <trkpt lat="44.31976" lon="4.49933">
        <ele>330</ele>
        <time>2021-07-04T13:59:37Z</time>
      </trkpt>
      <trkpt lat="44.31942" lon="4.49946">
        <ele>329</ele>
        <time>2021-07-04T13:59:45Z</time>
      </trkpt>
      <trkpt lat="44.31899" lon="4.49956">
        <ele>328</ele>
        <time>2021-07-04T13:59:55Z</time>
      </trkpt>
      <trkpt lat="44.31853" lon="4.49949">
        <ele>324</ele>
        <time>2021-07-04T14:00:06Z</time>
      </trkpt>
      <trkpt lat="44.31838" lon="4.49943">
        <ele>323</ele>
        <time>2021-07-04T14:00:10Z</time>
      </trkpt>
      <trkpt lat="44.31807" lon="4.49941">
        <ele>320</ele>
        <time>2021-07-04T14:00:17Z</time>
      </trkpt>
      <trkpt lat="44.31775" lon="4.49947">
        <ele>319</ele>
        <time>2021-07-04T14:00:24Z</time>
      </trkpt>
      <trkpt lat="44.31727" lon="4.49974">
        <ele>318</ele>
        <time>2021-07-04T14:00:36Z</time>
      </trkpt>
      <trkpt lat="44.31712" lon="4.49984">
        <ele>318</ele>
        <time>2021-07-04T14:00:40Z</time>
      </trkpt>
      <trkpt lat="44.31705" lon="4.49992">
        <ele>318</ele>
        <time>2021-07-04T14:00:42Z</time>
      </trkpt>
      <trkpt lat="44.31697" lon="4.50011">
        <ele>319</ele>
        <time>2021-07-04T14:00:46Z</time>
      </trkpt>
      <trkpt lat="44.31693" lon="4.50064">
        <ele>323</ele>
        <time>2021-07-04T14:00:55Z</time>
      </trkpt>
      <trkpt lat="44.31687" lon="4.50071">
        <ele>323</ele>
        <time>2021-07-04T14:00:57Z</time>
      </trkpt>
      <trkpt lat="44.3168" lon="4.5007">
        <ele>322</ele>
        <time>2021-07-04T14:00:58Z</time>
      </trkpt>
      <trkpt lat="44.31638" lon="4.50046">
        <ele>316</ele>
        <time>2021-07-04T14:01:09Z</time>
      </trkpt>
      <trkpt lat="44.31621" lon="4.50045">
        <ele>314</ele>
        <time>2021-07-04T14:01:13Z</time>
      </trkpt>
      <trkpt lat="44.31577" lon="4.50069">
        <ele>314</ele>
        <time>2021-07-04T14:01:24Z</time>
      </trkpt>
      <trkpt lat="44.31554" lon="4.50079">
        <ele>315</ele>
        <time>2021-07-04T14:01:30Z</time>
      </trkpt>
      <trkpt lat="44.31532" lon="4.50085">
        <ele>314</ele>
        <time>2021-07-04T14:01:35Z</time>
      </trkpt>
      <trkpt lat="44.3151" lon="4.50085">
        <ele>313</ele>
        <time>2021-07-04T14:01:40Z</time>
      </trkpt>
      <trkpt lat="44.31488" lon="4.50083">
        <ele>312</ele>
        <time>2021-07-04T14:01:45Z</time>
      </trkpt>
      <trkpt lat="44.31486" lon="4.50081">
        <ele>311</ele>
        <time>2021-07-04T14:01:46Z</time>
      </trkpt>
      <trkpt lat="44.31448" lon="4.50097">
        <ele>312</ele>
        <time>2021-07-04T14:01:55Z</time>
      </trkpt>
      <trkpt lat="44.31434" lon="4.50112">
        <ele>313</ele>
        <time>2021-07-04T14:01:59Z</time>
      </trkpt>
      <trkpt lat="44.31425" lon="4.50126">
        <ele>314</ele>
        <time>2021-07-04T14:02:02Z</time>
      </trkpt>
      <trkpt lat="44.31407" lon="4.50171">
        <ele>316</ele>
        <time>2021-07-04T14:02:11Z</time>
      </trkpt>
      <trkpt lat="44.31388" lon="4.50202">
        <ele>315</ele>
        <time>2021-07-04T14:02:18Z</time>
      </trkpt>
      <trkpt lat="44.31378" lon="4.50233">
        <ele>314</ele>
        <time>2021-07-04T14:02:23Z</time>
      </trkpt>
      <trkpt lat="44.31376" lon="4.5025">
        <ele>314</ele>
        <time>2021-07-04T14:02:26Z</time>
      </trkpt>
      <trkpt lat="44.31379" lon="4.50281">
        <ele>314</ele>
        <time>2021-07-04T14:02:32Z</time>
      </trkpt>
      <trkpt lat="44.31385" lon="4.50308">
        <ele>314</ele>
        <time>2021-07-04T14:02:36Z</time>
      </trkpt>
      <trkpt lat="44.31386" lon="4.50328">
        <ele>314</ele>
        <time>2021-07-04T14:02:40Z</time>
      </trkpt>
      <trkpt lat="44.31384" lon="4.5034">
        <ele>314</ele>
        <time>2021-07-04T14:02:42Z</time>
      </trkpt>
      <trkpt lat="44.31377" lon="4.50355">
        <ele>314</ele>
        <time>2021-07-04T14:02:45Z</time>
      </trkpt>
      <trkpt lat="44.31345" lon="4.50398">
        <ele>312</ele>
        <time>2021-07-04T14:02:55Z</time>
      </trkpt>
      <trkpt lat="44.31339" lon="4.50426">
        <ele>312</ele>
        <time>2021-07-04T14:03:00Z</time>
      </trkpt>
      <trkpt lat="44.31339" lon="4.50446">
        <ele>313</ele>
        <time>2021-07-04T14:03:03Z</time>
      </trkpt>
      <trkpt lat="44.31345" lon="4.50498">
        <ele>315</ele>
        <time>2021-07-04T14:03:12Z</time>
      </trkpt>
      <trkpt lat="44.31343" lon="4.50511">
        <ele>316</ele>
        <time>2021-07-04T14:03:14Z</time>
      </trkpt>
      <trkpt lat="44.31336" lon="4.50521">
        <ele>315</ele>
        <time>2021-07-04T14:03:17Z</time>
      </trkpt>
      <trkpt lat="44.31318" lon="4.50538">
        <ele>314</ele>
        <time>2021-07-04T14:03:22Z</time>
      </trkpt>
      <trkpt lat="44.31313" lon="4.50549">
        <ele>314</ele>
        <time>2021-07-04T14:03:24Z</time>
      </trkpt>
      <trkpt lat="44.31292" lon="4.50641">
        <ele>315</ele>
        <time>2021-07-04T14:03:40Z</time>
      </trkpt>
      <trkpt lat="44.31287" lon="4.50679">
        <ele>314</ele>
        <time>2021-07-04T14:03:46Z</time>
      </trkpt>
      <trkpt lat="44.3129" lon="4.50708">
        <ele>313</ele>
        <time>2021-07-04T14:03:51Z</time>
      </trkpt>
      <trkpt lat="44.31289" lon="4.50731">
        <ele>313</ele>
        <time>2021-07-04T14:03:55Z</time>
      </trkpt>
      <trkpt lat="44.31296" lon="4.50798">
        <ele>310</ele>
        <time>2021-07-04T14:04:07Z</time>
      </trkpt>
      <trkpt lat="44.31292" lon="4.50837">
        <ele>308</ele>
        <time>2021-07-04T14:04:13Z</time>
      </trkpt>
      <trkpt lat="44.31287" lon="4.50854">
        <ele>308</ele>
        <time>2021-07-04T14:04:16Z</time>
      </trkpt>
      <trkpt lat="44.31227" lon="4.50978">
        <ele>304</ele>
        <time>2021-07-04T14:04:41Z</time>
      </trkpt>
      <trkpt lat="44.31221" lon="4.51018">
        <ele>303</ele>
        <time>2021-07-04T14:04:48Z</time>
      </trkpt>
      <trkpt lat="44.31215" lon="4.5103">
        <ele>302</ele>
        <time>2021-07-04T14:04:50Z</time>
      </trkpt>
      <trkpt lat="44.31204" lon="4.51045">
        <ele>302</ele>
        <time>2021-07-04T14:04:54Z</time>
      </trkpt>
      <trkpt lat="44.31167" lon="4.51068">
        <ele>300</ele>
        <time>2021-07-04T14:05:04Z</time>
      </trkpt>
      <trkpt lat="44.31129" lon="4.51112">
        <ele>298</ele>
        <time>2021-07-04T14:05:15Z</time>
      </trkpt>
      <trkpt lat="44.31106" lon="4.51134">
        <ele>297</ele>
        <time>2021-07-04T14:05:22Z</time>
      </trkpt>
      <trkpt lat="44.31088" lon="4.5117">
        <ele>297</ele>
        <time>2021-07-04T14:05:29Z</time>
      </trkpt>
      <trkpt lat="44.31061" lon="4.51211">
        <ele>295</ele>
        <time>2021-07-04T14:05:38Z</time>
      </trkpt>
      <trkpt lat="44.3105" lon="4.51245">
        <ele>294</ele>
        <time>2021-07-04T14:05:44Z</time>
      </trkpt>
      <trkpt lat="44.31047" lon="4.51287">
        <ele>293</ele>
        <time>2021-07-04T14:05:51Z</time>
      </trkpt>
      <trkpt lat="44.31051" lon="4.51303">
        <ele>293</ele>
        <time>2021-07-04T14:05:54Z</time>
      </trkpt>
      <trkpt lat="44.31059" lon="4.51316">
        <ele>293</ele>
        <time>2021-07-04T14:05:57Z</time>
      </trkpt>
      <trkpt lat="44.31091" lon="4.51348">
        <ele>293</ele>
        <time>2021-07-04T14:06:06Z</time>
      </trkpt>
      <trkpt lat="44.31096" lon="4.51362">
        <ele>292</ele>
        <time>2021-07-04T14:06:09Z</time>
      </trkpt>
      <trkpt lat="44.31099" lon="4.51377">
        <ele>292</ele>
        <time>2021-07-04T14:06:12Z</time>
      </trkpt>
      <trkpt lat="44.31096" lon="4.51421">
        <ele>290</ele>
        <time>2021-07-04T14:06:19Z</time>
      </trkpt>
      <trkpt lat="44.31103" lon="4.51421">
        <ele>290</ele>
        <time>2021-07-04T14:06:21Z</time>
      </trkpt>
      <trkpt lat="44.31096" lon="4.51422">
        <ele>290</ele>
        <time>2021-07-04T14:06:22Z</time>
      </trkpt>
      <trkpt lat="44.31105" lon="4.51493">
        <ele>292</ele>
        <time>2021-07-04T14:06:34Z</time>
      </trkpt>
      <trkpt lat="44.31126" lon="4.5153">
        <ele>292</ele>
        <time>2021-07-04T14:06:42Z</time>
      </trkpt>
      <trkpt lat="44.31226" lon="4.51641">
        <ele>294</ele>
        <time>2021-07-04T14:07:12Z</time>
      </trkpt>
      <trkpt lat="44.31234" lon="4.51652">
        <ele>294</ele>
        <time>2021-07-04T14:07:15Z</time>
      </trkpt>
      <trkpt lat="44.31243" lon="4.51672">
        <ele>295</ele>
        <time>2021-07-04T14:07:19Z</time>
      </trkpt>
      <trkpt lat="44.31247" lon="4.51692">
        <ele>296</ele>
        <time>2021-07-04T14:07:22Z</time>
      </trkpt>
      <trkpt lat="44.3124" lon="4.51803">
        <ele>297</ele>
        <time>2021-07-04T14:07:41Z</time>
      </trkpt>
      <trkpt lat="44.31244" lon="4.51834">
        <ele>298</ele>
        <time>2021-07-04T14:07:46Z</time>
      </trkpt>
      <trkpt lat="44.31244" lon="4.51884">
        <ele>297</ele>
        <time>2021-07-04T14:07:54Z</time>
      </trkpt>
      <trkpt lat="44.31245" lon="4.51896">
        <ele>296</ele>
        <time>2021-07-04T14:07:56Z</time>
      </trkpt>
      <trkpt lat="44.31259" lon="4.51949">
        <ele>295</ele>
        <time>2021-07-04T14:08:06Z</time>
      </trkpt>
      <trkpt lat="44.3128" lon="4.52008">
        <ele>294</ele>
        <time>2021-07-04T14:08:17Z</time>
      </trkpt>
      <trkpt lat="44.31308" lon="4.52055">
        <ele>292</ele>
        <time>2021-07-04T14:08:27Z</time>
      </trkpt>
      <trkpt lat="44.31315" lon="4.52062">
        <ele>291</ele>
        <time>2021-07-04T14:08:29Z</time>
      </trkpt>
      <trkpt lat="44.31324" lon="4.52095">
        <ele>290</ele>
        <time>2021-07-04T14:08:35Z</time>
      </trkpt>
      <trkpt lat="44.3134" lon="4.52127">
        <ele>290</ele>
        <time>2021-07-04T14:08:41Z</time>
      </trkpt>
      <trkpt lat="44.31357" lon="4.5216">
        <ele>289</ele>
        <time>2021-07-04T14:08:48Z</time>
      </trkpt>
      <trkpt lat="44.31391" lon="4.5221">
        <ele>289</ele>
        <time>2021-07-04T14:09:00Z</time>
      </trkpt>
      <trkpt lat="44.31376" lon="4.52253">
        <ele>289</ele>
        <time>2021-07-04T14:09:08Z</time>
      </trkpt>
      <trkpt lat="44.31377" lon="4.52294">
        <ele>288</ele>
        <time>2021-07-04T14:09:15Z</time>
      </trkpt>
      <trkpt lat="44.31475" lon="4.52548">
        <ele>284</ele>
        <time>2021-07-04T14:10:03Z</time>
      </trkpt>
      <trkpt lat="44.31509" lon="4.52658">
        <ele>283</ele>
        <time>2021-07-04T14:10:23Z</time>
      </trkpt>
      <trkpt lat="44.31523" lon="4.52793">
        <ele>280</ele>
        <time>2021-07-04T14:10:46Z</time>
      </trkpt>
      <trkpt lat="44.31532" lon="4.52853">
        <ele>277</ele>
        <time>2021-07-04T14:10:56Z</time>
      </trkpt>
      <trkpt lat="44.31533" lon="4.52887">
        <ele>275</ele>
        <time>2021-07-04T14:11:02Z</time>
      </trkpt>
      <trkpt lat="44.31528" lon="4.52931">
        <ele>273</ele>
        <time>2021-07-04T14:11:09Z</time>
      </trkpt>
      <trkpt lat="44.31521" lon="4.52962">
        <ele>273</ele>
        <time>2021-07-04T14:11:14Z</time>
      </trkpt>
      <trkpt lat="44.31493" lon="4.53038">
        <ele>270</ele>
        <time>2021-07-04T14:11:29Z</time>
      </trkpt>
      <trkpt lat="44.31479" lon="4.53056">
        <ele>268</ele>
        <time>2021-07-04T14:11:33Z</time>
      </trkpt>
      <trkpt lat="44.3146" lon="4.53095">
        <ele>266</ele>
        <time>2021-07-04T14:11:41Z</time>
      </trkpt>
      <trkpt lat="44.31435" lon="4.53137">
        <ele>263</ele>
        <time>2021-07-04T14:11:50Z</time>
      </trkpt>
      <trkpt lat="44.31393" lon="4.53194">
        <ele>259</ele>
        <time>2021-07-04T14:12:04Z</time>
      </trkpt>
      <trkpt lat="44.31385" lon="4.53212">
        <ele>258</ele>
        <time>2021-07-04T14:12:07Z</time>
      </trkpt>
      <trkpt lat="44.3138" lon="4.53235">
        <ele>257</ele>
        <time>2021-07-04T14:12:11Z</time>
      </trkpt>
      <trkpt lat="44.31377" lon="4.53282">
        <ele>257</ele>
        <time>2021-07-04T14:12:19Z</time>
      </trkpt>
      <trkpt lat="44.31347" lon="4.53371">
        <ele>255</ele>
        <time>2021-07-04T14:12:36Z</time>
      </trkpt>
      <trkpt lat="44.31366" lon="4.5336">
        <ele>256</ele>
        <time>2021-07-04T14:12:41Z</time>
      </trkpt>
      <trkpt lat="44.3138" lon="4.53357">
        <ele>256</ele>
        <time>2021-07-04T14:12:44Z</time>
      </trkpt>
      <trkpt lat="44.31394" lon="4.53347">
        <ele>256</ele>
        <time>2021-07-04T14:12:48Z</time>
      </trkpt>
      <trkpt lat="44.3139" lon="4.53381">
        <ele>256</ele>
        <time>2021-07-04T14:12:53Z</time>
      </trkpt>
      <trkpt lat="44.31387" lon="4.53446">
        <ele>254</ele>
        <time>2021-07-04T14:13:04Z</time>
      </trkpt>
      <trkpt lat="44.31384" lon="4.53464">
        <ele>253</ele>
        <time>2021-07-04T14:13:07Z</time>
      </trkpt>
      <trkpt lat="44.31376" lon="4.53483">
        <ele>252</ele>
        <time>2021-07-04T14:13:11Z</time>
      </trkpt>
      <trkpt lat="44.31369" lon="4.53497">
        <ele>251</ele>
        <time>2021-07-04T14:13:14Z</time>
      </trkpt>
      <trkpt lat="44.31352" lon="4.53521">
        <ele>248</ele>
        <time>2021-07-04T14:13:19Z</time>
      </trkpt>
      <trkpt lat="44.31351" lon="4.53559">
        <ele>247</ele>
        <time>2021-07-04T14:13:26Z</time>
      </trkpt>
      <trkpt lat="44.3134" lon="4.53617">
        <ele>243</ele>
        <time>2021-07-04T14:13:36Z</time>
      </trkpt>
      <trkpt lat="44.31345" lon="4.5367">
        <ele>241</ele>
        <time>2021-07-04T14:13:45Z</time>
      </trkpt>
      <trkpt lat="44.31383" lon="4.53765">
        <ele>240</ele>
        <time>2021-07-04T14:14:03Z</time>
      </trkpt>
      <trkpt lat="44.31395" lon="4.53785">
        <ele>241</ele>
        <time>2021-07-04T14:14:07Z</time>
      </trkpt>
      <trkpt lat="44.31444" lon="4.53838">
        <ele>242</ele>
        <time>2021-07-04T14:14:22Z</time>
      </trkpt>
      <trkpt lat="44.31485" lon="4.5387">
        <ele>244</ele>
        <time>2021-07-04T14:14:33Z</time>
      </trkpt>
      <trkpt lat="44.31518" lon="4.53939">
        <ele>246</ele>
        <time>2021-07-04T14:14:47Z</time>
      </trkpt>
      <trkpt lat="44.31518" lon="4.5397">
        <ele>247</ele>
        <time>2021-07-04T14:14:52Z</time>
      </trkpt>
      <trkpt lat="44.31508" lon="4.54024">
        <ele>249</ele>
        <time>2021-07-04T14:15:01Z</time>
      </trkpt>
      <trkpt lat="44.31491" lon="4.54144">
        <ele>253</ele>
        <time>2021-07-04T14:15:22Z</time>
      </trkpt>
      <trkpt lat="44.31493" lon="4.54179">
        <ele>254</ele>
        <time>2021-07-04T14:15:27Z</time>
      </trkpt>
      <trkpt lat="44.31497" lon="4.542">
        <ele>253</ele>
        <time>2021-07-04T14:15:31Z</time>
      </trkpt>
      <trkpt lat="44.31496" lon="4.5421">
        <ele>252</ele>
        <time>2021-07-04T14:15:33Z</time>
      </trkpt>
      <trkpt lat="44.31489" lon="4.54221">
        <ele>251</ele>
        <time>2021-07-04T14:15:35Z</time>
      </trkpt>
      <trkpt lat="44.31474" lon="4.54226">
        <ele>250</ele>
        <time>2021-07-04T14:15:39Z</time>
      </trkpt>
      <trkpt lat="44.3147" lon="4.5423">
        <ele>249</ele>
        <time>2021-07-04T14:15:40Z</time>
      </trkpt>
      <trkpt lat="44.31461" lon="4.54229">
        <ele>249</ele>
        <time>2021-07-04T14:15:42Z</time>
      </trkpt>
      <trkpt lat="44.31434" lon="4.54245">
        <ele>246</ele>
        <time>2021-07-04T14:15:49Z</time>
      </trkpt>
      <trkpt lat="44.31406" lon="4.54279">
        <ele>241</ele>
        <time>2021-07-04T14:15:58Z</time>
      </trkpt>
      <trkpt lat="44.31374" lon="4.54324">
        <ele>239</ele>
        <time>2021-07-04T14:16:08Z</time>
      </trkpt>
      <trkpt lat="44.31322" lon="4.5437">
        <ele>243</ele>
        <time>2021-07-04T14:16:23Z</time>
      </trkpt>
      <trkpt lat="44.31315" lon="4.54373">
        <ele>242</ele>
        <time>2021-07-04T14:16:24Z</time>
      </trkpt>
      <trkpt lat="44.31303" lon="4.54384">
        <ele>242</ele>
        <time>2021-07-04T14:16:28Z</time>
      </trkpt>
      <trkpt lat="44.31296" lon="4.54385">
        <ele>242</ele>
        <time>2021-07-04T14:16:29Z</time>
      </trkpt>
      <trkpt lat="44.31286" lon="4.54403">
        <ele>243</ele>
        <time>2021-07-04T14:16:33Z</time>
      </trkpt>
      <trkpt lat="44.31279" lon="4.54408">
        <ele>243</ele>
        <time>2021-07-04T14:16:35Z</time>
      </trkpt>
      <trkpt lat="44.31268" lon="4.54431">
        <ele>242</ele>
        <time>2021-07-04T14:16:39Z</time>
      </trkpt>
      <trkpt lat="44.31261" lon="4.54435">
        <ele>241</ele>
        <time>2021-07-04T14:16:41Z</time>
      </trkpt>
      <trkpt lat="44.31255" lon="4.54453">
        <ele>240</ele>
        <time>2021-07-04T14:16:45Z</time>
      </trkpt>
      <trkpt lat="44.31249" lon="4.54459">
        <ele>240</ele>
        <time>2021-07-04T14:16:46Z</time>
      </trkpt>
      <trkpt lat="44.31244" lon="4.54469">
        <ele>239</ele>
        <time>2021-07-04T14:16:48Z</time>
      </trkpt>
      <trkpt lat="44.3124" lon="4.54473">
        <ele>239</ele>
        <time>2021-07-04T14:16:49Z</time>
      </trkpt>
      <trkpt lat="44.31237" lon="4.54465">
        <ele>239</ele>
        <time>2021-07-04T14:16:51Z</time>
      </trkpt>
      <trkpt lat="44.3124" lon="4.54473">
        <ele>239</ele>
        <time>2021-07-04T14:16:52Z</time>
      </trkpt>
      <trkpt lat="44.31216" lon="4.54496">
        <ele>237</ele>
        <time>2021-07-04T14:16:59Z</time>
      </trkpt>
      <trkpt lat="44.31211" lon="4.54508">
        <ele>235</ele>
        <time>2021-07-04T14:17:02Z</time>
      </trkpt>
      <trkpt lat="44.31205" lon="4.54515">
        <ele>234</ele>
        <time>2021-07-04T14:17:03Z</time>
      </trkpt>
      <trkpt lat="44.312" lon="4.54515">
        <ele>234</ele>
        <time>2021-07-04T14:17:05Z</time>
      </trkpt>
      <trkpt lat="44.31192" lon="4.5453">
        <ele>231</ele>
        <time>2021-07-04T14:17:08Z</time>
      </trkpt>
      <trkpt lat="44.31171" lon="4.54558">
        <ele>228</ele>
        <time>2021-07-04T14:17:15Z</time>
      </trkpt>
      <trkpt lat="44.31159" lon="4.5458">
        <ele>225</ele>
        <time>2021-07-04T14:17:19Z</time>
      </trkpt>
      <trkpt lat="44.31126" lon="4.54613">
        <ele>217</ele>
        <time>2021-07-04T14:17:29Z</time>
      </trkpt>
      <trkpt lat="44.31107" lon="4.54626">
        <ele>214</ele>
        <time>2021-07-04T14:17:34Z</time>
      </trkpt>
      <trkpt lat="44.31096" lon="4.54639">
        <ele>212</ele>
        <time>2021-07-04T14:17:37Z</time>
      </trkpt>
      <trkpt lat="44.31066" lon="4.54661">
        <ele>208</ele>
        <time>2021-07-04T14:17:45Z</time>
      </trkpt>
      <trkpt lat="44.31046" lon="4.54706">
        <ele>200</ele>
        <time>2021-07-04T14:17:54Z</time>
      </trkpt>
      <trkpt lat="44.31038" lon="4.54734">
        <ele>197</ele>
        <time>2021-07-04T14:17:59Z</time>
      </trkpt>
      <trkpt lat="44.31025" lon="4.54753">
        <ele>196</ele>
        <time>2021-07-04T14:18:03Z</time>
      </trkpt>
      <trkpt lat="44.31003" lon="4.54833">
        <ele>188</ele>
        <time>2021-07-04T14:18:17Z</time>
      </trkpt>
      <trkpt lat="44.31002" lon="4.54846">
        <ele>186</ele>
        <time>2021-07-04T14:18:20Z</time>
      </trkpt>
      <trkpt lat="44.30993" lon="4.5486">
        <ele>184</ele>
        <time>2021-07-04T14:18:23Z</time>
      </trkpt>
      <trkpt lat="44.30983" lon="4.54884">
        <ele>181</ele>
        <time>2021-07-04T14:18:27Z</time>
      </trkpt>
      <trkpt lat="44.30965" lon="4.54909">
        <ele>178</ele>
        <time>2021-07-04T14:18:33Z</time>
      </trkpt>
      <trkpt lat="44.30952" lon="4.54922">
        <ele>176</ele>
        <time>2021-07-04T14:18:37Z</time>
      </trkpt>
      <trkpt lat="44.30946" lon="4.54938">
        <ele>173</ele>
        <time>2021-07-04T14:18:40Z</time>
      </trkpt>
      <trkpt lat="44.30938" lon="4.54941">
        <ele>173</ele>
        <time>2021-07-04T14:18:42Z</time>
      </trkpt>
      <trkpt lat="44.30934" lon="4.54947">
        <ele>172</ele>
        <time>2021-07-04T14:18:43Z</time>
      </trkpt>
      <trkpt lat="44.30917" lon="4.54954">
        <ele>173</ele>
        <time>2021-07-04T14:18:48Z</time>
      </trkpt>
      <trkpt lat="44.30911" lon="4.54968">
        <ele>170</ele>
        <time>2021-07-04T14:18:50Z</time>
      </trkpt>
      <trkpt lat="44.30898" lon="4.54974">
        <ele>169</ele>
        <time>2021-07-04T14:18:53Z</time>
      </trkpt>
      <trkpt lat="44.30892" lon="4.54981">
        <ele>168</ele>
        <time>2021-07-04T14:18:55Z</time>
      </trkpt>
      <trkpt lat="44.30886" lon="4.54981">
        <ele>168</ele>
        <time>2021-07-04T14:18:57Z</time>
      </trkpt>
      <trkpt lat="44.30881" lon="4.54985">
        <ele>167</ele>
        <time>2021-07-04T14:18:58Z</time>
      </trkpt>
      <trkpt lat="44.3087" lon="4.54988">
        <ele>167</ele>
        <time>2021-07-04T14:19:01Z</time>
      </trkpt>
      <trkpt lat="44.30848" lon="4.55014">
        <ele>164</ele>
        <time>2021-07-04T14:19:07Z</time>
      </trkpt>
      <trkpt lat="44.30857" lon="4.55048">
        <ele>159</ele>
        <time>2021-07-04T14:19:13Z</time>
      </trkpt>
      <trkpt lat="44.30855" lon="4.55072">
        <ele>156</ele>
        <time>2021-07-04T14:19:17Z</time>
      </trkpt>
      <trkpt lat="44.3085" lon="4.55084">
        <ele>155</ele>
        <time>2021-07-04T14:19:20Z</time>
      </trkpt>
      <trkpt lat="44.30844" lon="4.55082">
        <ele>156</ele>
        <time>2021-07-04T14:19:21Z</time>
      </trkpt>
      <trkpt lat="44.30838" lon="4.55085">
        <ele>157</ele>
        <time>2021-07-04T14:19:23Z</time>
      </trkpt>
      <trkpt lat="44.30838" lon="4.55111">
        <ele>155</ele>
        <time>2021-07-04T14:19:27Z</time>
      </trkpt>
      <trkpt lat="44.30842" lon="4.55129">
        <ele>152</ele>
        <time>2021-07-04T14:19:30Z</time>
      </trkpt>
      <trkpt lat="44.30835" lon="4.55145">
        <ele>152</ele>
        <time>2021-07-04T14:19:33Z</time>
      </trkpt>
      <trkpt lat="44.30831" lon="4.55145">
        <ele>153</ele>
        <time>2021-07-04T14:19:34Z</time>
      </trkpt>
      <trkpt lat="44.30833" lon="4.55172">
        <ele>149</ele>
        <time>2021-07-04T14:19:39Z</time>
      </trkpt>
      <trkpt lat="44.30795" lon="4.55213">
        <ele>136</ele>
        <time>2021-07-04T14:19:50Z</time>
      </trkpt>
      <trkpt lat="44.30766" lon="4.55251">
        <ele>136</ele>
        <time>2021-07-04T14:19:59Z</time>
      </trkpt>
      <trkpt lat="44.30748" lon="4.55262">
        <ele>137</ele>
        <time>2021-07-04T14:20:04Z</time>
      </trkpt>
      <trkpt lat="44.30734" lon="4.55267">
        <ele>134</ele>
        <time>2021-07-04T14:20:07Z</time>
      </trkpt>
      <trkpt lat="44.3072" lon="4.55289">
        <ele>128</ele>
        <time>2021-07-04T14:20:12Z</time>
      </trkpt>
      <trkpt lat="44.30697" lon="4.55308">
        <ele>126</ele>
        <time>2021-07-04T14:20:18Z</time>
      </trkpt>
      <trkpt lat="44.30689" lon="4.55328">
        <ele>124</ele>
        <time>2021-07-04T14:20:22Z</time>
      </trkpt>
      <trkpt lat="44.30665" lon="4.5534">
        <ele>126</ele>
        <time>2021-07-04T14:20:28Z</time>
      </trkpt>
      <trkpt lat="44.30648" lon="4.55364">
        <ele>117</ele>
        <time>2021-07-04T14:20:34Z</time>
      </trkpt>
      <trkpt lat="44.30635" lon="4.55389">
        <ele>110</ele>
        <time>2021-07-04T14:20:39Z</time>
      </trkpt>
      <trkpt lat="44.30616" lon="4.55397">
        <ele>109</ele>
        <time>2021-07-04T14:20:44Z</time>
      </trkpt>
      <trkpt lat="44.3058" lon="4.55421">
        <ele>109</ele>
        <time>2021-07-04T14:20:53Z</time>
      </trkpt>
      <trkpt lat="44.30566" lon="4.55434">
        <ele>104</ele>
        <time>2021-07-04T14:20:57Z</time>
      </trkpt>
      <trkpt lat="44.30562" lon="4.5545">
        <ele>98</ele>
        <time>2021-07-04T14:21:00Z</time>
      </trkpt>
      <trkpt lat="44.30549" lon="4.55451">
        <ele>98</ele>
        <time>2021-07-04T14:21:03Z</time>
      </trkpt>
      <trkpt lat="44.3054" lon="4.55465">
        <ele>94</ele>
        <time>2021-07-04T14:21:06Z</time>
      </trkpt>
      <trkpt lat="44.30522" lon="4.55468">
        <ele>94</ele>
        <time>2021-07-04T14:21:10Z</time>
      </trkpt>
      <trkpt lat="44.30508" lon="4.55486">
        <ele>92</ele>
        <time>2021-07-04T14:21:15Z</time>
      </trkpt>
      <trkpt lat="44.30471" lon="4.55511">
        <ele>90</ele>
        <time>2021-07-04T14:21:24Z</time>
      </trkpt>
      <trkpt lat="44.30465" lon="4.55531">
        <ele>88</ele>
        <time>2021-07-04T14:21:28Z</time>
      </trkpt>
      <trkpt lat="44.30443" lon="4.55534">
        <ele>90</ele>
        <time>2021-07-04T14:21:33Z</time>
      </trkpt>
      <trkpt lat="44.30443" lon="4.55564">
        <ele>86</ele>
        <time>2021-07-04T14:21:38Z</time>
      </trkpt>
      <trkpt lat="44.30416" lon="4.55567">
        <ele>91</ele>
        <time>2021-07-04T14:21:44Z</time>
      </trkpt>
      <trkpt lat="44.30417" lon="4.55577">
        <ele>90</ele>
        <time>2021-07-04T14:21:46Z</time>
      </trkpt>
      <trkpt lat="44.30392" lon="4.55573">
        <ele>92</ele>
        <time>2021-07-04T14:21:52Z</time>
      </trkpt>
      <trkpt lat="44.30401" lon="4.55613">
        <ele>84</ele>
        <time>2021-07-04T14:21:59Z</time>
      </trkpt>
      <trkpt lat="44.30392" lon="4.55626">
        <ele>83</ele>
        <time>2021-07-04T14:22:02Z</time>
      </trkpt>
      <trkpt lat="44.30364" lon="4.55641">
        <ele>85</ele>
        <time>2021-07-04T14:22:09Z</time>
      </trkpt>
      <trkpt lat="44.30352" lon="4.55656">
        <ele>86</ele>
        <time>2021-07-04T14:22:13Z</time>
      </trkpt>
      <trkpt lat="44.30322" lon="4.55672">
        <ele>88</ele>
        <time>2021-07-04T14:22:20Z</time>
      </trkpt>
      <trkpt lat="44.30304" lon="4.55676">
        <ele>87</ele>
        <time>2021-07-04T14:22:24Z</time>
      </trkpt>
      <trkpt lat="44.30301" lon="4.55664">
        <ele>90</ele>
        <time>2021-07-04T14:22:27Z</time>
      </trkpt>
      <trkpt lat="44.30291" lon="4.55659">
        <ele>91</ele>
        <time>2021-07-04T14:22:29Z</time>
      </trkpt>
      <trkpt lat="44.30271" lon="4.55668">
        <ele>91</ele>
        <time>2021-07-04T14:22:34Z</time>
      </trkpt>
      <trkpt lat="44.30271" lon="4.55645">
        <ele>92</ele>
        <time>2021-07-04T14:22:38Z</time>
      </trkpt>
      <trkpt lat="44.30281" lon="4.55615">
        <ele>92</ele>
        <time>2021-07-04T14:22:43Z</time>
      </trkpt>
      <trkpt lat="44.30233" lon="4.5554">
        <ele>93</ele>
        <time>2021-07-04T14:23:00Z</time>
      </trkpt>
      <trkpt lat="44.30198" lon="4.55497">
        <ele>94</ele>
        <time>2021-07-04T14:23:11Z</time>
      </trkpt>
      <trkpt lat="44.30182" lon="4.55486">
        <ele>95</ele>
        <time>2021-07-04T14:23:15Z</time>
      </trkpt>
      <trkpt lat="44.30137" lon="4.55481">
        <ele>96</ele>
        <time>2021-07-04T14:23:26Z</time>
      </trkpt>
      <trkpt lat="44.3013" lon="4.55447">
        <ele>95</ele>
        <time>2021-07-04T14:23:32Z</time>
      </trkpt>
      <trkpt lat="44.3012" lon="4.55356">
        <ele>96</ele>
        <time>2021-07-04T14:23:47Z</time>
      </trkpt>
      <trkpt lat="44.30117" lon="4.553">
        <ele>97</ele>
        <time>2021-07-04T14:23:56Z</time>
      </trkpt>
      <trkpt lat="44.30082" lon="4.55295">
        <ele>95</ele>
        <time>2021-07-04T14:24:05Z</time>
      </trkpt>
      <trkpt lat="44.30068" lon="4.55283">
        <ele>96</ele>
        <time>2021-07-04T14:24:08Z</time>
      </trkpt>
      <trkpt lat="44.30051" lon="4.55262">
        <ele>96</ele>
        <time>2021-07-04T14:24:14Z</time>
      </trkpt>
      <trkpt lat="44.30031" lon="4.55247">
        <ele>97</ele>
        <time>2021-07-04T14:24:19Z</time>
      </trkpt>
      <trkpt lat="44.29985" lon="4.55232">
        <ele>97</ele>
        <time>2021-07-04T14:24:30Z</time>
      </trkpt>
      <trkpt lat="44.29972" lon="4.55222">
        <ele>97</ele>
        <time>2021-07-04T14:24:34Z</time>
      </trkpt>
      <trkpt lat="44.29889" lon="4.55132">
        <ele>94</ele>
        <time>2021-07-04T14:24:58Z</time>
      </trkpt>
      <trkpt lat="44.29858" lon="4.55111">
        <ele>93</ele>
        <time>2021-07-04T14:25:06Z</time>
      </trkpt>
      <trkpt lat="44.29853" lon="4.5511">
        <ele>93</ele>
        <time>2021-07-04T14:25:07Z</time>
      </trkpt>
      <trkpt lat="44.29848" lon="4.55082">
        <ele>93</ele>
        <time>2021-07-04T14:25:12Z</time>
      </trkpt>
      <trkpt lat="44.29826" lon="4.55025">
        <ele>93</ele>
        <time>2021-07-04T14:25:23Z</time>
      </trkpt>
      <trkpt lat="44.29819" lon="4.54983">
        <ele>93</ele>
        <time>2021-07-04T14:25:30Z</time>
      </trkpt>
      <trkpt lat="44.29814" lon="4.54897">
        <ele>94</ele>
        <time>2021-07-04T14:25:45Z</time>
      </trkpt>
      <trkpt lat="44.29817" lon="4.54822">
        <ele>95</ele>
        <time>2021-07-04T14:25:57Z</time>
      </trkpt>
      <trkpt lat="44.29831" lon="4.5475">
        <ele>94</ele>
        <time>2021-07-04T14:26:10Z</time>
      </trkpt>
      <trkpt lat="44.29831" lon="4.54727">
        <ele>95</ele>
        <time>2021-07-04T14:26:13Z</time>
      </trkpt>
      <trkpt lat="44.29827" lon="4.54715">
        <ele>95</ele>
        <time>2021-07-04T14:26:16Z</time>
      </trkpt>
      <trkpt lat="44.29806" lon="4.54692">
        <ele>95</ele>
        <time>2021-07-04T14:26:22Z</time>
      </trkpt>
      <trkpt lat="44.29794" lon="4.54674">
        <ele>95</ele>
        <time>2021-07-04T14:26:26Z</time>
      </trkpt>
      <trkpt lat="44.29754" lon="4.54594">
        <ele>95</ele>
        <time>2021-07-04T14:26:42Z</time>
      </trkpt>
      <trkpt lat="44.29739" lon="4.54555">
        <ele>94</ele>
        <time>2021-07-04T14:26:50Z</time>
      </trkpt>
      <trkpt lat="44.29726" lon="4.54502">
        <ele>93</ele>
        <time>2021-07-04T14:26:59Z</time>
      </trkpt>
      <trkpt lat="44.29724" lon="4.54437">
        <ele>95</ele>
        <time>2021-07-04T14:27:10Z</time>
      </trkpt>
      <trkpt lat="44.29699" lon="4.54385">
        <ele>96</ele>
        <time>2021-07-04T14:27:20Z</time>
      </trkpt>
      <trkpt lat="44.29697" lon="4.54372">
        <ele>96</ele>
        <time>2021-07-04T14:27:23Z</time>
      </trkpt>
      <trkpt lat="44.29672" lon="4.54064">
        <ele>98</ele>
        <time>2021-07-04T14:28:14Z</time>
      </trkpt>
      <trkpt lat="44.29674" lon="4.54025">
        <ele>98</ele>
        <time>2021-07-04T14:28:21Z</time>
      </trkpt>
      <trkpt lat="44.29668" lon="4.5397">
        <ele>99</ele>
        <time>2021-07-04T14:28:30Z</time>
      </trkpt>
      <trkpt lat="44.29669" lon="4.53925">
        <ele>100</ele>
        <time>2021-07-04T14:28:38Z</time>
      </trkpt>
      <trkpt lat="44.29666" lon="4.53892">
        <ele>101</ele>
        <time>2021-07-04T14:28:43Z</time>
      </trkpt>
      <trkpt lat="44.29653" lon="4.53819">
        <ele>102</ele>
        <time>2021-07-04T14:28:56Z</time>
      </trkpt>
      <trkpt lat="44.29651" lon="4.53773">
        <ele>103</ele>
        <time>2021-07-04T14:29:04Z</time>
      </trkpt>
      <trkpt lat="44.29654" lon="4.53716">
        <ele>103</ele>
        <time>2021-07-04T14:29:13Z</time>
      </trkpt>
      <trkpt lat="44.29654" lon="4.53638">
        <ele>103</ele>
        <time>2021-07-04T14:29:26Z</time>
      </trkpt>
      <trkpt lat="44.29659" lon="4.53624">
        <ele>104</ele>
        <time>2021-07-04T14:29:29Z</time>
      </trkpt>
      <trkpt lat="44.29652" lon="4.53586">
        <ele>105</ele>
        <time>2021-07-04T14:29:35Z</time>
      </trkpt>
      <trkpt lat="44.29649" lon="4.5358">
        <ele>105</ele>
        <time>2021-07-04T14:29:37Z</time>
      </trkpt>
      <trkpt lat="44.29642" lon="4.53572">
        <ele>105</ele>
        <time>2021-07-04T14:29:39Z</time>
      </trkpt>
      <trkpt lat="44.29632" lon="4.53568">
        <ele>104</ele>
        <time>2021-07-04T14:29:41Z</time>
      </trkpt>
      <trkpt lat="44.29512" lon="4.53582">
        <ele>100</ele>
        <time>2021-07-04T14:30:09Z</time>
      </trkpt>
      <trkpt lat="44.29463" lon="4.53572">
        <ele>97</ele>
        <time>2021-07-04T14:30:21Z</time>
      </trkpt>
      <trkpt lat="44.29445" lon="4.53567">
        <ele>96</ele>
        <time>2021-07-04T14:30:25Z</time>
      </trkpt>
      <trkpt lat="44.29344" lon="4.53489">
        <ele>88</ele>
        <time>2021-07-04T14:30:52Z</time>
      </trkpt>
      <trkpt lat="44.29327" lon="4.53485">
        <ele>87</ele>
        <time>2021-07-04T14:30:56Z</time>
      </trkpt>
      <trkpt lat="44.29299" lon="4.53495">
        <ele>85</ele>
        <time>2021-07-04T14:31:03Z</time>
      </trkpt>
      <trkpt lat="44.29284" lon="4.53496">
        <ele>84</ele>
        <time>2021-07-04T14:31:06Z</time>
      </trkpt>
      <trkpt lat="44.29264" lon="4.53489">
        <ele>83</ele>
        <time>2021-07-04T14:31:11Z</time>
      </trkpt>
      <trkpt lat="44.29217" lon="4.53465">
        <ele>87</ele>
        <time>2021-07-04T14:31:23Z</time>
      </trkpt>
      <trkpt lat="44.29203" lon="4.53467">
        <ele>88</ele>
        <time>2021-07-04T14:31:26Z</time>
      </trkpt>
      <trkpt lat="44.29182" lon="4.53481">
        <ele>88</ele>
        <time>2021-07-04T14:31:32Z</time>
      </trkpt>
      <trkpt lat="44.2917" lon="4.53484">
        <ele>88</ele>
        <time>2021-07-04T14:31:34Z</time>
      </trkpt>
      <trkpt lat="44.29149" lon="4.53485">
        <ele>88</ele>
        <time>2021-07-04T14:31:39Z</time>
      </trkpt>
      <trkpt lat="44.29107" lon="4.53473">
        <ele>91</ele>
        <time>2021-07-04T14:31:49Z</time>
      </trkpt>
      <trkpt lat="44.29064" lon="4.53464">
        <ele>92</ele>
        <time>2021-07-04T14:32:00Z</time>
      </trkpt>
      <trkpt lat="44.2902" lon="4.53449">
        <ele>92</ele>
        <time>2021-07-04T14:32:10Z</time>
      </trkpt>
      <trkpt lat="44.28985" lon="4.5342">
        <ele>91</ele>
        <time>2021-07-04T14:32:20Z</time>
      </trkpt>
      <trkpt lat="44.28961" lon="4.53392">
        <ele>92</ele>
        <time>2021-07-04T14:32:27Z</time>
      </trkpt>
      <trkpt lat="44.28939" lon="4.53373">
        <ele>92</ele>
        <time>2021-07-04T14:32:33Z</time>
      </trkpt>
      <trkpt lat="44.28932" lon="4.53364">
        <ele>92</ele>
        <time>2021-07-04T14:32:35Z</time>
      </trkpt>
      <trkpt lat="44.2891" lon="4.53315">
        <ele>93</ele>
        <time>2021-07-04T14:32:45Z</time>
      </trkpt>
      <trkpt lat="44.28894" lon="4.53272">
        <ele>94</ele>
        <time>2021-07-04T14:32:53Z</time>
      </trkpt>
      <trkpt lat="44.28881" lon="4.53246">
        <ele>95</ele>
        <time>2021-07-04T14:32:58Z</time>
      </trkpt>
      <trkpt lat="44.28867" lon="4.53226">
        <ele>97</ele>
        <time>2021-07-04T14:33:03Z</time>
      </trkpt>
      <trkpt lat="44.28824" lon="4.53185">
        <ele>100</ele>
        <time>2021-07-04T14:33:15Z</time>
      </trkpt>
      <trkpt lat="44.28785" lon="4.53153">
        <ele>101</ele>
        <time>2021-07-04T14:33:26Z</time>
      </trkpt>
      <trkpt lat="44.28731" lon="4.53121">
        <ele>101</ele>
        <time>2021-07-04T14:33:39Z</time>
      </trkpt>
      <trkpt lat="44.28712" lon="4.53097">
        <ele>103</ele>
        <time>2021-07-04T14:33:45Z</time>
      </trkpt>
      <trkpt lat="44.28708" lon="4.53082">
        <ele>104</ele>
        <time>2021-07-04T14:33:48Z</time>
      </trkpt>
      <trkpt lat="44.28716" lon="4.53077">
        <ele>105</ele>
        <time>2021-07-04T14:33:50Z</time>
      </trkpt>
      <trkpt lat="44.28726" lon="4.53077">
        <ele>105</ele>
        <time>2021-07-04T14:33:52Z</time>
      </trkpt>
      <trkpt lat="44.28766" lon="4.53093">
        <ele>106</ele>
        <time>2021-07-04T14:34:02Z</time>
      </trkpt>
      <trkpt lat="44.28779" lon="4.53095">
        <ele>106</ele>
        <time>2021-07-04T14:34:05Z</time>
      </trkpt>
      <trkpt lat="44.28794" lon="4.5309">
        <ele>108</ele>
        <time>2021-07-04T14:34:09Z</time>
      </trkpt>
      <trkpt lat="44.28818" lon="4.53041">
        <ele>112</ele>
        <time>2021-07-04T14:34:19Z</time>
      </trkpt>
      <trkpt lat="44.28828" lon="4.53035">
        <ele>113</ele>
        <time>2021-07-04T14:34:21Z</time>
      </trkpt>
      <trkpt lat="44.28857" lon="4.53027">
        <ele>116</ele>
        <time>2021-07-04T14:34:28Z</time>
      </trkpt>
      <trkpt lat="44.28876" lon="4.53012">
        <ele>118</ele>
        <time>2021-07-04T14:34:33Z</time>
      </trkpt>
      <trkpt lat="44.28902" lon="4.52982">
        <ele>120</ele>
        <time>2021-07-04T14:34:41Z</time>
      </trkpt>
      <trkpt lat="44.28915" lon="4.52977">
        <ele>121</ele>
        <time>2021-07-04T14:34:44Z</time>
      </trkpt>
      <trkpt lat="44.28945" lon="4.52984">
        <ele>122</ele>
        <time>2021-07-04T14:34:51Z</time>
      </trkpt>
      <trkpt lat="44.28958" lon="4.52981">
        <ele>123</ele>
        <time>2021-07-04T14:34:54Z</time>
      </trkpt>
      <trkpt lat="44.28995" lon="4.52943">
        <ele>126</ele>
        <time>2021-07-04T14:35:05Z</time>
      </trkpt>
      <trkpt lat="44.29017" lon="4.52896">
        <ele>132</ele>
        <time>2021-07-04T14:35:15Z</time>
      </trkpt>
      <trkpt lat="44.29027" lon="4.52868">
        <ele>136</ele>
        <time>2021-07-04T14:35:20Z</time>
      </trkpt>
      <trkpt lat="44.29032" lon="4.52861">
        <ele>137</ele>
        <time>2021-07-04T14:35:21Z</time>
      </trkpt>
      <trkpt lat="44.29069" lon="4.52841">
        <ele>142</ele>
        <time>2021-07-04T14:35:31Z</time>
      </trkpt>
      <trkpt lat="44.29076" lon="4.52832">
        <ele>143</ele>
        <time>2021-07-04T14:35:33Z</time>
      </trkpt>
      <trkpt lat="44.29082" lon="4.52816">
        <ele>144</ele>
        <time>2021-07-04T14:35:36Z</time>
      </trkpt>
      <trkpt lat="44.29088" lon="4.52812">
        <ele>144</ele>
        <time>2021-07-04T14:35:37Z</time>
      </trkpt>
      <trkpt lat="44.29119" lon="4.52819">
        <ele>140</ele>
        <time>2021-07-04T14:35:45Z</time>
      </trkpt>
      <trkpt lat="44.29137" lon="4.52835">
        <ele>138</ele>
        <time>2021-07-04T14:35:50Z</time>
      </trkpt>
      <trkpt lat="44.29153" lon="4.52856">
        <ele>138</ele>
        <time>2021-07-04T14:35:55Z</time>
      </trkpt>
      <trkpt lat="44.29157" lon="4.52854">
        <ele>137</ele>
        <time>2021-07-04T14:35:56Z</time>
      </trkpt>
      <trkpt lat="44.29157" lon="4.52848">
        <ele>137</ele>
        <time>2021-07-04T14:35:57Z</time>
      </trkpt>
      <trkpt lat="44.29147" lon="4.52827">
        <ele>137</ele>
        <time>2021-07-04T14:36:01Z</time>
      </trkpt>
      <trkpt lat="44.29149" lon="4.52812">
        <ele>137</ele>
        <time>2021-07-04T14:36:04Z</time>
      </trkpt>
      <trkpt lat="44.2916" lon="4.52786">
        <ele>136</ele>
        <time>2021-07-04T14:36:09Z</time>
      </trkpt>
      <trkpt lat="44.29198" lon="4.5273">
        <ele>130</ele>
        <time>2021-07-04T14:36:22Z</time>
      </trkpt>
      <trkpt lat="44.29222" lon="4.5271">
        <ele>126</ele>
        <time>2021-07-04T14:36:28Z</time>
      </trkpt>
      <trkpt lat="44.29241" lon="4.52685">
        <ele>124</ele>
        <time>2021-07-04T14:36:34Z</time>
      </trkpt>
      <trkpt lat="44.29254" lon="4.52683">
        <ele>121</ele>
        <time>2021-07-04T14:36:37Z</time>
      </trkpt>
      <trkpt lat="44.29333" lon="4.52682">
        <ele>113</ele>
        <time>2021-07-04T14:36:56Z</time>
      </trkpt>
      <trkpt lat="44.29372" lon="4.52686">
        <ele>111</ele>
        <time>2021-07-04T14:37:05Z</time>
      </trkpt>
      <trkpt lat="44.29385" lon="4.5269">
        <ele>110</ele>
        <time>2021-07-04T14:37:08Z</time>
      </trkpt>
      <trkpt lat="44.29413" lon="4.5269">
        <ele>109</ele>
        <time>2021-07-04T14:37:15Z</time>
      </trkpt>
      <trkpt lat="44.29452" lon="4.52679">
        <ele>109</ele>
        <time>2021-07-04T14:37:24Z</time>
      </trkpt>
      <trkpt lat="44.29535" lon="4.52685">
        <ele>114</ele>
        <time>2021-07-04T14:37:43Z</time>
      </trkpt>
      <trkpt lat="44.29539" lon="4.52653">
        <ele>114</ele>
        <time>2021-07-04T14:37:49Z</time>
      </trkpt>
      <trkpt lat="44.29547" lon="4.52622">
        <ele>115</ele>
        <time>2021-07-04T14:37:54Z</time>
      </trkpt>
      <trkpt lat="44.29541" lon="4.52576">
        <ele>113</ele>
        <time>2021-07-04T14:38:02Z</time>
      </trkpt>
      <trkpt lat="44.29544" lon="4.52541">
        <ele>112</ele>
        <time>2021-07-04T14:38:08Z</time>
      </trkpt>
      <trkpt lat="44.29566" lon="4.52479">
        <ele>110</ele>
        <time>2021-07-04T14:38:19Z</time>
      </trkpt>
      <trkpt lat="44.2957" lon="4.52419">
        <ele>107</ele>
        <time>2021-07-04T14:38:30Z</time>
      </trkpt>
      <trkpt lat="44.29576" lon="4.52409">
        <ele>107</ele>
        <time>2021-07-04T14:38:32Z</time>
      </trkpt>
      <trkpt lat="44.29588" lon="4.52401">
        <ele>107</ele>
        <time>2021-07-04T14:38:35Z</time>
      </trkpt>
      <trkpt lat="44.29578" lon="4.52383">
        <ele>109</ele>
        <time>2021-07-04T14:38:39Z</time>
      </trkpt>
      <trkpt lat="44.29578" lon="4.52351">
        <ele>112</ele>
        <time>2021-07-04T14:38:44Z</time>
      </trkpt>
      <trkpt lat="44.29584" lon="4.52332">
        <ele>113</ele>
        <time>2021-07-04T14:38:47Z</time>
      </trkpt>
      <trkpt lat="44.2958" lon="4.52314">
        <ele>114</ele>
        <time>2021-07-04T14:38:51Z</time>
      </trkpt>
      <trkpt lat="44.29581" lon="4.52291">
        <ele>116</ele>
        <time>2021-07-04T14:38:54Z</time>
      </trkpt>
      <trkpt lat="44.29599" lon="4.52207">
        <ele>119</ele>
        <time>2021-07-04T14:39:09Z</time>
      </trkpt>
      <trkpt lat="44.29676" lon="4.51997">
        <ele>123</ele>
        <time>2021-07-04T14:39:49Z</time>
      </trkpt>
      <trkpt lat="44.29694" lon="4.51934">
        <ele>122</ele>
        <time>2021-07-04T14:40:00Z</time>
      </trkpt>
      <trkpt lat="44.29699" lon="4.51901">
        <ele>121</ele>
        <time>2021-07-04T14:40:06Z</time>
      </trkpt>
      <trkpt lat="44.29729" lon="4.51809">
        <ele>116</ele>
        <time>2021-07-04T14:40:22Z</time>
      </trkpt>
      <trkpt lat="44.29754" lon="4.51705">
        <ele>116</ele>
        <time>2021-07-04T14:40:41Z</time>
      </trkpt>
      <trkpt lat="44.29791" lon="4.5164">
        <ele>122</ele>
        <time>2021-07-04T14:40:55Z</time>
      </trkpt>
      <trkpt lat="44.2979" lon="4.5161">
        <ele>122</ele>
        <time>2021-07-04T14:41:00Z</time>
      </trkpt>
      <trkpt lat="44.29798" lon="4.51547">
        <ele>123</ele>
        <time>2021-07-04T14:41:10Z</time>
      </trkpt>
      <trkpt lat="44.29803" lon="4.5138">
        <ele>127</ele>
        <time>2021-07-04T14:41:38Z</time>
      </trkpt>
      <trkpt lat="44.29798" lon="4.51334">
        <ele>127</ele>
        <time>2021-07-04T14:41:46Z</time>
      </trkpt>
      <trkpt lat="44.29808" lon="4.51325">
        <ele>128</ele>
        <time>2021-07-04T14:41:49Z</time>
      </trkpt>
      <trkpt lat="44.29797" lon="4.51204">
        <ele>130</ele>
        <time>2021-07-04T14:42:09Z</time>
      </trkpt>
      <trkpt lat="44.29788" lon="4.51151">
        <ele>131</ele>
        <time>2021-07-04T14:42:18Z</time>
      </trkpt>
      <trkpt lat="44.29778" lon="4.5105">
        <ele>134</ele>
        <time>2021-07-04T14:42:35Z</time>
      </trkpt>
      <trkpt lat="44.29775" lon="4.51038">
        <ele>134</ele>
        <time>2021-07-04T14:42:37Z</time>
      </trkpt>
      <trkpt lat="44.29776" lon="4.51024">
        <ele>135</ele>
        <time>2021-07-04T14:42:40Z</time>
      </trkpt>
      <trkpt lat="44.29772" lon="4.50981">
        <ele>134</ele>
        <time>2021-07-04T14:42:47Z</time>
      </trkpt>
      <trkpt lat="44.29776" lon="4.50907">
        <ele>132</ele>
        <time>2021-07-04T14:42:59Z</time>
      </trkpt>
      <trkpt lat="44.29787" lon="4.50816">
        <ele>131</ele>
        <time>2021-07-04T14:43:15Z</time>
      </trkpt>
      <trkpt lat="44.29807" lon="4.50602">
        <ele>135</ele>
        <time>2021-07-04T14:43:51Z</time>
      </trkpt>
      <trkpt lat="44.29868" lon="4.50322">
        <ele>139</ele>
        <time>2021-07-04T14:44:40Z</time>
      </trkpt>
      <trkpt lat="44.29888" lon="4.50216">
        <ele>137</ele>
        <time>2021-07-04T14:44:58Z</time>
      </trkpt>
      <trkpt lat="44.29892" lon="4.50173">
        <ele>136</ele>
        <time>2021-07-04T14:45:05Z</time>
      </trkpt>
      <trkpt lat="44.29882" lon="4.50115">
        <ele>136</ele>
        <time>2021-07-04T14:45:15Z</time>
      </trkpt>
      <trkpt lat="44.29841" lon="4.49992">
        <ele>140</ele>
        <time>2021-07-04T14:45:38Z</time>
      </trkpt>
      <trkpt lat="44.29847" lon="4.49983">
        <ele>141</ele>
        <time>2021-07-04T14:45:40Z</time>
      </trkpt>
      <trkpt lat="44.29861" lon="4.49942">
        <ele>143</ele>
        <time>2021-07-04T14:45:48Z</time>
      </trkpt>
      <trkpt lat="44.29948" lon="4.49724">
        <ele>157</ele>
        <time>2021-07-04T14:46:30Z</time>
      </trkpt>
      <trkpt lat="44.29954" lon="4.49687">
        <ele>159</ele>
        <time>2021-07-04T14:46:36Z</time>
      </trkpt>
      <trkpt lat="44.29951" lon="4.4964">
        <ele>161</ele>
        <time>2021-07-04T14:46:44Z</time>
      </trkpt>
      <trkpt lat="44.29958" lon="4.49615">
        <ele>162</ele>
        <time>2021-07-04T14:46:48Z</time>
      </trkpt>
      <trkpt lat="44.29986" lon="4.49571">
        <ele>165</ele>
        <time>2021-07-04T14:46:58Z</time>
      </trkpt>
      <trkpt lat="44.30027" lon="4.49498">
        <ele>168</ele>
        <time>2021-07-04T14:47:14Z</time>
      </trkpt>
      <trkpt lat="44.30035" lon="4.49471">
        <ele>170</ele>
        <time>2021-07-04T14:47:18Z</time>
      </trkpt>
      <trkpt lat="44.30037" lon="4.49448">
        <ele>172</ele>
        <time>2021-07-04T14:47:22Z</time>
      </trkpt>
      <trkpt lat="44.30015" lon="4.49335">
        <ele>177</ele>
        <time>2021-07-04T14:47:42Z</time>
      </trkpt>
      <trkpt lat="44.30009" lon="4.49317">
        <ele>177</ele>
        <time>2021-07-04T14:47:45Z</time>
      </trkpt>
      <trkpt lat="44.29995" lon="4.49303">
        <ele>178</ele>
        <time>2021-07-04T14:47:49Z</time>
      </trkpt>
      <trkpt lat="44.29973" lon="4.49287">
        <ele>180</ele>
        <time>2021-07-04T14:47:55Z</time>
      </trkpt>
      <trkpt lat="44.29954" lon="4.49267">
        <ele>182</ele>
        <time>2021-07-04T14:48:01Z</time>
      </trkpt>
      <trkpt lat="44.29948" lon="4.49254">
        <ele>184</ele>
        <time>2021-07-04T14:48:03Z</time>
      </trkpt>
      <trkpt lat="44.29947" lon="4.4924">
        <ele>185</ele>
        <time>2021-07-04T14:48:06Z</time>
      </trkpt>
      <trkpt lat="44.29898" lon="4.49162">
        <ele>192</ele>
        <time>2021-07-04T14:48:23Z</time>
      </trkpt>
      <trkpt lat="44.29892" lon="4.49149">
        <ele>193</ele>
        <time>2021-07-04T14:48:25Z</time>
      </trkpt>
      <trkpt lat="44.29888" lon="4.49133">
        <ele>194</ele>
        <time>2021-07-04T14:48:28Z</time>
      </trkpt>
      <trkpt lat="44.29884" lon="4.49087">
        <ele>198</ele>
        <time>2021-07-04T14:48:36Z</time>
      </trkpt>
      <trkpt lat="44.29885" lon="4.49059">
        <ele>200</ele>
        <time>2021-07-04T14:48:41Z</time>
      </trkpt>
      <trkpt lat="44.29895" lon="4.49026">
        <ele>204</ele>
        <time>2021-07-04T14:48:47Z</time>
      </trkpt>
      <trkpt lat="44.29969" lon="4.48863">
        <ele>215</ele>
        <time>2021-07-04T14:49:19Z</time>
      </trkpt>
      <trkpt lat="44.2999" lon="4.48789">
        <ele>217</ele>
        <time>2021-07-04T14:49:32Z</time>
      </trkpt>
      <trkpt lat="44.30017" lon="4.48664">
        <ele>228</ele>
        <time>2021-07-04T14:49:54Z</time>
      </trkpt>
      <trkpt lat="44.30027" lon="4.48597">
        <ele>237</ele>
        <time>2021-07-04T14:50:06Z</time>
      </trkpt>
      <trkpt lat="44.30028" lon="4.48555">
        <ele>243</ele>
        <time>2021-07-04T14:50:13Z</time>
      </trkpt>
      <trkpt lat="44.30053" lon="4.48461">
        <ele>251</ele>
        <time>2021-07-04T14:50:29Z</time>
      </trkpt>
      <trkpt lat="44.30052" lon="4.48438">
        <ele>253</ele>
        <time>2021-07-04T14:50:33Z</time>
      </trkpt>
      <trkpt lat="44.30054" lon="4.48431">
        <ele>253</ele>
        <time>2021-07-04T14:50:34Z</time>
      </trkpt>
      <trkpt lat="44.30058" lon="4.48306">
        <ele>254</ele>
        <time>2021-07-04T14:50:55Z</time>
      </trkpt>
      <trkpt lat="44.30024" lon="4.4813">
        <ele>256</ele>
        <time>2021-07-04T14:51:26Z</time>
      </trkpt>
      <trkpt lat="44.30021" lon="4.48095">
        <ele>256</ele>
        <time>2021-07-04T14:51:32Z</time>
      </trkpt>
      <trkpt lat="44.30016" lon="4.48076">
        <ele>256</ele>
        <time>2021-07-04T14:51:35Z</time>
      </trkpt>
      <trkpt lat="44.29994" lon="4.48019">
        <ele>256</ele>
        <time>2021-07-04T14:51:46Z</time>
      </trkpt>
      <trkpt lat="44.2999" lon="4.47998">
        <ele>256</ele>
        <time>2021-07-04T14:51:50Z</time>
      </trkpt>
      <trkpt lat="44.29981" lon="4.47971">
        <ele>256</ele>
        <time>2021-07-04T14:51:55Z</time>
      </trkpt>
      <trkpt lat="44.29969" lon="4.47943">
        <ele>257</ele>
        <time>2021-07-04T14:52:00Z</time>
      </trkpt>
      <trkpt lat="44.29923" lon="4.47738">
        <ele>257</ele>
        <time>2021-07-04T14:52:36Z</time>
      </trkpt>
      <trkpt lat="44.2991" lon="4.47656">
        <ele>259</ele>
        <time>2021-07-04T14:52:50Z</time>
      </trkpt>
      <trkpt lat="44.29944" lon="4.47619">
        <ele>258</ele>
        <time>2021-07-04T14:53:00Z</time>
      </trkpt>
      <trkpt lat="44.29955" lon="4.47587">
        <ele>258</ele>
        <time>2021-07-04T14:53:06Z</time>
      </trkpt>
      <trkpt lat="44.29965" lon="4.4751">
        <ele>259</ele>
        <time>2021-07-04T14:53:19Z</time>
      </trkpt>
      <trkpt lat="44.30013" lon="4.47498">
        <ele>258</ele>
        <time>2021-07-04T14:53:30Z</time>
      </trkpt>
      <trkpt lat="44.30037" lon="4.47481">
        <ele>257</ele>
        <time>2021-07-04T14:53:37Z</time>
      </trkpt>
      <trkpt lat="44.30054" lon="4.47444">
        <ele>256</ele>
        <time>2021-07-04T14:53:44Z</time>
      </trkpt>
      <trkpt lat="44.30087" lon="4.4741">
        <ele>255</ele>
        <time>2021-07-04T14:53:54Z</time>
      </trkpt>
      <trkpt lat="44.30126" lon="4.47415">
        <ele>252</ele>
        <time>2021-07-04T14:54:03Z</time>
      </trkpt>
      <trkpt lat="44.30166" lon="4.47412">
        <ele>249</ele>
        <time>2021-07-04T14:54:12Z</time>
      </trkpt>
      <trkpt lat="44.30191" lon="4.47384">
        <ele>250</ele>
        <time>2021-07-04T14:54:20Z</time>
      </trkpt>
      <trkpt lat="44.30232" lon="4.47345">
        <ele>252</ele>
        <time>2021-07-04T14:54:31Z</time>
      </trkpt>
      <trkpt lat="44.30307" lon="4.47303">
        <ele>251</ele>
        <time>2021-07-04T14:54:50Z</time>
      </trkpt>
      <trkpt lat="44.3032" lon="4.47299">
        <ele>251</ele>
        <time>2021-07-04T14:54:53Z</time>
      </trkpt>
      <trkpt lat="44.30329" lon="4.47293">
        <ele>251</ele>
        <time>2021-07-04T14:54:55Z</time>
      </trkpt>
      <trkpt lat="44.30338" lon="4.47274">
        <ele>251</ele>
        <time>2021-07-04T14:54:59Z</time>
      </trkpt>
      <trkpt lat="44.30343" lon="4.47269">
        <ele>252</ele>
        <time>2021-07-04T14:55:01Z</time>
      </trkpt>
      <trkpt lat="44.3041" lon="4.4728">
        <ele>254</ele>
        <time>2021-07-04T14:55:16Z</time>
      </trkpt>
      <trkpt lat="44.3043" lon="4.47278">
        <ele>255</ele>
        <time>2021-07-04T14:55:21Z</time>
      </trkpt>
      <trkpt lat="44.30457" lon="4.47269">
        <ele>256</ele>
        <time>2021-07-04T14:55:28Z</time>
      </trkpt>
      <trkpt lat="44.3049" lon="4.47267">
        <ele>257</ele>
        <time>2021-07-04T14:55:35Z</time>
      </trkpt>
      <trkpt lat="44.30524" lon="4.47282">
        <ele>258</ele>
        <time>2021-07-04T14:55:44Z</time>
      </trkpt>
      <trkpt lat="44.30547" lon="4.473">
        <ele>258</ele>
        <time>2021-07-04T14:55:50Z</time>
      </trkpt>
      <trkpt lat="44.30562" lon="4.47302">
        <ele>259</ele>
        <time>2021-07-04T14:55:53Z</time>
      </trkpt>
      <trkpt lat="44.30575" lon="4.4729">
        <ele>260</ele>
        <time>2021-07-04T14:55:57Z</time>
      </trkpt>
      <trkpt lat="44.30628" lon="4.47223">
        <ele>266</ele>
        <time>2021-07-04T14:56:14Z</time>
      </trkpt>
      <trkpt lat="44.30634" lon="4.47222">
        <ele>266</ele>
        <time>2021-07-04T14:56:15Z</time>
      </trkpt>
      <trkpt lat="44.30671" lon="4.47232">
        <ele>267</ele>
        <time>2021-07-04T14:56:24Z</time>
      </trkpt>
      <trkpt lat="44.30681" lon="4.47229">
        <ele>268</ele>
        <time>2021-07-04T14:56:26Z</time>
      </trkpt>
      <trkpt lat="44.3069" lon="4.47217">
        <ele>269</ele>
        <time>2021-07-04T14:56:29Z</time>
      </trkpt>
      <trkpt lat="44.30694" lon="4.47215">
        <ele>269</ele>
        <time>2021-07-04T14:56:30Z</time>
      </trkpt>
      <trkpt lat="44.30747" lon="4.47208">
        <ele>270</ele>
        <time>2021-07-04T14:56:43Z</time>
      </trkpt>
      <trkpt lat="44.30761" lon="4.472">
        <ele>271</ele>
        <time>2021-07-04T14:56:46Z</time>
      </trkpt>
      <trkpt lat="44.30802" lon="4.47156">
        <ele>273</ele>
        <time>2021-07-04T14:56:58Z</time>
      </trkpt>
      <trkpt lat="44.30819" lon="4.47107">
        <ele>274</ele>
        <time>2021-07-04T14:57:07Z</time>
      </trkpt>
      <trkpt lat="44.30823" lon="4.47087">
        <ele>275</ele>
        <time>2021-07-04T14:57:11Z</time>
      </trkpt>
      <trkpt lat="44.3084" lon="4.47041">
        <ele>277</ele>
        <time>2021-07-04T14:57:19Z</time>
      </trkpt>
      <trkpt lat="44.30873" lon="4.46975">
        <ele>281</ele>
        <time>2021-07-04T14:57:33Z</time>
      </trkpt>
      <trkpt lat="44.30894" lon="4.46917">
        <ele>283</ele>
        <time>2021-07-04T14:57:44Z</time>
      </trkpt>
      <trkpt lat="44.30895" lon="4.46879">
        <ele>285</ele>
        <time>2021-07-04T14:57:50Z</time>
      </trkpt>
      <trkpt lat="44.30884" lon="4.46863">
        <ele>285</ele>
        <time>2021-07-04T14:57:54Z</time>
      </trkpt>
      <trkpt lat="44.30879" lon="4.4685">
        <ele>286</ele>
        <time>2021-07-04T14:57:56Z</time>
      </trkpt>
      <trkpt lat="44.30878" lon="4.46716">
        <ele>289</ele>
        <time>2021-07-04T14:58:19Z</time>
      </trkpt>
      <trkpt lat="44.30881" lon="4.46697">
        <ele>290</ele>
        <time>2021-07-04T14:58:22Z</time>
      </trkpt>
      <trkpt lat="44.3089" lon="4.46673">
        <ele>292</ele>
        <time>2021-07-04T14:58:26Z</time>
      </trkpt>
      <trkpt lat="44.30915" lon="4.46632">
        <ele>295</ele>
        <time>2021-07-04T14:58:35Z</time>
      </trkpt>
      <trkpt lat="44.30931" lon="4.46597">
        <ele>298</ele>
        <time>2021-07-04T14:58:42Z</time>
      </trkpt>
      <trkpt lat="44.30937" lon="4.4653">
        <ele>297</ele>
        <time>2021-07-04T14:58:54Z</time>
      </trkpt>
      <trkpt lat="44.30946" lon="4.46488">
        <ele>297</ele>
        <time>2021-07-04T14:59:01Z</time>
      </trkpt>
      <trkpt lat="44.30947" lon="4.46449">
        <ele>298</ele>
        <time>2021-07-04T14:59:08Z</time>
      </trkpt>
      <trkpt lat="44.30952" lon="4.46395">
        <ele>299</ele>
        <time>2021-07-04T14:59:17Z</time>
      </trkpt>
      <trkpt lat="44.30957" lon="4.46378">
        <ele>300</ele>
        <time>2021-07-04T14:59:20Z</time>
      </trkpt>
      <trkpt lat="44.30969" lon="4.46357">
        <ele>301</ele>
        <time>2021-07-04T14:59:24Z</time>
      </trkpt>
      <trkpt lat="44.30971" lon="4.46343">
        <ele>302</ele>
        <time>2021-07-04T14:59:27Z</time>
      </trkpt>
      <trkpt lat="44.30967" lon="4.46309">
        <ele>302</ele>
        <time>2021-07-04T14:59:32Z</time>
      </trkpt>
      <trkpt lat="44.30953" lon="4.46285">
        <ele>302</ele>
        <time>2021-07-04T14:59:37Z</time>
      </trkpt>
      <trkpt lat="44.30951" lon="4.46275">
        <ele>302</ele>
        <time>2021-07-04T14:59:39Z</time>
      </trkpt>
      <trkpt lat="44.30951" lon="4.46256">
        <ele>303</ele>
        <time>2021-07-04T14:59:42Z</time>
      </trkpt>
      <trkpt lat="44.30955" lon="4.46233">
        <ele>304</ele>
        <time>2021-07-04T14:59:46Z</time>
      </trkpt>
      <trkpt lat="44.30955" lon="4.46218">
        <ele>304</ele>
        <time>2021-07-04T14:59:49Z</time>
      </trkpt>
      <trkpt lat="44.30952" lon="4.46209">
        <ele>305</ele>
        <time>2021-07-04T14:59:51Z</time>
      </trkpt>
      <trkpt lat="44.30946" lon="4.46202">
        <ele>304</ele>
        <time>2021-07-04T14:59:52Z</time>
      </trkpt>
      <trkpt lat="44.30935" lon="4.46203">
        <ele>304</ele>
        <time>2021-07-04T14:59:55Z</time>
      </trkpt>
      <trkpt lat="44.30917" lon="4.46208">
        <ele>302</ele>
        <time>2021-07-04T14:59:59Z</time>
      </trkpt>
      <trkpt lat="44.30897" lon="4.46225">
        <ele>300</ele>
        <time>2021-07-04T15:00:05Z</time>
      </trkpt>
      <trkpt lat="44.3089" lon="4.46226">
        <ele>300</ele>
        <time>2021-07-04T15:00:06Z</time>
      </trkpt>
      <trkpt lat="44.30882" lon="4.46223">
        <ele>300</ele>
        <time>2021-07-04T15:00:08Z</time>
      </trkpt>
      <trkpt lat="44.3087" lon="4.46215">
        <ele>300</ele>
        <time>2021-07-04T15:00:11Z</time>
      </trkpt>
      <trkpt lat="44.30843" lon="4.46176">
        <ele>300</ele>
        <time>2021-07-04T15:00:20Z</time>
      </trkpt>
      <trkpt lat="44.30836" lon="4.46162">
        <ele>300</ele>
        <time>2021-07-04T15:00:23Z</time>
      </trkpt>
      <trkpt lat="44.30834" lon="4.4615">
        <ele>301</ele>
        <time>2021-07-04T15:00:25Z</time>
      </trkpt>
      <trkpt lat="44.30841" lon="4.46115">
        <ele>302</ele>
        <time>2021-07-04T15:00:31Z</time>
      </trkpt>
      <trkpt lat="44.30842" lon="4.46088">
        <ele>303</ele>
        <time>2021-07-04T15:00:36Z</time>
      </trkpt>
      <trkpt lat="44.30836" lon="4.46005">
        <ele>305</ele>
        <time>2021-07-04T15:00:50Z</time>
      </trkpt>
      <trkpt lat="44.30844" lon="4.45857">
        <ele>307</ele>
        <time>2021-07-04T15:01:15Z</time>
      </trkpt>
      <trkpt lat="44.30836" lon="4.45838">
        <ele>307</ele>
        <time>2021-07-04T15:01:18Z</time>
      </trkpt>
      <trkpt lat="44.30835" lon="4.4583">
        <ele>307</ele>
        <time>2021-07-04T15:01:20Z</time>
      </trkpt>
      <trkpt lat="44.30837" lon="4.45818">
        <ele>307</ele>
        <time>2021-07-04T15:01:22Z</time>
      </trkpt>
      <trkpt lat="44.30844" lon="4.45801">
        <ele>308</ele>
        <time>2021-07-04T15:01:25Z</time>
      </trkpt>
      <trkpt lat="44.30848" lon="4.45777">
        <ele>308</ele>
        <time>2021-07-04T15:01:29Z</time>
      </trkpt>
      <trkpt lat="44.30846" lon="4.45753">
        <ele>308</ele>
        <time>2021-07-04T15:01:33Z</time>
      </trkpt>
      <trkpt lat="44.3086" lon="4.45742">
        <ele>308</ele>
        <time>2021-07-04T15:01:37Z</time>
      </trkpt>
      <trkpt lat="44.30889" lon="4.45729">
        <ele>309</ele>
        <time>2021-07-04T15:01:44Z</time>
      </trkpt>
      <trkpt lat="44.30918" lon="4.45725">
        <ele>309</ele>
        <time>2021-07-04T15:01:51Z</time>
      </trkpt>
      <trkpt lat="44.30951" lon="4.45708">
        <ele>310</ele>
        <time>2021-07-04T15:01:59Z</time>
      </trkpt>
      <trkpt lat="44.3096" lon="4.45677">
        <ele>310</ele>
        <time>2021-07-04T15:02:05Z</time>
      </trkpt>
      <trkpt lat="44.30974" lon="4.45611">
        <ele>310</ele>
        <time>2021-07-04T15:02:16Z</time>
      </trkpt>
      <trkpt lat="44.30968" lon="4.45385">
        <ele>308</ele>
        <time>2021-07-04T15:02:54Z</time>
      </trkpt>
      <trkpt lat="44.3099" lon="4.45334">
        <ele>309</ele>
        <time>2021-07-04T15:03:04Z</time>
      </trkpt>
      <trkpt lat="44.3095" lon="4.45169">
        <ele>301</ele>
        <time>2021-07-04T15:03:33Z</time>
      </trkpt>
      <trkpt lat="44.30932" lon="4.45136">
        <ele>299</ele>
        <time>2021-07-04T15:03:40Z</time>
      </trkpt>
      <trkpt lat="44.30912" lon="4.45089">
        <ele>297</ele>
        <time>2021-07-04T15:03:49Z</time>
      </trkpt>
      <trkpt lat="44.30829" lon="4.44692">
        <ele>284</ele>
        <time>2021-07-04T15:04:58Z</time>
      </trkpt>
      <trkpt lat="44.30816" lon="4.44659">
        <ele>284</ele>
        <time>2021-07-04T15:05:05Z</time>
      </trkpt>
      <trkpt lat="44.30803" lon="4.44595">
        <ele>281</ele>
        <time>2021-07-04T15:05:16Z</time>
      </trkpt>
      <trkpt lat="44.30762" lon="4.44571">
        <ele>282</ele>
        <time>2021-07-04T15:05:26Z</time>
      </trkpt>
      <trkpt lat="44.30717" lon="4.44485">
        <ele>281</ele>
        <time>2021-07-04T15:05:44Z</time>
      </trkpt>
      <trkpt lat="44.30744" lon="4.44461">
        <ele>280</ele>
        <time>2021-07-04T15:05:51Z</time>
      </trkpt>
      <trkpt lat="44.30792" lon="4.44468">
        <ele>276</ele>
        <time>2021-07-04T15:06:03Z</time>
      </trkpt>
      <trkpt lat="44.30851" lon="4.44458">
        <ele>268</ele>
        <time>2021-07-04T15:06:16Z</time>
      </trkpt>
      <trkpt lat="44.30891" lon="4.44471">
        <ele>263</ele>
        <time>2021-07-04T15:06:26Z</time>
      </trkpt>
      <trkpt lat="44.30918" lon="4.44466">
        <ele>259</ele>
        <time>2021-07-04T15:06:32Z</time>
      </trkpt>
      <trkpt lat="44.30944" lon="4.44457">
        <ele>257</ele>
        <time>2021-07-04T15:06:39Z</time>
      </trkpt>
      <trkpt lat="44.30987" lon="4.44456">
        <ele>255</ele>
        <time>2021-07-04T15:06:49Z</time>
      </trkpt>
      <trkpt lat="44.3102" lon="4.44444">
        <ele>257</ele>
        <time>2021-07-04T15:06:57Z</time>
      </trkpt>
      <trkpt lat="44.31015" lon="4.44427">
        <ele>255</ele>
        <time>2021-07-04T15:07:00Z</time>
      </trkpt>
      <trkpt lat="44.30969" lon="4.4443">
        <ele>253</ele>
        <time>2021-07-04T15:07:10Z</time>
      </trkpt>
      <trkpt lat="44.30939" lon="4.44384">
        <ele>253</ele>
        <time>2021-07-04T15:07:21Z</time>
      </trkpt>
      <trkpt lat="44.30903" lon="4.44344">
        <ele>254</ele>
        <time>2021-07-04T15:07:32Z</time>
      </trkpt>
      <trkpt lat="44.30869" lon="4.44249">
        <ele>256</ele>
        <time>2021-07-04T15:07:49Z</time>
      </trkpt>
      <trkpt lat="44.30886" lon="4.44198">
        <ele>253</ele>
        <time>2021-07-04T15:07:59Z</time>
      </trkpt>
      <trkpt lat="44.30901" lon="4.44127">
        <ele>250</ele>
        <time>2021-07-04T15:08:11Z</time>
      </trkpt>
      <trkpt lat="44.30885" lon="4.44044">
        <ele>250</ele>
        <time>2021-07-04T15:08:26Z</time>
      </trkpt>
      <trkpt lat="44.30846" lon="4.43982">
        <ele>247</ele>
        <time>2021-07-04T15:08:39Z</time>
      </trkpt>
      <trkpt lat="44.30804" lon="4.43948">
        <ele>244</ele>
        <time>2021-07-04T15:08:51Z</time>
      </trkpt>
      <trkpt lat="44.30789" lon="4.43909">
        <ele>244</ele>
        <time>2021-07-04T15:08:58Z</time>
      </trkpt>
      <trkpt lat="44.30746" lon="4.43893">
        <ele>245</ele>
        <time>2021-07-04T15:09:08Z</time>
      </trkpt>
      <trkpt lat="44.30711" lon="4.43895">
        <ele>245</ele>
        <time>2021-07-04T15:09:17Z</time>
      </trkpt>
      <trkpt lat="44.30676" lon="4.43854">
        <ele>252</ele>
        <time>2021-07-04T15:09:27Z</time>
      </trkpt>
      <trkpt lat="44.30656" lon="4.43813">
        <ele>259</ele>
        <time>2021-07-04T15:09:36Z</time>
      </trkpt>
      <trkpt lat="44.30662" lon="4.4369">
        <ele>276</ele>
        <time>2021-07-04T15:09:56Z</time>
      </trkpt>
      <trkpt lat="44.30676" lon="4.43628">
        <ele>280</ele>
        <time>2021-07-04T15:10:07Z</time>
      </trkpt>
      <trkpt lat="44.3066" lon="4.43584">
        <ele>282</ele>
        <time>2021-07-04T15:10:15Z</time>
      </trkpt>
      <trkpt lat="44.30668" lon="4.43527">
        <ele>285</ele>
        <time>2021-07-04T15:10:25Z</time>
      </trkpt>
      <trkpt lat="44.30582" lon="4.43445">
        <ele>291</ele>
        <time>2021-07-04T15:10:49Z</time>
      </trkpt>
      <trkpt lat="44.3063" lon="4.43161">
        <ele>284</ele>
        <time>2021-07-04T15:11:38Z</time>
      </trkpt>
      <trkpt lat="44.30648" lon="4.43138">
        <ele>284</ele>
        <time>2021-07-04T15:11:44Z</time>
      </trkpt>
      <trkpt lat="44.30711" lon="4.43115">
        <ele>284</ele>
        <time>2021-07-04T15:11:59Z</time>
      </trkpt>
      <trkpt lat="44.30764" lon="4.43042">
        <ele>282</ele>
        <time>2021-07-04T15:12:16Z</time>
      </trkpt>
      <trkpt lat="44.30823" lon="4.42975">
        <ele>284</ele>
        <time>2021-07-04T15:12:34Z</time>
      </trkpt>
      <trkpt lat="44.3081" lon="4.42941">
        <ele>284</ele>
        <time>2021-07-04T15:12:41Z</time>
      </trkpt>
      <trkpt lat="44.30797" lon="4.42926">
        <ele>284</ele>
        <time>2021-07-04T15:12:45Z</time>
      </trkpt>
      <trkpt lat="44.30734" lon="4.42928">
        <ele>281</ele>
        <time>2021-07-04T15:12:59Z</time>
      </trkpt>
      <trkpt lat="44.30654" lon="4.42901">
        <ele>278</ele>
        <time>2021-07-04T15:13:18Z</time>
      </trkpt>
      <trkpt lat="44.30573" lon="4.42865">
        <ele>281</ele>
        <time>2021-07-04T15:13:38Z</time>
      </trkpt>
      <trkpt lat="44.30573" lon="4.42855">
        <ele>282</ele>
        <time>2021-07-04T15:13:40Z</time>
      </trkpt>
      <trkpt lat="44.30554" lon="4.4283">
        <ele>284</ele>
        <time>2021-07-04T15:13:46Z</time>
      </trkpt>
      <trkpt lat="44.30546" lon="4.42798">
        <ele>285</ele>
        <time>2021-07-04T15:13:52Z</time>
      </trkpt>
      <trkpt lat="44.30544" lon="4.42749">
        <ele>287</ele>
        <time>2021-07-04T15:14:00Z</time>
      </trkpt>
      <trkpt lat="44.30552" lon="4.42702">
        <ele>288</ele>
        <time>2021-07-04T15:14:08Z</time>
      </trkpt>
      <trkpt lat="44.30555" lon="4.42667">
        <ele>289</ele>
        <time>2021-07-04T15:14:14Z</time>
      </trkpt>
      <trkpt lat="44.30531" lon="4.4258">
        <ele>288</ele>
        <time>2021-07-04T15:14:29Z</time>
      </trkpt>
      <trkpt lat="44.30519" lon="4.42551">
        <ele>286</ele>
        <time>2021-07-04T15:14:35Z</time>
      </trkpt>
      <trkpt lat="44.30504" lon="4.42494">
        <ele>284</ele>
        <time>2021-07-04T15:14:45Z</time>
      </trkpt>
      <trkpt lat="44.30498" lon="4.42462">
        <ele>282</ele>
        <time>2021-07-04T15:14:51Z</time>
      </trkpt>
      <trkpt lat="44.30486" lon="4.42454">
        <ele>282</ele>
        <time>2021-07-04T15:14:54Z</time>
      </trkpt>
      <trkpt lat="44.30478" lon="4.42442">
        <ele>281</ele>
        <time>2021-07-04T15:14:57Z</time>
      </trkpt>
      <trkpt lat="44.30469" lon="4.4242">
        <ele>280</ele>
        <time>2021-07-04T15:15:01Z</time>
      </trkpt>
      <trkpt lat="44.3043" lon="4.42354">
        <ele>278</ele>
        <time>2021-07-04T15:15:15Z</time>
      </trkpt>
      <trkpt lat="44.30431" lon="4.42343">
        <ele>277</ele>
        <time>2021-07-04T15:15:17Z</time>
      </trkpt>
      <trkpt lat="44.30442" lon="4.42328">
        <ele>277</ele>
        <time>2021-07-04T15:15:21Z</time>
      </trkpt>
      <trkpt lat="44.30437" lon="4.42306">
        <ele>276</ele>
        <time>2021-07-04T15:15:24Z</time>
      </trkpt>
      <trkpt lat="44.30406" lon="4.42253">
        <ele>274</ele>
        <time>2021-07-04T15:15:36Z</time>
      </trkpt>
      <trkpt lat="44.30375" lon="4.42177">
        <ele>274</ele>
        <time>2021-07-04T15:15:50Z</time>
      </trkpt>
      <trkpt lat="44.30367" lon="4.42168">
        <ele>274</ele>
        <time>2021-07-04T15:15:53Z</time>
      </trkpt>
      <trkpt lat="44.3034" lon="4.42051">
        <ele>268</ele>
        <time>2021-07-04T15:16:13Z</time>
      </trkpt>
      <trkpt lat="44.30323" lon="4.42003">
        <ele>266</ele>
        <time>2021-07-04T15:16:22Z</time>
      </trkpt>
      <trkpt lat="44.303" lon="4.4197">
        <ele>264</ele>
        <time>2021-07-04T15:16:30Z</time>
      </trkpt>
      <trkpt lat="44.30296" lon="4.41954">
        <ele>263</ele>
        <time>2021-07-04T15:16:33Z</time>
      </trkpt>
      <trkpt lat="44.303" lon="4.41897">
        <ele>262</ele>
        <time>2021-07-04T15:16:42Z</time>
      </trkpt>
      <trkpt lat="44.30288" lon="4.41851">
        <ele>263</ele>
        <time>2021-07-04T15:16:51Z</time>
      </trkpt>
      <trkpt lat="44.30265" lon="4.41798">
        <ele>263</ele>
        <time>2021-07-04T15:17:01Z</time>
      </trkpt>
      <trkpt lat="44.30204" lon="4.41634">
        <ele>266</ele>
        <time>2021-07-04T15:17:32Z</time>
      </trkpt>
      <trkpt lat="44.30174" lon="4.41518">
        <ele>266</ele>
        <time>2021-07-04T15:17:53Z</time>
      </trkpt>
      <trkpt lat="44.30222" lon="4.41495">
        <ele>268</ele>
        <time>2021-07-04T15:18:04Z</time>
      </trkpt>
      <trkpt lat="44.30254" lon="4.41485">
        <ele>269</ele>
        <time>2021-07-04T15:18:12Z</time>
      </trkpt>
      <trkpt lat="44.30289" lon="4.41467">
        <ele>269</ele>
        <time>2021-07-04T15:18:21Z</time>
      </trkpt>
      <trkpt lat="44.30308" lon="4.41466">
        <ele>269</ele>
        <time>2021-07-04T15:18:25Z</time>
      </trkpt>
      <trkpt lat="44.30325" lon="4.4148">
        <ele>270</ele>
        <time>2021-07-04T15:18:30Z</time>
      </trkpt>
      <trkpt lat="44.30346" lon="4.41507">
        <ele>272</ele>
        <time>2021-07-04T15:18:36Z</time>
      </trkpt>
      <trkpt lat="44.30374" lon="4.41521">
        <ele>273</ele>
        <time>2021-07-04T15:18:43Z</time>
      </trkpt>
      <trkpt lat="44.30476" lon="4.41594">
        <ele>279</ele>
        <time>2021-07-04T15:19:10Z</time>
      </trkpt>
      <trkpt lat="44.30498" lon="4.4159">
        <ele>279</ele>
        <time>2021-07-04T15:19:15Z</time>
      </trkpt>
      <trkpt lat="44.30534" lon="4.41575">
        <ele>278</ele>
        <time>2021-07-04T15:19:24Z</time>
      </trkpt>
      <trkpt lat="44.30542" lon="4.41567">
        <ele>278</ele>
        <time>2021-07-04T15:19:26Z</time>
      </trkpt>
      <trkpt lat="44.30555" lon="4.41561">
        <ele>278</ele>
        <time>2021-07-04T15:19:30Z</time>
      </trkpt>
      <trkpt lat="44.30578" lon="4.41543">
        <ele>277</ele>
        <time>2021-07-04T15:19:36Z</time>
      </trkpt>
      <trkpt lat="44.30591" lon="4.41537">
        <ele>277</ele>
        <time>2021-07-04T15:19:39Z</time>
      </trkpt>
      <trkpt lat="44.30604" lon="4.41547">
        <ele>278</ele>
        <time>2021-07-04T15:19:42Z</time>
      </trkpt>
      <trkpt lat="44.30627" lon="4.41557">
        <ele>278</ele>
        <time>2021-07-04T15:19:48Z</time>
      </trkpt>
      <trkpt lat="44.30652" lon="4.41553">
        <ele>279</ele>
        <time>2021-07-04T15:19:54Z</time>
      </trkpt>
      <trkpt lat="44.30702" lon="4.41516">
        <ele>278</ele>
        <time>2021-07-04T15:20:07Z</time>
      </trkpt>
      <trkpt lat="44.30717" lon="4.415">
        <ele>277</ele>
        <time>2021-07-04T15:20:12Z</time>
      </trkpt>
      <trkpt lat="44.30755" lon="4.41498">
        <ele>275</ele>
        <time>2021-07-04T15:20:20Z</time>
      </trkpt>
      <trkpt lat="44.30779" lon="4.41501">
        <ele>273</ele>
        <time>2021-07-04T15:20:26Z</time>
      </trkpt>
      <trkpt lat="44.30791" lon="4.41495">
        <ele>272</ele>
        <time>2021-07-04T15:20:29Z</time>
      </trkpt>
      <trkpt lat="44.30815" lon="4.41456">
        <ele>267</ele>
        <time>2021-07-04T15:20:38Z</time>
      </trkpt>
      <trkpt lat="44.30864" lon="4.41447">
        <ele>265</ele>
        <time>2021-07-04T15:20:49Z</time>
      </trkpt>
      <trkpt lat="44.30942" lon="4.41307">
        <ele>270</ele>
        <time>2021-07-04T15:21:19Z</time>
      </trkpt>
      <trkpt lat="44.31065" lon="4.41184">
        <ele>277</ele>
        <time>2021-07-04T15:21:54Z</time>
      </trkpt>
      <trkpt lat="44.3119" lon="4.41171">
        <ele>282</ele>
        <time>2021-07-04T15:22:23Z</time>
      </trkpt>
      <trkpt lat="44.31238" lon="4.41127">
        <ele>284</ele>
        <time>2021-07-04T15:22:37Z</time>
      </trkpt>
      <trkpt lat="44.3128" lon="4.41095">
        <ele>285</ele>
        <time>2021-07-04T15:22:48Z</time>
      </trkpt>
      <trkpt lat="44.31304" lon="4.40983">
        <ele>283</ele>
        <time>2021-07-04T15:23:08Z</time>
      </trkpt>
      <trkpt lat="44.31314" lon="4.40987">
        <ele>282</ele>
        <time>2021-07-04T15:23:10Z</time>
      </trkpt>
      <trkpt lat="44.31325" lon="4.40987">
        <ele>282</ele>
        <time>2021-07-04T15:23:13Z</time>
      </trkpt>
      <trkpt lat="44.31346" lon="4.41043">
        <ele>284</ele>
        <time>2021-07-04T15:23:23Z</time>
      </trkpt>
      <trkpt lat="44.31363" lon="4.41062">
        <ele>285</ele>
        <time>2021-07-04T15:23:28Z</time>
      </trkpt>
      <trkpt lat="44.31395" lon="4.41081">
        <ele>286</ele>
        <time>2021-07-04T15:23:36Z</time>
      </trkpt>
      <trkpt lat="44.31418" lon="4.41085">
        <ele>287</ele>
        <time>2021-07-04T15:23:42Z</time>
      </trkpt>
      <trkpt lat="44.3158" lon="4.4108">
        <ele>292</ele>
        <time>2021-07-04T15:24:20Z</time>
      </trkpt>
      <trkpt lat="44.31639" lon="4.41083">
        <ele>294</ele>
        <time>2021-07-04T15:24:33Z</time>
      </trkpt>
      <trkpt lat="44.31667" lon="4.4109">
        <ele>295</ele>
        <time>2021-07-04T15:24:40Z</time>
      </trkpt>
      <trkpt lat="44.3171" lon="4.41114">
        <ele>297</ele>
        <time>2021-07-04T15:24:51Z</time>
      </trkpt>
      <trkpt lat="44.31744" lon="4.41145">
        <ele>298</ele>
        <time>2021-07-04T15:25:00Z</time>
      </trkpt>
      <trkpt lat="44.31749" lon="4.41127">
        <ele>298</ele>
        <time>2021-07-04T15:25:04Z</time>
      </trkpt>
      <trkpt lat="44.31766" lon="4.41142">
        <ele>300</ele>
        <time>2021-07-04T15:25:08Z</time>
      </trkpt>
      <trkpt lat="44.31787" lon="4.4115">
        <ele>301</ele>
        <time>2021-07-04T15:25:13Z</time>
      </trkpt>
      <trkpt lat="44.31828" lon="4.41144">
        <ele>304</ele>
        <time>2021-07-04T15:25:23Z</time>
      </trkpt>
      <trkpt lat="44.31834" lon="4.41211">
        <ele>303</ele>
        <time>2021-07-04T15:25:34Z</time>
      </trkpt>
    </trkseg>
  </trk>
  <trk>
    <name><![CDATA[Vert ST André de Roquepertuis]]></name>
    <extensions>
      <line xmlns="http://www.topografix.com/GPX/gpx_style/0/2">
        <color>00fa00</color>
        <width>4</width>
      </line>
    </extensions>
    <trkseg>
      <trkpt lat="44.23911" lon="4.45786">
        <ele>116</ele>
        <time>2021-07-04T13:18:27Z</time>
      </trkpt>
      <trkpt lat="44.23943" lon="4.45809">
        <ele>114</ele>
        <time>2021-07-04T13:18:35Z</time>
      </trkpt>
      <trkpt lat="44.23984" lon="4.45831">
        <ele>111</ele>
        <time>2021-07-04T13:18:46Z</time>
      </trkpt>
      <trkpt lat="44.24005" lon="4.4585">
        <ele>109</ele>
        <time>2021-07-04T13:18:52Z</time>
      </trkpt>
      <trkpt lat="44.24002" lon="4.45904">
        <ele>106</ele>
        <time>2021-07-04T13:19:01Z</time>
      </trkpt>
      <trkpt lat="44.23998" lon="4.4593">
        <ele>106</ele>
        <time>2021-07-04T13:19:05Z</time>
      </trkpt>
      <trkpt lat="44.24018" lon="4.45978">
        <ele>106</ele>
        <time>2021-07-04T13:19:14Z</time>
      </trkpt>
      <trkpt lat="44.24018" lon="4.46003">
        <ele>106</ele>
        <time>2021-07-04T13:19:18Z</time>
      </trkpt>
      <trkpt lat="44.23986" lon="4.46065">
        <ele>110</ele>
        <time>2021-07-04T13:19:31Z</time>
      </trkpt>
      <trkpt lat="44.23962" lon="4.46118">
        <ele>112</ele>
        <time>2021-07-04T13:19:42Z</time>
      </trkpt>
      <trkpt lat="44.23911" lon="4.46188">
        <ele>114</ele>
        <time>2021-07-04T13:19:58Z</time>
      </trkpt>
      <trkpt lat="44.23984" lon="4.4627">
        <ele>117</ele>
        <time>2021-07-04T13:20:20Z</time>
      </trkpt>
      <trkpt lat="44.2398" lon="4.46295">
        <ele>118</ele>
        <time>2021-07-04T13:20:25Z</time>
      </trkpt>
      <trkpt lat="44.23995" lon="4.46358">
        <ele>122</ele>
        <time>2021-07-04T13:20:36Z</time>
      </trkpt>
      <trkpt lat="44.23981" lon="4.46476">
        <ele>127</ele>
        <time>2021-07-04T13:20:56Z</time>
      </trkpt>
      <trkpt lat="44.23978" lon="4.46558">
        <ele>131</ele>
        <time>2021-07-04T13:21:09Z</time>
      </trkpt>
      <trkpt lat="44.2397" lon="4.46581">
        <ele>132</ele>
        <time>2021-07-04T13:21:14Z</time>
      </trkpt>
      <trkpt lat="44.23986" lon="4.46633">
        <ele>134</ele>
        <time>2021-07-04T13:21:23Z</time>
      </trkpt>
      <trkpt lat="44.23978" lon="4.46724">
        <ele>136</ele>
        <time>2021-07-04T13:21:39Z</time>
      </trkpt>
      <trkpt lat="44.23937" lon="4.46994">
        <ele>131</ele>
        <time>2021-07-04T13:22:25Z</time>
      </trkpt>
      <trkpt lat="44.23935" lon="4.47015">
        <ele>131</ele>
        <time>2021-07-04T13:22:28Z</time>
      </trkpt>
      <trkpt lat="44.23925" lon="4.47047">
        <ele>131</ele>
        <time>2021-07-04T13:22:34Z</time>
      </trkpt>
      <trkpt lat="44.2393" lon="4.47102">
        <ele>132</ele>
        <time>2021-07-04T13:22:43Z</time>
      </trkpt>
      <trkpt lat="44.23925" lon="4.47159">
        <ele>133</ele>
        <time>2021-07-04T13:22:53Z</time>
      </trkpt>
      <trkpt lat="44.23929" lon="4.47251">
        <ele>138</ele>
        <time>2021-07-04T13:23:08Z</time>
      </trkpt>
      <trkpt lat="44.23968" lon="4.47293">
        <ele>141</ele>
        <time>2021-07-04T13:23:20Z</time>
      </trkpt>
      <trkpt lat="44.23973" lon="4.47349">
        <ele>142</ele>
        <time>2021-07-04T13:23:29Z</time>
      </trkpt>
      <trkpt lat="44.23993" lon="4.47419">
        <ele>145</ele>
        <time>2021-07-04T13:23:42Z</time>
      </trkpt>
      <trkpt lat="44.24" lon="4.47525">
        <ele>154</ele>
        <time>2021-07-04T13:24:00Z</time>
      </trkpt>
      <trkpt lat="44.23997" lon="4.47592">
        <ele>158</ele>
        <time>2021-07-04T13:24:11Z</time>
      </trkpt>
      <trkpt lat="44.23985" lon="4.47678">
        <ele>159</ele>
        <time>2021-07-04T13:24:26Z</time>
      </trkpt>
      <trkpt lat="44.23979" lon="4.47696">
        <ele>159</ele>
        <time>2021-07-04T13:24:29Z</time>
      </trkpt>
      <trkpt lat="44.23964" lon="4.47685">
        <ele>157</ele>
        <time>2021-07-04T13:24:33Z</time>
      </trkpt>
      <trkpt lat="44.23919" lon="4.47569">
        <ele>145</ele>
        <time>2021-07-04T13:24:55Z</time>
      </trkpt>
      <trkpt lat="44.23891" lon="4.47515">
        <ele>141</ele>
        <time>2021-07-04T13:25:06Z</time>
      </trkpt>
      <trkpt lat="44.23864" lon="4.47469">
        <ele>138</ele>
        <time>2021-07-04T13:25:16Z</time>
      </trkpt>
      <trkpt lat="44.2384" lon="4.4746">
        <ele>137</ele>
        <time>2021-07-04T13:25:22Z</time>
      </trkpt>
      <trkpt lat="44.23824" lon="4.47434">
        <ele>135</ele>
        <time>2021-07-04T13:25:28Z</time>
      </trkpt>
      <trkpt lat="44.23771" lon="4.47408">
        <ele>131</ele>
        <time>2021-07-04T13:25:41Z</time>
      </trkpt>
      <trkpt lat="44.23747" lon="4.47364">
        <ele>129</ele>
        <time>2021-07-04T13:25:50Z</time>
      </trkpt>
      <trkpt lat="44.23711" lon="4.47341">
        <ele>127</ele>
        <time>2021-07-04T13:25:59Z</time>
      </trkpt>
      <trkpt lat="44.23686" lon="4.47303">
        <ele>124</ele>
        <time>2021-07-04T13:26:08Z</time>
      </trkpt>
      <trkpt lat="44.23651" lon="4.47256">
        <ele>121</ele>
        <time>2021-07-04T13:26:19Z</time>
      </trkpt>
      <trkpt lat="44.23559" lon="4.47151">
        <ele>116</ele>
        <time>2021-07-04T13:26:47Z</time>
      </trkpt>
      <trkpt lat="44.23525" lon="4.47104">
        <ele>113</ele>
        <time>2021-07-04T13:26:58Z</time>
      </trkpt>
      <trkpt lat="44.23486" lon="4.47072">
        <ele>111</ele>
        <time>2021-07-04T13:27:09Z</time>
      </trkpt>
      <trkpt lat="44.23459" lon="4.47041">
        <ele>109</ele>
        <time>2021-07-04T13:27:17Z</time>
      </trkpt>
      <trkpt lat="44.23452" lon="4.46935">
        <ele>107</ele>
        <time>2021-07-04T13:27:35Z</time>
      </trkpt>
      <trkpt lat="44.23416" lon="4.46939">
        <ele>106</ele>
        <time>2021-07-04T13:27:43Z</time>
      </trkpt>
      <trkpt lat="44.23395" lon="4.46925">
        <ele>106</ele>
        <time>2021-07-04T13:27:49Z</time>
      </trkpt>
      <trkpt lat="44.23379" lon="4.46891">
        <ele>105</ele>
        <time>2021-07-04T13:27:55Z</time>
      </trkpt>
      <trkpt lat="44.23339" lon="4.46872">
        <ele>103</ele>
        <time>2021-07-04T13:28:05Z</time>
      </trkpt>
      <trkpt lat="44.233" lon="4.46877">
        <ele>101</ele>
        <time>2021-07-04T13:28:14Z</time>
      </trkpt>
      <trkpt lat="44.23252" lon="4.46839">
        <ele>98</ele>
        <time>2021-07-04T13:28:27Z</time>
      </trkpt>
      <trkpt lat="44.23209" lon="4.46784">
        <ele>96</ele>
        <time>2021-07-04T13:28:41Z</time>
      </trkpt>
      <trkpt lat="44.23171" lon="4.46737">
        <ele>95</ele>
        <time>2021-07-04T13:28:53Z</time>
      </trkpt>
      <trkpt lat="44.23142" lon="4.46707">
        <ele>94</ele>
        <time>2021-07-04T13:29:01Z</time>
      </trkpt>
      <trkpt lat="44.23109" lon="4.46677">
        <ele>93</ele>
        <time>2021-07-04T13:29:10Z</time>
      </trkpt>
      <trkpt lat="44.23096" lon="4.46658">
        <ele>92</ele>
        <time>2021-07-04T13:29:15Z</time>
      </trkpt>
      <trkpt lat="44.23139" lon="4.46614">
        <ele>93</ele>
        <time>2021-07-04T13:29:27Z</time>
      </trkpt>
      <trkpt lat="44.23175" lon="4.46527">
        <ele>98</ele>
        <time>2021-07-04T13:29:44Z</time>
      </trkpt>
      <trkpt lat="44.23191" lon="4.46481">
        <ele>100</ele>
        <time>2021-07-04T13:29:53Z</time>
      </trkpt>
      <trkpt lat="44.23218" lon="4.46422">
        <ele>101</ele>
        <time>2021-07-04T13:30:04Z</time>
      </trkpt>
      <trkpt lat="44.23301" lon="4.46353">
        <ele>104</ele>
        <time>2021-07-04T13:30:27Z</time>
      </trkpt>
      <trkpt lat="44.23277" lon="4.46253">
        <ele>112</ele>
        <time>2021-07-04T13:30:45Z</time>
      </trkpt>
      <trkpt lat="44.23246" lon="4.46098">
        <ele>126</ele>
        <time>2021-07-04T13:31:11Z</time>
      </trkpt>
      <trkpt lat="44.23227" lon="4.46081">
        <ele>130</ele>
        <time>2021-07-04T13:31:17Z</time>
      </trkpt>
      <trkpt lat="44.23233" lon="4.46047">
        <ele>132</ele>
        <time>2021-07-04T13:31:23Z</time>
      </trkpt>
      <trkpt lat="44.23225" lon="4.45997">
        <ele>136</ele>
        <time>2021-07-04T13:31:31Z</time>
      </trkpt>
      <trkpt lat="44.23282" lon="4.45946">
        <ele>137</ele>
        <time>2021-07-04T13:31:47Z</time>
      </trkpt>
      <trkpt lat="44.23295" lon="4.45922">
        <ele>138</ele>
        <time>2021-07-04T13:31:52Z</time>
      </trkpt>
      <trkpt lat="44.23342" lon="4.45891">
        <ele>138</ele>
        <time>2021-07-04T13:32:04Z</time>
      </trkpt>
      <trkpt lat="44.23343" lon="4.45859">
        <ele>139</ele>
        <time>2021-07-04T13:32:10Z</time>
      </trkpt>
      <trkpt lat="44.23365" lon="4.45815">
        <ele>138</ele>
        <time>2021-07-04T13:32:19Z</time>
      </trkpt>
      <trkpt lat="44.23382" lon="4.45772">
        <ele>135</ele>
        <time>2021-07-04T13:32:27Z</time>
      </trkpt>
      <trkpt lat="44.2338" lon="4.45708">
        <ele>133</ele>
        <time>2021-07-04T13:32:37Z</time>
      </trkpt>
      <trkpt lat="44.23389" lon="4.4565">
        <ele>133</ele>
        <time>2021-07-04T13:32:47Z</time>
      </trkpt>
      <trkpt lat="44.23431" lon="4.45606">
        <ele>139</ele>
        <time>2021-07-04T13:33:00Z</time>
      </trkpt>
      <trkpt lat="44.23474" lon="4.45531">
        <ele>136</ele>
        <time>2021-07-04T13:33:16Z</time>
      </trkpt>
      <trkpt lat="44.23508" lon="4.45482">
        <ele>137</ele>
        <time>2021-07-04T13:33:27Z</time>
      </trkpt>
      <trkpt lat="44.2353" lon="4.45467">
        <ele>137</ele>
        <time>2021-07-04T13:33:33Z</time>
      </trkpt>
      <trkpt lat="44.23551" lon="4.45446">
        <ele>138</ele>
        <time>2021-07-04T13:33:39Z</time>
      </trkpt>
      <trkpt lat="44.23554" lon="4.45438">
        <ele>138</ele>
        <time>2021-07-04T13:33:40Z</time>
      </trkpt>
      <trkpt lat="44.23571" lon="4.45451">
        <ele>141</ele>
        <time>2021-07-04T13:33:45Z</time>
      </trkpt>
      <trkpt lat="44.23593" lon="4.45464">
        <ele>142</ele>
        <time>2021-07-04T13:33:51Z</time>
      </trkpt>
      <trkpt lat="44.23626" lon="4.45501">
        <ele>139</ele>
        <time>2021-07-04T13:34:00Z</time>
      </trkpt>
      <trkpt lat="44.23648" lon="4.45531">
        <ele>137</ele>
        <time>2021-07-04T13:34:08Z</time>
      </trkpt>
      <trkpt lat="44.23669" lon="4.45561">
        <ele>135</ele>
        <time>2021-07-04T13:34:15Z</time>
      </trkpt>
      <trkpt lat="44.23686" lon="4.45575">
        <ele>134</ele>
        <time>2021-07-04T13:34:19Z</time>
      </trkpt>
      <trkpt lat="44.23697" lon="4.45577">
        <ele>133</ele>
        <time>2021-07-04T13:34:22Z</time>
      </trkpt>
      <trkpt lat="44.23714" lon="4.45567">
        <ele>133</ele>
        <time>2021-07-04T13:34:26Z</time>
      </trkpt>
      <trkpt lat="44.23738" lon="4.45547">
        <ele>133</ele>
        <time>2021-07-04T13:34:33Z</time>
      </trkpt>
      <trkpt lat="44.23756" lon="4.45552">
        <ele>132</ele>
        <time>2021-07-04T13:34:37Z</time>
      </trkpt>
      <trkpt lat="44.2377" lon="4.45557">
        <ele>132</ele>
        <time>2021-07-04T13:34:40Z</time>
      </trkpt>
      <trkpt lat="44.23789" lon="4.45566">
        <ele>131</ele>
        <time>2021-07-04T13:34:45Z</time>
      </trkpt>
      <trkpt lat="44.23815" lon="4.45577">
        <ele>130</ele>
        <time>2021-07-04T13:34:51Z</time>
      </trkpt>
      <trkpt lat="44.23839" lon="4.45585">
        <ele>129</ele>
        <time>2021-07-04T13:34:57Z</time>
      </trkpt>
      <trkpt lat="44.23861" lon="4.45599">
        <ele>126</ele>
        <time>2021-07-04T13:35:03Z</time>
      </trkpt>
      <trkpt lat="44.2388" lon="4.45605">
        <ele>125</ele>
        <time>2021-07-04T13:35:07Z</time>
      </trkpt>
      <trkpt lat="44.23897" lon="4.45611">
        <ele>123</ele>
        <time>2021-07-04T13:35:11Z</time>
      </trkpt>
      <trkpt lat="44.23912" lon="4.45611">
        <ele>122</ele>
        <time>2021-07-04T13:35:15Z</time>
      </trkpt>
      <trkpt lat="44.23926" lon="4.45608">
        <ele>122</ele>
        <time>2021-07-04T13:35:18Z</time>
      </trkpt>
      <trkpt lat="44.23935" lon="4.45607">
        <ele>122</ele>
        <time>2021-07-04T13:35:20Z</time>
      </trkpt>
      <trkpt lat="44.23944" lon="4.45605">
        <ele>123</ele>
        <time>2021-07-04T13:35:22Z</time>
      </trkpt>
      <trkpt lat="44.23951" lon="4.45604">
        <ele>123</ele>
        <time>2021-07-04T13:35:24Z</time>
      </trkpt>
      <trkpt lat="44.23961" lon="4.45609">
        <ele>123</ele>
        <time>2021-07-04T13:35:27Z</time>
      </trkpt>
      <trkpt lat="44.2397" lon="4.45622">
        <ele>122</ele>
        <time>2021-07-04T13:35:30Z</time>
      </trkpt>
      <trkpt lat="44.23983" lon="4.45636">
        <ele>122</ele>
        <time>2021-07-04T13:35:33Z</time>
      </trkpt>
      <trkpt lat="44.23976" lon="4.45657">
        <ele>121</ele>
        <time>2021-07-04T13:35:37Z</time>
      </trkpt>
      <trkpt lat="44.2397" lon="4.45684">
        <ele>119</ele>
        <time>2021-07-04T13:35:42Z</time>
      </trkpt>
      <trkpt lat="44.23963" lon="4.4573">
        <ele>118</ele>
        <time>2021-07-04T13:35:50Z</time>
      </trkpt>
      <trkpt lat="44.23931" lon="4.45755">
        <ele>117</ele>
        <time>2021-07-04T13:35:58Z</time>
      </trkpt>
      <trkpt lat="44.23911" lon="4.45778">
        <ele>116</ele>
        <time>2021-07-04T13:36:04Z</time>
      </trkpt>
    </trkseg>
  </trk>
  <trk>
    <name><![CDATA[Rouge St André Montclus]]></name>
    <extensions>
      <line xmlns="http://www.topografix.com/GPX/gpx_style/0/2">
        <color>fa0000</color>
        <width>4</width>
      </line>
    </extensions>
    <trkseg>
      <trkpt lat="44.23912" lon="4.45783">
        <ele>116</ele>
        <time>2021-07-04T13:18:36Z</time>
      </trkpt>
      <trkpt lat="44.23933" lon="4.45758">
        <ele>117</ele>
        <time>2021-07-04T13:18:42Z</time>
      </trkpt>
      <trkpt lat="44.23993" lon="4.45715">
        <ele>119</ele>
        <time>2021-07-04T13:18:58Z</time>
      </trkpt>
      <trkpt lat="44.24022" lon="4.4572">
        <ele>117</ele>
        <time>2021-07-04T13:19:05Z</time>
      </trkpt>
      <trkpt lat="44.24033" lon="4.45689">
        <ele>118</ele>
        <time>2021-07-04T13:19:11Z</time>
      </trkpt>
      <trkpt lat="44.2404" lon="4.45648">
        <ele>119</ele>
        <time>2021-07-04T13:19:18Z</time>
      </trkpt>
      <trkpt lat="44.24066" lon="4.45634">
        <ele>117</ele>
        <time>2021-07-04T13:19:24Z</time>
      </trkpt>
      <trkpt lat="44.24078" lon="4.45526">
        <ele>116</ele>
        <time>2021-07-04T13:19:43Z</time>
      </trkpt>
      <trkpt lat="44.24084" lon="4.45487">
        <ele>115</ele>
        <time>2021-07-04T13:19:49Z</time>
      </trkpt>
      <trkpt lat="44.2408" lon="4.45403">
        <ele>113</ele>
        <time>2021-07-04T13:20:03Z</time>
      </trkpt>
      <trkpt lat="44.2409" lon="4.45354">
        <ele>111</ele>
        <time>2021-07-04T13:20:12Z</time>
      </trkpt>
      <trkpt lat="44.24132" lon="4.45303">
        <ele>102</ele>
        <time>2021-07-04T13:20:25Z</time>
      </trkpt>
      <trkpt lat="44.24079" lon="4.45238">
        <ele>101</ele>
        <time>2021-07-04T13:20:41Z</time>
      </trkpt>
      <trkpt lat="44.24077" lon="4.45221">
        <ele>99</ele>
        <time>2021-07-04T13:20:44Z</time>
      </trkpt>
      <trkpt lat="44.24162" lon="4.45274">
        <ele>94</ele>
        <time>2021-07-04T13:21:06Z</time>
      </trkpt>
      <trkpt lat="44.24225" lon="4.45204">
        <ele>89</ele>
        <time>2021-07-04T13:21:25Z</time>
      </trkpt>
      <trkpt lat="44.24259" lon="4.45174">
        <ele>88</ele>
        <time>2021-07-04T13:21:34Z</time>
      </trkpt>
      <trkpt lat="44.24362" lon="4.45127">
        <ele>92</ele>
        <time>2021-07-04T13:22:00Z</time>
      </trkpt>
      <trkpt lat="44.24382" lon="4.45108">
        <ele>92</ele>
        <time>2021-07-04T13:22:05Z</time>
      </trkpt>
      <trkpt lat="44.24495" lon="4.45095">
        <ele>95</ele>
        <time>2021-07-04T13:22:32Z</time>
      </trkpt>
      <trkpt lat="44.24588" lon="4.45082">
        <ele>93</ele>
        <time>2021-07-04T13:22:53Z</time>
      </trkpt>
      <trkpt lat="44.24624" lon="4.45072">
        <ele>92</ele>
        <time>2021-07-04T13:23:02Z</time>
      </trkpt>
      <trkpt lat="44.24742" lon="4.45017">
        <ele>93</ele>
        <time>2021-07-04T13:23:31Z</time>
      </trkpt>
      <trkpt lat="44.24825" lon="4.4498">
        <ele>98</ele>
        <time>2021-07-04T13:23:51Z</time>
      </trkpt>
      <trkpt lat="44.24795" lon="4.44836">
        <ele>94</ele>
        <time>2021-07-04T13:24:17Z</time>
      </trkpt>
      <trkpt lat="44.24783" lon="4.44832">
        <ele>94</ele>
        <time>2021-07-04T13:24:19Z</time>
      </trkpt>
      <trkpt lat="44.2472" lon="4.44831">
        <ele>92</ele>
        <time>2021-07-04T13:24:34Z</time>
      </trkpt>
      <trkpt lat="44.24682" lon="4.44808">
        <ele>91</ele>
        <time>2021-07-04T13:24:44Z</time>
      </trkpt>
      <trkpt lat="44.24678" lon="4.44795">
        <ele>91</ele>
        <time>2021-07-04T13:24:46Z</time>
      </trkpt>
      <trkpt lat="44.24696" lon="4.4474">
        <ele>98</ele>
        <time>2021-07-04T13:24:56Z</time>
      </trkpt>
      <trkpt lat="44.24745" lon="4.44668">
        <ele>110</ele>
        <time>2021-07-04T13:25:13Z</time>
      </trkpt>
      <trkpt lat="44.24761" lon="4.44617">
        <ele>117</ele>
        <time>2021-07-04T13:25:22Z</time>
      </trkpt>
      <trkpt lat="44.24783" lon="4.44578">
        <ele>122</ele>
        <time>2021-07-04T13:25:31Z</time>
      </trkpt>
      <trkpt lat="44.2482" lon="4.44556">
        <ele>126</ele>
        <time>2021-07-04T13:25:40Z</time>
      </trkpt>
      <trkpt lat="44.24831" lon="4.44531">
        <ele>128</ele>
        <time>2021-07-04T13:25:45Z</time>
      </trkpt>
      <trkpt lat="44.24871" lon="4.44485">
        <ele>126</ele>
        <time>2021-07-04T13:25:57Z</time>
      </trkpt>
      <trkpt lat="44.2491" lon="4.44304">
        <ele>144</ele>
        <time>2021-07-04T13:26:29Z</time>
      </trkpt>
      <trkpt lat="44.24932" lon="4.44204">
        <ele>150</ele>
        <time>2021-07-04T13:26:46Z</time>
      </trkpt>
      <trkpt lat="44.24935" lon="4.44115">
        <ele>158</ele>
        <time>2021-07-04T13:27:01Z</time>
      </trkpt>
      <trkpt lat="44.24968" lon="4.44082">
        <ele>160</ele>
        <time>2021-07-04T13:27:10Z</time>
      </trkpt>
      <trkpt lat="44.25028" lon="4.43955">
        <ele>167</ele>
        <time>2021-07-04T13:27:36Z</time>
      </trkpt>
      <trkpt lat="44.25102" lon="4.43803">
        <ele>178</ele>
        <time>2021-07-04T13:28:07Z</time>
      </trkpt>
      <trkpt lat="44.25106" lon="4.4372">
        <ele>183</ele>
        <time>2021-07-04T13:28:21Z</time>
      </trkpt>
      <trkpt lat="44.25132" lon="4.43645">
        <ele>190</ele>
        <time>2021-07-04T13:28:34Z</time>
      </trkpt>
      <trkpt lat="44.25131" lon="4.43568">
        <ele>193</ele>
        <time>2021-07-04T13:28:47Z</time>
      </trkpt>
      <trkpt lat="44.2513" lon="4.43494">
        <ele>194</ele>
        <time>2021-07-04T13:29:00Z</time>
      </trkpt>
      <trkpt lat="44.25136" lon="4.43409">
        <ele>196</ele>
        <time>2021-07-04T13:29:14Z</time>
      </trkpt>
      <trkpt lat="44.25143" lon="4.43312">
        <ele>198</ele>
        <time>2021-07-04T13:29:30Z</time>
      </trkpt>
      <trkpt lat="44.25132" lon="4.43265">
        <ele>198</ele>
        <time>2021-07-04T13:29:39Z</time>
      </trkpt>
      <trkpt lat="44.2509" lon="4.43167">
        <ele>198</ele>
        <time>2021-07-04T13:29:58Z</time>
      </trkpt>
      <trkpt lat="44.25094" lon="4.43085">
        <ele>196</ele>
        <time>2021-07-04T13:30:11Z</time>
      </trkpt>
      <trkpt lat="44.25131" lon="4.42996">
        <ele>196</ele>
        <time>2021-07-04T13:30:29Z</time>
      </trkpt>
      <trkpt lat="44.25194" lon="4.42944">
        <ele>200</ele>
        <time>2021-07-04T13:30:46Z</time>
      </trkpt>
      <trkpt lat="44.25223" lon="4.42937">
        <ele>201</ele>
        <time>2021-07-04T13:30:53Z</time>
      </trkpt>
      <trkpt lat="44.25283" lon="4.42914">
        <ele>201</ele>
        <time>2021-07-04T13:31:07Z</time>
      </trkpt>
      <trkpt lat="44.25267" lon="4.42823">
        <ele>201</ele>
        <time>2021-07-04T13:31:23Z</time>
      </trkpt>
      <trkpt lat="44.25261" lon="4.42781">
        <ele>198</ele>
        <time>2021-07-04T13:31:30Z</time>
      </trkpt>
      <trkpt lat="44.25234" lon="4.42738">
        <ele>195</ele>
        <time>2021-07-04T13:31:40Z</time>
      </trkpt>
      <trkpt lat="44.25211" lon="4.42645">
        <ele>190</ele>
        <time>2021-07-04T13:31:56Z</time>
      </trkpt>
      <trkpt lat="44.25202" lon="4.42564">
        <ele>189</ele>
        <time>2021-07-04T13:32:10Z</time>
      </trkpt>
      <trkpt lat="44.25188" lon="4.42522">
        <ele>189</ele>
        <time>2021-07-04T13:32:17Z</time>
      </trkpt>
      <trkpt lat="44.25171" lon="4.42456">
        <ele>189</ele>
        <time>2021-07-04T13:32:29Z</time>
      </trkpt>
      <trkpt lat="44.25139" lon="4.42393">
        <ele>189</ele>
        <time>2021-07-04T13:32:42Z</time>
      </trkpt>
      <trkpt lat="44.25124" lon="4.42355">
        <ele>189</ele>
        <time>2021-07-04T13:32:49Z</time>
      </trkpt>
      <trkpt lat="44.2512" lon="4.42295">
        <ele>190</ele>
        <time>2021-07-04T13:32:59Z</time>
      </trkpt>
      <trkpt lat="44.25118" lon="4.42286">
        <ele>190</ele>
        <time>2021-07-04T13:33:01Z</time>
      </trkpt>
      <trkpt lat="44.2513" lon="4.42296">
        <ele>189</ele>
        <time>2021-07-04T13:33:04Z</time>
      </trkpt>
      <trkpt lat="44.25157" lon="4.42278">
        <ele>187</ele>
        <time>2021-07-04T13:33:11Z</time>
      </trkpt>
      <trkpt lat="44.2519" lon="4.42301">
        <ele>183</ele>
        <time>2021-07-04T13:33:20Z</time>
      </trkpt>
      <trkpt lat="44.2522" lon="4.42329">
        <ele>177</ele>
        <time>2021-07-04T13:33:28Z</time>
      </trkpt>
      <trkpt lat="44.25238" lon="4.42332">
        <ele>174</ele>
        <time>2021-07-04T13:33:33Z</time>
      </trkpt>
      <trkpt lat="44.25257" lon="4.42323">
        <ele>172</ele>
        <time>2021-07-04T13:33:37Z</time>
      </trkpt>
      <trkpt lat="44.25291" lon="4.42323">
        <ele>165</ele>
        <time>2021-07-04T13:33:45Z</time>
      </trkpt>
      <trkpt lat="44.253" lon="4.42313">
        <ele>164</ele>
        <time>2021-07-04T13:33:48Z</time>
      </trkpt>
      <trkpt lat="44.25306" lon="4.42274">
        <ele>163</ele>
        <time>2021-07-04T13:33:55Z</time>
      </trkpt>
      <trkpt lat="44.25308" lon="4.4226">
        <ele>163</ele>
        <time>2021-07-04T13:33:57Z</time>
      </trkpt>
      <trkpt lat="44.25342" lon="4.42229">
        <ele>157</ele>
        <time>2021-07-04T13:34:06Z</time>
      </trkpt>
      <trkpt lat="44.25348" lon="4.42203">
        <ele>159</ele>
        <time>2021-07-04T13:34:11Z</time>
      </trkpt>
      <trkpt lat="44.25376" lon="4.42213">
        <ele>155</ele>
        <time>2021-07-04T13:34:18Z</time>
      </trkpt>
      <trkpt lat="44.2541" lon="4.42212">
        <ele>152</ele>
        <time>2021-07-04T13:34:26Z</time>
      </trkpt>
      <trkpt lat="44.25447" lon="4.42215">
        <ele>143</ele>
        <time>2021-07-04T13:34:34Z</time>
      </trkpt>
      <trkpt lat="44.2553" lon="4.42159">
        <ele>125</ele>
        <time>2021-07-04T13:34:56Z</time>
      </trkpt>
      <trkpt lat="44.25545" lon="4.42141">
        <ele>122</ele>
        <time>2021-07-04T13:35:00Z</time>
      </trkpt>
      <trkpt lat="44.25578" lon="4.42126">
        <ele>114</ele>
        <time>2021-07-04T13:35:09Z</time>
      </trkpt>
      <trkpt lat="44.25616" lon="4.4211">
        <ele>111</ele>
        <time>2021-07-04T13:35:18Z</time>
      </trkpt>
      <trkpt lat="44.25612" lon="4.42094">
        <ele>113</ele>
        <time>2021-07-04T13:35:21Z</time>
      </trkpt>
      <trkpt lat="44.25675" lon="4.4207">
        <ele>111</ele>
        <time>2021-07-04T13:35:36Z</time>
      </trkpt>
      <trkpt lat="44.2574" lon="4.42007">
        <ele>115</ele>
        <time>2021-07-04T13:35:54Z</time>
      </trkpt>
      <trkpt lat="44.25794" lon="4.41977">
        <ele>113</ele>
        <time>2021-07-04T13:36:08Z</time>
      </trkpt>
      <trkpt lat="44.25856" lon="4.41906">
        <ele>121</ele>
        <time>2021-07-04T13:36:27Z</time>
      </trkpt>
      <trkpt lat="44.25927" lon="4.41835">
        <ele>115</ele>
        <time>2021-07-04T13:36:47Z</time>
      </trkpt>
      <trkpt lat="44.26013" lon="4.4177">
        <ele>112</ele>
        <time>2021-07-04T13:37:10Z</time>
      </trkpt>
      <trkpt lat="44.26094" lon="4.41727">
        <ele>107</ele>
        <time>2021-07-04T13:37:30Z</time>
      </trkpt>
      <trkpt lat="44.26147" lon="4.41719">
        <ele>105</ele>
        <time>2021-07-04T13:37:43Z</time>
      </trkpt>
      <trkpt lat="44.26193" lon="4.41761">
        <ele>104</ele>
        <time>2021-07-04T13:37:55Z</time>
      </trkpt>
      <trkpt lat="44.26249" lon="4.41824">
        <ele>98</ele>
        <time>2021-07-04T13:38:12Z</time>
      </trkpt>
      <trkpt lat="44.26246" lon="4.41903">
        <ele>92</ele>
        <time>2021-07-04T13:38:26Z</time>
      </trkpt>
      <trkpt lat="44.2623" lon="4.42005">
        <ele>89</ele>
        <time>2021-07-04T13:38:43Z</time>
      </trkpt>
      <trkpt lat="44.26307" lon="4.42028">
        <ele>88</ele>
        <time>2021-07-04T13:39:01Z</time>
      </trkpt>
      <trkpt lat="44.26395" lon="4.42063">
        <ele>90</ele>
        <time>2021-07-04T13:39:23Z</time>
      </trkpt>
      <trkpt lat="44.26425" lon="4.42082">
        <ele>91</ele>
        <time>2021-07-04T13:39:30Z</time>
      </trkpt>
      <trkpt lat="44.2645" lon="4.42178">
        <ele>91</ele>
        <time>2021-07-04T13:39:48Z</time>
      </trkpt>
      <trkpt lat="44.26505" lon="4.42296">
        <ele>92</ele>
        <time>2021-07-04T13:40:11Z</time>
      </trkpt>
      <trkpt lat="44.26554" lon="4.42412">
        <ele>93</ele>
        <time>2021-07-04T13:40:34Z</time>
      </trkpt>
      <trkpt lat="44.26576" lon="4.42493">
        <ele>98</ele>
        <time>2021-07-04T13:40:48Z</time>
      </trkpt>
      <trkpt lat="44.26599" lon="4.42586">
        <ele>101</ele>
        <time>2021-07-04T13:41:05Z</time>
      </trkpt>
      <trkpt lat="44.26665" lon="4.42685">
        <ele>98</ele>
        <time>2021-07-04T13:41:27Z</time>
      </trkpt>
      <trkpt lat="44.26703" lon="4.42764">
        <ele>99</ele>
        <time>2021-07-04T13:41:43Z</time>
      </trkpt>
      <trkpt lat="44.2673" lon="4.42866">
        <ele>107</ele>
        <time>2021-07-04T13:42:01Z</time>
      </trkpt>
      <trkpt lat="44.26748" lon="4.42916">
        <ele>108</ele>
        <time>2021-07-04T13:42:11Z</time>
      </trkpt>
      <trkpt lat="44.26755" lon="4.42946">
        <ele>111</ele>
        <time>2021-07-04T13:42:16Z</time>
      </trkpt>
      <trkpt lat="44.26749" lon="4.42958">
        <ele>113</ele>
        <time>2021-07-04T13:42:18Z</time>
      </trkpt>
      <trkpt lat="44.26751" lon="4.42988">
        <ele>116</ele>
        <time>2021-07-04T13:42:23Z</time>
      </trkpt>
      <trkpt lat="44.26811" lon="4.43022">
        <ele>117</ele>
        <time>2021-07-04T13:42:38Z</time>
      </trkpt>
      <trkpt lat="44.26813" lon="4.43042">
        <ele>119</ele>
        <time>2021-07-04T13:42:42Z</time>
      </trkpt>
      <trkpt lat="44.2676" lon="4.43081">
        <ele>125</ele>
        <time>2021-07-04T13:42:56Z</time>
      </trkpt>
      <trkpt lat="44.26736" lon="4.43107">
        <ele>130</ele>
        <time>2021-07-04T13:43:03Z</time>
      </trkpt>
      <trkpt lat="44.26788" lon="4.43227">
        <ele>142</ele>
        <time>2021-07-04T13:43:26Z</time>
      </trkpt>
      <trkpt lat="44.2679" lon="4.43255">
        <ele>145</ele>
        <time>2021-07-04T13:43:31Z</time>
      </trkpt>
      <trkpt lat="44.26751" lon="4.43228">
        <ele>148</ele>
        <time>2021-07-04T13:43:41Z</time>
      </trkpt>
      <trkpt lat="44.26746" lon="4.43229">
        <ele>149</ele>
        <time>2021-07-04T13:43:42Z</time>
      </trkpt>
      <trkpt lat="44.26747" lon="4.43238">
        <ele>150</ele>
        <time>2021-07-04T13:43:44Z</time>
      </trkpt>
      <trkpt lat="44.26804" lon="4.43394">
        <ele>159</ele>
        <time>2021-07-04T13:44:13Z</time>
      </trkpt>
      <trkpt lat="44.26803" lon="4.43405">
        <ele>160</ele>
        <time>2021-07-04T13:44:15Z</time>
      </trkpt>
      <trkpt lat="44.26795" lon="4.43424">
        <ele>164</ele>
        <time>2021-07-04T13:44:19Z</time>
      </trkpt>
      <trkpt lat="44.26754" lon="4.43478">
        <ele>173</ele>
        <time>2021-07-04T13:44:32Z</time>
      </trkpt>
      <trkpt lat="44.2671" lon="4.43532">
        <ele>177</ele>
        <time>2021-07-04T13:44:46Z</time>
      </trkpt>
      <trkpt lat="44.2666" lon="4.43589">
        <ele>180</ele>
        <time>2021-07-04T13:45:01Z</time>
      </trkpt>
      <trkpt lat="44.26688" lon="4.43611">
        <ele>179</ele>
        <time>2021-07-04T13:45:08Z</time>
      </trkpt>
      <trkpt lat="44.26678" lon="4.43646">
        <ele>179</ele>
        <time>2021-07-04T13:45:15Z</time>
      </trkpt>
      <trkpt lat="44.2666" lon="4.43731">
        <ele>183</ele>
        <time>2021-07-04T13:45:29Z</time>
      </trkpt>
      <trkpt lat="44.26637" lon="4.43839">
        <ele>187</ele>
        <time>2021-07-04T13:45:48Z</time>
      </trkpt>
      <trkpt lat="44.26596" lon="4.43853">
        <ele>188</ele>
        <time>2021-07-04T13:45:58Z</time>
      </trkpt>
      <trkpt lat="44.26573" lon="4.43888">
        <ele>189</ele>
        <time>2021-07-04T13:46:06Z</time>
      </trkpt>
      <trkpt lat="44.2655" lon="4.43925">
        <ele>188</ele>
        <time>2021-07-04T13:46:14Z</time>
      </trkpt>
      <trkpt lat="44.26512" lon="4.43966">
        <ele>186</ele>
        <time>2021-07-04T13:46:25Z</time>
      </trkpt>
      <trkpt lat="44.26501" lon="4.43978">
        <ele>185</ele>
        <time>2021-07-04T13:46:29Z</time>
      </trkpt>
      <trkpt lat="44.26567" lon="4.44028">
        <ele>197</ele>
        <time>2021-07-04T13:46:46Z</time>
      </trkpt>
      <trkpt lat="44.26621" lon="4.43965">
        <ele>198</ele>
        <time>2021-07-04T13:47:03Z</time>
      </trkpt>
      <trkpt lat="44.26649" lon="4.43949">
        <ele>198</ele>
        <time>2021-07-04T13:47:10Z</time>
      </trkpt>
      <trkpt lat="44.26708" lon="4.4397">
        <ele>204</ele>
        <time>2021-07-04T13:47:24Z</time>
      </trkpt>
      <trkpt lat="44.26736" lon="4.44004">
        <ele>211</ele>
        <time>2021-07-04T13:47:33Z</time>
      </trkpt>
      <trkpt lat="44.26763" lon="4.44022">
        <ele>214</ele>
        <time>2021-07-04T13:47:40Z</time>
      </trkpt>
      <trkpt lat="44.26806" lon="4.44036">
        <ele>212</ele>
        <time>2021-07-04T13:47:50Z</time>
      </trkpt>
      <trkpt lat="44.26829" lon="4.44055">
        <ele>213</ele>
        <time>2021-07-04T13:47:56Z</time>
      </trkpt>
      <trkpt lat="44.2684" lon="4.44087">
        <ele>218</ele>
        <time>2021-07-04T13:48:02Z</time>
      </trkpt>
      <trkpt lat="44.26838" lon="4.44111">
        <ele>219</ele>
        <time>2021-07-04T13:48:06Z</time>
      </trkpt>
      <trkpt lat="44.26805" lon="4.4417">
        <ele>228</ele>
        <time>2021-07-04T13:48:19Z</time>
      </trkpt>
      <trkpt lat="44.26765" lon="4.44229">
        <ele>235</ele>
        <time>2021-07-04T13:48:32Z</time>
      </trkpt>
      <trkpt lat="44.26739" lon="4.44309">
        <ele>242</ele>
        <time>2021-07-04T13:48:47Z</time>
      </trkpt>
      <trkpt lat="44.26696" lon="4.44307">
        <ele>240</ele>
        <time>2021-07-04T13:48:57Z</time>
      </trkpt>
      <trkpt lat="44.26692" lon="4.44272">
        <ele>237</ele>
        <time>2021-07-04T13:49:03Z</time>
      </trkpt>
      <trkpt lat="44.26679" lon="4.44271">
        <ele>236</ele>
        <time>2021-07-04T13:49:06Z</time>
      </trkpt>
      <trkpt lat="44.26536" lon="4.44457">
        <ele>215</ele>
        <time>2021-07-04T13:49:52Z</time>
      </trkpt>
      <trkpt lat="44.26523" lon="4.4447">
        <ele>212</ele>
        <time>2021-07-04T13:49:55Z</time>
      </trkpt>
      <trkpt lat="44.26507" lon="4.44471">
        <ele>207</ele>
        <time>2021-07-04T13:49:59Z</time>
      </trkpt>
      <trkpt lat="44.265" lon="4.4446">
        <ele>204</ele>
        <time>2021-07-04T13:50:01Z</time>
      </trkpt>
      <trkpt lat="44.2648" lon="4.44411">
        <ele>198</ele>
        <time>2021-07-04T13:50:11Z</time>
      </trkpt>
      <trkpt lat="44.26443" lon="4.44392">
        <ele>190</ele>
        <time>2021-07-04T13:50:20Z</time>
      </trkpt>
      <trkpt lat="44.26415" lon="4.44315">
        <ele>184</ele>
        <time>2021-07-04T13:50:35Z</time>
      </trkpt>
      <trkpt lat="44.26388" lon="4.44255">
        <ele>178</ele>
        <time>2021-07-04T13:50:46Z</time>
      </trkpt>
      <trkpt lat="44.2635" lon="4.44234">
        <ele>175</ele>
        <time>2021-07-04T13:50:56Z</time>
      </trkpt>
      <trkpt lat="44.26317" lon="4.44213">
        <ele>174</ele>
        <time>2021-07-04T13:51:04Z</time>
      </trkpt>
      <trkpt lat="44.26306" lon="4.44204">
        <ele>173</ele>
        <time>2021-07-04T13:51:07Z</time>
      </trkpt>
      <trkpt lat="44.26299" lon="4.44306">
        <ele>169</ele>
        <time>2021-07-04T13:51:25Z</time>
      </trkpt>
      <trkpt lat="44.26286" lon="4.44382">
        <ele>168</ele>
        <time>2021-07-04T13:51:38Z</time>
      </trkpt>
      <trkpt lat="44.26277" lon="4.44451">
        <ele>169</ele>
        <time>2021-07-04T13:51:49Z</time>
      </trkpt>
      <trkpt lat="44.26294" lon="4.44498">
        <ele>172</ele>
        <time>2021-07-04T13:51:58Z</time>
      </trkpt>
      <trkpt lat="44.26284" lon="4.44567">
        <ele>176</ele>
        <time>2021-07-04T13:52:10Z</time>
      </trkpt>
      <trkpt lat="44.2625" lon="4.44626">
        <ele>174</ele>
        <time>2021-07-04T13:52:23Z</time>
      </trkpt>
      <trkpt lat="44.26237" lon="4.44636">
        <ele>171</ele>
        <time>2021-07-04T13:52:26Z</time>
      </trkpt>
      <trkpt lat="44.26235" lon="4.44671">
        <ele>171</ele>
        <time>2021-07-04T13:52:32Z</time>
      </trkpt>
      <trkpt lat="44.26243" lon="4.44723">
        <ele>172</ele>
        <time>2021-07-04T13:52:41Z</time>
      </trkpt>
      <trkpt lat="44.26251" lon="4.44804">
        <ele>169</ele>
        <time>2021-07-04T13:52:54Z</time>
      </trkpt>
      <trkpt lat="44.26267" lon="4.44832">
        <ele>169</ele>
        <time>2021-07-04T13:53:00Z</time>
      </trkpt>
      <trkpt lat="44.26319" lon="4.44892">
        <ele>171</ele>
        <time>2021-07-04T13:53:16Z</time>
      </trkpt>
      <trkpt lat="44.26326" lon="4.44899">
        <ele>171</ele>
        <time>2021-07-04T13:53:18Z</time>
      </trkpt>
      <trkpt lat="44.26326" lon="4.44909">
        <ele>170</ele>
        <time>2021-07-04T13:53:20Z</time>
      </trkpt>
      <trkpt lat="44.26302" lon="4.44901">
        <ele>168</ele>
        <time>2021-07-04T13:53:26Z</time>
      </trkpt>
      <trkpt lat="44.26247" lon="4.44876">
        <ele>163</ele>
        <time>2021-07-04T13:53:39Z</time>
      </trkpt>
      <trkpt lat="44.26234" lon="4.44879">
        <ele>163</ele>
        <time>2021-07-04T13:53:42Z</time>
      </trkpt>
      <trkpt lat="44.26221" lon="4.44897">
        <ele>162</ele>
        <time>2021-07-04T13:53:47Z</time>
      </trkpt>
      <trkpt lat="44.2621" lon="4.44936">
        <ele>163</ele>
        <time>2021-07-04T13:53:54Z</time>
      </trkpt>
      <trkpt lat="44.26202" lon="4.4494">
        <ele>163</ele>
        <time>2021-07-04T13:53:56Z</time>
      </trkpt>
      <trkpt lat="44.26184" lon="4.44894">
        <ele>161</ele>
        <time>2021-07-04T13:54:04Z</time>
      </trkpt>
      <trkpt lat="44.26178" lon="4.44895">
        <ele>161</ele>
        <time>2021-07-04T13:54:06Z</time>
      </trkpt>
      <trkpt lat="44.26167" lon="4.44992">
        <ele>166</ele>
        <time>2021-07-04T13:54:22Z</time>
      </trkpt>
      <trkpt lat="44.26115" lon="4.45042">
        <ele>165</ele>
        <time>2021-07-04T13:54:37Z</time>
      </trkpt>
      <trkpt lat="44.26119" lon="4.45094">
        <ele>167</ele>
        <time>2021-07-04T13:54:46Z</time>
      </trkpt>
      <trkpt lat="44.26122" lon="4.45146">
        <ele>168</ele>
        <time>2021-07-04T13:54:54Z</time>
      </trkpt>
      <trkpt lat="44.26147" lon="4.4519">
        <ele>175</ele>
        <time>2021-07-04T13:55:04Z</time>
      </trkpt>
      <trkpt lat="44.26166" lon="4.45245">
        <ele>184</ele>
        <time>2021-07-04T13:55:14Z</time>
      </trkpt>
      <trkpt lat="44.26168" lon="4.45302">
        <ele>185</ele>
        <time>2021-07-04T13:55:23Z</time>
      </trkpt>
      <trkpt lat="44.26166" lon="4.4533">
        <ele>185</ele>
        <time>2021-07-04T13:55:28Z</time>
      </trkpt>
      <trkpt lat="44.26155" lon="4.45354">
        <ele>181</ele>
        <time>2021-07-04T13:55:33Z</time>
      </trkpt>
      <trkpt lat="44.26167" lon="4.45375">
        <ele>182</ele>
        <time>2021-07-04T13:55:37Z</time>
      </trkpt>
      <trkpt lat="44.26174" lon="4.45416">
        <ele>180</ele>
        <time>2021-07-04T13:55:45Z</time>
      </trkpt>
      <trkpt lat="44.26217" lon="4.4555">
        <ele>186</ele>
        <time>2021-07-04T13:56:09Z</time>
      </trkpt>
      <trkpt lat="44.26217" lon="4.4564">
        <ele>186</ele>
        <time>2021-07-04T13:56:24Z</time>
      </trkpt>
      <trkpt lat="44.26205" lon="4.45656">
        <ele>185</ele>
        <time>2021-07-04T13:56:28Z</time>
      </trkpt>
      <trkpt lat="44.26169" lon="4.4566">
        <ele>183</ele>
        <time>2021-07-04T13:56:36Z</time>
      </trkpt>
      <trkpt lat="44.26126" lon="4.45634">
        <ele>187</ele>
        <time>2021-07-04T13:56:47Z</time>
      </trkpt>
      <trkpt lat="44.26093" lon="4.45589">
        <ele>187</ele>
        <time>2021-07-04T13:56:58Z</time>
      </trkpt>
      <trkpt lat="44.26077" lon="4.45579">
        <ele>187</ele>
        <time>2021-07-04T13:57:02Z</time>
      </trkpt>
      <trkpt lat="44.26006" lon="4.45601">
        <ele>197</ele>
        <time>2021-07-04T13:57:19Z</time>
      </trkpt>
      <trkpt lat="44.25962" lon="4.45611">
        <ele>202</ele>
        <time>2021-07-04T13:57:30Z</time>
      </trkpt>
      <trkpt lat="44.25933" lon="4.45627">
        <ele>206</ele>
        <time>2021-07-04T13:57:37Z</time>
      </trkpt>
      <trkpt lat="44.25913" lon="4.45652">
        <ele>208</ele>
        <time>2021-07-04T13:57:43Z</time>
      </trkpt>
      <trkpt lat="44.25904" lon="4.4567">
        <ele>210</ele>
        <time>2021-07-04T13:57:47Z</time>
      </trkpt>
      <trkpt lat="44.25899" lon="4.45695">
        <ele>212</ele>
        <time>2021-07-04T13:57:51Z</time>
      </trkpt>
      <trkpt lat="44.25879" lon="4.4572">
        <ele>214</ele>
        <time>2021-07-04T13:57:57Z</time>
      </trkpt>
      <trkpt lat="44.25866" lon="4.45731">
        <ele>216</ele>
        <time>2021-07-04T13:58:01Z</time>
      </trkpt>
      <trkpt lat="44.25844" lon="4.45738">
        <ele>218</ele>
        <time>2021-07-04T13:58:06Z</time>
      </trkpt>
      <trkpt lat="44.25824" lon="4.45757">
        <ele>220</ele>
        <time>2021-07-04T13:58:12Z</time>
      </trkpt>
      <trkpt lat="44.2579" lon="4.45745">
        <ele>220</ele>
        <time>2021-07-04T13:58:20Z</time>
      </trkpt>
      <trkpt lat="44.2578" lon="4.45746">
        <ele>220</ele>
        <time>2021-07-04T13:58:22Z</time>
      </trkpt>
      <trkpt lat="44.25766" lon="4.45775">
        <ele>223</ele>
        <time>2021-07-04T13:58:28Z</time>
      </trkpt>
      <trkpt lat="44.25724" lon="4.45808">
        <ele>227</ele>
        <time>2021-07-04T13:58:40Z</time>
      </trkpt>
      <trkpt lat="44.25671" lon="4.45853">
        <ele>233</ele>
        <time>2021-07-04T13:58:54Z</time>
      </trkpt>
      <trkpt lat="44.25624" lon="4.45886">
        <ele>241</ele>
        <time>2021-07-04T13:59:06Z</time>
      </trkpt>
      <trkpt lat="44.25587" lon="4.45907">
        <ele>246</ele>
        <time>2021-07-04T13:59:16Z</time>
      </trkpt>
      <trkpt lat="44.25552" lon="4.45893">
        <ele>247</ele>
        <time>2021-07-04T13:59:24Z</time>
      </trkpt>
      <trkpt lat="44.25501" lon="4.46018">
        <ele>254</ele>
        <time>2021-07-04T13:59:48Z</time>
      </trkpt>
      <trkpt lat="44.2548" lon="4.46079">
        <ele>255</ele>
        <time>2021-07-04T14:00:00Z</time>
      </trkpt>
      <trkpt lat="44.25468" lon="4.46129">
        <ele>256</ele>
        <time>2021-07-04T14:00:08Z</time>
      </trkpt>
      <trkpt lat="44.25458" lon="4.46159">
        <ele>257</ele>
        <time>2021-07-04T14:00:14Z</time>
      </trkpt>
      <trkpt lat="44.2546" lon="4.46202">
        <ele>257</ele>
        <time>2021-07-04T14:00:21Z</time>
      </trkpt>
      <trkpt lat="44.25442" lon="4.46284">
        <ele>258</ele>
        <time>2021-07-04T14:00:35Z</time>
      </trkpt>
      <trkpt lat="44.25376" lon="4.46326">
        <ele>261</ele>
        <time>2021-07-04T14:00:52Z</time>
      </trkpt>
      <trkpt lat="44.25345" lon="4.46347">
        <ele>264</ele>
        <time>2021-07-04T14:01:00Z</time>
      </trkpt>
      <trkpt lat="44.25328" lon="4.46369">
        <ele>267</ele>
        <time>2021-07-04T14:01:06Z</time>
      </trkpt>
      <trkpt lat="44.25314" lon="4.46379">
        <ele>268</ele>
        <time>2021-07-04T14:01:10Z</time>
      </trkpt>
      <trkpt lat="44.25305" lon="4.46416">
        <ele>271</ele>
        <time>2021-07-04T14:01:16Z</time>
      </trkpt>
      <trkpt lat="44.25272" lon="4.46417">
        <ele>273</ele>
        <time>2021-07-04T14:01:24Z</time>
      </trkpt>
      <trkpt lat="44.2526" lon="4.46494">
        <ele>274</ele>
        <time>2021-07-04T14:01:37Z</time>
      </trkpt>
      <trkpt lat="44.25251" lon="4.46517">
        <ele>273</ele>
        <time>2021-07-04T14:01:41Z</time>
      </trkpt>
      <trkpt lat="44.25225" lon="4.46546">
        <ele>273</ele>
        <time>2021-07-04T14:01:49Z</time>
      </trkpt>
      <trkpt lat="44.25214" lon="4.46598">
        <ele>271</ele>
        <time>2021-07-04T14:01:58Z</time>
      </trkpt>
      <trkpt lat="44.25209" lon="4.46655">
        <ele>270</ele>
        <time>2021-07-04T14:02:08Z</time>
      </trkpt>
      <trkpt lat="44.25212" lon="4.46763">
        <ele>267</ele>
        <time>2021-07-04T14:02:26Z</time>
      </trkpt>
      <trkpt lat="44.25299" lon="4.4677">
        <ele>268</ele>
        <time>2021-07-04T14:02:46Z</time>
      </trkpt>
      <trkpt lat="44.25323" lon="4.46919">
        <ele>258</ele>
        <time>2021-07-04T14:03:12Z</time>
      </trkpt>
      <trkpt lat="44.25376" lon="4.47002">
        <ele>252</ele>
        <time>2021-07-04T14:03:30Z</time>
      </trkpt>
      <trkpt lat="44.25397" lon="4.47036">
        <ele>249</ele>
        <time>2021-07-04T14:03:38Z</time>
      </trkpt>
      <trkpt lat="44.25439" lon="4.47057">
        <ele>246</ele>
        <time>2021-07-04T14:03:48Z</time>
      </trkpt>
      <trkpt lat="44.25469" lon="4.47087">
        <ele>242</ele>
        <time>2021-07-04T14:03:57Z</time>
      </trkpt>
      <trkpt lat="44.25509" lon="4.47151">
        <ele>234</ele>
        <time>2021-07-04T14:04:11Z</time>
      </trkpt>
      <trkpt lat="44.25567" lon="4.47225">
        <ele>226</ele>
        <time>2021-07-04T14:04:29Z</time>
      </trkpt>
      <trkpt lat="44.25582" lon="4.47236">
        <ele>225</ele>
        <time>2021-07-04T14:04:33Z</time>
      </trkpt>
      <trkpt lat="44.25608" lon="4.4724">
        <ele>225</ele>
        <time>2021-07-04T14:04:40Z</time>
      </trkpt>
      <trkpt lat="44.2561" lon="4.47256">
        <ele>223</ele>
        <time>2021-07-04T14:04:42Z</time>
      </trkpt>
      <trkpt lat="44.25601" lon="4.47299">
        <ele>221</ele>
        <time>2021-07-04T14:04:50Z</time>
      </trkpt>
      <trkpt lat="44.25651" lon="4.47312">
        <ele>220</ele>
        <time>2021-07-04T14:05:02Z</time>
      </trkpt>
      <trkpt lat="44.25678" lon="4.4733">
        <ele>220</ele>
        <time>2021-07-04T14:05:09Z</time>
      </trkpt>
      <trkpt lat="44.2571" lon="4.4737">
        <ele>226</ele>
        <time>2021-07-04T14:05:19Z</time>
      </trkpt>
      <trkpt lat="44.25709" lon="4.47397">
        <ele>228</ele>
        <time>2021-07-04T14:05:23Z</time>
      </trkpt>
      <trkpt lat="44.257" lon="4.47425">
        <ele>230</ele>
        <time>2021-07-04T14:05:28Z</time>
      </trkpt>
      <trkpt lat="44.25708" lon="4.47455">
        <ele>234</ele>
        <time>2021-07-04T14:05:34Z</time>
      </trkpt>
      <trkpt lat="44.25729" lon="4.47497">
        <ele>238</ele>
        <time>2021-07-04T14:05:42Z</time>
      </trkpt>
      <trkpt lat="44.25729" lon="4.47509">
        <ele>239</ele>
        <time>2021-07-04T14:05:44Z</time>
      </trkpt>
      <trkpt lat="44.25681" lon="4.47474">
        <ele>238</ele>
        <time>2021-07-04T14:05:57Z</time>
      </trkpt>
      <trkpt lat="44.25661" lon="4.47446">
        <ele>234</ele>
        <time>2021-07-04T14:06:03Z</time>
      </trkpt>
      <trkpt lat="44.25648" lon="4.47447">
        <ele>234</ele>
        <time>2021-07-04T14:06:07Z</time>
      </trkpt>
      <trkpt lat="44.25622" lon="4.47493">
        <ele>240</ele>
        <time>2021-07-04T14:06:16Z</time>
      </trkpt>
      <trkpt lat="44.25596" lon="4.47546">
        <ele>247</ele>
        <time>2021-07-04T14:06:27Z</time>
      </trkpt>
      <trkpt lat="44.25562" lon="4.47595">
        <ele>251</ele>
        <time>2021-07-04T14:06:38Z</time>
      </trkpt>
      <trkpt lat="44.25517" lon="4.47639">
        <ele>252</ele>
        <time>2021-07-04T14:06:51Z</time>
      </trkpt>
      <trkpt lat="44.25489" lon="4.47666">
        <ele>254</ele>
        <time>2021-07-04T14:06:59Z</time>
      </trkpt>
      <trkpt lat="44.25451" lon="4.47659">
        <ele>252</ele>
        <time>2021-07-04T14:07:08Z</time>
      </trkpt>
      <trkpt lat="44.25422" lon="4.47665">
        <ele>252</ele>
        <time>2021-07-04T14:07:15Z</time>
      </trkpt>
      <trkpt lat="44.2539" lon="4.47667">
        <ele>255</ele>
        <time>2021-07-04T14:07:23Z</time>
      </trkpt>
      <trkpt lat="44.25348" lon="4.47677">
        <ele>260</ele>
        <time>2021-07-04T14:07:32Z</time>
      </trkpt>
      <trkpt lat="44.25314" lon="4.47678">
        <ele>264</ele>
        <time>2021-07-04T14:07:40Z</time>
      </trkpt>
      <trkpt lat="44.25288" lon="4.47661">
        <ele>266</ele>
        <time>2021-07-04T14:07:47Z</time>
      </trkpt>
      <trkpt lat="44.25264" lon="4.47634">
        <ele>267</ele>
        <time>2021-07-04T14:07:54Z</time>
      </trkpt>
      <trkpt lat="44.25237" lon="4.47613">
        <ele>269</ele>
        <time>2021-07-04T14:08:02Z</time>
      </trkpt>
      <trkpt lat="44.25212" lon="4.47592">
        <ele>271</ele>
        <time>2021-07-04T14:08:08Z</time>
      </trkpt>
      <trkpt lat="44.25204" lon="4.47555">
        <ele>270</ele>
        <time>2021-07-04T14:08:15Z</time>
      </trkpt>
      <trkpt lat="44.25215" lon="4.47535">
        <ele>268</ele>
        <time>2021-07-04T14:08:19Z</time>
      </trkpt>
      <trkpt lat="44.25216" lon="4.4751">
        <ele>267</ele>
        <time>2021-07-04T14:08:23Z</time>
      </trkpt>
      <trkpt lat="44.25195" lon="4.47477">
        <ele>268</ele>
        <time>2021-07-04T14:08:31Z</time>
      </trkpt>
      <trkpt lat="44.25163" lon="4.47453">
        <ele>270</ele>
        <time>2021-07-04T14:08:39Z</time>
      </trkpt>
      <trkpt lat="44.2514" lon="4.47421">
        <ele>270</ele>
        <time>2021-07-04T14:08:47Z</time>
      </trkpt>
      <trkpt lat="44.25126" lon="4.47386">
        <ele>267</ele>
        <time>2021-07-04T14:08:53Z</time>
      </trkpt>
      <trkpt lat="44.25104" lon="4.4738">
        <ele>268</ele>
        <time>2021-07-04T14:08:59Z</time>
      </trkpt>
      <trkpt lat="44.25094" lon="4.4737">
        <ele>267</ele>
        <time>2021-07-04T14:09:01Z</time>
      </trkpt>
      <trkpt lat="44.25083" lon="4.47359">
        <ele>266</ele>
        <time>2021-07-04T14:09:05Z</time>
      </trkpt>
      <trkpt lat="44.25058" lon="4.47366">
        <ele>271</ele>
        <time>2021-07-04T14:09:11Z</time>
      </trkpt>
      <trkpt lat="44.25042" lon="4.47368">
        <ele>273</ele>
        <time>2021-07-04T14:09:14Z</time>
      </trkpt>
      <trkpt lat="44.25029" lon="4.47345">
        <ele>272</ele>
        <time>2021-07-04T14:09:19Z</time>
      </trkpt>
      <trkpt lat="44.25025" lon="4.47334">
        <ele>272</ele>
        <time>2021-07-04T14:09:21Z</time>
      </trkpt>
      <trkpt lat="44.25001" lon="4.47325">
        <ele>274</ele>
        <time>2021-07-04T14:09:27Z</time>
      </trkpt>
      <trkpt lat="44.24992" lon="4.47321">
        <ele>274</ele>
        <time>2021-07-04T14:09:29Z</time>
      </trkpt>
      <trkpt lat="44.24987" lon="4.47306">
        <ele>272</ele>
        <time>2021-07-04T14:09:32Z</time>
      </trkpt>
      <trkpt lat="44.24955" lon="4.47299">
        <ele>273</ele>
        <time>2021-07-04T14:09:40Z</time>
      </trkpt>
      <trkpt lat="44.24938" lon="4.47291">
        <ele>273</ele>
        <time>2021-07-04T14:09:44Z</time>
      </trkpt>
      <trkpt lat="44.249" lon="4.47286">
        <ele>276</ele>
        <time>2021-07-04T14:09:53Z</time>
      </trkpt>
      <trkpt lat="44.24878" lon="4.4728">
        <ele>278</ele>
        <time>2021-07-04T14:09:58Z</time>
      </trkpt>
      <trkpt lat="44.24854" lon="4.47276">
        <ele>281</ele>
        <time>2021-07-04T14:10:04Z</time>
      </trkpt>
      <trkpt lat="44.24826" lon="4.47257">
        <ele>282</ele>
        <time>2021-07-04T14:10:11Z</time>
      </trkpt>
      <trkpt lat="44.24798" lon="4.47238">
        <ele>279</ele>
        <time>2021-07-04T14:10:18Z</time>
      </trkpt>
      <trkpt lat="44.24775" lon="4.4719">
        <ele>274</ele>
        <time>2021-07-04T14:10:28Z</time>
      </trkpt>
      <trkpt lat="44.24751" lon="4.47169">
        <ele>274</ele>
        <time>2021-07-04T14:10:34Z</time>
      </trkpt>
      <trkpt lat="44.24714" lon="4.47146">
        <ele>271</ele>
        <time>2021-07-04T14:10:44Z</time>
      </trkpt>
      <trkpt lat="44.24701" lon="4.47129">
        <ele>270</ele>
        <time>2021-07-04T14:10:48Z</time>
      </trkpt>
      <trkpt lat="44.24682" lon="4.47086">
        <ele>267</ele>
        <time>2021-07-04T14:10:57Z</time>
      </trkpt>
      <trkpt lat="44.24627" lon="4.47078">
        <ele>261</ele>
        <time>2021-07-04T14:11:09Z</time>
      </trkpt>
      <trkpt lat="44.24586" lon="4.47081">
        <ele>255</ele>
        <time>2021-07-04T14:11:19Z</time>
      </trkpt>
      <trkpt lat="44.2458" lon="4.47083">
        <ele>255</ele>
        <time>2021-07-04T14:11:20Z</time>
      </trkpt>
      <trkpt lat="44.2459" lon="4.47096">
        <ele>255</ele>
        <time>2021-07-04T14:11:24Z</time>
      </trkpt>
      <trkpt lat="44.2457" lon="4.47128">
        <ele>251</ele>
        <time>2021-07-04T14:11:31Z</time>
      </trkpt>
      <trkpt lat="44.24551" lon="4.47149">
        <ele>247</ele>
        <time>2021-07-04T14:11:36Z</time>
      </trkpt>
      <trkpt lat="44.24542" lon="4.47162">
        <ele>244</ele>
        <time>2021-07-04T14:11:39Z</time>
      </trkpt>
      <trkpt lat="44.24528" lon="4.47167">
        <ele>242</ele>
        <time>2021-07-04T14:11:43Z</time>
      </trkpt>
      <trkpt lat="44.24525" lon="4.47199">
        <ele>241</ele>
        <time>2021-07-04T14:11:48Z</time>
      </trkpt>
      <trkpt lat="44.24514" lon="4.47208">
        <ele>240</ele>
        <time>2021-07-04T14:11:51Z</time>
      </trkpt>
      <trkpt lat="44.24486" lon="4.47211">
        <ele>236</ele>
        <time>2021-07-04T14:11:58Z</time>
      </trkpt>
      <trkpt lat="44.24462" lon="4.47222">
        <ele>233</ele>
        <time>2021-07-04T14:12:04Z</time>
      </trkpt>
      <trkpt lat="44.24428" lon="4.4719">
        <ele>227</ele>
        <time>2021-07-04T14:12:13Z</time>
      </trkpt>
      <trkpt lat="44.24408" lon="4.47181">
        <ele>222</ele>
        <time>2021-07-04T14:12:18Z</time>
      </trkpt>
      <trkpt lat="44.24381" lon="4.47175">
        <ele>217</ele>
        <time>2021-07-04T14:12:25Z</time>
      </trkpt>
      <trkpt lat="44.24355" lon="4.47143">
        <ele>211</ele>
        <time>2021-07-04T14:12:33Z</time>
      </trkpt>
      <trkpt lat="44.24341" lon="4.47123">
        <ele>206</ele>
        <time>2021-07-04T14:12:37Z</time>
      </trkpt>
      <trkpt lat="44.24336" lon="4.47089">
        <ele>202</ele>
        <time>2021-07-04T14:12:43Z</time>
      </trkpt>
      <trkpt lat="44.24309" lon="4.4702">
        <ele>191</ele>
        <time>2021-07-04T14:12:56Z</time>
      </trkpt>
      <trkpt lat="44.24296" lon="4.46995">
        <ele>185</ele>
        <time>2021-07-04T14:13:01Z</time>
      </trkpt>
      <trkpt lat="44.24289" lon="4.46972">
        <ele>180</ele>
        <time>2021-07-04T14:13:06Z</time>
      </trkpt>
      <trkpt lat="44.24299" lon="4.46902">
        <ele>173</ele>
        <time>2021-07-04T14:13:18Z</time>
      </trkpt>
      <trkpt lat="44.24264" lon="4.4694">
        <ele>169</ele>
        <time>2021-07-04T14:13:28Z</time>
      </trkpt>
      <trkpt lat="44.24262" lon="4.46892">
        <ele>163</ele>
        <time>2021-07-04T14:13:36Z</time>
      </trkpt>
      <trkpt lat="44.24266" lon="4.46859">
        <ele>159</ele>
        <time>2021-07-04T14:13:42Z</time>
      </trkpt>
      <trkpt lat="44.24284" lon="4.46838">
        <ele>160</ele>
        <time>2021-07-04T14:13:47Z</time>
      </trkpt>
      <trkpt lat="44.24274" lon="4.46808">
        <ele>154</ele>
        <time>2021-07-04T14:13:53Z</time>
      </trkpt>
      <trkpt lat="44.24248" lon="4.46797">
        <ele>147</ele>
        <time>2021-07-04T14:13:59Z</time>
      </trkpt>
      <trkpt lat="44.24223" lon="4.46766">
        <ele>142</ele>
        <time>2021-07-04T14:14:07Z</time>
      </trkpt>
      <trkpt lat="44.24207" lon="4.46721">
        <ele>137</ele>
        <time>2021-07-04T14:14:15Z</time>
      </trkpt>
      <trkpt lat="44.24165" lon="4.46675">
        <ele>132</ele>
        <time>2021-07-04T14:14:28Z</time>
      </trkpt>
      <trkpt lat="44.24134" lon="4.46644">
        <ele>131</ele>
        <time>2021-07-04T14:14:36Z</time>
      </trkpt>
      <trkpt lat="44.24106" lon="4.46624">
        <ele>130</ele>
        <time>2021-07-04T14:14:44Z</time>
      </trkpt>
      <trkpt lat="44.24098" lon="4.46599">
        <ele>129</ele>
        <time>2021-07-04T14:14:48Z</time>
      </trkpt>
      <trkpt lat="44.24104" lon="4.46544">
        <ele>126</ele>
        <time>2021-07-04T14:14:58Z</time>
      </trkpt>
      <trkpt lat="44.24069" lon="4.46519">
        <ele>126</ele>
        <time>2021-07-04T14:15:07Z</time>
      </trkpt>
      <trkpt lat="44.24068" lon="4.46476">
        <ele>125</ele>
        <time>2021-07-04T14:15:14Z</time>
      </trkpt>
      <trkpt lat="44.24074" lon="4.46402">
        <ele>121</ele>
        <time>2021-07-04T14:15:27Z</time>
      </trkpt>
      <trkpt lat="44.24062" lon="4.46345">
        <ele>120</ele>
        <time>2021-07-04T14:15:37Z</time>
      </trkpt>
      <trkpt lat="44.24074" lon="4.46297">
        <ele>118</ele>
        <time>2021-07-04T14:15:45Z</time>
      </trkpt>
      <trkpt lat="44.2408" lon="4.46239">
        <ele>116</ele>
        <time>2021-07-04T14:15:55Z</time>
      </trkpt>
      <trkpt lat="44.24096" lon="4.46115">
        <ele>112</ele>
        <time>2021-07-04T14:16:16Z</time>
      </trkpt>
      <trkpt lat="44.2408" lon="4.46071">
        <ele>110</ele>
        <time>2021-07-04T14:16:24Z</time>
      </trkpt>
      <trkpt lat="44.24067" lon="4.46029">
        <ele>107</ele>
        <time>2021-07-04T14:16:32Z</time>
      </trkpt>
      <trkpt lat="44.24051" lon="4.46004">
        <ele>105</ele>
        <time>2021-07-04T14:16:37Z</time>
      </trkpt>
      <trkpt lat="44.24106" lon="4.45871">
        <ele>102</ele>
        <time>2021-07-04T14:17:03Z</time>
      </trkpt>
      <trkpt lat="44.24038" lon="4.45835">
        <ele>107</ele>
        <time>2021-07-04T14:17:20Z</time>
      </trkpt>
      <trkpt lat="44.24037" lon="4.45831">
        <ele>108</ele>
        <time>2021-07-04T14:17:21Z</time>
      </trkpt>
      <trkpt lat="44.24044" lon="4.45802">
        <ele>110</ele>
        <time>2021-07-04T14:17:26Z</time>
      </trkpt>
      <trkpt lat="44.24044" lon="4.45745">
        <ele>115</ele>
        <time>2021-07-04T14:17:35Z</time>
      </trkpt>
      <trkpt lat="44.2404" lon="4.45724">
        <ele>116</ele>
        <time>2021-07-04T14:17:39Z</time>
      </trkpt>
      <trkpt lat="44.24026" lon="4.45719">
        <ele>117</ele>
        <time>2021-07-04T14:17:42Z</time>
      </trkpt>
      <trkpt lat="44.23993" lon="4.45722">
        <ele>118</ele>
        <time>2021-07-04T14:17:50Z</time>
      </trkpt>
      <trkpt lat="44.23938" lon="4.45756">
        <ele>117</ele>
        <time>2021-07-04T14:18:04Z</time>
      </trkpt>
      <trkpt lat="44.23915" lon="4.45776">
        <ele>116</ele>
        <time>2021-07-04T14:18:11Z</time>
      </trkpt>
    </trkseg>
  </trk>
  <trk>
    <name><![CDATA[Vert Aiguèze St Martin d'Ardèche]]></name>
    <extensions>
      <line xmlns="http://www.topografix.com/GPX/gpx_style/0/2">
        <color>00fa00</color>
        <width>4</width>
      </line>
    </extensions>
    <trkseg>
      <trkpt lat="44.30193" lon="4.55491">
        <ele>95</ele>
        <time>2021-07-04T13:18:20Z</time>
      </trkpt>
      <trkpt lat="44.30193" lon="4.55493">
        <ele>94</ele>
        <time>2021-07-04T13:18:20Z</time>
      </trkpt>
      <trkpt lat="44.30188" lon="4.55489">
        <ele>95</ele>
        <time>2021-07-04T13:18:22Z</time>
      </trkpt>
      <trkpt lat="44.30182" lon="4.55486">
        <ele>95</ele>
        <time>2021-07-04T13:18:23Z</time>
      </trkpt>
      <trkpt lat="44.30175" lon="4.55485">
        <ele>95</ele>
        <time>2021-07-04T13:18:25Z</time>
      </trkpt>
      <trkpt lat="44.3016" lon="4.55483">
        <ele>95</ele>
        <time>2021-07-04T13:18:28Z</time>
      </trkpt>
      <trkpt lat="44.30143" lon="4.55482">
        <ele>96</ele>
        <time>2021-07-04T13:18:32Z</time>
      </trkpt>
      <trkpt lat="44.30137" lon="4.55481">
        <ele>96</ele>
        <time>2021-07-04T13:18:34Z</time>
      </trkpt>
      <trkpt lat="44.30137" lon="4.55488">
        <ele>96</ele>
        <time>2021-07-04T13:18:35Z</time>
      </trkpt>
      <trkpt lat="44.30138" lon="4.55518">
        <ele>95</ele>
        <time>2021-07-04T13:18:40Z</time>
      </trkpt>
      <trkpt lat="44.30161" lon="4.55559">
        <ele>93</ele>
        <time>2021-07-04T13:18:49Z</time>
      </trkpt>
      <trkpt lat="44.30178" lon="4.55587">
        <ele>92</ele>
        <time>2021-07-04T13:18:55Z</time>
      </trkpt>
      <trkpt lat="44.30195" lon="4.55614">
        <ele>92</ele>
        <time>2021-07-04T13:19:01Z</time>
      </trkpt>
      <trkpt lat="44.302" lon="4.55626">
        <ele>92</ele>
        <time>2021-07-04T13:19:03Z</time>
      </trkpt>
      <trkpt lat="44.30203" lon="4.55634">
        <ele>92</ele>
        <time>2021-07-04T13:19:05Z</time>
      </trkpt>
      <trkpt lat="44.30206" lon="4.55632">
        <ele>92</ele>
        <time>2021-07-04T13:19:05Z</time>
      </trkpt>
      <trkpt lat="44.30206" lon="4.55632">
        <ele>92</ele>
        <time>2021-07-04T13:19:05Z</time>
      </trkpt>
      <trkpt lat="44.30203" lon="4.55634">
        <ele>92</ele>
        <time>2021-07-04T13:19:06Z</time>
      </trkpt>
      <trkpt lat="44.30107" lon="4.55676">
        <ele>94</ele>
        <time>2021-07-04T13:19:30Z</time>
      </trkpt>
      <trkpt lat="44.30103" lon="4.55679">
        <ele>94</ele>
        <time>2021-07-04T13:19:31Z</time>
      </trkpt>
      <trkpt lat="44.30104" lon="4.55705">
        <ele>94</ele>
        <time>2021-07-04T13:19:35Z</time>
      </trkpt>
      <trkpt lat="44.30116" lon="4.55751">
        <ele>94</ele>
        <time>2021-07-04T13:19:43Z</time>
      </trkpt>
      <trkpt lat="44.30122" lon="4.55804">
        <ele>95</ele>
        <time>2021-07-04T13:19:52Z</time>
      </trkpt>
      <trkpt lat="44.30128" lon="4.55834">
        <ele>95</ele>
        <time>2021-07-04T13:19:57Z</time>
      </trkpt>
      <trkpt lat="44.30143" lon="4.55866">
        <ele>90</ele>
        <time>2021-07-04T13:20:04Z</time>
      </trkpt>
      <trkpt lat="44.30137" lon="4.55895">
        <ele>89</ele>
        <time>2021-07-04T13:20:09Z</time>
      </trkpt>
      <trkpt lat="44.30112" lon="4.55963">
        <ele>86</ele>
        <time>2021-07-04T13:20:22Z</time>
      </trkpt>
      <trkpt lat="44.30093" lon="4.56013">
        <ele>86</ele>
        <time>2021-07-04T13:20:31Z</time>
      </trkpt>
      <trkpt lat="44.30064" lon="4.56078">
        <ele>84</ele>
        <time>2021-07-04T13:20:44Z</time>
      </trkpt>
      <trkpt lat="44.30044" lon="4.56133">
        <ele>79</ele>
        <time>2021-07-04T13:20:54Z</time>
      </trkpt>
      <trkpt lat="44.30035" lon="4.56166">
        <ele>77</ele>
        <time>2021-07-04T13:21:00Z</time>
      </trkpt>
      <trkpt lat="44.30029" lon="4.56213">
        <ele>74</ele>
        <time>2021-07-04T13:21:08Z</time>
      </trkpt>
      <trkpt lat="44.30024" lon="4.56255">
        <ele>72</ele>
        <time>2021-07-04T13:21:15Z</time>
      </trkpt>
      <trkpt lat="44.30017" lon="4.5632">
        <ele>71</ele>
        <time>2021-07-04T13:21:26Z</time>
      </trkpt>
      <trkpt lat="44.30006" lon="4.56365">
        <ele>70</ele>
        <time>2021-07-04T13:21:34Z</time>
      </trkpt>
      <trkpt lat="44.29992" lon="4.5642">
        <ele>66</ele>
        <time>2021-07-04T13:21:44Z</time>
      </trkpt>
      <trkpt lat="44.29978" lon="4.5648">
        <ele>59</ele>
        <time>2021-07-04T13:21:54Z</time>
      </trkpt>
      <trkpt lat="44.29959" lon="4.56537">
        <ele>57</ele>
        <time>2021-07-04T13:22:05Z</time>
      </trkpt>
      <trkpt lat="44.29947" lon="4.56578">
        <ele>56</ele>
        <time>2021-07-04T13:22:12Z</time>
      </trkpt>
      <trkpt lat="44.29937" lon="4.56607">
        <ele>56</ele>
        <time>2021-07-04T13:22:18Z</time>
      </trkpt>
      <trkpt lat="44.29931" lon="4.56623">
        <ele>56</ele>
        <time>2021-07-04T13:22:21Z</time>
      </trkpt>
      <trkpt lat="44.29912" lon="4.56651">
        <ele>57</ele>
        <time>2021-07-04T13:22:27Z</time>
      </trkpt>
      <trkpt lat="44.29913" lon="4.56651">
        <ele>57</ele>
        <time>2021-07-04T13:22:27Z</time>
      </trkpt>
      <trkpt lat="44.29927" lon="4.56659">
        <ele>55</ele>
        <time>2021-07-04T13:22:31Z</time>
      </trkpt>
      <trkpt lat="44.30091" lon="4.56737">
        <ele>55</ele>
        <time>2021-07-04T13:23:11Z</time>
      </trkpt>
      <trkpt lat="44.30095" lon="4.5675">
        <ele>55</ele>
        <time>2021-07-04T13:23:14Z</time>
      </trkpt>
      <trkpt lat="44.30107" lon="4.56721">
        <ele>54</ele>
        <time>2021-07-04T13:23:19Z</time>
      </trkpt>
      <trkpt lat="44.30117" lon="4.56696">
        <ele>54</ele>
        <time>2021-07-04T13:23:24Z</time>
      </trkpt>
      <trkpt lat="44.30123" lon="4.56683">
        <ele>54</ele>
        <time>2021-07-04T13:23:27Z</time>
      </trkpt>
      <trkpt lat="44.30135" lon="4.56635">
        <ele>53</ele>
        <time>2021-07-04T13:23:35Z</time>
      </trkpt>
      <trkpt lat="44.30136" lon="4.56629">
        <ele>53</ele>
        <time>2021-07-04T13:23:36Z</time>
      </trkpt>
      <trkpt lat="44.30138" lon="4.56612">
        <ele>53</ele>
        <time>2021-07-04T13:23:39Z</time>
      </trkpt>
      <trkpt lat="44.30136" lon="4.56607">
        <ele>52</ele>
        <time>2021-07-04T13:23:40Z</time>
      </trkpt>
      <trkpt lat="44.30134" lon="4.56597">
        <ele>52</ele>
        <time>2021-07-04T13:23:42Z</time>
      </trkpt>
      <trkpt lat="44.30134" lon="4.56585">
        <ele>51</ele>
        <time>2021-07-04T13:23:44Z</time>
      </trkpt>
      <trkpt lat="44.3012" lon="4.56581">
        <ele>50</ele>
        <time>2021-07-04T13:23:47Z</time>
      </trkpt>
      <trkpt lat="44.30121" lon="4.56581">
        <ele>50</ele>
        <time>2021-07-04T13:23:47Z</time>
      </trkpt>
      <trkpt lat="44.3012" lon="4.56581">
        <ele>50</ele>
        <time>2021-07-04T13:23:48Z</time>
      </trkpt>
      <trkpt lat="44.30114" lon="4.56604">
        <ele>50</ele>
        <time>2021-07-04T13:23:52Z</time>
      </trkpt>
      <trkpt lat="44.30104" lon="4.5665">
        <ele>52</ele>
        <time>2021-07-04T13:24:00Z</time>
      </trkpt>
      <trkpt lat="44.30099" lon="4.56667">
        <ele>52</ele>
        <time>2021-07-04T13:24:03Z</time>
      </trkpt>
      <trkpt lat="44.30084" lon="4.56705">
        <ele>53</ele>
        <time>2021-07-04T13:24:10Z</time>
      </trkpt>
      <trkpt lat="44.30074" lon="4.56738">
        <ele>54</ele>
        <time>2021-07-04T13:24:16Z</time>
      </trkpt>
      <trkpt lat="44.30045" lon="4.5684">
        <ele>51</ele>
        <time>2021-07-04T13:24:34Z</time>
      </trkpt>
      <trkpt lat="44.30031" lon="4.56891">
        <ele>50</ele>
        <time>2021-07-04T13:24:44Z</time>
      </trkpt>
      <trkpt lat="44.30022" lon="4.56927">
        <ele>49</ele>
        <time>2021-07-04T13:24:50Z</time>
      </trkpt>
      <trkpt lat="44.30021" lon="4.56936">
        <ele>49</ele>
        <time>2021-07-04T13:24:51Z</time>
      </trkpt>
      <trkpt lat="44.30023" lon="4.56943">
        <ele>50</ele>
        <time>2021-07-04T13:24:53Z</time>
      </trkpt>
      <trkpt lat="44.30028" lon="4.56952">
        <ele>50</ele>
        <time>2021-07-04T13:24:55Z</time>
      </trkpt>
      <trkpt lat="44.30035" lon="4.5696">
        <ele>50</ele>
        <time>2021-07-04T13:24:57Z</time>
      </trkpt>
      <trkpt lat="44.30039" lon="4.56964">
        <ele>50</ele>
        <time>2021-07-04T13:24:58Z</time>
      </trkpt>
      <trkpt lat="44.30043" lon="4.56966">
        <ele>51</ele>
        <time>2021-07-04T13:24:59Z</time>
      </trkpt>
      <trkpt lat="44.30041" lon="4.5698">
        <ele>50</ele>
        <time>2021-07-04T13:25:01Z</time>
      </trkpt>
      <trkpt lat="44.30031" lon="4.57031">
        <ele>52</ele>
        <time>2021-07-04T13:25:10Z</time>
      </trkpt>
      <trkpt lat="44.3003" lon="4.5705">
        <ele>53</ele>
        <time>2021-07-04T13:25:13Z</time>
      </trkpt>
      <trkpt lat="44.30031" lon="4.5707">
        <ele>54</ele>
        <time>2021-07-04T13:25:17Z</time>
      </trkpt>
      <trkpt lat="44.3004" lon="4.57095">
        <ele>55</ele>
        <time>2021-07-04T13:25:21Z</time>
      </trkpt>
      <trkpt lat="44.30051" lon="4.57127">
        <ele>55</ele>
        <time>2021-07-04T13:25:27Z</time>
      </trkpt>
      <trkpt lat="44.30052" lon="4.57132">
        <ele>55</ele>
        <time>2021-07-04T13:25:28Z</time>
      </trkpt>
      <trkpt lat="44.30061" lon="4.57188">
        <ele>56</ele>
        <time>2021-07-04T13:25:38Z</time>
      </trkpt>
      <trkpt lat="44.30074" lon="4.57243">
        <ele>57</ele>
        <time>2021-07-04T13:25:47Z</time>
      </trkpt>
      <trkpt lat="44.30077" lon="4.57264">
        <ele>56</ele>
        <time>2021-07-04T13:25:51Z</time>
      </trkpt>
      <trkpt lat="44.30078" lon="4.57266">
        <ele>56</ele>
        <time>2021-07-04T13:25:51Z</time>
      </trkpt>
      <trkpt lat="44.30084" lon="4.57279">
        <ele>56</ele>
        <time>2021-07-04T13:25:54Z</time>
      </trkpt>
      <trkpt lat="44.30094" lon="4.57299">
        <ele>56</ele>
        <time>2021-07-04T13:25:58Z</time>
      </trkpt>
      <trkpt lat="44.30094" lon="4.57299">
        <ele>56</ele>
        <time>2021-07-04T13:25:58Z</time>
      </trkpt>
      <trkpt lat="44.30115" lon="4.57336">
        <ele>56</ele>
        <time>2021-07-04T13:26:06Z</time>
      </trkpt>
      <trkpt lat="44.30125" lon="4.57364">
        <ele>56</ele>
        <time>2021-07-04T13:26:11Z</time>
      </trkpt>
      <trkpt lat="44.30132" lon="4.57397">
        <ele>56</ele>
        <time>2021-07-04T13:26:17Z</time>
      </trkpt>
      <trkpt lat="44.30137" lon="4.5742">
        <ele>56</ele>
        <time>2021-07-04T13:26:21Z</time>
      </trkpt>
      <trkpt lat="44.30146" lon="4.57425">
        <ele>56</ele>
        <time>2021-07-04T13:26:23Z</time>
      </trkpt>
      <trkpt lat="44.30156" lon="4.57446">
        <ele>56</ele>
        <time>2021-07-04T13:26:27Z</time>
      </trkpt>
      <trkpt lat="44.30155" lon="4.57448">
        <ele>56</ele>
        <time>2021-07-04T13:26:28Z</time>
      </trkpt>
      <trkpt lat="44.30168" lon="4.57498">
        <ele>55</ele>
        <time>2021-07-04T13:26:37Z</time>
      </trkpt>
      <trkpt lat="44.30168" lon="4.57498">
        <ele>55</ele>
        <time>2021-07-04T13:26:37Z</time>
      </trkpt>
      <trkpt lat="44.30177" lon="4.57548">
        <ele>54</ele>
        <time>2021-07-04T13:26:45Z</time>
      </trkpt>
      <trkpt lat="44.30178" lon="4.57544">
        <ele>55</ele>
        <time>2021-07-04T13:26:46Z</time>
      </trkpt>
      <trkpt lat="44.30097" lon="4.57596">
        <ele>50</ele>
        <time>2021-07-04T13:27:07Z</time>
      </trkpt>
      <trkpt lat="44.30064" lon="4.57596">
        <ele>50</ele>
        <time>2021-07-04T13:27:15Z</time>
      </trkpt>
      <trkpt lat="44.30026" lon="4.57586">
        <ele>50</ele>
        <time>2021-07-04T13:27:24Z</time>
      </trkpt>
      <trkpt lat="44.29922" lon="4.57511">
        <ele>50</ele>
        <time>2021-07-04T13:27:51Z</time>
      </trkpt>
      <trkpt lat="44.29895" lon="4.57546">
        <ele>50</ele>
        <time>2021-07-04T13:28:00Z</time>
      </trkpt>
      <trkpt lat="44.29848" lon="4.57711">
        <ele>50</ele>
        <time>2021-07-04T13:28:29Z</time>
      </trkpt>
      <trkpt lat="44.29776" lon="4.57972">
        <ele>47</ele>
        <time>2021-07-04T13:29:16Z</time>
      </trkpt>
      <trkpt lat="44.29767" lon="4.58017">
        <ele>49</ele>
        <time>2021-07-04T13:29:24Z</time>
      </trkpt>
      <trkpt lat="44.29754" lon="4.58082">
        <ele>53</ele>
        <time>2021-07-04T13:29:35Z</time>
      </trkpt>
      <trkpt lat="44.29886" lon="4.58193">
        <ele>52</ele>
        <time>2021-07-04T13:30:11Z</time>
      </trkpt>
      <trkpt lat="44.29864" lon="4.58251">
        <ele>52</ele>
        <time>2021-07-04T13:30:22Z</time>
      </trkpt>
      <trkpt lat="44.29848" lon="4.58295">
        <ele>54</ele>
        <time>2021-07-04T13:30:30Z</time>
      </trkpt>
      <trkpt lat="44.29836" lon="4.5834">
        <ele>55</ele>
        <time>2021-07-04T13:30:38Z</time>
      </trkpt>
      <trkpt lat="44.29826" lon="4.58388">
        <ele>55</ele>
        <time>2021-07-04T13:30:47Z</time>
      </trkpt>
      <trkpt lat="44.29823" lon="4.58423">
        <ele>54</ele>
        <time>2021-07-04T13:30:53Z</time>
      </trkpt>
      <trkpt lat="44.29818" lon="4.58436">
        <ele>54</ele>
        <time>2021-07-04T13:30:55Z</time>
      </trkpt>
      <trkpt lat="44.29824" lon="4.5849">
        <ele>53</ele>
        <time>2021-07-04T13:31:04Z</time>
      </trkpt>
      <trkpt lat="44.29815" lon="4.58803">
        <ele>52</ele>
        <time>2021-07-04T13:31:56Z</time>
      </trkpt>
      <trkpt lat="44.29814" lon="4.58866">
        <ele>51</ele>
        <time>2021-07-04T13:32:07Z</time>
      </trkpt>
      <trkpt lat="44.29813" lon="4.58922">
        <ele>50</ele>
        <time>2021-07-04T13:32:16Z</time>
      </trkpt>
      <trkpt lat="44.29813" lon="4.58978">
        <ele>50</ele>
        <time>2021-07-04T13:32:26Z</time>
      </trkpt>
      <trkpt lat="44.29809" lon="4.59249">
        <ele>51</ele>
        <time>2021-07-04T13:33:11Z</time>
      </trkpt>
      <trkpt lat="44.29808" lon="4.593">
        <ele>51</ele>
        <time>2021-07-04T13:33:20Z</time>
      </trkpt>
      <trkpt lat="44.29803" lon="4.59449">
        <ele>52</ele>
        <time>2021-07-04T13:33:44Z</time>
      </trkpt>
      <trkpt lat="44.29802" lon="4.59498">
        <ele>52</ele>
        <time>2021-07-04T13:33:53Z</time>
      </trkpt>
      <trkpt lat="44.29791" lon="4.59563">
        <ele>53</ele>
        <time>2021-07-04T13:34:04Z</time>
      </trkpt>
      <trkpt lat="44.29786" lon="4.59592">
        <ele>53</ele>
        <time>2021-07-04T13:34:09Z</time>
      </trkpt>
      <trkpt lat="44.29777" lon="4.59634">
        <ele>53</ele>
        <time>2021-07-04T13:34:16Z</time>
      </trkpt>
      <trkpt lat="44.29775" lon="4.59674">
        <ele>52</ele>
        <time>2021-07-04T13:34:23Z</time>
      </trkpt>
      <trkpt lat="44.29775" lon="4.59701">
        <ele>52</ele>
        <time>2021-07-04T13:34:27Z</time>
      </trkpt>
      <trkpt lat="44.29779" lon="4.5973">
        <ele>51</ele>
        <time>2021-07-04T13:34:32Z</time>
      </trkpt>
      <trkpt lat="44.2979" lon="4.59759">
        <ele>50</ele>
        <time>2021-07-04T13:34:38Z</time>
      </trkpt>
      <trkpt lat="44.2979" lon="4.59781">
        <ele>50</ele>
        <time>2021-07-04T13:34:41Z</time>
      </trkpt>
      <trkpt lat="44.29781" lon="4.59805">
        <ele>51</ele>
        <time>2021-07-04T13:34:46Z</time>
      </trkpt>
      <trkpt lat="44.2978" lon="4.59812">
        <ele>51</ele>
        <time>2021-07-04T13:34:47Z</time>
      </trkpt>
      <trkpt lat="44.29789" lon="4.59844">
        <ele>51</ele>
        <time>2021-07-04T13:34:53Z</time>
      </trkpt>
      <trkpt lat="44.29796" lon="4.59887">
        <ele>52</ele>
        <time>2021-07-04T13:35:00Z</time>
      </trkpt>
      <trkpt lat="44.29804" lon="4.5993">
        <ele>53</ele>
        <time>2021-07-04T13:35:08Z</time>
      </trkpt>
      <trkpt lat="44.29812" lon="4.60009">
        <ele>52</ele>
        <time>2021-07-04T13:35:21Z</time>
      </trkpt>
      <trkpt lat="44.29808" lon="4.60032">
        <ele>53</ele>
        <time>2021-07-04T13:35:25Z</time>
      </trkpt>
      <trkpt lat="44.29776" lon="4.60094">
        <ele>54</ele>
        <time>2021-07-04T13:35:38Z</time>
      </trkpt>
      <trkpt lat="44.29771" lon="4.60103">
        <ele>54</ele>
        <time>2021-07-04T13:35:40Z</time>
      </trkpt>
      <trkpt lat="44.29769" lon="4.6011">
        <ele>54</ele>
        <time>2021-07-04T13:35:41Z</time>
      </trkpt>
      <trkpt lat="44.29753" lon="4.60147">
        <ele>54</ele>
        <time>2021-07-04T13:35:48Z</time>
      </trkpt>
      <trkpt lat="44.29719" lon="4.60245">
        <ele>52</ele>
        <time>2021-07-04T13:36:06Z</time>
      </trkpt>
      <trkpt lat="44.29703" lon="4.60297">
        <ele>52</ele>
        <time>2021-07-04T13:36:16Z</time>
      </trkpt>
      <trkpt lat="44.29692" lon="4.60325">
        <ele>53</ele>
        <time>2021-07-04T13:36:21Z</time>
      </trkpt>
      <trkpt lat="44.29681" lon="4.60355">
        <ele>53</ele>
        <time>2021-07-04T13:36:27Z</time>
      </trkpt>
      <trkpt lat="44.29654" lon="4.60413">
        <ele>52</ele>
        <time>2021-07-04T13:36:38Z</time>
      </trkpt>
      <trkpt lat="44.29631" lon="4.60462">
        <ele>53</ele>
        <time>2021-07-04T13:36:48Z</time>
      </trkpt>
      <trkpt lat="44.2959" lon="4.60548">
        <ele>53</ele>
        <time>2021-07-04T13:37:05Z</time>
      </trkpt>
      <trkpt lat="44.29587" lon="4.60551">
        <ele>53</ele>
        <time>2021-07-04T13:37:06Z</time>
      </trkpt>
      <trkpt lat="44.29582" lon="4.60553">
        <ele>53</ele>
        <time>2021-07-04T13:37:08Z</time>
      </trkpt>
      <trkpt lat="44.29547" lon="4.60554">
        <ele>52</ele>
        <time>2021-07-04T13:37:16Z</time>
      </trkpt>
      <trkpt lat="44.29511" lon="4.60559">
        <ele>51</ele>
        <time>2021-07-04T13:37:24Z</time>
      </trkpt>
      <trkpt lat="44.29495" lon="4.60563">
        <ele>51</ele>
        <time>2021-07-04T13:37:28Z</time>
      </trkpt>
      <trkpt lat="44.2948" lon="4.60568">
        <ele>50</ele>
        <time>2021-07-04T13:37:32Z</time>
      </trkpt>
      <trkpt lat="44.29469" lon="4.60574">
        <ele>49</ele>
        <time>2021-07-04T13:37:34Z</time>
      </trkpt>
      <trkpt lat="44.29406" lon="4.6064">
        <ele>46</ele>
        <time>2021-07-04T13:37:53Z</time>
      </trkpt>
      <trkpt lat="44.29373" lon="4.60648">
        <ele>45</ele>
        <time>2021-07-04T13:38:01Z</time>
      </trkpt>
      <trkpt lat="44.29321" lon="4.60633">
        <ele>44</ele>
        <time>2021-07-04T13:38:13Z</time>
      </trkpt>
      <trkpt lat="44.29274" lon="4.60649">
        <ele>46</ele>
        <time>2021-07-04T13:38:24Z</time>
      </trkpt>
      <trkpt lat="44.29258" lon="4.60621">
        <ele>46</ele>
        <time>2021-07-04T13:38:30Z</time>
      </trkpt>
      <trkpt lat="44.29241" lon="4.60549">
        <ele>47</ele>
        <time>2021-07-04T13:38:43Z</time>
      </trkpt>
      <trkpt lat="44.29216" lon="4.60465">
        <ele>49</ele>
        <time>2021-07-04T13:38:58Z</time>
      </trkpt>
      <trkpt lat="44.29196" lon="4.60425">
        <ele>50</ele>
        <time>2021-07-04T13:39:06Z</time>
      </trkpt>
      <trkpt lat="44.29116" lon="4.60358">
        <ele>49</ele>
        <time>2021-07-04T13:39:28Z</time>
      </trkpt>
      <trkpt lat="44.2903" lon="4.60298">
        <ele>48</ele>
        <time>2021-07-04T13:39:50Z</time>
      </trkpt>
      <trkpt lat="44.28989" lon="4.60256">
        <ele>49</ele>
        <time>2021-07-04T13:40:02Z</time>
      </trkpt>
      <trkpt lat="44.28974" lon="4.60232">
        <ele>47</ele>
        <time>2021-07-04T13:40:08Z</time>
      </trkpt>
      <trkpt lat="44.2899" lon="4.60157">
        <ele>44</ele>
        <time>2021-07-04T13:40:21Z</time>
      </trkpt>
      <trkpt lat="44.29013" lon="4.60071">
        <ele>46</ele>
        <time>2021-07-04T13:40:36Z</time>
      </trkpt>
      <trkpt lat="44.29" lon="4.60015">
        <ele>47</ele>
        <time>2021-07-04T13:40:46Z</time>
      </trkpt>
      <trkpt lat="44.28963" lon="4.59983">
        <ele>48</ele>
        <time>2021-07-04T13:40:56Z</time>
      </trkpt>
      <trkpt lat="44.28938" lon="4.59947">
        <ele>49</ele>
        <time>2021-07-04T13:41:05Z</time>
      </trkpt>
      <trkpt lat="44.28938" lon="4.59799">
        <ele>47</ele>
        <time>2021-07-04T13:41:29Z</time>
      </trkpt>
      <trkpt lat="44.2894" lon="4.598">
        <ele>47</ele>
        <time>2021-07-04T13:41:30Z</time>
      </trkpt>
      <trkpt lat="44.28949" lon="4.59765">
        <ele>46</ele>
        <time>2021-07-04T13:41:36Z</time>
      </trkpt>
      <trkpt lat="44.2896" lon="4.59738">
        <ele>46</ele>
        <time>2021-07-04T13:41:41Z</time>
      </trkpt>
      <trkpt lat="44.28968" lon="4.5971">
        <ele>46</ele>
        <time>2021-07-04T13:41:46Z</time>
      </trkpt>
      <trkpt lat="44.28984" lon="4.59681">
        <ele>47</ele>
        <time>2021-07-04T13:41:52Z</time>
      </trkpt>
      <trkpt lat="44.28998" lon="4.59665">
        <ele>48</ele>
        <time>2021-07-04T13:41:57Z</time>
      </trkpt>
      <trkpt lat="44.29006" lon="4.59634">
        <ele>48</ele>
        <time>2021-07-04T13:42:02Z</time>
      </trkpt>
      <trkpt lat="44.29026" lon="4.59582">
        <ele>49</ele>
        <time>2021-07-04T13:42:12Z</time>
      </trkpt>
      <trkpt lat="44.2904" lon="4.59527">
        <ele>47</ele>
        <time>2021-07-04T13:42:22Z</time>
      </trkpt>
      <trkpt lat="44.29053" lon="4.59496">
        <ele>47</ele>
        <time>2021-07-04T13:42:28Z</time>
      </trkpt>
      <trkpt lat="44.2906" lon="4.59448">
        <ele>48</ele>
        <time>2021-07-04T13:42:36Z</time>
      </trkpt>
      <trkpt lat="44.29066" lon="4.594">
        <ele>48</ele>
        <time>2021-07-04T13:42:44Z</time>
      </trkpt>
      <trkpt lat="44.29086" lon="4.59295">
        <ele>47</ele>
        <time>2021-07-04T13:43:02Z</time>
      </trkpt>
      <trkpt lat="44.29097" lon="4.59265">
        <ele>47</ele>
        <time>2021-07-04T13:43:08Z</time>
      </trkpt>
      <trkpt lat="44.29109" lon="4.59249">
        <ele>48</ele>
        <time>2021-07-04T13:43:12Z</time>
      </trkpt>
      <trkpt lat="44.29122" lon="4.5925">
        <ele>49</ele>
        <time>2021-07-04T13:43:15Z</time>
      </trkpt>
      <trkpt lat="44.29145" lon="4.59209">
        <ele>50</ele>
        <time>2021-07-04T13:43:23Z</time>
      </trkpt>
      <trkpt lat="44.29169" lon="4.59173">
        <ele>51</ele>
        <time>2021-07-04T13:43:32Z</time>
      </trkpt>
      <trkpt lat="44.2922" lon="4.59122">
        <ele>51</ele>
        <time>2021-07-04T13:43:46Z</time>
      </trkpt>
      <trkpt lat="44.29236" lon="4.59086">
        <ele>51</ele>
        <time>2021-07-04T13:43:53Z</time>
      </trkpt>
      <trkpt lat="44.29261" lon="4.59088">
        <ele>52</ele>
        <time>2021-07-04T13:43:59Z</time>
      </trkpt>
      <trkpt lat="44.29251" lon="4.59024">
        <ele>52</ele>
        <time>2021-07-04T13:44:10Z</time>
      </trkpt>
      <trkpt lat="44.29321" lon="4.58903">
        <ele>49</ele>
        <time>2021-07-04T13:44:36Z</time>
      </trkpt>
      <trkpt lat="44.29353" lon="4.58817">
        <ele>49</ele>
        <time>2021-07-04T13:44:52Z</time>
      </trkpt>
      <trkpt lat="44.29378" lon="4.58777">
        <ele>51</ele>
        <time>2021-07-04T13:45:01Z</time>
      </trkpt>
      <trkpt lat="44.29413" lon="4.58739">
        <ele>53</ele>
        <time>2021-07-04T13:45:12Z</time>
      </trkpt>
      <trkpt lat="44.29442" lon="4.58722">
        <ele>52</ele>
        <time>2021-07-04T13:45:19Z</time>
      </trkpt>
      <trkpt lat="44.29412" lon="4.58675">
        <ele>53</ele>
        <time>2021-07-04T13:45:29Z</time>
      </trkpt>
      <trkpt lat="44.29416" lon="4.5862">
        <ele>53</ele>
        <time>2021-07-04T13:45:39Z</time>
      </trkpt>
      <trkpt lat="44.29496" lon="4.58496">
        <ele>50</ele>
        <time>2021-07-04T13:46:07Z</time>
      </trkpt>
      <trkpt lat="44.29515" lon="4.5846">
        <ele>49</ele>
        <time>2021-07-04T13:46:14Z</time>
      </trkpt>
      <trkpt lat="44.29552" lon="4.58433">
        <ele>50</ele>
        <time>2021-07-04T13:46:24Z</time>
      </trkpt>
      <trkpt lat="44.29626" lon="4.58419">
        <ele>51</ele>
        <time>2021-07-04T13:46:41Z</time>
      </trkpt>
      <trkpt lat="44.2963" lon="4.58267">
        <ele>46</ele>
        <time>2021-07-04T13:47:07Z</time>
      </trkpt>
      <trkpt lat="44.29682" lon="4.58172">
        <ele>48</ele>
        <time>2021-07-04T13:47:27Z</time>
      </trkpt>
      <trkpt lat="44.29743" lon="4.58105">
        <ele>54</ele>
        <time>2021-07-04T13:47:45Z</time>
      </trkpt>
      <trkpt lat="44.29822" lon="4.57817">
        <ele>47</ele>
        <time>2021-07-04T13:48:36Z</time>
      </trkpt>
      <trkpt lat="44.29885" lon="4.5757">
        <ele>50</ele>
        <time>2021-07-04T13:49:20Z</time>
      </trkpt>
      <trkpt lat="44.29921" lon="4.57511">
        <ele>50</ele>
        <time>2021-07-04T13:49:33Z</time>
      </trkpt>
      <trkpt lat="44.30021" lon="4.57587">
        <ele>50</ele>
        <time>2021-07-04T13:50:00Z</time>
      </trkpt>
      <trkpt lat="44.30064" lon="4.57598">
        <ele>50</ele>
        <time>2021-07-04T13:50:10Z</time>
      </trkpt>
      <trkpt lat="44.30108" lon="4.57589">
        <ele>51</ele>
        <time>2021-07-04T13:50:20Z</time>
      </trkpt>
      <trkpt lat="44.30178" lon="4.57544">
        <ele>55</ele>
        <time>2021-07-04T13:50:38Z</time>
      </trkpt>
      <trkpt lat="44.30106" lon="4.57317">
        <ele>56</ele>
        <time>2021-07-04T13:51:20Z</time>
      </trkpt>
      <trkpt lat="44.30079" lon="4.57268">
        <ele>56</ele>
        <time>2021-07-04T13:51:30Z</time>
      </trkpt>
      <trkpt lat="44.30034" lon="4.57076">
        <ele>54</ele>
        <time>2021-07-04T13:52:04Z</time>
      </trkpt>
      <trkpt lat="44.3003" lon="4.57035">
        <ele>52</ele>
        <time>2021-07-04T13:52:11Z</time>
      </trkpt>
      <trkpt lat="44.3005" lon="4.5694">
        <ele>51</ele>
        <time>2021-07-04T13:52:27Z</time>
      </trkpt>
      <trkpt lat="44.30096" lon="4.56746">
        <ele>55</ele>
        <time>2021-07-04T13:53:02Z</time>
      </trkpt>
      <trkpt lat="44.29916" lon="4.56653">
        <ele>57</ele>
        <time>2021-07-04T13:53:46Z</time>
      </trkpt>
      <trkpt lat="44.29932" lon="4.56621">
        <ele>56</ele>
        <time>2021-07-04T13:53:53Z</time>
      </trkpt>
      <trkpt lat="44.2996" lon="4.56544">
        <ele>56</ele>
        <time>2021-07-04T13:54:07Z</time>
      </trkpt>
      <trkpt lat="44.29976" lon="4.5649">
        <ele>58</ele>
        <time>2021-07-04T13:54:17Z</time>
      </trkpt>
      <trkpt lat="44.29984" lon="4.5645">
        <ele>62</ele>
        <time>2021-07-04T13:54:24Z</time>
      </trkpt>
      <trkpt lat="44.30016" lon="4.56327">
        <ele>71</ele>
        <time>2021-07-04T13:54:46Z</time>
      </trkpt>
      <trkpt lat="44.30023" lon="4.56242">
        <ele>73</ele>
        <time>2021-07-04T13:55:00Z</time>
      </trkpt>
      <trkpt lat="44.30038" lon="4.56151">
        <ele>78</ele>
        <time>2021-07-04T13:55:16Z</time>
      </trkpt>
      <trkpt lat="44.30072" lon="4.56061">
        <ele>85</ele>
        <time>2021-07-04T13:55:33Z</time>
      </trkpt>
      <trkpt lat="44.30136" lon="4.55896">
        <ele>89</ele>
        <time>2021-07-04T13:56:04Z</time>
      </trkpt>
      <trkpt lat="44.30141" lon="4.55867">
        <ele>90</ele>
        <time>2021-07-04T13:56:09Z</time>
      </trkpt>
      <trkpt lat="44.30128" lon="4.55834">
        <ele>95</ele>
        <time>2021-07-04T13:56:15Z</time>
      </trkpt>
      <trkpt lat="44.30122" lon="4.55802">
        <ele>95</ele>
        <time>2021-07-04T13:56:21Z</time>
      </trkpt>
      <trkpt lat="44.30118" lon="4.55753">
        <ele>94</ele>
        <time>2021-07-04T13:56:29Z</time>
      </trkpt>
      <trkpt lat="44.30105" lon="4.55713">
        <ele>94</ele>
        <time>2021-07-04T13:56:37Z</time>
      </trkpt>
      <trkpt lat="44.30103" lon="4.5568">
        <ele>94</ele>
        <time>2021-07-04T13:56:42Z</time>
      </trkpt>
      <trkpt lat="44.30277" lon="4.55603">
        <ele>93</ele>
        <time>2021-07-04T13:57:25Z</time>
      </trkpt>
      <trkpt lat="44.30194" lon="4.55492">
        <ele>94</ele>
        <time>2021-07-04T13:57:52Z</time>
      </trkpt>
    </trkseg>
  </trk>
</gpx>